<?xml version="1.0" encoding="UTF-8" standalone="no" ?>
<gpx xmlns="http://www.topografix.com/GPX/1/1" xmlns:xsi="http://www.w3.org/2001/XMLSchema-instance" xsi:schemaLocation="http://www.topografix.com/GPX/1/1 http://www.topografix.com/GPX/1/1/gpx.xsd" version="1.1" creator="VisuGPX - https://www.visugpx.com">
  <metadata>
    <name>Mounta cala entre Beuil et Valberg</name>
    <desc><![CDATA[Differentes boucles au départ de Beuil avec de belles descentes, pour passer une super journée entre potes dans un cadre magnifique. Peut se faire à la découpe...]]></desc>
  </metadata>
  <trk>
    <name><![CDATA[Beuil Cyclisme]]></name>
    <trkseg>
      <trkpt lat="44.09615" lon="6.98615">
        <ele>1458.1999511719</ele>
        <time>2020-08-22T07:47:43.000Z</time>
      </trkpt>
      <trkpt lat="44.09616" lon="6.98616">
        <ele>1458.4000244141</ele>
        <time>2020-08-22T07:47:49.000Z</time>
      </trkpt>
      <trkpt lat="44.09616" lon="6.98617">
        <ele>1458.8000488281</ele>
        <time>2020-08-22T07:47:54.000Z</time>
      </trkpt>
      <trkpt lat="44.09616" lon="6.98616">
        <ele>1459</ele>
        <time>2020-08-22T07:48:06.000Z</time>
      </trkpt>
      <trkpt lat="44.0962" lon="6.98613">
        <ele>1459</ele>
        <time>2020-08-22T07:48:11.000Z</time>
      </trkpt>
      <trkpt lat="44.09629" lon="6.9861">
        <ele>1459</ele>
        <time>2020-08-22T07:48:18.000Z</time>
      </trkpt>
      <trkpt lat="44.0963" lon="6.98608">
        <ele>1459</ele>
        <time>2020-08-22T07:48:19.000Z</time>
      </trkpt>
      <trkpt lat="44.09631" lon="6.98607">
        <ele>1459.1999511719</ele>
        <time>2020-08-22T07:48:20.000Z</time>
      </trkpt>
      <trkpt lat="44.09638" lon="6.98597">
        <ele>1459.8000488281</ele>
        <time>2020-08-22T07:48:26.000Z</time>
      </trkpt>
      <trkpt lat="44.09646" lon="6.9859">
        <ele>1460.1999511719</ele>
        <time>2020-08-22T07:48:31.000Z</time>
      </trkpt>
      <trkpt lat="44.09648" lon="6.98588">
        <ele>1460.4000244141</ele>
        <time>2020-08-22T07:48:32.000Z</time>
      </trkpt>
      <trkpt lat="44.09657" lon="6.98581">
        <ele>1461</ele>
        <time>2020-08-22T07:48:37.000Z</time>
      </trkpt>
      <trkpt lat="44.09661" lon="6.98581">
        <ele>1461.4000244141</ele>
        <time>2020-08-22T07:48:39.000Z</time>
      </trkpt>
      <trkpt lat="44.09669" lon="6.98574">
        <ele>1462.1999511719</ele>
        <time>2020-08-22T07:48:44.000Z</time>
      </trkpt>
      <trkpt lat="44.09671" lon="6.98569">
        <ele>1462.4000244141</ele>
        <time>2020-08-22T07:48:46.000Z</time>
      </trkpt>
      <trkpt lat="44.09675" lon="6.98551">
        <ele>1463.1999511719</ele>
        <time>2020-08-22T07:48:52.000Z</time>
      </trkpt>
      <trkpt lat="44.09675" lon="6.98545">
        <ele>1463.5999755859</ele>
        <time>2020-08-22T07:48:54.000Z</time>
      </trkpt>
      <trkpt lat="44.09673" lon="6.98528">
        <ele>1464.4000244141</ele>
        <time>2020-08-22T07:49:00.000Z</time>
      </trkpt>
      <trkpt lat="44.09673" lon="6.98525">
        <ele>1464.5999755859</ele>
        <time>2020-08-22T07:49:01.000Z</time>
      </trkpt>
      <trkpt lat="44.09669" lon="6.98498">
        <ele>1465.5999755859</ele>
        <time>2020-08-22T07:49:10.000Z</time>
      </trkpt>
      <trkpt lat="44.09668" lon="6.98495">
        <ele>1465.8000488281</ele>
        <time>2020-08-22T07:49:11.000Z</time>
      </trkpt>
      <trkpt lat="44.09665" lon="6.98478">
        <ele>1466.8000488281</ele>
        <time>2020-08-22T07:49:17.000Z</time>
      </trkpt>
      <trkpt lat="44.09665" lon="6.98472">
        <ele>1467.1999511719</ele>
        <time>2020-08-22T07:49:19.000Z</time>
      </trkpt>
      <trkpt lat="44.09663" lon="6.9846">
        <ele>1467.8000488281</ele>
        <time>2020-08-22T07:49:23.000Z</time>
      </trkpt>
      <trkpt lat="44.09663" lon="6.98445">
        <ele>1468.5999755859</ele>
        <time>2020-08-22T07:49:28.000Z</time>
      </trkpt>
      <trkpt lat="44.09664" lon="6.98439">
        <ele>1468.8000488281</ele>
        <time>2020-08-22T07:49:30.000Z</time>
      </trkpt>
      <trkpt lat="44.09665" lon="6.98424">
        <ele>1469.8000488281</ele>
        <time>2020-08-22T07:49:35.000Z</time>
      </trkpt>
      <trkpt lat="44.09665" lon="6.98421">
        <ele>1470</ele>
        <time>2020-08-22T07:49:36.000Z</time>
      </trkpt>
      <trkpt lat="44.09666" lon="6.98402">
        <ele>1471</ele>
        <time>2020-08-22T07:49:42.000Z</time>
      </trkpt>
      <trkpt lat="44.0967" lon="6.98382">
        <ele>1472</ele>
        <time>2020-08-22T07:49:49.000Z</time>
      </trkpt>
      <trkpt lat="44.09674" lon="6.98365">
        <ele>1473</ele>
        <time>2020-08-22T07:49:55.000Z</time>
      </trkpt>
      <trkpt lat="44.09677" lon="6.98354">
        <ele>1473.5999755859</ele>
        <time>2020-08-22T07:49:59.000Z</time>
      </trkpt>
      <trkpt lat="44.09679" lon="6.98345">
        <ele>1474.1999511719</ele>
        <time>2020-08-22T07:50:02.000Z</time>
      </trkpt>
      <trkpt lat="44.09682" lon="6.98329">
        <ele>1475.1999511719</ele>
        <time>2020-08-22T07:50:08.000Z</time>
      </trkpt>
      <trkpt lat="44.09684" lon="6.98323">
        <ele>1475.5999755859</ele>
        <time>2020-08-22T07:50:10.000Z</time>
      </trkpt>
      <trkpt lat="44.09685" lon="6.98307">
        <ele>1476.4000244141</ele>
        <time>2020-08-22T07:50:16.000Z</time>
      </trkpt>
      <trkpt lat="44.09686" lon="6.98298">
        <ele>1476.8000488281</ele>
        <time>2020-08-22T07:50:19.000Z</time>
      </trkpt>
      <trkpt lat="44.09687" lon="6.98286">
        <ele>1477.4000244141</ele>
        <time>2020-08-22T07:50:23.000Z</time>
      </trkpt>
      <trkpt lat="44.09687" lon="6.9828">
        <ele>1477.8000488281</ele>
        <time>2020-08-22T07:50:25.000Z</time>
      </trkpt>
      <trkpt lat="44.09687" lon="6.98265">
        <ele>1478.5999755859</ele>
        <time>2020-08-22T07:50:30.000Z</time>
      </trkpt>
      <trkpt lat="44.09687" lon="6.98245">
        <ele>1479.4000244141</ele>
        <time>2020-08-22T07:50:37.000Z</time>
      </trkpt>
      <trkpt lat="44.09687" lon="6.98242">
        <ele>1479.5999755859</ele>
        <time>2020-08-22T07:50:38.000Z</time>
      </trkpt>
      <trkpt lat="44.09687" lon="6.98227">
        <ele>1480.5999755859</ele>
        <time>2020-08-22T07:50:43.000Z</time>
      </trkpt>
      <trkpt lat="44.09688" lon="6.98219">
        <ele>1481</ele>
        <time>2020-08-22T07:50:46.000Z</time>
      </trkpt>
      <trkpt lat="44.09688" lon="6.98207">
        <ele>1481.8000488281</ele>
        <time>2020-08-22T07:50:50.000Z</time>
      </trkpt>
      <trkpt lat="44.09685" lon="6.98193">
        <ele>1482.5999755859</ele>
        <time>2020-08-22T07:50:55.000Z</time>
      </trkpt>
      <trkpt lat="44.09684" lon="6.98187">
        <ele>1482.8000488281</ele>
        <time>2020-08-22T07:50:57.000Z</time>
      </trkpt>
      <trkpt lat="44.09676" lon="6.98173">
        <ele>1483.8000488281</ele>
        <time>2020-08-22T07:51:03.000Z</time>
      </trkpt>
      <trkpt lat="44.09663" lon="6.9816">
        <ele>1484.8000488281</ele>
        <time>2020-08-22T07:51:10.000Z</time>
      </trkpt>
      <trkpt lat="44.09657" lon="6.98155">
        <ele>1485.1999511719</ele>
        <time>2020-08-22T07:51:13.000Z</time>
      </trkpt>
      <trkpt lat="44.09649" lon="6.98148">
        <ele>1486</ele>
        <time>2020-08-22T07:51:17.000Z</time>
      </trkpt>
      <trkpt lat="44.09641" lon="6.98137">
        <ele>1487</ele>
        <time>2020-08-22T07:51:22.000Z</time>
      </trkpt>
      <trkpt lat="44.09639" lon="6.98134">
        <ele>1487</ele>
        <time>2020-08-22T07:51:23.000Z</time>
      </trkpt>
      <trkpt lat="44.09632" lon="6.98117">
        <ele>1488</ele>
        <time>2020-08-22T07:51:29.000Z</time>
      </trkpt>
      <trkpt lat="44.0963" lon="6.98111">
        <ele>1488.4000244141</ele>
        <time>2020-08-22T07:51:31.000Z</time>
      </trkpt>
      <trkpt lat="44.09627" lon="6.98098">
        <ele>1489.1999511719</ele>
        <time>2020-08-22T07:51:35.000Z</time>
      </trkpt>
      <trkpt lat="44.09624" lon="6.98086">
        <ele>1490.1999511719</ele>
        <time>2020-08-22T07:51:39.000Z</time>
      </trkpt>
      <trkpt lat="44.09622" lon="6.9808">
        <ele>1490.4000244141</ele>
        <time>2020-08-22T07:51:41.000Z</time>
      </trkpt>
      <trkpt lat="44.09619" lon="6.98061">
        <ele>1491.4000244141</ele>
        <time>2020-08-22T07:51:47.000Z</time>
      </trkpt>
      <trkpt lat="44.09616" lon="6.98042">
        <ele>1492.5999755859</ele>
        <time>2020-08-22T07:51:53.000Z</time>
      </trkpt>
      <trkpt lat="44.09616" lon="6.98029">
        <ele>1493.1999511719</ele>
        <time>2020-08-22T07:51:57.000Z</time>
      </trkpt>
      <trkpt lat="44.09616" lon="6.98023">
        <ele>1493.5999755859</ele>
        <time>2020-08-22T07:51:59.000Z</time>
      </trkpt>
      <trkpt lat="44.09616" lon="6.98002">
        <ele>1494.5999755859</ele>
        <time>2020-08-22T07:52:06.000Z</time>
      </trkpt>
      <trkpt lat="44.09617" lon="6.97999">
        <ele>1494.8000488281</ele>
        <time>2020-08-22T07:52:07.000Z</time>
      </trkpt>
      <trkpt lat="44.09618" lon="6.97981">
        <ele>1496</ele>
        <time>2020-08-22T07:52:13.000Z</time>
      </trkpt>
      <trkpt lat="44.09618" lon="6.97975">
        <ele>1496.1999511719</ele>
        <time>2020-08-22T07:52:15.000Z</time>
      </trkpt>
      <trkpt lat="44.09619" lon="6.9796">
        <ele>1497</ele>
        <time>2020-08-22T07:52:20.000Z</time>
      </trkpt>
      <trkpt lat="44.09619" lon="6.97941">
        <ele>1498</ele>
        <time>2020-08-22T07:52:26.000Z</time>
      </trkpt>
      <trkpt lat="44.09619" lon="6.97938">
        <ele>1498.1999511719</ele>
        <time>2020-08-22T07:52:27.000Z</time>
      </trkpt>
      <trkpt lat="44.09618" lon="6.97922">
        <ele>1499.1999511719</ele>
        <time>2020-08-22T07:52:32.000Z</time>
      </trkpt>
      <trkpt lat="44.09617" lon="6.97916">
        <ele>1499.5999755859</ele>
        <time>2020-08-22T07:52:34.000Z</time>
      </trkpt>
      <trkpt lat="44.09614" lon="6.97904">
        <ele>1500.4000244141</ele>
        <time>2020-08-22T07:52:38.000Z</time>
      </trkpt>
      <trkpt lat="44.09611" lon="6.97891">
        <ele>1501</ele>
        <time>2020-08-22T07:52:43.000Z</time>
      </trkpt>
      <trkpt lat="44.09606" lon="6.97883">
        <ele>1501.4000244141</ele>
        <time>2020-08-22T07:52:46.000Z</time>
      </trkpt>
      <trkpt lat="44.09599" lon="6.97869">
        <ele>1502.5999755859</ele>
        <time>2020-08-22T07:52:51.000Z</time>
      </trkpt>
      <trkpt lat="44.09596" lon="6.97864">
        <ele>1502.8000488281</ele>
        <time>2020-08-22T07:52:53.000Z</time>
      </trkpt>
      <trkpt lat="44.0959" lon="6.97852">
        <ele>1503.5999755859</ele>
        <time>2020-08-22T07:52:58.000Z</time>
      </trkpt>
      <trkpt lat="44.09582" lon="6.9784">
        <ele>1504.1999511719</ele>
        <time>2020-08-22T07:53:03.000Z</time>
      </trkpt>
      <trkpt lat="44.09579" lon="6.97835">
        <ele>1504.8000488281</ele>
        <time>2020-08-22T07:53:05.000Z</time>
      </trkpt>
      <trkpt lat="44.09571" lon="6.9782">
        <ele>1505.8000488281</ele>
        <time>2020-08-22T07:53:11.000Z</time>
      </trkpt>
      <trkpt lat="44.09568" lon="6.97812">
        <ele>1506.4000244141</ele>
        <time>2020-08-22T07:53:14.000Z</time>
      </trkpt>
      <trkpt lat="44.09563" lon="6.97802">
        <ele>1506.8000488281</ele>
        <time>2020-08-22T07:53:18.000Z</time>
      </trkpt>
      <trkpt lat="44.09555" lon="6.97787">
        <ele>1507.8000488281</ele>
        <time>2020-08-22T07:53:24.000Z</time>
      </trkpt>
      <trkpt lat="44.09554" lon="6.97784">
        <ele>1508</ele>
        <time>2020-08-22T07:53:25.000Z</time>
      </trkpt>
      <trkpt lat="44.09545" lon="6.97766">
        <ele>1509</ele>
        <time>2020-08-22T07:53:32.000Z</time>
      </trkpt>
      <trkpt lat="44.09541" lon="6.97758">
        <ele>1509.4000244141</ele>
        <time>2020-08-22T07:53:35.000Z</time>
      </trkpt>
      <trkpt lat="44.09534" lon="6.97742">
        <ele>1510.1999511719</ele>
        <time>2020-08-22T07:53:41.000Z</time>
      </trkpt>
      <trkpt lat="44.09527" lon="6.97729">
        <ele>1511</ele>
        <time>2020-08-22T07:53:46.000Z</time>
      </trkpt>
      <trkpt lat="44.09526" lon="6.97724">
        <ele>1511.4000244141</ele>
        <time>2020-08-22T07:53:48.000Z</time>
      </trkpt>
      <trkpt lat="44.0952" lon="6.97705">
        <ele>1512.4000244141</ele>
        <time>2020-08-22T07:53:54.000Z</time>
      </trkpt>
      <trkpt lat="44.09519" lon="6.97702">
        <ele>1512.5999755859</ele>
        <time>2020-08-22T07:53:55.000Z</time>
      </trkpt>
      <trkpt lat="44.09516" lon="6.97684">
        <ele>1513.5999755859</ele>
        <time>2020-08-22T07:54:01.000Z</time>
      </trkpt>
      <trkpt lat="44.09514" lon="6.97671">
        <ele>1514.1999511719</ele>
        <time>2020-08-22T07:54:05.000Z</time>
      </trkpt>
      <trkpt lat="44.09512" lon="6.97659">
        <ele>1514.8000488281</ele>
        <time>2020-08-22T07:54:09.000Z</time>
      </trkpt>
      <trkpt lat="44.09508" lon="6.97641">
        <ele>1515.8000488281</ele>
        <time>2020-08-22T07:54:15.000Z</time>
      </trkpt>
      <trkpt lat="44.09508" lon="6.97638">
        <ele>1516</ele>
        <time>2020-08-22T07:54:16.000Z</time>
      </trkpt>
      <trkpt lat="44.09501" lon="6.97618">
        <ele>1517</ele>
        <time>2020-08-22T07:54:23.000Z</time>
      </trkpt>
      <trkpt lat="44.09499" lon="6.97616">
        <ele>1517</ele>
        <time>2020-08-22T07:54:24.000Z</time>
      </trkpt>
      <trkpt lat="44.0949" lon="6.97599">
        <ele>1518</ele>
        <time>2020-08-22T07:54:31.000Z</time>
      </trkpt>
      <trkpt lat="44.09485" lon="6.97592">
        <ele>1518.5999755859</ele>
        <time>2020-08-22T07:54:34.000Z</time>
      </trkpt>
      <trkpt lat="44.09481" lon="6.97583">
        <ele>1519</ele>
        <time>2020-08-22T07:54:37.000Z</time>
      </trkpt>
      <trkpt lat="44.09474" lon="6.97563">
        <ele>1520.1999511719</ele>
        <time>2020-08-22T07:54:44.000Z</time>
      </trkpt>
      <trkpt lat="44.09469" lon="6.97543">
        <ele>1521.1999511719</ele>
        <time>2020-08-22T07:54:51.000Z</time>
      </trkpt>
      <trkpt lat="44.09467" lon="6.97531">
        <ele>1522</ele>
        <time>2020-08-22T07:54:55.000Z</time>
      </trkpt>
      <trkpt lat="44.09466" lon="6.97525">
        <ele>1522.4000244141</ele>
        <time>2020-08-22T07:54:57.000Z</time>
      </trkpt>
      <trkpt lat="44.09463" lon="6.97504">
        <ele>1523.5999755859</ele>
        <time>2020-08-22T07:55:04.000Z</time>
      </trkpt>
      <trkpt lat="44.09461" lon="6.97498">
        <ele>1523.8000488281</ele>
        <time>2020-08-22T07:55:06.000Z</time>
      </trkpt>
      <trkpt lat="44.0946" lon="6.97483">
        <ele>1524.5999755859</ele>
        <time>2020-08-22T07:55:11.000Z</time>
      </trkpt>
      <trkpt lat="44.09459" lon="6.97473">
        <ele>1525</ele>
        <time>2020-08-22T07:55:14.000Z</time>
      </trkpt>
      <trkpt lat="44.09456" lon="6.97458">
        <ele>1525.5999755859</ele>
        <time>2020-08-22T07:55:19.000Z</time>
      </trkpt>
      <trkpt lat="44.09455" lon="6.97446">
        <ele>1526</ele>
        <time>2020-08-22T07:55:23.000Z</time>
      </trkpt>
      <trkpt lat="44.09456" lon="6.97434">
        <ele>1526.8000488281</ele>
        <time>2020-08-22T07:55:27.000Z</time>
      </trkpt>
      <trkpt lat="44.09458" lon="6.97425">
        <ele>1527.5999755859</ele>
        <time>2020-08-22T07:55:30.000Z</time>
      </trkpt>
      <trkpt lat="44.09459" lon="6.97419">
        <ele>1527.8000488281</ele>
        <time>2020-08-22T07:55:32.000Z</time>
      </trkpt>
      <trkpt lat="44.0946" lon="6.97401">
        <ele>1528.8000488281</ele>
        <time>2020-08-22T07:55:38.000Z</time>
      </trkpt>
      <trkpt lat="44.0946" lon="6.97399">
        <ele>1529</ele>
        <time>2020-08-22T07:55:39.000Z</time>
      </trkpt>
      <trkpt lat="44.09454" lon="6.97382">
        <ele>1530</ele>
        <time>2020-08-22T07:55:45.000Z</time>
      </trkpt>
      <trkpt lat="44.09452" lon="6.9738">
        <ele>1530</ele>
        <time>2020-08-22T07:55:46.000Z</time>
      </trkpt>
      <trkpt lat="44.09441" lon="6.97372">
        <ele>1531</ele>
        <time>2020-08-22T07:55:52.000Z</time>
      </trkpt>
      <trkpt lat="44.09436" lon="6.97371">
        <ele>1531.1999511719</ele>
        <time>2020-08-22T07:55:54.000Z</time>
      </trkpt>
      <trkpt lat="44.09426" lon="6.97373">
        <ele>1531.8000488281</ele>
        <time>2020-08-22T07:55:59.000Z</time>
      </trkpt>
      <trkpt lat="44.09422" lon="6.97374">
        <ele>1532.4000244141</ele>
        <time>2020-08-22T07:56:01.000Z</time>
      </trkpt>
      <trkpt lat="44.09409" lon="6.9738">
        <ele>1533.1999511719</ele>
        <time>2020-08-22T07:56:07.000Z</time>
      </trkpt>
      <trkpt lat="44.09407" lon="6.97381">
        <ele>1533.4000244141</ele>
        <time>2020-08-22T07:56:08.000Z</time>
      </trkpt>
      <trkpt lat="44.0939" lon="6.97389">
        <ele>1534.4000244141</ele>
        <time>2020-08-22T07:56:16.000Z</time>
      </trkpt>
      <trkpt lat="44.09387" lon="6.9739">
        <ele>1534.4000244141</ele>
        <time>2020-08-22T07:56:17.000Z</time>
      </trkpt>
      <trkpt lat="44.09374" lon="6.9739">
        <ele>1535.4000244141</ele>
        <time>2020-08-22T07:56:23.000Z</time>
      </trkpt>
      <trkpt lat="44.09372" lon="6.97389">
        <ele>1535.4000244141</ele>
        <time>2020-08-22T07:56:24.000Z</time>
      </trkpt>
      <trkpt lat="44.0936" lon="6.97383">
        <ele>1536.5999755859</ele>
        <time>2020-08-22T07:56:30.000Z</time>
      </trkpt>
      <trkpt lat="44.09358" lon="6.97381">
        <ele>1536.5999755859</ele>
        <time>2020-08-22T07:56:31.000Z</time>
      </trkpt>
      <trkpt lat="44.09348" lon="6.97368">
        <ele>1537.5999755859</ele>
        <time>2020-08-22T07:56:37.000Z</time>
      </trkpt>
      <trkpt lat="44.09344" lon="6.97363">
        <ele>1538.1999511719</ele>
        <time>2020-08-22T07:56:39.000Z</time>
      </trkpt>
      <trkpt lat="44.09339" lon="6.97356">
        <ele>1538.5999755859</ele>
        <time>2020-08-22T07:56:42.000Z</time>
      </trkpt>
      <trkpt lat="44.09327" lon="6.9734">
        <ele>1539.8000488281</ele>
        <time>2020-08-22T07:56:49.000Z</time>
      </trkpt>
      <trkpt lat="44.09326" lon="6.97338">
        <ele>1540</ele>
        <time>2020-08-22T07:56:50.000Z</time>
      </trkpt>
      <trkpt lat="44.09317" lon="6.97326">
        <ele>1540.8000488281</ele>
        <time>2020-08-22T07:56:55.000Z</time>
      </trkpt>
      <trkpt lat="44.09305" lon="6.97311">
        <ele>1542</ele>
        <time>2020-08-22T07:57:02.000Z</time>
      </trkpt>
      <trkpt lat="44.09294" lon="6.97297">
        <ele>1543</ele>
        <time>2020-08-22T07:57:09.000Z</time>
      </trkpt>
      <trkpt lat="44.09288" lon="6.97291">
        <ele>1543.4000244141</ele>
        <time>2020-08-22T07:57:12.000Z</time>
      </trkpt>
      <trkpt lat="44.09279" lon="6.97283">
        <ele>1544.1999511719</ele>
        <time>2020-08-22T07:57:17.000Z</time>
      </trkpt>
      <trkpt lat="44.09263" lon="6.97271">
        <ele>1545.1999511719</ele>
        <time>2020-08-22T07:57:25.000Z</time>
      </trkpt>
      <trkpt lat="44.09261" lon="6.9727">
        <ele>1545.1999511719</ele>
        <time>2020-08-22T07:57:26.000Z</time>
      </trkpt>
      <trkpt lat="44.09246" lon="6.97262">
        <ele>1546.1999511719</ele>
        <time>2020-08-22T07:57:33.000Z</time>
      </trkpt>
      <trkpt lat="44.09241" lon="6.9726">
        <ele>1546.5999755859</ele>
        <time>2020-08-22T07:57:35.000Z</time>
      </trkpt>
      <trkpt lat="44.09228" lon="6.97253">
        <ele>1547.1999511719</ele>
        <time>2020-08-22T07:57:41.000Z</time>
      </trkpt>
      <trkpt lat="44.09218" lon="6.97249">
        <ele>1547.8000488281</ele>
        <time>2020-08-22T07:57:45.000Z</time>
      </trkpt>
      <trkpt lat="44.09209" lon="6.97243">
        <ele>1548.4000244141</ele>
        <time>2020-08-22T07:57:49.000Z</time>
      </trkpt>
      <trkpt lat="44.09201" lon="6.97238">
        <ele>1549</ele>
        <time>2020-08-22T07:57:53.000Z</time>
      </trkpt>
      <trkpt lat="44.09195" lon="6.97234">
        <ele>1549.4000244141</ele>
        <time>2020-08-22T07:57:56.000Z</time>
      </trkpt>
      <trkpt lat="44.09179" lon="6.9722">
        <ele>1550.5999755859</ele>
        <time>2020-08-22T07:58:04.000Z</time>
      </trkpt>
      <trkpt lat="44.0917" lon="6.9721">
        <ele>1551.5999755859</ele>
        <time>2020-08-22T07:58:09.000Z</time>
      </trkpt>
      <trkpt lat="44.0916" lon="6.97197">
        <ele>1552.5999755859</ele>
        <time>2020-08-22T07:58:15.000Z</time>
      </trkpt>
      <trkpt lat="44.09158" lon="6.97195">
        <ele>1552.5999755859</ele>
        <time>2020-08-22T07:58:16.000Z</time>
      </trkpt>
      <trkpt lat="44.09144" lon="6.97178">
        <ele>1553.8000488281</ele>
        <time>2020-08-22T07:58:24.000Z</time>
      </trkpt>
      <trkpt lat="44.09142" lon="6.97176">
        <ele>1554</ele>
        <time>2020-08-22T07:58:25.000Z</time>
      </trkpt>
      <trkpt lat="44.09134" lon="6.97165">
        <ele>1555</ele>
        <time>2020-08-22T07:58:30.000Z</time>
      </trkpt>
      <trkpt lat="44.09123" lon="6.9715">
        <ele>1556</ele>
        <time>2020-08-22T07:58:37.000Z</time>
      </trkpt>
      <trkpt lat="44.09121" lon="6.97147">
        <ele>1556.1999511719</ele>
        <time>2020-08-22T07:58:38.000Z</time>
      </trkpt>
      <trkpt lat="44.09113" lon="6.97132">
        <ele>1557.1999511719</ele>
        <time>2020-08-22T07:58:44.000Z</time>
      </trkpt>
      <trkpt lat="44.0911" lon="6.97123">
        <ele>1557.5999755859</ele>
        <time>2020-08-22T07:58:47.000Z</time>
      </trkpt>
      <trkpt lat="44.09105" lon="6.97112">
        <ele>1558.1999511719</ele>
        <time>2020-08-22T07:58:51.000Z</time>
      </trkpt>
      <trkpt lat="44.09099" lon="6.97096">
        <ele>1559.1999511719</ele>
        <time>2020-08-22T07:58:57.000Z</time>
      </trkpt>
      <trkpt lat="44.09098" lon="6.97093">
        <ele>1559.4000244141</ele>
        <time>2020-08-22T07:58:58.000Z</time>
      </trkpt>
      <trkpt lat="44.09088" lon="6.97074">
        <ele>1560.4000244141</ele>
        <time>2020-08-22T07:59:06.000Z</time>
      </trkpt>
      <trkpt lat="44.09085" lon="6.97067">
        <ele>1560.8000488281</ele>
        <time>2020-08-22T07:59:12.000Z</time>
      </trkpt>
      <trkpt lat="44.09083" lon="6.97068">
        <ele>1561</ele>
        <time>2020-08-22T07:59:15.000Z</time>
      </trkpt>
      <trkpt lat="44.09081" lon="6.97067">
        <ele>1561</ele>
        <time>2020-08-22T07:59:17.000Z</time>
      </trkpt>
      <trkpt lat="44.09077" lon="6.97066">
        <ele>1561</ele>
        <time>2020-08-22T07:59:19.000Z</time>
      </trkpt>
      <trkpt lat="44.09072" lon="6.97066">
        <ele>1560.8000488281</ele>
        <time>2020-08-22T07:59:23.000Z</time>
      </trkpt>
      <trkpt lat="44.09071" lon="6.97067">
        <ele>1560.8000488281</ele>
        <time>2020-08-22T07:59:24.000Z</time>
      </trkpt>
      <trkpt lat="44.09069" lon="6.97071">
        <ele>1560.8000488281</ele>
        <time>2020-08-22T07:59:27.000Z</time>
      </trkpt>
      <trkpt lat="44.09069" lon="6.97074">
        <ele>1561</ele>
        <time>2020-08-22T07:59:29.000Z</time>
      </trkpt>
      <trkpt lat="44.09069" lon="6.97074">
        <ele>1561.4000244141</ele>
        <time>2020-08-22T07:59:33.000Z</time>
      </trkpt>
      <trkpt lat="44.0907" lon="6.97075">
        <ele>1561.5999755859</ele>
        <time>2020-08-22T07:59:34.000Z</time>
      </trkpt>
      <trkpt lat="44.09069" lon="6.97074">
        <ele>1561.5999755859</ele>
        <time>2020-08-22T07:59:37.000Z</time>
      </trkpt>
      <trkpt lat="44.09069" lon="6.97073">
        <ele>1561.1999511719</ele>
        <time>2020-08-22T07:59:44.000Z</time>
      </trkpt>
      <trkpt lat="44.0907" lon="6.97073">
        <ele>1561</ele>
        <time>2020-08-22T07:59:50.000Z</time>
      </trkpt>
      <trkpt lat="44.09068" lon="6.97074">
        <ele>1561</ele>
        <time>2020-08-22T07:59:58.000Z</time>
      </trkpt>
      <trkpt lat="44.09064" lon="6.97078">
        <ele>1561.1999511719</ele>
        <time>2020-08-22T08:00:02.000Z</time>
      </trkpt>
      <trkpt lat="44.09063" lon="6.97082">
        <ele>1561.8000488281</ele>
        <time>2020-08-22T08:00:06.000Z</time>
      </trkpt>
      <trkpt lat="44.09063" lon="6.97082">
        <ele>1561.8000488281</ele>
        <time>2020-08-22T08:00:07.000Z</time>
      </trkpt>
      <trkpt lat="44.09063" lon="6.9708">
        <ele>1562</ele>
        <time>2020-08-22T08:00:10.000Z</time>
      </trkpt>
      <trkpt lat="44.09064" lon="6.97078">
        <ele>1562.1999511719</ele>
        <time>2020-08-22T08:00:12.000Z</time>
      </trkpt>
      <trkpt lat="44.09066" lon="6.97076">
        <ele>1562</ele>
        <time>2020-08-22T08:00:14.000Z</time>
      </trkpt>
      <trkpt lat="44.09069" lon="6.97075">
        <ele>1561.5999755859</ele>
        <time>2020-08-22T08:00:18.000Z</time>
      </trkpt>
      <trkpt lat="44.09069" lon="6.97075">
        <ele>1561</ele>
        <time>2020-08-22T08:00:26.000Z</time>
      </trkpt>
      <trkpt lat="44.09069" lon="6.97075">
        <ele>1560.8000488281</ele>
        <time>2020-08-22T08:00:34.000Z</time>
      </trkpt>
      <trkpt lat="44.09069" lon="6.97075">
        <ele>1561.1999511719</ele>
        <time>2020-08-22T08:00:38.000Z</time>
      </trkpt>
      <trkpt lat="44.09069" lon="6.97076">
        <ele>1561.5999755859</ele>
        <time>2020-08-22T08:00:43.000Z</time>
      </trkpt>
      <trkpt lat="44.09069" lon="6.97075">
        <ele>1561.1999511719</ele>
        <time>2020-08-22T08:00:57.000Z</time>
      </trkpt>
      <trkpt lat="44.09069" lon="6.97075">
        <ele>1561.4000244141</ele>
        <time>2020-08-22T08:01:11.000Z</time>
      </trkpt>
      <trkpt lat="44.0907" lon="6.97075">
        <ele>1561.1999511719</ele>
        <time>2020-08-22T08:01:22.000Z</time>
      </trkpt>
      <trkpt lat="44.09069" lon="6.97075">
        <ele>1561.4000244141</ele>
        <time>2020-08-22T08:01:31.000Z</time>
      </trkpt>
      <trkpt lat="44.0907" lon="6.97074">
        <ele>1561.5999755859</ele>
        <time>2020-08-22T08:01:41.000Z</time>
      </trkpt>
      <trkpt lat="44.0907" lon="6.97075">
        <ele>1560.4000244141</ele>
        <time>2020-08-22T08:01:47.000Z</time>
      </trkpt>
      <trkpt lat="44.0907" lon="6.97075">
        <ele>1560.4000244141</ele>
        <time>2020-08-22T08:01:50.000Z</time>
      </trkpt>
      <trkpt lat="44.0907" lon="6.97075">
        <ele>1561.4000244141</ele>
        <time>2020-08-22T08:01:54.000Z</time>
      </trkpt>
      <trkpt lat="44.09071" lon="6.97076">
        <ele>1561.5999755859</ele>
        <time>2020-08-22T08:02:06.000Z</time>
      </trkpt>
      <trkpt lat="44.0907" lon="6.97076">
        <ele>1561.4000244141</ele>
        <time>2020-08-22T08:02:16.000Z</time>
      </trkpt>
      <trkpt lat="44.09069" lon="6.97076">
        <ele>1561.5999755859</ele>
        <time>2020-08-22T08:02:23.000Z</time>
      </trkpt>
      <trkpt lat="44.09069" lon="6.97077">
        <ele>1561.5999755859</ele>
        <time>2020-08-22T08:02:36.000Z</time>
      </trkpt>
      <trkpt lat="44.09068" lon="6.97077">
        <ele>1561.1999511719</ele>
        <time>2020-08-22T08:02:48.000Z</time>
      </trkpt>
      <trkpt lat="44.09069" lon="6.97077">
        <ele>1561</ele>
        <time>2020-08-22T08:02:58.000Z</time>
      </trkpt>
      <trkpt lat="44.09069" lon="6.97078">
        <ele>1561</ele>
        <time>2020-08-22T08:03:08.000Z</time>
      </trkpt>
      <trkpt lat="44.09068" lon="6.97078">
        <ele>1560.8000488281</ele>
        <time>2020-08-22T08:03:20.000Z</time>
      </trkpt>
      <trkpt lat="44.0907" lon="6.97078">
        <ele>1561.1999511719</ele>
        <time>2020-08-22T08:03:28.000Z</time>
      </trkpt>
      <trkpt lat="44.09071" lon="6.97076">
        <ele>1561</ele>
        <time>2020-08-22T08:03:30.000Z</time>
      </trkpt>
      <trkpt lat="44.09071" lon="6.97076">
        <ele>1560.5999755859</ele>
        <time>2020-08-22T08:03:32.000Z</time>
      </trkpt>
      <trkpt lat="44.09069" lon="6.97074">
        <ele>1560.8000488281</ele>
        <time>2020-08-22T08:03:42.000Z</time>
      </trkpt>
      <trkpt lat="44.09069" lon="6.97072">
        <ele>1560.4000244141</ele>
        <time>2020-08-22T08:03:47.000Z</time>
      </trkpt>
      <trkpt lat="44.09069" lon="6.97072">
        <ele>1560.4000244141</ele>
        <time>2020-08-22T08:03:48.000Z</time>
      </trkpt>
      <trkpt lat="44.09068" lon="6.97072">
        <ele>1560.4000244141</ele>
        <time>2020-08-22T08:03:55.000Z</time>
      </trkpt>
      <trkpt lat="44.09069" lon="6.97072">
        <ele>1560.5999755859</ele>
        <time>2020-08-22T08:04:02.000Z</time>
      </trkpt>
      <trkpt lat="44.09068" lon="6.97072">
        <ele>1560</ele>
        <time>2020-08-22T08:04:09.000Z</time>
      </trkpt>
      <trkpt lat="44.09067" lon="6.97072">
        <ele>1560</ele>
        <time>2020-08-22T08:04:15.000Z</time>
      </trkpt>
      <trkpt lat="44.09067" lon="6.97072">
        <ele>1560.1999511719</ele>
        <time>2020-08-22T08:04:30.000Z</time>
      </trkpt>
      <trkpt lat="44.09067" lon="6.97073">
        <ele>1560.1999511719</ele>
        <time>2020-08-22T08:04:36.000Z</time>
      </trkpt>
      <trkpt lat="44.09066" lon="6.97069">
        <ele>1560.5999755859</ele>
        <time>2020-08-22T08:04:38.000Z</time>
      </trkpt>
      <trkpt lat="44.09068" lon="6.97063">
        <ele>1560.8000488281</ele>
        <time>2020-08-22T08:04:40.000Z</time>
      </trkpt>
      <trkpt lat="44.09076" lon="6.97047">
        <ele>1560</ele>
        <time>2020-08-22T08:04:44.000Z</time>
      </trkpt>
      <trkpt lat="44.09079" lon="6.97035">
        <ele>1559.8000488281</ele>
        <time>2020-08-22T08:04:48.000Z</time>
      </trkpt>
      <trkpt lat="44.09077" lon="6.97023">
        <ele>1560.4000244141</ele>
        <time>2020-08-22T08:04:51.000Z</time>
      </trkpt>
      <trkpt lat="44.09075" lon="6.97008">
        <ele>1560.4000244141</ele>
        <time>2020-08-22T08:04:54.000Z</time>
      </trkpt>
      <trkpt lat="44.09074" lon="6.96985">
        <ele>1560.1999511719</ele>
        <time>2020-08-22T08:05:00.000Z</time>
      </trkpt>
      <trkpt lat="44.09077" lon="6.96983">
        <ele>1560.1999511719</ele>
        <time>2020-08-22T08:05:02.000Z</time>
      </trkpt>
      <trkpt lat="44.09078" lon="6.96987">
        <ele>1560.1999511719</ele>
        <time>2020-08-22T08:05:04.000Z</time>
      </trkpt>
      <trkpt lat="44.09076" lon="6.96993">
        <ele>1560</ele>
        <time>2020-08-22T08:05:06.000Z</time>
      </trkpt>
      <trkpt lat="44.09075" lon="6.97002">
        <ele>1560</ele>
        <time>2020-08-22T08:05:09.000Z</time>
      </trkpt>
      <trkpt lat="44.09078" lon="6.9702">
        <ele>1560</ele>
        <time>2020-08-22T08:05:14.000Z</time>
      </trkpt>
      <trkpt lat="44.09074" lon="6.97046">
        <ele>1560.4000244141</ele>
        <time>2020-08-22T08:05:20.000Z</time>
      </trkpt>
      <trkpt lat="44.09071" lon="6.97057">
        <ele>1560.4000244141</ele>
        <time>2020-08-22T08:05:22.000Z</time>
      </trkpt>
      <trkpt lat="44.09067" lon="6.97071">
        <ele>1559.4000244141</ele>
        <time>2020-08-22T08:05:25.000Z</time>
      </trkpt>
      <trkpt lat="44.09059" lon="6.97082">
        <ele>1560.1999511719</ele>
        <time>2020-08-22T08:05:30.000Z</time>
      </trkpt>
      <trkpt lat="44.09054" lon="6.97086">
        <ele>1561.4000244141</ele>
        <time>2020-08-22T08:05:33.000Z</time>
      </trkpt>
      <trkpt lat="44.09045" lon="6.97089">
        <ele>1562.4000244141</ele>
        <time>2020-08-22T08:05:38.000Z</time>
      </trkpt>
      <trkpt lat="44.09034" lon="6.97087">
        <ele>1563.4000244141</ele>
        <time>2020-08-22T08:05:44.000Z</time>
      </trkpt>
      <trkpt lat="44.09032" lon="6.97086">
        <ele>1563.4000244141</ele>
        <time>2020-08-22T08:05:45.000Z</time>
      </trkpt>
      <trkpt lat="44.09021" lon="6.97084">
        <ele>1564.5999755859</ele>
        <time>2020-08-22T08:05:51.000Z</time>
      </trkpt>
      <trkpt lat="44.09018" lon="6.97082">
        <ele>1564.8000488281</ele>
        <time>2020-08-22T08:05:53.000Z</time>
      </trkpt>
      <trkpt lat="44.09009" lon="6.9708">
        <ele>1565.5999755859</ele>
        <time>2020-08-22T08:05:58.000Z</time>
      </trkpt>
      <trkpt lat="44.09005" lon="6.9708">
        <ele>1566</ele>
        <time>2020-08-22T08:06:00.000Z</time>
      </trkpt>
      <trkpt lat="44.08993" lon="6.97081">
        <ele>1566.5999755859</ele>
        <time>2020-08-22T08:06:06.000Z</time>
      </trkpt>
      <trkpt lat="44.08991" lon="6.9708">
        <ele>1566.5999755859</ele>
        <time>2020-08-22T08:06:07.000Z</time>
      </trkpt>
      <trkpt lat="44.08975" lon="6.97077">
        <ele>1567.5999755859</ele>
        <time>2020-08-22T08:06:15.000Z</time>
      </trkpt>
      <trkpt lat="44.08958" lon="6.97069">
        <ele>1568.5999755859</ele>
        <time>2020-08-22T08:06:24.000Z</time>
      </trkpt>
      <trkpt lat="44.08956" lon="6.97068">
        <ele>1568.8000488281</ele>
        <time>2020-08-22T08:06:25.000Z</time>
      </trkpt>
      <trkpt lat="44.08944" lon="6.97063">
        <ele>1569.8000488281</ele>
        <time>2020-08-22T08:06:31.000Z</time>
      </trkpt>
      <trkpt lat="44.0894" lon="6.97061">
        <ele>1570.1999511719</ele>
        <time>2020-08-22T08:06:33.000Z</time>
      </trkpt>
      <trkpt lat="44.08927" lon="6.97053">
        <ele>1570.8000488281</ele>
        <time>2020-08-22T08:06:40.000Z</time>
      </trkpt>
      <trkpt lat="44.08923" lon="6.9705">
        <ele>1571.1999511719</ele>
        <time>2020-08-22T08:06:42.000Z</time>
      </trkpt>
      <trkpt lat="44.08918" lon="6.97046">
        <ele>1572</ele>
        <time>2020-08-22T08:06:45.000Z</time>
      </trkpt>
      <trkpt lat="44.08905" lon="6.97037">
        <ele>1573</ele>
        <time>2020-08-22T08:06:52.000Z</time>
      </trkpt>
      <trkpt lat="44.0889" lon="6.97027">
        <ele>1574</ele>
        <time>2020-08-22T08:07:00.000Z</time>
      </trkpt>
      <trkpt lat="44.0888" lon="6.9702">
        <ele>1575.1999511719</ele>
        <time>2020-08-22T08:07:06.000Z</time>
      </trkpt>
      <trkpt lat="44.08879" lon="6.97018">
        <ele>1575.1999511719</ele>
        <time>2020-08-22T08:07:07.000Z</time>
      </trkpt>
      <trkpt lat="44.08867" lon="6.9701">
        <ele>1576.1999511719</ele>
        <time>2020-08-22T08:07:14.000Z</time>
      </trkpt>
      <trkpt lat="44.08864" lon="6.97008">
        <ele>1576.4000244141</ele>
        <time>2020-08-22T08:07:16.000Z</time>
      </trkpt>
      <trkpt lat="44.08856" lon="6.97004">
        <ele>1577.1999511719</ele>
        <time>2020-08-22T08:07:20.000Z</time>
      </trkpt>
      <trkpt lat="44.08847" lon="6.96999">
        <ele>1578</ele>
        <time>2020-08-22T08:07:25.000Z</time>
      </trkpt>
      <trkpt lat="44.08843" lon="6.96997">
        <ele>1578.1999511719</ele>
        <time>2020-08-22T08:07:27.000Z</time>
      </trkpt>
      <trkpt lat="44.0883" lon="6.96991">
        <ele>1579.1999511719</ele>
        <time>2020-08-22T08:07:34.000Z</time>
      </trkpt>
      <trkpt lat="44.08828" lon="6.9699">
        <ele>1579.4000244141</ele>
        <time>2020-08-22T08:07:35.000Z</time>
      </trkpt>
      <trkpt lat="44.08814" lon="6.96985">
        <ele>1580.4000244141</ele>
        <time>2020-08-22T08:07:42.000Z</time>
      </trkpt>
      <trkpt lat="44.08812" lon="6.96984">
        <ele>1580.4000244141</ele>
        <time>2020-08-22T08:07:43.000Z</time>
      </trkpt>
      <trkpt lat="44.08799" lon="6.96988">
        <ele>1581</ele>
        <time>2020-08-22T08:07:49.000Z</time>
      </trkpt>
      <trkpt lat="44.08797" lon="6.96999">
        <ele>1581.1999511719</ele>
        <time>2020-08-22T08:07:53.000Z</time>
      </trkpt>
      <trkpt lat="44.08805" lon="6.97007">
        <ele>1581.4000244141</ele>
        <time>2020-08-22T08:07:57.000Z</time>
      </trkpt>
      <trkpt lat="44.08821" lon="6.97009">
        <ele>1582</ele>
        <time>2020-08-22T08:08:03.000Z</time>
      </trkpt>
      <trkpt lat="44.08836" lon="6.97016">
        <ele>1582.5999755859</ele>
        <time>2020-08-22T08:08:09.000Z</time>
      </trkpt>
      <trkpt lat="44.08845" lon="6.97024">
        <ele>1583.8000488281</ele>
        <time>2020-08-22T08:08:13.000Z</time>
      </trkpt>
      <trkpt lat="44.08852" lon="6.97034">
        <ele>1584.5999755859</ele>
        <time>2020-08-22T08:08:17.000Z</time>
      </trkpt>
      <trkpt lat="44.08855" lon="6.97039">
        <ele>1584.8000488281</ele>
        <time>2020-08-22T08:08:19.000Z</time>
      </trkpt>
      <trkpt lat="44.08863" lon="6.97053">
        <ele>1585.5999755859</ele>
        <time>2020-08-22T08:08:24.000Z</time>
      </trkpt>
      <trkpt lat="44.08866" lon="6.97059">
        <ele>1586</ele>
        <time>2020-08-22T08:08:26.000Z</time>
      </trkpt>
      <trkpt lat="44.08872" lon="6.97075">
        <ele>1587.1999511719</ele>
        <time>2020-08-22T08:08:31.000Z</time>
      </trkpt>
      <trkpt lat="44.08874" lon="6.97081">
        <ele>1587.5999755859</ele>
        <time>2020-08-22T08:08:33.000Z</time>
      </trkpt>
      <trkpt lat="44.08878" lon="6.9709">
        <ele>1588.1999511719</ele>
        <time>2020-08-22T08:08:36.000Z</time>
      </trkpt>
      <trkpt lat="44.08886" lon="6.97107">
        <ele>1589.1999511719</ele>
        <time>2020-08-22T08:08:42.000Z</time>
      </trkpt>
      <trkpt lat="44.08889" lon="6.97112">
        <ele>1589.4000244141</ele>
        <time>2020-08-22T08:08:44.000Z</time>
      </trkpt>
      <trkpt lat="44.08894" lon="6.97122">
        <ele>1590.5999755859</ele>
        <time>2020-08-22T08:08:49.000Z</time>
      </trkpt>
      <trkpt lat="44.08902" lon="6.97139">
        <ele>1591.4000244141</ele>
        <time>2020-08-22T08:08:57.000Z</time>
      </trkpt>
      <trkpt lat="44.08906" lon="6.97146">
        <ele>1591.5999755859</ele>
        <time>2020-08-22T08:09:00.000Z</time>
      </trkpt>
      <trkpt lat="44.08915" lon="6.97161">
        <ele>1592.5999755859</ele>
        <time>2020-08-22T08:09:07.000Z</time>
      </trkpt>
      <trkpt lat="44.08917" lon="6.97165">
        <ele>1593</ele>
        <time>2020-08-22T08:09:09.000Z</time>
      </trkpt>
      <trkpt lat="44.08923" lon="6.97177">
        <ele>1593.8000488281</ele>
        <time>2020-08-22T08:09:14.000Z</time>
      </trkpt>
      <trkpt lat="44.08923" lon="6.97181">
        <ele>1594</ele>
        <time>2020-08-22T08:09:16.000Z</time>
      </trkpt>
      <trkpt lat="44.08918" lon="6.972">
        <ele>1594.5999755859</ele>
        <time>2020-08-22T08:09:23.000Z</time>
      </trkpt>
      <trkpt lat="44.08911" lon="6.97221">
        <ele>1594.1999511719</ele>
        <time>2020-08-22T08:09:28.000Z</time>
      </trkpt>
      <trkpt lat="44.08904" lon="6.97248">
        <ele>1592.4000244141</ele>
        <time>2020-08-22T08:09:32.000Z</time>
      </trkpt>
      <trkpt lat="44.089" lon="6.97263">
        <ele>1591.8000488281</ele>
        <time>2020-08-22T08:09:34.000Z</time>
      </trkpt>
      <trkpt lat="44.08898" lon="6.97272">
        <ele>1590.8000488281</ele>
        <time>2020-08-22T08:09:35.000Z</time>
      </trkpt>
      <trkpt lat="44.08889" lon="6.97307">
        <ele>1589.4000244141</ele>
        <time>2020-08-22T08:09:39.000Z</time>
      </trkpt>
      <trkpt lat="44.08887" lon="6.97315">
        <ele>1588.8000488281</ele>
        <time>2020-08-22T08:09:40.000Z</time>
      </trkpt>
      <trkpt lat="44.08884" lon="6.97324">
        <ele>1588.4000244141</ele>
        <time>2020-08-22T08:09:41.000Z</time>
      </trkpt>
      <trkpt lat="44.0888" lon="6.9734">
        <ele>1586.8000488281</ele>
        <time>2020-08-22T08:09:43.000Z</time>
      </trkpt>
      <trkpt lat="44.08877" lon="6.97347">
        <ele>1586.5999755859</ele>
        <time>2020-08-22T08:09:44.000Z</time>
      </trkpt>
      <trkpt lat="44.08873" lon="6.97358">
        <ele>1586.5999755859</ele>
        <time>2020-08-22T08:09:46.000Z</time>
      </trkpt>
      <trkpt lat="44.0886" lon="6.97383">
        <ele>1587</ele>
        <time>2020-08-22T08:09:51.000Z</time>
      </trkpt>
      <trkpt lat="44.0885" lon="6.97396">
        <ele>1588</ele>
        <time>2020-08-22T08:09:56.000Z</time>
      </trkpt>
      <trkpt lat="44.08848" lon="6.97398">
        <ele>1588.4000244141</ele>
        <time>2020-08-22T08:09:57.000Z</time>
      </trkpt>
      <trkpt lat="44.08841" lon="6.97405">
        <ele>1589.4000244141</ele>
        <time>2020-08-22T08:10:01.000Z</time>
      </trkpt>
      <trkpt lat="44.08835" lon="6.97412">
        <ele>1590.5999755859</ele>
        <time>2020-08-22T08:10:05.000Z</time>
      </trkpt>
      <trkpt lat="44.08829" lon="6.9742">
        <ele>1591.5999755859</ele>
        <time>2020-08-22T08:10:09.000Z</time>
      </trkpt>
      <trkpt lat="44.08827" lon="6.97422">
        <ele>1592</ele>
        <time>2020-08-22T08:10:11.000Z</time>
      </trkpt>
      <trkpt lat="44.08821" lon="6.97427">
        <ele>1592.8000488281</ele>
        <time>2020-08-22T08:10:16.000Z</time>
      </trkpt>
      <trkpt lat="44.0882" lon="6.97428">
        <ele>1593.1999511719</ele>
        <time>2020-08-22T08:10:17.000Z</time>
      </trkpt>
      <trkpt lat="44.08819" lon="6.97429">
        <ele>1593.8000488281</ele>
        <time>2020-08-22T08:10:18.000Z</time>
      </trkpt>
      <trkpt lat="44.08818" lon="6.97431">
        <ele>1594</ele>
        <time>2020-08-22T08:10:19.000Z</time>
      </trkpt>
      <trkpt lat="44.08816" lon="6.97434">
        <ele>1594.1999511719</ele>
        <time>2020-08-22T08:10:21.000Z</time>
      </trkpt>
      <trkpt lat="44.0881" lon="6.97441">
        <ele>1595.1999511719</ele>
        <time>2020-08-22T08:10:25.000Z</time>
      </trkpt>
      <trkpt lat="44.08805" lon="6.97445">
        <ele>1596</ele>
        <time>2020-08-22T08:10:29.000Z</time>
      </trkpt>
      <trkpt lat="44.08804" lon="6.97446">
        <ele>1596.4000244141</ele>
        <time>2020-08-22T08:10:30.000Z</time>
      </trkpt>
      <trkpt lat="44.08799" lon="6.97451">
        <ele>1597.4000244141</ele>
        <time>2020-08-22T08:10:34.000Z</time>
      </trkpt>
      <trkpt lat="44.08796" lon="6.97453">
        <ele>1598.5999755859</ele>
        <time>2020-08-22T08:10:37.000Z</time>
      </trkpt>
      <trkpt lat="44.08791" lon="6.97456">
        <ele>1599</ele>
        <time>2020-08-22T08:10:40.000Z</time>
      </trkpt>
      <trkpt lat="44.08789" lon="6.97461">
        <ele>1599.5999755859</ele>
        <time>2020-08-22T08:10:43.000Z</time>
      </trkpt>
      <trkpt lat="44.08787" lon="6.97465">
        <ele>1600</ele>
        <time>2020-08-22T08:10:45.000Z</time>
      </trkpt>
      <trkpt lat="44.08782" lon="6.97473">
        <ele>1600.8000488281</ele>
        <time>2020-08-22T08:10:49.000Z</time>
      </trkpt>
      <trkpt lat="44.08778" lon="6.97478">
        <ele>1601.4000244141</ele>
        <time>2020-08-22T08:10:52.000Z</time>
      </trkpt>
      <trkpt lat="44.08773" lon="6.97485">
        <ele>1601.8000488281</ele>
        <time>2020-08-22T08:10:56.000Z</time>
      </trkpt>
      <trkpt lat="44.08767" lon="6.97495">
        <ele>1602.4000244141</ele>
        <time>2020-08-22T08:11:01.000Z</time>
      </trkpt>
      <trkpt lat="44.0876" lon="6.97504">
        <ele>1602.8000488281</ele>
        <time>2020-08-22T08:11:06.000Z</time>
      </trkpt>
      <trkpt lat="44.08755" lon="6.9751">
        <ele>1603</ele>
        <time>2020-08-22T08:11:09.000Z</time>
      </trkpt>
      <trkpt lat="44.08746" lon="6.97519">
        <ele>1604</ele>
        <time>2020-08-22T08:11:15.000Z</time>
      </trkpt>
      <trkpt lat="44.08742" lon="6.97521">
        <ele>1604.1999511719</ele>
        <time>2020-08-22T08:11:17.000Z</time>
      </trkpt>
      <trkpt lat="44.08735" lon="6.97528">
        <ele>1605.1999511719</ele>
        <time>2020-08-22T08:11:23.000Z</time>
      </trkpt>
      <trkpt lat="44.0873" lon="6.9753">
        <ele>1606.1999511719</ele>
        <time>2020-08-22T08:11:27.000Z</time>
      </trkpt>
      <trkpt lat="44.08726" lon="6.97532">
        <ele>1607</ele>
        <time>2020-08-22T08:11:30.000Z</time>
      </trkpt>
      <trkpt lat="44.08724" lon="6.97533">
        <ele>1607.1999511719</ele>
        <time>2020-08-22T08:11:32.000Z</time>
      </trkpt>
      <trkpt lat="44.08718" lon="6.97536">
        <ele>1608.4000244141</ele>
        <time>2020-08-22T08:11:37.000Z</time>
      </trkpt>
      <trkpt lat="44.08712" lon="6.97538">
        <ele>1609.5999755859</ele>
        <time>2020-08-22T08:11:43.000Z</time>
      </trkpt>
      <trkpt lat="44.0871" lon="6.97538">
        <ele>1610.1999511719</ele>
        <time>2020-08-22T08:11:45.000Z</time>
      </trkpt>
      <trkpt lat="44.08707" lon="6.97539">
        <ele>1610.8000488281</ele>
        <time>2020-08-22T08:11:47.000Z</time>
      </trkpt>
      <trkpt lat="44.08704" lon="6.9754">
        <ele>1611.5999755859</ele>
        <time>2020-08-22T08:11:50.000Z</time>
      </trkpt>
      <trkpt lat="44.08703" lon="6.9754">
        <ele>1611.8000488281</ele>
        <time>2020-08-22T08:11:51.000Z</time>
      </trkpt>
      <trkpt lat="44.08695" lon="6.9754">
        <ele>1612.4000244141</ele>
        <time>2020-08-22T08:11:58.000Z</time>
      </trkpt>
      <trkpt lat="44.08692" lon="6.9754">
        <ele>1613</ele>
        <time>2020-08-22T08:12:01.000Z</time>
      </trkpt>
      <trkpt lat="44.08685" lon="6.97541">
        <ele>1614</ele>
        <time>2020-08-22T08:12:06.000Z</time>
      </trkpt>
      <trkpt lat="44.08676" lon="6.9754">
        <ele>1615.1999511719</ele>
        <time>2020-08-22T08:12:13.000Z</time>
      </trkpt>
      <trkpt lat="44.08672" lon="6.97539">
        <ele>1615.4000244141</ele>
        <time>2020-08-22T08:12:16.000Z</time>
      </trkpt>
      <trkpt lat="44.08668" lon="6.97539">
        <ele>1616.1999511719</ele>
        <time>2020-08-22T08:12:20.000Z</time>
      </trkpt>
      <trkpt lat="44.08658" lon="6.9754">
        <ele>1617.4000244141</ele>
        <time>2020-08-22T08:12:27.000Z</time>
      </trkpt>
      <trkpt lat="44.08657" lon="6.9754">
        <ele>1617.4000244141</ele>
        <time>2020-08-22T08:12:28.000Z</time>
      </trkpt>
      <trkpt lat="44.08651" lon="6.9754">
        <ele>1618</ele>
        <time>2020-08-22T08:12:34.000Z</time>
      </trkpt>
      <trkpt lat="44.08647" lon="6.9754">
        <ele>1618.4000244141</ele>
        <time>2020-08-22T08:12:37.000Z</time>
      </trkpt>
      <trkpt lat="44.08644" lon="6.97541">
        <ele>1619.4000244141</ele>
        <time>2020-08-22T08:12:40.000Z</time>
      </trkpt>
      <trkpt lat="44.08639" lon="6.97542">
        <ele>1619.5999755859</ele>
        <time>2020-08-22T08:12:44.000Z</time>
      </trkpt>
      <trkpt lat="44.08636" lon="6.97542">
        <ele>1620</ele>
        <time>2020-08-22T08:12:47.000Z</time>
      </trkpt>
      <trkpt lat="44.08631" lon="6.97543">
        <ele>1620.5999755859</ele>
        <time>2020-08-22T08:12:51.000Z</time>
      </trkpt>
      <trkpt lat="44.08627" lon="6.97542">
        <ele>1621.8000488281</ele>
        <time>2020-08-22T08:12:55.000Z</time>
      </trkpt>
      <trkpt lat="44.08626" lon="6.97542">
        <ele>1622.1999511719</ele>
        <time>2020-08-22T08:12:56.000Z</time>
      </trkpt>
      <trkpt lat="44.08622" lon="6.97542">
        <ele>1622.8000488281</ele>
        <time>2020-08-22T08:12:59.000Z</time>
      </trkpt>
      <trkpt lat="44.08618" lon="6.9754">
        <ele>1623.1999511719</ele>
        <time>2020-08-22T08:13:02.000Z</time>
      </trkpt>
      <trkpt lat="44.08614" lon="6.97537">
        <ele>1623.8000488281</ele>
        <time>2020-08-22T08:13:05.000Z</time>
      </trkpt>
      <trkpt lat="44.08611" lon="6.97535">
        <ele>1624</ele>
        <time>2020-08-22T08:13:08.000Z</time>
      </trkpt>
      <trkpt lat="44.08607" lon="6.9753">
        <ele>1625.1999511719</ele>
        <time>2020-08-22T08:13:13.000Z</time>
      </trkpt>
      <trkpt lat="44.08605" lon="6.97528">
        <ele>1625.4000244141</ele>
        <time>2020-08-22T08:13:15.000Z</time>
      </trkpt>
      <trkpt lat="44.08598" lon="6.97525">
        <ele>1626.1999511719</ele>
        <time>2020-08-22T08:13:21.000Z</time>
      </trkpt>
      <trkpt lat="44.08591" lon="6.97522">
        <ele>1627.4000244141</ele>
        <time>2020-08-22T08:13:27.000Z</time>
      </trkpt>
      <trkpt lat="44.0859" lon="6.97522">
        <ele>1627.4000244141</ele>
        <time>2020-08-22T08:13:28.000Z</time>
      </trkpt>
      <trkpt lat="44.08589" lon="6.97521">
        <ele>1627.5999755859</ele>
        <time>2020-08-22T08:13:29.000Z</time>
      </trkpt>
      <trkpt lat="44.08586" lon="6.97519">
        <ele>1628.5999755859</ele>
        <time>2020-08-22T08:13:32.000Z</time>
      </trkpt>
      <trkpt lat="44.08584" lon="6.97517">
        <ele>1629</ele>
        <time>2020-08-22T08:13:34.000Z</time>
      </trkpt>
      <trkpt lat="44.08581" lon="6.97515">
        <ele>1629.5999755859</ele>
        <time>2020-08-22T08:13:38.000Z</time>
      </trkpt>
      <trkpt lat="44.08578" lon="6.97513">
        <ele>1629.8000488281</ele>
        <time>2020-08-22T08:13:40.000Z</time>
      </trkpt>
      <trkpt lat="44.08572" lon="6.97511">
        <ele>1630.8000488281</ele>
        <time>2020-08-22T08:13:46.000Z</time>
      </trkpt>
      <trkpt lat="44.0857" lon="6.9751">
        <ele>1631</ele>
        <time>2020-08-22T08:13:47.000Z</time>
      </trkpt>
      <trkpt lat="44.08568" lon="6.97507">
        <ele>1631.8000488281</ele>
        <time>2020-08-22T08:13:50.000Z</time>
      </trkpt>
      <trkpt lat="44.08567" lon="6.97507">
        <ele>1632</ele>
        <time>2020-08-22T08:13:51.000Z</time>
      </trkpt>
      <trkpt lat="44.08564" lon="6.97506">
        <ele>1632.1999511719</ele>
        <time>2020-08-22T08:13:53.000Z</time>
      </trkpt>
      <trkpt lat="44.0856" lon="6.97507">
        <ele>1632.8000488281</ele>
        <time>2020-08-22T08:13:57.000Z</time>
      </trkpt>
      <trkpt lat="44.08559" lon="6.97507">
        <ele>1633</ele>
        <time>2020-08-22T08:13:58.000Z</time>
      </trkpt>
      <trkpt lat="44.08555" lon="6.97507">
        <ele>1633.8000488281</ele>
        <time>2020-08-22T08:14:01.000Z</time>
      </trkpt>
      <trkpt lat="44.08552" lon="6.97506">
        <ele>1634.8000488281</ele>
        <time>2020-08-22T08:14:04.000Z</time>
      </trkpt>
      <trkpt lat="44.08551" lon="6.97506">
        <ele>1635.1999511719</ele>
        <time>2020-08-22T08:14:05.000Z</time>
      </trkpt>
      <trkpt lat="44.08548" lon="6.97507">
        <ele>1635.8000488281</ele>
        <time>2020-08-22T08:14:08.000Z</time>
      </trkpt>
      <trkpt lat="44.08546" lon="6.97506">
        <ele>1636.8000488281</ele>
        <time>2020-08-22T08:14:11.000Z</time>
      </trkpt>
      <trkpt lat="44.08545" lon="6.97506">
        <ele>1637.1999511719</ele>
        <time>2020-08-22T08:14:12.000Z</time>
      </trkpt>
      <trkpt lat="44.08536" lon="6.97497">
        <ele>1637.8000488281</ele>
        <time>2020-08-22T08:14:20.000Z</time>
      </trkpt>
      <trkpt lat="44.08534" lon="6.97494">
        <ele>1637.8000488281</ele>
        <time>2020-08-22T08:14:22.000Z</time>
      </trkpt>
      <trkpt lat="44.08525" lon="6.97486">
        <ele>1638.1999511719</ele>
        <time>2020-08-22T08:14:29.000Z</time>
      </trkpt>
      <trkpt lat="44.08512" lon="6.97477">
        <ele>1639</ele>
        <time>2020-08-22T08:14:39.000Z</time>
      </trkpt>
      <trkpt lat="44.08506" lon="6.97478">
        <ele>1640</ele>
        <time>2020-08-22T08:14:44.000Z</time>
      </trkpt>
      <trkpt lat="44.08505" lon="6.97479">
        <ele>1640.4000244141</ele>
        <time>2020-08-22T08:14:45.000Z</time>
      </trkpt>
      <trkpt lat="44.08505" lon="6.9748">
        <ele>1640.4000244141</ele>
        <time>2020-08-22T08:14:46.000Z</time>
      </trkpt>
      <trkpt lat="44.08504" lon="6.97487">
        <ele>1641.4000244141</ele>
        <time>2020-08-22T08:14:50.000Z</time>
      </trkpt>
      <trkpt lat="44.08503" lon="6.9749">
        <ele>1642</ele>
        <time>2020-08-22T08:14:52.000Z</time>
      </trkpt>
      <trkpt lat="44.08502" lon="6.97493">
        <ele>1642.5999755859</ele>
        <time>2020-08-22T08:14:55.000Z</time>
      </trkpt>
      <trkpt lat="44.085" lon="6.975">
        <ele>1643.8000488281</ele>
        <time>2020-08-22T08:15:00.000Z</time>
      </trkpt>
      <trkpt lat="44.085" lon="6.97501">
        <ele>1644</ele>
        <time>2020-08-22T08:15:01.000Z</time>
      </trkpt>
      <trkpt lat="44.08498" lon="6.97509">
        <ele>1644.8000488281</ele>
        <time>2020-08-22T08:15:06.000Z</time>
      </trkpt>
      <trkpt lat="44.08497" lon="6.97511">
        <ele>1645</ele>
        <time>2020-08-22T08:15:07.000Z</time>
      </trkpt>
      <trkpt lat="44.08496" lon="6.97516">
        <ele>1646</ele>
        <time>2020-08-22T08:15:11.000Z</time>
      </trkpt>
      <trkpt lat="44.08496" lon="6.97517">
        <ele>1646.1999511719</ele>
        <time>2020-08-22T08:15:12.000Z</time>
      </trkpt>
      <trkpt lat="44.08496" lon="6.9752">
        <ele>1646.8000488281</ele>
        <time>2020-08-22T08:15:17.000Z</time>
      </trkpt>
      <trkpt lat="44.08496" lon="6.97521">
        <ele>1647</ele>
        <time>2020-08-22T08:15:18.000Z</time>
      </trkpt>
      <trkpt lat="44.08498" lon="6.97527">
        <ele>1647.8000488281</ele>
        <time>2020-08-22T08:15:23.000Z</time>
      </trkpt>
      <trkpt lat="44.08498" lon="6.97529">
        <ele>1647.5999755859</ele>
        <time>2020-08-22T08:15:24.000Z</time>
      </trkpt>
      <trkpt lat="44.08496" lon="6.97536">
        <ele>1647.8000488281</ele>
        <time>2020-08-22T08:15:29.000Z</time>
      </trkpt>
      <trkpt lat="44.08495" lon="6.97538">
        <ele>1648</ele>
        <time>2020-08-22T08:15:31.000Z</time>
      </trkpt>
      <trkpt lat="44.08491" lon="6.97544">
        <ele>1648.5999755859</ele>
        <time>2020-08-22T08:15:37.000Z</time>
      </trkpt>
      <trkpt lat="44.0849" lon="6.97545">
        <ele>1649.1999511719</ele>
        <time>2020-08-22T08:15:40.000Z</time>
      </trkpt>
      <trkpt lat="44.08489" lon="6.97547">
        <ele>1649.8000488281</ele>
        <time>2020-08-22T08:15:43.000Z</time>
      </trkpt>
      <trkpt lat="44.08484" lon="6.97555">
        <ele>1649.8000488281</ele>
        <time>2020-08-22T08:15:49.000Z</time>
      </trkpt>
      <trkpt lat="44.08477" lon="6.9756">
        <ele>1650.4000244141</ele>
        <time>2020-08-22T08:15:54.000Z</time>
      </trkpt>
      <trkpt lat="44.08473" lon="6.97565">
        <ele>1651</ele>
        <time>2020-08-22T08:15:58.000Z</time>
      </trkpt>
      <trkpt lat="44.08469" lon="6.97573">
        <ele>1651.4000244141</ele>
        <time>2020-08-22T08:16:02.000Z</time>
      </trkpt>
      <trkpt lat="44.08467" lon="6.97578">
        <ele>1651.8000488281</ele>
        <time>2020-08-22T08:16:05.000Z</time>
      </trkpt>
      <trkpt lat="44.08464" lon="6.97581">
        <ele>1652</ele>
        <time>2020-08-22T08:16:07.000Z</time>
      </trkpt>
      <trkpt lat="44.08458" lon="6.97582">
        <ele>1652.4000244141</ele>
        <time>2020-08-22T08:16:11.000Z</time>
      </trkpt>
      <trkpt lat="44.08456" lon="6.97582">
        <ele>1652.5999755859</ele>
        <time>2020-08-22T08:16:12.000Z</time>
      </trkpt>
      <trkpt lat="44.08454" lon="6.97583">
        <ele>1652.8000488281</ele>
        <time>2020-08-22T08:16:14.000Z</time>
      </trkpt>
      <trkpt lat="44.0845" lon="6.97584">
        <ele>1653</ele>
        <time>2020-08-22T08:16:16.000Z</time>
      </trkpt>
      <trkpt lat="44.0844" lon="6.97593">
        <ele>1651.8000488281</ele>
        <time>2020-08-22T08:16:20.000Z</time>
      </trkpt>
      <trkpt lat="44.08439" lon="6.97595">
        <ele>1651.1999511719</ele>
        <time>2020-08-22T08:16:22.000Z</time>
      </trkpt>
      <trkpt lat="44.08437" lon="6.97598">
        <ele>1650.5999755859</ele>
        <time>2020-08-22T08:16:24.000Z</time>
      </trkpt>
      <trkpt lat="44.08434" lon="6.97601">
        <ele>1650.1999511719</ele>
        <time>2020-08-22T08:16:25.000Z</time>
      </trkpt>
      <trkpt lat="44.08432" lon="6.976">
        <ele>1649.5999755859</ele>
        <time>2020-08-22T08:16:26.000Z</time>
      </trkpt>
      <trkpt lat="44.08431" lon="6.97598">
        <ele>1649.1999511719</ele>
        <time>2020-08-22T08:16:27.000Z</time>
      </trkpt>
      <trkpt lat="44.08431" lon="6.97596">
        <ele>1648.4000244141</ele>
        <time>2020-08-22T08:16:28.000Z</time>
      </trkpt>
      <trkpt lat="44.0843" lon="6.97589">
        <ele>1647.4000244141</ele>
        <time>2020-08-22T08:16:31.000Z</time>
      </trkpt>
      <trkpt lat="44.0843" lon="6.97588">
        <ele>1647.1999511719</ele>
        <time>2020-08-22T08:16:32.000Z</time>
      </trkpt>
      <trkpt lat="44.08429" lon="6.97586">
        <ele>1647.4000244141</ele>
        <time>2020-08-22T08:16:34.000Z</time>
      </trkpt>
      <trkpt lat="44.08426" lon="6.97584">
        <ele>1647.4000244141</ele>
        <time>2020-08-22T08:16:37.000Z</time>
      </trkpt>
      <trkpt lat="44.08425" lon="6.97582">
        <ele>1647.5999755859</ele>
        <time>2020-08-22T08:16:42.000Z</time>
      </trkpt>
      <trkpt lat="44.08427" lon="6.9758">
        <ele>1647.4000244141</ele>
        <time>2020-08-22T08:16:49.000Z</time>
      </trkpt>
      <trkpt lat="44.08429" lon="6.9758">
        <ele>1647.1999511719</ele>
        <time>2020-08-22T08:16:50.000Z</time>
      </trkpt>
      <trkpt lat="44.08431" lon="6.97578">
        <ele>1647.4000244141</ele>
        <time>2020-08-22T08:16:54.000Z</time>
      </trkpt>
      <trkpt lat="44.08431" lon="6.97579">
        <ele>1647.1999511719</ele>
        <time>2020-08-22T08:17:02.000Z</time>
      </trkpt>
      <trkpt lat="44.08432" lon="6.97579">
        <ele>1647.1999511719</ele>
        <time>2020-08-22T08:17:23.000Z</time>
      </trkpt>
      <trkpt lat="44.08431" lon="6.9758">
        <ele>1647.1999511719</ele>
        <time>2020-08-22T08:17:24.000Z</time>
      </trkpt>
      <trkpt lat="44.0843" lon="6.97586">
        <ele>1647</ele>
        <time>2020-08-22T08:17:32.000Z</time>
      </trkpt>
      <trkpt lat="44.08431" lon="6.97587">
        <ele>1647</ele>
        <time>2020-08-22T08:17:40.000Z</time>
      </trkpt>
      <trkpt lat="44.08431" lon="6.97587">
        <ele>1647</ele>
        <time>2020-08-22T08:17:50.000Z</time>
      </trkpt>
      <trkpt lat="44.0843" lon="6.97584">
        <ele>1646.5999755859</ele>
        <time>2020-08-22T08:17:57.000Z</time>
      </trkpt>
      <trkpt lat="44.08428" lon="6.97582">
        <ele>1646.8000488281</ele>
        <time>2020-08-22T08:18:03.000Z</time>
      </trkpt>
      <trkpt lat="44.08431" lon="6.97584">
        <ele>1647</ele>
        <time>2020-08-22T08:18:10.000Z</time>
      </trkpt>
      <trkpt lat="44.08432" lon="6.97588">
        <ele>1647</ele>
        <time>2020-08-22T08:18:16.000Z</time>
      </trkpt>
      <trkpt lat="44.08433" lon="6.97588">
        <ele>1647.1999511719</ele>
        <time>2020-08-22T08:18:22.000Z</time>
      </trkpt>
      <trkpt lat="44.08433" lon="6.97588">
        <ele>1647</ele>
        <time>2020-08-22T08:18:31.000Z</time>
      </trkpt>
      <trkpt lat="44.08433" lon="6.97587">
        <ele>1647</ele>
        <time>2020-08-22T08:18:33.000Z</time>
      </trkpt>
      <trkpt lat="44.08434" lon="6.97587">
        <ele>1646.8000488281</ele>
        <time>2020-08-22T08:18:35.000Z</time>
      </trkpt>
      <trkpt lat="44.0843" lon="6.97584">
        <ele>1647.1999511719</ele>
        <time>2020-08-22T08:18:41.000Z</time>
      </trkpt>
      <trkpt lat="44.0843" lon="6.97581">
        <ele>1646.8000488281</ele>
        <time>2020-08-22T08:18:47.000Z</time>
      </trkpt>
      <trkpt lat="44.08434" lon="6.9759">
        <ele>1646.5999755859</ele>
        <time>2020-08-22T08:18:52.000Z</time>
      </trkpt>
      <trkpt lat="44.08437" lon="6.97607">
        <ele>1646.4000244141</ele>
        <time>2020-08-22T08:18:57.000Z</time>
      </trkpt>
      <trkpt lat="44.08437" lon="6.9761">
        <ele>1646.4000244141</ele>
        <time>2020-08-22T08:18:58.000Z</time>
      </trkpt>
      <trkpt lat="44.08436" lon="6.97623">
        <ele>1645.8000488281</ele>
        <time>2020-08-22T08:19:02.000Z</time>
      </trkpt>
      <trkpt lat="44.08432" lon="6.97642">
        <ele>1645.1999511719</ele>
        <time>2020-08-22T08:19:09.000Z</time>
      </trkpt>
      <trkpt lat="44.08431" lon="6.97644">
        <ele>1645.1999511719</ele>
        <time>2020-08-22T08:19:10.000Z</time>
      </trkpt>
      <trkpt lat="44.08429" lon="6.97648">
        <ele>1644.4000244141</ele>
        <time>2020-08-22T08:19:15.000Z</time>
      </trkpt>
      <trkpt lat="44.08429" lon="6.97648">
        <ele>1644.1999511719</ele>
        <time>2020-08-22T08:19:18.000Z</time>
      </trkpt>
      <trkpt lat="44.08429" lon="6.97648">
        <ele>1644.1999511719</ele>
        <time>2020-08-22T08:19:35.000Z</time>
      </trkpt>
      <trkpt lat="44.08428" lon="6.97648">
        <ele>1644.4000244141</ele>
        <time>2020-08-22T08:20:01.000Z</time>
      </trkpt>
      <trkpt lat="44.08424" lon="6.97657">
        <ele>1644.4000244141</ele>
        <time>2020-08-22T08:20:07.000Z</time>
      </trkpt>
      <trkpt lat="44.08415" lon="6.9768">
        <ele>1643.8000488281</ele>
        <time>2020-08-22T08:20:12.000Z</time>
      </trkpt>
      <trkpt lat="44.08409" lon="6.97694">
        <ele>1643.1999511719</ele>
        <time>2020-08-22T08:20:15.000Z</time>
      </trkpt>
      <trkpt lat="44.08406" lon="6.97707">
        <ele>1643</ele>
        <time>2020-08-22T08:20:18.000Z</time>
      </trkpt>
      <trkpt lat="44.08402" lon="6.97728">
        <ele>1644.1999511719</ele>
        <time>2020-08-22T08:20:24.000Z</time>
      </trkpt>
      <trkpt lat="44.08401" lon="6.97731">
        <ele>1644.4000244141</ele>
        <time>2020-08-22T08:20:25.000Z</time>
      </trkpt>
      <trkpt lat="44.08393" lon="6.97762">
        <ele>1645.4000244141</ele>
        <time>2020-08-22T08:20:33.000Z</time>
      </trkpt>
      <trkpt lat="44.08383" lon="6.97795">
        <ele>1645</ele>
        <time>2020-08-22T08:20:40.000Z</time>
      </trkpt>
      <trkpt lat="44.08377" lon="6.97829">
        <ele>1645.8000488281</ele>
        <time>2020-08-22T08:20:48.000Z</time>
      </trkpt>
      <trkpt lat="44.08378" lon="6.97845">
        <ele>1646.8000488281</ele>
        <time>2020-08-22T08:20:53.000Z</time>
      </trkpt>
      <trkpt lat="44.08378" lon="6.97848">
        <ele>1647.1999511719</ele>
        <time>2020-08-22T08:20:54.000Z</time>
      </trkpt>
      <trkpt lat="44.08379" lon="6.97854">
        <ele>1647.8000488281</ele>
        <time>2020-08-22T08:20:56.000Z</time>
      </trkpt>
      <trkpt lat="44.08381" lon="6.97862">
        <ele>1649.1999511719</ele>
        <time>2020-08-22T08:21:00.000Z</time>
      </trkpt>
      <trkpt lat="44.08382" lon="6.97864">
        <ele>1649.4000244141</ele>
        <time>2020-08-22T08:21:01.000Z</time>
      </trkpt>
      <trkpt lat="44.08382" lon="6.97869">
        <ele>1650.1999511719</ele>
        <time>2020-08-22T08:21:03.000Z</time>
      </trkpt>
      <trkpt lat="44.08385" lon="6.97881">
        <ele>1651.4000244141</ele>
        <time>2020-08-22T08:21:08.000Z</time>
      </trkpt>
      <trkpt lat="44.08388" lon="6.97893">
        <ele>1652.4000244141</ele>
        <time>2020-08-22T08:21:12.000Z</time>
      </trkpt>
      <trkpt lat="44.0839" lon="6.97902">
        <ele>1652.5999755859</ele>
        <time>2020-08-22T08:21:15.000Z</time>
      </trkpt>
      <trkpt lat="44.08396" lon="6.97923">
        <ele>1652.1999511719</ele>
        <time>2020-08-22T08:21:20.000Z</time>
      </trkpt>
      <trkpt lat="44.08404" lon="6.97951">
        <ele>1651.4000244141</ele>
        <time>2020-08-22T08:21:26.000Z</time>
      </trkpt>
      <trkpt lat="44.08405" lon="6.97954">
        <ele>1651.4000244141</ele>
        <time>2020-08-22T08:21:27.000Z</time>
      </trkpt>
      <trkpt lat="44.08408" lon="6.97965">
        <ele>1652.4000244141</ele>
        <time>2020-08-22T08:21:30.000Z</time>
      </trkpt>
      <trkpt lat="44.0841" lon="6.97979">
        <ele>1653.5999755859</ele>
        <time>2020-08-22T08:21:34.000Z</time>
      </trkpt>
      <trkpt lat="44.08411" lon="6.97983">
        <ele>1653.4000244141</ele>
        <time>2020-08-22T08:21:35.000Z</time>
      </trkpt>
      <trkpt lat="44.08417" lon="6.98004">
        <ele>1653</ele>
        <time>2020-08-22T08:21:39.000Z</time>
      </trkpt>
      <trkpt lat="44.08419" lon="6.9801">
        <ele>1652.8000488281</ele>
        <time>2020-08-22T08:21:40.000Z</time>
      </trkpt>
      <trkpt lat="44.08426" lon="6.98025">
        <ele>1652.1999511719</ele>
        <time>2020-08-22T08:21:42.000Z</time>
      </trkpt>
      <trkpt lat="44.08431" lon="6.98037">
        <ele>1651.5999755859</ele>
        <time>2020-08-22T08:21:44.000Z</time>
      </trkpt>
      <trkpt lat="44.08433" lon="6.98044">
        <ele>1650.5999755859</ele>
        <time>2020-08-22T08:21:45.000Z</time>
      </trkpt>
      <trkpt lat="44.08434" lon="6.98069">
        <ele>1648</ele>
        <time>2020-08-22T08:21:48.000Z</time>
      </trkpt>
      <trkpt lat="44.08434" lon="6.9808">
        <ele>1646.8000488281</ele>
        <time>2020-08-22T08:21:49.000Z</time>
      </trkpt>
      <trkpt lat="44.08432" lon="6.98104">
        <ele>1644.4000244141</ele>
        <time>2020-08-22T08:21:51.000Z</time>
      </trkpt>
      <trkpt lat="44.08431" lon="6.98115">
        <ele>1642.5999755859</ele>
        <time>2020-08-22T08:21:52.000Z</time>
      </trkpt>
      <trkpt lat="44.08427" lon="6.98124">
        <ele>1642.1999511719</ele>
        <time>2020-08-22T08:21:53.000Z</time>
      </trkpt>
      <trkpt lat="44.08423" lon="6.98132">
        <ele>1641.4000244141</ele>
        <time>2020-08-22T08:21:54.000Z</time>
      </trkpt>
      <trkpt lat="44.08418" lon="6.98149">
        <ele>1640.8000488281</ele>
        <time>2020-08-22T08:21:57.000Z</time>
      </trkpt>
      <trkpt lat="44.08417" lon="6.98158">
        <ele>1641</ele>
        <time>2020-08-22T08:22:00.000Z</time>
      </trkpt>
      <trkpt lat="44.08417" lon="6.9816">
        <ele>1641.5999755859</ele>
        <time>2020-08-22T08:22:01.000Z</time>
      </trkpt>
      <trkpt lat="44.08416" lon="6.98164">
        <ele>1642.4000244141</ele>
        <time>2020-08-22T08:22:03.000Z</time>
      </trkpt>
      <trkpt lat="44.08416" lon="6.98177">
        <ele>1642.8000488281</ele>
        <time>2020-08-22T08:22:07.000Z</time>
      </trkpt>
      <trkpt lat="44.08416" lon="6.98191">
        <ele>1643.5999755859</ele>
        <time>2020-08-22T08:22:11.000Z</time>
      </trkpt>
      <trkpt lat="44.08415" lon="6.982">
        <ele>1644</ele>
        <time>2020-08-22T08:22:13.000Z</time>
      </trkpt>
      <trkpt lat="44.08415" lon="6.9821">
        <ele>1644.5999755859</ele>
        <time>2020-08-22T08:22:16.000Z</time>
      </trkpt>
      <trkpt lat="44.08415" lon="6.98225">
        <ele>1644.8000488281</ele>
        <time>2020-08-22T08:22:20.000Z</time>
      </trkpt>
      <trkpt lat="44.08414" lon="6.98253">
        <ele>1644.5999755859</ele>
        <time>2020-08-22T08:22:27.000Z</time>
      </trkpt>
      <trkpt lat="44.08411" lon="6.98278">
        <ele>1645.4000244141</ele>
        <time>2020-08-22T08:22:35.000Z</time>
      </trkpt>
      <trkpt lat="44.08408" lon="6.98287">
        <ele>1645.5999755859</ele>
        <time>2020-08-22T08:22:38.000Z</time>
      </trkpt>
      <trkpt lat="44.08403" lon="6.98304">
        <ele>1645.8000488281</ele>
        <time>2020-08-22T08:22:43.000Z</time>
      </trkpt>
      <trkpt lat="44.08396" lon="6.9833">
        <ele>1646</ele>
        <time>2020-08-22T08:22:50.000Z</time>
      </trkpt>
      <trkpt lat="44.08393" lon="6.98339">
        <ele>1646.5999755859</ele>
        <time>2020-08-22T08:22:53.000Z</time>
      </trkpt>
      <trkpt lat="44.0839" lon="6.98348">
        <ele>1647.8000488281</ele>
        <time>2020-08-22T08:22:56.000Z</time>
      </trkpt>
      <trkpt lat="44.08389" lon="6.98352">
        <ele>1647.8000488281</ele>
        <time>2020-08-22T08:22:57.000Z</time>
      </trkpt>
      <trkpt lat="44.08386" lon="6.98364">
        <ele>1649</ele>
        <time>2020-08-22T08:23:01.000Z</time>
      </trkpt>
      <trkpt lat="44.08384" lon="6.98372">
        <ele>1650</ele>
        <time>2020-08-22T08:23:04.000Z</time>
      </trkpt>
      <trkpt lat="44.08383" lon="6.98375">
        <ele>1650.1999511719</ele>
        <time>2020-08-22T08:23:05.000Z</time>
      </trkpt>
      <trkpt lat="44.08377" lon="6.98389">
        <ele>1650.4000244141</ele>
        <time>2020-08-22T08:23:10.000Z</time>
      </trkpt>
      <trkpt lat="44.08374" lon="6.98396">
        <ele>1649.8000488281</ele>
        <time>2020-08-22T08:23:16.000Z</time>
      </trkpt>
      <trkpt lat="44.08372" lon="6.98403">
        <ele>1649.5999755859</ele>
        <time>2020-08-22T08:23:24.000Z</time>
      </trkpt>
      <trkpt lat="44.08367" lon="6.98419">
        <ele>1649.1999511719</ele>
        <time>2020-08-22T08:23:27.000Z</time>
      </trkpt>
      <trkpt lat="44.08364" lon="6.98423">
        <ele>1649</ele>
        <time>2020-08-22T08:23:28.000Z</time>
      </trkpt>
      <trkpt lat="44.08345" lon="6.9843">
        <ele>1647.5999755859</ele>
        <time>2020-08-22T08:23:31.000Z</time>
      </trkpt>
      <trkpt lat="44.08332" lon="6.98436">
        <ele>1646</ele>
        <time>2020-08-22T08:23:33.000Z</time>
      </trkpt>
      <trkpt lat="44.08327" lon="6.9844">
        <ele>1644.5999755859</ele>
        <time>2020-08-22T08:23:34.000Z</time>
      </trkpt>
      <trkpt lat="44.0832" lon="6.98445">
        <ele>1644</ele>
        <time>2020-08-22T08:23:35.000Z</time>
      </trkpt>
      <trkpt lat="44.0831" lon="6.98455">
        <ele>1642.8000488281</ele>
        <time>2020-08-22T08:23:37.000Z</time>
      </trkpt>
      <trkpt lat="44.08298" lon="6.98465">
        <ele>1642</ele>
        <time>2020-08-22T08:23:40.000Z</time>
      </trkpt>
      <trkpt lat="44.08281" lon="6.98478">
        <ele>1643.5999755859</ele>
        <time>2020-08-22T08:23:45.000Z</time>
      </trkpt>
      <trkpt lat="44.08278" lon="6.9848">
        <ele>1644</ele>
        <time>2020-08-22T08:23:46.000Z</time>
      </trkpt>
      <trkpt lat="44.08275" lon="6.98483">
        <ele>1643.8000488281</ele>
        <time>2020-08-22T08:23:47.000Z</time>
      </trkpt>
      <trkpt lat="44.08266" lon="6.98495">
        <ele>1643.5999755859</ele>
        <time>2020-08-22T08:23:50.000Z</time>
      </trkpt>
      <trkpt lat="44.08264" lon="6.98505">
        <ele>1643.5999755859</ele>
        <time>2020-08-22T08:23:52.000Z</time>
      </trkpt>
      <trkpt lat="44.08264" lon="6.98521">
        <ele>1643.4000244141</ele>
        <time>2020-08-22T08:23:54.000Z</time>
      </trkpt>
      <trkpt lat="44.08266" lon="6.9854">
        <ele>1642.8000488281</ele>
        <time>2020-08-22T08:23:56.000Z</time>
      </trkpt>
      <trkpt lat="44.08268" lon="6.98551">
        <ele>1641</ele>
        <time>2020-08-22T08:23:57.000Z</time>
      </trkpt>
      <trkpt lat="44.08268" lon="6.98563">
        <ele>1639</ele>
        <time>2020-08-22T08:23:58.000Z</time>
      </trkpt>
      <trkpt lat="44.08268" lon="6.98575">
        <ele>1636.8000488281</ele>
        <time>2020-08-22T08:23:59.000Z</time>
      </trkpt>
      <trkpt lat="44.08269" lon="6.98588">
        <ele>1635</ele>
        <time>2020-08-22T08:24:00.000Z</time>
      </trkpt>
      <trkpt lat="44.0827" lon="6.986">
        <ele>1633.4000244141</ele>
        <time>2020-08-22T08:24:01.000Z</time>
      </trkpt>
      <trkpt lat="44.08269" lon="6.98627">
        <ele>1631</ele>
        <time>2020-08-22T08:24:03.000Z</time>
      </trkpt>
      <trkpt lat="44.08268" lon="6.9865">
        <ele>1629.1999511719</ele>
        <time>2020-08-22T08:24:05.000Z</time>
      </trkpt>
      <trkpt lat="44.08267" lon="6.9867">
        <ele>1628.4000244141</ele>
        <time>2020-08-22T08:24:07.000Z</time>
      </trkpt>
      <trkpt lat="44.08266" lon="6.98677">
        <ele>1627</ele>
        <time>2020-08-22T08:24:08.000Z</time>
      </trkpt>
      <trkpt lat="44.08256" lon="6.987">
        <ele>1625.5999755859</ele>
        <time>2020-08-22T08:24:11.000Z</time>
      </trkpt>
      <trkpt lat="44.08251" lon="6.98705">
        <ele>1624</ele>
        <time>2020-08-22T08:24:12.000Z</time>
      </trkpt>
      <trkpt lat="44.08246" lon="6.98708">
        <ele>1622.1999511719</ele>
        <time>2020-08-22T08:24:13.000Z</time>
      </trkpt>
      <trkpt lat="44.08239" lon="6.9871">
        <ele>1620.5999755859</ele>
        <time>2020-08-22T08:24:14.000Z</time>
      </trkpt>
      <trkpt lat="44.08231" lon="6.98712">
        <ele>1617.8000488281</ele>
        <time>2020-08-22T08:24:15.000Z</time>
      </trkpt>
      <trkpt lat="44.08225" lon="6.98714">
        <ele>1616.5999755859</ele>
        <time>2020-08-22T08:24:16.000Z</time>
      </trkpt>
      <trkpt lat="44.08208" lon="6.98722">
        <ele>1614.4000244141</ele>
        <time>2020-08-22T08:24:18.000Z</time>
      </trkpt>
      <trkpt lat="44.08203" lon="6.98724">
        <ele>1613.1999511719</ele>
        <time>2020-08-22T08:24:19.000Z</time>
      </trkpt>
      <trkpt lat="44.08195" lon="6.9873">
        <ele>1611.8000488281</ele>
        <time>2020-08-22T08:24:21.000Z</time>
      </trkpt>
      <trkpt lat="44.08185" lon="6.98748">
        <ele>1608.8000488281</ele>
        <time>2020-08-22T08:24:24.000Z</time>
      </trkpt>
      <trkpt lat="44.08181" lon="6.98756">
        <ele>1606.8000488281</ele>
        <time>2020-08-22T08:24:26.000Z</time>
      </trkpt>
      <trkpt lat="44.0818" lon="6.98762">
        <ele>1605.5999755859</ele>
        <time>2020-08-22T08:24:27.000Z</time>
      </trkpt>
      <trkpt lat="44.08179" lon="6.98764">
        <ele>1604.5999755859</ele>
        <time>2020-08-22T08:24:28.000Z</time>
      </trkpt>
      <trkpt lat="44.08178" lon="6.98769">
        <ele>1603</ele>
        <time>2020-08-22T08:24:29.000Z</time>
      </trkpt>
      <trkpt lat="44.08176" lon="6.98773">
        <ele>1602.8000488281</ele>
        <time>2020-08-22T08:24:30.000Z</time>
      </trkpt>
      <trkpt lat="44.08175" lon="6.98776">
        <ele>1602.4000244141</ele>
        <time>2020-08-22T08:24:31.000Z</time>
      </trkpt>
      <trkpt lat="44.08173" lon="6.98778">
        <ele>1601.5999755859</ele>
        <time>2020-08-22T08:24:32.000Z</time>
      </trkpt>
      <trkpt lat="44.08171" lon="6.98781">
        <ele>1600</ele>
        <time>2020-08-22T08:24:33.000Z</time>
      </trkpt>
      <trkpt lat="44.0817" lon="6.98785">
        <ele>1599.5999755859</ele>
        <time>2020-08-22T08:24:34.000Z</time>
      </trkpt>
      <trkpt lat="44.08168" lon="6.98788">
        <ele>1599</ele>
        <time>2020-08-22T08:24:35.000Z</time>
      </trkpt>
      <trkpt lat="44.08165" lon="6.98793">
        <ele>1597.5999755859</ele>
        <time>2020-08-22T08:24:37.000Z</time>
      </trkpt>
      <trkpt lat="44.08164" lon="6.98794">
        <ele>1597</ele>
        <time>2020-08-22T08:24:38.000Z</time>
      </trkpt>
      <trkpt lat="44.08163" lon="6.98796">
        <ele>1596.4000244141</ele>
        <time>2020-08-22T08:24:39.000Z</time>
      </trkpt>
      <trkpt lat="44.08158" lon="6.98809">
        <ele>1595</ele>
        <time>2020-08-22T08:24:43.000Z</time>
      </trkpt>
      <trkpt lat="44.08157" lon="6.98811">
        <ele>1594</ele>
        <time>2020-08-22T08:24:44.000Z</time>
      </trkpt>
      <trkpt lat="44.08155" lon="6.98812">
        <ele>1593.4000244141</ele>
        <time>2020-08-22T08:24:45.000Z</time>
      </trkpt>
      <trkpt lat="44.0815" lon="6.98813">
        <ele>1592.5999755859</ele>
        <time>2020-08-22T08:24:47.000Z</time>
      </trkpt>
      <trkpt lat="44.08143" lon="6.98815">
        <ele>1591.1999511719</ele>
        <time>2020-08-22T08:24:49.000Z</time>
      </trkpt>
      <trkpt lat="44.0814" lon="6.98816">
        <ele>1588.5999755859</ele>
        <time>2020-08-22T08:24:51.000Z</time>
      </trkpt>
      <trkpt lat="44.0814" lon="6.98816">
        <ele>1587.4000244141</ele>
        <time>2020-08-22T08:24:53.000Z</time>
      </trkpt>
      <trkpt lat="44.0814" lon="6.98816">
        <ele>1587</ele>
        <time>2020-08-22T08:24:55.000Z</time>
      </trkpt>
      <trkpt lat="44.0814" lon="6.98815">
        <ele>1586.1999511719</ele>
        <time>2020-08-22T08:25:00.000Z</time>
      </trkpt>
      <trkpt lat="44.08134" lon="6.98815">
        <ele>1585.5999755859</ele>
        <time>2020-08-22T08:25:05.000Z</time>
      </trkpt>
      <trkpt lat="44.08132" lon="6.98816">
        <ele>1585.4000244141</ele>
        <time>2020-08-22T08:25:06.000Z</time>
      </trkpt>
      <trkpt lat="44.08131" lon="6.98819">
        <ele>1585.1999511719</ele>
        <time>2020-08-22T08:25:07.000Z</time>
      </trkpt>
      <trkpt lat="44.0813" lon="6.98822">
        <ele>1584.8000488281</ele>
        <time>2020-08-22T08:25:08.000Z</time>
      </trkpt>
      <trkpt lat="44.08128" lon="6.98823">
        <ele>1583.8000488281</ele>
        <time>2020-08-22T08:25:09.000Z</time>
      </trkpt>
      <trkpt lat="44.0812" lon="6.98828">
        <ele>1582</ele>
        <time>2020-08-22T08:25:11.000Z</time>
      </trkpt>
      <trkpt lat="44.08113" lon="6.98831">
        <ele>1580</ele>
        <time>2020-08-22T08:25:13.000Z</time>
      </trkpt>
      <trkpt lat="44.08108" lon="6.98835">
        <ele>1578.4000244141</ele>
        <time>2020-08-22T08:25:15.000Z</time>
      </trkpt>
      <trkpt lat="44.08106" lon="6.98837">
        <ele>1576.8000488281</ele>
        <time>2020-08-22T08:25:16.000Z</time>
      </trkpt>
      <trkpt lat="44.08099" lon="6.98842">
        <ele>1575</ele>
        <time>2020-08-22T08:25:18.000Z</time>
      </trkpt>
      <trkpt lat="44.08095" lon="6.98845">
        <ele>1573.8000488281</ele>
        <time>2020-08-22T08:25:19.000Z</time>
      </trkpt>
      <trkpt lat="44.08091" lon="6.98849">
        <ele>1572.8000488281</ele>
        <time>2020-08-22T08:25:20.000Z</time>
      </trkpt>
      <trkpt lat="44.08087" lon="6.98853">
        <ele>1571.1999511719</ele>
        <time>2020-08-22T08:25:21.000Z</time>
      </trkpt>
      <trkpt lat="44.08082" lon="6.98855">
        <ele>1569.8000488281</ele>
        <time>2020-08-22T08:25:22.000Z</time>
      </trkpt>
      <trkpt lat="44.08078" lon="6.98854">
        <ele>1568</ele>
        <time>2020-08-22T08:25:23.000Z</time>
      </trkpt>
      <trkpt lat="44.08072" lon="6.98853">
        <ele>1567</ele>
        <time>2020-08-22T08:25:24.000Z</time>
      </trkpt>
      <trkpt lat="44.08067" lon="6.98854">
        <ele>1565.4000244141</ele>
        <time>2020-08-22T08:25:25.000Z</time>
      </trkpt>
      <trkpt lat="44.08062" lon="6.98855">
        <ele>1564</ele>
        <time>2020-08-22T08:25:26.000Z</time>
      </trkpt>
      <trkpt lat="44.08056" lon="6.98856">
        <ele>1562.4000244141</ele>
        <time>2020-08-22T08:25:27.000Z</time>
      </trkpt>
      <trkpt lat="44.08052" lon="6.98857">
        <ele>1561.1999511719</ele>
        <time>2020-08-22T08:25:28.000Z</time>
      </trkpt>
      <trkpt lat="44.08049" lon="6.98857">
        <ele>1559.1999511719</ele>
        <time>2020-08-22T08:25:29.000Z</time>
      </trkpt>
      <trkpt lat="44.08048" lon="6.98859">
        <ele>1557.4000244141</ele>
        <time>2020-08-22T08:25:30.000Z</time>
      </trkpt>
      <trkpt lat="44.08048" lon="6.98862">
        <ele>1555.1999511719</ele>
        <time>2020-08-22T08:25:31.000Z</time>
      </trkpt>
      <trkpt lat="44.08046" lon="6.98864">
        <ele>1553.5999755859</ele>
        <time>2020-08-22T08:25:32.000Z</time>
      </trkpt>
      <trkpt lat="44.08044" lon="6.98865">
        <ele>1552</ele>
        <time>2020-08-22T08:25:33.000Z</time>
      </trkpt>
      <trkpt lat="44.08042" lon="6.98862">
        <ele>1551</ele>
        <time>2020-08-22T08:25:34.000Z</time>
      </trkpt>
      <trkpt lat="44.0804" lon="6.9886">
        <ele>1549.8000488281</ele>
        <time>2020-08-22T08:25:35.000Z</time>
      </trkpt>
      <trkpt lat="44.08036" lon="6.98858">
        <ele>1549.4000244141</ele>
        <time>2020-08-22T08:25:36.000Z</time>
      </trkpt>
      <trkpt lat="44.0803" lon="6.98856">
        <ele>1548.5999755859</ele>
        <time>2020-08-22T08:25:37.000Z</time>
      </trkpt>
      <trkpt lat="44.08024" lon="6.98856">
        <ele>1547</ele>
        <time>2020-08-22T08:25:38.000Z</time>
      </trkpt>
      <trkpt lat="44.08017" lon="6.98856">
        <ele>1545.5999755859</ele>
        <time>2020-08-22T08:25:39.000Z</time>
      </trkpt>
      <trkpt lat="44.0801" lon="6.98856">
        <ele>1543.5999755859</ele>
        <time>2020-08-22T08:25:40.000Z</time>
      </trkpt>
      <trkpt lat="44.08003" lon="6.98855">
        <ele>1542.1999511719</ele>
        <time>2020-08-22T08:25:41.000Z</time>
      </trkpt>
      <trkpt lat="44.07996" lon="6.98853">
        <ele>1543.5999755859</ele>
        <time>2020-08-22T08:25:42.000Z</time>
      </trkpt>
      <trkpt lat="44.0799" lon="6.98853">
        <ele>1543.4000244141</ele>
        <time>2020-08-22T08:25:43.000Z</time>
      </trkpt>
      <trkpt lat="44.07985" lon="6.98856">
        <ele>1540.8000488281</ele>
        <time>2020-08-22T08:25:44.000Z</time>
      </trkpt>
      <trkpt lat="44.07981" lon="6.98857">
        <ele>1539.1999511719</ele>
        <time>2020-08-22T08:25:45.000Z</time>
      </trkpt>
      <trkpt lat="44.07978" lon="6.98857">
        <ele>1537.4000244141</ele>
        <time>2020-08-22T08:25:46.000Z</time>
      </trkpt>
      <trkpt lat="44.07975" lon="6.98857">
        <ele>1535.8000488281</ele>
        <time>2020-08-22T08:25:47.000Z</time>
      </trkpt>
      <trkpt lat="44.07973" lon="6.98857">
        <ele>1534.4000244141</ele>
        <time>2020-08-22T08:25:48.000Z</time>
      </trkpt>
      <trkpt lat="44.07973" lon="6.98859">
        <ele>1532.8000488281</ele>
        <time>2020-08-22T08:25:49.000Z</time>
      </trkpt>
      <trkpt lat="44.07974" lon="6.98862">
        <ele>1531.8000488281</ele>
        <time>2020-08-22T08:25:50.000Z</time>
      </trkpt>
      <trkpt lat="44.07977" lon="6.98866">
        <ele>1530.1999511719</ele>
        <time>2020-08-22T08:25:52.000Z</time>
      </trkpt>
      <trkpt lat="44.07981" lon="6.98869">
        <ele>1529.4000244141</ele>
        <time>2020-08-22T08:25:54.000Z</time>
      </trkpt>
      <trkpt lat="44.07982" lon="6.98871">
        <ele>1528.8000488281</ele>
        <time>2020-08-22T08:25:55.000Z</time>
      </trkpt>
      <trkpt lat="44.07982" lon="6.98874">
        <ele>1527.4000244141</ele>
        <time>2020-08-22T08:25:58.000Z</time>
      </trkpt>
      <trkpt lat="44.07982" lon="6.98877">
        <ele>1526.1999511719</ele>
        <time>2020-08-22T08:26:01.000Z</time>
      </trkpt>
      <trkpt lat="44.07985" lon="6.98881">
        <ele>1525.1999511719</ele>
        <time>2020-08-22T08:26:03.000Z</time>
      </trkpt>
      <trkpt lat="44.07987" lon="6.98883">
        <ele>1525</ele>
        <time>2020-08-22T08:26:04.000Z</time>
      </trkpt>
      <trkpt lat="44.07993" lon="6.98888">
        <ele>1523.8000488281</ele>
        <time>2020-08-22T08:26:07.000Z</time>
      </trkpt>
      <trkpt lat="44.07999" lon="6.98892">
        <ele>1522.8000488281</ele>
        <time>2020-08-22T08:26:10.000Z</time>
      </trkpt>
      <trkpt lat="44.08002" lon="6.98895">
        <ele>1521.5999755859</ele>
        <time>2020-08-22T08:26:14.000Z</time>
      </trkpt>
      <trkpt lat="44.08" lon="6.98894">
        <ele>1520.8000488281</ele>
        <time>2020-08-22T08:26:18.000Z</time>
      </trkpt>
      <trkpt lat="44.07998" lon="6.98893">
        <ele>1520.5999755859</ele>
        <time>2020-08-22T08:26:20.000Z</time>
      </trkpt>
      <trkpt lat="44.07997" lon="6.98893">
        <ele>1520.4000244141</ele>
        <time>2020-08-22T08:26:22.000Z</time>
      </trkpt>
      <trkpt lat="44.07996" lon="6.98892">
        <ele>1520.4000244141</ele>
        <time>2020-08-22T08:26:23.000Z</time>
      </trkpt>
      <trkpt lat="44.07995" lon="6.98892">
        <ele>1520.4000244141</ele>
        <time>2020-08-22T08:26:24.000Z</time>
      </trkpt>
      <trkpt lat="44.0799" lon="6.98886">
        <ele>1520.5999755859</ele>
        <time>2020-08-22T08:26:27.000Z</time>
      </trkpt>
      <trkpt lat="44.07988" lon="6.98884">
        <ele>1520.8000488281</ele>
        <time>2020-08-22T08:26:28.000Z</time>
      </trkpt>
      <trkpt lat="44.07973" lon="6.98875">
        <ele>1521.8000488281</ele>
        <time>2020-08-22T08:26:34.000Z</time>
      </trkpt>
      <trkpt lat="44.0797" lon="6.98873">
        <ele>1522.1999511719</ele>
        <time>2020-08-22T08:26:35.000Z</time>
      </trkpt>
      <trkpt lat="44.07964" lon="6.98869">
        <ele>1522.8000488281</ele>
        <time>2020-08-22T08:26:37.000Z</time>
      </trkpt>
      <trkpt lat="44.07958" lon="6.98867">
        <ele>1522.4000244141</ele>
        <time>2020-08-22T08:26:40.000Z</time>
      </trkpt>
      <trkpt lat="44.07952" lon="6.98867">
        <ele>1521.5999755859</ele>
        <time>2020-08-22T08:26:43.000Z</time>
      </trkpt>
      <trkpt lat="44.07948" lon="6.98865">
        <ele>1520.5999755859</ele>
        <time>2020-08-22T08:26:46.000Z</time>
      </trkpt>
      <trkpt lat="44.07948" lon="6.98865">
        <ele>1519.1999511719</ele>
        <time>2020-08-22T08:26:49.000Z</time>
      </trkpt>
      <trkpt lat="44.07948" lon="6.98865">
        <ele>1518.5999755859</ele>
        <time>2020-08-22T08:26:51.000Z</time>
      </trkpt>
      <trkpt lat="44.07947" lon="6.98866">
        <ele>1518.5999755859</ele>
        <time>2020-08-22T08:26:58.000Z</time>
      </trkpt>
      <trkpt lat="44.07947" lon="6.98869">
        <ele>1518</ele>
        <time>2020-08-22T08:27:02.000Z</time>
      </trkpt>
      <trkpt lat="44.07947" lon="6.98871">
        <ele>1517.1999511719</ele>
        <time>2020-08-22T08:27:04.000Z</time>
      </trkpt>
      <trkpt lat="44.07946" lon="6.98872">
        <ele>1516.8000488281</ele>
        <time>2020-08-22T08:27:05.000Z</time>
      </trkpt>
      <trkpt lat="44.07944" lon="6.98872">
        <ele>1515.4000244141</ele>
        <time>2020-08-22T08:27:09.000Z</time>
      </trkpt>
      <trkpt lat="44.07936" lon="6.9887">
        <ele>1514.4000244141</ele>
        <time>2020-08-22T08:27:13.000Z</time>
      </trkpt>
      <trkpt lat="44.07929" lon="6.98868">
        <ele>1513</ele>
        <time>2020-08-22T08:27:16.000Z</time>
      </trkpt>
      <trkpt lat="44.07926" lon="6.98865">
        <ele>1511.5999755859</ele>
        <time>2020-08-22T08:27:18.000Z</time>
      </trkpt>
      <trkpt lat="44.07926" lon="6.98864">
        <ele>1510.8000488281</ele>
        <time>2020-08-22T08:27:19.000Z</time>
      </trkpt>
      <trkpt lat="44.07926" lon="6.98865">
        <ele>1510.1999511719</ele>
        <time>2020-08-22T08:27:20.000Z</time>
      </trkpt>
      <trkpt lat="44.07926" lon="6.98864">
        <ele>1509</ele>
        <time>2020-08-22T08:27:22.000Z</time>
      </trkpt>
      <trkpt lat="44.07925" lon="6.98864">
        <ele>1508.4000244141</ele>
        <time>2020-08-22T08:27:24.000Z</time>
      </trkpt>
      <trkpt lat="44.07926" lon="6.98864">
        <ele>1508</ele>
        <time>2020-08-22T08:27:26.000Z</time>
      </trkpt>
      <trkpt lat="44.07925" lon="6.98864">
        <ele>1507.5999755859</ele>
        <time>2020-08-22T08:27:36.000Z</time>
      </trkpt>
      <trkpt lat="44.07923" lon="6.98863">
        <ele>1507.8000488281</ele>
        <time>2020-08-22T08:27:46.000Z</time>
      </trkpt>
      <trkpt lat="44.07919" lon="6.98865">
        <ele>1508.1999511719</ele>
        <time>2020-08-22T08:27:52.000Z</time>
      </trkpt>
      <trkpt lat="44.07912" lon="6.98865">
        <ele>1507.5999755859</ele>
        <time>2020-08-22T08:27:55.000Z</time>
      </trkpt>
      <trkpt lat="44.0791" lon="6.98861">
        <ele>1506.8000488281</ele>
        <time>2020-08-22T08:27:56.000Z</time>
      </trkpt>
      <trkpt lat="44.07904" lon="6.98849">
        <ele>1505.1999511719</ele>
        <time>2020-08-22T08:27:58.000Z</time>
      </trkpt>
      <trkpt lat="44.07899" lon="6.98842">
        <ele>1503</ele>
        <time>2020-08-22T08:28:00.000Z</time>
      </trkpt>
      <trkpt lat="44.07893" lon="6.98841">
        <ele>1501.4000244141</ele>
        <time>2020-08-22T08:28:02.000Z</time>
      </trkpt>
      <trkpt lat="44.07889" lon="6.98838">
        <ele>1499.8000488281</ele>
        <time>2020-08-22T08:28:03.000Z</time>
      </trkpt>
      <trkpt lat="44.07887" lon="6.98833">
        <ele>1498.5999755859</ele>
        <time>2020-08-22T08:28:04.000Z</time>
      </trkpt>
      <trkpt lat="44.07884" lon="6.98817">
        <ele>1497</ele>
        <time>2020-08-22T08:28:06.000Z</time>
      </trkpt>
      <trkpt lat="44.07883" lon="6.98811">
        <ele>1495.5999755859</ele>
        <time>2020-08-22T08:28:07.000Z</time>
      </trkpt>
      <trkpt lat="44.07881" lon="6.98807">
        <ele>1493.8000488281</ele>
        <time>2020-08-22T08:28:08.000Z</time>
      </trkpt>
      <trkpt lat="44.07879" lon="6.98806">
        <ele>1492.4000244141</ele>
        <time>2020-08-22T08:28:09.000Z</time>
      </trkpt>
      <trkpt lat="44.07878" lon="6.98808">
        <ele>1491</ele>
        <time>2020-08-22T08:28:10.000Z</time>
      </trkpt>
      <trkpt lat="44.07875" lon="6.98809">
        <ele>1489.8000488281</ele>
        <time>2020-08-22T08:28:11.000Z</time>
      </trkpt>
      <trkpt lat="44.07871" lon="6.98809">
        <ele>1489</ele>
        <time>2020-08-22T08:28:12.000Z</time>
      </trkpt>
      <trkpt lat="44.07869" lon="6.98805">
        <ele>1488.5999755859</ele>
        <time>2020-08-22T08:28:13.000Z</time>
      </trkpt>
      <trkpt lat="44.07869" lon="6.98799">
        <ele>1488</ele>
        <time>2020-08-22T08:28:14.000Z</time>
      </trkpt>
      <trkpt lat="44.07871" lon="6.98792">
        <ele>1487.4000244141</ele>
        <time>2020-08-22T08:28:15.000Z</time>
      </trkpt>
      <trkpt lat="44.07873" lon="6.98784">
        <ele>1486.5999755859</ele>
        <time>2020-08-22T08:28:16.000Z</time>
      </trkpt>
      <trkpt lat="44.07874" lon="6.98776">
        <ele>1486.1999511719</ele>
        <time>2020-08-22T08:28:17.000Z</time>
      </trkpt>
      <trkpt lat="44.07875" lon="6.98767">
        <ele>1485.4000244141</ele>
        <time>2020-08-22T08:28:18.000Z</time>
      </trkpt>
      <trkpt lat="44.07875" lon="6.98759">
        <ele>1484.8000488281</ele>
        <time>2020-08-22T08:28:19.000Z</time>
      </trkpt>
      <trkpt lat="44.07875" lon="6.9875">
        <ele>1483.5999755859</ele>
        <time>2020-08-22T08:28:20.000Z</time>
      </trkpt>
      <trkpt lat="44.07877" lon="6.98743">
        <ele>1482.5999755859</ele>
        <time>2020-08-22T08:28:21.000Z</time>
      </trkpt>
      <trkpt lat="44.07879" lon="6.98735">
        <ele>1481.1999511719</ele>
        <time>2020-08-22T08:28:22.000Z</time>
      </trkpt>
      <trkpt lat="44.0788" lon="6.98729">
        <ele>1479.8000488281</ele>
        <time>2020-08-22T08:28:23.000Z</time>
      </trkpt>
      <trkpt lat="44.07881" lon="6.98722">
        <ele>1477.8000488281</ele>
        <time>2020-08-22T08:28:24.000Z</time>
      </trkpt>
      <trkpt lat="44.07882" lon="6.98715">
        <ele>1476.5999755859</ele>
        <time>2020-08-22T08:28:25.000Z</time>
      </trkpt>
      <trkpt lat="44.07884" lon="6.98709">
        <ele>1474.8000488281</ele>
        <time>2020-08-22T08:28:26.000Z</time>
      </trkpt>
      <trkpt lat="44.07891" lon="6.98702">
        <ele>1472.5999755859</ele>
        <time>2020-08-22T08:28:28.000Z</time>
      </trkpt>
      <trkpt lat="44.07893" lon="6.98699">
        <ele>1471.1999511719</ele>
        <time>2020-08-22T08:28:29.000Z</time>
      </trkpt>
      <trkpt lat="44.07889" lon="6.98698">
        <ele>1470.4000244141</ele>
        <time>2020-08-22T08:28:31.000Z</time>
      </trkpt>
      <trkpt lat="44.07885" lon="6.98699">
        <ele>1469.4000244141</ele>
        <time>2020-08-22T08:28:32.000Z</time>
      </trkpt>
      <trkpt lat="44.07874" lon="6.987">
        <ele>1468.1999511719</ele>
        <time>2020-08-22T08:28:34.000Z</time>
      </trkpt>
      <trkpt lat="44.07869" lon="6.98701">
        <ele>1467.1999511719</ele>
        <time>2020-08-22T08:28:35.000Z</time>
      </trkpt>
      <trkpt lat="44.07865" lon="6.98702">
        <ele>1466.1999511719</ele>
        <time>2020-08-22T08:28:36.000Z</time>
      </trkpt>
      <trkpt lat="44.07862" lon="6.98702">
        <ele>1465.1999511719</ele>
        <time>2020-08-22T08:28:37.000Z</time>
      </trkpt>
      <trkpt lat="44.07859" lon="6.98705">
        <ele>1463.8000488281</ele>
        <time>2020-08-22T08:28:38.000Z</time>
      </trkpt>
      <trkpt lat="44.07858" lon="6.98708">
        <ele>1462.8000488281</ele>
        <time>2020-08-22T08:28:39.000Z</time>
      </trkpt>
      <trkpt lat="44.07857" lon="6.98711">
        <ele>1461.5999755859</ele>
        <time>2020-08-22T08:28:40.000Z</time>
      </trkpt>
      <trkpt lat="44.07855" lon="6.98711">
        <ele>1460.4000244141</ele>
        <time>2020-08-22T08:28:41.000Z</time>
      </trkpt>
      <trkpt lat="44.07853" lon="6.98709">
        <ele>1458.8000488281</ele>
        <time>2020-08-22T08:28:42.000Z</time>
      </trkpt>
      <trkpt lat="44.07852" lon="6.98698">
        <ele>1457.5999755859</ele>
        <time>2020-08-22T08:28:44.000Z</time>
      </trkpt>
      <trkpt lat="44.07849" lon="6.98694">
        <ele>1456.8000488281</ele>
        <time>2020-08-22T08:28:45.000Z</time>
      </trkpt>
      <trkpt lat="44.07845" lon="6.98692">
        <ele>1456.1999511719</ele>
        <time>2020-08-22T08:28:46.000Z</time>
      </trkpt>
      <trkpt lat="44.07841" lon="6.98693">
        <ele>1454.4000244141</ele>
        <time>2020-08-22T08:28:48.000Z</time>
      </trkpt>
      <trkpt lat="44.0784" lon="6.98693">
        <ele>1453.1999511719</ele>
        <time>2020-08-22T08:28:49.000Z</time>
      </trkpt>
      <trkpt lat="44.0784" lon="6.98693">
        <ele>1451.4000244141</ele>
        <time>2020-08-22T08:28:51.000Z</time>
      </trkpt>
      <trkpt lat="44.0784" lon="6.98693">
        <ele>1451</ele>
        <time>2020-08-22T08:28:52.000Z</time>
      </trkpt>
      <trkpt lat="44.0784" lon="6.98693">
        <ele>1450.4000244141</ele>
        <time>2020-08-22T08:28:55.000Z</time>
      </trkpt>
      <trkpt lat="44.07841" lon="6.98693">
        <ele>1449.8000488281</ele>
        <time>2020-08-22T08:29:08.000Z</time>
      </trkpt>
      <trkpt lat="44.07842" lon="6.98691">
        <ele>1449.8000488281</ele>
        <time>2020-08-22T08:29:24.000Z</time>
      </trkpt>
      <trkpt lat="44.07842" lon="6.98689">
        <ele>1449.8000488281</ele>
        <time>2020-08-22T08:29:41.000Z</time>
      </trkpt>
      <trkpt lat="44.07842" lon="6.98686">
        <ele>1449.5999755859</ele>
        <time>2020-08-22T08:29:53.000Z</time>
      </trkpt>
      <trkpt lat="44.07841" lon="6.98688">
        <ele>1450</ele>
        <time>2020-08-22T08:29:55.000Z</time>
      </trkpt>
      <trkpt lat="44.0784" lon="6.98694">
        <ele>1450</ele>
        <time>2020-08-22T08:29:58.000Z</time>
      </trkpt>
      <trkpt lat="44.07837" lon="6.98703">
        <ele>1449.4000244141</ele>
        <time>2020-08-22T08:30:03.000Z</time>
      </trkpt>
      <trkpt lat="44.07835" lon="6.98703">
        <ele>1449</ele>
        <time>2020-08-22T08:30:04.000Z</time>
      </trkpt>
      <trkpt lat="44.07829" lon="6.98703">
        <ele>1448.4000244141</ele>
        <time>2020-08-22T08:30:07.000Z</time>
      </trkpt>
      <trkpt lat="44.07823" lon="6.98703">
        <ele>1447</ele>
        <time>2020-08-22T08:30:10.000Z</time>
      </trkpt>
      <trkpt lat="44.07813" lon="6.98706">
        <ele>1445.8000488281</ele>
        <time>2020-08-22T08:30:12.000Z</time>
      </trkpt>
      <trkpt lat="44.07808" lon="6.98709">
        <ele>1445</ele>
        <time>2020-08-22T08:30:13.000Z</time>
      </trkpt>
      <trkpt lat="44.07803" lon="6.98712">
        <ele>1444</ele>
        <time>2020-08-22T08:30:14.000Z</time>
      </trkpt>
      <trkpt lat="44.07791" lon="6.98717">
        <ele>1442.5999755859</ele>
        <time>2020-08-22T08:30:16.000Z</time>
      </trkpt>
      <trkpt lat="44.07785" lon="6.98718">
        <ele>1442</ele>
        <time>2020-08-22T08:30:17.000Z</time>
      </trkpt>
      <trkpt lat="44.0778" lon="6.98719">
        <ele>1440.5999755859</ele>
        <time>2020-08-22T08:30:18.000Z</time>
      </trkpt>
      <trkpt lat="44.07775" lon="6.98721">
        <ele>1439.5999755859</ele>
        <time>2020-08-22T08:30:19.000Z</time>
      </trkpt>
      <trkpt lat="44.07767" lon="6.98726">
        <ele>1440.5999755859</ele>
        <time>2020-08-22T08:30:21.000Z</time>
      </trkpt>
      <trkpt lat="44.07746" lon="6.98738">
        <ele>1438.4000244141</ele>
        <time>2020-08-22T08:30:25.000Z</time>
      </trkpt>
      <trkpt lat="44.07735" lon="6.98737">
        <ele>1437.1999511719</ele>
        <time>2020-08-22T08:30:27.000Z</time>
      </trkpt>
      <trkpt lat="44.0773" lon="6.98738">
        <ele>1436.4000244141</ele>
        <time>2020-08-22T08:30:28.000Z</time>
      </trkpt>
      <trkpt lat="44.07725" lon="6.98739">
        <ele>1435.5999755859</ele>
        <time>2020-08-22T08:30:29.000Z</time>
      </trkpt>
      <trkpt lat="44.07717" lon="6.98742">
        <ele>1434.4000244141</ele>
        <time>2020-08-22T08:30:31.000Z</time>
      </trkpt>
      <trkpt lat="44.07715" lon="6.98747">
        <ele>1433.5999755859</ele>
        <time>2020-08-22T08:30:32.000Z</time>
      </trkpt>
      <trkpt lat="44.07713" lon="6.98754">
        <ele>1432.8000488281</ele>
        <time>2020-08-22T08:30:33.000Z</time>
      </trkpt>
      <trkpt lat="44.0771" lon="6.9876">
        <ele>1431.5999755859</ele>
        <time>2020-08-22T08:30:34.000Z</time>
      </trkpt>
      <trkpt lat="44.07704" lon="6.98773">
        <ele>1430.4000244141</ele>
        <time>2020-08-22T08:30:36.000Z</time>
      </trkpt>
      <trkpt lat="44.07701" lon="6.98782">
        <ele>1429.8000488281</ele>
        <time>2020-08-22T08:30:37.000Z</time>
      </trkpt>
      <trkpt lat="44.07696" lon="6.9879">
        <ele>1428.8000488281</ele>
        <time>2020-08-22T08:30:38.000Z</time>
      </trkpt>
      <trkpt lat="44.07693" lon="6.98798">
        <ele>1428</ele>
        <time>2020-08-22T08:30:39.000Z</time>
      </trkpt>
      <trkpt lat="44.07688" lon="6.98806">
        <ele>1427</ele>
        <time>2020-08-22T08:30:40.000Z</time>
      </trkpt>
      <trkpt lat="44.07685" lon="6.98812">
        <ele>1425.8000488281</ele>
        <time>2020-08-22T08:30:41.000Z</time>
      </trkpt>
      <trkpt lat="44.07682" lon="6.98819">
        <ele>1423.4000244141</ele>
        <time>2020-08-22T08:30:42.000Z</time>
      </trkpt>
      <trkpt lat="44.07682" lon="6.98823">
        <ele>1422.1999511719</ele>
        <time>2020-08-22T08:30:43.000Z</time>
      </trkpt>
      <trkpt lat="44.07683" lon="6.98826">
        <ele>1421.1999511719</ele>
        <time>2020-08-22T08:30:44.000Z</time>
      </trkpt>
      <trkpt lat="44.07685" lon="6.9883">
        <ele>1420.5999755859</ele>
        <time>2020-08-22T08:30:45.000Z</time>
      </trkpt>
      <trkpt lat="44.07685" lon="6.98837">
        <ele>1419.8000488281</ele>
        <time>2020-08-22T08:30:47.000Z</time>
      </trkpt>
      <trkpt lat="44.07682" lon="6.98842">
        <ele>1419</ele>
        <time>2020-08-22T08:30:48.000Z</time>
      </trkpt>
      <trkpt lat="44.0768" lon="6.98847">
        <ele>1418.1999511719</ele>
        <time>2020-08-22T08:30:49.000Z</time>
      </trkpt>
      <trkpt lat="44.07679" lon="6.98854">
        <ele>1416.8000488281</ele>
        <time>2020-08-22T08:30:50.000Z</time>
      </trkpt>
      <trkpt lat="44.07671" lon="6.98862">
        <ele>1415.4000244141</ele>
        <time>2020-08-22T08:30:52.000Z</time>
      </trkpt>
      <trkpt lat="44.07668" lon="6.98866">
        <ele>1415.4000244141</ele>
        <time>2020-08-22T08:30:53.000Z</time>
      </trkpt>
      <trkpt lat="44.07664" lon="6.9887">
        <ele>1414.8000488281</ele>
        <time>2020-08-22T08:30:54.000Z</time>
      </trkpt>
      <trkpt lat="44.07661" lon="6.98873">
        <ele>1413.8000488281</ele>
        <time>2020-08-22T08:30:55.000Z</time>
      </trkpt>
      <trkpt lat="44.07657" lon="6.9888">
        <ele>1412</ele>
        <time>2020-08-22T08:30:57.000Z</time>
      </trkpt>
      <trkpt lat="44.07655" lon="6.98885">
        <ele>1411.4000244141</ele>
        <time>2020-08-22T08:30:58.000Z</time>
      </trkpt>
      <trkpt lat="44.07653" lon="6.98889">
        <ele>1410.5999755859</ele>
        <time>2020-08-22T08:30:59.000Z</time>
      </trkpt>
      <trkpt lat="44.07652" lon="6.98896">
        <ele>1409.5999755859</ele>
        <time>2020-08-22T08:31:00.000Z</time>
      </trkpt>
      <trkpt lat="44.07649" lon="6.98907">
        <ele>1407.4000244141</ele>
        <time>2020-08-22T08:31:02.000Z</time>
      </trkpt>
      <trkpt lat="44.07644" lon="6.98912">
        <ele>1405.8000488281</ele>
        <time>2020-08-22T08:31:04.000Z</time>
      </trkpt>
      <trkpt lat="44.07644" lon="6.98915">
        <ele>1405.1999511719</ele>
        <time>2020-08-22T08:31:05.000Z</time>
      </trkpt>
      <trkpt lat="44.07645" lon="6.98918">
        <ele>1404.4000244141</ele>
        <time>2020-08-22T08:31:06.000Z</time>
      </trkpt>
      <trkpt lat="44.07646" lon="6.98922">
        <ele>1403.4000244141</ele>
        <time>2020-08-22T08:31:07.000Z</time>
      </trkpt>
      <trkpt lat="44.07645" lon="6.98929">
        <ele>1401.5999755859</ele>
        <time>2020-08-22T08:31:09.000Z</time>
      </trkpt>
      <trkpt lat="44.07642" lon="6.9893">
        <ele>1400.4000244141</ele>
        <time>2020-08-22T08:31:11.000Z</time>
      </trkpt>
      <trkpt lat="44.07639" lon="6.98929">
        <ele>1399.5999755859</ele>
        <time>2020-08-22T08:31:12.000Z</time>
      </trkpt>
      <trkpt lat="44.07638" lon="6.98928">
        <ele>1398.8000488281</ele>
        <time>2020-08-22T08:31:13.000Z</time>
      </trkpt>
      <trkpt lat="44.07637" lon="6.9893">
        <ele>1398</ele>
        <time>2020-08-22T08:31:14.000Z</time>
      </trkpt>
      <trkpt lat="44.07638" lon="6.98931">
        <ele>1396.1999511719</ele>
        <time>2020-08-22T08:31:15.000Z</time>
      </trkpt>
      <trkpt lat="44.07639" lon="6.98934">
        <ele>1395.5999755859</ele>
        <time>2020-08-22T08:31:16.000Z</time>
      </trkpt>
      <trkpt lat="44.0764" lon="6.98938">
        <ele>1395</ele>
        <time>2020-08-22T08:31:17.000Z</time>
      </trkpt>
      <trkpt lat="44.07643" lon="6.98943">
        <ele>1393</ele>
        <time>2020-08-22T08:31:19.000Z</time>
      </trkpt>
      <trkpt lat="44.07641" lon="6.98945">
        <ele>1392</ele>
        <time>2020-08-22T08:31:20.000Z</time>
      </trkpt>
      <trkpt lat="44.07635" lon="6.98943">
        <ele>1390.8000488281</ele>
        <time>2020-08-22T08:31:22.000Z</time>
      </trkpt>
      <trkpt lat="44.07633" lon="6.98943">
        <ele>1390.4000244141</ele>
        <time>2020-08-22T08:31:23.000Z</time>
      </trkpt>
      <trkpt lat="44.0763" lon="6.98945">
        <ele>1389.5999755859</ele>
        <time>2020-08-22T08:31:24.000Z</time>
      </trkpt>
      <trkpt lat="44.07631" lon="6.98949">
        <ele>1388.5999755859</ele>
        <time>2020-08-22T08:31:25.000Z</time>
      </trkpt>
      <trkpt lat="44.07633" lon="6.98951">
        <ele>1387.5999755859</ele>
        <time>2020-08-22T08:31:26.000Z</time>
      </trkpt>
      <trkpt lat="44.07636" lon="6.98955">
        <ele>1387</ele>
        <time>2020-08-22T08:31:27.000Z</time>
      </trkpt>
      <trkpt lat="44.0764" lon="6.98966">
        <ele>1386</ele>
        <time>2020-08-22T08:31:29.000Z</time>
      </trkpt>
      <trkpt lat="44.07642" lon="6.98973">
        <ele>1385</ele>
        <time>2020-08-22T08:31:30.000Z</time>
      </trkpt>
      <trkpt lat="44.07645" lon="6.98978">
        <ele>1384.1999511719</ele>
        <time>2020-08-22T08:31:31.000Z</time>
      </trkpt>
      <trkpt lat="44.07648" lon="6.98983">
        <ele>1383.4000244141</ele>
        <time>2020-08-22T08:31:32.000Z</time>
      </trkpt>
      <trkpt lat="44.07651" lon="6.98987">
        <ele>1382.5999755859</ele>
        <time>2020-08-22T08:31:33.000Z</time>
      </trkpt>
      <trkpt lat="44.07653" lon="6.98991">
        <ele>1381.5999755859</ele>
        <time>2020-08-22T08:31:34.000Z</time>
      </trkpt>
      <trkpt lat="44.07654" lon="6.98995">
        <ele>1380.5999755859</ele>
        <time>2020-08-22T08:31:35.000Z</time>
      </trkpt>
      <trkpt lat="44.07656" lon="6.98999">
        <ele>1379.4000244141</ele>
        <time>2020-08-22T08:31:36.000Z</time>
      </trkpt>
      <trkpt lat="44.07661" lon="6.99006">
        <ele>1377.8000488281</ele>
        <time>2020-08-22T08:31:38.000Z</time>
      </trkpt>
      <trkpt lat="44.07662" lon="6.99009">
        <ele>1377.4000244141</ele>
        <time>2020-08-22T08:31:39.000Z</time>
      </trkpt>
      <trkpt lat="44.07663" lon="6.99012">
        <ele>1376.5999755859</ele>
        <time>2020-08-22T08:31:40.000Z</time>
      </trkpt>
      <trkpt lat="44.07659" lon="6.99014">
        <ele>1375.5999755859</ele>
        <time>2020-08-22T08:31:42.000Z</time>
      </trkpt>
      <trkpt lat="44.07657" lon="6.99012">
        <ele>1375.1999511719</ele>
        <time>2020-08-22T08:31:43.000Z</time>
      </trkpt>
      <trkpt lat="44.07656" lon="6.99015">
        <ele>1374</ele>
        <time>2020-08-22T08:31:45.000Z</time>
      </trkpt>
      <trkpt lat="44.07658" lon="6.99016">
        <ele>1373.4000244141</ele>
        <time>2020-08-22T08:31:46.000Z</time>
      </trkpt>
      <trkpt lat="44.07659" lon="6.99018">
        <ele>1373.4000244141</ele>
        <time>2020-08-22T08:31:47.000Z</time>
      </trkpt>
      <trkpt lat="44.07661" lon="6.99025">
        <ele>1372.8000488281</ele>
        <time>2020-08-22T08:31:49.000Z</time>
      </trkpt>
      <trkpt lat="44.07662" lon="6.99027">
        <ele>1372</ele>
        <time>2020-08-22T08:31:50.000Z</time>
      </trkpt>
      <trkpt lat="44.07664" lon="6.99027">
        <ele>1371.1999511719</ele>
        <time>2020-08-22T08:31:52.000Z</time>
      </trkpt>
      <trkpt lat="44.07664" lon="6.99031">
        <ele>1370.8000488281</ele>
        <time>2020-08-22T08:31:53.000Z</time>
      </trkpt>
      <trkpt lat="44.07662" lon="6.99032">
        <ele>1370.1999511719</ele>
        <time>2020-08-22T08:31:54.000Z</time>
      </trkpt>
      <trkpt lat="44.07658" lon="6.9903">
        <ele>1369.4000244141</ele>
        <time>2020-08-22T08:31:56.000Z</time>
      </trkpt>
      <trkpt lat="44.07657" lon="6.99027">
        <ele>1369.1999511719</ele>
        <time>2020-08-22T08:31:57.000Z</time>
      </trkpt>
      <trkpt lat="44.07648" lon="6.9902">
        <ele>1368</ele>
        <time>2020-08-22T08:32:00.000Z</time>
      </trkpt>
      <trkpt lat="44.07642" lon="6.99017">
        <ele>1366.5999755859</ele>
        <time>2020-08-22T08:32:02.000Z</time>
      </trkpt>
      <trkpt lat="44.07635" lon="6.99013">
        <ele>1365</ele>
        <time>2020-08-22T08:32:04.000Z</time>
      </trkpt>
      <trkpt lat="44.07627" lon="6.9901">
        <ele>1363.8000488281</ele>
        <time>2020-08-22T08:32:06.000Z</time>
      </trkpt>
      <trkpt lat="44.07616" lon="6.99007">
        <ele>1362.8000488281</ele>
        <time>2020-08-22T08:32:09.000Z</time>
      </trkpt>
      <trkpt lat="44.07614" lon="6.99004">
        <ele>1362.1999511719</ele>
        <time>2020-08-22T08:32:10.000Z</time>
      </trkpt>
      <trkpt lat="44.07609" lon="6.99">
        <ele>1361.1999511719</ele>
        <time>2020-08-22T08:32:12.000Z</time>
      </trkpt>
      <trkpt lat="44.07609" lon="6.99001">
        <ele>1360.8000488281</ele>
        <time>2020-08-22T08:32:13.000Z</time>
      </trkpt>
      <trkpt lat="44.07609" lon="6.99002">
        <ele>1359.8000488281</ele>
        <time>2020-08-22T08:32:14.000Z</time>
      </trkpt>
      <trkpt lat="44.07614" lon="6.99015">
        <ele>1358.8000488281</ele>
        <time>2020-08-22T08:32:17.000Z</time>
      </trkpt>
      <trkpt lat="44.07616" lon="6.99019">
        <ele>1358.5999755859</ele>
        <time>2020-08-22T08:32:18.000Z</time>
      </trkpt>
      <trkpt lat="44.0762" lon="6.99026">
        <ele>1357</ele>
        <time>2020-08-22T08:32:21.000Z</time>
      </trkpt>
      <trkpt lat="44.0762" lon="6.99028">
        <ele>1356.5999755859</ele>
        <time>2020-08-22T08:32:22.000Z</time>
      </trkpt>
      <trkpt lat="44.07615" lon="6.99029">
        <ele>1356.1999511719</ele>
        <time>2020-08-22T08:32:24.000Z</time>
      </trkpt>
      <trkpt lat="44.07612" lon="6.99029">
        <ele>1355.5999755859</ele>
        <time>2020-08-22T08:32:25.000Z</time>
      </trkpt>
      <trkpt lat="44.07602" lon="6.99024">
        <ele>1354.5999755859</ele>
        <time>2020-08-22T08:32:28.000Z</time>
      </trkpt>
      <trkpt lat="44.07595" lon="6.99018">
        <ele>1353.4000244141</ele>
        <time>2020-08-22T08:32:30.000Z</time>
      </trkpt>
      <trkpt lat="44.07589" lon="6.9901">
        <ele>1352.5999755859</ele>
        <time>2020-08-22T08:32:32.000Z</time>
      </trkpt>
      <trkpt lat="44.07587" lon="6.99006">
        <ele>1352</ele>
        <time>2020-08-22T08:32:33.000Z</time>
      </trkpt>
      <trkpt lat="44.07584" lon="6.98999">
        <ele>1350.8000488281</ele>
        <time>2020-08-22T08:32:35.000Z</time>
      </trkpt>
      <trkpt lat="44.07583" lon="6.98998">
        <ele>1350.4000244141</ele>
        <time>2020-08-22T08:32:36.000Z</time>
      </trkpt>
      <trkpt lat="44.07582" lon="6.98998">
        <ele>1349.8000488281</ele>
        <time>2020-08-22T08:32:37.000Z</time>
      </trkpt>
      <trkpt lat="44.07582" lon="6.99001">
        <ele>1349</ele>
        <time>2020-08-22T08:32:39.000Z</time>
      </trkpt>
      <trkpt lat="44.07583" lon="6.99004">
        <ele>1348.4000244141</ele>
        <time>2020-08-22T08:32:40.000Z</time>
      </trkpt>
      <trkpt lat="44.07585" lon="6.99019">
        <ele>1347.1999511719</ele>
        <time>2020-08-22T08:32:44.000Z</time>
      </trkpt>
      <trkpt lat="44.07578" lon="6.99015">
        <ele>1345.8000488281</ele>
        <time>2020-08-22T08:32:47.000Z</time>
      </trkpt>
      <trkpt lat="44.07574" lon="6.99011">
        <ele>1345</ele>
        <time>2020-08-22T08:32:48.000Z</time>
      </trkpt>
      <trkpt lat="44.07572" lon="6.99007">
        <ele>1344.4000244141</ele>
        <time>2020-08-22T08:32:49.000Z</time>
      </trkpt>
      <trkpt lat="44.07569" lon="6.98996">
        <ele>1343.4000244141</ele>
        <time>2020-08-22T08:32:51.000Z</time>
      </trkpt>
      <trkpt lat="44.07567" lon="6.98991">
        <ele>1342.5999755859</ele>
        <time>2020-08-22T08:32:52.000Z</time>
      </trkpt>
      <trkpt lat="44.07565" lon="6.98985">
        <ele>1342</ele>
        <time>2020-08-22T08:32:53.000Z</time>
      </trkpt>
      <trkpt lat="44.07563" lon="6.98976">
        <ele>1341.4000244141</ele>
        <time>2020-08-22T08:32:55.000Z</time>
      </trkpt>
      <trkpt lat="44.07562" lon="6.98973">
        <ele>1341.1999511719</ele>
        <time>2020-08-22T08:32:56.000Z</time>
      </trkpt>
      <trkpt lat="44.07561" lon="6.98975">
        <ele>1340.1999511719</ele>
        <time>2020-08-22T08:32:59.000Z</time>
      </trkpt>
      <trkpt lat="44.07555" lon="6.98974">
        <ele>1339.4000244141</ele>
        <time>2020-08-22T08:33:02.000Z</time>
      </trkpt>
      <trkpt lat="44.07555" lon="6.98969">
        <ele>1338.5999755859</ele>
        <time>2020-08-22T08:33:03.000Z</time>
      </trkpt>
      <trkpt lat="44.07556" lon="6.98963">
        <ele>1337</ele>
        <time>2020-08-22T08:33:05.000Z</time>
      </trkpt>
      <trkpt lat="44.07556" lon="6.98962">
        <ele>1336</ele>
        <time>2020-08-22T08:33:06.000Z</time>
      </trkpt>
      <trkpt lat="44.07554" lon="6.98961">
        <ele>1334</ele>
        <time>2020-08-22T08:33:08.000Z</time>
      </trkpt>
      <trkpt lat="44.07553" lon="6.98962">
        <ele>1333.1999511719</ele>
        <time>2020-08-22T08:33:09.000Z</time>
      </trkpt>
      <trkpt lat="44.07551" lon="6.98961">
        <ele>1332.5999755859</ele>
        <time>2020-08-22T08:33:10.000Z</time>
      </trkpt>
      <trkpt lat="44.07547" lon="6.98964">
        <ele>1331.4000244141</ele>
        <time>2020-08-22T08:33:12.000Z</time>
      </trkpt>
      <trkpt lat="44.07545" lon="6.98965">
        <ele>1330.8000488281</ele>
        <time>2020-08-22T08:33:13.000Z</time>
      </trkpt>
      <trkpt lat="44.07543" lon="6.98969">
        <ele>1330.1999511719</ele>
        <time>2020-08-22T08:33:14.000Z</time>
      </trkpt>
      <trkpt lat="44.07537" lon="6.9898">
        <ele>1328.8000488281</ele>
        <time>2020-08-22T08:33:16.000Z</time>
      </trkpt>
      <trkpt lat="44.07533" lon="6.98985">
        <ele>1328.4000244141</ele>
        <time>2020-08-22T08:33:17.000Z</time>
      </trkpt>
      <trkpt lat="44.07529" lon="6.98989">
        <ele>1327.8000488281</ele>
        <time>2020-08-22T08:33:18.000Z</time>
      </trkpt>
      <trkpt lat="44.07524" lon="6.98994">
        <ele>1326.8000488281</ele>
        <time>2020-08-22T08:33:20.000Z</time>
      </trkpt>
      <trkpt lat="44.07524" lon="6.98995">
        <ele>1325.8000488281</ele>
        <time>2020-08-22T08:33:21.000Z</time>
      </trkpt>
      <trkpt lat="44.07524" lon="6.98997">
        <ele>1324.4000244141</ele>
        <time>2020-08-22T08:33:23.000Z</time>
      </trkpt>
      <trkpt lat="44.07523" lon="6.99">
        <ele>1323.5999755859</ele>
        <time>2020-08-22T08:33:24.000Z</time>
      </trkpt>
      <trkpt lat="44.07523" lon="6.99001">
        <ele>1323.1999511719</ele>
        <time>2020-08-22T08:33:25.000Z</time>
      </trkpt>
      <trkpt lat="44.07523" lon="6.99009">
        <ele>1323</ele>
        <time>2020-08-22T08:33:28.000Z</time>
      </trkpt>
      <trkpt lat="44.07521" lon="6.99011">
        <ele>1323</ele>
        <time>2020-08-22T08:33:29.000Z</time>
      </trkpt>
      <trkpt lat="44.07515" lon="6.99007">
        <ele>1322.5999755859</ele>
        <time>2020-08-22T08:33:32.000Z</time>
      </trkpt>
      <trkpt lat="44.07507" lon="6.99004">
        <ele>1322</ele>
        <time>2020-08-22T08:33:35.000Z</time>
      </trkpt>
      <trkpt lat="44.07504" lon="6.99005">
        <ele>1321.8000488281</ele>
        <time>2020-08-22T08:33:36.000Z</time>
      </trkpt>
      <trkpt lat="44.07501" lon="6.99005">
        <ele>1321.5999755859</ele>
        <time>2020-08-22T08:33:37.000Z</time>
      </trkpt>
      <trkpt lat="44.07493" lon="6.99007">
        <ele>1321</ele>
        <time>2020-08-22T08:33:40.000Z</time>
      </trkpt>
      <trkpt lat="44.07491" lon="6.9901">
        <ele>1320.5999755859</ele>
        <time>2020-08-22T08:33:42.000Z</time>
      </trkpt>
      <trkpt lat="44.07491" lon="6.9901">
        <ele>1320.4000244141</ele>
        <time>2020-08-22T08:33:43.000Z</time>
      </trkpt>
      <trkpt lat="44.07491" lon="6.9901">
        <ele>1320</ele>
        <time>2020-08-22T08:33:45.000Z</time>
      </trkpt>
      <trkpt lat="44.07491" lon="6.99009">
        <ele>1319.1999511719</ele>
        <time>2020-08-22T08:33:49.000Z</time>
      </trkpt>
      <trkpt lat="44.07491" lon="6.99009">
        <ele>1318.8000488281</ele>
        <time>2020-08-22T08:33:51.000Z</time>
      </trkpt>
      <trkpt lat="44.07491" lon="6.9901">
        <ele>1318</ele>
        <time>2020-08-22T08:34:00.000Z</time>
      </trkpt>
      <trkpt lat="44.0749" lon="6.9901">
        <ele>1317.8000488281</ele>
        <time>2020-08-22T08:34:01.000Z</time>
      </trkpt>
      <trkpt lat="44.0749" lon="6.9901">
        <ele>1316.8000488281</ele>
        <time>2020-08-22T08:34:08.000Z</time>
      </trkpt>
      <trkpt lat="44.0749" lon="6.99011">
        <ele>1316</ele>
        <time>2020-08-22T08:34:12.000Z</time>
      </trkpt>
      <trkpt lat="44.0749" lon="6.99011">
        <ele>1315.5999755859</ele>
        <time>2020-08-22T08:34:13.000Z</time>
      </trkpt>
      <trkpt lat="44.0749" lon="6.99012">
        <ele>1315</ele>
        <time>2020-08-22T08:34:20.000Z</time>
      </trkpt>
      <trkpt lat="44.0749" lon="6.99012">
        <ele>1314.4000244141</ele>
        <time>2020-08-22T08:34:22.000Z</time>
      </trkpt>
      <trkpt lat="44.0749" lon="6.99013">
        <ele>1313.4000244141</ele>
        <time>2020-08-22T08:34:27.000Z</time>
      </trkpt>
      <trkpt lat="44.07489" lon="6.99014">
        <ele>1313.1999511719</ele>
        <time>2020-08-22T08:34:32.000Z</time>
      </trkpt>
      <trkpt lat="44.07489" lon="6.99015">
        <ele>1312.4000244141</ele>
        <time>2020-08-22T08:34:37.000Z</time>
      </trkpt>
      <trkpt lat="44.07489" lon="6.99015">
        <ele>1311.5999755859</ele>
        <time>2020-08-22T08:34:43.000Z</time>
      </trkpt>
      <trkpt lat="44.07489" lon="6.99014">
        <ele>1311.1999511719</ele>
        <time>2020-08-22T08:34:45.000Z</time>
      </trkpt>
      <trkpt lat="44.07489" lon="6.99013">
        <ele>1310.1999511719</ele>
        <time>2020-08-22T08:34:52.000Z</time>
      </trkpt>
      <trkpt lat="44.07489" lon="6.99012">
        <ele>1309.4000244141</ele>
        <time>2020-08-22T08:35:04.000Z</time>
      </trkpt>
      <trkpt lat="44.07489" lon="6.99013">
        <ele>1309.1999511719</ele>
        <time>2020-08-22T08:35:16.000Z</time>
      </trkpt>
      <trkpt lat="44.0749" lon="6.99011">
        <ele>1309.1999511719</ele>
        <time>2020-08-22T08:35:23.000Z</time>
      </trkpt>
      <trkpt lat="44.07489" lon="6.99011">
        <ele>1309.1999511719</ele>
        <time>2020-08-22T08:35:31.000Z</time>
      </trkpt>
      <trkpt lat="44.07489" lon="6.99015">
        <ele>1309.5999755859</ele>
        <time>2020-08-22T08:35:38.000Z</time>
      </trkpt>
      <trkpt lat="44.07499" lon="6.99032">
        <ele>1309</ele>
        <time>2020-08-22T08:35:42.000Z</time>
      </trkpt>
      <trkpt lat="44.07509" lon="6.99048">
        <ele>1307.8000488281</ele>
        <time>2020-08-22T08:35:45.000Z</time>
      </trkpt>
      <trkpt lat="44.07511" lon="6.9905">
        <ele>1306.8000488281</ele>
        <time>2020-08-22T08:35:46.000Z</time>
      </trkpt>
      <trkpt lat="44.07512" lon="6.99052">
        <ele>1304.8000488281</ele>
        <time>2020-08-22T08:35:48.000Z</time>
      </trkpt>
      <trkpt lat="44.07513" lon="6.99054">
        <ele>1303.5999755859</ele>
        <time>2020-08-22T08:35:50.000Z</time>
      </trkpt>
      <trkpt lat="44.07513" lon="6.99056">
        <ele>1303.5999755859</ele>
        <time>2020-08-22T08:35:51.000Z</time>
      </trkpt>
      <trkpt lat="44.07511" lon="6.99065">
        <ele>1303.4000244141</ele>
        <time>2020-08-22T08:35:54.000Z</time>
      </trkpt>
      <trkpt lat="44.07512" lon="6.99068">
        <ele>1302.4000244141</ele>
        <time>2020-08-22T08:35:57.000Z</time>
      </trkpt>
      <trkpt lat="44.07512" lon="6.99068">
        <ele>1302.1999511719</ele>
        <time>2020-08-22T08:35:58.000Z</time>
      </trkpt>
      <trkpt lat="44.07511" lon="6.99068">
        <ele>1302.1999511719</ele>
        <time>2020-08-22T08:36:06.000Z</time>
      </trkpt>
      <trkpt lat="44.07511" lon="6.99067">
        <ele>1302.1999511719</ele>
        <time>2020-08-22T08:36:13.000Z</time>
      </trkpt>
      <trkpt lat="44.07511" lon="6.99067">
        <ele>1302.4000244141</ele>
        <time>2020-08-22T08:36:22.000Z</time>
      </trkpt>
      <trkpt lat="44.0751" lon="6.99071">
        <ele>1302.8000488281</ele>
        <time>2020-08-22T08:36:29.000Z</time>
      </trkpt>
      <trkpt lat="44.0751" lon="6.99075">
        <ele>1302.8000488281</ele>
        <time>2020-08-22T08:36:36.000Z</time>
      </trkpt>
      <trkpt lat="44.07511" lon="6.99078">
        <ele>1302.5999755859</ele>
        <time>2020-08-22T08:36:42.000Z</time>
      </trkpt>
      <trkpt lat="44.0751" lon="6.99082">
        <ele>1302.5999755859</ele>
        <time>2020-08-22T08:36:48.000Z</time>
      </trkpt>
      <trkpt lat="44.0751" lon="6.99089">
        <ele>1303</ele>
        <time>2020-08-22T08:36:54.000Z</time>
      </trkpt>
      <trkpt lat="44.07509" lon="6.9909">
        <ele>1303.1999511719</ele>
        <time>2020-08-22T08:36:55.000Z</time>
      </trkpt>
      <trkpt lat="44.07508" lon="6.99091">
        <ele>1303.5999755859</ele>
        <time>2020-08-22T08:36:57.000Z</time>
      </trkpt>
      <trkpt lat="44.07507" lon="6.99093">
        <ele>1303.5999755859</ele>
        <time>2020-08-22T08:36:59.000Z</time>
      </trkpt>
      <trkpt lat="44.07507" lon="6.99101">
        <ele>1303.4000244141</ele>
        <time>2020-08-22T08:37:03.000Z</time>
      </trkpt>
      <trkpt lat="44.07507" lon="6.99101">
        <ele>1303.4000244141</ele>
        <time>2020-08-22T08:37:04.000Z</time>
      </trkpt>
      <trkpt lat="44.07514" lon="6.99106">
        <ele>1304.4000244141</ele>
        <time>2020-08-22T08:37:10.000Z</time>
      </trkpt>
      <trkpt lat="44.07524" lon="6.99108">
        <ele>1304.4000244141</ele>
        <time>2020-08-22T08:37:14.000Z</time>
      </trkpt>
      <trkpt lat="44.07526" lon="6.9911">
        <ele>1304.1999511719</ele>
        <time>2020-08-22T08:37:15.000Z</time>
      </trkpt>
      <trkpt lat="44.07533" lon="6.99115">
        <ele>1304</ele>
        <time>2020-08-22T08:37:19.000Z</time>
      </trkpt>
      <trkpt lat="44.07539" lon="6.99117">
        <ele>1304.5999755859</ele>
        <time>2020-08-22T08:37:22.000Z</time>
      </trkpt>
      <trkpt lat="44.07543" lon="6.99119">
        <ele>1304.5999755859</ele>
        <time>2020-08-22T08:37:24.000Z</time>
      </trkpt>
      <trkpt lat="44.07554" lon="6.99118">
        <ele>1305.1999511719</ele>
        <time>2020-08-22T08:37:29.000Z</time>
      </trkpt>
      <trkpt lat="44.07556" lon="6.99117">
        <ele>1305.1999511719</ele>
        <time>2020-08-22T08:37:30.000Z</time>
      </trkpt>
      <trkpt lat="44.07558" lon="6.99118">
        <ele>1305.4000244141</ele>
        <time>2020-08-22T08:37:31.000Z</time>
      </trkpt>
      <trkpt lat="44.07564" lon="6.99117">
        <ele>1305.5999755859</ele>
        <time>2020-08-22T08:37:34.000Z</time>
      </trkpt>
      <trkpt lat="44.07577" lon="6.99117">
        <ele>1305.8000488281</ele>
        <time>2020-08-22T08:37:39.000Z</time>
      </trkpt>
      <trkpt lat="44.0759" lon="6.99127">
        <ele>1306.5999755859</ele>
        <time>2020-08-22T08:37:44.000Z</time>
      </trkpt>
      <trkpt lat="44.07604" lon="6.99137">
        <ele>1306.8000488281</ele>
        <time>2020-08-22T08:37:49.000Z</time>
      </trkpt>
      <trkpt lat="44.07606" lon="6.9914">
        <ele>1306.8000488281</ele>
        <time>2020-08-22T08:37:50.000Z</time>
      </trkpt>
      <trkpt lat="44.07614" lon="6.99159">
        <ele>1307.1999511719</ele>
        <time>2020-08-22T08:37:55.000Z</time>
      </trkpt>
      <trkpt lat="44.07619" lon="6.9917">
        <ele>1307.8000488281</ele>
        <time>2020-08-22T08:37:58.000Z</time>
      </trkpt>
      <trkpt lat="44.07624" lon="6.9918">
        <ele>1308</ele>
        <time>2020-08-22T08:38:01.000Z</time>
      </trkpt>
      <trkpt lat="44.07636" lon="6.99199">
        <ele>1309</ele>
        <time>2020-08-22T08:38:07.000Z</time>
      </trkpt>
      <trkpt lat="44.07643" lon="6.99209">
        <ele>1310</ele>
        <time>2020-08-22T08:38:11.000Z</time>
      </trkpt>
      <trkpt lat="44.07648" lon="6.99217">
        <ele>1311.4000244141</ele>
        <time>2020-08-22T08:38:14.000Z</time>
      </trkpt>
      <trkpt lat="44.07655" lon="6.99226">
        <ele>1312.5999755859</ele>
        <time>2020-08-22T08:38:19.000Z</time>
      </trkpt>
      <trkpt lat="44.07658" lon="6.99232">
        <ele>1313.4000244141</ele>
        <time>2020-08-22T08:38:22.000Z</time>
      </trkpt>
      <trkpt lat="44.07659" lon="6.99233">
        <ele>1313.5999755859</ele>
        <time>2020-08-22T08:38:23.000Z</time>
      </trkpt>
      <trkpt lat="44.07664" lon="6.99243">
        <ele>1315</ele>
        <time>2020-08-22T08:38:28.000Z</time>
      </trkpt>
      <trkpt lat="44.07666" lon="6.99248">
        <ele>1315.4000244141</ele>
        <time>2020-08-22T08:38:30.000Z</time>
      </trkpt>
      <trkpt lat="44.07667" lon="6.99263">
        <ele>1315.5999755859</ele>
        <time>2020-08-22T08:38:36.000Z</time>
      </trkpt>
      <trkpt lat="44.07667" lon="6.99271">
        <ele>1316</ele>
        <time>2020-08-22T08:38:39.000Z</time>
      </trkpt>
      <trkpt lat="44.07666" lon="6.99275">
        <ele>1316.5999755859</ele>
        <time>2020-08-22T08:38:41.000Z</time>
      </trkpt>
      <trkpt lat="44.07663" lon="6.99281">
        <ele>1317.1999511719</ele>
        <time>2020-08-22T08:38:44.000Z</time>
      </trkpt>
      <trkpt lat="44.07661" lon="6.99286">
        <ele>1318</ele>
        <time>2020-08-22T08:38:47.000Z</time>
      </trkpt>
      <trkpt lat="44.07658" lon="6.9929">
        <ele>1318.4000244141</ele>
        <time>2020-08-22T08:38:49.000Z</time>
      </trkpt>
      <trkpt lat="44.07651" lon="6.99299">
        <ele>1319.4000244141</ele>
        <time>2020-08-22T08:38:55.000Z</time>
      </trkpt>
      <trkpt lat="44.07645" lon="6.99305">
        <ele>1320.5999755859</ele>
        <time>2020-08-22T08:39:01.000Z</time>
      </trkpt>
      <trkpt lat="44.07643" lon="6.99306">
        <ele>1321</ele>
        <time>2020-08-22T08:39:02.000Z</time>
      </trkpt>
      <trkpt lat="44.07638" lon="6.99313">
        <ele>1321.5999755859</ele>
        <time>2020-08-22T08:39:07.000Z</time>
      </trkpt>
      <trkpt lat="44.07636" lon="6.99315">
        <ele>1321.8000488281</ele>
        <time>2020-08-22T08:39:08.000Z</time>
      </trkpt>
      <trkpt lat="44.07631" lon="6.99323">
        <ele>1322.8000488281</ele>
        <time>2020-08-22T08:39:13.000Z</time>
      </trkpt>
      <trkpt lat="44.07629" lon="6.99325">
        <ele>1323</ele>
        <time>2020-08-22T08:39:15.000Z</time>
      </trkpt>
      <trkpt lat="44.07622" lon="6.99332">
        <ele>1324</ele>
        <time>2020-08-22T08:39:20.000Z</time>
      </trkpt>
      <trkpt lat="44.07619" lon="6.99335">
        <ele>1324.4000244141</ele>
        <time>2020-08-22T08:39:22.000Z</time>
      </trkpt>
      <trkpt lat="44.07614" lon="6.99338">
        <ele>1325.1999511719</ele>
        <time>2020-08-22T08:39:26.000Z</time>
      </trkpt>
      <trkpt lat="44.0761" lon="6.99342">
        <ele>1326</ele>
        <time>2020-08-22T08:39:29.000Z</time>
      </trkpt>
      <trkpt lat="44.07609" lon="6.99343">
        <ele>1326.1999511719</ele>
        <time>2020-08-22T08:39:30.000Z</time>
      </trkpt>
      <trkpt lat="44.07601" lon="6.99352">
        <ele>1327</ele>
        <time>2020-08-22T08:39:36.000Z</time>
      </trkpt>
      <trkpt lat="44.07598" lon="6.99355">
        <ele>1327.4000244141</ele>
        <time>2020-08-22T08:39:38.000Z</time>
      </trkpt>
      <trkpt lat="44.07592" lon="6.99363">
        <ele>1328.4000244141</ele>
        <time>2020-08-22T08:39:43.000Z</time>
      </trkpt>
      <trkpt lat="44.07583" lon="6.99374">
        <ele>1329.4000244141</ele>
        <time>2020-08-22T08:39:50.000Z</time>
      </trkpt>
      <trkpt lat="44.0758" lon="6.99377">
        <ele>1329.5999755859</ele>
        <time>2020-08-22T08:39:52.000Z</time>
      </trkpt>
      <trkpt lat="44.07572" lon="6.99385">
        <ele>1330.5999755859</ele>
        <time>2020-08-22T08:39:57.000Z</time>
      </trkpt>
      <trkpt lat="44.0757" lon="6.99387">
        <ele>1330.8000488281</ele>
        <time>2020-08-22T08:39:58.000Z</time>
      </trkpt>
      <trkpt lat="44.07561" lon="6.99396">
        <ele>1331.5999755859</ele>
        <time>2020-08-22T08:40:04.000Z</time>
      </trkpt>
      <trkpt lat="44.07558" lon="6.994">
        <ele>1331.8000488281</ele>
        <time>2020-08-22T08:40:06.000Z</time>
      </trkpt>
      <trkpt lat="44.07552" lon="6.99407">
        <ele>1332.5999755859</ele>
        <time>2020-08-22T08:40:10.000Z</time>
      </trkpt>
      <trkpt lat="44.07549" lon="6.9941">
        <ele>1333</ele>
        <time>2020-08-22T08:40:12.000Z</time>
      </trkpt>
      <trkpt lat="44.07543" lon="6.99419">
        <ele>1334.1999511719</ele>
        <time>2020-08-22T08:40:17.000Z</time>
      </trkpt>
      <trkpt lat="44.07535" lon="6.99429">
        <ele>1335.1999511719</ele>
        <time>2020-08-22T08:40:23.000Z</time>
      </trkpt>
      <trkpt lat="44.07533" lon="6.99431">
        <ele>1335.4000244141</ele>
        <time>2020-08-22T08:40:25.000Z</time>
      </trkpt>
      <trkpt lat="44.07529" lon="6.99435">
        <ele>1336.1999511719</ele>
        <time>2020-08-22T08:40:28.000Z</time>
      </trkpt>
      <trkpt lat="44.07524" lon="6.99442">
        <ele>1337</ele>
        <time>2020-08-22T08:40:33.000Z</time>
      </trkpt>
      <trkpt lat="44.07523" lon="6.99444">
        <ele>1337.1999511719</ele>
        <time>2020-08-22T08:40:34.000Z</time>
      </trkpt>
      <trkpt lat="44.07516" lon="6.99456">
        <ele>1338</ele>
        <time>2020-08-22T08:40:41.000Z</time>
      </trkpt>
      <trkpt lat="44.07515" lon="6.99458">
        <ele>1338.4000244141</ele>
        <time>2020-08-22T08:40:42.000Z</time>
      </trkpt>
      <trkpt lat="44.07508" lon="6.99473">
        <ele>1339.4000244141</ele>
        <time>2020-08-22T08:40:49.000Z</time>
      </trkpt>
      <trkpt lat="44.07507" lon="6.99477">
        <ele>1339.8000488281</ele>
        <time>2020-08-22T08:40:51.000Z</time>
      </trkpt>
      <trkpt lat="44.07503" lon="6.99487">
        <ele>1340.5999755859</ele>
        <time>2020-08-22T08:40:56.000Z</time>
      </trkpt>
      <trkpt lat="44.075" lon="6.99492">
        <ele>1341.1999511719</ele>
        <time>2020-08-22T08:40:59.000Z</time>
      </trkpt>
      <trkpt lat="44.07498" lon="6.99496">
        <ele>1341.5999755859</ele>
        <time>2020-08-22T08:41:01.000Z</time>
      </trkpt>
      <trkpt lat="44.07494" lon="6.99509">
        <ele>1342.5999755859</ele>
        <time>2020-08-22T08:41:07.000Z</time>
      </trkpt>
      <trkpt lat="44.07494" lon="6.9951">
        <ele>1343</ele>
        <time>2020-08-22T08:41:08.000Z</time>
      </trkpt>
      <trkpt lat="44.07491" lon="6.99523">
        <ele>1343.5999755859</ele>
        <time>2020-08-22T08:41:14.000Z</time>
      </trkpt>
      <trkpt lat="44.0749" lon="6.99527">
        <ele>1344</ele>
        <time>2020-08-22T08:41:16.000Z</time>
      </trkpt>
      <trkpt lat="44.07488" lon="6.99538">
        <ele>1345</ele>
        <time>2020-08-22T08:41:21.000Z</time>
      </trkpt>
      <trkpt lat="44.07484" lon="6.99549">
        <ele>1346</ele>
        <time>2020-08-22T08:41:27.000Z</time>
      </trkpt>
      <trkpt lat="44.07483" lon="6.99552">
        <ele>1346.4000244141</ele>
        <time>2020-08-22T08:41:29.000Z</time>
      </trkpt>
      <trkpt lat="44.0748" lon="6.99559">
        <ele>1347.1999511719</ele>
        <time>2020-08-22T08:41:33.000Z</time>
      </trkpt>
      <trkpt lat="44.07479" lon="6.99563">
        <ele>1347.4000244141</ele>
        <time>2020-08-22T08:41:35.000Z</time>
      </trkpt>
      <trkpt lat="44.07477" lon="6.99571">
        <ele>1348.1999511719</ele>
        <time>2020-08-22T08:41:39.000Z</time>
      </trkpt>
      <trkpt lat="44.07475" lon="6.99579">
        <ele>1348.5999755859</ele>
        <time>2020-08-22T08:41:42.000Z</time>
      </trkpt>
      <trkpt lat="44.07474" lon="6.99594">
        <ele>1349</ele>
        <time>2020-08-22T08:41:48.000Z</time>
      </trkpt>
      <trkpt lat="44.07473" lon="6.99598">
        <ele>1349.4000244141</ele>
        <time>2020-08-22T08:41:50.000Z</time>
      </trkpt>
      <trkpt lat="44.07471" lon="6.99606">
        <ele>1350</ele>
        <time>2020-08-22T08:41:54.000Z</time>
      </trkpt>
      <trkpt lat="44.07469" lon="6.99609">
        <ele>1350.4000244141</ele>
        <time>2020-08-22T08:41:56.000Z</time>
      </trkpt>
      <trkpt lat="44.07466" lon="6.99614">
        <ele>1351.5999755859</ele>
        <time>2020-08-22T08:42:00.000Z</time>
      </trkpt>
      <trkpt lat="44.07462" lon="6.99619">
        <ele>1352.5999755859</ele>
        <time>2020-08-22T08:42:05.000Z</time>
      </trkpt>
      <trkpt lat="44.0746" lon="6.99621">
        <ele>1353.1999511719</ele>
        <time>2020-08-22T08:42:07.000Z</time>
      </trkpt>
      <trkpt lat="44.0746" lon="6.99622">
        <ele>1353.4000244141</ele>
        <time>2020-08-22T08:42:08.000Z</time>
      </trkpt>
      <trkpt lat="44.07459" lon="6.99624">
        <ele>1353.8000488281</ele>
        <time>2020-08-22T08:42:10.000Z</time>
      </trkpt>
      <trkpt lat="44.07458" lon="6.99628">
        <ele>1354.1999511719</ele>
        <time>2020-08-22T08:42:12.000Z</time>
      </trkpt>
      <trkpt lat="44.07455" lon="6.99631">
        <ele>1354.8000488281</ele>
        <time>2020-08-22T08:42:15.000Z</time>
      </trkpt>
      <trkpt lat="44.07454" lon="6.99631">
        <ele>1355</ele>
        <time>2020-08-22T08:42:16.000Z</time>
      </trkpt>
      <trkpt lat="44.07449" lon="6.99639">
        <ele>1355.8000488281</ele>
        <time>2020-08-22T08:42:22.000Z</time>
      </trkpt>
      <trkpt lat="44.07447" lon="6.99643">
        <ele>1356</ele>
        <time>2020-08-22T08:42:24.000Z</time>
      </trkpt>
      <trkpt lat="44.07441" lon="6.99655">
        <ele>1356.1999511719</ele>
        <time>2020-08-22T08:42:30.000Z</time>
      </trkpt>
      <trkpt lat="44.0743" lon="6.99673">
        <ele>1357.1999511719</ele>
        <time>2020-08-22T08:42:39.000Z</time>
      </trkpt>
      <trkpt lat="44.07425" lon="6.99688">
        <ele>1357.5999755859</ele>
        <time>2020-08-22T08:42:46.000Z</time>
      </trkpt>
      <trkpt lat="44.07423" lon="6.99696">
        <ele>1358.4000244141</ele>
        <time>2020-08-22T08:42:50.000Z</time>
      </trkpt>
      <trkpt lat="44.07421" lon="6.99705">
        <ele>1359.4000244141</ele>
        <time>2020-08-22T08:42:54.000Z</time>
      </trkpt>
      <trkpt lat="44.0742" lon="6.99707">
        <ele>1359.5999755859</ele>
        <time>2020-08-22T08:42:55.000Z</time>
      </trkpt>
      <trkpt lat="44.07415" lon="6.9972">
        <ele>1360.1999511719</ele>
        <time>2020-08-22T08:43:02.000Z</time>
      </trkpt>
      <trkpt lat="44.07414" lon="6.99723">
        <ele>1360.5999755859</ele>
        <time>2020-08-22T08:43:04.000Z</time>
      </trkpt>
      <trkpt lat="44.07411" lon="6.99733">
        <ele>1361.5999755859</ele>
        <time>2020-08-22T08:43:10.000Z</time>
      </trkpt>
      <trkpt lat="44.0741" lon="6.99735">
        <ele>1361.8000488281</ele>
        <time>2020-08-22T08:43:11.000Z</time>
      </trkpt>
      <trkpt lat="44.0741" lon="6.9975">
        <ele>1362.5999755859</ele>
        <time>2020-08-22T08:43:18.000Z</time>
      </trkpt>
      <trkpt lat="44.0741" lon="6.99754">
        <ele>1362.8000488281</ele>
        <time>2020-08-22T08:43:20.000Z</time>
      </trkpt>
      <trkpt lat="44.07411" lon="6.99767">
        <ele>1363.4000244141</ele>
        <time>2020-08-22T08:43:25.000Z</time>
      </trkpt>
      <trkpt lat="44.07412" lon="6.99776">
        <ele>1364</ele>
        <time>2020-08-22T08:43:29.000Z</time>
      </trkpt>
      <trkpt lat="44.07412" lon="6.99779">
        <ele>1364</ele>
        <time>2020-08-22T08:43:30.000Z</time>
      </trkpt>
      <trkpt lat="44.07413" lon="6.99793">
        <ele>1365.1999511719</ele>
        <time>2020-08-22T08:43:36.000Z</time>
      </trkpt>
      <trkpt lat="44.07413" lon="6.99799">
        <ele>1365.5999755859</ele>
        <time>2020-08-22T08:43:38.000Z</time>
      </trkpt>
      <trkpt lat="44.07413" lon="6.99813">
        <ele>1366.1999511719</ele>
        <time>2020-08-22T08:43:44.000Z</time>
      </trkpt>
      <trkpt lat="44.07417" lon="6.99823">
        <ele>1367.1999511719</ele>
        <time>2020-08-22T08:43:49.000Z</time>
      </trkpt>
      <trkpt lat="44.07422" lon="6.99834">
        <ele>1368.4000244141</ele>
        <time>2020-08-22T08:43:55.000Z</time>
      </trkpt>
      <trkpt lat="44.07424" lon="6.99837">
        <ele>1368.8000488281</ele>
        <time>2020-08-22T08:43:57.000Z</time>
      </trkpt>
      <trkpt lat="44.07427" lon="6.99844">
        <ele>1369.4000244141</ele>
        <time>2020-08-22T08:44:01.000Z</time>
      </trkpt>
      <trkpt lat="44.07429" lon="6.99849">
        <ele>1370</ele>
        <time>2020-08-22T08:44:04.000Z</time>
      </trkpt>
      <trkpt lat="44.07435" lon="6.99859">
        <ele>1370.4000244141</ele>
        <time>2020-08-22T08:44:10.000Z</time>
      </trkpt>
      <trkpt lat="44.07436" lon="6.99861">
        <ele>1370.5999755859</ele>
        <time>2020-08-22T08:44:11.000Z</time>
      </trkpt>
      <trkpt lat="44.07441" lon="6.99871">
        <ele>1371.5999755859</ele>
        <time>2020-08-22T08:44:17.000Z</time>
      </trkpt>
      <trkpt lat="44.07448" lon="6.99884">
        <ele>1372.8000488281</ele>
        <time>2020-08-22T08:44:25.000Z</time>
      </trkpt>
      <trkpt lat="44.07449" lon="6.99886">
        <ele>1373</ele>
        <time>2020-08-22T08:44:26.000Z</time>
      </trkpt>
      <trkpt lat="44.0745" lon="6.99889">
        <ele>1373.4000244141</ele>
        <time>2020-08-22T08:44:28.000Z</time>
      </trkpt>
      <trkpt lat="44.07454" lon="6.99895">
        <ele>1374</ele>
        <time>2020-08-22T08:44:32.000Z</time>
      </trkpt>
      <trkpt lat="44.07462" lon="6.99905">
        <ele>1375</ele>
        <time>2020-08-22T08:44:38.000Z</time>
      </trkpt>
      <trkpt lat="44.07463" lon="6.99906">
        <ele>1375.1999511719</ele>
        <time>2020-08-22T08:44:39.000Z</time>
      </trkpt>
      <trkpt lat="44.07469" lon="6.99913">
        <ele>1376.1999511719</ele>
        <time>2020-08-22T08:44:43.000Z</time>
      </trkpt>
      <trkpt lat="44.07475" lon="6.99919">
        <ele>1376.8000488281</ele>
        <time>2020-08-22T08:44:47.000Z</time>
      </trkpt>
      <trkpt lat="44.07478" lon="6.99924">
        <ele>1377.1999511719</ele>
        <time>2020-08-22T08:44:50.000Z</time>
      </trkpt>
      <trkpt lat="44.07484" lon="6.99933">
        <ele>1378.4000244141</ele>
        <time>2020-08-22T08:44:56.000Z</time>
      </trkpt>
      <trkpt lat="44.07485" lon="6.99935">
        <ele>1378.5999755859</ele>
        <time>2020-08-22T08:44:57.000Z</time>
      </trkpt>
      <trkpt lat="44.07489" lon="6.99941">
        <ele>1379.4000244141</ele>
        <time>2020-08-22T08:45:02.000Z</time>
      </trkpt>
      <trkpt lat="44.07492" lon="6.99946">
        <ele>1379.8000488281</ele>
        <time>2020-08-22T08:45:05.000Z</time>
      </trkpt>
      <trkpt lat="44.07494" lon="6.99949">
        <ele>1380.4000244141</ele>
        <time>2020-08-22T08:45:07.000Z</time>
      </trkpt>
      <trkpt lat="44.07501" lon="6.99959">
        <ele>1381.5999755859</ele>
        <time>2020-08-22T08:45:13.000Z</time>
      </trkpt>
      <trkpt lat="44.07502" lon="6.9996">
        <ele>1381.8000488281</ele>
        <time>2020-08-22T08:45:14.000Z</time>
      </trkpt>
      <trkpt lat="44.07508" lon="6.99968">
        <ele>1382.5999755859</ele>
        <time>2020-08-22T08:45:19.000Z</time>
      </trkpt>
      <trkpt lat="44.0751" lon="6.99973">
        <ele>1383.1999511719</ele>
        <time>2020-08-22T08:45:22.000Z</time>
      </trkpt>
      <trkpt lat="44.07514" lon="6.9998">
        <ele>1383.8000488281</ele>
        <time>2020-08-22T08:45:26.000Z</time>
      </trkpt>
      <trkpt lat="44.07517" lon="6.99987">
        <ele>1384.4000244141</ele>
        <time>2020-08-22T08:45:30.000Z</time>
      </trkpt>
      <trkpt lat="44.07519" lon="6.99992">
        <ele>1384.8000488281</ele>
        <time>2020-08-22T08:45:33.000Z</time>
      </trkpt>
      <trkpt lat="44.07522" lon="7">
        <ele>1385.4000244141</ele>
        <time>2020-08-22T08:45:37.000Z</time>
      </trkpt>
      <trkpt lat="44.07524" lon="7.00008">
        <ele>1386</ele>
        <time>2020-08-22T08:45:41.000Z</time>
      </trkpt>
      <trkpt lat="44.07525" lon="7.0001">
        <ele>1386</ele>
        <time>2020-08-22T08:45:42.000Z</time>
      </trkpt>
      <trkpt lat="44.07527" lon="7.00017">
        <ele>1386.4000244141</ele>
        <time>2020-08-22T08:45:45.000Z</time>
      </trkpt>
      <trkpt lat="44.0753" lon="7.00023">
        <ele>1387</ele>
        <time>2020-08-22T08:45:49.000Z</time>
      </trkpt>
      <trkpt lat="44.07532" lon="7.00032">
        <ele>1388</ele>
        <time>2020-08-22T08:45:53.000Z</time>
      </trkpt>
      <trkpt lat="44.07532" lon="7.00034">
        <ele>1388.1999511719</ele>
        <time>2020-08-22T08:45:54.000Z</time>
      </trkpt>
      <trkpt lat="44.07538" lon="7.00045">
        <ele>1389.1999511719</ele>
        <time>2020-08-22T08:46:01.000Z</time>
      </trkpt>
      <trkpt lat="44.07544" lon="7.00058">
        <ele>1390.1999511719</ele>
        <time>2020-08-22T08:46:08.000Z</time>
      </trkpt>
      <trkpt lat="44.07545" lon="7.00061">
        <ele>1390.5999755859</ele>
        <time>2020-08-22T08:46:10.000Z</time>
      </trkpt>
      <trkpt lat="44.07548" lon="7.00068">
        <ele>1391.4000244141</ele>
        <time>2020-08-22T08:46:14.000Z</time>
      </trkpt>
      <trkpt lat="44.07552" lon="7.00075">
        <ele>1392.4000244141</ele>
        <time>2020-08-22T08:46:18.000Z</time>
      </trkpt>
      <trkpt lat="44.07555" lon="7.00084">
        <ele>1393.5999755859</ele>
        <time>2020-08-22T08:46:24.000Z</time>
      </trkpt>
      <trkpt lat="44.07556" lon="7.00085">
        <ele>1393.8000488281</ele>
        <time>2020-08-22T08:46:25.000Z</time>
      </trkpt>
      <trkpt lat="44.07558" lon="7.00093">
        <ele>1394.8000488281</ele>
        <time>2020-08-22T08:46:30.000Z</time>
      </trkpt>
      <trkpt lat="44.07559" lon="7.00096">
        <ele>1395</ele>
        <time>2020-08-22T08:46:32.000Z</time>
      </trkpt>
      <trkpt lat="44.07565" lon="7.00108">
        <ele>1395.8000488281</ele>
        <time>2020-08-22T08:46:39.000Z</time>
      </trkpt>
      <trkpt lat="44.07571" lon="7.00119">
        <ele>1396.5999755859</ele>
        <time>2020-08-22T08:46:46.000Z</time>
      </trkpt>
      <trkpt lat="44.07573" lon="7.00121">
        <ele>1396.8000488281</ele>
        <time>2020-08-22T08:46:47.000Z</time>
      </trkpt>
      <trkpt lat="44.07579" lon="7.0013">
        <ele>1398</ele>
        <time>2020-08-22T08:46:52.000Z</time>
      </trkpt>
      <trkpt lat="44.0758" lon="7.00131">
        <ele>1398.1999511719</ele>
        <time>2020-08-22T08:46:53.000Z</time>
      </trkpt>
      <trkpt lat="44.07585" lon="7.00138">
        <ele>1399.1999511719</ele>
        <time>2020-08-22T08:46:57.000Z</time>
      </trkpt>
      <trkpt lat="44.07589" lon="7.00147">
        <ele>1399.8000488281</ele>
        <time>2020-08-22T08:47:02.000Z</time>
      </trkpt>
      <trkpt lat="44.07591" lon="7.00153">
        <ele>1400.4000244141</ele>
        <time>2020-08-22T08:47:05.000Z</time>
      </trkpt>
      <trkpt lat="44.07595" lon="7.00164">
        <ele>1401.1999511719</ele>
        <time>2020-08-22T08:47:11.000Z</time>
      </trkpt>
      <trkpt lat="44.07595" lon="7.00167">
        <ele>1401.4000244141</ele>
        <time>2020-08-22T08:47:12.000Z</time>
      </trkpt>
      <trkpt lat="44.076" lon="7.0018">
        <ele>1402.4000244141</ele>
        <time>2020-08-22T08:47:19.000Z</time>
      </trkpt>
      <trkpt lat="44.07601" lon="7.00183">
        <ele>1402.8000488281</ele>
        <time>2020-08-22T08:47:21.000Z</time>
      </trkpt>
      <trkpt lat="44.07603" lon="7.00191">
        <ele>1403.4000244141</ele>
        <time>2020-08-22T08:47:25.000Z</time>
      </trkpt>
      <trkpt lat="44.07605" lon="7.00196">
        <ele>1403.8000488281</ele>
        <time>2020-08-22T08:47:28.000Z</time>
      </trkpt>
      <trkpt lat="44.07607" lon="7.00202">
        <ele>1404.5999755859</ele>
        <time>2020-08-22T08:47:31.000Z</time>
      </trkpt>
      <trkpt lat="44.07609" lon="7.00206">
        <ele>1405.1999511719</ele>
        <time>2020-08-22T08:47:34.000Z</time>
      </trkpt>
      <trkpt lat="44.07611" lon="7.0021">
        <ele>1405.5999755859</ele>
        <time>2020-08-22T08:47:37.000Z</time>
      </trkpt>
      <trkpt lat="44.07614" lon="7.00214">
        <ele>1406.1999511719</ele>
        <time>2020-08-22T08:47:40.000Z</time>
      </trkpt>
      <trkpt lat="44.07619" lon="7.00219">
        <ele>1406.5999755859</ele>
        <time>2020-08-22T08:47:44.000Z</time>
      </trkpt>
      <trkpt lat="44.07623" lon="7.00218">
        <ele>1407.1999511719</ele>
        <time>2020-08-22T08:47:47.000Z</time>
      </trkpt>
      <trkpt lat="44.07631" lon="7.00218">
        <ele>1407.4000244141</ele>
        <time>2020-08-22T08:47:52.000Z</time>
      </trkpt>
      <trkpt lat="44.07632" lon="7.00218">
        <ele>1407.8000488281</ele>
        <time>2020-08-22T08:47:53.000Z</time>
      </trkpt>
      <trkpt lat="44.07637" lon="7.00225">
        <ele>1408.8000488281</ele>
        <time>2020-08-22T08:47:58.000Z</time>
      </trkpt>
      <trkpt lat="44.07642" lon="7.00236">
        <ele>1410</ele>
        <time>2020-08-22T08:48:05.000Z</time>
      </trkpt>
      <trkpt lat="44.07646" lon="7.00242">
        <ele>1411</ele>
        <time>2020-08-22T08:48:10.000Z</time>
      </trkpt>
      <trkpt lat="44.07646" lon="7.00243">
        <ele>1411.1999511719</ele>
        <time>2020-08-22T08:48:11.000Z</time>
      </trkpt>
      <trkpt lat="44.07649" lon="7.00248">
        <ele>1412</ele>
        <time>2020-08-22T08:48:15.000Z</time>
      </trkpt>
      <trkpt lat="44.07653" lon="7.00254">
        <ele>1413</ele>
        <time>2020-08-22T08:48:20.000Z</time>
      </trkpt>
      <trkpt lat="44.07655" lon="7.00256">
        <ele>1413.1999511719</ele>
        <time>2020-08-22T08:48:22.000Z</time>
      </trkpt>
      <trkpt lat="44.07663" lon="7.00266">
        <ele>1414.1999511719</ele>
        <time>2020-08-22T08:48:30.000Z</time>
      </trkpt>
      <trkpt lat="44.07668" lon="7.00271">
        <ele>1415.1999511719</ele>
        <time>2020-08-22T08:48:35.000Z</time>
      </trkpt>
      <trkpt lat="44.07668" lon="7.00273">
        <ele>1415.1999511719</ele>
        <time>2020-08-22T08:48:36.000Z</time>
      </trkpt>
      <trkpt lat="44.07669" lon="7.00275">
        <ele>1415.4000244141</ele>
        <time>2020-08-22T08:48:37.000Z</time>
      </trkpt>
      <trkpt lat="44.07673" lon="7.00278">
        <ele>1415.5999755859</ele>
        <time>2020-08-22T08:48:41.000Z</time>
      </trkpt>
      <trkpt lat="44.07674" lon="7.00279">
        <ele>1415.8000488281</ele>
        <time>2020-08-22T08:48:42.000Z</time>
      </trkpt>
      <trkpt lat="44.07674" lon="7.00279">
        <ele>1415.8000488281</ele>
        <time>2020-08-22T08:48:43.000Z</time>
      </trkpt>
      <trkpt lat="44.07678" lon="7.00283">
        <ele>1416.4000244141</ele>
        <time>2020-08-22T08:48:47.000Z</time>
      </trkpt>
      <trkpt lat="44.07678" lon="7.00285">
        <ele>1416.8000488281</ele>
        <time>2020-08-22T08:48:48.000Z</time>
      </trkpt>
      <trkpt lat="44.07682" lon="7.00288">
        <ele>1417.5999755859</ele>
        <time>2020-08-22T08:48:52.000Z</time>
      </trkpt>
      <trkpt lat="44.07687" lon="7.00292">
        <ele>1418</ele>
        <time>2020-08-22T08:48:56.000Z</time>
      </trkpt>
      <trkpt lat="44.07691" lon="7.00297">
        <ele>1418.8000488281</ele>
        <time>2020-08-22T08:49:00.000Z</time>
      </trkpt>
      <trkpt lat="44.07693" lon="7.003">
        <ele>1419.1999511719</ele>
        <time>2020-08-22T08:49:03.000Z</time>
      </trkpt>
      <trkpt lat="44.07696" lon="7.00299">
        <ele>1419.5999755859</ele>
        <time>2020-08-22T08:49:06.000Z</time>
      </trkpt>
      <trkpt lat="44.07697" lon="7.00296">
        <ele>1419.8000488281</ele>
        <time>2020-08-22T08:49:08.000Z</time>
      </trkpt>
      <trkpt lat="44.07697" lon="7.00294">
        <ele>1419.8000488281</ele>
        <time>2020-08-22T08:49:09.000Z</time>
      </trkpt>
      <trkpt lat="44.07698" lon="7.00293">
        <ele>1420.4000244141</ele>
        <time>2020-08-22T08:49:12.000Z</time>
      </trkpt>
      <trkpt lat="44.07697" lon="7.00291">
        <ele>1420.8000488281</ele>
        <time>2020-08-22T08:49:14.000Z</time>
      </trkpt>
      <trkpt lat="44.07698" lon="7.00287">
        <ele>1421.4000244141</ele>
        <time>2020-08-22T08:49:18.000Z</time>
      </trkpt>
      <trkpt lat="44.07698" lon="7.00286">
        <ele>1422</ele>
        <time>2020-08-22T08:49:21.000Z</time>
      </trkpt>
      <trkpt lat="44.07698" lon="7.00284">
        <ele>1422.4000244141</ele>
        <time>2020-08-22T08:49:24.000Z</time>
      </trkpt>
      <trkpt lat="44.07695" lon="7.00276">
        <ele>1422.5999755859</ele>
        <time>2020-08-22T08:49:29.000Z</time>
      </trkpt>
      <trkpt lat="44.07695" lon="7.00273">
        <ele>1423</ele>
        <time>2020-08-22T08:49:31.000Z</time>
      </trkpt>
      <trkpt lat="44.07693" lon="7.00267">
        <ele>1424</ele>
        <time>2020-08-22T08:49:35.000Z</time>
      </trkpt>
      <trkpt lat="44.07693" lon="7.00266">
        <ele>1424.1999511719</ele>
        <time>2020-08-22T08:49:36.000Z</time>
      </trkpt>
      <trkpt lat="44.07693" lon="7.00262">
        <ele>1424.5999755859</ele>
        <time>2020-08-22T08:49:38.000Z</time>
      </trkpt>
      <trkpt lat="44.07692" lon="7.0026">
        <ele>1425</ele>
        <time>2020-08-22T08:49:40.000Z</time>
      </trkpt>
      <trkpt lat="44.07692" lon="7.00259">
        <ele>1425.1999511719</ele>
        <time>2020-08-22T08:49:41.000Z</time>
      </trkpt>
      <trkpt lat="44.07692" lon="7.00255">
        <ele>1426</ele>
        <time>2020-08-22T08:49:44.000Z</time>
      </trkpt>
      <trkpt lat="44.07692" lon="7.00253">
        <ele>1426.1999511719</ele>
        <time>2020-08-22T08:49:45.000Z</time>
      </trkpt>
      <trkpt lat="44.07692" lon="7.00252">
        <ele>1426.4000244141</ele>
        <time>2020-08-22T08:49:46.000Z</time>
      </trkpt>
      <trkpt lat="44.07691" lon="7.00251">
        <ele>1427.1999511719</ele>
        <time>2020-08-22T08:49:50.000Z</time>
      </trkpt>
      <trkpt lat="44.07691" lon="7.00249">
        <ele>1427.1999511719</ele>
        <time>2020-08-22T08:49:52.000Z</time>
      </trkpt>
      <trkpt lat="44.07693" lon="7.00244">
        <ele>1428</ele>
        <time>2020-08-22T08:49:58.000Z</time>
      </trkpt>
      <trkpt lat="44.07693" lon="7.00242">
        <ele>1428.4000244141</ele>
        <time>2020-08-22T08:50:00.000Z</time>
      </trkpt>
      <trkpt lat="44.07694" lon="7.00236">
        <ele>1429.4000244141</ele>
        <time>2020-08-22T08:50:06.000Z</time>
      </trkpt>
      <trkpt lat="44.07694" lon="7.00234">
        <ele>1429.5999755859</ele>
        <time>2020-08-22T08:50:07.000Z</time>
      </trkpt>
      <trkpt lat="44.07694" lon="7.00229">
        <ele>1430.5999755859</ele>
        <time>2020-08-22T08:50:12.000Z</time>
      </trkpt>
      <trkpt lat="44.07694" lon="7.00225">
        <ele>1431.4000244141</ele>
        <time>2020-08-22T08:50:16.000Z</time>
      </trkpt>
      <trkpt lat="44.07694" lon="7.00223">
        <ele>1431.5999755859</ele>
        <time>2020-08-22T08:50:17.000Z</time>
      </trkpt>
      <trkpt lat="44.07693" lon="7.0022">
        <ele>1432.1999511719</ele>
        <time>2020-08-22T08:50:20.000Z</time>
      </trkpt>
      <trkpt lat="44.07694" lon="7.00216">
        <ele>1432.8000488281</ele>
        <time>2020-08-22T08:50:23.000Z</time>
      </trkpt>
      <trkpt lat="44.07693" lon="7.00208">
        <ele>1433.8000488281</ele>
        <time>2020-08-22T08:50:30.000Z</time>
      </trkpt>
      <trkpt lat="44.07694" lon="7.00206">
        <ele>1434.1999511719</ele>
        <time>2020-08-22T08:50:32.000Z</time>
      </trkpt>
      <trkpt lat="44.07693" lon="7.00202">
        <ele>1435</ele>
        <time>2020-08-22T08:50:37.000Z</time>
      </trkpt>
      <trkpt lat="44.07693" lon="7.00201">
        <ele>1435.1999511719</ele>
        <time>2020-08-22T08:50:38.000Z</time>
      </trkpt>
      <trkpt lat="44.07693" lon="7.00193">
        <ele>1436.1999511719</ele>
        <time>2020-08-22T08:50:45.000Z</time>
      </trkpt>
      <trkpt lat="44.07693" lon="7.00191">
        <ele>1436.4000244141</ele>
        <time>2020-08-22T08:50:47.000Z</time>
      </trkpt>
      <trkpt lat="44.07693" lon="7.00187">
        <ele>1437.1999511719</ele>
        <time>2020-08-22T08:50:51.000Z</time>
      </trkpt>
      <trkpt lat="44.07693" lon="7.00182">
        <ele>1437.8000488281</ele>
        <time>2020-08-22T08:50:55.000Z</time>
      </trkpt>
      <trkpt lat="44.07694" lon="7.00179">
        <ele>1438.1999511719</ele>
        <time>2020-08-22T08:50:58.000Z</time>
      </trkpt>
      <trkpt lat="44.07694" lon="7.00174">
        <ele>1439</ele>
        <time>2020-08-22T08:51:02.000Z</time>
      </trkpt>
      <trkpt lat="44.07694" lon="7.00173">
        <ele>1439.1999511719</ele>
        <time>2020-08-22T08:51:03.000Z</time>
      </trkpt>
      <trkpt lat="44.07694" lon="7.00168">
        <ele>1440.1999511719</ele>
        <time>2020-08-22T08:51:08.000Z</time>
      </trkpt>
      <trkpt lat="44.07694" lon="7.00169">
        <ele>1440.4000244141</ele>
        <time>2020-08-22T08:51:09.000Z</time>
      </trkpt>
      <trkpt lat="44.07694" lon="7.00162">
        <ele>1441.1999511719</ele>
        <time>2020-08-22T08:51:15.000Z</time>
      </trkpt>
      <trkpt lat="44.07694" lon="7.00159">
        <ele>1441.8000488281</ele>
        <time>2020-08-22T08:51:18.000Z</time>
      </trkpt>
      <trkpt lat="44.07694" lon="7.00156">
        <ele>1442.4000244141</ele>
        <time>2020-08-22T08:51:21.000Z</time>
      </trkpt>
      <trkpt lat="44.07695" lon="7.00151">
        <ele>1443.4000244141</ele>
        <time>2020-08-22T08:51:26.000Z</time>
      </trkpt>
      <trkpt lat="44.07695" lon="7.0015">
        <ele>1443.5999755859</ele>
        <time>2020-08-22T08:51:27.000Z</time>
      </trkpt>
      <trkpt lat="44.07695" lon="7.00145">
        <ele>1444.5999755859</ele>
        <time>2020-08-22T08:51:33.000Z</time>
      </trkpt>
      <trkpt lat="44.07696" lon="7.00144">
        <ele>1444.8000488281</ele>
        <time>2020-08-22T08:51:35.000Z</time>
      </trkpt>
      <trkpt lat="44.07697" lon="7.0014">
        <ele>1445.5999755859</ele>
        <time>2020-08-22T08:51:40.000Z</time>
      </trkpt>
      <trkpt lat="44.077" lon="7.00139">
        <ele>1446.1999511719</ele>
        <time>2020-08-22T08:51:44.000Z</time>
      </trkpt>
      <trkpt lat="44.07701" lon="7.00137">
        <ele>1446.8000488281</ele>
        <time>2020-08-22T08:51:47.000Z</time>
      </trkpt>
      <trkpt lat="44.07701" lon="7.00134">
        <ele>1447.4000244141</ele>
        <time>2020-08-22T08:51:51.000Z</time>
      </trkpt>
      <trkpt lat="44.07701" lon="7.00133">
        <ele>1447.8000488281</ele>
        <time>2020-08-22T08:51:53.000Z</time>
      </trkpt>
      <trkpt lat="44.077" lon="7.00128">
        <ele>1448.8000488281</ele>
        <time>2020-08-22T08:51:59.000Z</time>
      </trkpt>
      <trkpt lat="44.07699" lon="7.00123">
        <ele>1449.8000488281</ele>
        <time>2020-08-22T08:52:05.000Z</time>
      </trkpt>
      <trkpt lat="44.07699" lon="7.00119">
        <ele>1450.4000244141</ele>
        <time>2020-08-22T08:52:09.000Z</time>
      </trkpt>
      <trkpt lat="44.07699" lon="7.00115">
        <ele>1451</ele>
        <time>2020-08-22T08:52:13.000Z</time>
      </trkpt>
      <trkpt lat="44.07698" lon="7.0011">
        <ele>1452</ele>
        <time>2020-08-22T08:52:18.000Z</time>
      </trkpt>
      <trkpt lat="44.07698" lon="7.00105">
        <ele>1453</ele>
        <time>2020-08-22T08:52:23.000Z</time>
      </trkpt>
      <trkpt lat="44.07698" lon="7.001">
        <ele>1453.5999755859</ele>
        <time>2020-08-22T08:52:27.000Z</time>
      </trkpt>
      <trkpt lat="44.07698" lon="7.00097">
        <ele>1454.1999511719</ele>
        <time>2020-08-22T08:52:30.000Z</time>
      </trkpt>
      <trkpt lat="44.07697" lon="7.00092">
        <ele>1455.4000244141</ele>
        <time>2020-08-22T08:52:36.000Z</time>
      </trkpt>
      <trkpt lat="44.07697" lon="7.00091">
        <ele>1455.5999755859</ele>
        <time>2020-08-22T08:52:37.000Z</time>
      </trkpt>
      <trkpt lat="44.07697" lon="7.00086">
        <ele>1456.4000244141</ele>
        <time>2020-08-22T08:52:42.000Z</time>
      </trkpt>
      <trkpt lat="44.07697" lon="7.00082">
        <ele>1457.4000244141</ele>
        <time>2020-08-22T08:52:47.000Z</time>
      </trkpt>
      <trkpt lat="44.07697" lon="7.00081">
        <ele>1457.5999755859</ele>
        <time>2020-08-22T08:52:48.000Z</time>
      </trkpt>
      <trkpt lat="44.07696" lon="7.00075">
        <ele>1458.5999755859</ele>
        <time>2020-08-22T08:52:54.000Z</time>
      </trkpt>
      <trkpt lat="44.07696" lon="7.00073">
        <ele>1459</ele>
        <time>2020-08-22T08:52:56.000Z</time>
      </trkpt>
      <trkpt lat="44.07695" lon="7.00068">
        <ele>1459.5999755859</ele>
        <time>2020-08-22T08:53:01.000Z</time>
      </trkpt>
      <trkpt lat="44.07695" lon="7.00066">
        <ele>1460</ele>
        <time>2020-08-22T08:53:03.000Z</time>
      </trkpt>
      <trkpt lat="44.07694" lon="7.00061">
        <ele>1460.8000488281</ele>
        <time>2020-08-22T08:53:08.000Z</time>
      </trkpt>
      <trkpt lat="44.07694" lon="7.00057">
        <ele>1461.4000244141</ele>
        <time>2020-08-22T08:53:11.000Z</time>
      </trkpt>
      <trkpt lat="44.07693" lon="7.00054">
        <ele>1462</ele>
        <time>2020-08-22T08:53:14.000Z</time>
      </trkpt>
      <trkpt lat="44.07692" lon="7.0005">
        <ele>1462.4000244141</ele>
        <time>2020-08-22T08:53:18.000Z</time>
      </trkpt>
      <trkpt lat="44.07691" lon="7.00046">
        <ele>1463</ele>
        <time>2020-08-22T08:53:22.000Z</time>
      </trkpt>
      <trkpt lat="44.0769" lon="7.00043">
        <ele>1463.8000488281</ele>
        <time>2020-08-22T08:53:26.000Z</time>
      </trkpt>
      <trkpt lat="44.07689" lon="7.00041">
        <ele>1464</ele>
        <time>2020-08-22T08:53:28.000Z</time>
      </trkpt>
      <trkpt lat="44.07688" lon="7.00035">
        <ele>1464.8000488281</ele>
        <time>2020-08-22T08:53:33.000Z</time>
      </trkpt>
      <trkpt lat="44.07687" lon="7.00034">
        <ele>1465</ele>
        <time>2020-08-22T08:53:35.000Z</time>
      </trkpt>
      <trkpt lat="44.07685" lon="7.00026">
        <ele>1466.1999511719</ele>
        <time>2020-08-22T08:53:42.000Z</time>
      </trkpt>
      <trkpt lat="44.07682" lon="7.00021">
        <ele>1467.1999511719</ele>
        <time>2020-08-22T08:53:48.000Z</time>
      </trkpt>
      <trkpt lat="44.07682" lon="7.0002">
        <ele>1467.4000244141</ele>
        <time>2020-08-22T08:53:49.000Z</time>
      </trkpt>
      <trkpt lat="44.07679" lon="7.00016">
        <ele>1468.4000244141</ele>
        <time>2020-08-22T08:53:54.000Z</time>
      </trkpt>
      <trkpt lat="44.07677" lon="7.00012">
        <ele>1469</ele>
        <time>2020-08-22T08:53:58.000Z</time>
      </trkpt>
      <trkpt lat="44.07678" lon="7.00009">
        <ele>1469.4000244141</ele>
        <time>2020-08-22T08:54:01.000Z</time>
      </trkpt>
      <trkpt lat="44.07679" lon="7.00004">
        <ele>1470.5999755859</ele>
        <time>2020-08-22T08:54:06.000Z</time>
      </trkpt>
      <trkpt lat="44.07678" lon="6.99997">
        <ele>1471.5999755859</ele>
        <time>2020-08-22T08:54:12.000Z</time>
      </trkpt>
      <trkpt lat="44.07678" lon="6.99996">
        <ele>1471.8000488281</ele>
        <time>2020-08-22T08:54:13.000Z</time>
      </trkpt>
      <trkpt lat="44.07677" lon="6.99992">
        <ele>1472.5999755859</ele>
        <time>2020-08-22T08:54:17.000Z</time>
      </trkpt>
      <trkpt lat="44.07677" lon="6.99989">
        <ele>1473.1999511719</ele>
        <time>2020-08-22T08:54:20.000Z</time>
      </trkpt>
      <trkpt lat="44.07677" lon="6.99986">
        <ele>1473.5999755859</ele>
        <time>2020-08-22T08:54:23.000Z</time>
      </trkpt>
      <trkpt lat="44.07677" lon="6.9998">
        <ele>1474.8000488281</ele>
        <time>2020-08-22T08:54:29.000Z</time>
      </trkpt>
      <trkpt lat="44.07677" lon="6.99978">
        <ele>1475</ele>
        <time>2020-08-22T08:54:31.000Z</time>
      </trkpt>
      <trkpt lat="44.07676" lon="6.99974">
        <ele>1475.8000488281</ele>
        <time>2020-08-22T08:54:35.000Z</time>
      </trkpt>
      <trkpt lat="44.07676" lon="6.99968">
        <ele>1477</ele>
        <time>2020-08-22T08:54:41.000Z</time>
      </trkpt>
      <trkpt lat="44.07674" lon="6.99962">
        <ele>1478</ele>
        <time>2020-08-22T08:54:47.000Z</time>
      </trkpt>
      <trkpt lat="44.07674" lon="6.9996">
        <ele>1478.4000244141</ele>
        <time>2020-08-22T08:54:49.000Z</time>
      </trkpt>
      <trkpt lat="44.07673" lon="6.99956">
        <ele>1479</ele>
        <time>2020-08-22T08:54:53.000Z</time>
      </trkpt>
      <trkpt lat="44.07672" lon="6.99952">
        <ele>1480.1999511719</ele>
        <time>2020-08-22T08:54:58.000Z</time>
      </trkpt>
      <trkpt lat="44.07671" lon="6.99947">
        <ele>1481.1999511719</ele>
        <time>2020-08-22T08:55:04.000Z</time>
      </trkpt>
      <trkpt lat="44.07669" lon="6.99944">
        <ele>1481.8000488281</ele>
        <time>2020-08-22T08:55:07.000Z</time>
      </trkpt>
      <trkpt lat="44.07669" lon="6.99943">
        <ele>1482.4000244141</ele>
        <time>2020-08-22T08:55:09.000Z</time>
      </trkpt>
      <trkpt lat="44.0767" lon="6.9994">
        <ele>1482.8000488281</ele>
        <time>2020-08-22T08:55:13.000Z</time>
      </trkpt>
      <trkpt lat="44.07671" lon="6.99936">
        <ele>1483.4000244141</ele>
        <time>2020-08-22T08:55:17.000Z</time>
      </trkpt>
      <trkpt lat="44.07672" lon="6.99932">
        <ele>1484.1999511719</ele>
        <time>2020-08-22T08:55:21.000Z</time>
      </trkpt>
      <trkpt lat="44.07672" lon="6.99931">
        <ele>1484.5999755859</ele>
        <time>2020-08-22T08:55:23.000Z</time>
      </trkpt>
      <trkpt lat="44.07673" lon="6.99925">
        <ele>1485.5999755859</ele>
        <time>2020-08-22T08:55:29.000Z</time>
      </trkpt>
      <trkpt lat="44.07673" lon="6.99925">
        <ele>1485.8000488281</ele>
        <time>2020-08-22T08:55:30.000Z</time>
      </trkpt>
      <trkpt lat="44.07673" lon="6.99921">
        <ele>1486.8000488281</ele>
        <time>2020-08-22T08:55:34.000Z</time>
      </trkpt>
      <trkpt lat="44.07672" lon="6.99916">
        <ele>1487.8000488281</ele>
        <time>2020-08-22T08:55:39.000Z</time>
      </trkpt>
      <trkpt lat="44.07672" lon="6.99915">
        <ele>1488</ele>
        <time>2020-08-22T08:55:40.000Z</time>
      </trkpt>
      <trkpt lat="44.07671" lon="6.99911">
        <ele>1488.8000488281</ele>
        <time>2020-08-22T08:55:44.000Z</time>
      </trkpt>
      <trkpt lat="44.0767" lon="6.99906">
        <ele>1490</ele>
        <time>2020-08-22T08:55:49.000Z</time>
      </trkpt>
      <trkpt lat="44.07669" lon="6.99901">
        <ele>1491.1999511719</ele>
        <time>2020-08-22T08:55:55.000Z</time>
      </trkpt>
      <trkpt lat="44.07669" lon="6.99901">
        <ele>1491.4000244141</ele>
        <time>2020-08-22T08:55:57.000Z</time>
      </trkpt>
      <trkpt lat="44.07668" lon="6.99893">
        <ele>1491.5999755859</ele>
        <time>2020-08-22T08:56:03.000Z</time>
      </trkpt>
      <trkpt lat="44.07668" lon="6.99887">
        <ele>1492.4000244141</ele>
        <time>2020-08-22T08:56:07.000Z</time>
      </trkpt>
      <trkpt lat="44.07667" lon="6.99883">
        <ele>1493</ele>
        <time>2020-08-22T08:56:10.000Z</time>
      </trkpt>
      <trkpt lat="44.07668" lon="6.99879">
        <ele>1493.5999755859</ele>
        <time>2020-08-22T08:56:12.000Z</time>
      </trkpt>
      <trkpt lat="44.07666" lon="6.99873">
        <ele>1494.1999511719</ele>
        <time>2020-08-22T08:56:16.000Z</time>
      </trkpt>
      <trkpt lat="44.07666" lon="6.99868">
        <ele>1494.5999755859</ele>
        <time>2020-08-22T08:56:18.000Z</time>
      </trkpt>
      <trkpt lat="44.07667" lon="6.99857">
        <ele>1495.5999755859</ele>
        <time>2020-08-22T08:56:23.000Z</time>
      </trkpt>
      <trkpt lat="44.07667" lon="6.99855">
        <ele>1495.8000488281</ele>
        <time>2020-08-22T08:56:24.000Z</time>
      </trkpt>
      <trkpt lat="44.07669" lon="6.99851">
        <ele>1497</ele>
        <time>2020-08-22T08:56:27.000Z</time>
      </trkpt>
      <trkpt lat="44.07671" lon="6.99849">
        <ele>1497.4000244141</ele>
        <time>2020-08-22T08:56:29.000Z</time>
      </trkpt>
      <trkpt lat="44.07674" lon="6.99847">
        <ele>1498</ele>
        <time>2020-08-22T08:56:33.000Z</time>
      </trkpt>
      <trkpt lat="44.07676" lon="6.99848">
        <ele>1498.1999511719</ele>
        <time>2020-08-22T08:56:35.000Z</time>
      </trkpt>
      <trkpt lat="44.07674" lon="6.99847">
        <ele>1498.1999511719</ele>
        <time>2020-08-22T08:56:40.000Z</time>
      </trkpt>
      <trkpt lat="44.07669" lon="6.99848">
        <ele>1498.5999755859</ele>
        <time>2020-08-22T08:56:46.000Z</time>
      </trkpt>
      <trkpt lat="44.07668" lon="6.99848">
        <ele>1498.8000488281</ele>
        <time>2020-08-22T08:56:47.000Z</time>
      </trkpt>
      <trkpt lat="44.07667" lon="6.99846">
        <ele>1499</ele>
        <time>2020-08-22T08:56:52.000Z</time>
      </trkpt>
      <trkpt lat="44.07667" lon="6.99846">
        <ele>1498.8000488281</ele>
        <time>2020-08-22T08:57:04.000Z</time>
      </trkpt>
      <trkpt lat="44.07667" lon="6.99846">
        <ele>1499</ele>
        <time>2020-08-22T08:57:06.000Z</time>
      </trkpt>
      <trkpt lat="44.07667" lon="6.99845">
        <ele>1496.5999755859</ele>
        <time>2020-08-22T08:57:16.000Z</time>
      </trkpt>
      <trkpt lat="44.07667" lon="6.99845">
        <ele>1494.4000244141</ele>
        <time>2020-08-22T08:57:17.000Z</time>
      </trkpt>
      <trkpt lat="44.07667" lon="6.99845">
        <ele>1492.1999511719</ele>
        <time>2020-08-22T08:57:18.000Z</time>
      </trkpt>
      <trkpt lat="44.07667" lon="6.99845">
        <ele>1490.5999755859</ele>
        <time>2020-08-22T08:57:19.000Z</time>
      </trkpt>
      <trkpt lat="44.07667" lon="6.99845">
        <ele>1491.5999755859</ele>
        <time>2020-08-22T08:57:20.000Z</time>
      </trkpt>
      <trkpt lat="44.07667" lon="6.99845">
        <ele>1493.1999511719</ele>
        <time>2020-08-22T08:57:21.000Z</time>
      </trkpt>
      <trkpt lat="44.07667" lon="6.99845">
        <ele>1495.4000244141</ele>
        <time>2020-08-22T08:57:22.000Z</time>
      </trkpt>
      <trkpt lat="44.07667" lon="6.99845">
        <ele>1497.5999755859</ele>
        <time>2020-08-22T08:57:23.000Z</time>
      </trkpt>
      <trkpt lat="44.07667" lon="6.99845">
        <ele>1499.4000244141</ele>
        <time>2020-08-22T08:57:24.000Z</time>
      </trkpt>
      <trkpt lat="44.07667" lon="6.99845">
        <ele>1497.5999755859</ele>
        <time>2020-08-22T08:57:29.000Z</time>
      </trkpt>
      <trkpt lat="44.07667" lon="6.99845">
        <ele>1496</ele>
        <time>2020-08-22T08:57:30.000Z</time>
      </trkpt>
      <trkpt lat="44.07667" lon="6.99845">
        <ele>1493.8000488281</ele>
        <time>2020-08-22T08:57:31.000Z</time>
      </trkpt>
      <trkpt lat="44.07668" lon="6.99845">
        <ele>1491.8000488281</ele>
        <time>2020-08-22T08:57:32.000Z</time>
      </trkpt>
      <trkpt lat="44.07668" lon="6.99845">
        <ele>1490.5999755859</ele>
        <time>2020-08-22T08:57:33.000Z</time>
      </trkpt>
      <trkpt lat="44.07668" lon="6.99845">
        <ele>1491</ele>
        <time>2020-08-22T08:57:39.000Z</time>
      </trkpt>
      <trkpt lat="44.07669" lon="6.99844">
        <ele>1491.4000244141</ele>
        <time>2020-08-22T08:57:45.000Z</time>
      </trkpt>
      <trkpt lat="44.07669" lon="6.99844">
        <ele>1491.5999755859</ele>
        <time>2020-08-22T08:57:56.000Z</time>
      </trkpt>
      <trkpt lat="44.07669" lon="6.99844">
        <ele>1491.8000488281</ele>
        <time>2020-08-22T08:57:59.000Z</time>
      </trkpt>
      <trkpt lat="44.07668" lon="6.99844">
        <ele>1492.4000244141</ele>
        <time>2020-08-22T08:58:10.000Z</time>
      </trkpt>
      <trkpt lat="44.07668" lon="6.99844">
        <ele>1492.8000488281</ele>
        <time>2020-08-22T08:58:21.000Z</time>
      </trkpt>
      <trkpt lat="44.07668" lon="6.99844">
        <ele>1493</ele>
        <time>2020-08-22T08:58:24.000Z</time>
      </trkpt>
      <trkpt lat="44.07668" lon="6.99844">
        <ele>1494</ele>
        <time>2020-08-22T08:58:30.000Z</time>
      </trkpt>
      <trkpt lat="44.07668" lon="6.99844">
        <ele>1495</ele>
        <time>2020-08-22T08:58:35.000Z</time>
      </trkpt>
      <trkpt lat="44.07668" lon="6.99844">
        <ele>1495</ele>
        <time>2020-08-22T08:58:36.000Z</time>
      </trkpt>
      <trkpt lat="44.07668" lon="6.99844">
        <ele>1496</ele>
        <time>2020-08-22T08:58:42.000Z</time>
      </trkpt>
      <trkpt lat="44.07668" lon="6.99844">
        <ele>1496.5999755859</ele>
        <time>2020-08-22T08:58:47.000Z</time>
      </trkpt>
      <trkpt lat="44.07668" lon="6.99844">
        <ele>1497.1999511719</ele>
        <time>2020-08-22T08:58:52.000Z</time>
      </trkpt>
      <trkpt lat="44.07667" lon="6.99844">
        <ele>1498.1999511719</ele>
        <time>2020-08-22T08:58:58.000Z</time>
      </trkpt>
      <trkpt lat="44.07667" lon="6.99844">
        <ele>1498.5999755859</ele>
        <time>2020-08-22T08:59:03.000Z</time>
      </trkpt>
      <trkpt lat="44.07667" lon="6.99844">
        <ele>1499.1999511719</ele>
        <time>2020-08-22T08:59:12.000Z</time>
      </trkpt>
      <trkpt lat="44.07668" lon="6.99844">
        <ele>1499.4000244141</ele>
        <time>2020-08-22T08:59:18.000Z</time>
      </trkpt>
      <trkpt lat="44.07669" lon="6.99845">
        <ele>1499.5999755859</ele>
        <time>2020-08-22T08:59:26.000Z</time>
      </trkpt>
      <trkpt lat="44.07669" lon="6.99844">
        <ele>1499.1999511719</ele>
        <time>2020-08-22T08:59:33.000Z</time>
      </trkpt>
      <trkpt lat="44.07668" lon="6.99845">
        <ele>1499.5999755859</ele>
        <time>2020-08-22T08:59:41.000Z</time>
      </trkpt>
      <trkpt lat="44.07668" lon="6.99845">
        <ele>1499.4000244141</ele>
        <time>2020-08-22T08:59:47.000Z</time>
      </trkpt>
      <trkpt lat="44.07668" lon="6.99845">
        <ele>1499.5999755859</ele>
        <time>2020-08-22T08:59:56.000Z</time>
      </trkpt>
      <trkpt lat="44.07668" lon="6.99844">
        <ele>1499.8000488281</ele>
        <time>2020-08-22T09:00:05.000Z</time>
      </trkpt>
      <trkpt lat="44.07667" lon="6.99844">
        <ele>1499.8000488281</ele>
        <time>2020-08-22T09:00:12.000Z</time>
      </trkpt>
      <trkpt lat="44.07667" lon="6.99844">
        <ele>1499.8000488281</ele>
        <time>2020-08-22T09:00:24.000Z</time>
      </trkpt>
      <trkpt lat="44.07667" lon="6.99844">
        <ele>1500.8000488281</ele>
        <time>2020-08-22T09:00:25.000Z</time>
      </trkpt>
      <trkpt lat="44.07667" lon="6.99843">
        <ele>1499</ele>
        <time>2020-08-22T09:00:32.000Z</time>
      </trkpt>
      <trkpt lat="44.07667" lon="6.99843">
        <ele>1497.1999511719</ele>
        <time>2020-08-22T09:00:33.000Z</time>
      </trkpt>
      <trkpt lat="44.07667" lon="6.99843">
        <ele>1494.5999755859</ele>
        <time>2020-08-22T09:00:34.000Z</time>
      </trkpt>
      <trkpt lat="44.07667" lon="6.99843">
        <ele>1492.1999511719</ele>
        <time>2020-08-22T09:00:35.000Z</time>
      </trkpt>
      <trkpt lat="44.07667" lon="6.99843">
        <ele>1488.4000244141</ele>
        <time>2020-08-22T09:00:36.000Z</time>
      </trkpt>
      <trkpt lat="44.07667" lon="6.99843">
        <ele>1487</ele>
        <time>2020-08-22T09:00:37.000Z</time>
      </trkpt>
      <trkpt lat="44.07667" lon="6.99843">
        <ele>1488.1999511719</ele>
        <time>2020-08-22T09:00:39.000Z</time>
      </trkpt>
      <trkpt lat="44.07667" lon="6.99843">
        <ele>1489.4000244141</ele>
        <time>2020-08-22T09:00:41.000Z</time>
      </trkpt>
      <trkpt lat="44.07667" lon="6.99843">
        <ele>1488.1999511719</ele>
        <time>2020-08-22T09:00:43.000Z</time>
      </trkpt>
      <trkpt lat="44.07667" lon="6.99843">
        <ele>1489.4000244141</ele>
        <time>2020-08-22T09:00:45.000Z</time>
      </trkpt>
      <trkpt lat="44.07667" lon="6.99843">
        <ele>1488</ele>
        <time>2020-08-22T09:00:46.000Z</time>
      </trkpt>
      <trkpt lat="44.07667" lon="6.99843">
        <ele>1488.8000488281</ele>
        <time>2020-08-22T09:00:51.000Z</time>
      </trkpt>
      <trkpt lat="44.07667" lon="6.99843">
        <ele>1488.8000488281</ele>
        <time>2020-08-22T09:01:12.000Z</time>
      </trkpt>
      <trkpt lat="44.07667" lon="6.99843">
        <ele>1489</ele>
        <time>2020-08-22T09:01:16.000Z</time>
      </trkpt>
      <trkpt lat="44.07666" lon="6.99843">
        <ele>1489</ele>
        <time>2020-08-22T09:01:19.000Z</time>
      </trkpt>
      <trkpt lat="44.07666" lon="6.99843">
        <ele>1488.8000488281</ele>
        <time>2020-08-22T09:01:32.000Z</time>
      </trkpt>
      <trkpt lat="44.07666" lon="6.99843">
        <ele>1488</ele>
        <time>2020-08-22T09:01:45.000Z</time>
      </trkpt>
      <trkpt lat="44.07666" lon="6.99843">
        <ele>1488</ele>
        <time>2020-08-22T09:01:48.000Z</time>
      </trkpt>
      <trkpt lat="44.07666" lon="6.99843">
        <ele>1487.8000488281</ele>
        <time>2020-08-22T09:01:53.000Z</time>
      </trkpt>
      <trkpt lat="44.07667" lon="6.99843">
        <ele>1487.4000244141</ele>
        <time>2020-08-22T09:02:03.000Z</time>
      </trkpt>
      <trkpt lat="44.07668" lon="6.99843">
        <ele>1487.8000488281</ele>
        <time>2020-08-22T09:02:13.000Z</time>
      </trkpt>
      <trkpt lat="44.07668" lon="6.99843">
        <ele>1488.1999511719</ele>
        <time>2020-08-22T09:02:22.000Z</time>
      </trkpt>
      <trkpt lat="44.07668" lon="6.99843">
        <ele>1488.1999511719</ele>
        <time>2020-08-22T09:02:30.000Z</time>
      </trkpt>
      <trkpt lat="44.07669" lon="6.99843">
        <ele>1488.5999755859</ele>
        <time>2020-08-22T09:02:40.000Z</time>
      </trkpt>
      <trkpt lat="44.07674" lon="6.99845">
        <ele>1488.1999511719</ele>
        <time>2020-08-22T09:02:47.000Z</time>
      </trkpt>
      <trkpt lat="44.07674" lon="6.99845">
        <ele>1488.8000488281</ele>
        <time>2020-08-22T09:02:52.000Z</time>
      </trkpt>
      <trkpt lat="44.07674" lon="6.99845">
        <ele>1489</ele>
        <time>2020-08-22T09:02:53.000Z</time>
      </trkpt>
      <trkpt lat="44.07675" lon="6.99845">
        <ele>1489.8000488281</ele>
        <time>2020-08-22T09:02:58.000Z</time>
      </trkpt>
      <trkpt lat="44.07681" lon="6.99844">
        <ele>1490</ele>
        <time>2020-08-22T09:03:02.000Z</time>
      </trkpt>
      <trkpt lat="44.07684" lon="6.99845">
        <ele>1490.1999511719</ele>
        <time>2020-08-22T09:03:03.000Z</time>
      </trkpt>
      <trkpt lat="44.07697" lon="6.99845">
        <ele>1489.5999755859</ele>
        <time>2020-08-22T09:03:06.000Z</time>
      </trkpt>
      <trkpt lat="44.07702" lon="6.99847">
        <ele>1489.4000244141</ele>
        <time>2020-08-22T09:03:07.000Z</time>
      </trkpt>
      <trkpt lat="44.07704" lon="6.99849">
        <ele>1489</ele>
        <time>2020-08-22T09:03:08.000Z</time>
      </trkpt>
      <trkpt lat="44.07703" lon="6.99849">
        <ele>1488.4000244141</ele>
        <time>2020-08-22T09:03:09.000Z</time>
      </trkpt>
      <trkpt lat="44.07704" lon="6.99849">
        <ele>1487.8000488281</ele>
        <time>2020-08-22T09:03:11.000Z</time>
      </trkpt>
      <trkpt lat="44.07707" lon="6.99852">
        <ele>1487.4000244141</ele>
        <time>2020-08-22T09:03:13.000Z</time>
      </trkpt>
      <trkpt lat="44.07714" lon="6.99857">
        <ele>1487.5999755859</ele>
        <time>2020-08-22T09:03:15.000Z</time>
      </trkpt>
      <trkpt lat="44.07718" lon="6.99861">
        <ele>1487.5999755859</ele>
        <time>2020-08-22T09:03:16.000Z</time>
      </trkpt>
      <trkpt lat="44.07724" lon="6.99869">
        <ele>1487.1999511719</ele>
        <time>2020-08-22T09:03:19.000Z</time>
      </trkpt>
      <trkpt lat="44.07732" lon="6.9988">
        <ele>1488.8000488281</ele>
        <time>2020-08-22T09:03:25.000Z</time>
      </trkpt>
      <trkpt lat="44.07735" lon="6.99885">
        <ele>1490</ele>
        <time>2020-08-22T09:03:28.000Z</time>
      </trkpt>
      <trkpt lat="44.0774" lon="6.99893">
        <ele>1491.1999511719</ele>
        <time>2020-08-22T09:03:32.000Z</time>
      </trkpt>
      <trkpt lat="44.07746" lon="6.99899">
        <ele>1492.1999511719</ele>
        <time>2020-08-22T09:03:36.000Z</time>
      </trkpt>
      <trkpt lat="44.07754" lon="6.99905">
        <ele>1493</ele>
        <time>2020-08-22T09:03:40.000Z</time>
      </trkpt>
      <trkpt lat="44.07758" lon="6.99908">
        <ele>1493.1999511719</ele>
        <time>2020-08-22T09:03:42.000Z</time>
      </trkpt>
      <trkpt lat="44.07767" lon="6.99913">
        <ele>1494.1999511719</ele>
        <time>2020-08-22T09:03:47.000Z</time>
      </trkpt>
      <trkpt lat="44.07769" lon="6.99914">
        <ele>1494.4000244141</ele>
        <time>2020-08-22T09:03:48.000Z</time>
      </trkpt>
      <trkpt lat="44.07775" lon="6.99917">
        <ele>1495.5999755859</ele>
        <time>2020-08-22T09:03:53.000Z</time>
      </trkpt>
      <trkpt lat="44.0778" lon="6.99919">
        <ele>1497</ele>
        <time>2020-08-22T09:03:56.000Z</time>
      </trkpt>
      <trkpt lat="44.07782" lon="6.99923">
        <ele>1498.4000244141</ele>
        <time>2020-08-22T09:03:59.000Z</time>
      </trkpt>
      <trkpt lat="44.0778" lon="6.99926">
        <ele>1499.4000244141</ele>
        <time>2020-08-22T09:04:02.000Z</time>
      </trkpt>
      <trkpt lat="44.07779" lon="6.99926">
        <ele>1499.5999755859</ele>
        <time>2020-08-22T09:04:03.000Z</time>
      </trkpt>
      <trkpt lat="44.07777" lon="6.99926">
        <ele>1499.5999755859</ele>
        <time>2020-08-22T09:04:04.000Z</time>
      </trkpt>
      <trkpt lat="44.07766" lon="6.99928">
        <ele>1499.8000488281</ele>
        <time>2020-08-22T09:04:10.000Z</time>
      </trkpt>
      <trkpt lat="44.07753" lon="6.99927">
        <ele>1500.4000244141</ele>
        <time>2020-08-22T09:04:18.000Z</time>
      </trkpt>
      <trkpt lat="44.07752" lon="6.99928">
        <ele>1500.5999755859</ele>
        <time>2020-08-22T09:04:19.000Z</time>
      </trkpt>
      <trkpt lat="44.07752" lon="6.99933">
        <ele>1500.8000488281</ele>
        <time>2020-08-22T09:04:22.000Z</time>
      </trkpt>
      <trkpt lat="44.0776" lon="6.99936">
        <ele>1501.5999755859</ele>
        <time>2020-08-22T09:04:26.000Z</time>
      </trkpt>
      <trkpt lat="44.07762" lon="6.99936">
        <ele>1501.8000488281</ele>
        <time>2020-08-22T09:04:27.000Z</time>
      </trkpt>
      <trkpt lat="44.07766" lon="6.99937">
        <ele>1502.5999755859</ele>
        <time>2020-08-22T09:04:30.000Z</time>
      </trkpt>
      <trkpt lat="44.07772" lon="6.99938">
        <ele>1503.4000244141</ele>
        <time>2020-08-22T09:04:34.000Z</time>
      </trkpt>
      <trkpt lat="44.07774" lon="6.99938">
        <ele>1503.5999755859</ele>
        <time>2020-08-22T09:04:35.000Z</time>
      </trkpt>
      <trkpt lat="44.07789" lon="6.99938">
        <ele>1504.4000244141</ele>
        <time>2020-08-22T09:04:43.000Z</time>
      </trkpt>
      <trkpt lat="44.07793" lon="6.99939">
        <ele>1504.5999755859</ele>
        <time>2020-08-22T09:04:45.000Z</time>
      </trkpt>
      <trkpt lat="44.07804" lon="6.9994">
        <ele>1505.5999755859</ele>
        <time>2020-08-22T09:04:51.000Z</time>
      </trkpt>
      <trkpt lat="44.07806" lon="6.99941">
        <ele>1505.8000488281</ele>
        <time>2020-08-22T09:04:52.000Z</time>
      </trkpt>
      <trkpt lat="44.07815" lon="6.99943">
        <ele>1507</ele>
        <time>2020-08-22T09:04:57.000Z</time>
      </trkpt>
      <trkpt lat="44.07818" lon="6.99944">
        <ele>1507.4000244141</ele>
        <time>2020-08-22T09:04:59.000Z</time>
      </trkpt>
      <trkpt lat="44.07825" lon="6.99948">
        <ele>1508</ele>
        <time>2020-08-22T09:05:03.000Z</time>
      </trkpt>
      <trkpt lat="44.0783" lon="6.99949">
        <ele>1508.1999511719</ele>
        <time>2020-08-22T09:05:06.000Z</time>
      </trkpt>
      <trkpt lat="44.07841" lon="6.99953">
        <ele>1509</ele>
        <time>2020-08-22T09:05:13.000Z</time>
      </trkpt>
      <trkpt lat="44.07842" lon="6.99953">
        <ele>1509.1999511719</ele>
        <time>2020-08-22T09:05:14.000Z</time>
      </trkpt>
      <trkpt lat="44.07854" lon="6.99959">
        <ele>1510.1999511719</ele>
        <time>2020-08-22T09:05:22.000Z</time>
      </trkpt>
      <trkpt lat="44.07865" lon="6.99962">
        <ele>1511.1999511719</ele>
        <time>2020-08-22T09:05:29.000Z</time>
      </trkpt>
      <trkpt lat="44.07869" lon="6.99964">
        <ele>1511.5999755859</ele>
        <time>2020-08-22T09:05:32.000Z</time>
      </trkpt>
      <trkpt lat="44.07879" lon="6.99967">
        <ele>1512.1999511719</ele>
        <time>2020-08-22T09:05:39.000Z</time>
      </trkpt>
      <trkpt lat="44.07881" lon="6.99967">
        <ele>1512.4000244141</ele>
        <time>2020-08-22T09:05:40.000Z</time>
      </trkpt>
      <trkpt lat="44.07892" lon="6.99967">
        <ele>1513.4000244141</ele>
        <time>2020-08-22T09:05:47.000Z</time>
      </trkpt>
      <trkpt lat="44.07894" lon="6.99967">
        <ele>1513.5999755859</ele>
        <time>2020-08-22T09:05:48.000Z</time>
      </trkpt>
      <trkpt lat="44.07909" lon="6.99967">
        <ele>1514.5999755859</ele>
        <time>2020-08-22T09:05:57.000Z</time>
      </trkpt>
      <trkpt lat="44.07911" lon="6.99967">
        <ele>1514.8000488281</ele>
        <time>2020-08-22T09:05:58.000Z</time>
      </trkpt>
      <trkpt lat="44.07925" lon="6.99967">
        <ele>1515.4000244141</ele>
        <time>2020-08-22T09:06:06.000Z</time>
      </trkpt>
      <trkpt lat="44.07929" lon="6.99967">
        <ele>1515.5999755859</ele>
        <time>2020-08-22T09:06:09.000Z</time>
      </trkpt>
      <trkpt lat="44.07938" lon="6.99968">
        <ele>1516.4000244141</ele>
        <time>2020-08-22T09:06:14.000Z</time>
      </trkpt>
      <trkpt lat="44.07946" lon="6.99968">
        <ele>1516.5999755859</ele>
        <time>2020-08-22T09:06:19.000Z</time>
      </trkpt>
      <trkpt lat="44.07956" lon="6.99968">
        <ele>1517</ele>
        <time>2020-08-22T09:06:25.000Z</time>
      </trkpt>
      <trkpt lat="44.07969" lon="6.9997">
        <ele>1517.5999755859</ele>
        <time>2020-08-22T09:06:33.000Z</time>
      </trkpt>
      <trkpt lat="44.07971" lon="6.99971">
        <ele>1517.8000488281</ele>
        <time>2020-08-22T09:06:34.000Z</time>
      </trkpt>
      <trkpt lat="44.0798" lon="6.99972">
        <ele>1518.5999755859</ele>
        <time>2020-08-22T09:06:40.000Z</time>
      </trkpt>
      <trkpt lat="44.07985" lon="6.99973">
        <ele>1518.8000488281</ele>
        <time>2020-08-22T09:06:43.000Z</time>
      </trkpt>
      <trkpt lat="44.07992" lon="6.99975">
        <ele>1519.4000244141</ele>
        <time>2020-08-22T09:06:47.000Z</time>
      </trkpt>
      <trkpt lat="44.08" lon="6.99979">
        <ele>1520</ele>
        <time>2020-08-22T09:06:52.000Z</time>
      </trkpt>
      <trkpt lat="44.08005" lon="6.99982">
        <ele>1520.5999755859</ele>
        <time>2020-08-22T09:06:55.000Z</time>
      </trkpt>
      <trkpt lat="44.08008" lon="6.99984">
        <ele>1521</ele>
        <time>2020-08-22T09:06:57.000Z</time>
      </trkpt>
      <trkpt lat="44.08021" lon="6.99993">
        <ele>1521.5999755859</ele>
        <time>2020-08-22T09:07:05.000Z</time>
      </trkpt>
      <trkpt lat="44.08028" lon="7.00001">
        <ele>1522.1999511719</ele>
        <time>2020-08-22T09:07:10.000Z</time>
      </trkpt>
      <trkpt lat="44.08034" lon="7.00006">
        <ele>1522.5999755859</ele>
        <time>2020-08-22T09:07:14.000Z</time>
      </trkpt>
      <trkpt lat="44.0804" lon="7.00011">
        <ele>1523.1999511719</ele>
        <time>2020-08-22T09:07:18.000Z</time>
      </trkpt>
      <trkpt lat="44.08047" lon="7.00016">
        <ele>1524.1999511719</ele>
        <time>2020-08-22T09:07:23.000Z</time>
      </trkpt>
      <trkpt lat="44.08048" lon="7.00017">
        <ele>1524.4000244141</ele>
        <time>2020-08-22T09:07:24.000Z</time>
      </trkpt>
      <trkpt lat="44.08058" lon="7.00024">
        <ele>1525.4000244141</ele>
        <time>2020-08-22T09:07:31.000Z</time>
      </trkpt>
      <trkpt lat="44.0806" lon="7.00025">
        <ele>1525.4000244141</ele>
        <time>2020-08-22T09:07:32.000Z</time>
      </trkpt>
      <trkpt lat="44.08074" lon="7.00035">
        <ele>1526</ele>
        <time>2020-08-22T09:07:41.000Z</time>
      </trkpt>
      <trkpt lat="44.0808" lon="7.00039">
        <ele>1526.5999755859</ele>
        <time>2020-08-22T09:07:45.000Z</time>
      </trkpt>
      <trkpt lat="44.08089" lon="7.00044">
        <ele>1527.1999511719</ele>
        <time>2020-08-22T09:07:50.000Z</time>
      </trkpt>
      <trkpt lat="44.08105" lon="7.00052">
        <ele>1527.5999755859</ele>
        <time>2020-08-22T09:07:59.000Z</time>
      </trkpt>
      <trkpt lat="44.08123" lon="7.00061">
        <ele>1528</ele>
        <time>2020-08-22T09:08:09.000Z</time>
      </trkpt>
      <trkpt lat="44.08132" lon="7.00067">
        <ele>1528.5999755859</ele>
        <time>2020-08-22T09:08:14.000Z</time>
      </trkpt>
      <trkpt lat="44.08137" lon="7.00071">
        <ele>1528.8000488281</ele>
        <time>2020-08-22T09:08:17.000Z</time>
      </trkpt>
      <trkpt lat="44.08146" lon="7.00078">
        <ele>1529.5999755859</ele>
        <time>2020-08-22T09:08:23.000Z</time>
      </trkpt>
      <trkpt lat="44.08151" lon="7.0008">
        <ele>1530.1999511719</ele>
        <time>2020-08-22T09:08:26.000Z</time>
      </trkpt>
      <trkpt lat="44.08158" lon="7.00081">
        <ele>1530.5999755859</ele>
        <time>2020-08-22T09:08:30.000Z</time>
      </trkpt>
      <trkpt lat="44.08162" lon="7.00079">
        <ele>1530.8000488281</ele>
        <time>2020-08-22T09:08:32.000Z</time>
      </trkpt>
      <trkpt lat="44.0817" lon="7.00073">
        <ele>1531.5999755859</ele>
        <time>2020-08-22T09:08:37.000Z</time>
      </trkpt>
      <trkpt lat="44.08173" lon="7.0007">
        <ele>1532</ele>
        <time>2020-08-22T09:08:39.000Z</time>
      </trkpt>
      <trkpt lat="44.08183" lon="7.00062">
        <ele>1532.8000488281</ele>
        <time>2020-08-22T09:08:45.000Z</time>
      </trkpt>
      <trkpt lat="44.08188" lon="7.00058">
        <ele>1533</ele>
        <time>2020-08-22T09:08:48.000Z</time>
      </trkpt>
      <trkpt lat="44.08202" lon="7.00056">
        <ele>1533.1999511719</ele>
        <time>2020-08-22T09:08:54.000Z</time>
      </trkpt>
      <trkpt lat="44.08209" lon="7.00061">
        <ele>1533.5999755859</ele>
        <time>2020-08-22T09:08:59.000Z</time>
      </trkpt>
      <trkpt lat="44.0821" lon="7.00063">
        <ele>1533.8000488281</ele>
        <time>2020-08-22T09:09:00.000Z</time>
      </trkpt>
      <trkpt lat="44.08207" lon="7.0007">
        <ele>1534.4000244141</ele>
        <time>2020-08-22T09:09:04.000Z</time>
      </trkpt>
      <trkpt lat="44.08203" lon="7.00074">
        <ele>1535</ele>
        <time>2020-08-22T09:09:07.000Z</time>
      </trkpt>
      <trkpt lat="44.08199" lon="7.00076">
        <ele>1535.4000244141</ele>
        <time>2020-08-22T09:09:10.000Z</time>
      </trkpt>
      <trkpt lat="44.08193" lon="7.00079">
        <ele>1536.1999511719</ele>
        <time>2020-08-22T09:09:14.000Z</time>
      </trkpt>
      <trkpt lat="44.08188" lon="7.00083">
        <ele>1536.8000488281</ele>
        <time>2020-08-22T09:09:18.000Z</time>
      </trkpt>
      <trkpt lat="44.08181" lon="7.00089">
        <ele>1537.1999511719</ele>
        <time>2020-08-22T09:09:22.000Z</time>
      </trkpt>
      <trkpt lat="44.08178" lon="7.00097">
        <ele>1537.1999511719</ele>
        <time>2020-08-22T09:09:25.000Z</time>
      </trkpt>
      <trkpt lat="44.08171" lon="7.00107">
        <ele>1537.5999755859</ele>
        <time>2020-08-22T09:09:31.000Z</time>
      </trkpt>
      <trkpt lat="44.08158" lon="7.00109">
        <ele>1538</ele>
        <time>2020-08-22T09:09:37.000Z</time>
      </trkpt>
      <trkpt lat="44.08154" lon="7.00108">
        <ele>1538.1999511719</ele>
        <time>2020-08-22T09:09:39.000Z</time>
      </trkpt>
      <trkpt lat="44.0814" lon="7.00104">
        <ele>1538.8000488281</ele>
        <time>2020-08-22T09:09:46.000Z</time>
      </trkpt>
      <trkpt lat="44.0813" lon="7.00101">
        <ele>1539.4000244141</ele>
        <time>2020-08-22T09:09:51.000Z</time>
      </trkpt>
      <trkpt lat="44.08122" lon="7.00099">
        <ele>1540.1999511719</ele>
        <time>2020-08-22T09:09:55.000Z</time>
      </trkpt>
      <trkpt lat="44.08117" lon="7.00097">
        <ele>1540.5999755859</ele>
        <time>2020-08-22T09:09:57.000Z</time>
      </trkpt>
      <trkpt lat="44.08107" lon="7.00094">
        <ele>1541.1999511719</ele>
        <time>2020-08-22T09:10:02.000Z</time>
      </trkpt>
      <trkpt lat="44.08093" lon="7.00093">
        <ele>1541.5999755859</ele>
        <time>2020-08-22T09:10:08.000Z</time>
      </trkpt>
      <trkpt lat="44.08082" lon="7.00091">
        <ele>1542.8000488281</ele>
        <time>2020-08-22T09:10:14.000Z</time>
      </trkpt>
      <trkpt lat="44.08078" lon="7.00089">
        <ele>1543</ele>
        <time>2020-08-22T09:10:16.000Z</time>
      </trkpt>
      <trkpt lat="44.08066" lon="7.00085">
        <ele>1543.5999755859</ele>
        <time>2020-08-22T09:10:22.000Z</time>
      </trkpt>
      <trkpt lat="44.0806" lon="7.00083">
        <ele>1543.8000488281</ele>
        <time>2020-08-22T09:10:25.000Z</time>
      </trkpt>
      <trkpt lat="44.08049" lon="7.0008">
        <ele>1544.5999755859</ele>
        <time>2020-08-22T09:10:30.000Z</time>
      </trkpt>
      <trkpt lat="44.08045" lon="7.00079">
        <ele>1544.8000488281</ele>
        <time>2020-08-22T09:10:32.000Z</time>
      </trkpt>
      <trkpt lat="44.08031" lon="7.00076">
        <ele>1545.5999755859</ele>
        <time>2020-08-22T09:10:39.000Z</time>
      </trkpt>
      <trkpt lat="44.08027" lon="7.00076">
        <ele>1546</ele>
        <time>2020-08-22T09:10:41.000Z</time>
      </trkpt>
      <trkpt lat="44.08016" lon="7.00073">
        <ele>1547</ele>
        <time>2020-08-22T09:10:47.000Z</time>
      </trkpt>
      <trkpt lat="44.08012" lon="7.00072">
        <ele>1547.4000244141</ele>
        <time>2020-08-22T09:10:49.000Z</time>
      </trkpt>
      <trkpt lat="44.08007" lon="7.00071">
        <ele>1548</ele>
        <time>2020-08-22T09:10:52.000Z</time>
      </trkpt>
      <trkpt lat="44.07996" lon="7.0007">
        <ele>1549</ele>
        <time>2020-08-22T09:10:58.000Z</time>
      </trkpt>
      <trkpt lat="44.07984" lon="7.00071">
        <ele>1550.1999511719</ele>
        <time>2020-08-22T09:11:04.000Z</time>
      </trkpt>
      <trkpt lat="44.07982" lon="7.00071">
        <ele>1550.1999511719</ele>
        <time>2020-08-22T09:11:05.000Z</time>
      </trkpt>
      <trkpt lat="44.07972" lon="7.00073">
        <ele>1551.1999511719</ele>
        <time>2020-08-22T09:11:10.000Z</time>
      </trkpt>
      <trkpt lat="44.07967" lon="7.00076">
        <ele>1551.4000244141</ele>
        <time>2020-08-22T09:11:13.000Z</time>
      </trkpt>
      <trkpt lat="44.07961" lon="7.0008">
        <ele>1552.1999511719</ele>
        <time>2020-08-22T09:11:17.000Z</time>
      </trkpt>
      <trkpt lat="44.07954" lon="7.00084">
        <ele>1553.1999511719</ele>
        <time>2020-08-22T09:11:21.000Z</time>
      </trkpt>
      <trkpt lat="44.07942" lon="7.00089">
        <ele>1554.4000244141</ele>
        <time>2020-08-22T09:11:28.000Z</time>
      </trkpt>
      <trkpt lat="44.07939" lon="7.0009">
        <ele>1554.5999755859</ele>
        <time>2020-08-22T09:11:30.000Z</time>
      </trkpt>
      <trkpt lat="44.0793" lon="7.00094">
        <ele>1555.4000244141</ele>
        <time>2020-08-22T09:11:36.000Z</time>
      </trkpt>
      <trkpt lat="44.07929" lon="7.00094">
        <ele>1555.5999755859</ele>
        <time>2020-08-22T09:11:37.000Z</time>
      </trkpt>
      <trkpt lat="44.07923" lon="7.00097">
        <ele>1556.5999755859</ele>
        <time>2020-08-22T09:11:41.000Z</time>
      </trkpt>
      <trkpt lat="44.07918" lon="7.00099">
        <ele>1557.1999511719</ele>
        <time>2020-08-22T09:11:44.000Z</time>
      </trkpt>
      <trkpt lat="44.07912" lon="7.00102">
        <ele>1557.8000488281</ele>
        <time>2020-08-22T09:11:48.000Z</time>
      </trkpt>
      <trkpt lat="44.0791" lon="7.00105">
        <ele>1558.4000244141</ele>
        <time>2020-08-22T09:11:51.000Z</time>
      </trkpt>
      <trkpt lat="44.07908" lon="7.00108">
        <ele>1558.8000488281</ele>
        <time>2020-08-22T09:11:53.000Z</time>
      </trkpt>
      <trkpt lat="44.07906" lon="7.00116">
        <ele>1559.8000488281</ele>
        <time>2020-08-22T09:11:58.000Z</time>
      </trkpt>
      <trkpt lat="44.07913" lon="7.00126">
        <ele>1560.8000488281</ele>
        <time>2020-08-22T09:12:05.000Z</time>
      </trkpt>
      <trkpt lat="44.07914" lon="7.00127">
        <ele>1561</ele>
        <time>2020-08-22T09:12:06.000Z</time>
      </trkpt>
      <trkpt lat="44.07924" lon="7.00132">
        <ele>1561.8000488281</ele>
        <time>2020-08-22T09:12:12.000Z</time>
      </trkpt>
      <trkpt lat="44.07926" lon="7.00132">
        <ele>1562</ele>
        <time>2020-08-22T09:12:13.000Z</time>
      </trkpt>
      <trkpt lat="44.07937" lon="7.00136">
        <ele>1563</ele>
        <time>2020-08-22T09:12:19.000Z</time>
      </trkpt>
      <trkpt lat="44.07941" lon="7.00137">
        <ele>1563.1999511719</ele>
        <time>2020-08-22T09:12:21.000Z</time>
      </trkpt>
      <trkpt lat="44.07958" lon="7.00145">
        <ele>1564.1999511719</ele>
        <time>2020-08-22T09:12:29.000Z</time>
      </trkpt>
      <trkpt lat="44.0796" lon="7.00146">
        <ele>1564.5999755859</ele>
        <time>2020-08-22T09:12:30.000Z</time>
      </trkpt>
      <trkpt lat="44.07965" lon="7.00148">
        <ele>1565.4000244141</ele>
        <time>2020-08-22T09:12:33.000Z</time>
      </trkpt>
      <trkpt lat="44.07969" lon="7.0015">
        <ele>1566</ele>
        <time>2020-08-22T09:12:36.000Z</time>
      </trkpt>
      <trkpt lat="44.07973" lon="7.00151">
        <ele>1566.4000244141</ele>
        <time>2020-08-22T09:12:38.000Z</time>
      </trkpt>
      <trkpt lat="44.07981" lon="7.00153">
        <ele>1567</ele>
        <time>2020-08-22T09:12:42.000Z</time>
      </trkpt>
      <trkpt lat="44.07988" lon="7.00156">
        <ele>1567.4000244141</ele>
        <time>2020-08-22T09:12:46.000Z</time>
      </trkpt>
      <trkpt lat="44.07995" lon="7.0016">
        <ele>1568</ele>
        <time>2020-08-22T09:12:50.000Z</time>
      </trkpt>
      <trkpt lat="44.08001" lon="7.00165">
        <ele>1568.5999755859</ele>
        <time>2020-08-22T09:12:54.000Z</time>
      </trkpt>
      <trkpt lat="44.08005" lon="7.00167">
        <ele>1569</ele>
        <time>2020-08-22T09:12:56.000Z</time>
      </trkpt>
      <trkpt lat="44.08019" lon="7.00175">
        <ele>1569.4000244141</ele>
        <time>2020-08-22T09:13:03.000Z</time>
      </trkpt>
      <trkpt lat="44.08021" lon="7.00175">
        <ele>1569.5999755859</ele>
        <time>2020-08-22T09:13:04.000Z</time>
      </trkpt>
      <trkpt lat="44.08033" lon="7.0018">
        <ele>1570.8000488281</ele>
        <time>2020-08-22T09:13:11.000Z</time>
      </trkpt>
      <trkpt lat="44.08041" lon="7.00186">
        <ele>1571.8000488281</ele>
        <time>2020-08-22T09:13:16.000Z</time>
      </trkpt>
      <trkpt lat="44.08046" lon="7.0019">
        <ele>1572</ele>
        <time>2020-08-22T09:13:19.000Z</time>
      </trkpt>
      <trkpt lat="44.08053" lon="7.00199">
        <ele>1572.8000488281</ele>
        <time>2020-08-22T09:13:24.000Z</time>
      </trkpt>
      <trkpt lat="44.08056" lon="7.00203">
        <ele>1573</ele>
        <time>2020-08-22T09:13:26.000Z</time>
      </trkpt>
      <trkpt lat="44.08062" lon="7.00216">
        <ele>1574</ele>
        <time>2020-08-22T09:13:33.000Z</time>
      </trkpt>
      <trkpt lat="44.08063" lon="7.00218">
        <ele>1574.1999511719</ele>
        <time>2020-08-22T09:13:34.000Z</time>
      </trkpt>
      <trkpt lat="44.08064" lon="7.00231">
        <ele>1575</ele>
        <time>2020-08-22T09:13:40.000Z</time>
      </trkpt>
      <trkpt lat="44.08063" lon="7.00233">
        <ele>1575.1999511719</ele>
        <time>2020-08-22T09:13:41.000Z</time>
      </trkpt>
      <trkpt lat="44.08056" lon="7.00232">
        <ele>1576.1999511719</ele>
        <time>2020-08-22T09:13:45.000Z</time>
      </trkpt>
      <trkpt lat="44.08049" lon="7.00227">
        <ele>1576.5999755859</ele>
        <time>2020-08-22T09:13:49.000Z</time>
      </trkpt>
      <trkpt lat="44.08044" lon="7.00222">
        <ele>1576.8000488281</ele>
        <time>2020-08-22T09:13:53.000Z</time>
      </trkpt>
      <trkpt lat="44.08039" lon="7.00221">
        <ele>1577.1999511719</ele>
        <time>2020-08-22T09:13:56.000Z</time>
      </trkpt>
      <trkpt lat="44.08032" lon="7.00221">
        <ele>1578.1999511719</ele>
        <time>2020-08-22T09:14:00.000Z</time>
      </trkpt>
      <trkpt lat="44.08031" lon="7.00222">
        <ele>1578.1999511719</ele>
        <time>2020-08-22T09:14:01.000Z</time>
      </trkpt>
      <trkpt lat="44.08023" lon="7.00225">
        <ele>1579.4000244141</ele>
        <time>2020-08-22T09:14:07.000Z</time>
      </trkpt>
      <trkpt lat="44.08021" lon="7.00225">
        <ele>1579.4000244141</ele>
        <time>2020-08-22T09:14:08.000Z</time>
      </trkpt>
      <trkpt lat="44.08018" lon="7.00229">
        <ele>1579.8000488281</ele>
        <time>2020-08-22T09:14:11.000Z</time>
      </trkpt>
      <trkpt lat="44.08019" lon="7.00233">
        <ele>1580</ele>
        <time>2020-08-22T09:14:13.000Z</time>
      </trkpt>
      <trkpt lat="44.08021" lon="7.00236">
        <ele>1580.4000244141</ele>
        <time>2020-08-22T09:14:15.000Z</time>
      </trkpt>
      <trkpt lat="44.08026" lon="7.00237">
        <ele>1581.4000244141</ele>
        <time>2020-08-22T09:14:18.000Z</time>
      </trkpt>
      <trkpt lat="44.08027" lon="7.00238">
        <ele>1581.5999755859</ele>
        <time>2020-08-22T09:14:19.000Z</time>
      </trkpt>
      <trkpt lat="44.08037" lon="7.00244">
        <ele>1582.4000244141</ele>
        <time>2020-08-22T09:14:25.000Z</time>
      </trkpt>
      <trkpt lat="44.08038" lon="7.00245">
        <ele>1582.5999755859</ele>
        <time>2020-08-22T09:14:26.000Z</time>
      </trkpt>
      <trkpt lat="44.08045" lon="7.00256">
        <ele>1583.5999755859</ele>
        <time>2020-08-22T09:14:33.000Z</time>
      </trkpt>
      <trkpt lat="44.08047" lon="7.00258">
        <ele>1583.8000488281</ele>
        <time>2020-08-22T09:14:34.000Z</time>
      </trkpt>
      <trkpt lat="44.08051" lon="7.00268">
        <ele>1584.5999755859</ele>
        <time>2020-08-22T09:14:39.000Z</time>
      </trkpt>
      <trkpt lat="44.08051" lon="7.0027">
        <ele>1584.8000488281</ele>
        <time>2020-08-22T09:14:40.000Z</time>
      </trkpt>
      <trkpt lat="44.08057" lon="7.00284">
        <ele>1585.5999755859</ele>
        <time>2020-08-22T09:14:46.000Z</time>
      </trkpt>
      <trkpt lat="44.0806" lon="7.0029">
        <ele>1586</ele>
        <time>2020-08-22T09:14:49.000Z</time>
      </trkpt>
      <trkpt lat="44.08066" lon="7.00303">
        <ele>1587</ele>
        <time>2020-08-22T09:14:55.000Z</time>
      </trkpt>
      <trkpt lat="44.08074" lon="7.00315">
        <ele>1587.8000488281</ele>
        <time>2020-08-22T09:15:01.000Z</time>
      </trkpt>
      <trkpt lat="44.08075" lon="7.00317">
        <ele>1588</ele>
        <time>2020-08-22T09:15:02.000Z</time>
      </trkpt>
      <trkpt lat="44.08086" lon="7.00331">
        <ele>1589</ele>
        <time>2020-08-22T09:15:10.000Z</time>
      </trkpt>
      <trkpt lat="44.08097" lon="7.00335">
        <ele>1590</ele>
        <time>2020-08-22T09:15:16.000Z</time>
      </trkpt>
      <trkpt lat="44.08099" lon="7.00336">
        <ele>1590.1999511719</ele>
        <time>2020-08-22T09:15:17.000Z</time>
      </trkpt>
      <trkpt lat="44.08111" lon="7.00342">
        <ele>1590.5999755859</ele>
        <time>2020-08-22T09:15:23.000Z</time>
      </trkpt>
      <trkpt lat="44.0812" lon="7.00349">
        <ele>1591.4000244141</ele>
        <time>2020-08-22T09:15:29.000Z</time>
      </trkpt>
      <trkpt lat="44.08125" lon="7.00353">
        <ele>1592</ele>
        <time>2020-08-22T09:15:32.000Z</time>
      </trkpt>
      <trkpt lat="44.08131" lon="7.00356">
        <ele>1592.5999755859</ele>
        <time>2020-08-22T09:15:35.000Z</time>
      </trkpt>
      <trkpt lat="44.08138" lon="7.0036">
        <ele>1593</ele>
        <time>2020-08-22T09:15:39.000Z</time>
      </trkpt>
      <trkpt lat="44.08143" lon="7.00361">
        <ele>1593.5999755859</ele>
        <time>2020-08-22T09:15:42.000Z</time>
      </trkpt>
      <trkpt lat="44.08152" lon="7.00364">
        <ele>1594.5999755859</ele>
        <time>2020-08-22T09:15:47.000Z</time>
      </trkpt>
      <trkpt lat="44.08153" lon="7.00366">
        <ele>1594.8000488281</ele>
        <time>2020-08-22T09:15:48.000Z</time>
      </trkpt>
      <trkpt lat="44.08153" lon="7.00369">
        <ele>1595.1999511719</ele>
        <time>2020-08-22T09:15:50.000Z</time>
      </trkpt>
      <trkpt lat="44.08152" lon="7.00372">
        <ele>1595.5999755859</ele>
        <time>2020-08-22T09:15:52.000Z</time>
      </trkpt>
      <trkpt lat="44.08149" lon="7.00375">
        <ele>1596</ele>
        <time>2020-08-22T09:15:54.000Z</time>
      </trkpt>
      <trkpt lat="44.08146" lon="7.00377">
        <ele>1596.1999511719</ele>
        <time>2020-08-22T09:15:56.000Z</time>
      </trkpt>
      <trkpt lat="44.08144" lon="7.00377">
        <ele>1596.1999511719</ele>
        <time>2020-08-22T09:15:57.000Z</time>
      </trkpt>
      <trkpt lat="44.08135" lon="7.00377">
        <ele>1597</ele>
        <time>2020-08-22T09:16:02.000Z</time>
      </trkpt>
      <trkpt lat="44.08133" lon="7.00377">
        <ele>1597.4000244141</ele>
        <time>2020-08-22T09:16:03.000Z</time>
      </trkpt>
      <trkpt lat="44.08122" lon="7.00374">
        <ele>1598.1999511719</ele>
        <time>2020-08-22T09:16:09.000Z</time>
      </trkpt>
      <trkpt lat="44.0812" lon="7.00374">
        <ele>1598.1999511719</ele>
        <time>2020-08-22T09:16:10.000Z</time>
      </trkpt>
      <trkpt lat="44.08101" lon="7.00368">
        <ele>1599</ele>
        <time>2020-08-22T09:16:19.000Z</time>
      </trkpt>
      <trkpt lat="44.08097" lon="7.00367">
        <ele>1599.1999511719</ele>
        <time>2020-08-22T09:16:21.000Z</time>
      </trkpt>
      <trkpt lat="44.08086" lon="7.00363">
        <ele>1599.5999755859</ele>
        <time>2020-08-22T09:16:27.000Z</time>
      </trkpt>
      <trkpt lat="44.08076" lon="7.00359">
        <ele>1600.1999511719</ele>
        <time>2020-08-22T09:16:32.000Z</time>
      </trkpt>
      <trkpt lat="44.08073" lon="7.00357">
        <ele>1600.5999755859</ele>
        <time>2020-08-22T09:16:34.000Z</time>
      </trkpt>
      <trkpt lat="44.08065" lon="7.00353">
        <ele>1601.4000244141</ele>
        <time>2020-08-22T09:16:38.000Z</time>
      </trkpt>
      <trkpt lat="44.08051" lon="7.00345">
        <ele>1602</ele>
        <time>2020-08-22T09:16:45.000Z</time>
      </trkpt>
      <trkpt lat="44.08048" lon="7.00343">
        <ele>1602.4000244141</ele>
        <time>2020-08-22T09:16:47.000Z</time>
      </trkpt>
      <trkpt lat="44.08036" lon="7.0034">
        <ele>1602.8000488281</ele>
        <time>2020-08-22T09:16:53.000Z</time>
      </trkpt>
      <trkpt lat="44.08031" lon="7.00341">
        <ele>1603</ele>
        <time>2020-08-22T09:16:56.000Z</time>
      </trkpt>
      <trkpt lat="44.08031" lon="7.00346">
        <ele>1603.4000244141</ele>
        <time>2020-08-22T09:16:58.000Z</time>
      </trkpt>
      <trkpt lat="44.08032" lon="7.00348">
        <ele>1603.4000244141</ele>
        <time>2020-08-22T09:16:59.000Z</time>
      </trkpt>
      <trkpt lat="44.08039" lon="7.00353">
        <ele>1604.1999511719</ele>
        <time>2020-08-22T09:17:03.000Z</time>
      </trkpt>
      <trkpt lat="44.08041" lon="7.00354">
        <ele>1604.5999755859</ele>
        <time>2020-08-22T09:17:04.000Z</time>
      </trkpt>
      <trkpt lat="44.08052" lon="7.00362">
        <ele>1605.5999755859</ele>
        <time>2020-08-22T09:17:10.000Z</time>
      </trkpt>
      <trkpt lat="44.08053" lon="7.00363">
        <ele>1605.8000488281</ele>
        <time>2020-08-22T09:17:11.000Z</time>
      </trkpt>
      <trkpt lat="44.08064" lon="7.00372">
        <ele>1605.8000488281</ele>
        <time>2020-08-22T09:17:17.000Z</time>
      </trkpt>
      <trkpt lat="44.08075" lon="7.0038">
        <ele>1606.8000488281</ele>
        <time>2020-08-22T09:17:23.000Z</time>
      </trkpt>
      <trkpt lat="44.08077" lon="7.00382">
        <ele>1606.8000488281</ele>
        <time>2020-08-22T09:17:24.000Z</time>
      </trkpt>
      <trkpt lat="44.0809" lon="7.00393">
        <ele>1607.5999755859</ele>
        <time>2020-08-22T09:17:31.000Z</time>
      </trkpt>
      <trkpt lat="44.08098" lon="7.00399">
        <ele>1608</ele>
        <time>2020-08-22T09:17:35.000Z</time>
      </trkpt>
      <trkpt lat="44.08105" lon="7.00405">
        <ele>1608.5999755859</ele>
        <time>2020-08-22T09:17:39.000Z</time>
      </trkpt>
      <trkpt lat="44.08114" lon="7.00413">
        <ele>1609.1999511719</ele>
        <time>2020-08-22T09:17:44.000Z</time>
      </trkpt>
      <trkpt lat="44.08118" lon="7.00418">
        <ele>1609.5999755859</ele>
        <time>2020-08-22T09:17:47.000Z</time>
      </trkpt>
      <trkpt lat="44.08124" lon="7.00424">
        <ele>1610.4000244141</ele>
        <time>2020-08-22T09:17:50.000Z</time>
      </trkpt>
      <trkpt lat="44.0813" lon="7.00431">
        <ele>1611</ele>
        <time>2020-08-22T09:17:54.000Z</time>
      </trkpt>
      <trkpt lat="44.08134" lon="7.00436">
        <ele>1611.4000244141</ele>
        <time>2020-08-22T09:17:57.000Z</time>
      </trkpt>
      <trkpt lat="44.08143" lon="7.00447">
        <ele>1612.5999755859</ele>
        <time>2020-08-22T09:18:03.000Z</time>
      </trkpt>
      <trkpt lat="44.08151" lon="7.00455">
        <ele>1613.5999755859</ele>
        <time>2020-08-22T09:18:08.000Z</time>
      </trkpt>
      <trkpt lat="44.08158" lon="7.00461">
        <ele>1614.1999511719</ele>
        <time>2020-08-22T09:18:12.000Z</time>
      </trkpt>
      <trkpt lat="44.08165" lon="7.00464">
        <ele>1614.5999755859</ele>
        <time>2020-08-22T09:18:16.000Z</time>
      </trkpt>
      <trkpt lat="44.08171" lon="7.00464">
        <ele>1615.4000244141</ele>
        <time>2020-08-22T09:18:19.000Z</time>
      </trkpt>
      <trkpt lat="44.08181" lon="7.00466">
        <ele>1615.8000488281</ele>
        <time>2020-08-22T09:18:24.000Z</time>
      </trkpt>
      <trkpt lat="44.08186" lon="7.0047">
        <ele>1616.4000244141</ele>
        <time>2020-08-22T09:18:27.000Z</time>
      </trkpt>
      <trkpt lat="44.08189" lon="7.00473">
        <ele>1616.8000488281</ele>
        <time>2020-08-22T09:18:29.000Z</time>
      </trkpt>
      <trkpt lat="44.08198" lon="7.00487">
        <ele>1617</ele>
        <time>2020-08-22T09:18:35.000Z</time>
      </trkpt>
      <trkpt lat="44.08206" lon="7.00508">
        <ele>1617</ele>
        <time>2020-08-22T09:18:42.000Z</time>
      </trkpt>
      <trkpt lat="44.08213" lon="7.00534">
        <ele>1616.1999511719</ele>
        <time>2020-08-22T09:18:48.000Z</time>
      </trkpt>
      <trkpt lat="44.08215" lon="7.00549">
        <ele>1615.8000488281</ele>
        <time>2020-08-22T09:18:51.000Z</time>
      </trkpt>
      <trkpt lat="44.08218" lon="7.0056">
        <ele>1615.4000244141</ele>
        <time>2020-08-22T09:18:53.000Z</time>
      </trkpt>
      <trkpt lat="44.08228" lon="7.00576">
        <ele>1614.8000488281</ele>
        <time>2020-08-22T09:18:57.000Z</time>
      </trkpt>
      <trkpt lat="44.08232" lon="7.00579">
        <ele>1614.5999755859</ele>
        <time>2020-08-22T09:18:58.000Z</time>
      </trkpt>
      <trkpt lat="44.08248" lon="7.00592">
        <ele>1614.1999511719</ele>
        <time>2020-08-22T09:19:04.000Z</time>
      </trkpt>
      <trkpt lat="44.08265" lon="7.00606">
        <ele>1615.8000488281</ele>
        <time>2020-08-22T09:19:12.000Z</time>
      </trkpt>
      <trkpt lat="44.08278" lon="7.00611">
        <ele>1617</ele>
        <time>2020-08-22T09:19:18.000Z</time>
      </trkpt>
      <trkpt lat="44.08283" lon="7.00611">
        <ele>1617.4000244141</ele>
        <time>2020-08-22T09:19:20.000Z</time>
      </trkpt>
      <trkpt lat="44.08299" lon="7.00605">
        <ele>1618</ele>
        <time>2020-08-22T09:19:27.000Z</time>
      </trkpt>
      <trkpt lat="44.08306" lon="7.00602">
        <ele>1618.1999511719</ele>
        <time>2020-08-22T09:19:30.000Z</time>
      </trkpt>
      <trkpt lat="44.08312" lon="7.00599">
        <ele>1618.1999511719</ele>
        <time>2020-08-22T09:19:33.000Z</time>
      </trkpt>
      <trkpt lat="44.08326" lon="7.00601">
        <ele>1618.4000244141</ele>
        <time>2020-08-22T09:19:38.000Z</time>
      </trkpt>
      <trkpt lat="44.0834" lon="7.00617">
        <ele>1617.8000488281</ele>
        <time>2020-08-22T09:19:42.000Z</time>
      </trkpt>
      <trkpt lat="44.0835" lon="7.00632">
        <ele>1617</ele>
        <time>2020-08-22T09:19:46.000Z</time>
      </trkpt>
      <trkpt lat="44.08352" lon="7.00636">
        <ele>1616.8000488281</ele>
        <time>2020-08-22T09:19:47.000Z</time>
      </trkpt>
      <trkpt lat="44.08358" lon="7.00655">
        <ele>1616</ele>
        <time>2020-08-22T09:19:51.000Z</time>
      </trkpt>
      <trkpt lat="44.08358" lon="7.0066">
        <ele>1615.8000488281</ele>
        <time>2020-08-22T09:19:52.000Z</time>
      </trkpt>
      <trkpt lat="44.08356" lon="7.00674">
        <ele>1614.8000488281</ele>
        <time>2020-08-22T09:19:55.000Z</time>
      </trkpt>
      <trkpt lat="44.08355" lon="7.00684">
        <ele>1613.8000488281</ele>
        <time>2020-08-22T09:19:57.000Z</time>
      </trkpt>
      <trkpt lat="44.08354" lon="7.00695">
        <ele>1612.5999755859</ele>
        <time>2020-08-22T09:20:00.000Z</time>
      </trkpt>
      <trkpt lat="44.08354" lon="7.00696">
        <ele>1612.4000244141</ele>
        <time>2020-08-22T09:20:01.000Z</time>
      </trkpt>
      <trkpt lat="44.08354" lon="7.00696">
        <ele>1612.5999755859</ele>
        <time>2020-08-22T09:20:06.000Z</time>
      </trkpt>
      <trkpt lat="44.08355" lon="7.00697">
        <ele>1612</ele>
        <time>2020-08-22T09:20:11.000Z</time>
      </trkpt>
      <trkpt lat="44.08355" lon="7.00697">
        <ele>1611.5999755859</ele>
        <time>2020-08-22T09:20:15.000Z</time>
      </trkpt>
      <trkpt lat="44.08356" lon="7.00697">
        <ele>1611.5999755859</ele>
        <time>2020-08-22T09:20:21.000Z</time>
      </trkpt>
      <trkpt lat="44.08357" lon="7.00698">
        <ele>1612</ele>
        <time>2020-08-22T09:20:29.000Z</time>
      </trkpt>
      <trkpt lat="44.08356" lon="7.007">
        <ele>1611.5999755859</ele>
        <time>2020-08-22T09:20:36.000Z</time>
      </trkpt>
      <trkpt lat="44.08356" lon="7.007">
        <ele>1612</ele>
        <time>2020-08-22T09:20:43.000Z</time>
      </trkpt>
      <trkpt lat="44.08358" lon="7.00701">
        <ele>1611.4000244141</ele>
        <time>2020-08-22T09:20:59.000Z</time>
      </trkpt>
      <trkpt lat="44.0836" lon="7.00701">
        <ele>1611.1999511719</ele>
        <time>2020-08-22T09:21:16.000Z</time>
      </trkpt>
      <trkpt lat="44.0836" lon="7.007">
        <ele>1611.4000244141</ele>
        <time>2020-08-22T09:21:29.000Z</time>
      </trkpt>
      <trkpt lat="44.0836" lon="7.007">
        <ele>1611.8000488281</ele>
        <time>2020-08-22T09:21:40.000Z</time>
      </trkpt>
      <trkpt lat="44.08361" lon="7.007">
        <ele>1611.5999755859</ele>
        <time>2020-08-22T09:21:49.000Z</time>
      </trkpt>
      <trkpt lat="44.0836" lon="7.007">
        <ele>1611.8000488281</ele>
        <time>2020-08-22T09:21:57.000Z</time>
      </trkpt>
      <trkpt lat="44.08359" lon="7.00701">
        <ele>1611.8000488281</ele>
        <time>2020-08-22T09:22:05.000Z</time>
      </trkpt>
      <trkpt lat="44.08359" lon="7.00701">
        <ele>1611.5999755859</ele>
        <time>2020-08-22T09:22:11.000Z</time>
      </trkpt>
      <trkpt lat="44.0836" lon="7.00701">
        <ele>1611.4000244141</ele>
        <time>2020-08-22T09:22:19.000Z</time>
      </trkpt>
      <trkpt lat="44.0836" lon="7.00701">
        <ele>1611.4000244141</ele>
        <time>2020-08-22T09:22:26.000Z</time>
      </trkpt>
      <trkpt lat="44.0836" lon="7.007">
        <ele>1612.1999511719</ele>
        <time>2020-08-22T09:22:36.000Z</time>
      </trkpt>
      <trkpt lat="44.08359" lon="7.00699">
        <ele>1611.5999755859</ele>
        <time>2020-08-22T09:22:42.000Z</time>
      </trkpt>
      <trkpt lat="44.08358" lon="7.00699">
        <ele>1611.8000488281</ele>
        <time>2020-08-22T09:22:49.000Z</time>
      </trkpt>
      <trkpt lat="44.08358" lon="7.00697">
        <ele>1612</ele>
        <time>2020-08-22T09:23:04.000Z</time>
      </trkpt>
      <trkpt lat="44.08358" lon="7.00697">
        <ele>1611.8000488281</ele>
        <time>2020-08-22T09:23:14.000Z</time>
      </trkpt>
      <trkpt lat="44.08358" lon="7.00697">
        <ele>1611.4000244141</ele>
        <time>2020-08-22T09:23:20.000Z</time>
      </trkpt>
      <trkpt lat="44.08357" lon="7.00697">
        <ele>1611.1999511719</ele>
        <time>2020-08-22T09:23:33.000Z</time>
      </trkpt>
      <trkpt lat="44.08357" lon="7.00698">
        <ele>1611.5999755859</ele>
        <time>2020-08-22T09:23:41.000Z</time>
      </trkpt>
      <trkpt lat="44.08356" lon="7.00699">
        <ele>1611</ele>
        <time>2020-08-22T09:23:50.000Z</time>
      </trkpt>
      <trkpt lat="44.08356" lon="7.00699">
        <ele>1610.5999755859</ele>
        <time>2020-08-22T09:23:54.000Z</time>
      </trkpt>
      <trkpt lat="44.08356" lon="7.007">
        <ele>1610.5999755859</ele>
        <time>2020-08-22T09:24:01.000Z</time>
      </trkpt>
      <trkpt lat="44.08357" lon="7.007">
        <ele>1610.4000244141</ele>
        <time>2020-08-22T09:24:13.000Z</time>
      </trkpt>
      <trkpt lat="44.08356" lon="7.00701">
        <ele>1611.1999511719</ele>
        <time>2020-08-22T09:24:23.000Z</time>
      </trkpt>
      <trkpt lat="44.08356" lon="7.00701">
        <ele>1611.5999755859</ele>
        <time>2020-08-22T09:24:32.000Z</time>
      </trkpt>
      <trkpt lat="44.08356" lon="7.007">
        <ele>1611.4000244141</ele>
        <time>2020-08-22T09:24:40.000Z</time>
      </trkpt>
      <trkpt lat="44.08356" lon="7.007">
        <ele>1611.5999755859</ele>
        <time>2020-08-22T09:24:43.000Z</time>
      </trkpt>
      <trkpt lat="44.08356" lon="7.007">
        <ele>1611.1999511719</ele>
        <time>2020-08-22T09:24:48.000Z</time>
      </trkpt>
      <trkpt lat="44.08356" lon="7.00701">
        <ele>1610.8000488281</ele>
        <time>2020-08-22T09:24:57.000Z</time>
      </trkpt>
      <trkpt lat="44.08357" lon="7.007">
        <ele>1611.1999511719</ele>
        <time>2020-08-22T09:25:11.000Z</time>
      </trkpt>
      <trkpt lat="44.08357" lon="7.00699">
        <ele>1611</ele>
        <time>2020-08-22T09:25:25.000Z</time>
      </trkpt>
      <trkpt lat="44.08358" lon="7.00699">
        <ele>1611.1999511719</ele>
        <time>2020-08-22T09:25:35.000Z</time>
      </trkpt>
      <trkpt lat="44.08357" lon="7.00698">
        <ele>1610.5999755859</ele>
        <time>2020-08-22T09:25:44.000Z</time>
      </trkpt>
      <trkpt lat="44.08357" lon="7.00698">
        <ele>1610.8000488281</ele>
        <time>2020-08-22T09:25:50.000Z</time>
      </trkpt>
      <trkpt lat="44.08356" lon="7.00698">
        <ele>1610.5999755859</ele>
        <time>2020-08-22T09:26:05.000Z</time>
      </trkpt>
      <trkpt lat="44.08356" lon="7.00699">
        <ele>1610.4000244141</ele>
        <time>2020-08-22T09:26:22.000Z</time>
      </trkpt>
      <trkpt lat="44.08356" lon="7.00698">
        <ele>1610.4000244141</ele>
        <time>2020-08-22T09:26:33.000Z</time>
      </trkpt>
      <trkpt lat="44.08356" lon="7.00698">
        <ele>1610.5999755859</ele>
        <time>2020-08-22T09:26:43.000Z</time>
      </trkpt>
      <trkpt lat="44.08356" lon="7.00698">
        <ele>1610.1999511719</ele>
        <time>2020-08-22T09:26:51.000Z</time>
      </trkpt>
      <trkpt lat="44.08356" lon="7.00699">
        <ele>1610.8000488281</ele>
        <time>2020-08-22T09:27:01.000Z</time>
      </trkpt>
      <trkpt lat="44.08356" lon="7.00699">
        <ele>1611</ele>
        <time>2020-08-22T09:27:09.000Z</time>
      </trkpt>
      <trkpt lat="44.08354" lon="7.00698">
        <ele>1610.5999755859</ele>
        <time>2020-08-22T09:27:15.000Z</time>
      </trkpt>
      <trkpt lat="44.08354" lon="7.00698">
        <ele>1610.8000488281</ele>
        <time>2020-08-22T09:27:19.000Z</time>
      </trkpt>
      <trkpt lat="44.08354" lon="7.00698">
        <ele>1611.4000244141</ele>
        <time>2020-08-22T09:27:26.000Z</time>
      </trkpt>
      <trkpt lat="44.08352" lon="7.00707">
        <ele>1611.1999511719</ele>
        <time>2020-08-22T09:27:31.000Z</time>
      </trkpt>
      <trkpt lat="44.08347" lon="7.00722">
        <ele>1611.1999511719</ele>
        <time>2020-08-22T09:27:36.000Z</time>
      </trkpt>
      <trkpt lat="44.08343" lon="7.00731">
        <ele>1611.8000488281</ele>
        <time>2020-08-22T09:27:39.000Z</time>
      </trkpt>
      <trkpt lat="44.08338" lon="7.00742">
        <ele>1612.1999511719</ele>
        <time>2020-08-22T09:27:43.000Z</time>
      </trkpt>
      <trkpt lat="44.08329" lon="7.0076">
        <ele>1612.8000488281</ele>
        <time>2020-08-22T09:27:49.000Z</time>
      </trkpt>
      <trkpt lat="44.08327" lon="7.00762">
        <ele>1612.8000488281</ele>
        <time>2020-08-22T09:27:50.000Z</time>
      </trkpt>
      <trkpt lat="44.08316" lon="7.0078">
        <ele>1613</ele>
        <time>2020-08-22T09:27:56.000Z</time>
      </trkpt>
      <trkpt lat="44.08308" lon="7.00795">
        <ele>1613.5999755859</ele>
        <time>2020-08-22T09:28:01.000Z</time>
      </trkpt>
      <trkpt lat="44.08301" lon="7.00804">
        <ele>1613.8000488281</ele>
        <time>2020-08-22T09:28:04.000Z</time>
      </trkpt>
      <trkpt lat="44.083" lon="7.00807">
        <ele>1613.8000488281</ele>
        <time>2020-08-22T09:28:05.000Z</time>
      </trkpt>
      <trkpt lat="44.08284" lon="7.00828">
        <ele>1613.1999511719</ele>
        <time>2020-08-22T09:28:11.000Z</time>
      </trkpt>
      <trkpt lat="44.08272" lon="7.00844">
        <ele>1613.1999511719</ele>
        <time>2020-08-22T09:28:16.000Z</time>
      </trkpt>
      <trkpt lat="44.08257" lon="7.00865">
        <ele>1613.4000244141</ele>
        <time>2020-08-22T09:28:23.000Z</time>
      </trkpt>
      <trkpt lat="44.08235" lon="7.00885">
        <ele>1614</ele>
        <time>2020-08-22T09:28:31.000Z</time>
      </trkpt>
      <trkpt lat="44.08224" lon="7.00902">
        <ele>1613</ele>
        <time>2020-08-22T09:28:35.000Z</time>
      </trkpt>
      <trkpt lat="44.08221" lon="7.00907">
        <ele>1613</ele>
        <time>2020-08-22T09:28:36.000Z</time>
      </trkpt>
      <trkpt lat="44.08219" lon="7.00915">
        <ele>1612.8000488281</ele>
        <time>2020-08-22T09:28:38.000Z</time>
      </trkpt>
      <trkpt lat="44.08218" lon="7.00923">
        <ele>1612.8000488281</ele>
        <time>2020-08-22T09:28:40.000Z</time>
      </trkpt>
      <trkpt lat="44.08216" lon="7.00938">
        <ele>1613.8000488281</ele>
        <time>2020-08-22T09:28:44.000Z</time>
      </trkpt>
      <trkpt lat="44.08215" lon="7.00949">
        <ele>1614.4000244141</ele>
        <time>2020-08-22T09:28:47.000Z</time>
      </trkpt>
      <trkpt lat="44.08214" lon="7.00956">
        <ele>1614.8000488281</ele>
        <time>2020-08-22T09:28:49.000Z</time>
      </trkpt>
      <trkpt lat="44.08212" lon="7.00966">
        <ele>1616</ele>
        <time>2020-08-22T09:28:53.000Z</time>
      </trkpt>
      <trkpt lat="44.08212" lon="7.00969">
        <ele>1616.4000244141</ele>
        <time>2020-08-22T09:28:54.000Z</time>
      </trkpt>
      <trkpt lat="44.08209" lon="7.0098">
        <ele>1617</ele>
        <time>2020-08-22T09:28:58.000Z</time>
      </trkpt>
      <trkpt lat="44.08207" lon="7.00988">
        <ele>1617.4000244141</ele>
        <time>2020-08-22T09:29:01.000Z</time>
      </trkpt>
      <trkpt lat="44.08205" lon="7.00996">
        <ele>1618.1999511719</ele>
        <time>2020-08-22T09:29:04.000Z</time>
      </trkpt>
      <trkpt lat="44.08201" lon="7.01006">
        <ele>1619.1999511719</ele>
        <time>2020-08-22T09:29:08.000Z</time>
      </trkpt>
      <trkpt lat="44.082" lon="7.01009">
        <ele>1619.1999511719</ele>
        <time>2020-08-22T09:29:09.000Z</time>
      </trkpt>
      <trkpt lat="44.08196" lon="7.01028">
        <ele>1620.1999511719</ele>
        <time>2020-08-22T09:29:16.000Z</time>
      </trkpt>
      <trkpt lat="44.08195" lon="7.01033">
        <ele>1620.5999755859</ele>
        <time>2020-08-22T09:29:18.000Z</time>
      </trkpt>
      <trkpt lat="44.08193" lon="7.01043">
        <ele>1621.1999511719</ele>
        <time>2020-08-22T09:29:22.000Z</time>
      </trkpt>
      <trkpt lat="44.08192" lon="7.01053">
        <ele>1621.5999755859</ele>
        <time>2020-08-22T09:29:26.000Z</time>
      </trkpt>
      <trkpt lat="44.08193" lon="7.01067">
        <ele>1622.1999511719</ele>
        <time>2020-08-22T09:29:32.000Z</time>
      </trkpt>
      <trkpt lat="44.08194" lon="7.0107">
        <ele>1622.1999511719</ele>
        <time>2020-08-22T09:29:33.000Z</time>
      </trkpt>
      <trkpt lat="44.082" lon="7.01089">
        <ele>1623</ele>
        <time>2020-08-22T09:29:41.000Z</time>
      </trkpt>
      <trkpt lat="44.08208" lon="7.01109">
        <ele>1623.4000244141</ele>
        <time>2020-08-22T09:29:48.000Z</time>
      </trkpt>
      <trkpt lat="44.0821" lon="7.01114">
        <ele>1623.8000488281</ele>
        <time>2020-08-22T09:29:50.000Z</time>
      </trkpt>
      <trkpt lat="44.08212" lon="7.01132">
        <ele>1624.1999511719</ele>
        <time>2020-08-22T09:29:56.000Z</time>
      </trkpt>
      <trkpt lat="44.08212" lon="7.01142">
        <ele>1624.5999755859</ele>
        <time>2020-08-22T09:29:59.000Z</time>
      </trkpt>
      <trkpt lat="44.08211" lon="7.0115">
        <ele>1624.5999755859</ele>
        <time>2020-08-22T09:30:02.000Z</time>
      </trkpt>
      <trkpt lat="44.08211" lon="7.01171">
        <ele>1625.4000244141</ele>
        <time>2020-08-22T09:30:09.000Z</time>
      </trkpt>
      <trkpt lat="44.0821" lon="7.01187">
        <ele>1625.5999755859</ele>
        <time>2020-08-22T09:30:14.000Z</time>
      </trkpt>
      <trkpt lat="44.08209" lon="7.01196">
        <ele>1626</ele>
        <time>2020-08-22T09:30:17.000Z</time>
      </trkpt>
      <trkpt lat="44.08203" lon="7.01215">
        <ele>1626</ele>
        <time>2020-08-22T09:30:22.000Z</time>
      </trkpt>
      <trkpt lat="44.08199" lon="7.0123">
        <ele>1624.4000244141</ele>
        <time>2020-08-22T09:30:26.000Z</time>
      </trkpt>
      <trkpt lat="44.08198" lon="7.01234">
        <ele>1624.5999755859</ele>
        <time>2020-08-22T09:30:27.000Z</time>
      </trkpt>
      <trkpt lat="44.08198" lon="7.01255">
        <ele>1624.8000488281</ele>
        <time>2020-08-22T09:30:32.000Z</time>
      </trkpt>
      <trkpt lat="44.08199" lon="7.01268">
        <ele>1625.4000244141</ele>
        <time>2020-08-22T09:30:37.000Z</time>
      </trkpt>
      <trkpt lat="44.08199" lon="7.01269">
        <ele>1625.8000488281</ele>
        <time>2020-08-22T09:30:38.000Z</time>
      </trkpt>
      <trkpt lat="44.082" lon="7.01271">
        <ele>1626.1999511719</ele>
        <time>2020-08-22T09:30:39.000Z</time>
      </trkpt>
      <trkpt lat="44.082" lon="7.01273">
        <ele>1626.5999755859</ele>
        <time>2020-08-22T09:30:40.000Z</time>
      </trkpt>
      <trkpt lat="44.082" lon="7.01274">
        <ele>1627.8000488281</ele>
        <time>2020-08-22T09:30:43.000Z</time>
      </trkpt>
      <trkpt lat="44.082" lon="7.01276">
        <ele>1628</ele>
        <time>2020-08-22T09:30:44.000Z</time>
      </trkpt>
      <trkpt lat="44.082" lon="7.01279">
        <ele>1628.5999755859</ele>
        <time>2020-08-22T09:30:49.000Z</time>
      </trkpt>
      <trkpt lat="44.082" lon="7.01279">
        <ele>1628.8000488281</ele>
        <time>2020-08-22T09:30:50.000Z</time>
      </trkpt>
      <trkpt lat="44.082" lon="7.01285">
        <ele>1628.8000488281</ele>
        <time>2020-08-22T09:30:54.000Z</time>
      </trkpt>
      <trkpt lat="44.08198" lon="7.01299">
        <ele>1629.4000244141</ele>
        <time>2020-08-22T09:31:00.000Z</time>
      </trkpt>
      <trkpt lat="44.08195" lon="7.0132">
        <ele>1629.8000488281</ele>
        <time>2020-08-22T09:31:07.000Z</time>
      </trkpt>
      <trkpt lat="44.08195" lon="7.01323">
        <ele>1629.8000488281</ele>
        <time>2020-08-22T09:31:08.000Z</time>
      </trkpt>
      <trkpt lat="44.08194" lon="7.01343">
        <ele>1630.5999755859</ele>
        <time>2020-08-22T09:31:14.000Z</time>
      </trkpt>
      <trkpt lat="44.08194" lon="7.01351">
        <ele>1630.8000488281</ele>
        <time>2020-08-22T09:31:16.000Z</time>
      </trkpt>
      <trkpt lat="44.08192" lon="7.01367">
        <ele>1631.5999755859</ele>
        <time>2020-08-22T09:31:20.000Z</time>
      </trkpt>
      <trkpt lat="44.0819" lon="7.0138">
        <ele>1631.8000488281</ele>
        <time>2020-08-22T09:31:23.000Z</time>
      </trkpt>
      <trkpt lat="44.08188" lon="7.01389">
        <ele>1632.5999755859</ele>
        <time>2020-08-22T09:31:25.000Z</time>
      </trkpt>
      <trkpt lat="44.08185" lon="7.0141">
        <ele>1632.4000244141</ele>
        <time>2020-08-22T09:31:31.000Z</time>
      </trkpt>
      <trkpt lat="44.08184" lon="7.01413">
        <ele>1633</ele>
        <time>2020-08-22T09:31:32.000Z</time>
      </trkpt>
      <trkpt lat="44.08184" lon="7.01427">
        <ele>1633.1999511719</ele>
        <time>2020-08-22T09:31:36.000Z</time>
      </trkpt>
      <trkpt lat="44.08188" lon="7.01439">
        <ele>1632.4000244141</ele>
        <time>2020-08-22T09:31:41.000Z</time>
      </trkpt>
      <trkpt lat="44.08194" lon="7.01459">
        <ele>1633.1999511719</ele>
        <time>2020-08-22T09:31:47.000Z</time>
      </trkpt>
      <trkpt lat="44.08201" lon="7.01473">
        <ele>1634</ele>
        <time>2020-08-22T09:31:52.000Z</time>
      </trkpt>
      <trkpt lat="44.08205" lon="7.01477">
        <ele>1634.4000244141</ele>
        <time>2020-08-22T09:31:54.000Z</time>
      </trkpt>
      <trkpt lat="44.08223" lon="7.01494">
        <ele>1634.4000244141</ele>
        <time>2020-08-22T09:32:01.000Z</time>
      </trkpt>
      <trkpt lat="44.08242" lon="7.01513">
        <ele>1634.4000244141</ele>
        <time>2020-08-22T09:32:08.000Z</time>
      </trkpt>
      <trkpt lat="44.08252" lon="7.01521">
        <ele>1635.1999511719</ele>
        <time>2020-08-22T09:32:12.000Z</time>
      </trkpt>
      <trkpt lat="44.08255" lon="7.01524">
        <ele>1636</ele>
        <time>2020-08-22T09:32:14.000Z</time>
      </trkpt>
      <trkpt lat="44.08257" lon="7.01526">
        <ele>1636.1999511719</ele>
        <time>2020-08-22T09:32:15.000Z</time>
      </trkpt>
      <trkpt lat="44.08262" lon="7.0153">
        <ele>1637.4000244141</ele>
        <time>2020-08-22T09:32:18.000Z</time>
      </trkpt>
      <trkpt lat="44.08267" lon="7.01534">
        <ele>1637.5999755859</ele>
        <time>2020-08-22T09:32:21.000Z</time>
      </trkpt>
      <trkpt lat="44.08274" lon="7.01549">
        <ele>1637.4000244141</ele>
        <time>2020-08-22T09:32:25.000Z</time>
      </trkpt>
      <trkpt lat="44.08281" lon="7.01564">
        <ele>1635.8000488281</ele>
        <time>2020-08-22T09:32:29.000Z</time>
      </trkpt>
      <trkpt lat="44.08282" lon="7.01567">
        <ele>1635.5999755859</ele>
        <time>2020-08-22T09:32:30.000Z</time>
      </trkpt>
      <trkpt lat="44.08284" lon="7.01575">
        <ele>1634.8000488281</ele>
        <time>2020-08-22T09:32:32.000Z</time>
      </trkpt>
      <trkpt lat="44.08282" lon="7.01578">
        <ele>1634.1999511719</ele>
        <time>2020-08-22T09:32:33.000Z</time>
      </trkpt>
      <trkpt lat="44.0828" lon="7.01577">
        <ele>1633.8000488281</ele>
        <time>2020-08-22T09:32:34.000Z</time>
      </trkpt>
      <trkpt lat="44.08277" lon="7.01578">
        <ele>1633.1999511719</ele>
        <time>2020-08-22T09:32:36.000Z</time>
      </trkpt>
      <trkpt lat="44.08272" lon="7.01579">
        <ele>1633.5999755859</ele>
        <time>2020-08-22T09:32:40.000Z</time>
      </trkpt>
      <trkpt lat="44.08268" lon="7.01579">
        <ele>1634</ele>
        <time>2020-08-22T09:32:42.000Z</time>
      </trkpt>
      <trkpt lat="44.08261" lon="7.0158">
        <ele>1635</ele>
        <time>2020-08-22T09:32:45.000Z</time>
      </trkpt>
      <trkpt lat="44.08256" lon="7.01582">
        <ele>1635.1999511719</ele>
        <time>2020-08-22T09:32:47.000Z</time>
      </trkpt>
      <trkpt lat="44.08239" lon="7.0159">
        <ele>1635.8000488281</ele>
        <time>2020-08-22T09:32:54.000Z</time>
      </trkpt>
      <trkpt lat="44.08237" lon="7.01591">
        <ele>1636</ele>
        <time>2020-08-22T09:32:55.000Z</time>
      </trkpt>
      <trkpt lat="44.0823" lon="7.01597">
        <ele>1637</ele>
        <time>2020-08-22T09:32:59.000Z</time>
      </trkpt>
      <trkpt lat="44.08228" lon="7.016">
        <ele>1637.4000244141</ele>
        <time>2020-08-22T09:33:00.000Z</time>
      </trkpt>
      <trkpt lat="44.08224" lon="7.01603">
        <ele>1638.4000244141</ele>
        <time>2020-08-22T09:33:03.000Z</time>
      </trkpt>
      <trkpt lat="44.08217" lon="7.0161">
        <ele>1639.4000244141</ele>
        <time>2020-08-22T09:33:08.000Z</time>
      </trkpt>
      <trkpt lat="44.08215" lon="7.01612">
        <ele>1639.4000244141</ele>
        <time>2020-08-22T09:33:09.000Z</time>
      </trkpt>
      <trkpt lat="44.08207" lon="7.01621">
        <ele>1640</ele>
        <time>2020-08-22T09:33:15.000Z</time>
      </trkpt>
      <trkpt lat="44.08202" lon="7.01626">
        <ele>1640.4000244141</ele>
        <time>2020-08-22T09:33:18.000Z</time>
      </trkpt>
      <trkpt lat="44.08197" lon="7.01634">
        <ele>1641</ele>
        <time>2020-08-22T09:33:23.000Z</time>
      </trkpt>
      <trkpt lat="44.08194" lon="7.01639">
        <ele>1641.4000244141</ele>
        <time>2020-08-22T09:33:26.000Z</time>
      </trkpt>
      <trkpt lat="44.08186" lon="7.01645">
        <ele>1641.5999755859</ele>
        <time>2020-08-22T09:33:29.000Z</time>
      </trkpt>
      <trkpt lat="44.08176" lon="7.01643">
        <ele>1641.4000244141</ele>
        <time>2020-08-22T09:33:33.000Z</time>
      </trkpt>
      <trkpt lat="44.08164" lon="7.01641">
        <ele>1642</ele>
        <time>2020-08-22T09:33:39.000Z</time>
      </trkpt>
      <trkpt lat="44.08157" lon="7.01642">
        <ele>1642.8000488281</ele>
        <time>2020-08-22T09:33:43.000Z</time>
      </trkpt>
      <trkpt lat="44.08154" lon="7.01643">
        <ele>1643.1999511719</ele>
        <time>2020-08-22T09:33:45.000Z</time>
      </trkpt>
      <trkpt lat="44.08152" lon="7.01643">
        <ele>1644</ele>
        <time>2020-08-22T09:33:47.000Z</time>
      </trkpt>
      <trkpt lat="44.08145" lon="7.01645">
        <ele>1645.1999511719</ele>
        <time>2020-08-22T09:33:51.000Z</time>
      </trkpt>
      <trkpt lat="44.08144" lon="7.01646">
        <ele>1645.4000244141</ele>
        <time>2020-08-22T09:33:52.000Z</time>
      </trkpt>
      <trkpt lat="44.08138" lon="7.01647">
        <ele>1646.4000244141</ele>
        <time>2020-08-22T09:33:56.000Z</time>
      </trkpt>
      <trkpt lat="44.08132" lon="7.01649">
        <ele>1647.4000244141</ele>
        <time>2020-08-22T09:34:00.000Z</time>
      </trkpt>
      <trkpt lat="44.08127" lon="7.0165">
        <ele>1648.5999755859</ele>
        <time>2020-08-22T09:34:04.000Z</time>
      </trkpt>
      <trkpt lat="44.08126" lon="7.0165">
        <ele>1648.8000488281</ele>
        <time>2020-08-22T09:34:05.000Z</time>
      </trkpt>
      <trkpt lat="44.08121" lon="7.01653">
        <ele>1649.8000488281</ele>
        <time>2020-08-22T09:34:09.000Z</time>
      </trkpt>
      <trkpt lat="44.08118" lon="7.01655">
        <ele>1650.4000244141</ele>
        <time>2020-08-22T09:34:12.000Z</time>
      </trkpt>
      <trkpt lat="44.08117" lon="7.01658">
        <ele>1651</ele>
        <time>2020-08-22T09:34:14.000Z</time>
      </trkpt>
      <trkpt lat="44.08115" lon="7.01661">
        <ele>1651.5999755859</ele>
        <time>2020-08-22T09:34:17.000Z</time>
      </trkpt>
      <trkpt lat="44.08113" lon="7.01662">
        <ele>1652.1999511719</ele>
        <time>2020-08-22T09:34:19.000Z</time>
      </trkpt>
      <trkpt lat="44.08108" lon="7.01667">
        <ele>1653</ele>
        <time>2020-08-22T09:34:24.000Z</time>
      </trkpt>
      <trkpt lat="44.08107" lon="7.01669">
        <ele>1653.1999511719</ele>
        <time>2020-08-22T09:34:25.000Z</time>
      </trkpt>
      <trkpt lat="44.08099" lon="7.01677">
        <ele>1654.4000244141</ele>
        <time>2020-08-22T09:34:32.000Z</time>
      </trkpt>
      <trkpt lat="44.0809" lon="7.01688">
        <ele>1655.4000244141</ele>
        <time>2020-08-22T09:34:41.000Z</time>
      </trkpt>
      <trkpt lat="44.08089" lon="7.01689">
        <ele>1655.5999755859</ele>
        <time>2020-08-22T09:34:42.000Z</time>
      </trkpt>
      <trkpt lat="44.08086" lon="7.01694">
        <ele>1656.8000488281</ele>
        <time>2020-08-22T09:34:46.000Z</time>
      </trkpt>
      <trkpt lat="44.08083" lon="7.01699">
        <ele>1657.4000244141</ele>
        <time>2020-08-22T09:34:49.000Z</time>
      </trkpt>
      <trkpt lat="44.08081" lon="7.01703">
        <ele>1658</ele>
        <time>2020-08-22T09:34:52.000Z</time>
      </trkpt>
      <trkpt lat="44.08076" lon="7.0171">
        <ele>1658.5999755859</ele>
        <time>2020-08-22T09:34:57.000Z</time>
      </trkpt>
      <trkpt lat="44.08073" lon="7.01714">
        <ele>1659.1999511719</ele>
        <time>2020-08-22T09:35:00.000Z</time>
      </trkpt>
      <trkpt lat="44.08068" lon="7.01722">
        <ele>1660</ele>
        <time>2020-08-22T09:35:05.000Z</time>
      </trkpt>
      <trkpt lat="44.08067" lon="7.01724">
        <ele>1660.1999511719</ele>
        <time>2020-08-22T09:35:06.000Z</time>
      </trkpt>
      <trkpt lat="44.08063" lon="7.01736">
        <ele>1661.4000244141</ele>
        <time>2020-08-22T09:35:12.000Z</time>
      </trkpt>
      <trkpt lat="44.08062" lon="7.0174">
        <ele>1661.5999755859</ele>
        <time>2020-08-22T09:35:14.000Z</time>
      </trkpt>
      <trkpt lat="44.0806" lon="7.01748">
        <ele>1662.4000244141</ele>
        <time>2020-08-22T09:35:18.000Z</time>
      </trkpt>
      <trkpt lat="44.08057" lon="7.01754">
        <ele>1663.1999511719</ele>
        <time>2020-08-22T09:35:21.000Z</time>
      </trkpt>
      <trkpt lat="44.08056" lon="7.01756">
        <ele>1663.5999755859</ele>
        <time>2020-08-22T09:35:22.000Z</time>
      </trkpt>
      <trkpt lat="44.08048" lon="7.0177">
        <ele>1664.1999511719</ele>
        <time>2020-08-22T09:35:28.000Z</time>
      </trkpt>
      <trkpt lat="44.08045" lon="7.01791">
        <ele>1664.4000244141</ele>
        <time>2020-08-22T09:35:34.000Z</time>
      </trkpt>
      <trkpt lat="44.08044" lon="7.01798">
        <ele>1664.8000488281</ele>
        <time>2020-08-22T09:35:36.000Z</time>
      </trkpt>
      <trkpt lat="44.08045" lon="7.01821">
        <ele>1665.5999755859</ele>
        <time>2020-08-22T09:35:42.000Z</time>
      </trkpt>
      <trkpt lat="44.08046" lon="7.01824">
        <ele>1665.8000488281</ele>
        <time>2020-08-22T09:35:43.000Z</time>
      </trkpt>
      <trkpt lat="44.08047" lon="7.01844">
        <ele>1666.8000488281</ele>
        <time>2020-08-22T09:35:49.000Z</time>
      </trkpt>
      <trkpt lat="44.08046" lon="7.01847">
        <ele>1667.1999511719</ele>
        <time>2020-08-22T09:35:50.000Z</time>
      </trkpt>
      <trkpt lat="44.08045" lon="7.01862">
        <ele>1668</ele>
        <time>2020-08-22T09:35:54.000Z</time>
      </trkpt>
      <trkpt lat="44.08044" lon="7.0187">
        <ele>1667.8000488281</ele>
        <time>2020-08-22T09:35:56.000Z</time>
      </trkpt>
      <trkpt lat="44.08044" lon="7.01889">
        <ele>1668.5999755859</ele>
        <time>2020-08-22T09:36:02.000Z</time>
      </trkpt>
      <trkpt lat="44.08044" lon="7.01894">
        <ele>1669</ele>
        <time>2020-08-22T09:36:04.000Z</time>
      </trkpt>
      <trkpt lat="44.08045" lon="7.01906">
        <ele>1670.1999511719</ele>
        <time>2020-08-22T09:36:09.000Z</time>
      </trkpt>
      <trkpt lat="44.08045" lon="7.0191">
        <ele>1670.5999755859</ele>
        <time>2020-08-22T09:36:11.000Z</time>
      </trkpt>
      <trkpt lat="44.08045" lon="7.01917">
        <ele>1671.4000244141</ele>
        <time>2020-08-22T09:36:14.000Z</time>
      </trkpt>
      <trkpt lat="44.08044" lon="7.01928">
        <ele>1672.4000244141</ele>
        <time>2020-08-22T09:36:19.000Z</time>
      </trkpt>
      <trkpt lat="44.08044" lon="7.0193">
        <ele>1672.5999755859</ele>
        <time>2020-08-22T09:36:20.000Z</time>
      </trkpt>
      <trkpt lat="44.08045" lon="7.01939">
        <ele>1673.5999755859</ele>
        <time>2020-08-22T09:36:25.000Z</time>
      </trkpt>
      <trkpt lat="44.08045" lon="7.01943">
        <ele>1673.8000488281</ele>
        <time>2020-08-22T09:36:27.000Z</time>
      </trkpt>
      <trkpt lat="44.08045" lon="7.0195">
        <ele>1675</ele>
        <time>2020-08-22T09:36:31.000Z</time>
      </trkpt>
      <trkpt lat="44.08046" lon="7.01957">
        <ele>1675.4000244141</ele>
        <time>2020-08-22T09:36:34.000Z</time>
      </trkpt>
      <trkpt lat="44.08045" lon="7.01962">
        <ele>1676</ele>
        <time>2020-08-22T09:36:37.000Z</time>
      </trkpt>
      <trkpt lat="44.08046" lon="7.01966">
        <ele>1676.5999755859</ele>
        <time>2020-08-22T09:36:39.000Z</time>
      </trkpt>
      <trkpt lat="44.08046" lon="7.01971">
        <ele>1677.1999511719</ele>
        <time>2020-08-22T09:36:42.000Z</time>
      </trkpt>
      <trkpt lat="44.08046" lon="7.01978">
        <ele>1677.5999755859</ele>
        <time>2020-08-22T09:36:46.000Z</time>
      </trkpt>
      <trkpt lat="44.08046" lon="7.01984">
        <ele>1678.1999511719</ele>
        <time>2020-08-22T09:36:49.000Z</time>
      </trkpt>
      <trkpt lat="44.08046" lon="7.01995">
        <ele>1679.1999511719</ele>
        <time>2020-08-22T09:36:55.000Z</time>
      </trkpt>
      <trkpt lat="44.08048" lon="7.02012">
        <ele>1680.4000244141</ele>
        <time>2020-08-22T09:37:04.000Z</time>
      </trkpt>
      <trkpt lat="44.08048" lon="7.02014">
        <ele>1680.4000244141</ele>
        <time>2020-08-22T09:37:05.000Z</time>
      </trkpt>
      <trkpt lat="44.08049" lon="7.02027">
        <ele>1681.4000244141</ele>
        <time>2020-08-22T09:37:11.000Z</time>
      </trkpt>
      <trkpt lat="44.08049" lon="7.02029">
        <ele>1681.4000244141</ele>
        <time>2020-08-22T09:37:12.000Z</time>
      </trkpt>
      <trkpt lat="44.08048" lon="7.02039">
        <ele>1681.8000488281</ele>
        <time>2020-08-22T09:37:17.000Z</time>
      </trkpt>
      <trkpt lat="44.08048" lon="7.02047">
        <ele>1682.4000244141</ele>
        <time>2020-08-22T09:37:21.000Z</time>
      </trkpt>
      <trkpt lat="44.08048" lon="7.0205">
        <ele>1682.5999755859</ele>
        <time>2020-08-22T09:37:22.000Z</time>
      </trkpt>
      <trkpt lat="44.08053" lon="7.02067">
        <ele>1683.1999511719</ele>
        <time>2020-08-22T09:37:29.000Z</time>
      </trkpt>
      <trkpt lat="44.08054" lon="7.02069">
        <ele>1683.4000244141</ele>
        <time>2020-08-22T09:37:30.000Z</time>
      </trkpt>
      <trkpt lat="44.08057" lon="7.02084">
        <ele>1684.5999755859</ele>
        <time>2020-08-22T09:37:36.000Z</time>
      </trkpt>
      <trkpt lat="44.08061" lon="7.02107">
        <ele>1685.5999755859</ele>
        <time>2020-08-22T09:37:43.000Z</time>
      </trkpt>
      <trkpt lat="44.08062" lon="7.0211">
        <ele>1685.8000488281</ele>
        <time>2020-08-22T09:37:44.000Z</time>
      </trkpt>
      <trkpt lat="44.08067" lon="7.02131">
        <ele>1686.5999755859</ele>
        <time>2020-08-22T09:37:51.000Z</time>
      </trkpt>
      <trkpt lat="44.08068" lon="7.02135">
        <ele>1686.8000488281</ele>
        <time>2020-08-22T09:37:53.000Z</time>
      </trkpt>
      <trkpt lat="44.08074" lon="7.02157">
        <ele>1687.5999755859</ele>
        <time>2020-08-22T09:38:00.000Z</time>
      </trkpt>
      <trkpt lat="44.08078" lon="7.02173">
        <ele>1688.8000488281</ele>
        <time>2020-08-22T09:38:06.000Z</time>
      </trkpt>
      <trkpt lat="44.08079" lon="7.02176">
        <ele>1689</ele>
        <time>2020-08-22T09:38:07.000Z</time>
      </trkpt>
      <trkpt lat="44.08082" lon="7.02187">
        <ele>1689.8000488281</ele>
        <time>2020-08-22T09:38:12.000Z</time>
      </trkpt>
      <trkpt lat="44.08083" lon="7.02191">
        <ele>1690.1999511719</ele>
        <time>2020-08-22T09:38:14.000Z</time>
      </trkpt>
      <trkpt lat="44.08085" lon="7.02202">
        <ele>1691</ele>
        <time>2020-08-22T09:38:19.000Z</time>
      </trkpt>
      <trkpt lat="44.08087" lon="7.02211">
        <ele>1691.5999755859</ele>
        <time>2020-08-22T09:38:23.000Z</time>
      </trkpt>
      <trkpt lat="44.0809" lon="7.02218">
        <ele>1692</ele>
        <time>2020-08-22T09:38:26.000Z</time>
      </trkpt>
      <trkpt lat="44.08093" lon="7.02235">
        <ele>1692.8000488281</ele>
        <time>2020-08-22T09:38:32.000Z</time>
      </trkpt>
      <trkpt lat="44.08092" lon="7.02241">
        <ele>1693</ele>
        <time>2020-08-22T09:38:34.000Z</time>
      </trkpt>
      <trkpt lat="44.08091" lon="7.02258">
        <ele>1693.8000488281</ele>
        <time>2020-08-22T09:38:40.000Z</time>
      </trkpt>
      <trkpt lat="44.08091" lon="7.02268">
        <ele>1694.1999511719</ele>
        <time>2020-08-22T09:38:43.000Z</time>
      </trkpt>
      <trkpt lat="44.08092" lon="7.02296">
        <ele>1694.4000244141</ele>
        <time>2020-08-22T09:38:52.000Z</time>
      </trkpt>
      <trkpt lat="44.08092" lon="7.02311">
        <ele>1695.1999511719</ele>
        <time>2020-08-22T09:38:58.000Z</time>
      </trkpt>
      <trkpt lat="44.08093" lon="7.02314">
        <ele>1695.4000244141</ele>
        <time>2020-08-22T09:39:00.000Z</time>
      </trkpt>
      <trkpt lat="44.08094" lon="7.02315">
        <ele>1695.4000244141</ele>
        <time>2020-08-22T09:39:05.000Z</time>
      </trkpt>
      <trkpt lat="44.081" lon="7.02319">
        <ele>1695</ele>
        <time>2020-08-22T09:39:16.000Z</time>
      </trkpt>
      <trkpt lat="44.08111" lon="7.02331">
        <ele>1694.1999511719</ele>
        <time>2020-08-22T09:39:21.000Z</time>
      </trkpt>
      <trkpt lat="44.08114" lon="7.02334">
        <ele>1694.1999511719</ele>
        <time>2020-08-22T09:39:22.000Z</time>
      </trkpt>
      <trkpt lat="44.08126" lon="7.02353">
        <ele>1694.1999511719</ele>
        <time>2020-08-22T09:39:27.000Z</time>
      </trkpt>
      <trkpt lat="44.08135" lon="7.02376">
        <ele>1693.5999755859</ele>
        <time>2020-08-22T09:39:31.000Z</time>
      </trkpt>
      <trkpt lat="44.0814" lon="7.02388">
        <ele>1693</ele>
        <time>2020-08-22T09:39:33.000Z</time>
      </trkpt>
      <trkpt lat="44.08147" lon="7.02407">
        <ele>1692</ele>
        <time>2020-08-22T09:39:36.000Z</time>
      </trkpt>
      <trkpt lat="44.08158" lon="7.0243">
        <ele>1691.1999511719</ele>
        <time>2020-08-22T09:39:39.000Z</time>
      </trkpt>
      <trkpt lat="44.0817" lon="7.02454">
        <ele>1690.5999755859</ele>
        <time>2020-08-22T09:39:42.000Z</time>
      </trkpt>
      <trkpt lat="44.08181" lon="7.02478">
        <ele>1689.1999511719</ele>
        <time>2020-08-22T09:39:45.000Z</time>
      </trkpt>
      <trkpt lat="44.08184" lon="7.02485">
        <ele>1688.8000488281</ele>
        <time>2020-08-22T09:39:46.000Z</time>
      </trkpt>
      <trkpt lat="44.08192" lon="7.02499">
        <ele>1688.1999511719</ele>
        <time>2020-08-22T09:39:48.000Z</time>
      </trkpt>
      <trkpt lat="44.082" lon="7.02516">
        <ele>1688.4000244141</ele>
        <time>2020-08-22T09:39:51.000Z</time>
      </trkpt>
      <trkpt lat="44.08217" lon="7.0254">
        <ele>1689.1999511719</ele>
        <time>2020-08-22T09:39:57.000Z</time>
      </trkpt>
      <trkpt lat="44.08239" lon="7.02559">
        <ele>1689.1999511719</ele>
        <time>2020-08-22T09:40:04.000Z</time>
      </trkpt>
      <trkpt lat="44.08249" lon="7.02571">
        <ele>1690.4000244141</ele>
        <time>2020-08-22T09:40:08.000Z</time>
      </trkpt>
      <trkpt lat="44.08257" lon="7.02584">
        <ele>1691.4000244141</ele>
        <time>2020-08-22T09:40:12.000Z</time>
      </trkpt>
      <trkpt lat="44.08272" lon="7.02604">
        <ele>1692.4000244141</ele>
        <time>2020-08-22T09:40:20.000Z</time>
      </trkpt>
      <trkpt lat="44.08275" lon="7.02606">
        <ele>1692.5999755859</ele>
        <time>2020-08-22T09:40:21.000Z</time>
      </trkpt>
      <trkpt lat="44.08282" lon="7.02611">
        <ele>1693.8000488281</ele>
        <time>2020-08-22T09:40:24.000Z</time>
      </trkpt>
      <trkpt lat="44.08285" lon="7.02612">
        <ele>1694</ele>
        <time>2020-08-22T09:40:25.000Z</time>
      </trkpt>
      <trkpt lat="44.08301" lon="7.02618">
        <ele>1695</ele>
        <time>2020-08-22T09:40:32.000Z</time>
      </trkpt>
      <trkpt lat="44.08304" lon="7.02619">
        <ele>1695</ele>
        <time>2020-08-22T09:40:33.000Z</time>
      </trkpt>
      <trkpt lat="44.08312" lon="7.0262">
        <ele>1696</ele>
        <time>2020-08-22T09:40:36.000Z</time>
      </trkpt>
      <trkpt lat="44.08322" lon="7.02621">
        <ele>1697.1999511719</ele>
        <time>2020-08-22T09:40:40.000Z</time>
      </trkpt>
      <trkpt lat="44.08324" lon="7.02621">
        <ele>1697.4000244141</ele>
        <time>2020-08-22T09:40:41.000Z</time>
      </trkpt>
      <trkpt lat="44.08331" lon="7.02621">
        <ele>1698.4000244141</ele>
        <time>2020-08-22T09:40:44.000Z</time>
      </trkpt>
      <trkpt lat="44.08343" lon="7.02619">
        <ele>1699</ele>
        <time>2020-08-22T09:40:49.000Z</time>
      </trkpt>
      <trkpt lat="44.08355" lon="7.02615">
        <ele>1699.5999755859</ele>
        <time>2020-08-22T09:40:54.000Z</time>
      </trkpt>
      <trkpt lat="44.08363" lon="7.02612">
        <ele>1700.1999511719</ele>
        <time>2020-08-22T09:40:57.000Z</time>
      </trkpt>
      <trkpt lat="44.08372" lon="7.02609">
        <ele>1700.5999755859</ele>
        <time>2020-08-22T09:41:01.000Z</time>
      </trkpt>
      <trkpt lat="44.08384" lon="7.02606">
        <ele>1701</ele>
        <time>2020-08-22T09:41:06.000Z</time>
      </trkpt>
      <trkpt lat="44.08395" lon="7.02603">
        <ele>1701.8000488281</ele>
        <time>2020-08-22T09:41:11.000Z</time>
      </trkpt>
      <trkpt lat="44.08404" lon="7.026">
        <ele>1702.5999755859</ele>
        <time>2020-08-22T09:41:15.000Z</time>
      </trkpt>
      <trkpt lat="44.08406" lon="7.026">
        <ele>1703</ele>
        <time>2020-08-22T09:41:16.000Z</time>
      </trkpt>
      <trkpt lat="44.08419" lon="7.02598">
        <ele>1703.5999755859</ele>
        <time>2020-08-22T09:41:22.000Z</time>
      </trkpt>
      <trkpt lat="44.08423" lon="7.02598">
        <ele>1704</ele>
        <time>2020-08-22T09:41:24.000Z</time>
      </trkpt>
      <trkpt lat="44.08431" lon="7.02597">
        <ele>1704.8000488281</ele>
        <time>2020-08-22T09:41:29.000Z</time>
      </trkpt>
      <trkpt lat="44.08433" lon="7.02596">
        <ele>1705</ele>
        <time>2020-08-22T09:41:30.000Z</time>
      </trkpt>
      <trkpt lat="44.08442" lon="7.02593">
        <ele>1706.1999511719</ele>
        <time>2020-08-22T09:41:35.000Z</time>
      </trkpt>
      <trkpt lat="44.08444" lon="7.02592">
        <ele>1706.1999511719</ele>
        <time>2020-08-22T09:41:36.000Z</time>
      </trkpt>
      <trkpt lat="44.08458" lon="7.02585">
        <ele>1707.1999511719</ele>
        <time>2020-08-22T09:41:42.000Z</time>
      </trkpt>
      <trkpt lat="44.08462" lon="7.02581">
        <ele>1707.4000244141</ele>
        <time>2020-08-22T09:41:44.000Z</time>
      </trkpt>
      <trkpt lat="44.08468" lon="7.02577">
        <ele>1708.1999511719</ele>
        <time>2020-08-22T09:41:47.000Z</time>
      </trkpt>
      <trkpt lat="44.08474" lon="7.0257">
        <ele>1708.8000488281</ele>
        <time>2020-08-22T09:41:50.000Z</time>
      </trkpt>
      <trkpt lat="44.0848" lon="7.02565">
        <ele>1709.4000244141</ele>
        <time>2020-08-22T09:41:53.000Z</time>
      </trkpt>
      <trkpt lat="44.08489" lon="7.02558">
        <ele>1710.1999511719</ele>
        <time>2020-08-22T09:41:57.000Z</time>
      </trkpt>
      <trkpt lat="44.08496" lon="7.02554">
        <ele>1710.5999755859</ele>
        <time>2020-08-22T09:42:00.000Z</time>
      </trkpt>
      <trkpt lat="44.08507" lon="7.02545">
        <ele>1711</ele>
        <time>2020-08-22T09:42:05.000Z</time>
      </trkpt>
      <trkpt lat="44.08513" lon="7.02538">
        <ele>1711.8000488281</ele>
        <time>2020-08-22T09:42:08.000Z</time>
      </trkpt>
      <trkpt lat="44.08522" lon="7.02523">
        <ele>1712.4000244141</ele>
        <time>2020-08-22T09:42:13.000Z</time>
      </trkpt>
      <trkpt lat="44.08525" lon="7.0251">
        <ele>1712.8000488281</ele>
        <time>2020-08-22T09:42:17.000Z</time>
      </trkpt>
      <trkpt lat="44.08527" lon="7.02493">
        <ele>1713</ele>
        <time>2020-08-22T09:42:21.000Z</time>
      </trkpt>
      <trkpt lat="44.08527" lon="7.02455">
        <ele>1713.5999755859</ele>
        <time>2020-08-22T09:42:30.000Z</time>
      </trkpt>
      <trkpt lat="44.08528" lon="7.02411">
        <ele>1713.8000488281</ele>
        <time>2020-08-22T09:42:40.000Z</time>
      </trkpt>
      <trkpt lat="44.08528" lon="7.02406">
        <ele>1714</ele>
        <time>2020-08-22T09:42:41.000Z</time>
      </trkpt>
      <trkpt lat="44.08535" lon="7.0239">
        <ele>1714</ele>
        <time>2020-08-22T09:42:45.000Z</time>
      </trkpt>
      <trkpt lat="44.08547" lon="7.02386">
        <ele>1714.4000244141</ele>
        <time>2020-08-22T09:42:49.000Z</time>
      </trkpt>
      <trkpt lat="44.08566" lon="7.02392">
        <ele>1714.5999755859</ele>
        <time>2020-08-22T09:42:55.000Z</time>
      </trkpt>
      <trkpt lat="44.08581" lon="7.02411">
        <ele>1714.4000244141</ele>
        <time>2020-08-22T09:43:01.000Z</time>
      </trkpt>
      <trkpt lat="44.08583" lon="7.02417">
        <ele>1714.4000244141</ele>
        <time>2020-08-22T09:43:02.000Z</time>
      </trkpt>
      <trkpt lat="44.08589" lon="7.02443">
        <ele>1713.4000244141</ele>
        <time>2020-08-22T09:43:06.000Z</time>
      </trkpt>
      <trkpt lat="44.08593" lon="7.02459">
        <ele>1712.5999755859</ele>
        <time>2020-08-22T09:43:08.000Z</time>
      </trkpt>
      <trkpt lat="44.08596" lon="7.02468">
        <ele>1712</ele>
        <time>2020-08-22T09:43:09.000Z</time>
      </trkpt>
      <trkpt lat="44.08604" lon="7.02481">
        <ele>1711.8000488281</ele>
        <time>2020-08-22T09:43:11.000Z</time>
      </trkpt>
      <trkpt lat="44.0861" lon="7.02488">
        <ele>1711.4000244141</ele>
        <time>2020-08-22T09:43:12.000Z</time>
      </trkpt>
      <trkpt lat="44.08624" lon="7.025">
        <ele>1709.8000488281</ele>
        <time>2020-08-22T09:43:14.000Z</time>
      </trkpt>
      <trkpt lat="44.08631" lon="7.02504">
        <ele>1709.5999755859</ele>
        <time>2020-08-22T09:43:15.000Z</time>
      </trkpt>
      <trkpt lat="44.08646" lon="7.02511">
        <ele>1708</ele>
        <time>2020-08-22T09:43:17.000Z</time>
      </trkpt>
      <trkpt lat="44.08655" lon="7.02515">
        <ele>1706.5999755859</ele>
        <time>2020-08-22T09:43:18.000Z</time>
      </trkpt>
      <trkpt lat="44.08663" lon="7.02517">
        <ele>1706.1999511719</ele>
        <time>2020-08-22T09:43:19.000Z</time>
      </trkpt>
      <trkpt lat="44.08672" lon="7.02517">
        <ele>1705.1999511719</ele>
        <time>2020-08-22T09:43:20.000Z</time>
      </trkpt>
      <trkpt lat="44.08681" lon="7.02518">
        <ele>1703.8000488281</ele>
        <time>2020-08-22T09:43:21.000Z</time>
      </trkpt>
      <trkpt lat="44.0869" lon="7.02522">
        <ele>1702</ele>
        <time>2020-08-22T09:43:22.000Z</time>
      </trkpt>
      <trkpt lat="44.08697" lon="7.02529">
        <ele>1700.5999755859</ele>
        <time>2020-08-22T09:43:23.000Z</time>
      </trkpt>
      <trkpt lat="44.08703" lon="7.02539">
        <ele>1699.1999511719</ele>
        <time>2020-08-22T09:43:24.000Z</time>
      </trkpt>
      <trkpt lat="44.08707" lon="7.0255">
        <ele>1697.8000488281</ele>
        <time>2020-08-22T09:43:25.000Z</time>
      </trkpt>
      <trkpt lat="44.08711" lon="7.0256">
        <ele>1696.5999755859</ele>
        <time>2020-08-22T09:43:26.000Z</time>
      </trkpt>
      <trkpt lat="44.08716" lon="7.02569">
        <ele>1696.1999511719</ele>
        <time>2020-08-22T09:43:27.000Z</time>
      </trkpt>
      <trkpt lat="44.08722" lon="7.02574">
        <ele>1695.1999511719</ele>
        <time>2020-08-22T09:43:28.000Z</time>
      </trkpt>
      <trkpt lat="44.0873" lon="7.02576">
        <ele>1694.1999511719</ele>
        <time>2020-08-22T09:43:29.000Z</time>
      </trkpt>
      <trkpt lat="44.08755" lon="7.02575">
        <ele>1693.1999511719</ele>
        <time>2020-08-22T09:43:32.000Z</time>
      </trkpt>
      <trkpt lat="44.08764" lon="7.02575">
        <ele>1693.1999511719</ele>
        <time>2020-08-22T09:43:33.000Z</time>
      </trkpt>
      <trkpt lat="44.08801" lon="7.02578">
        <ele>1691</ele>
        <time>2020-08-22T09:43:37.000Z</time>
      </trkpt>
      <trkpt lat="44.08821" lon="7.02579">
        <ele>1689.4000244141</ele>
        <time>2020-08-22T09:43:39.000Z</time>
      </trkpt>
      <trkpt lat="44.0884" lon="7.02577">
        <ele>1687.5999755859</ele>
        <time>2020-08-22T09:43:41.000Z</time>
      </trkpt>
      <trkpt lat="44.08851" lon="7.02572">
        <ele>1686.4000244141</ele>
        <time>2020-08-22T09:43:42.000Z</time>
      </trkpt>
      <trkpt lat="44.08861" lon="7.02567">
        <ele>1685.1999511719</ele>
        <time>2020-08-22T09:43:43.000Z</time>
      </trkpt>
      <trkpt lat="44.08879" lon="7.02563">
        <ele>1683.8000488281</ele>
        <time>2020-08-22T09:43:45.000Z</time>
      </trkpt>
      <trkpt lat="44.08886" lon="7.02565">
        <ele>1683.4000244141</ele>
        <time>2020-08-22T09:43:46.000Z</time>
      </trkpt>
      <trkpt lat="44.08902" lon="7.02581">
        <ele>1683.4000244141</ele>
        <time>2020-08-22T09:43:49.000Z</time>
      </trkpt>
      <trkpt lat="44.08907" lon="7.02586">
        <ele>1684</ele>
        <time>2020-08-22T09:43:50.000Z</time>
      </trkpt>
      <trkpt lat="44.08917" lon="7.02599">
        <ele>1685.1999511719</ele>
        <time>2020-08-22T09:43:53.000Z</time>
      </trkpt>
      <trkpt lat="44.08921" lon="7.02602">
        <ele>1685.4000244141</ele>
        <time>2020-08-22T09:43:54.000Z</time>
      </trkpt>
      <trkpt lat="44.08933" lon="7.02611">
        <ele>1686.1999511719</ele>
        <time>2020-08-22T09:43:57.000Z</time>
      </trkpt>
      <trkpt lat="44.08945" lon="7.02618">
        <ele>1687.1999511719</ele>
        <time>2020-08-22T09:44:00.000Z</time>
      </trkpt>
      <trkpt lat="44.08948" lon="7.0262">
        <ele>1687.1999511719</ele>
        <time>2020-08-22T09:44:01.000Z</time>
      </trkpt>
      <trkpt lat="44.08965" lon="7.0263">
        <ele>1687.5999755859</ele>
        <time>2020-08-22T09:44:05.000Z</time>
      </trkpt>
      <trkpt lat="44.08994" lon="7.02648">
        <ele>1688</ele>
        <time>2020-08-22T09:44:12.000Z</time>
      </trkpt>
      <trkpt lat="44.09004" lon="7.02652">
        <ele>1688.1999511719</ele>
        <time>2020-08-22T09:44:14.000Z</time>
      </trkpt>
      <trkpt lat="44.09026" lon="7.02658">
        <ele>1687.4000244141</ele>
        <time>2020-08-22T09:44:18.000Z</time>
      </trkpt>
      <trkpt lat="44.09044" lon="7.02654">
        <ele>1686.1999511719</ele>
        <time>2020-08-22T09:44:21.000Z</time>
      </trkpt>
      <trkpt lat="44.09051" lon="7.02653">
        <ele>1685.5999755859</ele>
        <time>2020-08-22T09:44:22.000Z</time>
      </trkpt>
      <trkpt lat="44.09079" lon="7.02646">
        <ele>1686.4000244141</ele>
        <time>2020-08-22T09:44:28.000Z</time>
      </trkpt>
      <trkpt lat="44.09083" lon="7.02644">
        <ele>1686.5999755859</ele>
        <time>2020-08-22T09:44:29.000Z</time>
      </trkpt>
      <trkpt lat="44.09097" lon="7.02634">
        <ele>1687</ele>
        <time>2020-08-22T09:44:32.000Z</time>
      </trkpt>
      <trkpt lat="44.09124" lon="7.02613">
        <ele>1687</ele>
        <time>2020-08-22T09:44:38.000Z</time>
      </trkpt>
      <trkpt lat="44.09153" lon="7.0258">
        <ele>1686.4000244141</ele>
        <time>2020-08-22T09:44:44.000Z</time>
      </trkpt>
      <trkpt lat="44.09171" lon="7.02554">
        <ele>1685.4000244141</ele>
        <time>2020-08-22T09:44:48.000Z</time>
      </trkpt>
      <trkpt lat="44.09174" lon="7.02548">
        <ele>1685.1999511719</ele>
        <time>2020-08-22T09:44:49.000Z</time>
      </trkpt>
      <trkpt lat="44.09177" lon="7.02541">
        <ele>1685</ele>
        <time>2020-08-22T09:44:50.000Z</time>
      </trkpt>
      <trkpt lat="44.09186" lon="7.02521">
        <ele>1685.4000244141</ele>
        <time>2020-08-22T09:44:53.000Z</time>
      </trkpt>
      <trkpt lat="44.09197" lon="7.02501">
        <ele>1685.5999755859</ele>
        <time>2020-08-22T09:44:56.000Z</time>
      </trkpt>
      <trkpt lat="44.092" lon="7.02493">
        <ele>1685.5999755859</ele>
        <time>2020-08-22T09:44:57.000Z</time>
      </trkpt>
      <trkpt lat="44.09213" lon="7.02466">
        <ele>1684.8000488281</ele>
        <time>2020-08-22T09:45:01.000Z</time>
      </trkpt>
      <trkpt lat="44.09223" lon="7.02452">
        <ele>1684.5999755859</ele>
        <time>2020-08-22T09:45:03.000Z</time>
      </trkpt>
      <trkpt lat="44.09237" lon="7.02433">
        <ele>1684.1999511719</ele>
        <time>2020-08-22T09:45:06.000Z</time>
      </trkpt>
      <trkpt lat="44.09242" lon="7.02426">
        <ele>1684</ele>
        <time>2020-08-22T09:45:07.000Z</time>
      </trkpt>
      <trkpt lat="44.09257" lon="7.02402">
        <ele>1683.5999755859</ele>
        <time>2020-08-22T09:45:11.000Z</time>
      </trkpt>
      <trkpt lat="44.09283" lon="7.02365">
        <ele>1683.1999511719</ele>
        <time>2020-08-22T09:45:17.000Z</time>
      </trkpt>
      <trkpt lat="44.09292" lon="7.02352">
        <ele>1682.8000488281</ele>
        <time>2020-08-22T09:45:19.000Z</time>
      </trkpt>
      <trkpt lat="44.09296" lon="7.02344">
        <ele>1682.5999755859</ele>
        <time>2020-08-22T09:45:20.000Z</time>
      </trkpt>
      <trkpt lat="44.09298" lon="7.02337">
        <ele>1682.4000244141</ele>
        <time>2020-08-22T09:45:21.000Z</time>
      </trkpt>
      <trkpt lat="44.09306" lon="7.02324">
        <ele>1682.4000244141</ele>
        <time>2020-08-22T09:45:23.000Z</time>
      </trkpt>
      <trkpt lat="44.09317" lon="7.02318">
        <ele>1681.8000488281</ele>
        <time>2020-08-22T09:45:25.000Z</time>
      </trkpt>
      <trkpt lat="44.09321" lon="7.0232">
        <ele>1681.1999511719</ele>
        <time>2020-08-22T09:45:26.000Z</time>
      </trkpt>
      <trkpt lat="44.09326" lon="7.02325">
        <ele>1680.8000488281</ele>
        <time>2020-08-22T09:45:27.000Z</time>
      </trkpt>
      <trkpt lat="44.09331" lon="7.0233">
        <ele>1679.8000488281</ele>
        <time>2020-08-22T09:45:28.000Z</time>
      </trkpt>
      <trkpt lat="44.09338" lon="7.02346">
        <ele>1678.5999755859</ele>
        <time>2020-08-22T09:45:30.000Z</time>
      </trkpt>
      <trkpt lat="44.09341" lon="7.02353">
        <ele>1678.4000244141</ele>
        <time>2020-08-22T09:45:31.000Z</time>
      </trkpt>
      <trkpt lat="44.09349" lon="7.0238">
        <ele>1677.4000244141</ele>
        <time>2020-08-22T09:45:34.000Z</time>
      </trkpt>
      <trkpt lat="44.09354" lon="7.02394">
        <ele>1677</ele>
        <time>2020-08-22T09:45:36.000Z</time>
      </trkpt>
      <trkpt lat="44.09368" lon="7.02428">
        <ele>1677.4000244141</ele>
        <time>2020-08-22T09:45:41.000Z</time>
      </trkpt>
      <trkpt lat="44.09372" lon="7.02434">
        <ele>1677.5999755859</ele>
        <time>2020-08-22T09:45:42.000Z</time>
      </trkpt>
      <trkpt lat="44.09387" lon="7.02442">
        <ele>1677.8000488281</ele>
        <time>2020-08-22T09:45:45.000Z</time>
      </trkpt>
      <trkpt lat="44.09402" lon="7.02437">
        <ele>1677.5999755859</ele>
        <time>2020-08-22T09:45:48.000Z</time>
      </trkpt>
      <trkpt lat="44.09412" lon="7.02428">
        <ele>1676.8000488281</ele>
        <time>2020-08-22T09:45:50.000Z</time>
      </trkpt>
      <trkpt lat="44.09425" lon="7.02417">
        <ele>1676.4000244141</ele>
        <time>2020-08-22T09:45:52.000Z</time>
      </trkpt>
      <trkpt lat="44.09432" lon="7.02412">
        <ele>1675.8000488281</ele>
        <time>2020-08-22T09:45:53.000Z</time>
      </trkpt>
      <trkpt lat="44.0944" lon="7.02407">
        <ele>1675</ele>
        <time>2020-08-22T09:45:54.000Z</time>
      </trkpt>
      <trkpt lat="44.09454" lon="7.02402">
        <ele>1673.4000244141</ele>
        <time>2020-08-22T09:45:56.000Z</time>
      </trkpt>
      <trkpt lat="44.09463" lon="7.02405">
        <ele>1672.4000244141</ele>
        <time>2020-08-22T09:45:58.000Z</time>
      </trkpt>
      <trkpt lat="44.09467" lon="7.02407">
        <ele>1672.5999755859</ele>
        <time>2020-08-22T09:45:59.000Z</time>
      </trkpt>
      <trkpt lat="44.09471" lon="7.02409">
        <ele>1673.1999511719</ele>
        <time>2020-08-22T09:46:00.000Z</time>
      </trkpt>
      <trkpt lat="44.09475" lon="7.0241">
        <ele>1674</ele>
        <time>2020-08-22T09:46:01.000Z</time>
      </trkpt>
      <trkpt lat="44.09486" lon="7.02411">
        <ele>1675</ele>
        <time>2020-08-22T09:46:04.000Z</time>
      </trkpt>
      <trkpt lat="44.09493" lon="7.02408">
        <ele>1676.1999511719</ele>
        <time>2020-08-22T09:46:07.000Z</time>
      </trkpt>
      <trkpt lat="44.09497" lon="7.02404">
        <ele>1677.4000244141</ele>
        <time>2020-08-22T09:46:09.000Z</time>
      </trkpt>
      <trkpt lat="44.09499" lon="7.02401">
        <ele>1677.8000488281</ele>
        <time>2020-08-22T09:46:10.000Z</time>
      </trkpt>
      <trkpt lat="44.09507" lon="7.0239">
        <ele>1678.8000488281</ele>
        <time>2020-08-22T09:46:14.000Z</time>
      </trkpt>
      <trkpt lat="44.09513" lon="7.02385">
        <ele>1679</ele>
        <time>2020-08-22T09:46:16.000Z</time>
      </trkpt>
      <trkpt lat="44.09531" lon="7.02378">
        <ele>1679</ele>
        <time>2020-08-22T09:46:22.000Z</time>
      </trkpt>
      <trkpt lat="44.09545" lon="7.02375">
        <ele>1679.4000244141</ele>
        <time>2020-08-22T09:46:26.000Z</time>
      </trkpt>
      <trkpt lat="44.09565" lon="7.02372">
        <ele>1679.8000488281</ele>
        <time>2020-08-22T09:46:32.000Z</time>
      </trkpt>
      <trkpt lat="44.09568" lon="7.02371">
        <ele>1680</ele>
        <time>2020-08-22T09:46:33.000Z</time>
      </trkpt>
      <trkpt lat="44.09582" lon="7.02363">
        <ele>1680.4000244141</ele>
        <time>2020-08-22T09:46:37.000Z</time>
      </trkpt>
      <trkpt lat="44.09594" lon="7.02356">
        <ele>1680.5999755859</ele>
        <time>2020-08-22T09:46:40.000Z</time>
      </trkpt>
      <trkpt lat="44.09606" lon="7.02348">
        <ele>1680.5999755859</ele>
        <time>2020-08-22T09:46:43.000Z</time>
      </trkpt>
      <trkpt lat="44.0962" lon="7.02335">
        <ele>1680.4000244141</ele>
        <time>2020-08-22T09:46:47.000Z</time>
      </trkpt>
      <trkpt lat="44.0963" lon="7.02326">
        <ele>1680.5999755859</ele>
        <time>2020-08-22T09:46:50.000Z</time>
      </trkpt>
      <trkpt lat="44.09652" lon="7.02295">
        <ele>1679.8000488281</ele>
        <time>2020-08-22T09:46:56.000Z</time>
      </trkpt>
      <trkpt lat="44.09673" lon="7.02256">
        <ele>1679</ele>
        <time>2020-08-22T09:47:02.000Z</time>
      </trkpt>
      <trkpt lat="44.09685" lon="7.02233">
        <ele>1679.1999511719</ele>
        <time>2020-08-22T09:47:06.000Z</time>
      </trkpt>
      <trkpt lat="44.09696" lon="7.02226">
        <ele>1679.1999511719</ele>
        <time>2020-08-22T09:47:08.000Z</time>
      </trkpt>
      <trkpt lat="44.0971" lon="7.02232">
        <ele>1678.8000488281</ele>
        <time>2020-08-22T09:47:11.000Z</time>
      </trkpt>
      <trkpt lat="44.09715" lon="7.02234">
        <ele>1678.5999755859</ele>
        <time>2020-08-22T09:47:12.000Z</time>
      </trkpt>
      <trkpt lat="44.09735" lon="7.02241">
        <ele>1679.5999755859</ele>
        <time>2020-08-22T09:47:17.000Z</time>
      </trkpt>
      <trkpt lat="44.09743" lon="7.02242">
        <ele>1680</ele>
        <time>2020-08-22T09:47:19.000Z</time>
      </trkpt>
      <trkpt lat="44.09765" lon="7.02243">
        <ele>1680.8000488281</ele>
        <time>2020-08-22T09:47:24.000Z</time>
      </trkpt>
      <trkpt lat="44.09778" lon="7.02242">
        <ele>1681</ele>
        <time>2020-08-22T09:47:27.000Z</time>
      </trkpt>
      <trkpt lat="44.09792" lon="7.02238">
        <ele>1681.1999511719</ele>
        <time>2020-08-22T09:47:30.000Z</time>
      </trkpt>
      <trkpt lat="44.09815" lon="7.02231">
        <ele>1681.4000244141</ele>
        <time>2020-08-22T09:47:35.000Z</time>
      </trkpt>
      <trkpt lat="44.09825" lon="7.02233">
        <ele>1681.5999755859</ele>
        <time>2020-08-22T09:47:37.000Z</time>
      </trkpt>
      <trkpt lat="44.0984" lon="7.02238">
        <ele>1681.8000488281</ele>
        <time>2020-08-22T09:47:40.000Z</time>
      </trkpt>
      <trkpt lat="44.09852" lon="7.02243">
        <ele>1682</ele>
        <time>2020-08-22T09:47:43.000Z</time>
      </trkpt>
      <trkpt lat="44.09868" lon="7.02253">
        <ele>1683</ele>
        <time>2020-08-22T09:47:47.000Z</time>
      </trkpt>
      <trkpt lat="44.09871" lon="7.02256">
        <ele>1683.4000244141</ele>
        <time>2020-08-22T09:47:48.000Z</time>
      </trkpt>
      <trkpt lat="44.09874" lon="7.0226">
        <ele>1683.4000244141</ele>
        <time>2020-08-22T09:47:49.000Z</time>
      </trkpt>
      <trkpt lat="44.09886" lon="7.0227">
        <ele>1683.5999755859</ele>
        <time>2020-08-22T09:47:52.000Z</time>
      </trkpt>
      <trkpt lat="44.09895" lon="7.02273">
        <ele>1683.5999755859</ele>
        <time>2020-08-22T09:47:54.000Z</time>
      </trkpt>
      <trkpt lat="44.09901" lon="7.02274">
        <ele>1683.5999755859</ele>
        <time>2020-08-22T09:47:55.000Z</time>
      </trkpt>
      <trkpt lat="44.09911" lon="7.02277">
        <ele>1683.4000244141</ele>
        <time>2020-08-22T09:47:57.000Z</time>
      </trkpt>
      <trkpt lat="44.09925" lon="7.02287">
        <ele>1683</ele>
        <time>2020-08-22T09:48:00.000Z</time>
      </trkpt>
      <trkpt lat="44.09941" lon="7.02291">
        <ele>1682.8000488281</ele>
        <time>2020-08-22T09:48:04.000Z</time>
      </trkpt>
      <trkpt lat="44.09953" lon="7.02278">
        <ele>1682.5999755859</ele>
        <time>2020-08-22T09:48:08.000Z</time>
      </trkpt>
      <trkpt lat="44.0997" lon="7.02271">
        <ele>1682.8000488281</ele>
        <time>2020-08-22T09:48:13.000Z</time>
      </trkpt>
      <trkpt lat="44.09975" lon="7.02271">
        <ele>1682.8000488281</ele>
        <time>2020-08-22T09:48:14.000Z</time>
      </trkpt>
      <trkpt lat="44.09991" lon="7.02272">
        <ele>1682.5999755859</ele>
        <time>2020-08-22T09:48:17.000Z</time>
      </trkpt>
      <trkpt lat="44.09997" lon="7.02274">
        <ele>1682.4000244141</ele>
        <time>2020-08-22T09:48:18.000Z</time>
      </trkpt>
      <trkpt lat="44.10002" lon="7.02276">
        <ele>1682.1999511719</ele>
        <time>2020-08-22T09:48:19.000Z</time>
      </trkpt>
      <trkpt lat="44.10012" lon="7.0228">
        <ele>1680.5999755859</ele>
        <time>2020-08-22T09:48:21.000Z</time>
      </trkpt>
      <trkpt lat="44.1002" lon="7.02288">
        <ele>1678.8000488281</ele>
        <time>2020-08-22T09:48:23.000Z</time>
      </trkpt>
      <trkpt lat="44.10022" lon="7.02292">
        <ele>1677.8000488281</ele>
        <time>2020-08-22T09:48:24.000Z</time>
      </trkpt>
      <trkpt lat="44.10025" lon="7.02296">
        <ele>1677</ele>
        <time>2020-08-22T09:48:25.000Z</time>
      </trkpt>
      <trkpt lat="44.10026" lon="7.02301">
        <ele>1676.5999755859</ele>
        <time>2020-08-22T09:48:26.000Z</time>
      </trkpt>
      <trkpt lat="44.10026" lon="7.02305">
        <ele>1676.1999511719</ele>
        <time>2020-08-22T09:48:27.000Z</time>
      </trkpt>
      <trkpt lat="44.10025" lon="7.02322">
        <ele>1676</ele>
        <time>2020-08-22T09:48:31.000Z</time>
      </trkpt>
      <trkpt lat="44.10029" lon="7.02329">
        <ele>1676</ele>
        <time>2020-08-22T09:48:33.000Z</time>
      </trkpt>
      <trkpt lat="44.10031" lon="7.0233">
        <ele>1676</ele>
        <time>2020-08-22T09:48:34.000Z</time>
      </trkpt>
      <trkpt lat="44.10033" lon="7.02333">
        <ele>1676.1999511719</ele>
        <time>2020-08-22T09:48:38.000Z</time>
      </trkpt>
      <trkpt lat="44.10033" lon="7.02333">
        <ele>1676.4000244141</ele>
        <time>2020-08-22T09:48:45.000Z</time>
      </trkpt>
      <trkpt lat="44.10033" lon="7.02333">
        <ele>1676.4000244141</ele>
        <time>2020-08-22T09:48:55.000Z</time>
      </trkpt>
      <trkpt lat="44.10034" lon="7.02334">
        <ele>1676.4000244141</ele>
        <time>2020-08-22T09:48:56.000Z</time>
      </trkpt>
      <trkpt lat="44.10035" lon="7.02333">
        <ele>1676.8000488281</ele>
        <time>2020-08-22T09:49:00.000Z</time>
      </trkpt>
      <trkpt lat="44.10035" lon="7.02328">
        <ele>1677.5999755859</ele>
        <time>2020-08-22T09:49:04.000Z</time>
      </trkpt>
      <trkpt lat="44.10035" lon="7.02322">
        <ele>1677.8000488281</ele>
        <time>2020-08-22T09:49:08.000Z</time>
      </trkpt>
      <trkpt lat="44.10037" lon="7.02317">
        <ele>1678.5999755859</ele>
        <time>2020-08-22T09:49:15.000Z</time>
      </trkpt>
      <trkpt lat="44.1004" lon="7.02314">
        <ele>1679.8000488281</ele>
        <time>2020-08-22T09:49:20.000Z</time>
      </trkpt>
      <trkpt lat="44.10042" lon="7.02314">
        <ele>1680.5999755859</ele>
        <time>2020-08-22T09:49:23.000Z</time>
      </trkpt>
      <trkpt lat="44.10043" lon="7.02313">
        <ele>1681</ele>
        <time>2020-08-22T09:49:25.000Z</time>
      </trkpt>
      <trkpt lat="44.10049" lon="7.0231">
        <ele>1682</ele>
        <time>2020-08-22T09:49:31.000Z</time>
      </trkpt>
      <trkpt lat="44.1005" lon="7.0231">
        <ele>1682.1999511719</ele>
        <time>2020-08-22T09:49:32.000Z</time>
      </trkpt>
      <trkpt lat="44.10052" lon="7.0231">
        <ele>1683.1999511719</ele>
        <time>2020-08-22T09:49:37.000Z</time>
      </trkpt>
      <trkpt lat="44.10056" lon="7.02311">
        <ele>1683</ele>
        <time>2020-08-22T09:49:43.000Z</time>
      </trkpt>
      <trkpt lat="44.10061" lon="7.0231">
        <ele>1683.4000244141</ele>
        <time>2020-08-22T09:49:48.000Z</time>
      </trkpt>
      <trkpt lat="44.10071" lon="7.02312">
        <ele>1683.4000244141</ele>
        <time>2020-08-22T09:49:54.000Z</time>
      </trkpt>
      <trkpt lat="44.10078" lon="7.02317">
        <ele>1684.4000244141</ele>
        <time>2020-08-22T09:49:59.000Z</time>
      </trkpt>
      <trkpt lat="44.10081" lon="7.02318">
        <ele>1684.8000488281</ele>
        <time>2020-08-22T09:50:01.000Z</time>
      </trkpt>
      <trkpt lat="44.10084" lon="7.02319">
        <ele>1685.5999755859</ele>
        <time>2020-08-22T09:50:04.000Z</time>
      </trkpt>
      <trkpt lat="44.10089" lon="7.02318">
        <ele>1686</ele>
        <time>2020-08-22T09:50:07.000Z</time>
      </trkpt>
      <trkpt lat="44.10097" lon="7.02316">
        <ele>1686.5999755859</ele>
        <time>2020-08-22T09:50:12.000Z</time>
      </trkpt>
      <trkpt lat="44.10102" lon="7.02314">
        <ele>1686.8000488281</ele>
        <time>2020-08-22T09:50:15.000Z</time>
      </trkpt>
      <trkpt lat="44.10117" lon="7.02315">
        <ele>1687.1999511719</ele>
        <time>2020-08-22T09:50:23.000Z</time>
      </trkpt>
      <trkpt lat="44.1012" lon="7.02315">
        <ele>1687.8000488281</ele>
        <time>2020-08-22T09:50:25.000Z</time>
      </trkpt>
      <trkpt lat="44.10129" lon="7.02315">
        <ele>1688.5999755859</ele>
        <time>2020-08-22T09:50:30.000Z</time>
      </trkpt>
      <trkpt lat="44.10131" lon="7.02314">
        <ele>1688.8000488281</ele>
        <time>2020-08-22T09:50:31.000Z</time>
      </trkpt>
      <trkpt lat="44.10138" lon="7.0231">
        <ele>1689.5999755859</ele>
        <time>2020-08-22T09:50:36.000Z</time>
      </trkpt>
      <trkpt lat="44.1014" lon="7.02309">
        <ele>1689.8000488281</ele>
        <time>2020-08-22T09:50:37.000Z</time>
      </trkpt>
      <trkpt lat="44.10144" lon="7.02306">
        <ele>1690.4000244141</ele>
        <time>2020-08-22T09:50:41.000Z</time>
      </trkpt>
      <trkpt lat="44.10149" lon="7.02305">
        <ele>1691</ele>
        <time>2020-08-22T09:50:44.000Z</time>
      </trkpt>
      <trkpt lat="44.10153" lon="7.02304">
        <ele>1691.8000488281</ele>
        <time>2020-08-22T09:50:47.000Z</time>
      </trkpt>
      <trkpt lat="44.10154" lon="7.02304">
        <ele>1692</ele>
        <time>2020-08-22T09:50:48.000Z</time>
      </trkpt>
      <trkpt lat="44.10161" lon="7.02302">
        <ele>1693</ele>
        <time>2020-08-22T09:50:53.000Z</time>
      </trkpt>
      <trkpt lat="44.10162" lon="7.02301">
        <ele>1693.1999511719</ele>
        <time>2020-08-22T09:50:54.000Z</time>
      </trkpt>
      <trkpt lat="44.10168" lon="7.02297">
        <ele>1694.4000244141</ele>
        <time>2020-08-22T09:51:00.000Z</time>
      </trkpt>
      <trkpt lat="44.10169" lon="7.02297">
        <ele>1694.8000488281</ele>
        <time>2020-08-22T09:51:01.000Z</time>
      </trkpt>
      <trkpt lat="44.10173" lon="7.02297">
        <ele>1695.5999755859</ele>
        <time>2020-08-22T09:51:04.000Z</time>
      </trkpt>
      <trkpt lat="44.10174" lon="7.02297">
        <ele>1695.8000488281</ele>
        <time>2020-08-22T09:51:05.000Z</time>
      </trkpt>
      <trkpt lat="44.10178" lon="7.02298">
        <ele>1696.1999511719</ele>
        <time>2020-08-22T09:51:08.000Z</time>
      </trkpt>
      <trkpt lat="44.10182" lon="7.02299">
        <ele>1696.5999755859</ele>
        <time>2020-08-22T09:51:12.000Z</time>
      </trkpt>
      <trkpt lat="44.10184" lon="7.023">
        <ele>1696.8000488281</ele>
        <time>2020-08-22T09:51:14.000Z</time>
      </trkpt>
      <trkpt lat="44.10189" lon="7.02302">
        <ele>1697.8000488281</ele>
        <time>2020-08-22T09:51:19.000Z</time>
      </trkpt>
      <trkpt lat="44.1019" lon="7.02302">
        <ele>1698.1999511719</ele>
        <time>2020-08-22T09:51:20.000Z</time>
      </trkpt>
      <trkpt lat="44.10193" lon="7.02303">
        <ele>1698.8000488281</ele>
        <time>2020-08-22T09:51:24.000Z</time>
      </trkpt>
      <trkpt lat="44.10194" lon="7.02304">
        <ele>1699.1999511719</ele>
        <time>2020-08-22T09:51:26.000Z</time>
      </trkpt>
      <trkpt lat="44.10201" lon="7.02306">
        <ele>1699.8000488281</ele>
        <time>2020-08-22T09:51:32.000Z</time>
      </trkpt>
      <trkpt lat="44.10202" lon="7.02306">
        <ele>1699.8000488281</ele>
        <time>2020-08-22T09:51:33.000Z</time>
      </trkpt>
      <trkpt lat="44.10206" lon="7.02308">
        <ele>1700.1999511719</ele>
        <time>2020-08-22T09:51:36.000Z</time>
      </trkpt>
      <trkpt lat="44.10209" lon="7.02309">
        <ele>1700.4000244141</ele>
        <time>2020-08-22T09:51:39.000Z</time>
      </trkpt>
      <trkpt lat="44.10215" lon="7.02312">
        <ele>1701</ele>
        <time>2020-08-22T09:51:43.000Z</time>
      </trkpt>
      <trkpt lat="44.10217" lon="7.02312">
        <ele>1701.1999511719</ele>
        <time>2020-08-22T09:51:44.000Z</time>
      </trkpt>
      <trkpt lat="44.10227" lon="7.02319">
        <ele>1701.8000488281</ele>
        <time>2020-08-22T09:51:51.000Z</time>
      </trkpt>
      <trkpt lat="44.10229" lon="7.02321">
        <ele>1702</ele>
        <time>2020-08-22T09:51:52.000Z</time>
      </trkpt>
      <trkpt lat="44.10234" lon="7.02326">
        <ele>1703.1999511719</ele>
        <time>2020-08-22T09:51:56.000Z</time>
      </trkpt>
      <trkpt lat="44.10236" lon="7.02327">
        <ele>1703.4000244141</ele>
        <time>2020-08-22T09:51:57.000Z</time>
      </trkpt>
      <trkpt lat="44.10239" lon="7.0233">
        <ele>1704.1999511719</ele>
        <time>2020-08-22T09:52:00.000Z</time>
      </trkpt>
      <trkpt lat="44.10245" lon="7.02335">
        <ele>1705</ele>
        <time>2020-08-22T09:52:05.000Z</time>
      </trkpt>
      <trkpt lat="44.10247" lon="7.02337">
        <ele>1705.1999511719</ele>
        <time>2020-08-22T09:52:07.000Z</time>
      </trkpt>
      <trkpt lat="44.10256" lon="7.02344">
        <ele>1706.1999511719</ele>
        <time>2020-08-22T09:52:13.000Z</time>
      </trkpt>
      <trkpt lat="44.10257" lon="7.02345">
        <ele>1706.4000244141</ele>
        <time>2020-08-22T09:52:14.000Z</time>
      </trkpt>
      <trkpt lat="44.10263" lon="7.02352">
        <ele>1707.1999511719</ele>
        <time>2020-08-22T09:52:20.000Z</time>
      </trkpt>
      <trkpt lat="44.10265" lon="7.02353">
        <ele>1707.4000244141</ele>
        <time>2020-08-22T09:52:21.000Z</time>
      </trkpt>
      <trkpt lat="44.10272" lon="7.02359">
        <ele>1708</ele>
        <time>2020-08-22T09:52:27.000Z</time>
      </trkpt>
      <trkpt lat="44.10276" lon="7.02361">
        <ele>1708.4000244141</ele>
        <time>2020-08-22T09:52:30.000Z</time>
      </trkpt>
      <trkpt lat="44.10282" lon="7.02366">
        <ele>1708.8000488281</ele>
        <time>2020-08-22T09:52:34.000Z</time>
      </trkpt>
      <trkpt lat="44.10289" lon="7.02373">
        <ele>1709.1999511719</ele>
        <time>2020-08-22T09:52:39.000Z</time>
      </trkpt>
      <trkpt lat="44.10292" lon="7.02376">
        <ele>1709.4000244141</ele>
        <time>2020-08-22T09:52:41.000Z</time>
      </trkpt>
      <trkpt lat="44.10303" lon="7.02384">
        <ele>1710.1999511719</ele>
        <time>2020-08-22T09:52:48.000Z</time>
      </trkpt>
      <trkpt lat="44.10308" lon="7.0239">
        <ele>1710.5999755859</ele>
        <time>2020-08-22T09:52:51.000Z</time>
      </trkpt>
      <trkpt lat="44.10312" lon="7.02395">
        <ele>1711</ele>
        <time>2020-08-22T09:52:54.000Z</time>
      </trkpt>
      <trkpt lat="44.10317" lon="7.02401">
        <ele>1711.8000488281</ele>
        <time>2020-08-22T09:52:58.000Z</time>
      </trkpt>
      <trkpt lat="44.1032" lon="7.02406">
        <ele>1712.1999511719</ele>
        <time>2020-08-22T09:53:01.000Z</time>
      </trkpt>
      <trkpt lat="44.10321" lon="7.02408">
        <ele>1712.4000244141</ele>
        <time>2020-08-22T09:53:02.000Z</time>
      </trkpt>
      <trkpt lat="44.10324" lon="7.02411">
        <ele>1712.8000488281</ele>
        <time>2020-08-22T09:53:05.000Z</time>
      </trkpt>
      <trkpt lat="44.10326" lon="7.02415">
        <ele>1713.4000244141</ele>
        <time>2020-08-22T09:53:07.000Z</time>
      </trkpt>
      <trkpt lat="44.1033" lon="7.0242">
        <ele>1713.8000488281</ele>
        <time>2020-08-22T09:53:10.000Z</time>
      </trkpt>
      <trkpt lat="44.10331" lon="7.02422">
        <ele>1714</ele>
        <time>2020-08-22T09:53:11.000Z</time>
      </trkpt>
      <trkpt lat="44.10335" lon="7.02428">
        <ele>1714.5999755859</ele>
        <time>2020-08-22T09:53:14.000Z</time>
      </trkpt>
      <trkpt lat="44.10336" lon="7.0243">
        <ele>1714.5999755859</ele>
        <time>2020-08-22T09:53:15.000Z</time>
      </trkpt>
      <trkpt lat="44.10338" lon="7.02434">
        <ele>1715</ele>
        <time>2020-08-22T09:53:17.000Z</time>
      </trkpt>
      <trkpt lat="44.1034" lon="7.02437">
        <ele>1715.4000244141</ele>
        <time>2020-08-22T09:53:19.000Z</time>
      </trkpt>
      <trkpt lat="44.10348" lon="7.02446">
        <ele>1716.1999511719</ele>
        <time>2020-08-22T09:53:24.000Z</time>
      </trkpt>
      <trkpt lat="44.10349" lon="7.02447">
        <ele>1716.4000244141</ele>
        <time>2020-08-22T09:53:25.000Z</time>
      </trkpt>
      <trkpt lat="44.1036" lon="7.02464">
        <ele>1716.8000488281</ele>
        <time>2020-08-22T09:53:32.000Z</time>
      </trkpt>
      <trkpt lat="44.10365" lon="7.02477">
        <ele>1717</ele>
        <time>2020-08-22T09:53:37.000Z</time>
      </trkpt>
      <trkpt lat="44.1037" lon="7.02491">
        <ele>1717.1999511719</ele>
        <time>2020-08-22T09:53:42.000Z</time>
      </trkpt>
      <trkpt lat="44.10377" lon="7.02508">
        <ele>1717.4000244141</ele>
        <time>2020-08-22T09:53:47.000Z</time>
      </trkpt>
      <trkpt lat="44.10383" lon="7.0254">
        <ele>1717.4000244141</ele>
        <time>2020-08-22T09:53:54.000Z</time>
      </trkpt>
      <trkpt lat="44.10393" lon="7.02577">
        <ele>1716.5999755859</ele>
        <time>2020-08-22T09:54:03.000Z</time>
      </trkpt>
      <trkpt lat="44.10402" lon="7.02597">
        <ele>1717.1999511719</ele>
        <time>2020-08-22T09:54:10.000Z</time>
      </trkpt>
      <trkpt lat="44.1041" lon="7.02606">
        <ele>1718.4000244141</ele>
        <time>2020-08-22T09:54:15.000Z</time>
      </trkpt>
      <trkpt lat="44.10413" lon="7.02609">
        <ele>1718.8000488281</ele>
        <time>2020-08-22T09:54:17.000Z</time>
      </trkpt>
      <trkpt lat="44.10417" lon="7.02612">
        <ele>1719.5999755859</ele>
        <time>2020-08-22T09:54:19.000Z</time>
      </trkpt>
      <trkpt lat="44.10424" lon="7.02615">
        <ele>1720.5999755859</ele>
        <time>2020-08-22T09:54:23.000Z</time>
      </trkpt>
      <trkpt lat="44.10427" lon="7.02617">
        <ele>1721</ele>
        <time>2020-08-22T09:54:25.000Z</time>
      </trkpt>
      <trkpt lat="44.10435" lon="7.02621">
        <ele>1721.8000488281</ele>
        <time>2020-08-22T09:54:30.000Z</time>
      </trkpt>
      <trkpt lat="44.10439" lon="7.02622">
        <ele>1722</ele>
        <time>2020-08-22T09:54:32.000Z</time>
      </trkpt>
      <trkpt lat="44.10446" lon="7.02624">
        <ele>1722.8000488281</ele>
        <time>2020-08-22T09:54:37.000Z</time>
      </trkpt>
      <trkpt lat="44.10448" lon="7.02624">
        <ele>1723</ele>
        <time>2020-08-22T09:54:38.000Z</time>
      </trkpt>
      <trkpt lat="44.10459" lon="7.02624">
        <ele>1723.8000488281</ele>
        <time>2020-08-22T09:54:44.000Z</time>
      </trkpt>
      <trkpt lat="44.10462" lon="7.02624">
        <ele>1724.1999511719</ele>
        <time>2020-08-22T09:54:46.000Z</time>
      </trkpt>
      <trkpt lat="44.10468" lon="7.02623">
        <ele>1724.8000488281</ele>
        <time>2020-08-22T09:54:50.000Z</time>
      </trkpt>
      <trkpt lat="44.10475" lon="7.02622">
        <ele>1725.8000488281</ele>
        <time>2020-08-22T09:54:54.000Z</time>
      </trkpt>
      <trkpt lat="44.10477" lon="7.02622">
        <ele>1726</ele>
        <time>2020-08-22T09:54:55.000Z</time>
      </trkpt>
      <trkpt lat="44.10492" lon="7.02618">
        <ele>1726.8000488281</ele>
        <time>2020-08-22T09:55:03.000Z</time>
      </trkpt>
      <trkpt lat="44.10496" lon="7.02618">
        <ele>1727</ele>
        <time>2020-08-22T09:55:05.000Z</time>
      </trkpt>
      <trkpt lat="44.10505" lon="7.02615">
        <ele>1728.1999511719</ele>
        <time>2020-08-22T09:55:10.000Z</time>
      </trkpt>
      <trkpt lat="44.1051" lon="7.02612">
        <ele>1729.4000244141</ele>
        <time>2020-08-22T09:55:13.000Z</time>
      </trkpt>
      <trkpt lat="44.10518" lon="7.0261">
        <ele>1730.1999511719</ele>
        <time>2020-08-22T09:55:17.000Z</time>
      </trkpt>
      <trkpt lat="44.1052" lon="7.0261">
        <ele>1730.5999755859</ele>
        <time>2020-08-22T09:55:19.000Z</time>
      </trkpt>
      <trkpt lat="44.10527" lon="7.0261">
        <ele>1731.5999755859</ele>
        <time>2020-08-22T09:55:24.000Z</time>
      </trkpt>
      <trkpt lat="44.10532" lon="7.02611">
        <ele>1732.8000488281</ele>
        <time>2020-08-22T09:55:28.000Z</time>
      </trkpt>
      <trkpt lat="44.10536" lon="7.02612">
        <ele>1734</ele>
        <time>2020-08-22T09:55:32.000Z</time>
      </trkpt>
      <trkpt lat="44.10543" lon="7.02613">
        <ele>1735</ele>
        <time>2020-08-22T09:55:38.000Z</time>
      </trkpt>
      <trkpt lat="44.10544" lon="7.02613">
        <ele>1735</ele>
        <time>2020-08-22T09:55:39.000Z</time>
      </trkpt>
      <trkpt lat="44.1055" lon="7.02616">
        <ele>1736.1999511719</ele>
        <time>2020-08-22T09:55:45.000Z</time>
      </trkpt>
      <trkpt lat="44.10553" lon="7.02617">
        <ele>1737.1999511719</ele>
        <time>2020-08-22T09:55:48.000Z</time>
      </trkpt>
      <trkpt lat="44.10556" lon="7.02618">
        <ele>1738</ele>
        <time>2020-08-22T09:55:51.000Z</time>
      </trkpt>
      <trkpt lat="44.10557" lon="7.02618">
        <ele>1738.1999511719</ele>
        <time>2020-08-22T09:55:52.000Z</time>
      </trkpt>
      <trkpt lat="44.10558" lon="7.02618">
        <ele>1738.4000244141</ele>
        <time>2020-08-22T09:55:53.000Z</time>
      </trkpt>
      <trkpt lat="44.10563" lon="7.0262">
        <ele>1739</ele>
        <time>2020-08-22T09:55:58.000Z</time>
      </trkpt>
      <trkpt lat="44.10566" lon="7.02621">
        <ele>1739.4000244141</ele>
        <time>2020-08-22T09:56:01.000Z</time>
      </trkpt>
      <trkpt lat="44.10569" lon="7.02622">
        <ele>1740</ele>
        <time>2020-08-22T09:56:04.000Z</time>
      </trkpt>
      <trkpt lat="44.10571" lon="7.02623">
        <ele>1740.4000244141</ele>
        <time>2020-08-22T09:56:06.000Z</time>
      </trkpt>
      <trkpt lat="44.10574" lon="7.02625">
        <ele>1741.1999511719</ele>
        <time>2020-08-22T09:56:10.000Z</time>
      </trkpt>
      <trkpt lat="44.10576" lon="7.02625">
        <ele>1741.4000244141</ele>
        <time>2020-08-22T09:56:12.000Z</time>
      </trkpt>
      <trkpt lat="44.10578" lon="7.02626">
        <ele>1741.8000488281</ele>
        <time>2020-08-22T09:56:14.000Z</time>
      </trkpt>
      <trkpt lat="44.1058" lon="7.02627">
        <ele>1741.8000488281</ele>
        <time>2020-08-22T09:56:16.000Z</time>
      </trkpt>
      <trkpt lat="44.10586" lon="7.0263">
        <ele>1742.5999755859</ele>
        <time>2020-08-22T09:56:21.000Z</time>
      </trkpt>
      <trkpt lat="44.10588" lon="7.02631">
        <ele>1743</ele>
        <time>2020-08-22T09:56:23.000Z</time>
      </trkpt>
      <trkpt lat="44.10594" lon="7.02634">
        <ele>1743.8000488281</ele>
        <time>2020-08-22T09:56:28.000Z</time>
      </trkpt>
      <trkpt lat="44.10596" lon="7.02635">
        <ele>1743.8000488281</ele>
        <time>2020-08-22T09:56:29.000Z</time>
      </trkpt>
      <trkpt lat="44.10603" lon="7.02638">
        <ele>1744.4000244141</ele>
        <time>2020-08-22T09:56:35.000Z</time>
      </trkpt>
      <trkpt lat="44.10606" lon="7.0264">
        <ele>1744.8000488281</ele>
        <time>2020-08-22T09:56:38.000Z</time>
      </trkpt>
      <trkpt lat="44.1061" lon="7.02641">
        <ele>1745.8000488281</ele>
        <time>2020-08-22T09:56:41.000Z</time>
      </trkpt>
      <trkpt lat="44.10611" lon="7.02642">
        <ele>1746</ele>
        <time>2020-08-22T09:56:42.000Z</time>
      </trkpt>
      <trkpt lat="44.10616" lon="7.02645">
        <ele>1746.8000488281</ele>
        <time>2020-08-22T09:56:46.000Z</time>
      </trkpt>
      <trkpt lat="44.10617" lon="7.02646">
        <ele>1747</ele>
        <time>2020-08-22T09:56:47.000Z</time>
      </trkpt>
      <trkpt lat="44.10618" lon="7.02646">
        <ele>1747.4000244141</ele>
        <time>2020-08-22T09:56:48.000Z</time>
      </trkpt>
      <trkpt lat="44.10624" lon="7.02647">
        <ele>1748</ele>
        <time>2020-08-22T09:56:52.000Z</time>
      </trkpt>
      <trkpt lat="44.10629" lon="7.02652">
        <ele>1748.5999755859</ele>
        <time>2020-08-22T09:56:57.000Z</time>
      </trkpt>
      <trkpt lat="44.10631" lon="7.02653">
        <ele>1749.1999511719</ele>
        <time>2020-08-22T09:56:59.000Z</time>
      </trkpt>
      <trkpt lat="44.10633" lon="7.02654">
        <ele>1749.5999755859</ele>
        <time>2020-08-22T09:57:01.000Z</time>
      </trkpt>
      <trkpt lat="44.10637" lon="7.02657">
        <ele>1750.1999511719</ele>
        <time>2020-08-22T09:57:05.000Z</time>
      </trkpt>
      <trkpt lat="44.10641" lon="7.0266">
        <ele>1750.5999755859</ele>
        <time>2020-08-22T09:57:09.000Z</time>
      </trkpt>
      <trkpt lat="44.10643" lon="7.02662">
        <ele>1751</ele>
        <time>2020-08-22T09:57:11.000Z</time>
      </trkpt>
      <trkpt lat="44.10647" lon="7.02667">
        <ele>1752</ele>
        <time>2020-08-22T09:57:15.000Z</time>
      </trkpt>
      <trkpt lat="44.10648" lon="7.02668">
        <ele>1752.4000244141</ele>
        <time>2020-08-22T09:57:16.000Z</time>
      </trkpt>
      <trkpt lat="44.10649" lon="7.02669">
        <ele>1752.5999755859</ele>
        <time>2020-08-22T09:57:17.000Z</time>
      </trkpt>
      <trkpt lat="44.10652" lon="7.0267">
        <ele>1753.1999511719</ele>
        <time>2020-08-22T09:57:19.000Z</time>
      </trkpt>
      <trkpt lat="44.10657" lon="7.02673">
        <ele>1753.8000488281</ele>
        <time>2020-08-22T09:57:23.000Z</time>
      </trkpt>
      <trkpt lat="44.10661" lon="7.02674">
        <ele>1754.1999511719</ele>
        <time>2020-08-22T09:57:26.000Z</time>
      </trkpt>
      <trkpt lat="44.10665" lon="7.02676">
        <ele>1754.8000488281</ele>
        <time>2020-08-22T09:57:30.000Z</time>
      </trkpt>
      <trkpt lat="44.10667" lon="7.02677">
        <ele>1755.4000244141</ele>
        <time>2020-08-22T09:57:32.000Z</time>
      </trkpt>
      <trkpt lat="44.10672" lon="7.02677">
        <ele>1756</ele>
        <time>2020-08-22T09:57:36.000Z</time>
      </trkpt>
      <trkpt lat="44.10677" lon="7.02678">
        <ele>1756.4000244141</ele>
        <time>2020-08-22T09:57:40.000Z</time>
      </trkpt>
      <trkpt lat="44.10681" lon="7.02678">
        <ele>1756.8000488281</ele>
        <time>2020-08-22T09:57:43.000Z</time>
      </trkpt>
      <trkpt lat="44.10688" lon="7.02679">
        <ele>1757.4000244141</ele>
        <time>2020-08-22T09:57:48.000Z</time>
      </trkpt>
      <trkpt lat="44.10689" lon="7.02679">
        <ele>1757.5999755859</ele>
        <time>2020-08-22T09:57:49.000Z</time>
      </trkpt>
      <trkpt lat="44.10694" lon="7.02679">
        <ele>1758.4000244141</ele>
        <time>2020-08-22T09:57:52.000Z</time>
      </trkpt>
      <trkpt lat="44.107" lon="7.02678">
        <ele>1759</ele>
        <time>2020-08-22T09:57:56.000Z</time>
      </trkpt>
      <trkpt lat="44.10708" lon="7.02677">
        <ele>1759.5999755859</ele>
        <time>2020-08-22T09:58:01.000Z</time>
      </trkpt>
      <trkpt lat="44.10716" lon="7.02677">
        <ele>1760.5999755859</ele>
        <time>2020-08-22T09:58:07.000Z</time>
      </trkpt>
      <trkpt lat="44.10718" lon="7.02678">
        <ele>1760.8000488281</ele>
        <time>2020-08-22T09:58:08.000Z</time>
      </trkpt>
      <trkpt lat="44.10722" lon="7.02679">
        <ele>1761.5999755859</ele>
        <time>2020-08-22T09:58:12.000Z</time>
      </trkpt>
      <trkpt lat="44.10726" lon="7.0268">
        <ele>1762.1999511719</ele>
        <time>2020-08-22T09:58:15.000Z</time>
      </trkpt>
      <trkpt lat="44.10732" lon="7.02683">
        <ele>1762.5999755859</ele>
        <time>2020-08-22T09:58:20.000Z</time>
      </trkpt>
      <trkpt lat="44.10735" lon="7.02685">
        <ele>1762.8000488281</ele>
        <time>2020-08-22T09:58:22.000Z</time>
      </trkpt>
      <trkpt lat="44.10748" lon="7.02689">
        <ele>1763.1999511719</ele>
        <time>2020-08-22T09:58:29.000Z</time>
      </trkpt>
      <trkpt lat="44.10755" lon="7.0269">
        <ele>1763.8000488281</ele>
        <time>2020-08-22T09:58:33.000Z</time>
      </trkpt>
      <trkpt lat="44.10762" lon="7.0269">
        <ele>1764.1999511719</ele>
        <time>2020-08-22T09:58:37.000Z</time>
      </trkpt>
      <trkpt lat="44.10768" lon="7.0269">
        <ele>1764.8000488281</ele>
        <time>2020-08-22T09:58:41.000Z</time>
      </trkpt>
      <trkpt lat="44.10772" lon="7.0269">
        <ele>1765.5999755859</ele>
        <time>2020-08-22T09:58:44.000Z</time>
      </trkpt>
      <trkpt lat="44.10773" lon="7.02689">
        <ele>1766</ele>
        <time>2020-08-22T09:58:45.000Z</time>
      </trkpt>
      <trkpt lat="44.10782" lon="7.02688">
        <ele>1767</ele>
        <time>2020-08-22T09:58:51.000Z</time>
      </trkpt>
      <trkpt lat="44.10784" lon="7.02687">
        <ele>1767.1999511719</ele>
        <time>2020-08-22T09:58:52.000Z</time>
      </trkpt>
      <trkpt lat="44.10788" lon="7.02687">
        <ele>1768</ele>
        <time>2020-08-22T09:58:56.000Z</time>
      </trkpt>
      <trkpt lat="44.10792" lon="7.02687">
        <ele>1768.8000488281</ele>
        <time>2020-08-22T09:58:59.000Z</time>
      </trkpt>
      <trkpt lat="44.10796" lon="7.02686">
        <ele>1769.1999511719</ele>
        <time>2020-08-22T09:59:01.000Z</time>
      </trkpt>
      <trkpt lat="44.108" lon="7.02685">
        <ele>1770.1999511719</ele>
        <time>2020-08-22T09:59:05.000Z</time>
      </trkpt>
      <trkpt lat="44.10806" lon="7.02683">
        <ele>1771.4000244141</ele>
        <time>2020-08-22T09:59:10.000Z</time>
      </trkpt>
      <trkpt lat="44.10808" lon="7.02683">
        <ele>1771.4000244141</ele>
        <time>2020-08-22T09:59:11.000Z</time>
      </trkpt>
      <trkpt lat="44.10815" lon="7.0268">
        <ele>1772.4000244141</ele>
        <time>2020-08-22T09:59:17.000Z</time>
      </trkpt>
      <trkpt lat="44.10817" lon="7.02678">
        <ele>1773</ele>
        <time>2020-08-22T09:59:19.000Z</time>
      </trkpt>
      <trkpt lat="44.10818" lon="7.02678">
        <ele>1773.4000244141</ele>
        <time>2020-08-22T09:59:20.000Z</time>
      </trkpt>
      <trkpt lat="44.10821" lon="7.02677">
        <ele>1774.5999755859</ele>
        <time>2020-08-22T09:59:23.000Z</time>
      </trkpt>
      <trkpt lat="44.10826" lon="7.02676">
        <ele>1775.4000244141</ele>
        <time>2020-08-22T09:59:27.000Z</time>
      </trkpt>
      <trkpt lat="44.10828" lon="7.02675">
        <ele>1775.5999755859</ele>
        <time>2020-08-22T09:59:29.000Z</time>
      </trkpt>
      <trkpt lat="44.10833" lon="7.02673">
        <ele>1776.1999511719</ele>
        <time>2020-08-22T09:59:34.000Z</time>
      </trkpt>
      <trkpt lat="44.10836" lon="7.02671">
        <ele>1776.8000488281</ele>
        <time>2020-08-22T09:59:37.000Z</time>
      </trkpt>
      <trkpt lat="44.1084" lon="7.02666">
        <ele>1777.4000244141</ele>
        <time>2020-08-22T09:59:41.000Z</time>
      </trkpt>
      <trkpt lat="44.10843" lon="7.02663">
        <ele>1777.8000488281</ele>
        <time>2020-08-22T09:59:44.000Z</time>
      </trkpt>
      <trkpt lat="44.10847" lon="7.02659">
        <ele>1778.4000244141</ele>
        <time>2020-08-22T09:59:48.000Z</time>
      </trkpt>
      <trkpt lat="44.10849" lon="7.02656">
        <ele>1779</ele>
        <time>2020-08-22T09:59:51.000Z</time>
      </trkpt>
      <trkpt lat="44.10851" lon="7.02651">
        <ele>1780</ele>
        <time>2020-08-22T09:59:55.000Z</time>
      </trkpt>
      <trkpt lat="44.10852" lon="7.0265">
        <ele>1780.1999511719</ele>
        <time>2020-08-22T09:59:56.000Z</time>
      </trkpt>
      <trkpt lat="44.10855" lon="7.02642">
        <ele>1781.4000244141</ele>
        <time>2020-08-22T10:00:02.000Z</time>
      </trkpt>
      <trkpt lat="44.10859" lon="7.0263">
        <ele>1782.1999511719</ele>
        <time>2020-08-22T10:00:10.000Z</time>
      </trkpt>
      <trkpt lat="44.10859" lon="7.02626">
        <ele>1782.4000244141</ele>
        <time>2020-08-22T10:00:12.000Z</time>
      </trkpt>
      <trkpt lat="44.1086" lon="7.02618">
        <ele>1783.5999755859</ele>
        <time>2020-08-22T10:00:17.000Z</time>
      </trkpt>
      <trkpt lat="44.1086" lon="7.02617">
        <ele>1783.8000488281</ele>
        <time>2020-08-22T10:00:18.000Z</time>
      </trkpt>
      <trkpt lat="44.1086" lon="7.02605">
        <ele>1784.5999755859</ele>
        <time>2020-08-22T10:00:25.000Z</time>
      </trkpt>
      <trkpt lat="44.1086" lon="7.02603">
        <ele>1784.5999755859</ele>
        <time>2020-08-22T10:00:26.000Z</time>
      </trkpt>
      <trkpt lat="44.1086" lon="7.02592">
        <ele>1786</ele>
        <time>2020-08-22T10:00:32.000Z</time>
      </trkpt>
      <trkpt lat="44.1086" lon="7.02577">
        <ele>1786.8000488281</ele>
        <time>2020-08-22T10:00:42.000Z</time>
      </trkpt>
      <trkpt lat="44.1086" lon="7.02576">
        <ele>1787</ele>
        <time>2020-08-22T10:00:43.000Z</time>
      </trkpt>
      <trkpt lat="44.1086" lon="7.02574">
        <ele>1787.1999511719</ele>
        <time>2020-08-22T10:00:44.000Z</time>
      </trkpt>
      <trkpt lat="44.1086" lon="7.0257">
        <ele>1788.1999511719</ele>
        <time>2020-08-22T10:00:47.000Z</time>
      </trkpt>
      <trkpt lat="44.10861" lon="7.02568">
        <ele>1788.5999755859</ele>
        <time>2020-08-22T10:00:48.000Z</time>
      </trkpt>
      <trkpt lat="44.10864" lon="7.0256">
        <ele>1789.1999511719</ele>
        <time>2020-08-22T10:00:55.000Z</time>
      </trkpt>
      <trkpt lat="44.10865" lon="7.02559">
        <ele>1789.4000244141</ele>
        <time>2020-08-22T10:00:56.000Z</time>
      </trkpt>
      <trkpt lat="44.1087" lon="7.02553">
        <ele>1790.1999511719</ele>
        <time>2020-08-22T10:01:03.000Z</time>
      </trkpt>
      <trkpt lat="44.10871" lon="7.02552">
        <ele>1790.4000244141</ele>
        <time>2020-08-22T10:01:04.000Z</time>
      </trkpt>
      <trkpt lat="44.10876" lon="7.02547">
        <ele>1791.4000244141</ele>
        <time>2020-08-22T10:01:10.000Z</time>
      </trkpt>
      <trkpt lat="44.10877" lon="7.02544">
        <ele>1791.8000488281</ele>
        <time>2020-08-22T10:01:12.000Z</time>
      </trkpt>
      <trkpt lat="44.1088" lon="7.02542">
        <ele>1792.1999511719</ele>
        <time>2020-08-22T10:01:15.000Z</time>
      </trkpt>
      <trkpt lat="44.10882" lon="7.02537">
        <ele>1792.4000244141</ele>
        <time>2020-08-22T10:01:18.000Z</time>
      </trkpt>
      <trkpt lat="44.10883" lon="7.02536">
        <ele>1792.4000244141</ele>
        <time>2020-08-22T10:01:19.000Z</time>
      </trkpt>
      <trkpt lat="44.10886" lon="7.02529">
        <ele>1793</ele>
        <time>2020-08-22T10:01:24.000Z</time>
      </trkpt>
      <trkpt lat="44.1089" lon="7.02523">
        <ele>1793.5999755859</ele>
        <time>2020-08-22T10:01:29.000Z</time>
      </trkpt>
      <trkpt lat="44.10892" lon="7.02519">
        <ele>1793.8000488281</ele>
        <time>2020-08-22T10:01:31.000Z</time>
      </trkpt>
      <trkpt lat="44.10895" lon="7.02513">
        <ele>1794.5999755859</ele>
        <time>2020-08-22T10:01:35.000Z</time>
      </trkpt>
      <trkpt lat="44.10899" lon="7.02508">
        <ele>1794.8000488281</ele>
        <time>2020-08-22T10:01:39.000Z</time>
      </trkpt>
      <trkpt lat="44.10903" lon="7.025">
        <ele>1795.5999755859</ele>
        <time>2020-08-22T10:01:44.000Z</time>
      </trkpt>
      <trkpt lat="44.10905" lon="7.02498">
        <ele>1795.8000488281</ele>
        <time>2020-08-22T10:01:46.000Z</time>
      </trkpt>
      <trkpt lat="44.10912" lon="7.02484">
        <ele>1796.5999755859</ele>
        <time>2020-08-22T10:01:55.000Z</time>
      </trkpt>
      <trkpt lat="44.10916" lon="7.02475">
        <ele>1797.4000244141</ele>
        <time>2020-08-22T10:02:01.000Z</time>
      </trkpt>
      <trkpt lat="44.10917" lon="7.02473">
        <ele>1797.8000488281</ele>
        <time>2020-08-22T10:02:02.000Z</time>
      </trkpt>
      <trkpt lat="44.10922" lon="7.0246">
        <ele>1798.5999755859</ele>
        <time>2020-08-22T10:02:10.000Z</time>
      </trkpt>
      <trkpt lat="44.10924" lon="7.02457">
        <ele>1798.8000488281</ele>
        <time>2020-08-22T10:02:12.000Z</time>
      </trkpt>
      <trkpt lat="44.10933" lon="7.02438">
        <ele>1799.5999755859</ele>
        <time>2020-08-22T10:02:21.000Z</time>
      </trkpt>
      <trkpt lat="44.1094" lon="7.02423">
        <ele>1799.8000488281</ele>
        <time>2020-08-22T10:02:28.000Z</time>
      </trkpt>
      <trkpt lat="44.10942" lon="7.02418">
        <ele>1800</ele>
        <time>2020-08-22T10:02:30.000Z</time>
      </trkpt>
      <trkpt lat="44.10948" lon="7.02402">
        <ele>1800</ele>
        <time>2020-08-22T10:02:36.000Z</time>
      </trkpt>
      <trkpt lat="44.10956" lon="7.02377">
        <ele>1800.5999755859</ele>
        <time>2020-08-22T10:02:46.000Z</time>
      </trkpt>
      <trkpt lat="44.10959" lon="7.02364">
        <ele>1801</ele>
        <time>2020-08-22T10:02:51.000Z</time>
      </trkpt>
      <trkpt lat="44.10963" lon="7.02352">
        <ele>1801.5999755859</ele>
        <time>2020-08-22T10:02:56.000Z</time>
      </trkpt>
      <trkpt lat="44.10968" lon="7.02326">
        <ele>1801.5999755859</ele>
        <time>2020-08-22T10:03:04.000Z</time>
      </trkpt>
      <trkpt lat="44.10975" lon="7.023">
        <ele>1801.8000488281</ele>
        <time>2020-08-22T10:03:12.000Z</time>
      </trkpt>
      <trkpt lat="44.10978" lon="7.02295">
        <ele>1802</ele>
        <time>2020-08-22T10:03:14.000Z</time>
      </trkpt>
      <trkpt lat="44.10982" lon="7.0229">
        <ele>1802</ele>
        <time>2020-08-22T10:03:16.000Z</time>
      </trkpt>
      <trkpt lat="44.10986" lon="7.02285">
        <ele>1802.1999511719</ele>
        <time>2020-08-22T10:03:18.000Z</time>
      </trkpt>
      <trkpt lat="44.10991" lon="7.02278">
        <ele>1802.5999755859</ele>
        <time>2020-08-22T10:03:21.000Z</time>
      </trkpt>
      <trkpt lat="44.10997" lon="7.02267">
        <ele>1803</ele>
        <time>2020-08-22T10:03:26.000Z</time>
      </trkpt>
      <trkpt lat="44.10999" lon="7.02264">
        <ele>1803.4000244141</ele>
        <time>2020-08-22T10:03:28.000Z</time>
      </trkpt>
      <trkpt lat="44.11004" lon="7.02256">
        <ele>1804.1999511719</ele>
        <time>2020-08-22T10:03:32.000Z</time>
      </trkpt>
      <trkpt lat="44.11013" lon="7.02249">
        <ele>1804.4000244141</ele>
        <time>2020-08-22T10:03:36.000Z</time>
      </trkpt>
      <trkpt lat="44.11022" lon="7.02244">
        <ele>1805</ele>
        <time>2020-08-22T10:03:42.000Z</time>
      </trkpt>
      <trkpt lat="44.11024" lon="7.02243">
        <ele>1805.1999511719</ele>
        <time>2020-08-22T10:03:43.000Z</time>
      </trkpt>
      <trkpt lat="44.11033" lon="7.02237">
        <ele>1805.5999755859</ele>
        <time>2020-08-22T10:03:47.000Z</time>
      </trkpt>
      <trkpt lat="44.11038" lon="7.02232">
        <ele>1806.4000244141</ele>
        <time>2020-08-22T10:03:52.000Z</time>
      </trkpt>
      <trkpt lat="44.11039" lon="7.02231">
        <ele>1806.8000488281</ele>
        <time>2020-08-22T10:03:53.000Z</time>
      </trkpt>
      <trkpt lat="44.11041" lon="7.02229">
        <ele>1807.4000244141</ele>
        <time>2020-08-22T10:03:55.000Z</time>
      </trkpt>
      <trkpt lat="44.11042" lon="7.02229">
        <ele>1807.5999755859</ele>
        <time>2020-08-22T10:03:56.000Z</time>
      </trkpt>
      <trkpt lat="44.11043" lon="7.02229">
        <ele>1807.8000488281</ele>
        <time>2020-08-22T10:03:57.000Z</time>
      </trkpt>
      <trkpt lat="44.11047" lon="7.02227">
        <ele>1808</ele>
        <time>2020-08-22T10:04:00.000Z</time>
      </trkpt>
      <trkpt lat="44.11052" lon="7.02225">
        <ele>1808.1999511719</ele>
        <time>2020-08-22T10:04:04.000Z</time>
      </trkpt>
      <trkpt lat="44.11054" lon="7.02224">
        <ele>1808.5999755859</ele>
        <time>2020-08-22T10:04:06.000Z</time>
      </trkpt>
      <trkpt lat="44.11059" lon="7.02222">
        <ele>1809.4000244141</ele>
        <time>2020-08-22T10:04:10.000Z</time>
      </trkpt>
      <trkpt lat="44.11061" lon="7.02221">
        <ele>1809.8000488281</ele>
        <time>2020-08-22T10:04:11.000Z</time>
      </trkpt>
      <trkpt lat="44.11065" lon="7.0222">
        <ele>1811</ele>
        <time>2020-08-22T10:04:15.000Z</time>
      </trkpt>
      <trkpt lat="44.11067" lon="7.02219">
        <ele>1811.4000244141</ele>
        <time>2020-08-22T10:04:17.000Z</time>
      </trkpt>
      <trkpt lat="44.11073" lon="7.02216">
        <ele>1812.4000244141</ele>
        <time>2020-08-22T10:04:22.000Z</time>
      </trkpt>
      <trkpt lat="44.11074" lon="7.02216">
        <ele>1812.4000244141</ele>
        <time>2020-08-22T10:04:23.000Z</time>
      </trkpt>
      <trkpt lat="44.11078" lon="7.02215">
        <ele>1813.5999755859</ele>
        <time>2020-08-22T10:04:26.000Z</time>
      </trkpt>
      <trkpt lat="44.11081" lon="7.02214">
        <ele>1814.1999511719</ele>
        <time>2020-08-22T10:04:29.000Z</time>
      </trkpt>
      <trkpt lat="44.11082" lon="7.02212">
        <ele>1814.5999755859</ele>
        <time>2020-08-22T10:04:31.000Z</time>
      </trkpt>
      <trkpt lat="44.11085" lon="7.02209">
        <ele>1815.4000244141</ele>
        <time>2020-08-22T10:04:35.000Z</time>
      </trkpt>
      <trkpt lat="44.11086" lon="7.02208">
        <ele>1815.8000488281</ele>
        <time>2020-08-22T10:04:36.000Z</time>
      </trkpt>
      <trkpt lat="44.11091" lon="7.02201">
        <ele>1816.8000488281</ele>
        <time>2020-08-22T10:04:42.000Z</time>
      </trkpt>
      <trkpt lat="44.11099" lon="7.02191">
        <ele>1817.5999755859</ele>
        <time>2020-08-22T10:04:50.000Z</time>
      </trkpt>
      <trkpt lat="44.11113" lon="7.02176">
        <ele>1817.8000488281</ele>
        <time>2020-08-22T10:04:59.000Z</time>
      </trkpt>
      <trkpt lat="44.11121" lon="7.02167">
        <ele>1818.5999755859</ele>
        <time>2020-08-22T10:05:05.000Z</time>
      </trkpt>
      <trkpt lat="44.11124" lon="7.02165">
        <ele>1818.8000488281</ele>
        <time>2020-08-22T10:05:07.000Z</time>
      </trkpt>
      <trkpt lat="44.11129" lon="7.02161">
        <ele>1819.4000244141</ele>
        <time>2020-08-22T10:05:11.000Z</time>
      </trkpt>
      <trkpt lat="44.11135" lon="7.02153">
        <ele>1819.8000488281</ele>
        <time>2020-08-22T10:05:17.000Z</time>
      </trkpt>
      <trkpt lat="44.11135" lon="7.02151">
        <ele>1820.1999511719</ele>
        <time>2020-08-22T10:05:18.000Z</time>
      </trkpt>
      <trkpt lat="44.11138" lon="7.02147">
        <ele>1821.1999511719</ele>
        <time>2020-08-22T10:05:21.000Z</time>
      </trkpt>
      <trkpt lat="44.11142" lon="7.0214">
        <ele>1822.1999511719</ele>
        <time>2020-08-22T10:05:26.000Z</time>
      </trkpt>
      <trkpt lat="44.11152" lon="7.02129">
        <ele>1823</ele>
        <time>2020-08-22T10:05:33.000Z</time>
      </trkpt>
      <trkpt lat="44.11157" lon="7.02121">
        <ele>1823.1999511719</ele>
        <time>2020-08-22T10:05:38.000Z</time>
      </trkpt>
      <trkpt lat="44.11157" lon="7.02119">
        <ele>1823.1999511719</ele>
        <time>2020-08-22T10:05:39.000Z</time>
      </trkpt>
      <trkpt lat="44.11161" lon="7.02114">
        <ele>1823.8000488281</ele>
        <time>2020-08-22T10:05:43.000Z</time>
      </trkpt>
      <trkpt lat="44.11164" lon="7.02109">
        <ele>1824.4000244141</ele>
        <time>2020-08-22T10:05:47.000Z</time>
      </trkpt>
      <trkpt lat="44.11169" lon="7.02104">
        <ele>1824.8000488281</ele>
        <time>2020-08-22T10:05:51.000Z</time>
      </trkpt>
      <trkpt lat="44.11175" lon="7.02098">
        <ele>1825.4000244141</ele>
        <time>2020-08-22T10:05:56.000Z</time>
      </trkpt>
      <trkpt lat="44.11179" lon="7.02093">
        <ele>1826</ele>
        <time>2020-08-22T10:06:00.000Z</time>
      </trkpt>
      <trkpt lat="44.11184" lon="7.02086">
        <ele>1826.4000244141</ele>
        <time>2020-08-22T10:06:05.000Z</time>
      </trkpt>
      <trkpt lat="44.11185" lon="7.02085">
        <ele>1826.5999755859</ele>
        <time>2020-08-22T10:06:06.000Z</time>
      </trkpt>
      <trkpt lat="44.11189" lon="7.0208">
        <ele>1827.4000244141</ele>
        <time>2020-08-22T10:06:11.000Z</time>
      </trkpt>
      <trkpt lat="44.11191" lon="7.02078">
        <ele>1828</ele>
        <time>2020-08-22T10:06:13.000Z</time>
      </trkpt>
      <trkpt lat="44.11192" lon="7.02076">
        <ele>1828.5999755859</ele>
        <time>2020-08-22T10:06:15.000Z</time>
      </trkpt>
      <trkpt lat="44.11195" lon="7.02073">
        <ele>1829.5999755859</ele>
        <time>2020-08-22T10:06:19.000Z</time>
      </trkpt>
      <trkpt lat="44.11196" lon="7.02072">
        <ele>1829.5999755859</ele>
        <time>2020-08-22T10:06:20.000Z</time>
      </trkpt>
      <trkpt lat="44.112" lon="7.02067">
        <ele>1830</ele>
        <time>2020-08-22T10:06:25.000Z</time>
      </trkpt>
      <trkpt lat="44.11204" lon="7.02063">
        <ele>1830.5999755859</ele>
        <time>2020-08-22T10:06:29.000Z</time>
      </trkpt>
      <trkpt lat="44.11207" lon="7.0206">
        <ele>1831.1999511719</ele>
        <time>2020-08-22T10:06:32.000Z</time>
      </trkpt>
      <trkpt lat="44.11209" lon="7.02057">
        <ele>1831.8000488281</ele>
        <time>2020-08-22T10:06:36.000Z</time>
      </trkpt>
      <trkpt lat="44.11212" lon="7.02054">
        <ele>1832</ele>
        <time>2020-08-22T10:06:39.000Z</time>
      </trkpt>
      <trkpt lat="44.11217" lon="7.02049">
        <ele>1832.8000488281</ele>
        <time>2020-08-22T10:06:45.000Z</time>
      </trkpt>
      <trkpt lat="44.11218" lon="7.02048">
        <ele>1833</ele>
        <time>2020-08-22T10:06:46.000Z</time>
      </trkpt>
      <trkpt lat="44.11221" lon="7.02045">
        <ele>1833.8000488281</ele>
        <time>2020-08-22T10:06:49.000Z</time>
      </trkpt>
      <trkpt lat="44.11224" lon="7.0204">
        <ele>1834.5999755859</ele>
        <time>2020-08-22T10:06:53.000Z</time>
      </trkpt>
      <trkpt lat="44.11225" lon="7.0204">
        <ele>1834.8000488281</ele>
        <time>2020-08-22T10:06:54.000Z</time>
      </trkpt>
      <trkpt lat="44.11228" lon="7.02035">
        <ele>1835.8000488281</ele>
        <time>2020-08-22T10:06:59.000Z</time>
      </trkpt>
      <trkpt lat="44.11229" lon="7.02034">
        <ele>1836</ele>
        <time>2020-08-22T10:07:00.000Z</time>
      </trkpt>
      <trkpt lat="44.11235" lon="7.02028">
        <ele>1836.5999755859</ele>
        <time>2020-08-22T10:07:05.000Z</time>
      </trkpt>
      <trkpt lat="44.11238" lon="7.02026">
        <ele>1836.8000488281</ele>
        <time>2020-08-22T10:07:07.000Z</time>
      </trkpt>
      <trkpt lat="44.11238" lon="7.02024">
        <ele>1836.8000488281</ele>
        <time>2020-08-22T10:07:08.000Z</time>
      </trkpt>
      <trkpt lat="44.11238" lon="7.02023">
        <ele>1837</ele>
        <time>2020-08-22T10:07:09.000Z</time>
      </trkpt>
      <trkpt lat="44.11238" lon="7.02022">
        <ele>1837</ele>
        <time>2020-08-22T10:07:10.000Z</time>
      </trkpt>
      <trkpt lat="44.11247" lon="7.02014">
        <ele>1837.5999755859</ele>
        <time>2020-08-22T10:07:17.000Z</time>
      </trkpt>
      <trkpt lat="44.11248" lon="7.02012">
        <ele>1837.8000488281</ele>
        <time>2020-08-22T10:07:18.000Z</time>
      </trkpt>
      <trkpt lat="44.11252" lon="7.02009">
        <ele>1838</ele>
        <time>2020-08-22T10:07:21.000Z</time>
      </trkpt>
      <trkpt lat="44.11253" lon="7.02008">
        <ele>1838.4000244141</ele>
        <time>2020-08-22T10:07:22.000Z</time>
      </trkpt>
      <trkpt lat="44.11256" lon="7.02005">
        <ele>1839.4000244141</ele>
        <time>2020-08-22T10:07:25.000Z</time>
      </trkpt>
      <trkpt lat="44.11258" lon="7.02002">
        <ele>1839.8000488281</ele>
        <time>2020-08-22T10:07:27.000Z</time>
      </trkpt>
      <trkpt lat="44.11259" lon="7.02">
        <ele>1840.4000244141</ele>
        <time>2020-08-22T10:07:29.000Z</time>
      </trkpt>
      <trkpt lat="44.11261" lon="7.01998">
        <ele>1840.8000488281</ele>
        <time>2020-08-22T10:07:32.000Z</time>
      </trkpt>
      <trkpt lat="44.11264" lon="7.01993">
        <ele>1841.5999755859</ele>
        <time>2020-08-22T10:07:36.000Z</time>
      </trkpt>
      <trkpt lat="44.11266" lon="7.01991">
        <ele>1841.8000488281</ele>
        <time>2020-08-22T10:07:38.000Z</time>
      </trkpt>
      <trkpt lat="44.11269" lon="7.01988">
        <ele>1842.5999755859</ele>
        <time>2020-08-22T10:07:41.000Z</time>
      </trkpt>
      <trkpt lat="44.11272" lon="7.01984">
        <ele>1843.5999755859</ele>
        <time>2020-08-22T10:07:44.000Z</time>
      </trkpt>
      <trkpt lat="44.11272" lon="7.01982">
        <ele>1843.8000488281</ele>
        <time>2020-08-22T10:07:45.000Z</time>
      </trkpt>
      <trkpt lat="44.11276" lon="7.01977">
        <ele>1844.5999755859</ele>
        <time>2020-08-22T10:07:50.000Z</time>
      </trkpt>
      <trkpt lat="44.1128" lon="7.01973">
        <ele>1844.8000488281</ele>
        <time>2020-08-22T10:07:53.000Z</time>
      </trkpt>
      <trkpt lat="44.11284" lon="7.01969">
        <ele>1845.4000244141</ele>
        <time>2020-08-22T10:07:57.000Z</time>
      </trkpt>
      <trkpt lat="44.11288" lon="7.01965">
        <ele>1845.8000488281</ele>
        <time>2020-08-22T10:08:01.000Z</time>
      </trkpt>
      <trkpt lat="44.11291" lon="7.01961">
        <ele>1846.4000244141</ele>
        <time>2020-08-22T10:08:05.000Z</time>
      </trkpt>
      <trkpt lat="44.11294" lon="7.01955">
        <ele>1846.8000488281</ele>
        <time>2020-08-22T10:08:09.000Z</time>
      </trkpt>
      <trkpt lat="44.11297" lon="7.01951">
        <ele>1847.1999511719</ele>
        <time>2020-08-22T10:08:12.000Z</time>
      </trkpt>
      <trkpt lat="44.113" lon="7.01947">
        <ele>1847.8000488281</ele>
        <time>2020-08-22T10:08:15.000Z</time>
      </trkpt>
      <trkpt lat="44.113" lon="7.01947">
        <ele>1848</ele>
        <time>2020-08-22T10:08:16.000Z</time>
      </trkpt>
      <trkpt lat="44.11302" lon="7.01945">
        <ele>1848</ele>
        <time>2020-08-22T10:08:17.000Z</time>
      </trkpt>
      <trkpt lat="44.11303" lon="7.01943">
        <ele>1848.1999511719</ele>
        <time>2020-08-22T10:08:18.000Z</time>
      </trkpt>
      <trkpt lat="44.11307" lon="7.01933">
        <ele>1849</ele>
        <time>2020-08-22T10:08:24.000Z</time>
      </trkpt>
      <trkpt lat="44.11308" lon="7.01928">
        <ele>1849.8000488281</ele>
        <time>2020-08-22T10:08:27.000Z</time>
      </trkpt>
      <trkpt lat="44.11308" lon="7.01926">
        <ele>1850</ele>
        <time>2020-08-22T10:08:28.000Z</time>
      </trkpt>
      <trkpt lat="44.11312" lon="7.01917">
        <ele>1851.1999511719</ele>
        <time>2020-08-22T10:08:34.000Z</time>
      </trkpt>
      <trkpt lat="44.11313" lon="7.01915">
        <ele>1851.4000244141</ele>
        <time>2020-08-22T10:08:35.000Z</time>
      </trkpt>
      <trkpt lat="44.11316" lon="7.01908">
        <ele>1852.1999511719</ele>
        <time>2020-08-22T10:08:39.000Z</time>
      </trkpt>
      <trkpt lat="44.11319" lon="7.01904">
        <ele>1852.5999755859</ele>
        <time>2020-08-22T10:08:42.000Z</time>
      </trkpt>
      <trkpt lat="44.11319" lon="7.01903">
        <ele>1852.8000488281</ele>
        <time>2020-08-22T10:08:43.000Z</time>
      </trkpt>
      <trkpt lat="44.11322" lon="7.01897">
        <ele>1852.8000488281</ele>
        <time>2020-08-22T10:08:47.000Z</time>
      </trkpt>
      <trkpt lat="44.11326" lon="7.01891">
        <ele>1853</ele>
        <time>2020-08-22T10:08:50.000Z</time>
      </trkpt>
      <trkpt lat="44.11327" lon="7.01887">
        <ele>1853.1999511719</ele>
        <time>2020-08-22T10:08:52.000Z</time>
      </trkpt>
      <trkpt lat="44.11327" lon="7.01885">
        <ele>1853.4000244141</ele>
        <time>2020-08-22T10:08:53.000Z</time>
      </trkpt>
      <trkpt lat="44.11329" lon="7.01879">
        <ele>1854</ele>
        <time>2020-08-22T10:08:56.000Z</time>
      </trkpt>
      <trkpt lat="44.1133" lon="7.01875">
        <ele>1854.1999511719</ele>
        <time>2020-08-22T10:08:58.000Z</time>
      </trkpt>
      <trkpt lat="44.11331" lon="7.01871">
        <ele>1854.4000244141</ele>
        <time>2020-08-22T10:09:00.000Z</time>
      </trkpt>
      <trkpt lat="44.11333" lon="7.0186">
        <ele>1855.1999511719</ele>
        <time>2020-08-22T10:09:06.000Z</time>
      </trkpt>
      <trkpt lat="44.11332" lon="7.01853">
        <ele>1855.4000244141</ele>
        <time>2020-08-22T10:09:09.000Z</time>
      </trkpt>
      <trkpt lat="44.11332" lon="7.01852">
        <ele>1855.5999755859</ele>
        <time>2020-08-22T10:09:10.000Z</time>
      </trkpt>
      <trkpt lat="44.11332" lon="7.01847">
        <ele>1856.1999511719</ele>
        <time>2020-08-22T10:09:13.000Z</time>
      </trkpt>
      <trkpt lat="44.11333" lon="7.01843">
        <ele>1856.5999755859</ele>
        <time>2020-08-22T10:09:15.000Z</time>
      </trkpt>
      <trkpt lat="44.11333" lon="7.01835">
        <ele>1857.4000244141</ele>
        <time>2020-08-22T10:09:20.000Z</time>
      </trkpt>
      <trkpt lat="44.11333" lon="7.01829">
        <ele>1857.5999755859</ele>
        <time>2020-08-22T10:09:23.000Z</time>
      </trkpt>
      <trkpt lat="44.11335" lon="7.01816">
        <ele>1858.4000244141</ele>
        <time>2020-08-22T10:09:30.000Z</time>
      </trkpt>
      <trkpt lat="44.11335" lon="7.01814">
        <ele>1858.5999755859</ele>
        <time>2020-08-22T10:09:31.000Z</time>
      </trkpt>
      <trkpt lat="44.11335" lon="7.01811">
        <ele>1859</ele>
        <time>2020-08-22T10:09:33.000Z</time>
      </trkpt>
      <trkpt lat="44.11335" lon="7.01806">
        <ele>1859.5999755859</ele>
        <time>2020-08-22T10:09:36.000Z</time>
      </trkpt>
      <trkpt lat="44.11336" lon="7.01795">
        <ele>1860.5999755859</ele>
        <time>2020-08-22T10:09:43.000Z</time>
      </trkpt>
      <trkpt lat="44.11336" lon="7.01791">
        <ele>1860.8000488281</ele>
        <time>2020-08-22T10:09:45.000Z</time>
      </trkpt>
      <trkpt lat="44.11336" lon="7.01784">
        <ele>1861.8000488281</ele>
        <time>2020-08-22T10:09:49.000Z</time>
      </trkpt>
      <trkpt lat="44.11337" lon="7.01778">
        <ele>1863.1999511719</ele>
        <time>2020-08-22T10:09:53.000Z</time>
      </trkpt>
      <trkpt lat="44.11338" lon="7.01773">
        <ele>1863.8000488281</ele>
        <time>2020-08-22T10:09:56.000Z</time>
      </trkpt>
      <trkpt lat="44.11338" lon="7.01768">
        <ele>1864.1999511719</ele>
        <time>2020-08-22T10:09:59.000Z</time>
      </trkpt>
      <trkpt lat="44.11339" lon="7.01762">
        <ele>1865</ele>
        <time>2020-08-22T10:10:03.000Z</time>
      </trkpt>
      <trkpt lat="44.11339" lon="7.01759">
        <ele>1865.4000244141</ele>
        <time>2020-08-22T10:10:05.000Z</time>
      </trkpt>
      <trkpt lat="44.11341" lon="7.01753">
        <ele>1866.5999755859</ele>
        <time>2020-08-22T10:10:09.000Z</time>
      </trkpt>
      <trkpt lat="44.11341" lon="7.01752">
        <ele>1866.8000488281</ele>
        <time>2020-08-22T10:10:10.000Z</time>
      </trkpt>
      <trkpt lat="44.11342" lon="7.01749">
        <ele>1867.1999511719</ele>
        <time>2020-08-22T10:10:12.000Z</time>
      </trkpt>
      <trkpt lat="44.11343" lon="7.01745">
        <ele>1867.8000488281</ele>
        <time>2020-08-22T10:10:15.000Z</time>
      </trkpt>
      <trkpt lat="44.11344" lon="7.01742">
        <ele>1868</ele>
        <time>2020-08-22T10:10:17.000Z</time>
      </trkpt>
      <trkpt lat="44.11345" lon="7.01738">
        <ele>1868.8000488281</ele>
        <time>2020-08-22T10:10:20.000Z</time>
      </trkpt>
      <trkpt lat="44.11346" lon="7.01734">
        <ele>1869.4000244141</ele>
        <time>2020-08-22T10:10:23.000Z</time>
      </trkpt>
      <trkpt lat="44.11346" lon="7.01733">
        <ele>1869.8000488281</ele>
        <time>2020-08-22T10:10:24.000Z</time>
      </trkpt>
      <trkpt lat="44.11348" lon="7.01728">
        <ele>1871</ele>
        <time>2020-08-22T10:10:28.000Z</time>
      </trkpt>
      <trkpt lat="44.11349" lon="7.01722">
        <ele>1872</ele>
        <time>2020-08-22T10:10:32.000Z</time>
      </trkpt>
      <trkpt lat="44.11349" lon="7.0172">
        <ele>1872.1999511719</ele>
        <time>2020-08-22T10:10:33.000Z</time>
      </trkpt>
      <trkpt lat="44.1135" lon="7.01714">
        <ele>1873.4000244141</ele>
        <time>2020-08-22T10:10:38.000Z</time>
      </trkpt>
      <trkpt lat="44.11351" lon="7.01709">
        <ele>1874.5999755859</ele>
        <time>2020-08-22T10:10:42.000Z</time>
      </trkpt>
      <trkpt lat="44.1135" lon="7.01706">
        <ele>1875.1999511719</ele>
        <time>2020-08-22T10:10:44.000Z</time>
      </trkpt>
      <trkpt lat="44.1135" lon="7.01704">
        <ele>1875.8000488281</ele>
        <time>2020-08-22T10:10:46.000Z</time>
      </trkpt>
      <trkpt lat="44.11349" lon="7.01702">
        <ele>1876</ele>
        <time>2020-08-22T10:10:47.000Z</time>
      </trkpt>
      <trkpt lat="44.1135" lon="7.017">
        <ele>1876.4000244141</ele>
        <time>2020-08-22T10:10:49.000Z</time>
      </trkpt>
      <trkpt lat="44.11351" lon="7.01698">
        <ele>1876.8000488281</ele>
        <time>2020-08-22T10:10:51.000Z</time>
      </trkpt>
      <trkpt lat="44.11351" lon="7.01689">
        <ele>1877.8000488281</ele>
        <time>2020-08-22T10:10:57.000Z</time>
      </trkpt>
      <trkpt lat="44.11351" lon="7.01688">
        <ele>1878.1999511719</ele>
        <time>2020-08-22T10:10:58.000Z</time>
      </trkpt>
      <trkpt lat="44.11351" lon="7.01684">
        <ele>1879.1999511719</ele>
        <time>2020-08-22T10:11:01.000Z</time>
      </trkpt>
      <trkpt lat="44.11351" lon="7.0168">
        <ele>1879.8000488281</ele>
        <time>2020-08-22T10:11:04.000Z</time>
      </trkpt>
      <trkpt lat="44.11352" lon="7.01674">
        <ele>1880.1999511719</ele>
        <time>2020-08-22T10:11:09.000Z</time>
      </trkpt>
      <trkpt lat="44.11353" lon="7.01673">
        <ele>1880.4000244141</ele>
        <time>2020-08-22T10:11:10.000Z</time>
      </trkpt>
      <trkpt lat="44.11353" lon="7.01672">
        <ele>1880.8000488281</ele>
        <time>2020-08-22T10:11:15.000Z</time>
      </trkpt>
      <trkpt lat="44.11352" lon="7.0167">
        <ele>1880.5999755859</ele>
        <time>2020-08-22T10:11:20.000Z</time>
      </trkpt>
      <trkpt lat="44.11352" lon="7.01669">
        <ele>1880</ele>
        <time>2020-08-22T10:11:30.000Z</time>
      </trkpt>
      <trkpt lat="44.11352" lon="7.01669">
        <ele>1879.4000244141</ele>
        <time>2020-08-22T10:11:38.000Z</time>
      </trkpt>
      <trkpt lat="44.11352" lon="7.01669">
        <ele>1880.5999755859</ele>
        <time>2020-08-22T10:11:47.000Z</time>
      </trkpt>
      <trkpt lat="44.11352" lon="7.01668">
        <ele>1880.8000488281</ele>
        <time>2020-08-22T10:12:00.000Z</time>
      </trkpt>
      <trkpt lat="44.11353" lon="7.01668">
        <ele>1879</ele>
        <time>2020-08-22T10:12:12.000Z</time>
      </trkpt>
      <trkpt lat="44.11353" lon="7.01668">
        <ele>1877.4000244141</ele>
        <time>2020-08-22T10:12:13.000Z</time>
      </trkpt>
      <trkpt lat="44.11353" lon="7.01668">
        <ele>1875.5999755859</ele>
        <time>2020-08-22T10:12:14.000Z</time>
      </trkpt>
      <trkpt lat="44.11353" lon="7.01668">
        <ele>1874.5999755859</ele>
        <time>2020-08-22T10:12:15.000Z</time>
      </trkpt>
      <trkpt lat="44.11353" lon="7.01668">
        <ele>1873.4000244141</ele>
        <time>2020-08-22T10:12:16.000Z</time>
      </trkpt>
      <trkpt lat="44.11353" lon="7.01668">
        <ele>1871.8000488281</ele>
        <time>2020-08-22T10:12:17.000Z</time>
      </trkpt>
      <trkpt lat="44.11352" lon="7.01668">
        <ele>1869.5999755859</ele>
        <time>2020-08-22T10:12:19.000Z</time>
      </trkpt>
      <trkpt lat="44.11352" lon="7.01667">
        <ele>1866.8000488281</ele>
        <time>2020-08-22T10:12:21.000Z</time>
      </trkpt>
      <trkpt lat="44.11352" lon="7.01668">
        <ele>1868</ele>
        <time>2020-08-22T10:12:22.000Z</time>
      </trkpt>
      <trkpt lat="44.11352" lon="7.01667">
        <ele>1868</ele>
        <time>2020-08-22T10:12:25.000Z</time>
      </trkpt>
      <trkpt lat="44.11353" lon="7.01668">
        <ele>1867.8000488281</ele>
        <time>2020-08-22T10:12:32.000Z</time>
      </trkpt>
      <trkpt lat="44.11353" lon="7.01668">
        <ele>1868</ele>
        <time>2020-08-22T10:12:38.000Z</time>
      </trkpt>
      <trkpt lat="44.11353" lon="7.01669">
        <ele>1869</ele>
        <time>2020-08-22T10:12:54.000Z</time>
      </trkpt>
      <trkpt lat="44.11352" lon="7.01669">
        <ele>1869.1999511719</ele>
        <time>2020-08-22T10:12:56.000Z</time>
      </trkpt>
      <trkpt lat="44.11351" lon="7.01669">
        <ele>1870.1999511719</ele>
        <time>2020-08-22T10:13:01.000Z</time>
      </trkpt>
      <trkpt lat="44.11351" lon="7.01669">
        <ele>1870.4000244141</ele>
        <time>2020-08-22T10:13:02.000Z</time>
      </trkpt>
      <trkpt lat="44.11351" lon="7.0167">
        <ele>1871.1999511719</ele>
        <time>2020-08-22T10:13:09.000Z</time>
      </trkpt>
      <trkpt lat="44.11351" lon="7.01669">
        <ele>1872</ele>
        <time>2020-08-22T10:13:16.000Z</time>
      </trkpt>
      <trkpt lat="44.11351" lon="7.01669">
        <ele>1872.1999511719</ele>
        <time>2020-08-22T10:13:17.000Z</time>
      </trkpt>
      <trkpt lat="44.11351" lon="7.01669">
        <ele>1873</ele>
        <time>2020-08-22T10:13:23.000Z</time>
      </trkpt>
      <trkpt lat="44.11351" lon="7.01669">
        <ele>1873.1999511719</ele>
        <time>2020-08-22T10:13:27.000Z</time>
      </trkpt>
      <trkpt lat="44.1135" lon="7.01667">
        <ele>1874.1999511719</ele>
        <time>2020-08-22T10:13:32.000Z</time>
      </trkpt>
      <trkpt lat="44.1135" lon="7.01667">
        <ele>1874.5999755859</ele>
        <time>2020-08-22T10:13:34.000Z</time>
      </trkpt>
      <trkpt lat="44.1135" lon="7.01666">
        <ele>1875.1999511719</ele>
        <time>2020-08-22T10:13:37.000Z</time>
      </trkpt>
      <trkpt lat="44.11349" lon="7.01666">
        <ele>1876.4000244141</ele>
        <time>2020-08-22T10:13:45.000Z</time>
      </trkpt>
      <trkpt lat="44.11349" lon="7.01666">
        <ele>1877.4000244141</ele>
        <time>2020-08-22T10:13:51.000Z</time>
      </trkpt>
      <trkpt lat="44.11349" lon="7.01666">
        <ele>1877.4000244141</ele>
        <time>2020-08-22T10:13:52.000Z</time>
      </trkpt>
      <trkpt lat="44.1135" lon="7.01664">
        <ele>1877.8000488281</ele>
        <time>2020-08-22T10:13:56.000Z</time>
      </trkpt>
      <trkpt lat="44.11352" lon="7.01661">
        <ele>1878.5999755859</ele>
        <time>2020-08-22T10:14:01.000Z</time>
      </trkpt>
      <trkpt lat="44.11352" lon="7.01659">
        <ele>1879.4000244141</ele>
        <time>2020-08-22T10:14:04.000Z</time>
      </trkpt>
      <trkpt lat="44.11352" lon="7.01658">
        <ele>1879.5999755859</ele>
        <time>2020-08-22T10:14:06.000Z</time>
      </trkpt>
      <trkpt lat="44.11353" lon="7.0166">
        <ele>1880</ele>
        <time>2020-08-22T10:14:09.000Z</time>
      </trkpt>
      <trkpt lat="44.11352" lon="7.01662">
        <ele>1880.1999511719</ele>
        <time>2020-08-22T10:14:10.000Z</time>
      </trkpt>
      <trkpt lat="44.11352" lon="7.01665">
        <ele>1880.5999755859</ele>
        <time>2020-08-22T10:14:14.000Z</time>
      </trkpt>
      <trkpt lat="44.11352" lon="7.01665">
        <ele>1880.4000244141</ele>
        <time>2020-08-22T10:14:20.000Z</time>
      </trkpt>
      <trkpt lat="44.11354" lon="7.0166">
        <ele>1881</ele>
        <time>2020-08-22T10:14:27.000Z</time>
      </trkpt>
      <trkpt lat="44.11354" lon="7.01661">
        <ele>1881.4000244141</ele>
        <time>2020-08-22T10:14:33.000Z</time>
      </trkpt>
      <trkpt lat="44.11353" lon="7.01661">
        <ele>1881.5999755859</ele>
        <time>2020-08-22T10:14:41.000Z</time>
      </trkpt>
      <trkpt lat="44.11353" lon="7.01662">
        <ele>1881.4000244141</ele>
        <time>2020-08-22T10:14:50.000Z</time>
      </trkpt>
      <trkpt lat="44.11353" lon="7.01662">
        <ele>1881</ele>
        <time>2020-08-22T10:15:03.000Z</time>
      </trkpt>
      <trkpt lat="44.11353" lon="7.01663">
        <ele>1881.1999511719</ele>
        <time>2020-08-22T10:15:12.000Z</time>
      </trkpt>
      <trkpt lat="44.11353" lon="7.01663">
        <ele>1881.8000488281</ele>
        <time>2020-08-22T10:15:14.000Z</time>
      </trkpt>
      <trkpt lat="44.11353" lon="7.01663">
        <ele>1881.4000244141</ele>
        <time>2020-08-22T10:15:21.000Z</time>
      </trkpt>
      <trkpt lat="44.11353" lon="7.01664">
        <ele>1881.8000488281</ele>
        <time>2020-08-22T10:15:26.000Z</time>
      </trkpt>
      <trkpt lat="44.11353" lon="7.01664">
        <ele>1880.8000488281</ele>
        <time>2020-08-22T10:15:34.000Z</time>
      </trkpt>
      <trkpt lat="44.11353" lon="7.01665">
        <ele>1881.1999511719</ele>
        <time>2020-08-22T10:15:48.000Z</time>
      </trkpt>
      <trkpt lat="44.11351" lon="7.01666">
        <ele>1881</ele>
        <time>2020-08-22T10:15:56.000Z</time>
      </trkpt>
      <trkpt lat="44.11351" lon="7.01665">
        <ele>1881.1999511719</ele>
        <time>2020-08-22T10:15:57.000Z</time>
      </trkpt>
      <trkpt lat="44.1135" lon="7.01664">
        <ele>1881</ele>
        <time>2020-08-22T10:16:01.000Z</time>
      </trkpt>
      <trkpt lat="44.1135" lon="7.01664">
        <ele>1880.8000488281</ele>
        <time>2020-08-22T10:16:02.000Z</time>
      </trkpt>
      <trkpt lat="44.11352" lon="7.01666">
        <ele>1880.8000488281</ele>
        <time>2020-08-22T10:16:10.000Z</time>
      </trkpt>
      <trkpt lat="44.11353" lon="7.01665">
        <ele>1881</ele>
        <time>2020-08-22T10:16:17.000Z</time>
      </trkpt>
      <trkpt lat="44.11353" lon="7.01665">
        <ele>1880.5999755859</ele>
        <time>2020-08-22T10:16:24.000Z</time>
      </trkpt>
      <trkpt lat="44.11354" lon="7.01666">
        <ele>1881.5999755859</ele>
        <time>2020-08-22T10:16:33.000Z</time>
      </trkpt>
      <trkpt lat="44.11354" lon="7.01666">
        <ele>1881.4000244141</ele>
        <time>2020-08-22T10:16:46.000Z</time>
      </trkpt>
      <trkpt lat="44.11352" lon="7.01665">
        <ele>1881.5999755859</ele>
        <time>2020-08-22T10:16:53.000Z</time>
      </trkpt>
      <trkpt lat="44.11351" lon="7.01664">
        <ele>1881.5999755859</ele>
        <time>2020-08-22T10:16:54.000Z</time>
      </trkpt>
      <trkpt lat="44.11352" lon="7.01664">
        <ele>1881.4000244141</ele>
        <time>2020-08-22T10:16:59.000Z</time>
      </trkpt>
      <trkpt lat="44.11352" lon="7.01664">
        <ele>1881.1999511719</ele>
        <time>2020-08-22T10:17:05.000Z</time>
      </trkpt>
      <trkpt lat="44.11352" lon="7.01664">
        <ele>1881.1999511719</ele>
        <time>2020-08-22T10:17:12.000Z</time>
      </trkpt>
      <trkpt lat="44.11353" lon="7.01663">
        <ele>1881.4000244141</ele>
        <time>2020-08-22T10:17:23.000Z</time>
      </trkpt>
      <trkpt lat="44.11356" lon="7.01655">
        <ele>1881.8000488281</ele>
        <time>2020-08-22T10:17:31.000Z</time>
      </trkpt>
      <trkpt lat="44.11356" lon="7.01655">
        <ele>1882</ele>
        <time>2020-08-22T10:17:32.000Z</time>
      </trkpt>
      <trkpt lat="44.11356" lon="7.01654">
        <ele>1882.5999755859</ele>
        <time>2020-08-22T10:17:38.000Z</time>
      </trkpt>
      <trkpt lat="44.11356" lon="7.01654">
        <ele>1882.4000244141</ele>
        <time>2020-08-22T10:17:44.000Z</time>
      </trkpt>
      <trkpt lat="44.11356" lon="7.01654">
        <ele>1882.5999755859</ele>
        <time>2020-08-22T10:17:51.000Z</time>
      </trkpt>
      <trkpt lat="44.11357" lon="7.01655">
        <ele>1882.5999755859</ele>
        <time>2020-08-22T10:18:02.000Z</time>
      </trkpt>
      <trkpt lat="44.11356" lon="7.01654">
        <ele>1882.4000244141</ele>
        <time>2020-08-22T10:18:25.000Z</time>
      </trkpt>
      <trkpt lat="44.11357" lon="7.01654">
        <ele>1882.4000244141</ele>
        <time>2020-08-22T10:18:35.000Z</time>
      </trkpt>
      <trkpt lat="44.11357" lon="7.01654">
        <ele>1882.1999511719</ele>
        <time>2020-08-22T10:18:42.000Z</time>
      </trkpt>
      <trkpt lat="44.11357" lon="7.01654">
        <ele>1882.1999511719</ele>
        <time>2020-08-22T10:18:58.000Z</time>
      </trkpt>
      <trkpt lat="44.11357" lon="7.01654">
        <ele>1882.1999511719</ele>
        <time>2020-08-22T10:19:12.000Z</time>
      </trkpt>
      <trkpt lat="44.11357" lon="7.01654">
        <ele>1882.4000244141</ele>
        <time>2020-08-22T10:19:33.000Z</time>
      </trkpt>
      <trkpt lat="44.11356" lon="7.01653">
        <ele>1882.1999511719</ele>
        <time>2020-08-22T10:19:50.000Z</time>
      </trkpt>
      <trkpt lat="44.11356" lon="7.01654">
        <ele>1882.1999511719</ele>
        <time>2020-08-22T10:20:02.000Z</time>
      </trkpt>
      <trkpt lat="44.11356" lon="7.01655">
        <ele>1882.1999511719</ele>
        <time>2020-08-22T10:20:19.000Z</time>
      </trkpt>
      <trkpt lat="44.11357" lon="7.01654">
        <ele>1882.8000488281</ele>
        <time>2020-08-22T10:20:35.000Z</time>
      </trkpt>
      <trkpt lat="44.11357" lon="7.01654">
        <ele>1882.5999755859</ele>
        <time>2020-08-22T10:20:47.000Z</time>
      </trkpt>
      <trkpt lat="44.11357" lon="7.01653">
        <ele>1882.8000488281</ele>
        <time>2020-08-22T10:20:58.000Z</time>
      </trkpt>
      <trkpt lat="44.11357" lon="7.01654">
        <ele>1882.8000488281</ele>
        <time>2020-08-22T10:21:09.000Z</time>
      </trkpt>
      <trkpt lat="44.11356" lon="7.01653">
        <ele>1883</ele>
        <time>2020-08-22T10:21:20.000Z</time>
      </trkpt>
      <trkpt lat="44.11356" lon="7.01653">
        <ele>1883</ele>
        <time>2020-08-22T10:21:21.000Z</time>
      </trkpt>
      <trkpt lat="44.11356" lon="7.01654">
        <ele>1883</ele>
        <time>2020-08-22T10:21:35.000Z</time>
      </trkpt>
      <trkpt lat="44.11357" lon="7.01654">
        <ele>1883.1999511719</ele>
        <time>2020-08-22T10:21:45.000Z</time>
      </trkpt>
      <trkpt lat="44.11357" lon="7.01655">
        <ele>1883</ele>
        <time>2020-08-22T10:22:08.000Z</time>
      </trkpt>
      <trkpt lat="44.11357" lon="7.01655">
        <ele>1883.1999511719</ele>
        <time>2020-08-22T10:22:22.000Z</time>
      </trkpt>
      <trkpt lat="44.11357" lon="7.01655">
        <ele>1883.1999511719</ele>
        <time>2020-08-22T10:22:34.000Z</time>
      </trkpt>
      <trkpt lat="44.11357" lon="7.01655">
        <ele>1883.1999511719</ele>
        <time>2020-08-22T10:22:43.000Z</time>
      </trkpt>
      <trkpt lat="44.11356" lon="7.01656">
        <ele>1883.4000244141</ele>
        <time>2020-08-22T10:22:57.000Z</time>
      </trkpt>
      <trkpt lat="44.11356" lon="7.01656">
        <ele>1883.4000244141</ele>
        <time>2020-08-22T10:23:05.000Z</time>
      </trkpt>
      <trkpt lat="44.11357" lon="7.01656">
        <ele>1883.1999511719</ele>
        <time>2020-08-22T10:23:16.000Z</time>
      </trkpt>
      <trkpt lat="44.11356" lon="7.01655">
        <ele>1883</ele>
        <time>2020-08-22T10:23:38.000Z</time>
      </trkpt>
      <trkpt lat="44.11356" lon="7.01655">
        <ele>1883.4000244141</ele>
        <time>2020-08-22T10:23:51.000Z</time>
      </trkpt>
      <trkpt lat="44.11357" lon="7.01654">
        <ele>1883.4000244141</ele>
        <time>2020-08-22T10:24:03.000Z</time>
      </trkpt>
      <trkpt lat="44.11357" lon="7.01654">
        <ele>1883.4000244141</ele>
        <time>2020-08-22T10:24:12.000Z</time>
      </trkpt>
      <trkpt lat="44.11357" lon="7.01655">
        <ele>1883.4000244141</ele>
        <time>2020-08-22T10:24:21.000Z</time>
      </trkpt>
      <trkpt lat="44.11357" lon="7.01655">
        <ele>1883.4000244141</ele>
        <time>2020-08-22T10:24:35.000Z</time>
      </trkpt>
      <trkpt lat="44.11357" lon="7.01656">
        <ele>1883.4000244141</ele>
        <time>2020-08-22T10:24:57.000Z</time>
      </trkpt>
      <trkpt lat="44.11357" lon="7.01656">
        <ele>1883.4000244141</ele>
        <time>2020-08-22T10:25:11.000Z</time>
      </trkpt>
      <trkpt lat="44.11358" lon="7.01655">
        <ele>1883.5999755859</ele>
        <time>2020-08-22T10:25:23.000Z</time>
      </trkpt>
      <trkpt lat="44.11358" lon="7.01656">
        <ele>1883.4000244141</ele>
        <time>2020-08-22T10:25:34.000Z</time>
      </trkpt>
      <trkpt lat="44.11357" lon="7.01655">
        <ele>1883.4000244141</ele>
        <time>2020-08-22T10:25:44.000Z</time>
      </trkpt>
      <trkpt lat="44.11358" lon="7.01655">
        <ele>1883.5999755859</ele>
        <time>2020-08-22T10:25:58.000Z</time>
      </trkpt>
      <trkpt lat="44.11357" lon="7.01655">
        <ele>1883.5999755859</ele>
        <time>2020-08-22T10:26:14.000Z</time>
      </trkpt>
      <trkpt lat="44.11356" lon="7.01655">
        <ele>1883.8000488281</ele>
        <time>2020-08-22T10:26:39.000Z</time>
      </trkpt>
      <trkpt lat="44.11355" lon="7.01655">
        <ele>1883.4000244141</ele>
        <time>2020-08-22T10:26:48.000Z</time>
      </trkpt>
      <trkpt lat="44.11356" lon="7.01656">
        <ele>1883.4000244141</ele>
        <time>2020-08-22T10:27:07.000Z</time>
      </trkpt>
      <trkpt lat="44.11356" lon="7.01656">
        <ele>1883.5999755859</ele>
        <time>2020-08-22T10:27:19.000Z</time>
      </trkpt>
      <trkpt lat="44.11356" lon="7.01657">
        <ele>1883.8000488281</ele>
        <time>2020-08-22T10:27:35.000Z</time>
      </trkpt>
      <trkpt lat="44.11356" lon="7.01657">
        <ele>1884</ele>
        <time>2020-08-22T10:27:43.000Z</time>
      </trkpt>
      <trkpt lat="44.11357" lon="7.01657">
        <ele>1883.5999755859</ele>
        <time>2020-08-22T10:27:52.000Z</time>
      </trkpt>
      <trkpt lat="44.11357" lon="7.01657">
        <ele>1883.4000244141</ele>
        <time>2020-08-22T10:28:00.000Z</time>
      </trkpt>
      <trkpt lat="44.11356" lon="7.01658">
        <ele>1883.5999755859</ele>
        <time>2020-08-22T10:28:18.000Z</time>
      </trkpt>
      <trkpt lat="44.11357" lon="7.01658">
        <ele>1883.8000488281</ele>
        <time>2020-08-22T10:28:32.000Z</time>
      </trkpt>
      <trkpt lat="44.11356" lon="7.01659">
        <ele>1884.1999511719</ele>
        <time>2020-08-22T10:28:49.000Z</time>
      </trkpt>
      <trkpt lat="44.11355" lon="7.01661">
        <ele>1884.4000244141</ele>
        <time>2020-08-22T10:29:07.000Z</time>
      </trkpt>
      <trkpt lat="44.11355" lon="7.01662">
        <ele>1884</ele>
        <time>2020-08-22T10:29:29.000Z</time>
      </trkpt>
      <trkpt lat="44.11355" lon="7.01662">
        <ele>1884</ele>
        <time>2020-08-22T10:29:36.000Z</time>
      </trkpt>
      <trkpt lat="44.11355" lon="7.01663">
        <ele>1883.1999511719</ele>
        <time>2020-08-22T10:30:01.000Z</time>
      </trkpt>
      <trkpt lat="44.11356" lon="7.01661">
        <ele>1883.1999511719</ele>
        <time>2020-08-22T10:30:24.000Z</time>
      </trkpt>
      <trkpt lat="44.11357" lon="7.01657">
        <ele>1883.4000244141</ele>
        <time>2020-08-22T10:30:45.000Z</time>
      </trkpt>
      <trkpt lat="44.11357" lon="7.01657">
        <ele>1883.4000244141</ele>
        <time>2020-08-22T10:31:04.000Z</time>
      </trkpt>
      <trkpt lat="44.11357" lon="7.01656">
        <ele>1883.5999755859</ele>
        <time>2020-08-22T10:31:23.000Z</time>
      </trkpt>
      <trkpt lat="44.11357" lon="7.01657">
        <ele>1883.5999755859</ele>
        <time>2020-08-22T10:31:43.000Z</time>
      </trkpt>
      <trkpt lat="44.11357" lon="7.01659">
        <ele>1883.5999755859</ele>
        <time>2020-08-22T10:32:03.000Z</time>
      </trkpt>
      <trkpt lat="44.11357" lon="7.01659">
        <ele>1883.5999755859</ele>
        <time>2020-08-22T10:32:22.000Z</time>
      </trkpt>
      <trkpt lat="44.11358" lon="7.01658">
        <ele>1884.5999755859</ele>
        <time>2020-08-22T10:32:40.000Z</time>
      </trkpt>
      <trkpt lat="44.11358" lon="7.01657">
        <ele>1884.5999755859</ele>
        <time>2020-08-22T10:32:55.000Z</time>
      </trkpt>
      <trkpt lat="44.11359" lon="7.01657">
        <ele>1884.1999511719</ele>
        <time>2020-08-22T10:33:14.000Z</time>
      </trkpt>
      <trkpt lat="44.1136" lon="7.01656">
        <ele>1884</ele>
        <time>2020-08-22T10:33:30.000Z</time>
      </trkpt>
      <trkpt lat="44.1136" lon="7.01656">
        <ele>1884</ele>
        <time>2020-08-22T10:33:46.000Z</time>
      </trkpt>
      <trkpt lat="44.1136" lon="7.01657">
        <ele>1883.8000488281</ele>
        <time>2020-08-22T10:34:04.000Z</time>
      </trkpt>
      <trkpt lat="44.1136" lon="7.01657">
        <ele>1883.5999755859</ele>
        <time>2020-08-22T10:34:18.000Z</time>
      </trkpt>
      <trkpt lat="44.1136" lon="7.01657">
        <ele>1883.8000488281</ele>
        <time>2020-08-22T10:34:28.000Z</time>
      </trkpt>
      <trkpt lat="44.11359" lon="7.01657">
        <ele>1884</ele>
        <time>2020-08-22T10:34:37.000Z</time>
      </trkpt>
      <trkpt lat="44.1136" lon="7.01656">
        <ele>1883.5999755859</ele>
        <time>2020-08-22T10:34:45.000Z</time>
      </trkpt>
      <trkpt lat="44.1136" lon="7.01656">
        <ele>1883.8000488281</ele>
        <time>2020-08-22T10:34:52.000Z</time>
      </trkpt>
      <trkpt lat="44.11359" lon="7.01656">
        <ele>1883.4000244141</ele>
        <time>2020-08-22T10:35:00.000Z</time>
      </trkpt>
      <trkpt lat="44.11359" lon="7.01656">
        <ele>1884</ele>
        <time>2020-08-22T10:35:06.000Z</time>
      </trkpt>
      <trkpt lat="44.1136" lon="7.01656">
        <ele>1885</ele>
        <time>2020-08-22T10:35:19.000Z</time>
      </trkpt>
      <trkpt lat="44.11362" lon="7.01655">
        <ele>1884.5999755859</ele>
        <time>2020-08-22T10:35:25.000Z</time>
      </trkpt>
      <trkpt lat="44.11362" lon="7.01656">
        <ele>1884.1999511719</ele>
        <time>2020-08-22T10:35:30.000Z</time>
      </trkpt>
      <trkpt lat="44.11358" lon="7.01657">
        <ele>1885</ele>
        <time>2020-08-22T10:35:37.000Z</time>
      </trkpt>
      <trkpt lat="44.11352" lon="7.01657">
        <ele>1884.1999511719</ele>
        <time>2020-08-22T10:35:43.000Z</time>
      </trkpt>
      <trkpt lat="44.11348" lon="7.0166">
        <ele>1882.8000488281</ele>
        <time>2020-08-22T10:35:49.000Z</time>
      </trkpt>
      <trkpt lat="44.11348" lon="7.0166">
        <ele>1882.5999755859</ele>
        <time>2020-08-22T10:35:50.000Z</time>
      </trkpt>
      <trkpt lat="44.11348" lon="7.0166">
        <ele>1882.5999755859</ele>
        <time>2020-08-22T10:35:56.000Z</time>
      </trkpt>
      <trkpt lat="44.11348" lon="7.0166">
        <ele>1882.4000244141</ele>
        <time>2020-08-22T10:36:07.000Z</time>
      </trkpt>
      <trkpt lat="44.11348" lon="7.0166">
        <ele>1882.1999511719</ele>
        <time>2020-08-22T10:36:16.000Z</time>
      </trkpt>
      <trkpt lat="44.11346" lon="7.01659">
        <ele>1882</ele>
        <time>2020-08-22T10:36:30.000Z</time>
      </trkpt>
      <trkpt lat="44.11348" lon="7.01659">
        <ele>1882</ele>
        <time>2020-08-22T10:36:36.000Z</time>
      </trkpt>
      <trkpt lat="44.11348" lon="7.01659">
        <ele>1882.5999755859</ele>
        <time>2020-08-22T10:36:43.000Z</time>
      </trkpt>
      <trkpt lat="44.11348" lon="7.01658">
        <ele>1882.4000244141</ele>
        <time>2020-08-22T10:37:02.000Z</time>
      </trkpt>
      <trkpt lat="44.11349" lon="7.01658">
        <ele>1883.5999755859</ele>
        <time>2020-08-22T10:37:25.000Z</time>
      </trkpt>
      <trkpt lat="44.11349" lon="7.01657">
        <ele>1883.4000244141</ele>
        <time>2020-08-22T10:37:46.000Z</time>
      </trkpt>
      <trkpt lat="44.1135" lon="7.01657">
        <ele>1883.1999511719</ele>
        <time>2020-08-22T10:38:10.000Z</time>
      </trkpt>
      <trkpt lat="44.1135" lon="7.01657">
        <ele>1883.4000244141</ele>
        <time>2020-08-22T10:38:28.000Z</time>
      </trkpt>
      <trkpt lat="44.1135" lon="7.01657">
        <ele>1883.8000488281</ele>
        <time>2020-08-22T10:38:40.000Z</time>
      </trkpt>
      <trkpt lat="44.11351" lon="7.01657">
        <ele>1884</ele>
        <time>2020-08-22T10:38:49.000Z</time>
      </trkpt>
      <trkpt lat="44.11351" lon="7.01657">
        <ele>1884.1999511719</ele>
        <time>2020-08-22T10:39:12.000Z</time>
      </trkpt>
      <trkpt lat="44.11351" lon="7.01657">
        <ele>1883.8000488281</ele>
        <time>2020-08-22T10:39:34.000Z</time>
      </trkpt>
      <trkpt lat="44.1135" lon="7.01657">
        <ele>1883.8000488281</ele>
        <time>2020-08-22T10:40:01.000Z</time>
      </trkpt>
      <trkpt lat="44.1135" lon="7.01657">
        <ele>1884.1999511719</ele>
        <time>2020-08-22T10:40:25.000Z</time>
      </trkpt>
      <trkpt lat="44.1135" lon="7.01657">
        <ele>1884.4000244141</ele>
        <time>2020-08-22T10:40:47.000Z</time>
      </trkpt>
      <trkpt lat="44.1135" lon="7.01658">
        <ele>1884.1999511719</ele>
        <time>2020-08-22T10:41:08.000Z</time>
      </trkpt>
      <trkpt lat="44.1135" lon="7.01657">
        <ele>1884</ele>
        <time>2020-08-22T10:41:34.000Z</time>
      </trkpt>
      <trkpt lat="44.1135" lon="7.01657">
        <ele>1884.1999511719</ele>
        <time>2020-08-22T10:41:47.000Z</time>
      </trkpt>
      <trkpt lat="44.11349" lon="7.01656">
        <ele>1884</ele>
        <time>2020-08-22T10:42:01.000Z</time>
      </trkpt>
      <trkpt lat="44.1135" lon="7.01657">
        <ele>1883.8000488281</ele>
        <time>2020-08-22T10:42:09.000Z</time>
      </trkpt>
      <trkpt lat="44.11349" lon="7.01656">
        <ele>1883.5999755859</ele>
        <time>2020-08-22T10:42:18.000Z</time>
      </trkpt>
      <trkpt lat="44.11349" lon="7.01655">
        <ele>1883.1999511719</ele>
        <time>2020-08-22T10:42:32.000Z</time>
      </trkpt>
      <trkpt lat="44.1135" lon="7.01655">
        <ele>1883.4000244141</ele>
        <time>2020-08-22T10:42:49.000Z</time>
      </trkpt>
      <trkpt lat="44.1135" lon="7.01655">
        <ele>1883.5999755859</ele>
        <time>2020-08-22T10:43:00.000Z</time>
      </trkpt>
      <trkpt lat="44.11351" lon="7.01655">
        <ele>1883.8000488281</ele>
        <time>2020-08-22T10:43:15.000Z</time>
      </trkpt>
      <trkpt lat="44.11351" lon="7.01655">
        <ele>1883.5999755859</ele>
        <time>2020-08-22T10:43:25.000Z</time>
      </trkpt>
      <trkpt lat="44.11351" lon="7.01655">
        <ele>1883.4000244141</ele>
        <time>2020-08-22T10:43:31.000Z</time>
      </trkpt>
      <trkpt lat="44.1135" lon="7.01655">
        <ele>1883.8000488281</ele>
        <time>2020-08-22T10:43:37.000Z</time>
      </trkpt>
      <trkpt lat="44.1135" lon="7.01655">
        <ele>1883.5999755859</ele>
        <time>2020-08-22T10:43:50.000Z</time>
      </trkpt>
      <trkpt lat="44.1135" lon="7.01655">
        <ele>1883.8000488281</ele>
        <time>2020-08-22T10:44:12.000Z</time>
      </trkpt>
      <trkpt lat="44.1135" lon="7.01655">
        <ele>1884</ele>
        <time>2020-08-22T10:44:22.000Z</time>
      </trkpt>
      <trkpt lat="44.11349" lon="7.01655">
        <ele>1884.8000488281</ele>
        <time>2020-08-22T10:44:32.000Z</time>
      </trkpt>
      <trkpt lat="44.11349" lon="7.01656">
        <ele>1884.8000488281</ele>
        <time>2020-08-22T10:44:43.000Z</time>
      </trkpt>
      <trkpt lat="44.11349" lon="7.01656">
        <ele>1883.8000488281</ele>
        <time>2020-08-22T10:44:54.000Z</time>
      </trkpt>
      <trkpt lat="44.11349" lon="7.01657">
        <ele>1883.8000488281</ele>
        <time>2020-08-22T10:45:04.000Z</time>
      </trkpt>
      <trkpt lat="44.11349" lon="7.01658">
        <ele>1883.4000244141</ele>
        <time>2020-08-22T10:45:21.000Z</time>
      </trkpt>
      <trkpt lat="44.1135" lon="7.01658">
        <ele>1883.8000488281</ele>
        <time>2020-08-22T10:45:39.000Z</time>
      </trkpt>
      <trkpt lat="44.1135" lon="7.01657">
        <ele>1883.5999755859</ele>
        <time>2020-08-22T10:45:49.000Z</time>
      </trkpt>
      <trkpt lat="44.11351" lon="7.01657">
        <ele>1883.8000488281</ele>
        <time>2020-08-22T10:46:01.000Z</time>
      </trkpt>
      <trkpt lat="44.11351" lon="7.01657">
        <ele>1884</ele>
        <time>2020-08-22T10:46:16.000Z</time>
      </trkpt>
      <trkpt lat="44.1135" lon="7.01657">
        <ele>1883.8000488281</ele>
        <time>2020-08-22T10:46:28.000Z</time>
      </trkpt>
      <trkpt lat="44.11349" lon="7.01658">
        <ele>1884</ele>
        <time>2020-08-22T10:46:35.000Z</time>
      </trkpt>
      <trkpt lat="44.11349" lon="7.01658">
        <ele>1883.5999755859</ele>
        <time>2020-08-22T10:46:43.000Z</time>
      </trkpt>
      <trkpt lat="44.11348" lon="7.01658">
        <ele>1884.1999511719</ele>
        <time>2020-08-22T10:46:56.000Z</time>
      </trkpt>
      <trkpt lat="44.11348" lon="7.01658">
        <ele>1884.1999511719</ele>
        <time>2020-08-22T10:47:08.000Z</time>
      </trkpt>
      <trkpt lat="44.11349" lon="7.01657">
        <ele>1884.5999755859</ele>
        <time>2020-08-22T10:47:18.000Z</time>
      </trkpt>
      <trkpt lat="44.11349" lon="7.01657">
        <ele>1885</ele>
        <time>2020-08-22T10:47:22.000Z</time>
      </trkpt>
      <trkpt lat="44.11349" lon="7.01657">
        <ele>1885.1999511719</ele>
        <time>2020-08-22T10:47:29.000Z</time>
      </trkpt>
      <trkpt lat="44.11349" lon="7.01656">
        <ele>1885.4000244141</ele>
        <time>2020-08-22T10:47:35.000Z</time>
      </trkpt>
      <trkpt lat="44.11349" lon="7.01656">
        <ele>1885.1999511719</ele>
        <time>2020-08-22T10:47:41.000Z</time>
      </trkpt>
      <trkpt lat="44.11349" lon="7.01656">
        <ele>1885.1999511719</ele>
        <time>2020-08-22T10:47:49.000Z</time>
      </trkpt>
      <trkpt lat="44.11349" lon="7.01656">
        <ele>1885</ele>
        <time>2020-08-22T10:47:54.000Z</time>
      </trkpt>
      <trkpt lat="44.11349" lon="7.01656">
        <ele>1884.5999755859</ele>
        <time>2020-08-22T10:48:03.000Z</time>
      </trkpt>
      <trkpt lat="44.11349" lon="7.01656">
        <ele>1885</ele>
        <time>2020-08-22T10:48:11.000Z</time>
      </trkpt>
      <trkpt lat="44.11349" lon="7.01656">
        <ele>1884.8000488281</ele>
        <time>2020-08-22T10:48:21.000Z</time>
      </trkpt>
      <trkpt lat="44.1135" lon="7.01656">
        <ele>1885</ele>
        <time>2020-08-22T10:48:35.000Z</time>
      </trkpt>
      <trkpt lat="44.1135" lon="7.01655">
        <ele>1885.4000244141</ele>
        <time>2020-08-22T10:48:55.000Z</time>
      </trkpt>
      <trkpt lat="44.1135" lon="7.01655">
        <ele>1886</ele>
        <time>2020-08-22T10:49:16.000Z</time>
      </trkpt>
      <trkpt lat="44.11351" lon="7.01656">
        <ele>1885.8000488281</ele>
        <time>2020-08-22T10:49:22.000Z</time>
      </trkpt>
      <trkpt lat="44.1135" lon="7.01655">
        <ele>1885.8000488281</ele>
        <time>2020-08-22T10:49:24.000Z</time>
      </trkpt>
      <trkpt lat="44.1135" lon="7.01655">
        <ele>1885.8000488281</ele>
        <time>2020-08-22T10:49:30.000Z</time>
      </trkpt>
      <trkpt lat="44.1135" lon="7.01656">
        <ele>1885.8000488281</ele>
        <time>2020-08-22T10:49:51.000Z</time>
      </trkpt>
      <trkpt lat="44.1135" lon="7.01657">
        <ele>1885.1999511719</ele>
        <time>2020-08-22T10:50:17.000Z</time>
      </trkpt>
      <trkpt lat="44.1135" lon="7.01657">
        <ele>1885.4000244141</ele>
        <time>2020-08-22T10:50:33.000Z</time>
      </trkpt>
      <trkpt lat="44.1135" lon="7.01657">
        <ele>1885</ele>
        <time>2020-08-22T10:50:39.000Z</time>
      </trkpt>
      <trkpt lat="44.1135" lon="7.01656">
        <ele>1884.8000488281</ele>
        <time>2020-08-22T10:50:47.000Z</time>
      </trkpt>
      <trkpt lat="44.1135" lon="7.01657">
        <ele>1885</ele>
        <time>2020-08-22T10:50:54.000Z</time>
      </trkpt>
      <trkpt lat="44.1135" lon="7.01657">
        <ele>1885.1999511719</ele>
        <time>2020-08-22T10:51:05.000Z</time>
      </trkpt>
      <trkpt lat="44.1135" lon="7.01657">
        <ele>1885</ele>
        <time>2020-08-22T10:51:23.000Z</time>
      </trkpt>
      <trkpt lat="44.1135" lon="7.01657">
        <ele>1885</ele>
        <time>2020-08-22T10:51:33.000Z</time>
      </trkpt>
      <trkpt lat="44.1135" lon="7.01657">
        <ele>1885.1999511719</ele>
        <time>2020-08-22T10:51:46.000Z</time>
      </trkpt>
      <trkpt lat="44.11349" lon="7.01657">
        <ele>1885.1999511719</ele>
        <time>2020-08-22T10:51:55.000Z</time>
      </trkpt>
      <trkpt lat="44.1135" lon="7.01657">
        <ele>1884.8000488281</ele>
        <time>2020-08-22T10:52:02.000Z</time>
      </trkpt>
      <trkpt lat="44.11349" lon="7.01657">
        <ele>1885.5999755859</ele>
        <time>2020-08-22T10:52:10.000Z</time>
      </trkpt>
      <trkpt lat="44.11349" lon="7.01656">
        <ele>1886</ele>
        <time>2020-08-22T10:52:16.000Z</time>
      </trkpt>
      <trkpt lat="44.11349" lon="7.01656">
        <ele>1885.8000488281</ele>
        <time>2020-08-22T10:52:19.000Z</time>
      </trkpt>
      <trkpt lat="44.11349" lon="7.01656">
        <ele>1885</ele>
        <time>2020-08-22T10:52:25.000Z</time>
      </trkpt>
      <trkpt lat="44.11349" lon="7.01657">
        <ele>1884.8000488281</ele>
        <time>2020-08-22T10:52:33.000Z</time>
      </trkpt>
      <trkpt lat="44.1135" lon="7.01658">
        <ele>1885.5999755859</ele>
        <time>2020-08-22T10:52:50.000Z</time>
      </trkpt>
      <trkpt lat="44.11349" lon="7.01658">
        <ele>1885.8000488281</ele>
        <time>2020-08-22T10:53:07.000Z</time>
      </trkpt>
      <trkpt lat="44.11351" lon="7.01656">
        <ele>1885.5999755859</ele>
        <time>2020-08-22T10:53:16.000Z</time>
      </trkpt>
      <trkpt lat="44.11353" lon="7.01657">
        <ele>1885.4000244141</ele>
        <time>2020-08-22T10:53:21.000Z</time>
      </trkpt>
      <trkpt lat="44.11354" lon="7.01657">
        <ele>1885.5999755859</ele>
        <time>2020-08-22T10:53:22.000Z</time>
      </trkpt>
      <trkpt lat="44.11354" lon="7.01659">
        <ele>1886</ele>
        <time>2020-08-22T10:53:29.000Z</time>
      </trkpt>
      <trkpt lat="44.11355" lon="7.0166">
        <ele>1886.1999511719</ele>
        <time>2020-08-22T10:53:38.000Z</time>
      </trkpt>
      <trkpt lat="44.11356" lon="7.0166">
        <ele>1886.4000244141</ele>
        <time>2020-08-22T10:53:46.000Z</time>
      </trkpt>
      <trkpt lat="44.11358" lon="7.01661">
        <ele>1886</ele>
        <time>2020-08-22T10:53:53.000Z</time>
      </trkpt>
      <trkpt lat="44.11357" lon="7.01661">
        <ele>1886.1999511719</ele>
        <time>2020-08-22T10:53:58.000Z</time>
      </trkpt>
      <trkpt lat="44.11356" lon="7.01661">
        <ele>1886.1999511719</ele>
        <time>2020-08-22T10:54:06.000Z</time>
      </trkpt>
      <trkpt lat="44.11356" lon="7.01661">
        <ele>1886.4000244141</ele>
        <time>2020-08-22T10:54:13.000Z</time>
      </trkpt>
      <trkpt lat="44.11355" lon="7.01662">
        <ele>1886.5999755859</ele>
        <time>2020-08-22T10:54:18.000Z</time>
      </trkpt>
      <trkpt lat="44.11355" lon="7.01662">
        <ele>1886</ele>
        <time>2020-08-22T10:54:23.000Z</time>
      </trkpt>
      <trkpt lat="44.11356" lon="7.01662">
        <ele>1886.1999511719</ele>
        <time>2020-08-22T10:54:33.000Z</time>
      </trkpt>
      <trkpt lat="44.11356" lon="7.01663">
        <ele>1886.1999511719</ele>
        <time>2020-08-22T10:54:39.000Z</time>
      </trkpt>
      <trkpt lat="44.11356" lon="7.01663">
        <ele>1886</ele>
        <time>2020-08-22T10:54:49.000Z</time>
      </trkpt>
      <trkpt lat="44.11356" lon="7.01664">
        <ele>1886.1999511719</ele>
        <time>2020-08-22T10:54:56.000Z</time>
      </trkpt>
      <trkpt lat="44.11356" lon="7.01664">
        <ele>1886</ele>
        <time>2020-08-22T10:55:03.000Z</time>
      </trkpt>
      <trkpt lat="44.11357" lon="7.01663">
        <ele>1886.4000244141</ele>
        <time>2020-08-22T10:55:11.000Z</time>
      </trkpt>
      <trkpt lat="44.11358" lon="7.01663">
        <ele>1885.8000488281</ele>
        <time>2020-08-22T10:55:17.000Z</time>
      </trkpt>
      <trkpt lat="44.1136" lon="7.01655">
        <ele>1886</ele>
        <time>2020-08-22T10:55:23.000Z</time>
      </trkpt>
      <trkpt lat="44.1136" lon="7.01656">
        <ele>1886</ele>
        <time>2020-08-22T10:55:24.000Z</time>
      </trkpt>
      <trkpt lat="44.11359" lon="7.01661">
        <ele>1886.8000488281</ele>
        <time>2020-08-22T10:55:29.000Z</time>
      </trkpt>
      <trkpt lat="44.11358" lon="7.01664">
        <ele>1885.8000488281</ele>
        <time>2020-08-22T10:55:34.000Z</time>
      </trkpt>
      <trkpt lat="44.11357" lon="7.01665">
        <ele>1885.1999511719</ele>
        <time>2020-08-22T10:55:46.000Z</time>
      </trkpt>
      <trkpt lat="44.11356" lon="7.01666">
        <ele>1885</ele>
        <time>2020-08-22T10:55:53.000Z</time>
      </trkpt>
      <trkpt lat="44.11355" lon="7.01667">
        <ele>1885</ele>
        <time>2020-08-22T10:55:59.000Z</time>
      </trkpt>
      <trkpt lat="44.11355" lon="7.01667">
        <ele>1885.4000244141</ele>
        <time>2020-08-22T10:56:10.000Z</time>
      </trkpt>
      <trkpt lat="44.11355" lon="7.01666">
        <ele>1886</ele>
        <time>2020-08-22T10:56:18.000Z</time>
      </trkpt>
      <trkpt lat="44.11354" lon="7.01666">
        <ele>1886</ele>
        <time>2020-08-22T10:56:19.000Z</time>
      </trkpt>
      <trkpt lat="44.11355" lon="7.01666">
        <ele>1886</ele>
        <time>2020-08-22T10:56:28.000Z</time>
      </trkpt>
      <trkpt lat="44.11354" lon="7.01666">
        <ele>1885.8000488281</ele>
        <time>2020-08-22T10:56:35.000Z</time>
      </trkpt>
      <trkpt lat="44.11353" lon="7.01666">
        <ele>1885.4000244141</ele>
        <time>2020-08-22T10:56:45.000Z</time>
      </trkpt>
      <trkpt lat="44.11353" lon="7.01665">
        <ele>1885.5999755859</ele>
        <time>2020-08-22T10:57:00.000Z</time>
      </trkpt>
      <trkpt lat="44.11353" lon="7.01666">
        <ele>1885.4000244141</ele>
        <time>2020-08-22T10:57:06.000Z</time>
      </trkpt>
      <trkpt lat="44.11354" lon="7.01667">
        <ele>1885.4000244141</ele>
        <time>2020-08-22T10:57:08.000Z</time>
      </trkpt>
      <trkpt lat="44.11356" lon="7.01667">
        <ele>1885.5999755859</ele>
        <time>2020-08-22T10:57:10.000Z</time>
      </trkpt>
      <trkpt lat="44.11362" lon="7.01664">
        <ele>1885.8000488281</ele>
        <time>2020-08-22T10:57:16.000Z</time>
      </trkpt>
      <trkpt lat="44.11364" lon="7.01663">
        <ele>1886.4000244141</ele>
        <time>2020-08-22T10:57:18.000Z</time>
      </trkpt>
      <trkpt lat="44.11367" lon="7.01661">
        <ele>1887</ele>
        <time>2020-08-22T10:57:22.000Z</time>
      </trkpt>
      <trkpt lat="44.11368" lon="7.01661">
        <ele>1887.1999511719</ele>
        <time>2020-08-22T10:57:25.000Z</time>
      </trkpt>
      <trkpt lat="44.11369" lon="7.0166">
        <ele>1887.1999511719</ele>
        <time>2020-08-22T10:57:30.000Z</time>
      </trkpt>
      <trkpt lat="44.11377" lon="7.0166">
        <ele>1888</ele>
        <time>2020-08-22T10:57:37.000Z</time>
      </trkpt>
      <trkpt lat="44.11378" lon="7.01659">
        <ele>1888.1999511719</ele>
        <time>2020-08-22T10:57:38.000Z</time>
      </trkpt>
      <trkpt lat="44.11387" lon="7.01657">
        <ele>1888.8000488281</ele>
        <time>2020-08-22T10:57:44.000Z</time>
      </trkpt>
      <trkpt lat="44.11394" lon="7.01656">
        <ele>1888.8000488281</ele>
        <time>2020-08-22T10:57:50.000Z</time>
      </trkpt>
      <trkpt lat="44.11398" lon="7.01655">
        <ele>1889.4000244141</ele>
        <time>2020-08-22T10:57:53.000Z</time>
      </trkpt>
      <trkpt lat="44.11402" lon="7.01656">
        <ele>1890</ele>
        <time>2020-08-22T10:57:56.000Z</time>
      </trkpt>
      <trkpt lat="44.11414" lon="7.01654">
        <ele>1890</ele>
        <time>2020-08-22T10:58:05.000Z</time>
      </trkpt>
      <trkpt lat="44.11419" lon="7.01652">
        <ele>1890.5999755859</ele>
        <time>2020-08-22T10:58:08.000Z</time>
      </trkpt>
      <trkpt lat="44.11424" lon="7.01649">
        <ele>1891.5999755859</ele>
        <time>2020-08-22T10:58:12.000Z</time>
      </trkpt>
      <trkpt lat="44.11431" lon="7.01642">
        <ele>1892.5999755859</ele>
        <time>2020-08-22T10:58:19.000Z</time>
      </trkpt>
      <trkpt lat="44.11432" lon="7.01641">
        <ele>1893</ele>
        <time>2020-08-22T10:58:20.000Z</time>
      </trkpt>
      <trkpt lat="44.11435" lon="7.01638">
        <ele>1893.8000488281</ele>
        <time>2020-08-22T10:58:23.000Z</time>
      </trkpt>
      <trkpt lat="44.11437" lon="7.01636">
        <ele>1895</ele>
        <time>2020-08-22T10:58:26.000Z</time>
      </trkpt>
      <trkpt lat="44.11438" lon="7.01634">
        <ele>1895.4000244141</ele>
        <time>2020-08-22T10:58:27.000Z</time>
      </trkpt>
      <trkpt lat="44.11439" lon="7.01631">
        <ele>1896</ele>
        <time>2020-08-22T10:58:29.000Z</time>
      </trkpt>
      <trkpt lat="44.11441" lon="7.01626">
        <ele>1897.1999511719</ele>
        <time>2020-08-22T10:58:33.000Z</time>
      </trkpt>
      <trkpt lat="44.11442" lon="7.01623">
        <ele>1897.5999755859</ele>
        <time>2020-08-22T10:58:35.000Z</time>
      </trkpt>
      <trkpt lat="44.11448" lon="7.01623">
        <ele>1898.4000244141</ele>
        <time>2020-08-22T10:58:39.000Z</time>
      </trkpt>
      <trkpt lat="44.11448" lon="7.01623">
        <ele>1899</ele>
        <time>2020-08-22T10:58:41.000Z</time>
      </trkpt>
      <trkpt lat="44.11449" lon="7.01623">
        <ele>1899.5999755859</ele>
        <time>2020-08-22T10:58:42.000Z</time>
      </trkpt>
      <trkpt lat="44.11452" lon="7.01626">
        <ele>1900.1999511719</ele>
        <time>2020-08-22T10:58:47.000Z</time>
      </trkpt>
      <trkpt lat="44.11454" lon="7.01627">
        <ele>1900.5999755859</ele>
        <time>2020-08-22T10:58:51.000Z</time>
      </trkpt>
      <trkpt lat="44.11456" lon="7.01626">
        <ele>1901.1999511719</ele>
        <time>2020-08-22T10:58:54.000Z</time>
      </trkpt>
      <trkpt lat="44.11459" lon="7.01624">
        <ele>1901.8000488281</ele>
        <time>2020-08-22T10:58:58.000Z</time>
      </trkpt>
      <trkpt lat="44.1146" lon="7.01621">
        <ele>1903.1999511719</ele>
        <time>2020-08-22T10:59:02.000Z</time>
      </trkpt>
      <trkpt lat="44.11462" lon="7.01617">
        <ele>1904.1999511719</ele>
        <time>2020-08-22T10:59:08.000Z</time>
      </trkpt>
      <trkpt lat="44.11463" lon="7.01615">
        <ele>1904.4000244141</ele>
        <time>2020-08-22T10:59:11.000Z</time>
      </trkpt>
      <trkpt lat="44.11467" lon="7.01611">
        <ele>1905.4000244141</ele>
        <time>2020-08-22T10:59:17.000Z</time>
      </trkpt>
      <trkpt lat="44.11469" lon="7.01606">
        <ele>1906.4000244141</ele>
        <time>2020-08-22T10:59:21.000Z</time>
      </trkpt>
      <trkpt lat="44.11468" lon="7.01607">
        <ele>1906.5999755859</ele>
        <time>2020-08-22T10:59:22.000Z</time>
      </trkpt>
      <trkpt lat="44.11469" lon="7.01606">
        <ele>1906.5999755859</ele>
        <time>2020-08-22T10:59:29.000Z</time>
      </trkpt>
      <trkpt lat="44.11471" lon="7.01594">
        <ele>1906.5999755859</ele>
        <time>2020-08-22T10:59:35.000Z</time>
      </trkpt>
      <trkpt lat="44.11469" lon="7.01572">
        <ele>1906</ele>
        <time>2020-08-22T10:59:40.000Z</time>
      </trkpt>
      <trkpt lat="44.11469" lon="7.01556">
        <ele>1905.8000488281</ele>
        <time>2020-08-22T10:59:46.000Z</time>
      </trkpt>
      <trkpt lat="44.11467" lon="7.01542">
        <ele>1906.5999755859</ele>
        <time>2020-08-22T10:59:53.000Z</time>
      </trkpt>
      <trkpt lat="44.11469" lon="7.01523">
        <ele>1905.5999755859</ele>
        <time>2020-08-22T10:59:58.000Z</time>
      </trkpt>
      <trkpt lat="44.1147" lon="7.01517">
        <ele>1905.4000244141</ele>
        <time>2020-08-22T11:00:00.000Z</time>
      </trkpt>
      <trkpt lat="44.1147" lon="7.01506">
        <ele>1905.5999755859</ele>
        <time>2020-08-22T11:00:04.000Z</time>
      </trkpt>
      <trkpt lat="44.11473" lon="7.01491">
        <ele>1906.1999511719</ele>
        <time>2020-08-22T11:00:10.000Z</time>
      </trkpt>
      <trkpt lat="44.11473" lon="7.01487">
        <ele>1906.4000244141</ele>
        <time>2020-08-22T11:00:12.000Z</time>
      </trkpt>
      <trkpt lat="44.11475" lon="7.01481">
        <ele>1907.1999511719</ele>
        <time>2020-08-22T11:00:15.000Z</time>
      </trkpt>
      <trkpt lat="44.11477" lon="7.01469">
        <ele>1907</ele>
        <time>2020-08-22T11:00:20.000Z</time>
      </trkpt>
      <trkpt lat="44.11477" lon="7.01458">
        <ele>1907.1999511719</ele>
        <time>2020-08-22T11:00:27.000Z</time>
      </trkpt>
      <trkpt lat="44.11476" lon="7.01454">
        <ele>1906.5999755859</ele>
        <time>2020-08-22T11:00:34.000Z</time>
      </trkpt>
      <trkpt lat="44.11474" lon="7.01449">
        <ele>1907</ele>
        <time>2020-08-22T11:00:39.000Z</time>
      </trkpt>
      <trkpt lat="44.1147" lon="7.01443">
        <ele>1906.5999755859</ele>
        <time>2020-08-22T11:00:46.000Z</time>
      </trkpt>
      <trkpt lat="44.11469" lon="7.01439">
        <ele>1906.5999755859</ele>
        <time>2020-08-22T11:00:51.000Z</time>
      </trkpt>
      <trkpt lat="44.11469" lon="7.01419">
        <ele>1905.8000488281</ele>
        <time>2020-08-22T11:00:55.000Z</time>
      </trkpt>
      <trkpt lat="44.1147" lon="7.01409">
        <ele>1905.4000244141</ele>
        <time>2020-08-22T11:00:57.000Z</time>
      </trkpt>
      <trkpt lat="44.11472" lon="7.01397">
        <ele>1905</ele>
        <time>2020-08-22T11:01:00.000Z</time>
      </trkpt>
      <trkpt lat="44.11476" lon="7.01373">
        <ele>1904.4000244141</ele>
        <time>2020-08-22T11:01:05.000Z</time>
      </trkpt>
      <trkpt lat="44.11482" lon="7.0135">
        <ele>1904.1999511719</ele>
        <time>2020-08-22T11:01:09.000Z</time>
      </trkpt>
      <trkpt lat="44.11484" lon="7.01345">
        <ele>1904</ele>
        <time>2020-08-22T11:01:10.000Z</time>
      </trkpt>
      <trkpt lat="44.11491" lon="7.01328">
        <ele>1903.8000488281</ele>
        <time>2020-08-22T11:01:15.000Z</time>
      </trkpt>
      <trkpt lat="44.11494" lon="7.01322">
        <ele>1904.4000244141</ele>
        <time>2020-08-22T11:01:20.000Z</time>
      </trkpt>
      <trkpt lat="44.11494" lon="7.01321">
        <ele>1904.4000244141</ele>
        <time>2020-08-22T11:01:42.000Z</time>
      </trkpt>
      <trkpt lat="44.11494" lon="7.01321">
        <ele>1904.4000244141</ele>
        <time>2020-08-22T11:02:15.000Z</time>
      </trkpt>
      <trkpt lat="44.11494" lon="7.0132">
        <ele>1904.1999511719</ele>
        <time>2020-08-22T11:02:21.000Z</time>
      </trkpt>
      <trkpt lat="44.11497" lon="7.01315">
        <ele>1904.4000244141</ele>
        <time>2020-08-22T11:02:24.000Z</time>
      </trkpt>
      <trkpt lat="44.115" lon="7.0131">
        <ele>1904.4000244141</ele>
        <time>2020-08-22T11:02:26.000Z</time>
      </trkpt>
      <trkpt lat="44.11506" lon="7.01299">
        <ele>1904.5999755859</ele>
        <time>2020-08-22T11:02:30.000Z</time>
      </trkpt>
      <trkpt lat="44.11514" lon="7.01285">
        <ele>1905.4000244141</ele>
        <time>2020-08-22T11:02:35.000Z</time>
      </trkpt>
      <trkpt lat="44.11515" lon="7.01282">
        <ele>1905.4000244141</ele>
        <time>2020-08-22T11:02:36.000Z</time>
      </trkpt>
      <trkpt lat="44.11526" lon="7.01262">
        <ele>1905.4000244141</ele>
        <time>2020-08-22T11:02:43.000Z</time>
      </trkpt>
      <trkpt lat="44.11537" lon="7.01239">
        <ele>1905.4000244141</ele>
        <time>2020-08-22T11:02:49.000Z</time>
      </trkpt>
      <trkpt lat="44.11544" lon="7.01224">
        <ele>1904.1999511719</ele>
        <time>2020-08-22T11:02:52.000Z</time>
      </trkpt>
      <trkpt lat="44.11546" lon="7.0122">
        <ele>1903.5999755859</ele>
        <time>2020-08-22T11:02:53.000Z</time>
      </trkpt>
      <trkpt lat="44.11549" lon="7.01217">
        <ele>1902.8000488281</ele>
        <time>2020-08-22T11:02:54.000Z</time>
      </trkpt>
      <trkpt lat="44.11553" lon="7.0121">
        <ele>1901.5999755859</ele>
        <time>2020-08-22T11:02:56.000Z</time>
      </trkpt>
      <trkpt lat="44.11553" lon="7.01209">
        <ele>1901.4000244141</ele>
        <time>2020-08-22T11:02:58.000Z</time>
      </trkpt>
      <trkpt lat="44.11557" lon="7.01203">
        <ele>1902.1999511719</ele>
        <time>2020-08-22T11:03:03.000Z</time>
      </trkpt>
      <trkpt lat="44.11563" lon="7.01191">
        <ele>1902.1999511719</ele>
        <time>2020-08-22T11:03:07.000Z</time>
      </trkpt>
      <trkpt lat="44.11567" lon="7.0118">
        <ele>1901.5999755859</ele>
        <time>2020-08-22T11:03:11.000Z</time>
      </trkpt>
      <trkpt lat="44.11568" lon="7.01177">
        <ele>1900.5999755859</ele>
        <time>2020-08-22T11:03:12.000Z</time>
      </trkpt>
      <trkpt lat="44.11574" lon="7.01168">
        <ele>1899.1999511719</ele>
        <time>2020-08-22T11:03:15.000Z</time>
      </trkpt>
      <trkpt lat="44.11581" lon="7.01158">
        <ele>1898.8000488281</ele>
        <time>2020-08-22T11:03:20.000Z</time>
      </trkpt>
      <trkpt lat="44.11586" lon="7.01151">
        <ele>1899.1999511719</ele>
        <time>2020-08-22T11:03:25.000Z</time>
      </trkpt>
      <trkpt lat="44.11591" lon="7.01145">
        <ele>1899</ele>
        <time>2020-08-22T11:03:29.000Z</time>
      </trkpt>
      <trkpt lat="44.11593" lon="7.01143">
        <ele>1899.1999511719</ele>
        <time>2020-08-22T11:03:30.000Z</time>
      </trkpt>
      <trkpt lat="44.11598" lon="7.01136">
        <ele>1898.8000488281</ele>
        <time>2020-08-22T11:03:35.000Z</time>
      </trkpt>
      <trkpt lat="44.11606" lon="7.01122">
        <ele>1898.5999755859</ele>
        <time>2020-08-22T11:03:40.000Z</time>
      </trkpt>
      <trkpt lat="44.11611" lon="7.01116">
        <ele>1898.1999511719</ele>
        <time>2020-08-22T11:03:45.000Z</time>
      </trkpt>
      <trkpt lat="44.11613" lon="7.01114">
        <ele>1898.1999511719</ele>
        <time>2020-08-22T11:03:47.000Z</time>
      </trkpt>
      <trkpt lat="44.11613" lon="7.01114">
        <ele>1898.1999511719</ele>
        <time>2020-08-22T11:03:49.000Z</time>
      </trkpt>
      <trkpt lat="44.11614" lon="7.01112">
        <ele>1898</ele>
        <time>2020-08-22T11:03:51.000Z</time>
      </trkpt>
      <trkpt lat="44.11617" lon="7.01107">
        <ele>1898.1999511719</ele>
        <time>2020-08-22T11:03:53.000Z</time>
      </trkpt>
      <trkpt lat="44.11629" lon="7.01091">
        <ele>1897.1999511719</ele>
        <time>2020-08-22T11:03:58.000Z</time>
      </trkpt>
      <trkpt lat="44.11634" lon="7.01087">
        <ele>1897</ele>
        <time>2020-08-22T11:04:00.000Z</time>
      </trkpt>
      <trkpt lat="44.11644" lon="7.01079">
        <ele>1897</ele>
        <time>2020-08-22T11:04:05.000Z</time>
      </trkpt>
      <trkpt lat="44.11659" lon="7.0107">
        <ele>1898.1999511719</ele>
        <time>2020-08-22T11:04:11.000Z</time>
      </trkpt>
      <trkpt lat="44.11663" lon="7.01067">
        <ele>1898</ele>
        <time>2020-08-22T11:04:12.000Z</time>
      </trkpt>
      <trkpt lat="44.11667" lon="7.01064">
        <ele>1898</ele>
        <time>2020-08-22T11:04:13.000Z</time>
      </trkpt>
      <trkpt lat="44.11677" lon="7.01049">
        <ele>1897.1999511719</ele>
        <time>2020-08-22T11:04:16.000Z</time>
      </trkpt>
      <trkpt lat="44.11677" lon="7.01036">
        <ele>1896.1999511719</ele>
        <time>2020-08-22T11:04:19.000Z</time>
      </trkpt>
      <trkpt lat="44.11677" lon="7.01032">
        <ele>1896</ele>
        <time>2020-08-22T11:04:20.000Z</time>
      </trkpt>
      <trkpt lat="44.11676" lon="7.01029">
        <ele>1896</ele>
        <time>2020-08-22T11:04:21.000Z</time>
      </trkpt>
      <trkpt lat="44.11676" lon="7.0102">
        <ele>1896.1999511719</ele>
        <time>2020-08-22T11:04:24.000Z</time>
      </trkpt>
      <trkpt lat="44.11677" lon="7.01011">
        <ele>1897</ele>
        <time>2020-08-22T11:04:28.000Z</time>
      </trkpt>
      <trkpt lat="44.11677" lon="7.01006">
        <ele>1897.4000244141</ele>
        <time>2020-08-22T11:04:31.000Z</time>
      </trkpt>
      <trkpt lat="44.11678" lon="7.00996">
        <ele>1898.4000244141</ele>
        <time>2020-08-22T11:04:36.000Z</time>
      </trkpt>
      <trkpt lat="44.11679" lon="7.00987">
        <ele>1899.4000244141</ele>
        <time>2020-08-22T11:04:40.000Z</time>
      </trkpt>
      <trkpt lat="44.11679" lon="7.00984">
        <ele>1899.5999755859</ele>
        <time>2020-08-22T11:04:41.000Z</time>
      </trkpt>
      <trkpt lat="44.11681" lon="7.00976">
        <ele>1900.4000244141</ele>
        <time>2020-08-22T11:04:46.000Z</time>
      </trkpt>
      <trkpt lat="44.11681" lon="7.00976">
        <ele>1900.5999755859</ele>
        <time>2020-08-22T11:04:47.000Z</time>
      </trkpt>
      <trkpt lat="44.11682" lon="7.00973">
        <ele>1900.5999755859</ele>
        <time>2020-08-22T11:04:51.000Z</time>
      </trkpt>
      <trkpt lat="44.11682" lon="7.00962">
        <ele>1900.4000244141</ele>
        <time>2020-08-22T11:04:58.000Z</time>
      </trkpt>
      <trkpt lat="44.11682" lon="7.00962">
        <ele>1901.8000488281</ele>
        <time>2020-08-22T11:05:02.000Z</time>
      </trkpt>
      <trkpt lat="44.11682" lon="7.00962">
        <ele>1902.1999511719</ele>
        <time>2020-08-22T11:05:05.000Z</time>
      </trkpt>
      <trkpt lat="44.11681" lon="7.00959">
        <ele>1901.4000244141</ele>
        <time>2020-08-22T11:05:11.000Z</time>
      </trkpt>
      <trkpt lat="44.11682" lon="7.00955">
        <ele>1901.4000244141</ele>
        <time>2020-08-22T11:05:13.000Z</time>
      </trkpt>
      <trkpt lat="44.11683" lon="7.00948">
        <ele>1901.8000488281</ele>
        <time>2020-08-22T11:05:17.000Z</time>
      </trkpt>
      <trkpt lat="44.11685" lon="7.00945">
        <ele>1903.4000244141</ele>
        <time>2020-08-22T11:05:20.000Z</time>
      </trkpt>
      <trkpt lat="44.11686" lon="7.00939">
        <ele>1904.4000244141</ele>
        <time>2020-08-22T11:05:24.000Z</time>
      </trkpt>
      <trkpt lat="44.11685" lon="7.00934">
        <ele>1905</ele>
        <time>2020-08-22T11:05:27.000Z</time>
      </trkpt>
      <trkpt lat="44.11684" lon="7.0093">
        <ele>1905.4000244141</ele>
        <time>2020-08-22T11:05:32.000Z</time>
      </trkpt>
      <trkpt lat="44.11684" lon="7.00924">
        <ele>1905.4000244141</ele>
        <time>2020-08-22T11:05:34.000Z</time>
      </trkpt>
      <trkpt lat="44.11682" lon="7.00913">
        <ele>1905.1999511719</ele>
        <time>2020-08-22T11:05:38.000Z</time>
      </trkpt>
      <trkpt lat="44.11683" lon="7.00902">
        <ele>1905</ele>
        <time>2020-08-22T11:05:43.000Z</time>
      </trkpt>
      <trkpt lat="44.11682" lon="7.00888">
        <ele>1906</ele>
        <time>2020-08-22T11:05:49.000Z</time>
      </trkpt>
      <trkpt lat="44.1168" lon="7.00879">
        <ele>1906.5999755859</ele>
        <time>2020-08-22T11:05:52.000Z</time>
      </trkpt>
      <trkpt lat="44.11679" lon="7.00872">
        <ele>1906.8000488281</ele>
        <time>2020-08-22T11:05:55.000Z</time>
      </trkpt>
      <trkpt lat="44.11679" lon="7.00865">
        <ele>1906.5999755859</ele>
        <time>2020-08-22T11:05:58.000Z</time>
      </trkpt>
      <trkpt lat="44.11678" lon="7.00865">
        <ele>1906.5999755859</ele>
        <time>2020-08-22T11:05:59.000Z</time>
      </trkpt>
      <trkpt lat="44.11679" lon="7.00858">
        <ele>1907.1999511719</ele>
        <time>2020-08-22T11:06:04.000Z</time>
      </trkpt>
      <trkpt lat="44.11679" lon="7.00854">
        <ele>1907.8000488281</ele>
        <time>2020-08-22T11:06:07.000Z</time>
      </trkpt>
      <trkpt lat="44.1168" lon="7.00851">
        <ele>1909</ele>
        <time>2020-08-22T11:06:10.000Z</time>
      </trkpt>
      <trkpt lat="44.1168" lon="7.00848">
        <ele>1910.1999511719</ele>
        <time>2020-08-22T11:06:13.000Z</time>
      </trkpt>
      <trkpt lat="44.11678" lon="7.0084">
        <ele>1911</ele>
        <time>2020-08-22T11:06:19.000Z</time>
      </trkpt>
      <trkpt lat="44.11676" lon="7.00825">
        <ele>1910.8000488281</ele>
        <time>2020-08-22T11:06:28.000Z</time>
      </trkpt>
      <trkpt lat="44.11676" lon="7.00819">
        <ele>1911.4000244141</ele>
        <time>2020-08-22T11:06:32.000Z</time>
      </trkpt>
      <trkpt lat="44.11674" lon="7.00812">
        <ele>1911.4000244141</ele>
        <time>2020-08-22T11:06:36.000Z</time>
      </trkpt>
      <trkpt lat="44.11674" lon="7.00804">
        <ele>1912.4000244141</ele>
        <time>2020-08-22T11:06:42.000Z</time>
      </trkpt>
      <trkpt lat="44.11673" lon="7.00801">
        <ele>1912.8000488281</ele>
        <time>2020-08-22T11:06:44.000Z</time>
      </trkpt>
      <trkpt lat="44.11673" lon="7.0079">
        <ele>1912.4000244141</ele>
        <time>2020-08-22T11:06:50.000Z</time>
      </trkpt>
      <trkpt lat="44.11675" lon="7.0078">
        <ele>1913.5999755859</ele>
        <time>2020-08-22T11:06:57.000Z</time>
      </trkpt>
      <trkpt lat="44.11675" lon="7.00779">
        <ele>1913.5999755859</ele>
        <time>2020-08-22T11:06:58.000Z</time>
      </trkpt>
      <trkpt lat="44.11678" lon="7.0077">
        <ele>1914.8000488281</ele>
        <time>2020-08-22T11:07:05.000Z</time>
      </trkpt>
      <trkpt lat="44.11678" lon="7.00767">
        <ele>1915.1999511719</ele>
        <time>2020-08-22T11:07:07.000Z</time>
      </trkpt>
      <trkpt lat="44.11678" lon="7.00765">
        <ele>1915.1999511719</ele>
        <time>2020-08-22T11:07:09.000Z</time>
      </trkpt>
      <trkpt lat="44.11678" lon="7.00761">
        <ele>1915</ele>
        <time>2020-08-22T11:07:11.000Z</time>
      </trkpt>
      <trkpt lat="44.11678" lon="7.00754">
        <ele>1914.8000488281</ele>
        <time>2020-08-22T11:07:13.000Z</time>
      </trkpt>
      <trkpt lat="44.11677" lon="7.0074">
        <ele>1914.5999755859</ele>
        <time>2020-08-22T11:07:18.000Z</time>
      </trkpt>
      <trkpt lat="44.11673" lon="7.00715">
        <ele>1915.4000244141</ele>
        <time>2020-08-22T11:07:24.000Z</time>
      </trkpt>
      <trkpt lat="44.11673" lon="7.00707">
        <ele>1915.1999511719</ele>
        <time>2020-08-22T11:07:28.000Z</time>
      </trkpt>
      <trkpt lat="44.11676" lon="7.00695">
        <ele>1916</ele>
        <time>2020-08-22T11:07:32.000Z</time>
      </trkpt>
      <trkpt lat="44.11677" lon="7.00692">
        <ele>1915.8000488281</ele>
        <time>2020-08-22T11:07:33.000Z</time>
      </trkpt>
      <trkpt lat="44.1168" lon="7.00676">
        <ele>1917.1999511719</ele>
        <time>2020-08-22T11:07:39.000Z</time>
      </trkpt>
      <trkpt lat="44.11683" lon="7.00657">
        <ele>1917.4000244141</ele>
        <time>2020-08-22T11:07:46.000Z</time>
      </trkpt>
      <trkpt lat="44.11688" lon="7.00642">
        <ele>1918</ele>
        <time>2020-08-22T11:07:52.000Z</time>
      </trkpt>
      <trkpt lat="44.11688" lon="7.00637">
        <ele>1918.4000244141</ele>
        <time>2020-08-22T11:07:54.000Z</time>
      </trkpt>
      <trkpt lat="44.1169" lon="7.0063">
        <ele>1919.5999755859</ele>
        <time>2020-08-22T11:07:57.000Z</time>
      </trkpt>
      <trkpt lat="44.11691" lon="7.00627">
        <ele>1920</ele>
        <time>2020-08-22T11:07:59.000Z</time>
      </trkpt>
      <trkpt lat="44.11693" lon="7.00627">
        <ele>1920.1999511719</ele>
        <time>2020-08-22T11:08:00.000Z</time>
      </trkpt>
      <trkpt lat="44.11695" lon="7.00629">
        <ele>1920.5999755859</ele>
        <time>2020-08-22T11:08:03.000Z</time>
      </trkpt>
      <trkpt lat="44.11696" lon="7.00629">
        <ele>1920.5999755859</ele>
        <time>2020-08-22T11:08:04.000Z</time>
      </trkpt>
      <trkpt lat="44.11697" lon="7.0063">
        <ele>1921.1999511719</ele>
        <time>2020-08-22T11:08:09.000Z</time>
      </trkpt>
      <trkpt lat="44.11698" lon="7.00631">
        <ele>1921.4000244141</ele>
        <time>2020-08-22T11:08:15.000Z</time>
      </trkpt>
      <trkpt lat="44.11699" lon="7.00631">
        <ele>1921.5999755859</ele>
        <time>2020-08-22T11:08:19.000Z</time>
      </trkpt>
      <trkpt lat="44.11703" lon="7.00633">
        <ele>1921.5999755859</ele>
        <time>2020-08-22T11:08:22.000Z</time>
      </trkpt>
      <trkpt lat="44.11714" lon="7.00639">
        <ele>1922</ele>
        <time>2020-08-22T11:08:29.000Z</time>
      </trkpt>
      <trkpt lat="44.11718" lon="7.00642">
        <ele>1922.8000488281</ele>
        <time>2020-08-22T11:08:32.000Z</time>
      </trkpt>
      <trkpt lat="44.11727" lon="7.00648">
        <ele>1924</ele>
        <time>2020-08-22T11:08:38.000Z</time>
      </trkpt>
      <trkpt lat="44.11733" lon="7.0065">
        <ele>1925</ele>
        <time>2020-08-22T11:08:43.000Z</time>
      </trkpt>
      <trkpt lat="44.11738" lon="7.00654">
        <ele>1926.1999511719</ele>
        <time>2020-08-22T11:08:47.000Z</time>
      </trkpt>
      <trkpt lat="44.11739" lon="7.00655">
        <ele>1927</ele>
        <time>2020-08-22T11:08:51.000Z</time>
      </trkpt>
      <trkpt lat="44.1174" lon="7.00656">
        <ele>1927.1999511719</ele>
        <time>2020-08-22T11:08:53.000Z</time>
      </trkpt>
      <trkpt lat="44.11745" lon="7.0066">
        <ele>1928.4000244141</ele>
        <time>2020-08-22T11:08:59.000Z</time>
      </trkpt>
      <trkpt lat="44.11746" lon="7.00661">
        <ele>1928.4000244141</ele>
        <time>2020-08-22T11:09:00.000Z</time>
      </trkpt>
      <trkpt lat="44.11751" lon="7.00664">
        <ele>1929.1999511719</ele>
        <time>2020-08-22T11:09:06.000Z</time>
      </trkpt>
      <trkpt lat="44.11754" lon="7.00666">
        <ele>1929.4000244141</ele>
        <time>2020-08-22T11:09:09.000Z</time>
      </trkpt>
      <trkpt lat="44.11757" lon="7.00668">
        <ele>1930.1999511719</ele>
        <time>2020-08-22T11:09:13.000Z</time>
      </trkpt>
      <trkpt lat="44.11758" lon="7.00669">
        <ele>1930.4000244141</ele>
        <time>2020-08-22T11:09:15.000Z</time>
      </trkpt>
      <trkpt lat="44.11764" lon="7.00672">
        <ele>1931</ele>
        <time>2020-08-22T11:09:21.000Z</time>
      </trkpt>
      <trkpt lat="44.11766" lon="7.00673">
        <ele>1931.5999755859</ele>
        <time>2020-08-22T11:09:23.000Z</time>
      </trkpt>
      <trkpt lat="44.1177" lon="7.00676">
        <ele>1932.5999755859</ele>
        <time>2020-08-22T11:09:28.000Z</time>
      </trkpt>
      <trkpt lat="44.11771" lon="7.00676">
        <ele>1932.5999755859</ele>
        <time>2020-08-22T11:09:29.000Z</time>
      </trkpt>
      <trkpt lat="44.11778" lon="7.00682">
        <ele>1933.5999755859</ele>
        <time>2020-08-22T11:09:38.000Z</time>
      </trkpt>
      <trkpt lat="44.11779" lon="7.00682">
        <ele>1933.8000488281</ele>
        <time>2020-08-22T11:09:39.000Z</time>
      </trkpt>
      <trkpt lat="44.11783" lon="7.00684">
        <ele>1934.8000488281</ele>
        <time>2020-08-22T11:09:43.000Z</time>
      </trkpt>
      <trkpt lat="44.11784" lon="7.00687">
        <ele>1936.1999511719</ele>
        <time>2020-08-22T11:09:47.000Z</time>
      </trkpt>
      <trkpt lat="44.11785" lon="7.00687">
        <ele>1936.4000244141</ele>
        <time>2020-08-22T11:09:48.000Z</time>
      </trkpt>
      <trkpt lat="44.11788" lon="7.00691">
        <ele>1937</ele>
        <time>2020-08-22T11:09:54.000Z</time>
      </trkpt>
      <trkpt lat="44.1179" lon="7.00693">
        <ele>1937.1999511719</ele>
        <time>2020-08-22T11:09:57.000Z</time>
      </trkpt>
      <trkpt lat="44.11793" lon="7.00695">
        <ele>1938.4000244141</ele>
        <time>2020-08-22T11:10:01.000Z</time>
      </trkpt>
      <trkpt lat="44.11795" lon="7.00696">
        <ele>1938.5999755859</ele>
        <time>2020-08-22T11:10:03.000Z</time>
      </trkpt>
      <trkpt lat="44.11798" lon="7.00698">
        <ele>1939.4000244141</ele>
        <time>2020-08-22T11:10:07.000Z</time>
      </trkpt>
      <trkpt lat="44.118" lon="7.007">
        <ele>1940</ele>
        <time>2020-08-22T11:10:10.000Z</time>
      </trkpt>
      <trkpt lat="44.11802" lon="7.007">
        <ele>1940.4000244141</ele>
        <time>2020-08-22T11:10:12.000Z</time>
      </trkpt>
      <trkpt lat="44.11807" lon="7.00703">
        <ele>1941.8000488281</ele>
        <time>2020-08-22T11:10:18.000Z</time>
      </trkpt>
      <trkpt lat="44.11814" lon="7.00706">
        <ele>1942.4000244141</ele>
        <time>2020-08-22T11:10:26.000Z</time>
      </trkpt>
      <trkpt lat="44.11815" lon="7.00707">
        <ele>1943</ele>
        <time>2020-08-22T11:10:28.000Z</time>
      </trkpt>
      <trkpt lat="44.11821" lon="7.0071">
        <ele>1944</ele>
        <time>2020-08-22T11:10:34.000Z</time>
      </trkpt>
      <trkpt lat="44.11827" lon="7.00715">
        <ele>1945</ele>
        <time>2020-08-22T11:10:41.000Z</time>
      </trkpt>
      <trkpt lat="44.11826" lon="7.00715">
        <ele>1945.4000244141</ele>
        <time>2020-08-22T11:10:42.000Z</time>
      </trkpt>
      <trkpt lat="44.11829" lon="7.00719">
        <ele>1946</ele>
        <time>2020-08-22T11:10:45.000Z</time>
      </trkpt>
      <trkpt lat="44.11837" lon="7.00726">
        <ele>1945.8000488281</ele>
        <time>2020-08-22T11:10:51.000Z</time>
      </trkpt>
      <trkpt lat="44.11841" lon="7.00726">
        <ele>1946.4000244141</ele>
        <time>2020-08-22T11:10:54.000Z</time>
      </trkpt>
      <trkpt lat="44.11844" lon="7.00728">
        <ele>1947.8000488281</ele>
        <time>2020-08-22T11:10:57.000Z</time>
      </trkpt>
      <trkpt lat="44.11848" lon="7.0073">
        <ele>1949.1999511719</ele>
        <time>2020-08-22T11:11:00.000Z</time>
      </trkpt>
      <trkpt lat="44.11857" lon="7.0073">
        <ele>1949.5999755859</ele>
        <time>2020-08-22T11:11:06.000Z</time>
      </trkpt>
      <trkpt lat="44.11858" lon="7.00729">
        <ele>1950.4000244141</ele>
        <time>2020-08-22T11:11:10.000Z</time>
      </trkpt>
      <trkpt lat="44.11858" lon="7.00728">
        <ele>1950.5999755859</ele>
        <time>2020-08-22T11:11:11.000Z</time>
      </trkpt>
      <trkpt lat="44.11859" lon="7.00728">
        <ele>1951.4000244141</ele>
        <time>2020-08-22T11:11:14.000Z</time>
      </trkpt>
      <trkpt lat="44.11861" lon="7.00727">
        <ele>1951.5999755859</ele>
        <time>2020-08-22T11:11:17.000Z</time>
      </trkpt>
      <trkpt lat="44.11865" lon="7.00722">
        <ele>1951.5999755859</ele>
        <time>2020-08-22T11:11:22.000Z</time>
      </trkpt>
      <trkpt lat="44.11871" lon="7.00718">
        <ele>1952.4000244141</ele>
        <time>2020-08-22T11:11:28.000Z</time>
      </trkpt>
      <trkpt lat="44.11872" lon="7.00718">
        <ele>1952.5999755859</ele>
        <time>2020-08-22T11:11:29.000Z</time>
      </trkpt>
      <trkpt lat="44.11879" lon="7.00715">
        <ele>1953.4000244141</ele>
        <time>2020-08-22T11:11:35.000Z</time>
      </trkpt>
      <trkpt lat="44.11881" lon="7.00714">
        <ele>1953.5999755859</ele>
        <time>2020-08-22T11:11:37.000Z</time>
      </trkpt>
      <trkpt lat="44.11888" lon="7.00713">
        <ele>1954.8000488281</ele>
        <time>2020-08-22T11:11:43.000Z</time>
      </trkpt>
      <trkpt lat="44.1189" lon="7.00713">
        <ele>1955.1999511719</ele>
        <time>2020-08-22T11:11:45.000Z</time>
      </trkpt>
      <trkpt lat="44.11892" lon="7.00712">
        <ele>1956</ele>
        <time>2020-08-22T11:11:47.000Z</time>
      </trkpt>
      <trkpt lat="44.11893" lon="7.00712">
        <ele>1956.5999755859</ele>
        <time>2020-08-22T11:11:50.000Z</time>
      </trkpt>
      <trkpt lat="44.11897" lon="7.00711">
        <ele>1956.4000244141</ele>
        <time>2020-08-22T11:11:56.000Z</time>
      </trkpt>
      <trkpt lat="44.11903" lon="7.00708">
        <ele>1957.1999511719</ele>
        <time>2020-08-22T11:12:02.000Z</time>
      </trkpt>
      <trkpt lat="44.1191" lon="7.00703">
        <ele>1957.8000488281</ele>
        <time>2020-08-22T11:12:08.000Z</time>
      </trkpt>
      <trkpt lat="44.1192" lon="7.00695">
        <ele>1957.5999755859</ele>
        <time>2020-08-22T11:12:15.000Z</time>
      </trkpt>
      <trkpt lat="44.11923" lon="7.00693">
        <ele>1957.4000244141</ele>
        <time>2020-08-22T11:12:20.000Z</time>
      </trkpt>
      <trkpt lat="44.11924" lon="7.00692">
        <ele>1957</ele>
        <time>2020-08-22T11:12:23.000Z</time>
      </trkpt>
      <trkpt lat="44.11924" lon="7.00691">
        <ele>1957</ele>
        <time>2020-08-22T11:12:25.000Z</time>
      </trkpt>
      <trkpt lat="44.11924" lon="7.00691">
        <ele>1957.4000244141</ele>
        <time>2020-08-22T11:12:35.000Z</time>
      </trkpt>
      <trkpt lat="44.11924" lon="7.00691">
        <ele>1957.4000244141</ele>
        <time>2020-08-22T11:12:44.000Z</time>
      </trkpt>
      <trkpt lat="44.11924" lon="7.0069">
        <ele>1956.8000488281</ele>
        <time>2020-08-22T11:12:50.000Z</time>
      </trkpt>
      <trkpt lat="44.11932" lon="7.00682">
        <ele>1957.1999511719</ele>
        <time>2020-08-22T11:12:55.000Z</time>
      </trkpt>
      <trkpt lat="44.11945" lon="7.0067">
        <ele>1956.4000244141</ele>
        <time>2020-08-22T11:12:59.000Z</time>
      </trkpt>
      <trkpt lat="44.11951" lon="7.00665">
        <ele>1955.8000488281</ele>
        <time>2020-08-22T11:13:01.000Z</time>
      </trkpt>
      <trkpt lat="44.11957" lon="7.00658">
        <ele>1954.1999511719</ele>
        <time>2020-08-22T11:13:04.000Z</time>
      </trkpt>
      <trkpt lat="44.11964" lon="7.00648">
        <ele>1952.8000488281</ele>
        <time>2020-08-22T11:13:07.000Z</time>
      </trkpt>
      <trkpt lat="44.11967" lon="7.00641">
        <ele>1951.5999755859</ele>
        <time>2020-08-22T11:13:09.000Z</time>
      </trkpt>
      <trkpt lat="44.1197" lon="7.00635">
        <ele>1950.1999511719</ele>
        <time>2020-08-22T11:13:11.000Z</time>
      </trkpt>
      <trkpt lat="44.11974" lon="7.0063">
        <ele>1948.8000488281</ele>
        <time>2020-08-22T11:13:13.000Z</time>
      </trkpt>
      <trkpt lat="44.11979" lon="7.00625">
        <ele>1947.1999511719</ele>
        <time>2020-08-22T11:13:15.000Z</time>
      </trkpt>
      <trkpt lat="44.11986" lon="7.00619">
        <ele>1946.1999511719</ele>
        <time>2020-08-22T11:13:17.000Z</time>
      </trkpt>
      <trkpt lat="44.11988" lon="7.00617">
        <ele>1945.8000488281</ele>
        <time>2020-08-22T11:13:18.000Z</time>
      </trkpt>
      <trkpt lat="44.11995" lon="7.00611">
        <ele>1944.8000488281</ele>
        <time>2020-08-22T11:13:20.000Z</time>
      </trkpt>
      <trkpt lat="44.11998" lon="7.00609">
        <ele>1944.4000244141</ele>
        <time>2020-08-22T11:13:21.000Z</time>
      </trkpt>
      <trkpt lat="44.12007" lon="7.00604">
        <ele>1944.1999511719</ele>
        <time>2020-08-22T11:13:25.000Z</time>
      </trkpt>
      <trkpt lat="44.12017" lon="7.00596">
        <ele>1943.5999755859</ele>
        <time>2020-08-22T11:13:29.000Z</time>
      </trkpt>
      <trkpt lat="44.12022" lon="7.00592">
        <ele>1943</ele>
        <time>2020-08-22T11:13:31.000Z</time>
      </trkpt>
      <trkpt lat="44.12025" lon="7.0059">
        <ele>1942.4000244141</ele>
        <time>2020-08-22T11:13:32.000Z</time>
      </trkpt>
      <trkpt lat="44.12038" lon="7.00578">
        <ele>1941.8000488281</ele>
        <time>2020-08-22T11:13:36.000Z</time>
      </trkpt>
      <trkpt lat="44.12052" lon="7.00567">
        <ele>1940.8000488281</ele>
        <time>2020-08-22T11:13:39.000Z</time>
      </trkpt>
      <trkpt lat="44.12057" lon="7.00564">
        <ele>1940.1999511719</ele>
        <time>2020-08-22T11:13:40.000Z</time>
      </trkpt>
      <trkpt lat="44.12061" lon="7.00561">
        <ele>1939.8000488281</ele>
        <time>2020-08-22T11:13:41.000Z</time>
      </trkpt>
      <trkpt lat="44.12071" lon="7.00555">
        <ele>1938</ele>
        <time>2020-08-22T11:13:43.000Z</time>
      </trkpt>
      <trkpt lat="44.12089" lon="7.00548">
        <ele>1937.1999511719</ele>
        <time>2020-08-22T11:13:47.000Z</time>
      </trkpt>
      <trkpt lat="44.12097" lon="7.00545">
        <ele>1937</ele>
        <time>2020-08-22T11:13:49.000Z</time>
      </trkpt>
      <trkpt lat="44.12107" lon="7.00542">
        <ele>1936.5999755859</ele>
        <time>2020-08-22T11:13:52.000Z</time>
      </trkpt>
      <trkpt lat="44.12117" lon="7.00536">
        <ele>1936.5999755859</ele>
        <time>2020-08-22T11:13:55.000Z</time>
      </trkpt>
      <trkpt lat="44.12125" lon="7.00534">
        <ele>1936.4000244141</ele>
        <time>2020-08-22T11:13:57.000Z</time>
      </trkpt>
      <trkpt lat="44.12133" lon="7.00531">
        <ele>1935.8000488281</ele>
        <time>2020-08-22T11:13:59.000Z</time>
      </trkpt>
      <trkpt lat="44.12149" lon="7.00526">
        <ele>1935</ele>
        <time>2020-08-22T11:14:03.000Z</time>
      </trkpt>
      <trkpt lat="44.12155" lon="7.00525">
        <ele>1934.8000488281</ele>
        <time>2020-08-22T11:14:05.000Z</time>
      </trkpt>
      <trkpt lat="44.1216" lon="7.00522">
        <ele>1934.4000244141</ele>
        <time>2020-08-22T11:14:07.000Z</time>
      </trkpt>
      <trkpt lat="44.12164" lon="7.0052">
        <ele>1933.5999755859</ele>
        <time>2020-08-22T11:14:09.000Z</time>
      </trkpt>
      <trkpt lat="44.12174" lon="7.00515">
        <ele>1933.8000488281</ele>
        <time>2020-08-22T11:14:13.000Z</time>
      </trkpt>
      <trkpt lat="44.12198" lon="7.00502">
        <ele>1933.8000488281</ele>
        <time>2020-08-22T11:14:21.000Z</time>
      </trkpt>
      <trkpt lat="44.12215" lon="7.00494">
        <ele>1933.1999511719</ele>
        <time>2020-08-22T11:14:27.000Z</time>
      </trkpt>
      <trkpt lat="44.12232" lon="7.00483">
        <ele>1934</ele>
        <time>2020-08-22T11:14:34.000Z</time>
      </trkpt>
      <trkpt lat="44.12246" lon="7.00473">
        <ele>1933.8000488281</ele>
        <time>2020-08-22T11:14:40.000Z</time>
      </trkpt>
      <trkpt lat="44.12255" lon="7.00465">
        <ele>1934.8000488281</ele>
        <time>2020-08-22T11:14:44.000Z</time>
      </trkpt>
      <trkpt lat="44.12262" lon="7.00458">
        <ele>1935.5999755859</ele>
        <time>2020-08-22T11:14:47.000Z</time>
      </trkpt>
      <trkpt lat="44.12268" lon="7.00453">
        <ele>1936</ele>
        <time>2020-08-22T11:14:49.000Z</time>
      </trkpt>
      <trkpt lat="44.12279" lon="7.00445">
        <ele>1936.1999511719</ele>
        <time>2020-08-22T11:14:53.000Z</time>
      </trkpt>
      <trkpt lat="44.12296" lon="7.00438">
        <ele>1936.5999755859</ele>
        <time>2020-08-22T11:15:00.000Z</time>
      </trkpt>
      <trkpt lat="44.12302" lon="7.00436">
        <ele>1937.1999511719</ele>
        <time>2020-08-22T11:15:02.000Z</time>
      </trkpt>
      <trkpt lat="44.12318" lon="7.00432">
        <ele>1937</ele>
        <time>2020-08-22T11:15:07.000Z</time>
      </trkpt>
      <trkpt lat="44.12339" lon="7.00432">
        <ele>1937</ele>
        <time>2020-08-22T11:15:13.000Z</time>
      </trkpt>
      <trkpt lat="44.1236" lon="7.00439">
        <ele>1935.8000488281</ele>
        <time>2020-08-22T11:15:18.000Z</time>
      </trkpt>
      <trkpt lat="44.12364" lon="7.00441">
        <ele>1935.5999755859</ele>
        <time>2020-08-22T11:15:19.000Z</time>
      </trkpt>
      <trkpt lat="44.12383" lon="7.0045">
        <ele>1935</ele>
        <time>2020-08-22T11:15:25.000Z</time>
      </trkpt>
      <trkpt lat="44.12384" lon="7.00451">
        <ele>1934.8000488281</ele>
        <time>2020-08-22T11:15:26.000Z</time>
      </trkpt>
      <trkpt lat="44.12384" lon="7.00452">
        <ele>1934.5999755859</ele>
        <time>2020-08-22T11:15:27.000Z</time>
      </trkpt>
      <trkpt lat="44.12385" lon="7.00453">
        <ele>1934.5999755859</ele>
        <time>2020-08-22T11:15:29.000Z</time>
      </trkpt>
      <trkpt lat="44.12392" lon="7.00457">
        <ele>1935</ele>
        <time>2020-08-22T11:15:33.000Z</time>
      </trkpt>
      <trkpt lat="44.12408" lon="7.00465">
        <ele>1933.8000488281</ele>
        <time>2020-08-22T11:15:39.000Z</time>
      </trkpt>
      <trkpt lat="44.1241" lon="7.00466">
        <ele>1933.4000244141</ele>
        <time>2020-08-22T11:15:40.000Z</time>
      </trkpt>
      <trkpt lat="44.12419" lon="7.00469">
        <ele>1933.1999511719</ele>
        <time>2020-08-22T11:15:44.000Z</time>
      </trkpt>
      <trkpt lat="44.12431" lon="7.00475">
        <ele>1932.8000488281</ele>
        <time>2020-08-22T11:15:50.000Z</time>
      </trkpt>
      <trkpt lat="44.12441" lon="7.00479">
        <ele>1932.8000488281</ele>
        <time>2020-08-22T11:15:55.000Z</time>
      </trkpt>
      <trkpt lat="44.12441" lon="7.00479">
        <ele>1932.1999511719</ele>
        <time>2020-08-22T11:15:58.000Z</time>
      </trkpt>
      <trkpt lat="44.12444" lon="7.0048">
        <ele>1932.1999511719</ele>
        <time>2020-08-22T11:16:01.000Z</time>
      </trkpt>
      <trkpt lat="44.12445" lon="7.00481">
        <ele>1932.1999511719</ele>
        <time>2020-08-22T11:16:07.000Z</time>
      </trkpt>
      <trkpt lat="44.12447" lon="7.00483">
        <ele>1932.1999511719</ele>
        <time>2020-08-22T11:16:11.000Z</time>
      </trkpt>
      <trkpt lat="44.12449" lon="7.00484">
        <ele>1932</ele>
        <time>2020-08-22T11:16:13.000Z</time>
      </trkpt>
      <trkpt lat="44.12452" lon="7.00486">
        <ele>1932.1999511719</ele>
        <time>2020-08-22T11:16:16.000Z</time>
      </trkpt>
      <trkpt lat="44.12454" lon="7.00489">
        <ele>1932.1999511719</ele>
        <time>2020-08-22T11:16:19.000Z</time>
      </trkpt>
      <trkpt lat="44.12457" lon="7.0049">
        <ele>1932.1999511719</ele>
        <time>2020-08-22T11:16:24.000Z</time>
      </trkpt>
      <trkpt lat="44.1246" lon="7.00494">
        <ele>1932</ele>
        <time>2020-08-22T11:16:31.000Z</time>
      </trkpt>
      <trkpt lat="44.12464" lon="7.00497">
        <ele>1931.4000244141</ele>
        <time>2020-08-22T11:16:37.000Z</time>
      </trkpt>
      <trkpt lat="44.12465" lon="7.00497">
        <ele>1931.1999511719</ele>
        <time>2020-08-22T11:16:39.000Z</time>
      </trkpt>
      <trkpt lat="44.12468" lon="7.005">
        <ele>1931</ele>
        <time>2020-08-22T11:16:45.000Z</time>
      </trkpt>
      <trkpt lat="44.1247" lon="7.00501">
        <ele>1930.8000488281</ele>
        <time>2020-08-22T11:16:47.000Z</time>
      </trkpt>
      <trkpt lat="44.12473" lon="7.00504">
        <ele>1930.4000244141</ele>
        <time>2020-08-22T11:16:51.000Z</time>
      </trkpt>
      <trkpt lat="44.12474" lon="7.00505">
        <ele>1930.1999511719</ele>
        <time>2020-08-22T11:16:53.000Z</time>
      </trkpt>
      <trkpt lat="44.12477" lon="7.00509">
        <ele>1929.8000488281</ele>
        <time>2020-08-22T11:16:58.000Z</time>
      </trkpt>
      <trkpt lat="44.1248" lon="7.00514">
        <ele>1930.1999511719</ele>
        <time>2020-08-22T11:17:05.000Z</time>
      </trkpt>
      <trkpt lat="44.12482" lon="7.00517">
        <ele>1930.4000244141</ele>
        <time>2020-08-22T11:17:12.000Z</time>
      </trkpt>
      <trkpt lat="44.12485" lon="7.00521">
        <ele>1930</ele>
        <time>2020-08-22T11:17:18.000Z</time>
      </trkpt>
      <trkpt lat="44.12495" lon="7.0053">
        <ele>1930.1999511719</ele>
        <time>2020-08-22T11:17:23.000Z</time>
      </trkpt>
      <trkpt lat="44.12509" lon="7.00545">
        <ele>1929.4000244141</ele>
        <time>2020-08-22T11:17:28.000Z</time>
      </trkpt>
      <trkpt lat="44.12523" lon="7.00558">
        <ele>1929.4000244141</ele>
        <time>2020-08-22T11:17:33.000Z</time>
      </trkpt>
      <trkpt lat="44.12537" lon="7.00566">
        <ele>1929</ele>
        <time>2020-08-22T11:17:36.000Z</time>
      </trkpt>
      <trkpt lat="44.12543" lon="7.00569">
        <ele>1928.8000488281</ele>
        <time>2020-08-22T11:17:37.000Z</time>
      </trkpt>
      <trkpt lat="44.12547" lon="7.00573">
        <ele>1928.8000488281</ele>
        <time>2020-08-22T11:17:38.000Z</time>
      </trkpt>
      <trkpt lat="44.12554" lon="7.00581">
        <ele>1927.8000488281</ele>
        <time>2020-08-22T11:17:40.000Z</time>
      </trkpt>
      <trkpt lat="44.12557" lon="7.00583">
        <ele>1927.5999755859</ele>
        <time>2020-08-22T11:17:41.000Z</time>
      </trkpt>
      <trkpt lat="44.12566" lon="7.00593">
        <ele>1927.1999511719</ele>
        <time>2020-08-22T11:17:43.000Z</time>
      </trkpt>
      <trkpt lat="44.12574" lon="7.00599">
        <ele>1927</ele>
        <time>2020-08-22T11:17:46.000Z</time>
      </trkpt>
      <trkpt lat="44.12575" lon="7.00596">
        <ele>1926.5999755859</ele>
        <time>2020-08-22T11:17:47.000Z</time>
      </trkpt>
      <trkpt lat="44.12576" lon="7.00592">
        <ele>1926</ele>
        <time>2020-08-22T11:17:49.000Z</time>
      </trkpt>
      <trkpt lat="44.12577" lon="7.00587">
        <ele>1926.1999511719</ele>
        <time>2020-08-22T11:17:52.000Z</time>
      </trkpt>
      <trkpt lat="44.12579" lon="7.00583">
        <ele>1927</ele>
        <time>2020-08-22T11:17:56.000Z</time>
      </trkpt>
      <trkpt lat="44.1258" lon="7.0058">
        <ele>1927.8000488281</ele>
        <time>2020-08-22T11:18:00.000Z</time>
      </trkpt>
      <trkpt lat="44.1258" lon="7.0058">
        <ele>1928.1999511719</ele>
        <time>2020-08-22T11:18:01.000Z</time>
      </trkpt>
      <trkpt lat="44.12581" lon="7.00578">
        <ele>1929</ele>
        <time>2020-08-22T11:18:03.000Z</time>
      </trkpt>
      <trkpt lat="44.12583" lon="7.00573">
        <ele>1930</ele>
        <time>2020-08-22T11:18:08.000Z</time>
      </trkpt>
      <trkpt lat="44.12586" lon="7.00565">
        <ele>1931.1999511719</ele>
        <time>2020-08-22T11:18:17.000Z</time>
      </trkpt>
      <trkpt lat="44.12587" lon="7.00562">
        <ele>1932.4000244141</ele>
        <time>2020-08-22T11:18:21.000Z</time>
      </trkpt>
      <trkpt lat="44.12589" lon="7.00558">
        <ele>1933</ele>
        <time>2020-08-22T11:18:26.000Z</time>
      </trkpt>
      <trkpt lat="44.12591" lon="7.00553">
        <ele>1933.4000244141</ele>
        <time>2020-08-22T11:18:32.000Z</time>
      </trkpt>
      <trkpt lat="44.12591" lon="7.00553">
        <ele>1933.5999755859</ele>
        <time>2020-08-22T11:18:33.000Z</time>
      </trkpt>
      <trkpt lat="44.12593" lon="7.00549">
        <ele>1934.4000244141</ele>
        <time>2020-08-22T11:18:37.000Z</time>
      </trkpt>
      <trkpt lat="44.12594" lon="7.00544">
        <ele>1935</ele>
        <time>2020-08-22T11:18:41.000Z</time>
      </trkpt>
      <trkpt lat="44.12597" lon="7.00539">
        <ele>1935.5999755859</ele>
        <time>2020-08-22T11:18:45.000Z</time>
      </trkpt>
      <trkpt lat="44.12599" lon="7.00536">
        <ele>1936</ele>
        <time>2020-08-22T11:18:49.000Z</time>
      </trkpt>
      <trkpt lat="44.12601" lon="7.00535">
        <ele>1936</ele>
        <time>2020-08-22T11:18:51.000Z</time>
      </trkpt>
      <trkpt lat="44.12604" lon="7.00532">
        <ele>1936.1999511719</ele>
        <time>2020-08-22T11:18:54.000Z</time>
      </trkpt>
      <trkpt lat="44.12606" lon="7.00531">
        <ele>1936.1999511719</ele>
        <time>2020-08-22T11:18:55.000Z</time>
      </trkpt>
      <trkpt lat="44.1261" lon="7.00528">
        <ele>1936.5999755859</ele>
        <time>2020-08-22T11:18:58.000Z</time>
      </trkpt>
      <trkpt lat="44.12619" lon="7.00525">
        <ele>1937.4000244141</ele>
        <time>2020-08-22T11:19:04.000Z</time>
      </trkpt>
      <trkpt lat="44.12623" lon="7.00524">
        <ele>1937.5999755859</ele>
        <time>2020-08-22T11:19:07.000Z</time>
      </trkpt>
      <trkpt lat="44.1263" lon="7.00523">
        <ele>1938</ele>
        <time>2020-08-22T11:19:11.000Z</time>
      </trkpt>
      <trkpt lat="44.1264" lon="7.00527">
        <ele>1938.8000488281</ele>
        <time>2020-08-22T11:19:17.000Z</time>
      </trkpt>
      <trkpt lat="44.12644" lon="7.00528">
        <ele>1940.1999511719</ele>
        <time>2020-08-22T11:19:20.000Z</time>
      </trkpt>
      <trkpt lat="44.12648" lon="7.00528">
        <ele>1940.5999755859</ele>
        <time>2020-08-22T11:19:23.000Z</time>
      </trkpt>
      <trkpt lat="44.12655" lon="7.00528">
        <ele>1941</ele>
        <time>2020-08-22T11:19:28.000Z</time>
      </trkpt>
      <trkpt lat="44.12657" lon="7.00529">
        <ele>1941.4000244141</ele>
        <time>2020-08-22T11:19:30.000Z</time>
      </trkpt>
      <trkpt lat="44.12659" lon="7.00529">
        <ele>1941.8000488281</ele>
        <time>2020-08-22T11:19:34.000Z</time>
      </trkpt>
      <trkpt lat="44.12658" lon="7.00529">
        <ele>1942</ele>
        <time>2020-08-22T11:19:54.000Z</time>
      </trkpt>
      <trkpt lat="44.12659" lon="7.00528">
        <ele>1942</ele>
        <time>2020-08-22T11:19:55.000Z</time>
      </trkpt>
      <trkpt lat="44.12663" lon="7.00529">
        <ele>1942.1999511719</ele>
        <time>2020-08-22T11:19:58.000Z</time>
      </trkpt>
      <trkpt lat="44.12666" lon="7.00529">
        <ele>1942.1999511719</ele>
        <time>2020-08-22T11:20:00.000Z</time>
      </trkpt>
      <trkpt lat="44.12671" lon="7.00529">
        <ele>1942.1999511719</ele>
        <time>2020-08-22T11:20:04.000Z</time>
      </trkpt>
      <trkpt lat="44.12675" lon="7.00528">
        <ele>1942.4000244141</ele>
        <time>2020-08-22T11:20:06.000Z</time>
      </trkpt>
      <trkpt lat="44.12684" lon="7.00526">
        <ele>1942.4000244141</ele>
        <time>2020-08-22T11:20:10.000Z</time>
      </trkpt>
      <trkpt lat="44.12696" lon="7.00525">
        <ele>1942.8000488281</ele>
        <time>2020-08-22T11:20:16.000Z</time>
      </trkpt>
      <trkpt lat="44.1271" lon="7.00524">
        <ele>1943</ele>
        <time>2020-08-22T11:20:23.000Z</time>
      </trkpt>
      <trkpt lat="44.12728" lon="7.00522">
        <ele>1943</ele>
        <time>2020-08-22T11:20:30.000Z</time>
      </trkpt>
      <trkpt lat="44.12737" lon="7.00519">
        <ele>1943.4000244141</ele>
        <time>2020-08-22T11:20:34.000Z</time>
      </trkpt>
      <trkpt lat="44.12745" lon="7.00517">
        <ele>1943.5999755859</ele>
        <time>2020-08-22T11:20:37.000Z</time>
      </trkpt>
      <trkpt lat="44.1275" lon="7.00519">
        <ele>1943.8000488281</ele>
        <time>2020-08-22T11:20:41.000Z</time>
      </trkpt>
      <trkpt lat="44.12752" lon="7.0052">
        <ele>1944.8000488281</ele>
        <time>2020-08-22T11:20:43.000Z</time>
      </trkpt>
      <trkpt lat="44.12756" lon="7.00521">
        <ele>1946.1999511719</ele>
        <time>2020-08-22T11:20:46.000Z</time>
      </trkpt>
      <trkpt lat="44.12757" lon="7.00522">
        <ele>1946.4000244141</ele>
        <time>2020-08-22T11:20:47.000Z</time>
      </trkpt>
      <trkpt lat="44.12763" lon="7.00523">
        <ele>1947.1999511719</ele>
        <time>2020-08-22T11:20:51.000Z</time>
      </trkpt>
      <trkpt lat="44.12768" lon="7.00523">
        <ele>1948</ele>
        <time>2020-08-22T11:20:55.000Z</time>
      </trkpt>
      <trkpt lat="44.12769" lon="7.00524">
        <ele>1948.4000244141</ele>
        <time>2020-08-22T11:20:56.000Z</time>
      </trkpt>
      <trkpt lat="44.1277" lon="7.00524">
        <ele>1948.8000488281</ele>
        <time>2020-08-22T11:20:58.000Z</time>
      </trkpt>
      <trkpt lat="44.12773" lon="7.00524">
        <ele>1949.4000244141</ele>
        <time>2020-08-22T11:21:00.000Z</time>
      </trkpt>
      <trkpt lat="44.12774" lon="7.00524">
        <ele>1949.5999755859</ele>
        <time>2020-08-22T11:21:01.000Z</time>
      </trkpt>
      <trkpt lat="44.12782" lon="7.00518">
        <ele>1950.4000244141</ele>
        <time>2020-08-22T11:21:08.000Z</time>
      </trkpt>
      <trkpt lat="44.12785" lon="7.00516">
        <ele>1950.4000244141</ele>
        <time>2020-08-22T11:21:10.000Z</time>
      </trkpt>
      <trkpt lat="44.12796" lon="7.00508">
        <ele>1951</ele>
        <time>2020-08-22T11:21:18.000Z</time>
      </trkpt>
      <trkpt lat="44.12799" lon="7.00506">
        <ele>1951.4000244141</ele>
        <time>2020-08-22T11:21:20.000Z</time>
      </trkpt>
      <trkpt lat="44.12805" lon="7.00497">
        <ele>1951.8000488281</ele>
        <time>2020-08-22T11:21:25.000Z</time>
      </trkpt>
      <trkpt lat="44.12807" lon="7.00482">
        <ele>1952.4000244141</ele>
        <time>2020-08-22T11:21:31.000Z</time>
      </trkpt>
      <trkpt lat="44.12807" lon="7.00479">
        <ele>1952.5999755859</ele>
        <time>2020-08-22T11:21:33.000Z</time>
      </trkpt>
      <trkpt lat="44.12808" lon="7.00473">
        <ele>1954</ele>
        <time>2020-08-22T11:21:37.000Z</time>
      </trkpt>
      <trkpt lat="44.12807" lon="7.00468">
        <ele>1955.1999511719</ele>
        <time>2020-08-22T11:21:40.000Z</time>
      </trkpt>
      <trkpt lat="44.12807" lon="7.00464">
        <ele>1955.5999755859</ele>
        <time>2020-08-22T11:21:43.000Z</time>
      </trkpt>
      <trkpt lat="44.12807" lon="7.00458">
        <ele>1956.4000244141</ele>
        <time>2020-08-22T11:21:47.000Z</time>
      </trkpt>
      <trkpt lat="44.12808" lon="7.00456">
        <ele>1956.5999755859</ele>
        <time>2020-08-22T11:21:49.000Z</time>
      </trkpt>
      <trkpt lat="44.12808" lon="7.0045">
        <ele>1957.4000244141</ele>
        <time>2020-08-22T11:21:52.000Z</time>
      </trkpt>
      <trkpt lat="44.12809" lon="7.00444">
        <ele>1958.1999511719</ele>
        <time>2020-08-22T11:21:56.000Z</time>
      </trkpt>
      <trkpt lat="44.12809" lon="7.00444">
        <ele>1958.5999755859</ele>
        <time>2020-08-22T11:21:58.000Z</time>
      </trkpt>
      <trkpt lat="44.12809" lon="7.00443">
        <ele>1958.8000488281</ele>
        <time>2020-08-22T11:22:00.000Z</time>
      </trkpt>
      <trkpt lat="44.12809" lon="7.00441">
        <ele>1958.8000488281</ele>
        <time>2020-08-22T11:22:06.000Z</time>
      </trkpt>
      <trkpt lat="44.12809" lon="7.00441">
        <ele>1959.8000488281</ele>
        <time>2020-08-22T11:22:10.000Z</time>
      </trkpt>
      <trkpt lat="44.12809" lon="7.0044">
        <ele>1959.8000488281</ele>
        <time>2020-08-22T11:22:14.000Z</time>
      </trkpt>
      <trkpt lat="44.12807" lon="7.00435">
        <ele>1959.8000488281</ele>
        <time>2020-08-22T11:22:22.000Z</time>
      </trkpt>
      <trkpt lat="44.12805" lon="7.00423">
        <ele>1960.1999511719</ele>
        <time>2020-08-22T11:22:28.000Z</time>
      </trkpt>
      <trkpt lat="44.12804" lon="7.0042">
        <ele>1960.8000488281</ele>
        <time>2020-08-22T11:22:30.000Z</time>
      </trkpt>
      <trkpt lat="44.12803" lon="7.00415">
        <ele>1961.8000488281</ele>
        <time>2020-08-22T11:22:33.000Z</time>
      </trkpt>
      <trkpt lat="44.12802" lon="7.00411">
        <ele>1962</ele>
        <time>2020-08-22T11:22:35.000Z</time>
      </trkpt>
      <trkpt lat="44.12801" lon="7.00399">
        <ele>1962.8000488281</ele>
        <time>2020-08-22T11:22:42.000Z</time>
      </trkpt>
      <trkpt lat="44.12799" lon="7.00391">
        <ele>1964.1999511719</ele>
        <time>2020-08-22T11:22:47.000Z</time>
      </trkpt>
      <trkpt lat="44.12797" lon="7.00382">
        <ele>1965.1999511719</ele>
        <time>2020-08-22T11:22:53.000Z</time>
      </trkpt>
      <trkpt lat="44.12795" lon="7.0037">
        <ele>1965.5999755859</ele>
        <time>2020-08-22T11:22:59.000Z</time>
      </trkpt>
      <trkpt lat="44.12793" lon="7.00364">
        <ele>1966.4000244141</ele>
        <time>2020-08-22T11:23:03.000Z</time>
      </trkpt>
      <trkpt lat="44.12791" lon="7.00359">
        <ele>1966.5999755859</ele>
        <time>2020-08-22T11:23:06.000Z</time>
      </trkpt>
      <trkpt lat="44.12789" lon="7.00349">
        <ele>1967.4000244141</ele>
        <time>2020-08-22T11:23:12.000Z</time>
      </trkpt>
      <trkpt lat="44.12788" lon="7.00344">
        <ele>1967.8000488281</ele>
        <time>2020-08-22T11:23:15.000Z</time>
      </trkpt>
      <trkpt lat="44.12786" lon="7.00338">
        <ele>1968.5999755859</ele>
        <time>2020-08-22T11:23:19.000Z</time>
      </trkpt>
      <trkpt lat="44.12785" lon="7.00335">
        <ele>1969.4000244141</ele>
        <time>2020-08-22T11:23:21.000Z</time>
      </trkpt>
      <trkpt lat="44.12785" lon="7.00334">
        <ele>1969.8000488281</ele>
        <time>2020-08-22T11:23:22.000Z</time>
      </trkpt>
      <trkpt lat="44.12783" lon="7.00326">
        <ele>1971</ele>
        <time>2020-08-22T11:23:26.000Z</time>
      </trkpt>
      <trkpt lat="44.12783" lon="7.00323">
        <ele>1971.4000244141</ele>
        <time>2020-08-22T11:23:28.000Z</time>
      </trkpt>
      <trkpt lat="44.12782" lon="7.0032">
        <ele>1972</ele>
        <time>2020-08-22T11:23:30.000Z</time>
      </trkpt>
      <trkpt lat="44.1278" lon="7.00311">
        <ele>1972.8000488281</ele>
        <time>2020-08-22T11:23:36.000Z</time>
      </trkpt>
      <trkpt lat="44.12779" lon="7.0031">
        <ele>1973</ele>
        <time>2020-08-22T11:23:37.000Z</time>
      </trkpt>
      <trkpt lat="44.12777" lon="7.00302">
        <ele>1974</ele>
        <time>2020-08-22T11:23:43.000Z</time>
      </trkpt>
      <trkpt lat="44.12777" lon="7.003">
        <ele>1974.1999511719</ele>
        <time>2020-08-22T11:23:44.000Z</time>
      </trkpt>
      <trkpt lat="44.12777" lon="7.003">
        <ele>1974.5999755859</ele>
        <time>2020-08-22T11:23:47.000Z</time>
      </trkpt>
      <trkpt lat="44.12776" lon="7.00297">
        <ele>1974.4000244141</ele>
        <time>2020-08-22T11:23:53.000Z</time>
      </trkpt>
      <trkpt lat="44.12777" lon="7.00293">
        <ele>1975.1999511719</ele>
        <time>2020-08-22T11:23:57.000Z</time>
      </trkpt>
      <trkpt lat="44.12779" lon="7.00292">
        <ele>1976.1999511719</ele>
        <time>2020-08-22T11:24:00.000Z</time>
      </trkpt>
      <trkpt lat="44.12779" lon="7.00292">
        <ele>1976.4000244141</ele>
        <time>2020-08-22T11:24:01.000Z</time>
      </trkpt>
      <trkpt lat="44.1278" lon="7.00291">
        <ele>1976.4000244141</ele>
        <time>2020-08-22T11:24:05.000Z</time>
      </trkpt>
      <trkpt lat="44.12781" lon="7.0029">
        <ele>1976.5999755859</ele>
        <time>2020-08-22T11:24:06.000Z</time>
      </trkpt>
      <trkpt lat="44.12788" lon="7.00286">
        <ele>1977</ele>
        <time>2020-08-22T11:24:13.000Z</time>
      </trkpt>
      <trkpt lat="44.12789" lon="7.00284">
        <ele>1977.4000244141</ele>
        <time>2020-08-22T11:24:15.000Z</time>
      </trkpt>
      <trkpt lat="44.12794" lon="7.00281">
        <ele>1978.5999755859</ele>
        <time>2020-08-22T11:24:20.000Z</time>
      </trkpt>
      <trkpt lat="44.12795" lon="7.0028">
        <ele>1978.8000488281</ele>
        <time>2020-08-22T11:24:21.000Z</time>
      </trkpt>
      <trkpt lat="44.128" lon="7.00277">
        <ele>1979.5999755859</ele>
        <time>2020-08-22T11:24:27.000Z</time>
      </trkpt>
      <trkpt lat="44.128" lon="7.00277">
        <ele>1979.8000488281</ele>
        <time>2020-08-22T11:24:28.000Z</time>
      </trkpt>
      <trkpt lat="44.12804" lon="7.00274">
        <ele>1980.8000488281</ele>
        <time>2020-08-22T11:24:34.000Z</time>
      </trkpt>
      <trkpt lat="44.12805" lon="7.00273">
        <ele>1981</ele>
        <time>2020-08-22T11:24:35.000Z</time>
      </trkpt>
      <trkpt lat="44.12808" lon="7.00272">
        <ele>1982</ele>
        <time>2020-08-22T11:24:38.000Z</time>
      </trkpt>
      <trkpt lat="44.12814" lon="7.00269">
        <ele>1983</ele>
        <time>2020-08-22T11:24:46.000Z</time>
      </trkpt>
      <trkpt lat="44.1282" lon="7.00267">
        <ele>1984</ele>
        <time>2020-08-22T11:24:53.000Z</time>
      </trkpt>
      <trkpt lat="44.1282" lon="7.00266">
        <ele>1984.1999511719</ele>
        <time>2020-08-22T11:24:54.000Z</time>
      </trkpt>
      <trkpt lat="44.12825" lon="7.00265">
        <ele>1985.1999511719</ele>
        <time>2020-08-22T11:25:01.000Z</time>
      </trkpt>
      <trkpt lat="44.12828" lon="7.00264">
        <ele>1985.5999755859</ele>
        <time>2020-08-22T11:25:05.000Z</time>
      </trkpt>
      <trkpt lat="44.1283" lon="7.00263">
        <ele>1986.1999511719</ele>
        <time>2020-08-22T11:25:09.000Z</time>
      </trkpt>
      <trkpt lat="44.12833" lon="7.00262">
        <ele>1987.1999511719</ele>
        <time>2020-08-22T11:25:14.000Z</time>
      </trkpt>
      <trkpt lat="44.12834" lon="7.00261">
        <ele>1987.1999511719</ele>
        <time>2020-08-22T11:25:15.000Z</time>
      </trkpt>
      <trkpt lat="44.12838" lon="7.00259">
        <ele>1988</ele>
        <time>2020-08-22T11:25:21.000Z</time>
      </trkpt>
      <trkpt lat="44.1284" lon="7.00258">
        <ele>1988.4000244141</ele>
        <time>2020-08-22T11:25:23.000Z</time>
      </trkpt>
      <trkpt lat="44.12845" lon="7.00254">
        <ele>1989</ele>
        <time>2020-08-22T11:25:29.000Z</time>
      </trkpt>
      <trkpt lat="44.12847" lon="7.00252">
        <ele>1989.4000244141</ele>
        <time>2020-08-22T11:25:32.000Z</time>
      </trkpt>
      <trkpt lat="44.1285" lon="7.00249">
        <ele>1989.8000488281</ele>
        <time>2020-08-22T11:25:36.000Z</time>
      </trkpt>
      <trkpt lat="44.12852" lon="7.00245">
        <ele>1990.4000244141</ele>
        <time>2020-08-22T11:25:40.000Z</time>
      </trkpt>
      <trkpt lat="44.12855" lon="7.00243">
        <ele>1991.1999511719</ele>
        <time>2020-08-22T11:25:44.000Z</time>
      </trkpt>
      <trkpt lat="44.12857" lon="7.00242">
        <ele>1991.5999755859</ele>
        <time>2020-08-22T11:25:46.000Z</time>
      </trkpt>
      <trkpt lat="44.12862" lon="7.00237">
        <ele>1992.4000244141</ele>
        <time>2020-08-22T11:25:51.000Z</time>
      </trkpt>
      <trkpt lat="44.12864" lon="7.00234">
        <ele>1992.5999755859</ele>
        <time>2020-08-22T11:25:55.000Z</time>
      </trkpt>
      <trkpt lat="44.12866" lon="7.0023">
        <ele>1993.1999511719</ele>
        <time>2020-08-22T11:25:58.000Z</time>
      </trkpt>
      <trkpt lat="44.12869" lon="7.00224">
        <ele>1993.5999755859</ele>
        <time>2020-08-22T11:26:03.000Z</time>
      </trkpt>
      <trkpt lat="44.12871" lon="7.00222">
        <ele>1994</ele>
        <time>2020-08-22T11:26:05.000Z</time>
      </trkpt>
      <trkpt lat="44.12875" lon="7.00219">
        <ele>1994</ele>
        <time>2020-08-22T11:26:11.000Z</time>
      </trkpt>
      <trkpt lat="44.12877" lon="7.00218">
        <ele>1993.8000488281</ele>
        <time>2020-08-22T11:26:19.000Z</time>
      </trkpt>
      <trkpt lat="44.12882" lon="7.00221">
        <ele>1993.5999755859</ele>
        <time>2020-08-22T11:26:22.000Z</time>
      </trkpt>
      <trkpt lat="44.12883" lon="7.00224">
        <ele>1993.5999755859</ele>
        <time>2020-08-22T11:26:23.000Z</time>
      </trkpt>
      <trkpt lat="44.12885" lon="7.0023">
        <ele>1992.5999755859</ele>
        <time>2020-08-22T11:26:25.000Z</time>
      </trkpt>
      <trkpt lat="44.12888" lon="7.00236">
        <ele>1991.4000244141</ele>
        <time>2020-08-22T11:26:27.000Z</time>
      </trkpt>
      <trkpt lat="44.12891" lon="7.00238">
        <ele>1990</ele>
        <time>2020-08-22T11:26:30.000Z</time>
      </trkpt>
      <trkpt lat="44.12891" lon="7.00236">
        <ele>1989.8000488281</ele>
        <time>2020-08-22T11:26:31.000Z</time>
      </trkpt>
      <trkpt lat="44.12894" lon="7.00228">
        <ele>1988.8000488281</ele>
        <time>2020-08-22T11:26:34.000Z</time>
      </trkpt>
      <trkpt lat="44.12895" lon="7.00221">
        <ele>1988</ele>
        <time>2020-08-22T11:26:36.000Z</time>
      </trkpt>
      <trkpt lat="44.12896" lon="7.00217">
        <ele>1987.1999511719</ele>
        <time>2020-08-22T11:26:37.000Z</time>
      </trkpt>
      <trkpt lat="44.12896" lon="7.00214">
        <ele>1986.5999755859</ele>
        <time>2020-08-22T11:26:38.000Z</time>
      </trkpt>
      <trkpt lat="44.12896" lon="7.00208">
        <ele>1985.4000244141</ele>
        <time>2020-08-22T11:26:39.000Z</time>
      </trkpt>
      <trkpt lat="44.12898" lon="7.00197">
        <ele>1984</ele>
        <time>2020-08-22T11:26:41.000Z</time>
      </trkpt>
      <trkpt lat="44.129" lon="7.00191">
        <ele>1983.4000244141</ele>
        <time>2020-08-22T11:26:42.000Z</time>
      </trkpt>
      <trkpt lat="44.129" lon="7.00182">
        <ele>1982.1999511719</ele>
        <time>2020-08-22T11:26:43.000Z</time>
      </trkpt>
      <trkpt lat="44.12902" lon="7.00171">
        <ele>1980.4000244141</ele>
        <time>2020-08-22T11:26:45.000Z</time>
      </trkpt>
      <trkpt lat="44.12906" lon="7.00159">
        <ele>1978.4000244141</ele>
        <time>2020-08-22T11:26:47.000Z</time>
      </trkpt>
      <trkpt lat="44.1291" lon="7.00148">
        <ele>1976.5999755859</ele>
        <time>2020-08-22T11:26:49.000Z</time>
      </trkpt>
      <trkpt lat="44.12913" lon="7.00142">
        <ele>1975.1999511719</ele>
        <time>2020-08-22T11:26:50.000Z</time>
      </trkpt>
      <trkpt lat="44.12916" lon="7.00136">
        <ele>1974</ele>
        <time>2020-08-22T11:26:51.000Z</time>
      </trkpt>
      <trkpt lat="44.12918" lon="7.00133">
        <ele>1972.5999755859</ele>
        <time>2020-08-22T11:26:52.000Z</time>
      </trkpt>
      <trkpt lat="44.12919" lon="7.0013">
        <ele>1972</ele>
        <time>2020-08-22T11:26:53.000Z</time>
      </trkpt>
      <trkpt lat="44.1292" lon="7.00128">
        <ele>1970.8000488281</ele>
        <time>2020-08-22T11:26:54.000Z</time>
      </trkpt>
      <trkpt lat="44.12923" lon="7.00118">
        <ele>1971.1999511719</ele>
        <time>2020-08-22T11:26:59.000Z</time>
      </trkpt>
      <trkpt lat="44.12924" lon="7.00101">
        <ele>1971.4000244141</ele>
        <time>2020-08-22T11:27:06.000Z</time>
      </trkpt>
      <trkpt lat="44.12924" lon="7.00099">
        <ele>1971.8000488281</ele>
        <time>2020-08-22T11:27:09.000Z</time>
      </trkpt>
      <trkpt lat="44.12923" lon="7.00098">
        <ele>1972.1999511719</ele>
        <time>2020-08-22T11:27:10.000Z</time>
      </trkpt>
      <trkpt lat="44.12923" lon="7.00095">
        <ele>1973</ele>
        <time>2020-08-22T11:27:13.000Z</time>
      </trkpt>
      <trkpt lat="44.12924" lon="7.00091">
        <ele>1974.1999511719</ele>
        <time>2020-08-22T11:27:16.000Z</time>
      </trkpt>
      <trkpt lat="44.12924" lon="7.00089">
        <ele>1974.8000488281</ele>
        <time>2020-08-22T11:27:18.000Z</time>
      </trkpt>
      <trkpt lat="44.12924" lon="7.00088">
        <ele>1975.1999511719</ele>
        <time>2020-08-22T11:27:19.000Z</time>
      </trkpt>
      <trkpt lat="44.12926" lon="7.00079">
        <ele>1976.1999511719</ele>
        <time>2020-08-22T11:27:26.000Z</time>
      </trkpt>
      <trkpt lat="44.12927" lon="7.00074">
        <ele>1977.1999511719</ele>
        <time>2020-08-22T11:27:31.000Z</time>
      </trkpt>
      <trkpt lat="44.12928" lon="7.0007">
        <ele>1978.5999755859</ele>
        <time>2020-08-22T11:27:35.000Z</time>
      </trkpt>
      <trkpt lat="44.12928" lon="7.00069">
        <ele>1979</ele>
        <time>2020-08-22T11:27:40.000Z</time>
      </trkpt>
      <trkpt lat="44.12927" lon="7.00063">
        <ele>1978.8000488281</ele>
        <time>2020-08-22T11:27:44.000Z</time>
      </trkpt>
      <trkpt lat="44.12925" lon="7.00046">
        <ele>1979.1999511719</ele>
        <time>2020-08-22T11:27:53.000Z</time>
      </trkpt>
      <trkpt lat="44.12924" lon="7.00037">
        <ele>1979.4000244141</ele>
        <time>2020-08-22T11:27:58.000Z</time>
      </trkpt>
      <trkpt lat="44.12923" lon="7.00028">
        <ele>1979.8000488281</ele>
        <time>2020-08-22T11:28:04.000Z</time>
      </trkpt>
      <trkpt lat="44.12923" lon="7.00028">
        <ele>1980.1999511719</ele>
        <time>2020-08-22T11:28:05.000Z</time>
      </trkpt>
      <trkpt lat="44.12923" lon="7.00026">
        <ele>1980.8000488281</ele>
        <time>2020-08-22T11:28:07.000Z</time>
      </trkpt>
      <trkpt lat="44.12923" lon="7.00023">
        <ele>1981.5999755859</ele>
        <time>2020-08-22T11:28:10.000Z</time>
      </trkpt>
      <trkpt lat="44.12923" lon="7.0002">
        <ele>1982</ele>
        <time>2020-08-22T11:28:13.000Z</time>
      </trkpt>
      <trkpt lat="44.12922" lon="7.00017">
        <ele>1982.8000488281</ele>
        <time>2020-08-22T11:28:17.000Z</time>
      </trkpt>
      <trkpt lat="44.12922" lon="7.00016">
        <ele>1983.1999511719</ele>
        <time>2020-08-22T11:28:18.000Z</time>
      </trkpt>
      <trkpt lat="44.1292" lon="7.00009">
        <ele>1984.1999511719</ele>
        <time>2020-08-22T11:28:24.000Z</time>
      </trkpt>
      <trkpt lat="44.12919" lon="7.00007">
        <ele>1984.8000488281</ele>
        <time>2020-08-22T11:28:26.000Z</time>
      </trkpt>
      <trkpt lat="44.12918" lon="7.00005">
        <ele>1985.1999511719</ele>
        <time>2020-08-22T11:28:28.000Z</time>
      </trkpt>
      <trkpt lat="44.12917" lon="7.00001">
        <ele>1985.4000244141</ele>
        <time>2020-08-22T11:28:31.000Z</time>
      </trkpt>
      <trkpt lat="44.12917" lon="7">
        <ele>1985.4000244141</ele>
        <time>2020-08-22T11:28:33.000Z</time>
      </trkpt>
      <trkpt lat="44.12917" lon="6.99995">
        <ele>1985.8000488281</ele>
        <time>2020-08-22T11:28:39.000Z</time>
      </trkpt>
      <trkpt lat="44.12917" lon="6.99993">
        <ele>1986.4000244141</ele>
        <time>2020-08-22T11:28:41.000Z</time>
      </trkpt>
      <trkpt lat="44.12916" lon="6.99988">
        <ele>1987.5999755859</ele>
        <time>2020-08-22T11:28:45.000Z</time>
      </trkpt>
      <trkpt lat="44.12916" lon="6.99985">
        <ele>1988</ele>
        <time>2020-08-22T11:28:47.000Z</time>
      </trkpt>
      <trkpt lat="44.12915" lon="6.99982">
        <ele>1988.5999755859</ele>
        <time>2020-08-22T11:28:50.000Z</time>
      </trkpt>
      <trkpt lat="44.12913" lon="6.99976">
        <ele>1989.4000244141</ele>
        <time>2020-08-22T11:28:55.000Z</time>
      </trkpt>
      <trkpt lat="44.12912" lon="6.99975">
        <ele>1989.5999755859</ele>
        <time>2020-08-22T11:28:58.000Z</time>
      </trkpt>
      <trkpt lat="44.12911" lon="6.99972">
        <ele>1990</ele>
        <time>2020-08-22T11:29:01.000Z</time>
      </trkpt>
      <trkpt lat="44.12909" lon="6.99966">
        <ele>1990.8000488281</ele>
        <time>2020-08-22T11:29:06.000Z</time>
      </trkpt>
      <trkpt lat="44.12908" lon="6.99962">
        <ele>1991.1999511719</ele>
        <time>2020-08-22T11:29:09.000Z</time>
      </trkpt>
      <trkpt lat="44.12904" lon="6.99951">
        <ele>1991.5999755859</ele>
        <time>2020-08-22T11:29:18.000Z</time>
      </trkpt>
      <trkpt lat="44.12904" lon="6.9995">
        <ele>1991.8000488281</ele>
        <time>2020-08-22T11:29:19.000Z</time>
      </trkpt>
      <trkpt lat="44.12903" lon="6.99944">
        <ele>1993</ele>
        <time>2020-08-22T11:29:24.000Z</time>
      </trkpt>
      <trkpt lat="44.12903" lon="6.99942">
        <ele>1993.4000244141</ele>
        <time>2020-08-22T11:29:26.000Z</time>
      </trkpt>
      <trkpt lat="44.12902" lon="6.99939">
        <ele>1994.1999511719</ele>
        <time>2020-08-22T11:29:29.000Z</time>
      </trkpt>
      <trkpt lat="44.12902" lon="6.99936">
        <ele>1995</ele>
        <time>2020-08-22T11:29:33.000Z</time>
      </trkpt>
      <trkpt lat="44.12902" lon="6.9993">
        <ele>1995.4000244141</ele>
        <time>2020-08-22T11:29:37.000Z</time>
      </trkpt>
      <trkpt lat="44.12901" lon="6.99923">
        <ele>1995.8000488281</ele>
        <time>2020-08-22T11:29:42.000Z</time>
      </trkpt>
      <trkpt lat="44.12902" lon="6.99911">
        <ele>1995.8000488281</ele>
        <time>2020-08-22T11:29:52.000Z</time>
      </trkpt>
      <trkpt lat="44.12903" lon="6.9991">
        <ele>1996.5999755859</ele>
        <time>2020-08-22T11:29:54.000Z</time>
      </trkpt>
      <trkpt lat="44.12904" lon="6.99905">
        <ele>1997.4000244141</ele>
        <time>2020-08-22T11:30:00.000Z</time>
      </trkpt>
      <trkpt lat="44.12905" lon="6.99904">
        <ele>1997.5999755859</ele>
        <time>2020-08-22T11:30:02.000Z</time>
      </trkpt>
      <trkpt lat="44.12906" lon="6.99899">
        <ele>1998.1999511719</ele>
        <time>2020-08-22T11:30:08.000Z</time>
      </trkpt>
      <trkpt lat="44.12907" lon="6.99898">
        <ele>1998.5999755859</ele>
        <time>2020-08-22T11:30:10.000Z</time>
      </trkpt>
      <trkpt lat="44.12909" lon="6.99893">
        <ele>1999.8000488281</ele>
        <time>2020-08-22T11:30:15.000Z</time>
      </trkpt>
      <trkpt lat="44.12909" lon="6.99891">
        <ele>2000</ele>
        <time>2020-08-22T11:30:17.000Z</time>
      </trkpt>
      <trkpt lat="44.1291" lon="6.99887">
        <ele>2000.8000488281</ele>
        <time>2020-08-22T11:30:21.000Z</time>
      </trkpt>
      <trkpt lat="44.12913" lon="6.9988">
        <ele>2001.8000488281</ele>
        <time>2020-08-22T11:30:27.000Z</time>
      </trkpt>
      <trkpt lat="44.12913" lon="6.9988">
        <ele>2002</ele>
        <time>2020-08-22T11:30:28.000Z</time>
      </trkpt>
      <trkpt lat="44.12916" lon="6.99872">
        <ele>2003</ele>
        <time>2020-08-22T11:30:35.000Z</time>
      </trkpt>
      <trkpt lat="44.12916" lon="6.99871">
        <ele>2003</ele>
        <time>2020-08-22T11:30:36.000Z</time>
      </trkpt>
      <trkpt lat="44.12916" lon="6.99862">
        <ele>2003.1999511719</ele>
        <time>2020-08-22T11:30:42.000Z</time>
      </trkpt>
      <trkpt lat="44.12915" lon="6.99859">
        <ele>2003.1999511719</ele>
        <time>2020-08-22T11:30:48.000Z</time>
      </trkpt>
      <trkpt lat="44.12916" lon="6.99858">
        <ele>2003</ele>
        <time>2020-08-22T11:30:59.000Z</time>
      </trkpt>
      <trkpt lat="44.12916" lon="6.99856">
        <ele>2002.8000488281</ele>
        <time>2020-08-22T11:31:03.000Z</time>
      </trkpt>
      <trkpt lat="44.12918" lon="6.99842">
        <ele>2002.8000488281</ele>
        <time>2020-08-22T11:31:08.000Z</time>
      </trkpt>
      <trkpt lat="44.12919" lon="6.99836">
        <ele>2002</ele>
        <time>2020-08-22T11:31:10.000Z</time>
      </trkpt>
      <trkpt lat="44.12924" lon="6.9983">
        <ele>2001.1999511719</ele>
        <time>2020-08-22T11:31:12.000Z</time>
      </trkpt>
      <trkpt lat="44.12927" lon="6.99827">
        <ele>2000.5999755859</ele>
        <time>2020-08-22T11:31:13.000Z</time>
      </trkpt>
      <trkpt lat="44.12931" lon="6.99818">
        <ele>1999.1999511719</ele>
        <time>2020-08-22T11:31:16.000Z</time>
      </trkpt>
      <trkpt lat="44.12933" lon="6.99813">
        <ele>1998.5999755859</ele>
        <time>2020-08-22T11:31:21.000Z</time>
      </trkpt>
      <trkpt lat="44.12936" lon="6.99803">
        <ele>2000</ele>
        <time>2020-08-22T11:31:29.000Z</time>
      </trkpt>
      <trkpt lat="44.12936" lon="6.99802">
        <ele>2000.4000244141</ele>
        <time>2020-08-22T11:31:30.000Z</time>
      </trkpt>
      <trkpt lat="44.12937" lon="6.99798">
        <ele>2001</ele>
        <time>2020-08-22T11:31:34.000Z</time>
      </trkpt>
      <trkpt lat="44.1294" lon="6.99786">
        <ele>2000.8000488281</ele>
        <time>2020-08-22T11:31:40.000Z</time>
      </trkpt>
      <trkpt lat="44.12948" lon="6.99773">
        <ele>2000.5999755859</ele>
        <time>2020-08-22T11:31:45.000Z</time>
      </trkpt>
      <trkpt lat="44.12959" lon="6.99756">
        <ele>1999.1999511719</ele>
        <time>2020-08-22T11:31:49.000Z</time>
      </trkpt>
      <trkpt lat="44.12963" lon="6.99753">
        <ele>1999</ele>
        <time>2020-08-22T11:31:50.000Z</time>
      </trkpt>
      <trkpt lat="44.12978" lon="6.99741">
        <ele>1999</ele>
        <time>2020-08-22T11:31:53.000Z</time>
      </trkpt>
      <trkpt lat="44.12984" lon="6.99738">
        <ele>1997.8000488281</ele>
        <time>2020-08-22T11:31:54.000Z</time>
      </trkpt>
      <trkpt lat="44.12989" lon="6.99734">
        <ele>1996.5999755859</ele>
        <time>2020-08-22T11:31:55.000Z</time>
      </trkpt>
      <trkpt lat="44.12995" lon="6.9973">
        <ele>1995</ele>
        <time>2020-08-22T11:31:56.000Z</time>
      </trkpt>
      <trkpt lat="44.13" lon="6.99726">
        <ele>1993</ele>
        <time>2020-08-22T11:31:57.000Z</time>
      </trkpt>
      <trkpt lat="44.13005" lon="6.99722">
        <ele>1991.4000244141</ele>
        <time>2020-08-22T11:31:58.000Z</time>
      </trkpt>
      <trkpt lat="44.13011" lon="6.99717">
        <ele>1989.8000488281</ele>
        <time>2020-08-22T11:31:59.000Z</time>
      </trkpt>
      <trkpt lat="44.13015" lon="6.99713">
        <ele>1988.1999511719</ele>
        <time>2020-08-22T11:32:00.000Z</time>
      </trkpt>
      <trkpt lat="44.13019" lon="6.99707">
        <ele>1987.1999511719</ele>
        <time>2020-08-22T11:32:01.000Z</time>
      </trkpt>
      <trkpt lat="44.13022" lon="6.99704">
        <ele>1985.4000244141</ele>
        <time>2020-08-22T11:32:02.000Z</time>
      </trkpt>
      <trkpt lat="44.1303" lon="6.99698">
        <ele>1983</ele>
        <time>2020-08-22T11:32:04.000Z</time>
      </trkpt>
      <trkpt lat="44.13035" lon="6.99693">
        <ele>1981.1999511719</ele>
        <time>2020-08-22T11:32:05.000Z</time>
      </trkpt>
      <trkpt lat="44.1304" lon="6.99686">
        <ele>1980</ele>
        <time>2020-08-22T11:32:06.000Z</time>
      </trkpt>
      <trkpt lat="44.13044" lon="6.99679">
        <ele>1979.4000244141</ele>
        <time>2020-08-22T11:32:07.000Z</time>
      </trkpt>
      <trkpt lat="44.13049" lon="6.99673">
        <ele>1978.4000244141</ele>
        <time>2020-08-22T11:32:08.000Z</time>
      </trkpt>
      <trkpt lat="44.13055" lon="6.99669">
        <ele>1977.4000244141</ele>
        <time>2020-08-22T11:32:09.000Z</time>
      </trkpt>
      <trkpt lat="44.13061" lon="6.99665">
        <ele>1976.5999755859</ele>
        <time>2020-08-22T11:32:10.000Z</time>
      </trkpt>
      <trkpt lat="44.13066" lon="6.99659">
        <ele>1975.1999511719</ele>
        <time>2020-08-22T11:32:11.000Z</time>
      </trkpt>
      <trkpt lat="44.13072" lon="6.99656">
        <ele>1973.8000488281</ele>
        <time>2020-08-22T11:32:12.000Z</time>
      </trkpt>
      <trkpt lat="44.13078" lon="6.99653">
        <ele>1972.5999755859</ele>
        <time>2020-08-22T11:32:13.000Z</time>
      </trkpt>
      <trkpt lat="44.13084" lon="6.99651">
        <ele>1971</ele>
        <time>2020-08-22T11:32:14.000Z</time>
      </trkpt>
      <trkpt lat="44.13088" lon="6.9965">
        <ele>1969.1999511719</ele>
        <time>2020-08-22T11:32:15.000Z</time>
      </trkpt>
      <trkpt lat="44.13092" lon="6.9965">
        <ele>1968.1999511719</ele>
        <time>2020-08-22T11:32:16.000Z</time>
      </trkpt>
      <trkpt lat="44.13102" lon="6.99651">
        <ele>1966.8000488281</ele>
        <time>2020-08-22T11:32:18.000Z</time>
      </trkpt>
      <trkpt lat="44.13113" lon="6.99647">
        <ele>1966</ele>
        <time>2020-08-22T11:32:20.000Z</time>
      </trkpt>
      <trkpt lat="44.13119" lon="6.99643">
        <ele>1965.5999755859</ele>
        <time>2020-08-22T11:32:21.000Z</time>
      </trkpt>
      <trkpt lat="44.13139" lon="6.9963">
        <ele>1964</ele>
        <time>2020-08-22T11:32:24.000Z</time>
      </trkpt>
      <trkpt lat="44.13145" lon="6.99625">
        <ele>1963.1999511719</ele>
        <time>2020-08-22T11:32:25.000Z</time>
      </trkpt>
      <trkpt lat="44.1315" lon="6.99619">
        <ele>1962.5999755859</ele>
        <time>2020-08-22T11:32:26.000Z</time>
      </trkpt>
      <trkpt lat="44.13161" lon="6.99599">
        <ele>1962</ele>
        <time>2020-08-22T11:32:29.000Z</time>
      </trkpt>
      <trkpt lat="44.13174" lon="6.99575">
        <ele>1962</ele>
        <time>2020-08-22T11:32:34.000Z</time>
      </trkpt>
      <trkpt lat="44.13179" lon="6.99562">
        <ele>1963</ele>
        <time>2020-08-22T11:32:40.000Z</time>
      </trkpt>
      <trkpt lat="44.13181" lon="6.99557">
        <ele>1963.5999755859</ele>
        <time>2020-08-22T11:32:42.000Z</time>
      </trkpt>
      <trkpt lat="44.13189" lon="6.99543">
        <ele>1964</ele>
        <time>2020-08-22T11:32:48.000Z</time>
      </trkpt>
      <trkpt lat="44.132" lon="6.99521">
        <ele>1962.5999755859</ele>
        <time>2020-08-22T11:32:53.000Z</time>
      </trkpt>
      <trkpt lat="44.13201" lon="6.99517">
        <ele>1962.4000244141</ele>
        <time>2020-08-22T11:32:54.000Z</time>
      </trkpt>
      <trkpt lat="44.13208" lon="6.99507">
        <ele>1962.5999755859</ele>
        <time>2020-08-22T11:32:58.000Z</time>
      </trkpt>
      <trkpt lat="44.13215" lon="6.99489">
        <ele>1962.8000488281</ele>
        <time>2020-08-22T11:33:02.000Z</time>
      </trkpt>
      <trkpt lat="44.13221" lon="6.99467">
        <ele>1962.1999511719</ele>
        <time>2020-08-22T11:33:08.000Z</time>
      </trkpt>
      <trkpt lat="44.13225" lon="6.99441">
        <ele>1963.1999511719</ele>
        <time>2020-08-22T11:33:15.000Z</time>
      </trkpt>
      <trkpt lat="44.13225" lon="6.99438">
        <ele>1963.4000244141</ele>
        <time>2020-08-22T11:33:16.000Z</time>
      </trkpt>
      <trkpt lat="44.13227" lon="6.99434">
        <ele>1964.1999511719</ele>
        <time>2020-08-22T11:33:20.000Z</time>
      </trkpt>
      <trkpt lat="44.13227" lon="6.99432">
        <ele>1964.4000244141</ele>
        <time>2020-08-22T11:33:22.000Z</time>
      </trkpt>
      <trkpt lat="44.1323" lon="6.99429">
        <ele>1964.8000488281</ele>
        <time>2020-08-22T11:33:28.000Z</time>
      </trkpt>
      <trkpt lat="44.13232" lon="6.99427">
        <ele>1965.5999755859</ele>
        <time>2020-08-22T11:33:33.000Z</time>
      </trkpt>
      <trkpt lat="44.13233" lon="6.99426">
        <ele>1966</ele>
        <time>2020-08-22T11:33:35.000Z</time>
      </trkpt>
      <trkpt lat="44.13234" lon="6.99426">
        <ele>1966.4000244141</ele>
        <time>2020-08-22T11:33:37.000Z</time>
      </trkpt>
      <trkpt lat="44.13234" lon="6.99425">
        <ele>1966.8000488281</ele>
        <time>2020-08-22T11:33:38.000Z</time>
      </trkpt>
      <trkpt lat="44.13235" lon="6.99425">
        <ele>1967.1999511719</ele>
        <time>2020-08-22T11:33:40.000Z</time>
      </trkpt>
      <trkpt lat="44.13235" lon="6.99425">
        <ele>1967.8000488281</ele>
        <time>2020-08-22T11:33:42.000Z</time>
      </trkpt>
      <trkpt lat="44.13235" lon="6.99422">
        <ele>1968</ele>
        <time>2020-08-22T11:33:47.000Z</time>
      </trkpt>
      <trkpt lat="44.13236" lon="6.99421">
        <ele>1968</ele>
        <time>2020-08-22T11:33:48.000Z</time>
      </trkpt>
      <trkpt lat="44.13236" lon="6.99422">
        <ele>1967.8000488281</ele>
        <time>2020-08-22T11:33:51.000Z</time>
      </trkpt>
      <trkpt lat="44.13236" lon="6.99421">
        <ele>1967.8000488281</ele>
        <time>2020-08-22T11:34:01.000Z</time>
      </trkpt>
      <trkpt lat="44.13236" lon="6.99422">
        <ele>1968.1999511719</ele>
        <time>2020-08-22T11:34:13.000Z</time>
      </trkpt>
      <trkpt lat="44.13235" lon="6.99423">
        <ele>1968.1999511719</ele>
        <time>2020-08-22T11:34:23.000Z</time>
      </trkpt>
      <trkpt lat="44.13236" lon="6.99424">
        <ele>1968.1999511719</ele>
        <time>2020-08-22T11:34:25.000Z</time>
      </trkpt>
      <trkpt lat="44.13237" lon="6.99425">
        <ele>1968.8000488281</ele>
        <time>2020-08-22T11:34:30.000Z</time>
      </trkpt>
      <trkpt lat="44.13238" lon="6.99424">
        <ele>1969.5999755859</ele>
        <time>2020-08-22T11:34:38.000Z</time>
      </trkpt>
      <trkpt lat="44.13238" lon="6.99424">
        <ele>1968.8000488281</ele>
        <time>2020-08-22T11:34:49.000Z</time>
      </trkpt>
      <trkpt lat="44.13238" lon="6.99424">
        <ele>1969</ele>
        <time>2020-08-22T11:35:01.000Z</time>
      </trkpt>
      <trkpt lat="44.13238" lon="6.99423">
        <ele>1969.4000244141</ele>
        <time>2020-08-22T11:35:09.000Z</time>
      </trkpt>
      <trkpt lat="44.13238" lon="6.99423">
        <ele>1969.4000244141</ele>
        <time>2020-08-22T11:35:26.000Z</time>
      </trkpt>
      <trkpt lat="44.13238" lon="6.99423">
        <ele>1969.4000244141</ele>
        <time>2020-08-22T11:35:30.000Z</time>
      </trkpt>
      <trkpt lat="44.13238" lon="6.99424">
        <ele>1969.1999511719</ele>
        <time>2020-08-22T11:35:46.000Z</time>
      </trkpt>
      <trkpt lat="44.13238" lon="6.99424">
        <ele>1969</ele>
        <time>2020-08-22T11:35:55.000Z</time>
      </trkpt>
      <trkpt lat="44.13239" lon="6.99424">
        <ele>1969.4000244141</ele>
        <time>2020-08-22T11:36:00.000Z</time>
      </trkpt>
      <trkpt lat="44.13239" lon="6.99424">
        <ele>1969.4000244141</ele>
        <time>2020-08-22T11:36:06.000Z</time>
      </trkpt>
      <trkpt lat="44.13239" lon="6.99424">
        <ele>1968.8000488281</ele>
        <time>2020-08-22T11:36:18.000Z</time>
      </trkpt>
      <trkpt lat="44.13239" lon="6.99424">
        <ele>1969.8000488281</ele>
        <time>2020-08-22T11:36:24.000Z</time>
      </trkpt>
      <trkpt lat="44.13239" lon="6.99424">
        <ele>1969.8000488281</ele>
        <time>2020-08-22T11:36:25.000Z</time>
      </trkpt>
      <trkpt lat="44.13239" lon="6.99424">
        <ele>1968.8000488281</ele>
        <time>2020-08-22T11:36:39.000Z</time>
      </trkpt>
      <trkpt lat="44.13239" lon="6.99424">
        <ele>1968.4000244141</ele>
        <time>2020-08-22T11:36:40.000Z</time>
      </trkpt>
      <trkpt lat="44.13239" lon="6.99424">
        <ele>1967.8000488281</ele>
        <time>2020-08-22T11:36:43.000Z</time>
      </trkpt>
      <trkpt lat="44.13239" lon="6.99424">
        <ele>1968.5999755859</ele>
        <time>2020-08-22T11:37:02.000Z</time>
      </trkpt>
      <trkpt lat="44.13239" lon="6.99425">
        <ele>1968.8000488281</ele>
        <time>2020-08-22T11:37:04.000Z</time>
      </trkpt>
      <trkpt lat="44.13238" lon="6.99425">
        <ele>1969.8000488281</ele>
        <time>2020-08-22T11:37:08.000Z</time>
      </trkpt>
      <trkpt lat="44.13238" lon="6.99425">
        <ele>1969.1999511719</ele>
        <time>2020-08-22T11:37:19.000Z</time>
      </trkpt>
      <trkpt lat="44.13238" lon="6.99425">
        <ele>1969</ele>
        <time>2020-08-22T11:37:31.000Z</time>
      </trkpt>
      <trkpt lat="44.13238" lon="6.99425">
        <ele>1968.5999755859</ele>
        <time>2020-08-22T11:37:34.000Z</time>
      </trkpt>
      <trkpt lat="44.13237" lon="6.99423">
        <ele>1971.5999755859</ele>
        <time>2020-08-22T11:37:46.000Z</time>
      </trkpt>
      <trkpt lat="44.13237" lon="6.99423">
        <ele>1975</ele>
        <time>2020-08-22T11:37:47.000Z</time>
      </trkpt>
      <trkpt lat="44.13237" lon="6.99423">
        <ele>1978.4000244141</ele>
        <time>2020-08-22T11:37:48.000Z</time>
      </trkpt>
      <trkpt lat="44.13236" lon="6.99423">
        <ele>1983.1999511719</ele>
        <time>2020-08-22T11:37:49.000Z</time>
      </trkpt>
      <trkpt lat="44.13236" lon="6.99424">
        <ele>1981.4000244141</ele>
        <time>2020-08-22T11:37:50.000Z</time>
      </trkpt>
      <trkpt lat="44.13236" lon="6.99424">
        <ele>1981.5999755859</ele>
        <time>2020-08-22T11:37:56.000Z</time>
      </trkpt>
      <trkpt lat="44.13236" lon="6.99424">
        <ele>1981.5999755859</ele>
        <time>2020-08-22T11:38:04.000Z</time>
      </trkpt>
      <trkpt lat="44.13236" lon="6.99423">
        <ele>1981.4000244141</ele>
        <time>2020-08-22T11:38:16.000Z</time>
      </trkpt>
      <trkpt lat="44.13235" lon="6.99424">
        <ele>1981.8000488281</ele>
        <time>2020-08-22T11:38:25.000Z</time>
      </trkpt>
      <trkpt lat="44.13236" lon="6.99424">
        <ele>1982.4000244141</ele>
        <time>2020-08-22T11:38:35.000Z</time>
      </trkpt>
      <trkpt lat="44.13236" lon="6.99424">
        <ele>1983</ele>
        <time>2020-08-22T11:38:45.000Z</time>
      </trkpt>
      <trkpt lat="44.13235" lon="6.99424">
        <ele>1982.5999755859</ele>
        <time>2020-08-22T11:39:02.000Z</time>
      </trkpt>
      <trkpt lat="44.13235" lon="6.99424">
        <ele>1981</ele>
        <time>2020-08-22T11:39:09.000Z</time>
      </trkpt>
      <trkpt lat="44.13235" lon="6.99424">
        <ele>1979.5999755859</ele>
        <time>2020-08-22T11:39:10.000Z</time>
      </trkpt>
      <trkpt lat="44.13235" lon="6.99424">
        <ele>1977.5999755859</ele>
        <time>2020-08-22T11:39:12.000Z</time>
      </trkpt>
      <trkpt lat="44.13236" lon="6.99424">
        <ele>1978.5999755859</ele>
        <time>2020-08-22T11:39:18.000Z</time>
      </trkpt>
      <trkpt lat="44.13236" lon="6.99424">
        <ele>1978.5999755859</ele>
        <time>2020-08-22T11:39:22.000Z</time>
      </trkpt>
      <trkpt lat="44.13235" lon="6.99425">
        <ele>1978.1999511719</ele>
        <time>2020-08-22T11:39:36.000Z</time>
      </trkpt>
      <trkpt lat="44.13235" lon="6.99426">
        <ele>1978.1999511719</ele>
        <time>2020-08-22T11:39:44.000Z</time>
      </trkpt>
      <trkpt lat="44.13235" lon="6.99426">
        <ele>1977.5999755859</ele>
        <time>2020-08-22T11:39:53.000Z</time>
      </trkpt>
      <trkpt lat="44.13235" lon="6.99426">
        <ele>1977.5999755859</ele>
        <time>2020-08-22T11:39:54.000Z</time>
      </trkpt>
      <trkpt lat="44.13236" lon="6.99426">
        <ele>1976.8000488281</ele>
        <time>2020-08-22T11:40:05.000Z</time>
      </trkpt>
      <trkpt lat="44.13236" lon="6.99426">
        <ele>1976.5999755859</ele>
        <time>2020-08-22T11:40:06.000Z</time>
      </trkpt>
      <trkpt lat="44.13236" lon="6.99426">
        <ele>1975.1999511719</ele>
        <time>2020-08-22T11:40:10.000Z</time>
      </trkpt>
      <trkpt lat="44.13236" lon="6.99426">
        <ele>1974</ele>
        <time>2020-08-22T11:40:15.000Z</time>
      </trkpt>
      <trkpt lat="44.13237" lon="6.99426">
        <ele>1973.4000244141</ele>
        <time>2020-08-22T11:40:24.000Z</time>
      </trkpt>
      <trkpt lat="44.13237" lon="6.99426">
        <ele>1973</ele>
        <time>2020-08-22T11:40:26.000Z</time>
      </trkpt>
      <trkpt lat="44.13237" lon="6.99425">
        <ele>1972</ele>
        <time>2020-08-22T11:40:30.000Z</time>
      </trkpt>
      <trkpt lat="44.13238" lon="6.99425">
        <ele>1970.8000488281</ele>
        <time>2020-08-22T11:40:37.000Z</time>
      </trkpt>
      <trkpt lat="44.13238" lon="6.99425">
        <ele>1970.4000244141</ele>
        <time>2020-08-22T11:40:39.000Z</time>
      </trkpt>
      <trkpt lat="44.13238" lon="6.99425">
        <ele>1969.8000488281</ele>
        <time>2020-08-22T11:40:42.000Z</time>
      </trkpt>
      <trkpt lat="44.13239" lon="6.99425">
        <ele>1970</ele>
        <time>2020-08-22T11:40:48.000Z</time>
      </trkpt>
      <trkpt lat="44.13239" lon="6.99426">
        <ele>1971</ele>
        <time>2020-08-22T11:40:56.000Z</time>
      </trkpt>
      <trkpt lat="44.13239" lon="6.99426">
        <ele>1970.1999511719</ele>
        <time>2020-08-22T11:41:05.000Z</time>
      </trkpt>
      <trkpt lat="44.13239" lon="6.99426">
        <ele>1969.8000488281</ele>
        <time>2020-08-22T11:41:11.000Z</time>
      </trkpt>
      <trkpt lat="44.13239" lon="6.99426">
        <ele>1969.8000488281</ele>
        <time>2020-08-22T11:41:13.000Z</time>
      </trkpt>
      <trkpt lat="44.13239" lon="6.99426">
        <ele>1970.8000488281</ele>
        <time>2020-08-22T11:41:19.000Z</time>
      </trkpt>
      <trkpt lat="44.13239" lon="6.99426">
        <ele>1970.8000488281</ele>
        <time>2020-08-22T11:41:27.000Z</time>
      </trkpt>
      <trkpt lat="44.13239" lon="6.99426">
        <ele>1970.5999755859</ele>
        <time>2020-08-22T11:41:36.000Z</time>
      </trkpt>
      <trkpt lat="44.13239" lon="6.99426">
        <ele>1969.8000488281</ele>
        <time>2020-08-22T11:41:38.000Z</time>
      </trkpt>
      <trkpt lat="44.13238" lon="6.99426">
        <ele>1969.8000488281</ele>
        <time>2020-08-22T11:42:00.000Z</time>
      </trkpt>
      <trkpt lat="44.13238" lon="6.99425">
        <ele>1969.8000488281</ele>
        <time>2020-08-22T11:42:27.000Z</time>
      </trkpt>
      <trkpt lat="44.13237" lon="6.99425">
        <ele>1970.4000244141</ele>
        <time>2020-08-22T11:42:46.000Z</time>
      </trkpt>
      <trkpt lat="44.13237" lon="6.99425">
        <ele>1970.8000488281</ele>
        <time>2020-08-22T11:42:48.000Z</time>
      </trkpt>
      <trkpt lat="44.13237" lon="6.99425">
        <ele>1970.1999511719</ele>
        <time>2020-08-22T11:43:01.000Z</time>
      </trkpt>
      <trkpt lat="44.13237" lon="6.99425">
        <ele>1970.4000244141</ele>
        <time>2020-08-22T11:43:12.000Z</time>
      </trkpt>
      <trkpt lat="44.13236" lon="6.99425">
        <ele>1970.8000488281</ele>
        <time>2020-08-22T11:43:24.000Z</time>
      </trkpt>
      <trkpt lat="44.13236" lon="6.99425">
        <ele>1970.4000244141</ele>
        <time>2020-08-22T11:43:33.000Z</time>
      </trkpt>
      <trkpt lat="44.13235" lon="6.99421">
        <ele>1970.4000244141</ele>
        <time>2020-08-22T11:43:39.000Z</time>
      </trkpt>
      <trkpt lat="44.13235" lon="6.99422">
        <ele>1970.1999511719</ele>
        <time>2020-08-22T11:43:40.000Z</time>
      </trkpt>
      <trkpt lat="44.13235" lon="6.99422">
        <ele>1969.4000244141</ele>
        <time>2020-08-22T11:43:43.000Z</time>
      </trkpt>
      <trkpt lat="44.13234" lon="6.99423">
        <ele>1969.5999755859</ele>
        <time>2020-08-22T11:43:47.000Z</time>
      </trkpt>
      <trkpt lat="44.13234" lon="6.99423">
        <ele>1970.4000244141</ele>
        <time>2020-08-22T11:43:49.000Z</time>
      </trkpt>
      <trkpt lat="44.13234" lon="6.99423">
        <ele>1970.8000488281</ele>
        <time>2020-08-22T11:43:53.000Z</time>
      </trkpt>
      <trkpt lat="44.13235" lon="6.99423">
        <ele>1970.5999755859</ele>
        <time>2020-08-22T11:44:01.000Z</time>
      </trkpt>
      <trkpt lat="44.13235" lon="6.99422">
        <ele>1971.1999511719</ele>
        <time>2020-08-22T11:44:11.000Z</time>
      </trkpt>
      <trkpt lat="44.13235" lon="6.99422">
        <ele>1971.4000244141</ele>
        <time>2020-08-22T11:44:13.000Z</time>
      </trkpt>
      <trkpt lat="44.13235" lon="6.99422">
        <ele>1972.4000244141</ele>
        <time>2020-08-22T11:44:24.000Z</time>
      </trkpt>
      <trkpt lat="44.13235" lon="6.99422">
        <ele>1972.5999755859</ele>
        <time>2020-08-22T11:44:25.000Z</time>
      </trkpt>
      <trkpt lat="44.13235" lon="6.99423">
        <ele>1971.4000244141</ele>
        <time>2020-08-22T11:44:32.000Z</time>
      </trkpt>
      <trkpt lat="44.13235" lon="6.99424">
        <ele>1971.4000244141</ele>
        <time>2020-08-22T11:44:34.000Z</time>
      </trkpt>
      <trkpt lat="44.13235" lon="6.99423">
        <ele>1970</ele>
        <time>2020-08-22T11:44:38.000Z</time>
      </trkpt>
      <trkpt lat="44.13235" lon="6.99424">
        <ele>1968.8000488281</ele>
        <time>2020-08-22T11:44:40.000Z</time>
      </trkpt>
      <trkpt lat="44.13234" lon="6.99423">
        <ele>1968.5999755859</ele>
        <time>2020-08-22T11:44:42.000Z</time>
      </trkpt>
      <trkpt lat="44.13232" lon="6.99426">
        <ele>1969.8000488281</ele>
        <time>2020-08-22T11:44:48.000Z</time>
      </trkpt>
      <trkpt lat="44.13232" lon="6.99427">
        <ele>1970.1999511719</ele>
        <time>2020-08-22T11:44:49.000Z</time>
      </trkpt>
      <trkpt lat="44.13228" lon="6.9943">
        <ele>1969</ele>
        <time>2020-08-22T11:44:55.000Z</time>
      </trkpt>
      <trkpt lat="44.13229" lon="6.9943">
        <ele>1968.5999755859</ele>
        <time>2020-08-22T11:44:56.000Z</time>
      </trkpt>
      <trkpt lat="44.13228" lon="6.99429">
        <ele>1967.4000244141</ele>
        <time>2020-08-22T11:44:58.000Z</time>
      </trkpt>
      <trkpt lat="44.13228" lon="6.99424">
        <ele>1966.5999755859</ele>
        <time>2020-08-22T11:45:02.000Z</time>
      </trkpt>
      <trkpt lat="44.13228" lon="6.99423">
        <ele>1966.4000244141</ele>
        <time>2020-08-22T11:45:03.000Z</time>
      </trkpt>
      <trkpt lat="44.13227" lon="6.99417">
        <ele>1966.5999755859</ele>
        <time>2020-08-22T11:45:09.000Z</time>
      </trkpt>
      <trkpt lat="44.13226" lon="6.99417">
        <ele>1966.4000244141</ele>
        <time>2020-08-22T11:45:15.000Z</time>
      </trkpt>
      <trkpt lat="44.13222" lon="6.99413">
        <ele>1967</ele>
        <time>2020-08-22T11:45:24.000Z</time>
      </trkpt>
      <trkpt lat="44.1321" lon="6.99399">
        <ele>1966.5999755859</ele>
        <time>2020-08-22T11:45:28.000Z</time>
      </trkpt>
      <trkpt lat="44.13193" lon="6.99394">
        <ele>1965.1999511719</ele>
        <time>2020-08-22T11:45:31.000Z</time>
      </trkpt>
      <trkpt lat="44.13186" lon="6.99391">
        <ele>1964.5999755859</ele>
        <time>2020-08-22T11:45:32.000Z</time>
      </trkpt>
      <trkpt lat="44.13181" lon="6.99385">
        <ele>1963.4000244141</ele>
        <time>2020-08-22T11:45:33.000Z</time>
      </trkpt>
      <trkpt lat="44.13176" lon="6.99378">
        <ele>1962.8000488281</ele>
        <time>2020-08-22T11:45:34.000Z</time>
      </trkpt>
      <trkpt lat="44.13164" lon="6.99373">
        <ele>1963.1999511719</ele>
        <time>2020-08-22T11:45:36.000Z</time>
      </trkpt>
      <trkpt lat="44.1316" lon="6.99369">
        <ele>1963</ele>
        <time>2020-08-22T11:45:37.000Z</time>
      </trkpt>
      <trkpt lat="44.13153" lon="6.99363">
        <ele>1961.5999755859</ele>
        <time>2020-08-22T11:45:38.000Z</time>
      </trkpt>
      <trkpt lat="44.13138" lon="6.99356">
        <ele>1958.8000488281</ele>
        <time>2020-08-22T11:45:40.000Z</time>
      </trkpt>
      <trkpt lat="44.13132" lon="6.99355">
        <ele>1956.8000488281</ele>
        <time>2020-08-22T11:45:41.000Z</time>
      </trkpt>
      <trkpt lat="44.13124" lon="6.99354">
        <ele>1954.4000244141</ele>
        <time>2020-08-22T11:45:42.000Z</time>
      </trkpt>
      <trkpt lat="44.13118" lon="6.99352">
        <ele>1953.4000244141</ele>
        <time>2020-08-22T11:45:43.000Z</time>
      </trkpt>
      <trkpt lat="44.13113" lon="6.99348">
        <ele>1952</ele>
        <time>2020-08-22T11:45:44.000Z</time>
      </trkpt>
      <trkpt lat="44.13109" lon="6.99344">
        <ele>1951</ele>
        <time>2020-08-22T11:45:45.000Z</time>
      </trkpt>
      <trkpt lat="44.13105" lon="6.99341">
        <ele>1949.5999755859</ele>
        <time>2020-08-22T11:45:46.000Z</time>
      </trkpt>
      <trkpt lat="44.13101" lon="6.99338">
        <ele>1948.4000244141</ele>
        <time>2020-08-22T11:45:47.000Z</time>
      </trkpt>
      <trkpt lat="44.13096" lon="6.99336">
        <ele>1947.1999511719</ele>
        <time>2020-08-22T11:45:48.000Z</time>
      </trkpt>
      <trkpt lat="44.13092" lon="6.99334">
        <ele>1946.1999511719</ele>
        <time>2020-08-22T11:45:49.000Z</time>
      </trkpt>
      <trkpt lat="44.13087" lon="6.99332">
        <ele>1945</ele>
        <time>2020-08-22T11:45:50.000Z</time>
      </trkpt>
      <trkpt lat="44.13084" lon="6.99328">
        <ele>1943.5999755859</ele>
        <time>2020-08-22T11:45:51.000Z</time>
      </trkpt>
      <trkpt lat="44.1308" lon="6.99324">
        <ele>1942.4000244141</ele>
        <time>2020-08-22T11:45:52.000Z</time>
      </trkpt>
      <trkpt lat="44.13077" lon="6.9932">
        <ele>1942</ele>
        <time>2020-08-22T11:45:53.000Z</time>
      </trkpt>
      <trkpt lat="44.13073" lon="6.99317">
        <ele>1941</ele>
        <time>2020-08-22T11:45:54.000Z</time>
      </trkpt>
      <trkpt lat="44.13065" lon="6.9931">
        <ele>1939.1999511719</ele>
        <time>2020-08-22T11:45:56.000Z</time>
      </trkpt>
      <trkpt lat="44.13061" lon="6.99305">
        <ele>1938</ele>
        <time>2020-08-22T11:45:57.000Z</time>
      </trkpt>
      <trkpt lat="44.13057" lon="6.993">
        <ele>1936.8000488281</ele>
        <time>2020-08-22T11:45:58.000Z</time>
      </trkpt>
      <trkpt lat="44.13053" lon="6.99296">
        <ele>1935.4000244141</ele>
        <time>2020-08-22T11:45:59.000Z</time>
      </trkpt>
      <trkpt lat="44.13049" lon="6.99292">
        <ele>1933.1999511719</ele>
        <time>2020-08-22T11:46:00.000Z</time>
      </trkpt>
      <trkpt lat="44.13045" lon="6.99288">
        <ele>1932</ele>
        <time>2020-08-22T11:46:01.000Z</time>
      </trkpt>
      <trkpt lat="44.13041" lon="6.99284">
        <ele>1930.8000488281</ele>
        <time>2020-08-22T11:46:02.000Z</time>
      </trkpt>
      <trkpt lat="44.13038" lon="6.9928">
        <ele>1930</ele>
        <time>2020-08-22T11:46:03.000Z</time>
      </trkpt>
      <trkpt lat="44.13035" lon="6.99277">
        <ele>1928.5999755859</ele>
        <time>2020-08-22T11:46:04.000Z</time>
      </trkpt>
      <trkpt lat="44.13031" lon="6.99276">
        <ele>1927.5999755859</ele>
        <time>2020-08-22T11:46:05.000Z</time>
      </trkpt>
      <trkpt lat="44.13028" lon="6.99275">
        <ele>1926.5999755859</ele>
        <time>2020-08-22T11:46:06.000Z</time>
      </trkpt>
      <trkpt lat="44.13024" lon="6.99277">
        <ele>1925.5999755859</ele>
        <time>2020-08-22T11:46:07.000Z</time>
      </trkpt>
      <trkpt lat="44.1302" lon="6.99279">
        <ele>1924.8000488281</ele>
        <time>2020-08-22T11:46:08.000Z</time>
      </trkpt>
      <trkpt lat="44.13015" lon="6.99281">
        <ele>1924.1999511719</ele>
        <time>2020-08-22T11:46:09.000Z</time>
      </trkpt>
      <trkpt lat="44.13011" lon="6.99285">
        <ele>1923.5999755859</ele>
        <time>2020-08-22T11:46:10.000Z</time>
      </trkpt>
      <trkpt lat="44.13008" lon="6.99289">
        <ele>1923.4000244141</ele>
        <time>2020-08-22T11:46:11.000Z</time>
      </trkpt>
      <trkpt lat="44.12995" lon="6.993">
        <ele>1922.5999755859</ele>
        <time>2020-08-22T11:46:14.000Z</time>
      </trkpt>
      <trkpt lat="44.12988" lon="6.99303">
        <ele>1920.4000244141</ele>
        <time>2020-08-22T11:46:16.000Z</time>
      </trkpt>
      <trkpt lat="44.12983" lon="6.99305">
        <ele>1919.4000244141</ele>
        <time>2020-08-22T11:46:17.000Z</time>
      </trkpt>
      <trkpt lat="44.12973" lon="6.99307">
        <ele>1918.1999511719</ele>
        <time>2020-08-22T11:46:19.000Z</time>
      </trkpt>
      <trkpt lat="44.12963" lon="6.9931">
        <ele>1917.1999511719</ele>
        <time>2020-08-22T11:46:21.000Z</time>
      </trkpt>
      <trkpt lat="44.12958" lon="6.99311">
        <ele>1916.8000488281</ele>
        <time>2020-08-22T11:46:22.000Z</time>
      </trkpt>
      <trkpt lat="44.12941" lon="6.9931">
        <ele>1915.4000244141</ele>
        <time>2020-08-22T11:46:25.000Z</time>
      </trkpt>
      <trkpt lat="44.12936" lon="6.99311">
        <ele>1914.8000488281</ele>
        <time>2020-08-22T11:46:26.000Z</time>
      </trkpt>
      <trkpt lat="44.1293" lon="6.99311">
        <ele>1913.5999755859</ele>
        <time>2020-08-22T11:46:27.000Z</time>
      </trkpt>
      <trkpt lat="44.12925" lon="6.99311">
        <ele>1912.1999511719</ele>
        <time>2020-08-22T11:46:28.000Z</time>
      </trkpt>
      <trkpt lat="44.12919" lon="6.99309">
        <ele>1911.4000244141</ele>
        <time>2020-08-22T11:46:29.000Z</time>
      </trkpt>
      <trkpt lat="44.12915" lon="6.99309">
        <ele>1911</ele>
        <time>2020-08-22T11:46:30.000Z</time>
      </trkpt>
      <trkpt lat="44.12908" lon="6.99312">
        <ele>1909.4000244141</ele>
        <time>2020-08-22T11:46:32.000Z</time>
      </trkpt>
      <trkpt lat="44.12901" lon="6.99311">
        <ele>1908.4000244141</ele>
        <time>2020-08-22T11:46:34.000Z</time>
      </trkpt>
      <trkpt lat="44.12897" lon="6.9931">
        <ele>1906.5999755859</ele>
        <time>2020-08-22T11:46:36.000Z</time>
      </trkpt>
      <trkpt lat="44.12896" lon="6.99312">
        <ele>1905</ele>
        <time>2020-08-22T11:46:38.000Z</time>
      </trkpt>
      <trkpt lat="44.12897" lon="6.99314">
        <ele>1904.4000244141</ele>
        <time>2020-08-22T11:46:39.000Z</time>
      </trkpt>
      <trkpt lat="44.12901" lon="6.99319">
        <ele>1903.4000244141</ele>
        <time>2020-08-22T11:46:41.000Z</time>
      </trkpt>
      <trkpt lat="44.12907" lon="6.99323">
        <ele>1902.1999511719</ele>
        <time>2020-08-22T11:46:43.000Z</time>
      </trkpt>
      <trkpt lat="44.1291" lon="6.99325">
        <ele>1901.4000244141</ele>
        <time>2020-08-22T11:46:44.000Z</time>
      </trkpt>
      <trkpt lat="44.12913" lon="6.99328">
        <ele>1900.5999755859</ele>
        <time>2020-08-22T11:46:45.000Z</time>
      </trkpt>
      <trkpt lat="44.12917" lon="6.99332">
        <ele>1899.4000244141</ele>
        <time>2020-08-22T11:46:48.000Z</time>
      </trkpt>
      <trkpt lat="44.12916" lon="6.99332">
        <ele>1898.5999755859</ele>
        <time>2020-08-22T11:46:54.000Z</time>
      </trkpt>
      <trkpt lat="44.12916" lon="6.99332">
        <ele>1898.4000244141</ele>
        <time>2020-08-22T11:46:57.000Z</time>
      </trkpt>
      <trkpt lat="44.12919" lon="6.99335">
        <ele>1897.5999755859</ele>
        <time>2020-08-22T11:46:59.000Z</time>
      </trkpt>
      <trkpt lat="44.12922" lon="6.99337">
        <ele>1897</ele>
        <time>2020-08-22T11:47:01.000Z</time>
      </trkpt>
      <trkpt lat="44.12928" lon="6.99344">
        <ele>1896.5999755859</ele>
        <time>2020-08-22T11:47:03.000Z</time>
      </trkpt>
      <trkpt lat="44.12932" lon="6.99347">
        <ele>1896.4000244141</ele>
        <time>2020-08-22T11:47:04.000Z</time>
      </trkpt>
      <trkpt lat="44.1294" lon="6.99353">
        <ele>1895.1999511719</ele>
        <time>2020-08-22T11:47:06.000Z</time>
      </trkpt>
      <trkpt lat="44.12948" lon="6.99361">
        <ele>1893.8000488281</ele>
        <time>2020-08-22T11:47:08.000Z</time>
      </trkpt>
      <trkpt lat="44.12958" lon="6.99368">
        <ele>1892.1999511719</ele>
        <time>2020-08-22T11:47:10.000Z</time>
      </trkpt>
      <trkpt lat="44.1297" lon="6.99375">
        <ele>1891</ele>
        <time>2020-08-22T11:47:13.000Z</time>
      </trkpt>
      <trkpt lat="44.12972" lon="6.99387">
        <ele>1889.5999755859</ele>
        <time>2020-08-22T11:47:15.000Z</time>
      </trkpt>
      <trkpt lat="44.12968" lon="6.99389">
        <ele>1888.8000488281</ele>
        <time>2020-08-22T11:47:16.000Z</time>
      </trkpt>
      <trkpt lat="44.12964" lon="6.99386">
        <ele>1887.4000244141</ele>
        <time>2020-08-22T11:47:17.000Z</time>
      </trkpt>
      <trkpt lat="44.12959" lon="6.99387">
        <ele>1886.8000488281</ele>
        <time>2020-08-22T11:47:18.000Z</time>
      </trkpt>
      <trkpt lat="44.12954" lon="6.99388">
        <ele>1885.8000488281</ele>
        <time>2020-08-22T11:47:19.000Z</time>
      </trkpt>
      <trkpt lat="44.1295" lon="6.99389">
        <ele>1885</ele>
        <time>2020-08-22T11:47:20.000Z</time>
      </trkpt>
      <trkpt lat="44.12945" lon="6.99391">
        <ele>1884.5999755859</ele>
        <time>2020-08-22T11:47:21.000Z</time>
      </trkpt>
      <trkpt lat="44.12932" lon="6.99392">
        <ele>1883.5999755859</ele>
        <time>2020-08-22T11:47:23.000Z</time>
      </trkpt>
      <trkpt lat="44.12925" lon="6.99392">
        <ele>1883</ele>
        <time>2020-08-22T11:47:24.000Z</time>
      </trkpt>
      <trkpt lat="44.1291" lon="6.99393">
        <ele>1881.5999755859</ele>
        <time>2020-08-22T11:47:26.000Z</time>
      </trkpt>
      <trkpt lat="44.12902" lon="6.99395">
        <ele>1880.1999511719</ele>
        <time>2020-08-22T11:47:27.000Z</time>
      </trkpt>
      <trkpt lat="44.12894" lon="6.99395">
        <ele>1879.1999511719</ele>
        <time>2020-08-22T11:47:28.000Z</time>
      </trkpt>
      <trkpt lat="44.12865" lon="6.99397">
        <ele>1876.4000244141</ele>
        <time>2020-08-22T11:47:31.000Z</time>
      </trkpt>
      <trkpt lat="44.12855" lon="6.99398">
        <ele>1874.4000244141</ele>
        <time>2020-08-22T11:47:32.000Z</time>
      </trkpt>
      <trkpt lat="44.12846" lon="6.99398">
        <ele>1872.4000244141</ele>
        <time>2020-08-22T11:47:33.000Z</time>
      </trkpt>
      <trkpt lat="44.12838" lon="6.99398">
        <ele>1870.5999755859</ele>
        <time>2020-08-22T11:47:34.000Z</time>
      </trkpt>
      <trkpt lat="44.12832" lon="6.99398">
        <ele>1868.5999755859</ele>
        <time>2020-08-22T11:47:35.000Z</time>
      </trkpt>
      <trkpt lat="44.12826" lon="6.99398">
        <ele>1866.8000488281</ele>
        <time>2020-08-22T11:47:36.000Z</time>
      </trkpt>
      <trkpt lat="44.12823" lon="6.99398">
        <ele>1865.1999511719</ele>
        <time>2020-08-22T11:47:37.000Z</time>
      </trkpt>
      <trkpt lat="44.12822" lon="6.99401">
        <ele>1864</ele>
        <time>2020-08-22T11:47:38.000Z</time>
      </trkpt>
      <trkpt lat="44.12823" lon="6.99405">
        <ele>1862.8000488281</ele>
        <time>2020-08-22T11:47:39.000Z</time>
      </trkpt>
      <trkpt lat="44.1283" lon="6.99415">
        <ele>1861.8000488281</ele>
        <time>2020-08-22T11:47:41.000Z</time>
      </trkpt>
      <trkpt lat="44.12835" lon="6.99421">
        <ele>1861.4000244141</ele>
        <time>2020-08-22T11:47:42.000Z</time>
      </trkpt>
      <trkpt lat="44.12838" lon="6.9943">
        <ele>1860.4000244141</ele>
        <time>2020-08-22T11:47:44.000Z</time>
      </trkpt>
      <trkpt lat="44.1284" lon="6.99435">
        <ele>1860</ele>
        <time>2020-08-22T11:47:45.000Z</time>
      </trkpt>
      <trkpt lat="44.12843" lon="6.99442">
        <ele>1859.1999511719</ele>
        <time>2020-08-22T11:47:47.000Z</time>
      </trkpt>
      <trkpt lat="44.12838" lon="6.99445">
        <ele>1858.4000244141</ele>
        <time>2020-08-22T11:47:49.000Z</time>
      </trkpt>
      <trkpt lat="44.12834" lon="6.99447">
        <ele>1858</ele>
        <time>2020-08-22T11:47:50.000Z</time>
      </trkpt>
      <trkpt lat="44.12823" lon="6.99445">
        <ele>1856.4000244141</ele>
        <time>2020-08-22T11:47:52.000Z</time>
      </trkpt>
      <trkpt lat="44.12811" lon="6.99444">
        <ele>1854.4000244141</ele>
        <time>2020-08-22T11:47:54.000Z</time>
      </trkpt>
      <trkpt lat="44.12807" lon="6.99443">
        <ele>1853.1999511719</ele>
        <time>2020-08-22T11:47:55.000Z</time>
      </trkpt>
      <trkpt lat="44.12803" lon="6.99441">
        <ele>1852</ele>
        <time>2020-08-22T11:47:56.000Z</time>
      </trkpt>
      <trkpt lat="44.12798" lon="6.99442">
        <ele>1851.4000244141</ele>
        <time>2020-08-22T11:47:57.000Z</time>
      </trkpt>
      <trkpt lat="44.12792" lon="6.99445">
        <ele>1850.4000244141</ele>
        <time>2020-08-22T11:47:58.000Z</time>
      </trkpt>
      <trkpt lat="44.12787" lon="6.99445">
        <ele>1849.5999755859</ele>
        <time>2020-08-22T11:47:59.000Z</time>
      </trkpt>
      <trkpt lat="44.12783" lon="6.99443">
        <ele>1848.5999755859</ele>
        <time>2020-08-22T11:48:00.000Z</time>
      </trkpt>
      <trkpt lat="44.12776" lon="6.99436">
        <ele>1847</ele>
        <time>2020-08-22T11:48:02.000Z</time>
      </trkpt>
      <trkpt lat="44.12772" lon="6.99432">
        <ele>1846.1999511719</ele>
        <time>2020-08-22T11:48:03.000Z</time>
      </trkpt>
      <trkpt lat="44.12766" lon="6.99429">
        <ele>1845.8000488281</ele>
        <time>2020-08-22T11:48:04.000Z</time>
      </trkpt>
      <trkpt lat="44.12755" lon="6.99427">
        <ele>1844.4000244141</ele>
        <time>2020-08-22T11:48:06.000Z</time>
      </trkpt>
      <trkpt lat="44.1274" lon="6.99422">
        <ele>1842.5999755859</ele>
        <time>2020-08-22T11:48:08.000Z</time>
      </trkpt>
      <trkpt lat="44.12732" lon="6.99418">
        <ele>1841.4000244141</ele>
        <time>2020-08-22T11:48:09.000Z</time>
      </trkpt>
      <trkpt lat="44.12723" lon="6.99416">
        <ele>1840</ele>
        <time>2020-08-22T11:48:10.000Z</time>
      </trkpt>
      <trkpt lat="44.12715" lon="6.99413">
        <ele>1838.8000488281</ele>
        <time>2020-08-22T11:48:11.000Z</time>
      </trkpt>
      <trkpt lat="44.12704" lon="6.9941">
        <ele>1837.4000244141</ele>
        <time>2020-08-22T11:48:12.000Z</time>
      </trkpt>
      <trkpt lat="44.12696" lon="6.99408">
        <ele>1836</ele>
        <time>2020-08-22T11:48:13.000Z</time>
      </trkpt>
      <trkpt lat="44.1269" lon="6.99406">
        <ele>1834.5999755859</ele>
        <time>2020-08-22T11:48:14.000Z</time>
      </trkpt>
      <trkpt lat="44.12684" lon="6.99404">
        <ele>1833.5999755859</ele>
        <time>2020-08-22T11:48:15.000Z</time>
      </trkpt>
      <trkpt lat="44.12673" lon="6.994">
        <ele>1832</ele>
        <time>2020-08-22T11:48:17.000Z</time>
      </trkpt>
      <trkpt lat="44.12668" lon="6.99398">
        <ele>1831</ele>
        <time>2020-08-22T11:48:18.000Z</time>
      </trkpt>
      <trkpt lat="44.12663" lon="6.99396">
        <ele>1830</ele>
        <time>2020-08-22T11:48:19.000Z</time>
      </trkpt>
      <trkpt lat="44.1266" lon="6.99396">
        <ele>1828.5999755859</ele>
        <time>2020-08-22T11:48:21.000Z</time>
      </trkpt>
      <trkpt lat="44.12661" lon="6.99398">
        <ele>1827.1999511719</ele>
        <time>2020-08-22T11:48:22.000Z</time>
      </trkpt>
      <trkpt lat="44.12668" lon="6.99414">
        <ele>1825.8000488281</ele>
        <time>2020-08-22T11:48:25.000Z</time>
      </trkpt>
      <trkpt lat="44.12671" lon="6.99421">
        <ele>1825.4000244141</ele>
        <time>2020-08-22T11:48:26.000Z</time>
      </trkpt>
      <trkpt lat="44.12678" lon="6.99437">
        <ele>1824.8000488281</ele>
        <time>2020-08-22T11:48:28.000Z</time>
      </trkpt>
      <trkpt lat="44.12684" lon="6.99456">
        <ele>1823.4000244141</ele>
        <time>2020-08-22T11:48:30.000Z</time>
      </trkpt>
      <trkpt lat="44.12686" lon="6.99465">
        <ele>1822.4000244141</ele>
        <time>2020-08-22T11:48:31.000Z</time>
      </trkpt>
      <trkpt lat="44.12688" lon="6.99475">
        <ele>1821.5999755859</ele>
        <time>2020-08-22T11:48:32.000Z</time>
      </trkpt>
      <trkpt lat="44.12691" lon="6.99491">
        <ele>1820.1999511719</ele>
        <time>2020-08-22T11:48:34.000Z</time>
      </trkpt>
      <trkpt lat="44.12684" lon="6.99493">
        <ele>1819.1999511719</ele>
        <time>2020-08-22T11:48:36.000Z</time>
      </trkpt>
      <trkpt lat="44.12677" lon="6.99491">
        <ele>1818.4000244141</ele>
        <time>2020-08-22T11:48:37.000Z</time>
      </trkpt>
      <trkpt lat="44.12671" lon="6.99491">
        <ele>1817.8000488281</ele>
        <time>2020-08-22T11:48:38.000Z</time>
      </trkpt>
      <trkpt lat="44.12662" lon="6.99487">
        <ele>1817</ele>
        <time>2020-08-22T11:48:39.000Z</time>
      </trkpt>
      <trkpt lat="44.12656" lon="6.99483">
        <ele>1814.4000244141</ele>
        <time>2020-08-22T11:48:40.000Z</time>
      </trkpt>
      <trkpt lat="44.12652" lon="6.99477">
        <ele>1813</ele>
        <time>2020-08-22T11:48:41.000Z</time>
      </trkpt>
      <trkpt lat="44.12648" lon="6.99469">
        <ele>1811.5999755859</ele>
        <time>2020-08-22T11:48:42.000Z</time>
      </trkpt>
      <trkpt lat="44.12645" lon="6.99464">
        <ele>1810.5999755859</ele>
        <time>2020-08-22T11:48:43.000Z</time>
      </trkpt>
      <trkpt lat="44.12638" lon="6.99458">
        <ele>1809.1999511719</ele>
        <time>2020-08-22T11:48:45.000Z</time>
      </trkpt>
      <trkpt lat="44.12635" lon="6.99457">
        <ele>1808.1999511719</ele>
        <time>2020-08-22T11:48:46.000Z</time>
      </trkpt>
      <trkpt lat="44.12625" lon="6.99451">
        <ele>1806.4000244141</ele>
        <time>2020-08-22T11:48:48.000Z</time>
      </trkpt>
      <trkpt lat="44.12619" lon="6.99452">
        <ele>1805.4000244141</ele>
        <time>2020-08-22T11:48:49.000Z</time>
      </trkpt>
      <trkpt lat="44.12613" lon="6.99451">
        <ele>1804.1999511719</ele>
        <time>2020-08-22T11:48:50.000Z</time>
      </trkpt>
      <trkpt lat="44.12608" lon="6.9945">
        <ele>1802.8000488281</ele>
        <time>2020-08-22T11:48:51.000Z</time>
      </trkpt>
      <trkpt lat="44.12604" lon="6.99447">
        <ele>1801.1999511719</ele>
        <time>2020-08-22T11:48:52.000Z</time>
      </trkpt>
      <trkpt lat="44.12601" lon="6.99444">
        <ele>1799.5999755859</ele>
        <time>2020-08-22T11:48:53.000Z</time>
      </trkpt>
      <trkpt lat="44.12597" lon="6.99439">
        <ele>1798.1999511719</ele>
        <time>2020-08-22T11:48:54.000Z</time>
      </trkpt>
      <trkpt lat="44.12593" lon="6.99434">
        <ele>1797</ele>
        <time>2020-08-22T11:48:55.000Z</time>
      </trkpt>
      <trkpt lat="44.12589" lon="6.99433">
        <ele>1796.8000488281</ele>
        <time>2020-08-22T11:48:56.000Z</time>
      </trkpt>
      <trkpt lat="44.12586" lon="6.99431">
        <ele>1795.5999755859</ele>
        <time>2020-08-22T11:48:57.000Z</time>
      </trkpt>
      <trkpt lat="44.12583" lon="6.9943">
        <ele>1794.1999511719</ele>
        <time>2020-08-22T11:48:58.000Z</time>
      </trkpt>
      <trkpt lat="44.12582" lon="6.99429">
        <ele>1793</ele>
        <time>2020-08-22T11:48:59.000Z</time>
      </trkpt>
      <trkpt lat="44.12577" lon="6.99428">
        <ele>1791.8000488281</ele>
        <time>2020-08-22T11:49:01.000Z</time>
      </trkpt>
      <trkpt lat="44.12573" lon="6.99427">
        <ele>1790.8000488281</ele>
        <time>2020-08-22T11:49:03.000Z</time>
      </trkpt>
      <trkpt lat="44.12574" lon="6.99426">
        <ele>1789.4000244141</ele>
        <time>2020-08-22T11:49:05.000Z</time>
      </trkpt>
      <trkpt lat="44.12573" lon="6.99426">
        <ele>1789</ele>
        <time>2020-08-22T11:49:06.000Z</time>
      </trkpt>
      <trkpt lat="44.12573" lon="6.99425">
        <ele>1788.4000244141</ele>
        <time>2020-08-22T11:49:08.000Z</time>
      </trkpt>
      <trkpt lat="44.12572" lon="6.99424">
        <ele>1788.1999511719</ele>
        <time>2020-08-22T11:49:09.000Z</time>
      </trkpt>
      <trkpt lat="44.12571" lon="6.99423">
        <ele>1787.1999511719</ele>
        <time>2020-08-22T11:49:12.000Z</time>
      </trkpt>
      <trkpt lat="44.12567" lon="6.99423">
        <ele>1786</ele>
        <time>2020-08-22T11:49:17.000Z</time>
      </trkpt>
      <trkpt lat="44.12565" lon="6.99423">
        <ele>1785.5999755859</ele>
        <time>2020-08-22T11:49:18.000Z</time>
      </trkpt>
      <trkpt lat="44.12557" lon="6.99422">
        <ele>1784.8000488281</ele>
        <time>2020-08-22T11:49:21.000Z</time>
      </trkpt>
      <trkpt lat="44.12554" lon="6.99423">
        <ele>1784.1999511719</ele>
        <time>2020-08-22T11:49:22.000Z</time>
      </trkpt>
      <trkpt lat="44.12551" lon="6.99422">
        <ele>1783.5999755859</ele>
        <time>2020-08-22T11:49:23.000Z</time>
      </trkpt>
      <trkpt lat="44.12537" lon="6.99425">
        <ele>1782.1999511719</ele>
        <time>2020-08-22T11:49:26.000Z</time>
      </trkpt>
      <trkpt lat="44.12532" lon="6.99425">
        <ele>1781.8000488281</ele>
        <time>2020-08-22T11:49:27.000Z</time>
      </trkpt>
      <trkpt lat="44.1252" lon="6.99426">
        <ele>1780.5999755859</ele>
        <time>2020-08-22T11:49:29.000Z</time>
      </trkpt>
      <trkpt lat="44.12507" lon="6.99427">
        <ele>1780</ele>
        <time>2020-08-22T11:49:31.000Z</time>
      </trkpt>
      <trkpt lat="44.12502" lon="6.99427">
        <ele>1779.4000244141</ele>
        <time>2020-08-22T11:49:32.000Z</time>
      </trkpt>
      <trkpt lat="44.12497" lon="6.99426">
        <ele>1778.1999511719</ele>
        <time>2020-08-22T11:49:33.000Z</time>
      </trkpt>
      <trkpt lat="44.12491" lon="6.99425">
        <ele>1776.4000244141</ele>
        <time>2020-08-22T11:49:34.000Z</time>
      </trkpt>
      <trkpt lat="44.12486" lon="6.99425">
        <ele>1775.1999511719</ele>
        <time>2020-08-22T11:49:35.000Z</time>
      </trkpt>
      <trkpt lat="44.1248" lon="6.99422">
        <ele>1773.8000488281</ele>
        <time>2020-08-22T11:49:36.000Z</time>
      </trkpt>
      <trkpt lat="44.12474" lon="6.99418">
        <ele>1772.4000244141</ele>
        <time>2020-08-22T11:49:37.000Z</time>
      </trkpt>
      <trkpt lat="44.12468" lon="6.99414">
        <ele>1771.1999511719</ele>
        <time>2020-08-22T11:49:38.000Z</time>
      </trkpt>
      <trkpt lat="44.12463" lon="6.9941">
        <ele>1770.1999511719</ele>
        <time>2020-08-22T11:49:39.000Z</time>
      </trkpt>
      <trkpt lat="44.12458" lon="6.99406">
        <ele>1769</ele>
        <time>2020-08-22T11:49:40.000Z</time>
      </trkpt>
      <trkpt lat="44.12449" lon="6.99398">
        <ele>1767.4000244141</ele>
        <time>2020-08-22T11:49:42.000Z</time>
      </trkpt>
      <trkpt lat="44.12444" lon="6.99395">
        <ele>1766</ele>
        <time>2020-08-22T11:49:43.000Z</time>
      </trkpt>
      <trkpt lat="44.12432" lon="6.99388">
        <ele>1764.4000244141</ele>
        <time>2020-08-22T11:49:45.000Z</time>
      </trkpt>
      <trkpt lat="44.12427" lon="6.99383">
        <ele>1763.4000244141</ele>
        <time>2020-08-22T11:49:46.000Z</time>
      </trkpt>
      <trkpt lat="44.12421" lon="6.99376">
        <ele>1762.5999755859</ele>
        <time>2020-08-22T11:49:47.000Z</time>
      </trkpt>
      <trkpt lat="44.12408" lon="6.99371">
        <ele>1761</ele>
        <time>2020-08-22T11:49:49.000Z</time>
      </trkpt>
      <trkpt lat="44.12401" lon="6.99369">
        <ele>1759</ele>
        <time>2020-08-22T11:49:50.000Z</time>
      </trkpt>
      <trkpt lat="44.12396" lon="6.99367">
        <ele>1757.5999755859</ele>
        <time>2020-08-22T11:49:51.000Z</time>
      </trkpt>
      <trkpt lat="44.12391" lon="6.99366">
        <ele>1756.5999755859</ele>
        <time>2020-08-22T11:49:52.000Z</time>
      </trkpt>
      <trkpt lat="44.12388" lon="6.99365">
        <ele>1755</ele>
        <time>2020-08-22T11:49:53.000Z</time>
      </trkpt>
      <trkpt lat="44.12383" lon="6.99363">
        <ele>1754.1999511719</ele>
        <time>2020-08-22T11:49:54.000Z</time>
      </trkpt>
      <trkpt lat="44.12374" lon="6.9936">
        <ele>1752.5999755859</ele>
        <time>2020-08-22T11:49:56.000Z</time>
      </trkpt>
      <trkpt lat="44.12369" lon="6.99356">
        <ele>1751.1999511719</ele>
        <time>2020-08-22T11:49:57.000Z</time>
      </trkpt>
      <trkpt lat="44.12364" lon="6.99352">
        <ele>1750.1999511719</ele>
        <time>2020-08-22T11:49:58.000Z</time>
      </trkpt>
      <trkpt lat="44.12359" lon="6.99349">
        <ele>1749.1999511719</ele>
        <time>2020-08-22T11:49:59.000Z</time>
      </trkpt>
      <trkpt lat="44.12352" lon="6.99346">
        <ele>1747.8000488281</ele>
        <time>2020-08-22T11:50:00.000Z</time>
      </trkpt>
      <trkpt lat="44.12348" lon="6.99344">
        <ele>1747.1999511719</ele>
        <time>2020-08-22T11:50:01.000Z</time>
      </trkpt>
      <trkpt lat="44.12344" lon="6.99342">
        <ele>1746.5999755859</ele>
        <time>2020-08-22T11:50:02.000Z</time>
      </trkpt>
      <trkpt lat="44.1234" lon="6.99339">
        <ele>1746</ele>
        <time>2020-08-22T11:50:03.000Z</time>
      </trkpt>
      <trkpt lat="44.12336" lon="6.99336">
        <ele>1744.5999755859</ele>
        <time>2020-08-22T11:50:04.000Z</time>
      </trkpt>
      <trkpt lat="44.1233" lon="6.9933">
        <ele>1743</ele>
        <time>2020-08-22T11:50:06.000Z</time>
      </trkpt>
      <trkpt lat="44.12323" lon="6.99324">
        <ele>1740.8000488281</ele>
        <time>2020-08-22T11:50:08.000Z</time>
      </trkpt>
      <trkpt lat="44.12321" lon="6.99323">
        <ele>1740</ele>
        <time>2020-08-22T11:50:09.000Z</time>
      </trkpt>
      <trkpt lat="44.12318" lon="6.99321">
        <ele>1739</ele>
        <time>2020-08-22T11:50:10.000Z</time>
      </trkpt>
      <trkpt lat="44.1231" lon="6.99314">
        <ele>1736.5999755859</ele>
        <time>2020-08-22T11:50:12.000Z</time>
      </trkpt>
      <trkpt lat="44.12306" lon="6.99311">
        <ele>1735.5999755859</ele>
        <time>2020-08-22T11:50:13.000Z</time>
      </trkpt>
      <trkpt lat="44.12302" lon="6.99308">
        <ele>1734.8000488281</ele>
        <time>2020-08-22T11:50:14.000Z</time>
      </trkpt>
      <trkpt lat="44.12294" lon="6.993">
        <ele>1732.8000488281</ele>
        <time>2020-08-22T11:50:16.000Z</time>
      </trkpt>
      <trkpt lat="44.12283" lon="6.99289">
        <ele>1731</ele>
        <time>2020-08-22T11:50:18.000Z</time>
      </trkpt>
      <trkpt lat="44.12277" lon="6.99284">
        <ele>1729.8000488281</ele>
        <time>2020-08-22T11:50:19.000Z</time>
      </trkpt>
      <trkpt lat="44.12272" lon="6.99281">
        <ele>1728.1999511719</ele>
        <time>2020-08-22T11:50:20.000Z</time>
      </trkpt>
      <trkpt lat="44.12264" lon="6.99278">
        <ele>1726.1999511719</ele>
        <time>2020-08-22T11:50:22.000Z</time>
      </trkpt>
      <trkpt lat="44.12257" lon="6.99277">
        <ele>1724.5999755859</ele>
        <time>2020-08-22T11:50:24.000Z</time>
      </trkpt>
      <trkpt lat="44.1225" lon="6.99275">
        <ele>1722.5999755859</ele>
        <time>2020-08-22T11:50:26.000Z</time>
      </trkpt>
      <trkpt lat="44.12245" lon="6.99272">
        <ele>1721.4000244141</ele>
        <time>2020-08-22T11:50:27.000Z</time>
      </trkpt>
      <trkpt lat="44.12241" lon="6.99269">
        <ele>1720.4000244141</ele>
        <time>2020-08-22T11:50:28.000Z</time>
      </trkpt>
      <trkpt lat="44.12237" lon="6.99263">
        <ele>1719</ele>
        <time>2020-08-22T11:50:29.000Z</time>
      </trkpt>
      <trkpt lat="44.12232" lon="6.99256">
        <ele>1717.4000244141</ele>
        <time>2020-08-22T11:50:30.000Z</time>
      </trkpt>
      <trkpt lat="44.12226" lon="6.99249">
        <ele>1716</ele>
        <time>2020-08-22T11:50:31.000Z</time>
      </trkpt>
      <trkpt lat="44.12222" lon="6.99246">
        <ele>1714.4000244141</ele>
        <time>2020-08-22T11:50:32.000Z</time>
      </trkpt>
      <trkpt lat="44.1222" lon="6.99246">
        <ele>1713.1999511719</ele>
        <time>2020-08-22T11:50:33.000Z</time>
      </trkpt>
      <trkpt lat="44.12217" lon="6.99244">
        <ele>1712.4000244141</ele>
        <time>2020-08-22T11:50:34.000Z</time>
      </trkpt>
      <trkpt lat="44.12212" lon="6.99246">
        <ele>1711.1999511719</ele>
        <time>2020-08-22T11:50:36.000Z</time>
      </trkpt>
      <trkpt lat="44.12208" lon="6.99247">
        <ele>1709.1999511719</ele>
        <time>2020-08-22T11:50:38.000Z</time>
      </trkpt>
      <trkpt lat="44.12205" lon="6.99251">
        <ele>1708</ele>
        <time>2020-08-22T11:50:40.000Z</time>
      </trkpt>
      <trkpt lat="44.12201" lon="6.99255">
        <ele>1706.4000244141</ele>
        <time>2020-08-22T11:50:42.000Z</time>
      </trkpt>
      <trkpt lat="44.12199" lon="6.9926">
        <ele>1704.1999511719</ele>
        <time>2020-08-22T11:50:44.000Z</time>
      </trkpt>
      <trkpt lat="44.12196" lon="6.99262">
        <ele>1703</ele>
        <time>2020-08-22T11:50:45.000Z</time>
      </trkpt>
      <trkpt lat="44.12194" lon="6.9926">
        <ele>1702.1999511719</ele>
        <time>2020-08-22T11:50:46.000Z</time>
      </trkpt>
      <trkpt lat="44.12192" lon="6.99256">
        <ele>1701.4000244141</ele>
        <time>2020-08-22T11:50:47.000Z</time>
      </trkpt>
      <trkpt lat="44.12193" lon="6.99246">
        <ele>1700</ele>
        <time>2020-08-22T11:50:49.000Z</time>
      </trkpt>
      <trkpt lat="44.12194" lon="6.99241">
        <ele>1699.4000244141</ele>
        <time>2020-08-22T11:50:50.000Z</time>
      </trkpt>
      <trkpt lat="44.12195" lon="6.99234">
        <ele>1698.5999755859</ele>
        <time>2020-08-22T11:50:51.000Z</time>
      </trkpt>
      <trkpt lat="44.12195" lon="6.99225">
        <ele>1697.1999511719</ele>
        <time>2020-08-22T11:50:53.000Z</time>
      </trkpt>
      <trkpt lat="44.12194" lon="6.99222">
        <ele>1696.4000244141</ele>
        <time>2020-08-22T11:50:54.000Z</time>
      </trkpt>
      <trkpt lat="44.12193" lon="6.99219">
        <ele>1695.1999511719</ele>
        <time>2020-08-22T11:50:55.000Z</time>
      </trkpt>
      <trkpt lat="44.12191" lon="6.99217">
        <ele>1694.5999755859</ele>
        <time>2020-08-22T11:50:56.000Z</time>
      </trkpt>
      <trkpt lat="44.12188" lon="6.99217">
        <ele>1693.4000244141</ele>
        <time>2020-08-22T11:50:57.000Z</time>
      </trkpt>
      <trkpt lat="44.12183" lon="6.99215">
        <ele>1692.8000488281</ele>
        <time>2020-08-22T11:50:58.000Z</time>
      </trkpt>
      <trkpt lat="44.1218" lon="6.99212">
        <ele>1692.1999511719</ele>
        <time>2020-08-22T11:50:59.000Z</time>
      </trkpt>
      <trkpt lat="44.12176" lon="6.99205">
        <ele>1691.8000488281</ele>
        <time>2020-08-22T11:51:01.000Z</time>
      </trkpt>
      <trkpt lat="44.12172" lon="6.99202">
        <ele>1691.1999511719</ele>
        <time>2020-08-22T11:51:03.000Z</time>
      </trkpt>
      <trkpt lat="44.12171" lon="6.99201">
        <ele>1691.1999511719</ele>
        <time>2020-08-22T11:51:04.000Z</time>
      </trkpt>
      <trkpt lat="44.12167" lon="6.99202">
        <ele>1691.4000244141</ele>
        <time>2020-08-22T11:51:05.000Z</time>
      </trkpt>
      <trkpt lat="44.12149" lon="6.99209">
        <ele>1690</ele>
        <time>2020-08-22T11:51:08.000Z</time>
      </trkpt>
      <trkpt lat="44.12141" lon="6.99204">
        <ele>1688.8000488281</ele>
        <time>2020-08-22T11:51:10.000Z</time>
      </trkpt>
      <trkpt lat="44.12136" lon="6.99201">
        <ele>1688</ele>
        <time>2020-08-22T11:51:11.000Z</time>
      </trkpt>
      <trkpt lat="44.12131" lon="6.99196">
        <ele>1687.8000488281</ele>
        <time>2020-08-22T11:51:12.000Z</time>
      </trkpt>
      <trkpt lat="44.12122" lon="6.99185">
        <ele>1687.5999755859</ele>
        <time>2020-08-22T11:51:14.000Z</time>
      </trkpt>
      <trkpt lat="44.12118" lon="6.99181">
        <ele>1687.4000244141</ele>
        <time>2020-08-22T11:51:15.000Z</time>
      </trkpt>
      <trkpt lat="44.12105" lon="6.99173">
        <ele>1685.5999755859</ele>
        <time>2020-08-22T11:51:18.000Z</time>
      </trkpt>
      <trkpt lat="44.12101" lon="6.99169">
        <ele>1684.5999755859</ele>
        <time>2020-08-22T11:51:19.000Z</time>
      </trkpt>
      <trkpt lat="44.12097" lon="6.99168">
        <ele>1684</ele>
        <time>2020-08-22T11:51:20.000Z</time>
      </trkpt>
      <trkpt lat="44.12092" lon="6.99166">
        <ele>1682.8000488281</ele>
        <time>2020-08-22T11:51:21.000Z</time>
      </trkpt>
      <trkpt lat="44.12087" lon="6.99163">
        <ele>1682.4000244141</ele>
        <time>2020-08-22T11:51:22.000Z</time>
      </trkpt>
      <trkpt lat="44.12069" lon="6.99155">
        <ele>1679.8000488281</ele>
        <time>2020-08-22T11:51:25.000Z</time>
      </trkpt>
      <trkpt lat="44.12064" lon="6.99154">
        <ele>1678.5999755859</ele>
        <time>2020-08-22T11:51:26.000Z</time>
      </trkpt>
      <trkpt lat="44.1206" lon="6.99151">
        <ele>1677.1999511719</ele>
        <time>2020-08-22T11:51:27.000Z</time>
      </trkpt>
      <trkpt lat="44.12055" lon="6.99147">
        <ele>1675.5999755859</ele>
        <time>2020-08-22T11:51:28.000Z</time>
      </trkpt>
      <trkpt lat="44.1205" lon="6.99143">
        <ele>1674</ele>
        <time>2020-08-22T11:51:29.000Z</time>
      </trkpt>
      <trkpt lat="44.12043" lon="6.9913">
        <ele>1672.5999755859</ele>
        <time>2020-08-22T11:51:31.000Z</time>
      </trkpt>
      <trkpt lat="44.12042" lon="6.99125">
        <ele>1671.4000244141</ele>
        <time>2020-08-22T11:51:32.000Z</time>
      </trkpt>
      <trkpt lat="44.12043" lon="6.9912">
        <ele>1669.8000488281</ele>
        <time>2020-08-22T11:51:34.000Z</time>
      </trkpt>
      <trkpt lat="44.12042" lon="6.99117">
        <ele>1669.1999511719</ele>
        <time>2020-08-22T11:51:35.000Z</time>
      </trkpt>
      <trkpt lat="44.12042" lon="6.99117">
        <ele>1668.8000488281</ele>
        <time>2020-08-22T11:51:36.000Z</time>
      </trkpt>
      <trkpt lat="44.12037" lon="6.9912">
        <ele>1667.4000244141</ele>
        <time>2020-08-22T11:51:38.000Z</time>
      </trkpt>
      <trkpt lat="44.12028" lon="6.99127">
        <ele>1665.5999755859</ele>
        <time>2020-08-22T11:51:40.000Z</time>
      </trkpt>
      <trkpt lat="44.12024" lon="6.9913">
        <ele>1665</ele>
        <time>2020-08-22T11:51:41.000Z</time>
      </trkpt>
      <trkpt lat="44.12019" lon="6.99134">
        <ele>1663.5999755859</ele>
        <time>2020-08-22T11:51:42.000Z</time>
      </trkpt>
      <trkpt lat="44.12015" lon="6.99137">
        <ele>1661.8000488281</ele>
        <time>2020-08-22T11:51:43.000Z</time>
      </trkpt>
      <trkpt lat="44.12012" lon="6.99139">
        <ele>1660.4000244141</ele>
        <time>2020-08-22T11:51:44.000Z</time>
      </trkpt>
      <trkpt lat="44.12007" lon="6.99141">
        <ele>1659.4000244141</ele>
        <time>2020-08-22T11:51:45.000Z</time>
      </trkpt>
      <trkpt lat="44.12003" lon="6.99143">
        <ele>1657.5999755859</ele>
        <time>2020-08-22T11:51:46.000Z</time>
      </trkpt>
      <trkpt lat="44.12" lon="6.99145">
        <ele>1656.1999511719</ele>
        <time>2020-08-22T11:51:47.000Z</time>
      </trkpt>
      <trkpt lat="44.11997" lon="6.99147">
        <ele>1655</ele>
        <time>2020-08-22T11:51:48.000Z</time>
      </trkpt>
      <trkpt lat="44.11995" lon="6.9915">
        <ele>1653.8000488281</ele>
        <time>2020-08-22T11:51:49.000Z</time>
      </trkpt>
      <trkpt lat="44.11993" lon="6.99154">
        <ele>1652.5999755859</ele>
        <time>2020-08-22T11:51:50.000Z</time>
      </trkpt>
      <trkpt lat="44.11988" lon="6.99158">
        <ele>1651.4000244141</ele>
        <time>2020-08-22T11:51:52.000Z</time>
      </trkpt>
      <trkpt lat="44.11988" lon="6.99154">
        <ele>1650.8000488281</ele>
        <time>2020-08-22T11:51:53.000Z</time>
      </trkpt>
      <trkpt lat="44.11989" lon="6.9915">
        <ele>1650</ele>
        <time>2020-08-22T11:51:54.000Z</time>
      </trkpt>
      <trkpt lat="44.11988" lon="6.99146">
        <ele>1649</ele>
        <time>2020-08-22T11:51:55.000Z</time>
      </trkpt>
      <trkpt lat="44.11986" lon="6.99148">
        <ele>1648</ele>
        <time>2020-08-22T11:51:56.000Z</time>
      </trkpt>
      <trkpt lat="44.11983" lon="6.9915">
        <ele>1647.5999755859</ele>
        <time>2020-08-22T11:51:57.000Z</time>
      </trkpt>
      <trkpt lat="44.11975" lon="6.99151">
        <ele>1646</ele>
        <time>2020-08-22T11:51:59.000Z</time>
      </trkpt>
      <trkpt lat="44.11973" lon="6.99154">
        <ele>1645.1999511719</ele>
        <time>2020-08-22T11:52:00.000Z</time>
      </trkpt>
      <trkpt lat="44.1197" lon="6.99156">
        <ele>1644.4000244141</ele>
        <time>2020-08-22T11:52:01.000Z</time>
      </trkpt>
      <trkpt lat="44.11966" lon="6.99157">
        <ele>1643.5999755859</ele>
        <time>2020-08-22T11:52:02.000Z</time>
      </trkpt>
      <trkpt lat="44.11963" lon="6.99157">
        <ele>1642.4000244141</ele>
        <time>2020-08-22T11:52:03.000Z</time>
      </trkpt>
      <trkpt lat="44.1196" lon="6.99159">
        <ele>1641.1999511719</ele>
        <time>2020-08-22T11:52:04.000Z</time>
      </trkpt>
      <trkpt lat="44.11954" lon="6.99162">
        <ele>1640.4000244141</ele>
        <time>2020-08-22T11:52:06.000Z</time>
      </trkpt>
      <trkpt lat="44.1195" lon="6.99163">
        <ele>1639.5999755859</ele>
        <time>2020-08-22T11:52:07.000Z</time>
      </trkpt>
      <trkpt lat="44.11946" lon="6.99166">
        <ele>1639</ele>
        <time>2020-08-22T11:52:08.000Z</time>
      </trkpt>
      <trkpt lat="44.11942" lon="6.99169">
        <ele>1637.1999511719</ele>
        <time>2020-08-22T11:52:10.000Z</time>
      </trkpt>
      <trkpt lat="44.1194" lon="6.99173">
        <ele>1635.5999755859</ele>
        <time>2020-08-22T11:52:11.000Z</time>
      </trkpt>
      <trkpt lat="44.11935" lon="6.99178">
        <ele>1634.4000244141</ele>
        <time>2020-08-22T11:52:12.000Z</time>
      </trkpt>
      <trkpt lat="44.1193" lon="6.99181">
        <ele>1632.5999755859</ele>
        <time>2020-08-22T11:52:13.000Z</time>
      </trkpt>
      <trkpt lat="44.11926" lon="6.99184">
        <ele>1631.4000244141</ele>
        <time>2020-08-22T11:52:14.000Z</time>
      </trkpt>
      <trkpt lat="44.11923" lon="6.99189">
        <ele>1630.5999755859</ele>
        <time>2020-08-22T11:52:15.000Z</time>
      </trkpt>
      <trkpt lat="44.11919" lon="6.99191">
        <ele>1629.8000488281</ele>
        <time>2020-08-22T11:52:16.000Z</time>
      </trkpt>
      <trkpt lat="44.11915" lon="6.99194">
        <ele>1629</ele>
        <time>2020-08-22T11:52:17.000Z</time>
      </trkpt>
      <trkpt lat="44.11911" lon="6.99195">
        <ele>1627.8000488281</ele>
        <time>2020-08-22T11:52:18.000Z</time>
      </trkpt>
      <trkpt lat="44.11908" lon="6.99198">
        <ele>1626.5999755859</ele>
        <time>2020-08-22T11:52:19.000Z</time>
      </trkpt>
      <trkpt lat="44.11904" lon="6.992">
        <ele>1625.5999755859</ele>
        <time>2020-08-22T11:52:20.000Z</time>
      </trkpt>
      <trkpt lat="44.119" lon="6.99201">
        <ele>1624.8000488281</ele>
        <time>2020-08-22T11:52:21.000Z</time>
      </trkpt>
      <trkpt lat="44.11898" lon="6.99204">
        <ele>1624.4000244141</ele>
        <time>2020-08-22T11:52:22.000Z</time>
      </trkpt>
      <trkpt lat="44.11894" lon="6.99207">
        <ele>1623.8000488281</ele>
        <time>2020-08-22T11:52:24.000Z</time>
      </trkpt>
      <trkpt lat="44.11893" lon="6.99204">
        <ele>1623.1999511719</ele>
        <time>2020-08-22T11:52:25.000Z</time>
      </trkpt>
      <trkpt lat="44.11891" lon="6.992">
        <ele>1621.5999755859</ele>
        <time>2020-08-22T11:52:27.000Z</time>
      </trkpt>
      <trkpt lat="44.11891" lon="6.992">
        <ele>1620.5999755859</ele>
        <time>2020-08-22T11:52:29.000Z</time>
      </trkpt>
      <trkpt lat="44.1189" lon="6.99198">
        <ele>1620.1999511719</ele>
        <time>2020-08-22T11:52:30.000Z</time>
      </trkpt>
      <trkpt lat="44.11889" lon="6.99197">
        <ele>1619.8000488281</ele>
        <time>2020-08-22T11:52:31.000Z</time>
      </trkpt>
      <trkpt lat="44.11887" lon="6.99197">
        <ele>1619.5999755859</ele>
        <time>2020-08-22T11:52:33.000Z</time>
      </trkpt>
      <trkpt lat="44.11885" lon="6.99197">
        <ele>1619.5999755859</ele>
        <time>2020-08-22T11:52:34.000Z</time>
      </trkpt>
      <trkpt lat="44.11884" lon="6.99199">
        <ele>1619.4000244141</ele>
        <time>2020-08-22T11:52:35.000Z</time>
      </trkpt>
      <trkpt lat="44.11882" lon="6.99199">
        <ele>1619.4000244141</ele>
        <time>2020-08-22T11:52:36.000Z</time>
      </trkpt>
      <trkpt lat="44.11877" lon="6.99203">
        <ele>1618.4000244141</ele>
        <time>2020-08-22T11:52:38.000Z</time>
      </trkpt>
      <trkpt lat="44.11873" lon="6.99208">
        <ele>1618</ele>
        <time>2020-08-22T11:52:39.000Z</time>
      </trkpt>
      <trkpt lat="44.1187" lon="6.99212">
        <ele>1617.8000488281</ele>
        <time>2020-08-22T11:52:40.000Z</time>
      </trkpt>
      <trkpt lat="44.11866" lon="6.99215">
        <ele>1617.1999511719</ele>
        <time>2020-08-22T11:52:41.000Z</time>
      </trkpt>
      <trkpt lat="44.11854" lon="6.99221">
        <ele>1616.1999511719</ele>
        <time>2020-08-22T11:52:43.000Z</time>
      </trkpt>
      <trkpt lat="44.11851" lon="6.99225">
        <ele>1615</ele>
        <time>2020-08-22T11:52:44.000Z</time>
      </trkpt>
      <trkpt lat="44.11848" lon="6.99226">
        <ele>1613.5999755859</ele>
        <time>2020-08-22T11:52:45.000Z</time>
      </trkpt>
      <trkpt lat="44.11845" lon="6.99224">
        <ele>1612.5999755859</ele>
        <time>2020-08-22T11:52:46.000Z</time>
      </trkpt>
      <trkpt lat="44.11841" lon="6.99223">
        <ele>1612.4000244141</ele>
        <time>2020-08-22T11:52:47.000Z</time>
      </trkpt>
      <trkpt lat="44.11825" lon="6.99215">
        <ele>1612.1999511719</ele>
        <time>2020-08-22T11:52:51.000Z</time>
      </trkpt>
      <trkpt lat="44.1182" lon="6.99211">
        <ele>1612.1999511719</ele>
        <time>2020-08-22T11:52:52.000Z</time>
      </trkpt>
      <trkpt lat="44.11807" lon="6.99203">
        <ele>1611.5999755859</ele>
        <time>2020-08-22T11:52:55.000Z</time>
      </trkpt>
      <trkpt lat="44.11801" lon="6.99202">
        <ele>1611</ele>
        <time>2020-08-22T11:52:56.000Z</time>
      </trkpt>
      <trkpt lat="44.11794" lon="6.992">
        <ele>1610</ele>
        <time>2020-08-22T11:52:57.000Z</time>
      </trkpt>
      <trkpt lat="44.11786" lon="6.99197">
        <ele>1609.8000488281</ele>
        <time>2020-08-22T11:52:58.000Z</time>
      </trkpt>
      <trkpt lat="44.11779" lon="6.99193">
        <ele>1608.8000488281</ele>
        <time>2020-08-22T11:52:59.000Z</time>
      </trkpt>
      <trkpt lat="44.1177" lon="6.99189">
        <ele>1607.1999511719</ele>
        <time>2020-08-22T11:53:00.000Z</time>
      </trkpt>
      <trkpt lat="44.11761" lon="6.99184">
        <ele>1605.8000488281</ele>
        <time>2020-08-22T11:53:01.000Z</time>
      </trkpt>
      <trkpt lat="44.11751" lon="6.99179">
        <ele>1604</ele>
        <time>2020-08-22T11:53:02.000Z</time>
      </trkpt>
      <trkpt lat="44.11741" lon="6.99174">
        <ele>1602</ele>
        <time>2020-08-22T11:53:03.000Z</time>
      </trkpt>
      <trkpt lat="44.11731" lon="6.99169">
        <ele>1599.8000488281</ele>
        <time>2020-08-22T11:53:04.000Z</time>
      </trkpt>
      <trkpt lat="44.11713" lon="6.99158">
        <ele>1597.8000488281</ele>
        <time>2020-08-22T11:53:06.000Z</time>
      </trkpt>
      <trkpt lat="44.11704" lon="6.99153">
        <ele>1596.5999755859</ele>
        <time>2020-08-22T11:53:07.000Z</time>
      </trkpt>
      <trkpt lat="44.11697" lon="6.99148">
        <ele>1595</ele>
        <time>2020-08-22T11:53:08.000Z</time>
      </trkpt>
      <trkpt lat="44.11692" lon="6.99145">
        <ele>1593.8000488281</ele>
        <time>2020-08-22T11:53:09.000Z</time>
      </trkpt>
      <trkpt lat="44.11687" lon="6.99143">
        <ele>1592.1999511719</ele>
        <time>2020-08-22T11:53:10.000Z</time>
      </trkpt>
      <trkpt lat="44.1168" lon="6.9914">
        <ele>1591.1999511719</ele>
        <time>2020-08-22T11:53:11.000Z</time>
      </trkpt>
      <trkpt lat="44.11664" lon="6.99132">
        <ele>1589.5999755859</ele>
        <time>2020-08-22T11:53:13.000Z</time>
      </trkpt>
      <trkpt lat="44.11656" lon="6.99127">
        <ele>1588</ele>
        <time>2020-08-22T11:53:14.000Z</time>
      </trkpt>
      <trkpt lat="44.11649" lon="6.99121">
        <ele>1586.5999755859</ele>
        <time>2020-08-22T11:53:15.000Z</time>
      </trkpt>
      <trkpt lat="44.11645" lon="6.99116">
        <ele>1585</ele>
        <time>2020-08-22T11:53:16.000Z</time>
      </trkpt>
      <trkpt lat="44.1164" lon="6.99112">
        <ele>1583</ele>
        <time>2020-08-22T11:53:17.000Z</time>
      </trkpt>
      <trkpt lat="44.11634" lon="6.99106">
        <ele>1582.4000244141</ele>
        <time>2020-08-22T11:53:18.000Z</time>
      </trkpt>
      <trkpt lat="44.11634" lon="6.99105">
        <ele>1582</ele>
        <time>2020-08-22T11:53:19.000Z</time>
      </trkpt>
      <trkpt lat="44.11628" lon="6.99099">
        <ele>1581.5999755859</ele>
        <time>2020-08-22T11:53:21.000Z</time>
      </trkpt>
      <trkpt lat="44.11627" lon="6.99099">
        <ele>1580.8000488281</ele>
        <time>2020-08-22T11:53:22.000Z</time>
      </trkpt>
      <trkpt lat="44.11627" lon="6.99102">
        <ele>1579.8000488281</ele>
        <time>2020-08-22T11:53:24.000Z</time>
      </trkpt>
      <trkpt lat="44.11627" lon="6.99104">
        <ele>1579</ele>
        <time>2020-08-22T11:53:25.000Z</time>
      </trkpt>
      <trkpt lat="44.11626" lon="6.99104">
        <ele>1578.8000488281</ele>
        <time>2020-08-22T11:53:26.000Z</time>
      </trkpt>
      <trkpt lat="44.11621" lon="6.99102">
        <ele>1577.8000488281</ele>
        <time>2020-08-22T11:53:29.000Z</time>
      </trkpt>
      <trkpt lat="44.11617" lon="6.99099">
        <ele>1577.5999755859</ele>
        <time>2020-08-22T11:53:30.000Z</time>
      </trkpt>
      <trkpt lat="44.1161" lon="6.99091">
        <ele>1576.4000244141</ele>
        <time>2020-08-22T11:53:32.000Z</time>
      </trkpt>
      <trkpt lat="44.11606" lon="6.99087">
        <ele>1575.8000488281</ele>
        <time>2020-08-22T11:53:33.000Z</time>
      </trkpt>
      <trkpt lat="44.11604" lon="6.99081">
        <ele>1575.1999511719</ele>
        <time>2020-08-22T11:53:34.000Z</time>
      </trkpt>
      <trkpt lat="44.11602" lon="6.99075">
        <ele>1574.1999511719</ele>
        <time>2020-08-22T11:53:35.000Z</time>
      </trkpt>
      <trkpt lat="44.11598" lon="6.99073">
        <ele>1573.4000244141</ele>
        <time>2020-08-22T11:53:36.000Z</time>
      </trkpt>
      <trkpt lat="44.11594" lon="6.99072">
        <ele>1572.1999511719</ele>
        <time>2020-08-22T11:53:37.000Z</time>
      </trkpt>
      <trkpt lat="44.11591" lon="6.99073">
        <ele>1571.1999511719</ele>
        <time>2020-08-22T11:53:38.000Z</time>
      </trkpt>
      <trkpt lat="44.11587" lon="6.99077">
        <ele>1570.5999755859</ele>
        <time>2020-08-22T11:53:39.000Z</time>
      </trkpt>
      <trkpt lat="44.11581" lon="6.99079">
        <ele>1569.4000244141</ele>
        <time>2020-08-22T11:53:40.000Z</time>
      </trkpt>
      <trkpt lat="44.11578" lon="6.99082">
        <ele>1568.1999511719</ele>
        <time>2020-08-22T11:53:41.000Z</time>
      </trkpt>
      <trkpt lat="44.11574" lon="6.99085">
        <ele>1567</ele>
        <time>2020-08-22T11:53:42.000Z</time>
      </trkpt>
      <trkpt lat="44.11572" lon="6.99089">
        <ele>1566.1999511719</ele>
        <time>2020-08-22T11:53:43.000Z</time>
      </trkpt>
      <trkpt lat="44.11568" lon="6.99091">
        <ele>1565.4000244141</ele>
        <time>2020-08-22T11:53:44.000Z</time>
      </trkpt>
      <trkpt lat="44.11563" lon="6.99094">
        <ele>1564.1999511719</ele>
        <time>2020-08-22T11:53:46.000Z</time>
      </trkpt>
      <trkpt lat="44.11561" lon="6.99095">
        <ele>1563.4000244141</ele>
        <time>2020-08-22T11:53:47.000Z</time>
      </trkpt>
      <trkpt lat="44.11562" lon="6.99095">
        <ele>1562.5999755859</ele>
        <time>2020-08-22T11:53:48.000Z</time>
      </trkpt>
      <trkpt lat="44.11564" lon="6.99095">
        <ele>1561.5999755859</ele>
        <time>2020-08-22T11:53:49.000Z</time>
      </trkpt>
      <trkpt lat="44.11563" lon="6.99095">
        <ele>1561</ele>
        <time>2020-08-22T11:53:50.000Z</time>
      </trkpt>
      <trkpt lat="44.11566" lon="6.99093">
        <ele>1560.8000488281</ele>
        <time>2020-08-22T11:53:56.000Z</time>
      </trkpt>
      <trkpt lat="44.11566" lon="6.99092">
        <ele>1561.8000488281</ele>
        <time>2020-08-22T11:54:02.000Z</time>
      </trkpt>
      <trkpt lat="44.11567" lon="6.99092">
        <ele>1561.4000244141</ele>
        <time>2020-08-22T11:54:11.000Z</time>
      </trkpt>
      <trkpt lat="44.11569" lon="6.99093">
        <ele>1561.4000244141</ele>
        <time>2020-08-22T11:54:18.000Z</time>
      </trkpt>
      <trkpt lat="44.1157" lon="6.99094">
        <ele>1562.1999511719</ele>
        <time>2020-08-22T11:54:22.000Z</time>
      </trkpt>
      <trkpt lat="44.1157" lon="6.99094">
        <ele>1562.1999511719</ele>
        <time>2020-08-22T11:54:23.000Z</time>
      </trkpt>
      <trkpt lat="44.11571" lon="6.99095">
        <ele>1561.5999755859</ele>
        <time>2020-08-22T11:54:32.000Z</time>
      </trkpt>
      <trkpt lat="44.1157" lon="6.99095">
        <ele>1561.8000488281</ele>
        <time>2020-08-22T11:54:41.000Z</time>
      </trkpt>
      <trkpt lat="44.1157" lon="6.99094">
        <ele>1560.8000488281</ele>
        <time>2020-08-22T11:54:45.000Z</time>
      </trkpt>
      <trkpt lat="44.11571" lon="6.99094">
        <ele>1560.8000488281</ele>
        <time>2020-08-22T11:54:51.000Z</time>
      </trkpt>
      <trkpt lat="44.11571" lon="6.99093">
        <ele>1561</ele>
        <time>2020-08-22T11:55:01.000Z</time>
      </trkpt>
      <trkpt lat="44.11571" lon="6.99092">
        <ele>1561.8000488281</ele>
        <time>2020-08-22T11:55:09.000Z</time>
      </trkpt>
      <trkpt lat="44.11571" lon="6.99092">
        <ele>1562</ele>
        <time>2020-08-22T11:55:14.000Z</time>
      </trkpt>
      <trkpt lat="44.11571" lon="6.99093">
        <ele>1561.8000488281</ele>
        <time>2020-08-22T11:55:22.000Z</time>
      </trkpt>
      <trkpt lat="44.11571" lon="6.99093">
        <ele>1561.4000244141</ele>
        <time>2020-08-22T11:55:40.000Z</time>
      </trkpt>
      <trkpt lat="44.11571" lon="6.99093">
        <ele>1561.4000244141</ele>
        <time>2020-08-22T11:55:52.000Z</time>
      </trkpt>
      <trkpt lat="44.11571" lon="6.99093">
        <ele>1560.5999755859</ele>
        <time>2020-08-22T11:55:55.000Z</time>
      </trkpt>
      <trkpt lat="44.1157" lon="6.99093">
        <ele>1561.5999755859</ele>
        <time>2020-08-22T11:56:06.000Z</time>
      </trkpt>
      <trkpt lat="44.11565" lon="6.99093">
        <ele>1561.1999511719</ele>
        <time>2020-08-22T11:56:12.000Z</time>
      </trkpt>
      <trkpt lat="44.11559" lon="6.99089">
        <ele>1560.5999755859</ele>
        <time>2020-08-22T11:56:15.000Z</time>
      </trkpt>
      <trkpt lat="44.11556" lon="6.99085">
        <ele>1560.1999511719</ele>
        <time>2020-08-22T11:56:16.000Z</time>
      </trkpt>
      <trkpt lat="44.11545" lon="6.99071">
        <ele>1559.1999511719</ele>
        <time>2020-08-22T11:56:19.000Z</time>
      </trkpt>
      <trkpt lat="44.11538" lon="6.99058">
        <ele>1558</ele>
        <time>2020-08-22T11:56:21.000Z</time>
      </trkpt>
      <trkpt lat="44.11535" lon="6.9905">
        <ele>1556.4000244141</ele>
        <time>2020-08-22T11:56:22.000Z</time>
      </trkpt>
      <trkpt lat="44.11532" lon="6.99043">
        <ele>1555.1999511719</ele>
        <time>2020-08-22T11:56:23.000Z</time>
      </trkpt>
      <trkpt lat="44.11528" lon="6.99036">
        <ele>1554.5999755859</ele>
        <time>2020-08-22T11:56:24.000Z</time>
      </trkpt>
      <trkpt lat="44.11526" lon="6.9903">
        <ele>1553.8000488281</ele>
        <time>2020-08-22T11:56:25.000Z</time>
      </trkpt>
      <trkpt lat="44.11519" lon="6.9902">
        <ele>1553.4000244141</ele>
        <time>2020-08-22T11:56:27.000Z</time>
      </trkpt>
      <trkpt lat="44.11514" lon="6.9901">
        <ele>1552.5999755859</ele>
        <time>2020-08-22T11:56:29.000Z</time>
      </trkpt>
      <trkpt lat="44.11505" lon="6.98997">
        <ele>1553</ele>
        <time>2020-08-22T11:56:33.000Z</time>
      </trkpt>
      <trkpt lat="44.11495" lon="6.98986">
        <ele>1552.5999755859</ele>
        <time>2020-08-22T11:56:36.000Z</time>
      </trkpt>
      <trkpt lat="44.11492" lon="6.98982">
        <ele>1552.4000244141</ele>
        <time>2020-08-22T11:56:37.000Z</time>
      </trkpt>
      <trkpt lat="44.11486" lon="6.98975">
        <ele>1552</ele>
        <time>2020-08-22T11:56:39.000Z</time>
      </trkpt>
      <trkpt lat="44.11478" lon="6.98962">
        <ele>1551.8000488281</ele>
        <time>2020-08-22T11:56:42.000Z</time>
      </trkpt>
      <trkpt lat="44.11477" lon="6.98958">
        <ele>1551.5999755859</ele>
        <time>2020-08-22T11:56:43.000Z</time>
      </trkpt>
      <trkpt lat="44.11467" lon="6.98949">
        <ele>1551.4000244141</ele>
        <time>2020-08-22T11:56:47.000Z</time>
      </trkpt>
      <trkpt lat="44.11452" lon="6.98931">
        <ele>1550.8000488281</ele>
        <time>2020-08-22T11:56:52.000Z</time>
      </trkpt>
      <trkpt lat="44.11449" lon="6.98927">
        <ele>1550.4000244141</ele>
        <time>2020-08-22T11:56:53.000Z</time>
      </trkpt>
      <trkpt lat="44.11445" lon="6.98924">
        <ele>1550</ele>
        <time>2020-08-22T11:56:54.000Z</time>
      </trkpt>
      <trkpt lat="44.11438" lon="6.98918">
        <ele>1549.5999755859</ele>
        <time>2020-08-22T11:56:56.000Z</time>
      </trkpt>
      <trkpt lat="44.11426" lon="6.9891">
        <ele>1549.8000488281</ele>
        <time>2020-08-22T11:56:59.000Z</time>
      </trkpt>
      <trkpt lat="44.11424" lon="6.98904">
        <ele>1549.5999755859</ele>
        <time>2020-08-22T11:57:00.000Z</time>
      </trkpt>
      <trkpt lat="44.11421" lon="6.98903">
        <ele>1549.1999511719</ele>
        <time>2020-08-22T11:57:01.000Z</time>
      </trkpt>
      <trkpt lat="44.11418" lon="6.98903">
        <ele>1548.1999511719</ele>
        <time>2020-08-22T11:57:02.000Z</time>
      </trkpt>
      <trkpt lat="44.11417" lon="6.98903">
        <ele>1548</ele>
        <time>2020-08-22T11:57:03.000Z</time>
      </trkpt>
      <trkpt lat="44.11402" lon="6.98895">
        <ele>1548.8000488281</ele>
        <time>2020-08-22T11:57:07.000Z</time>
      </trkpt>
      <trkpt lat="44.11386" lon="6.9888">
        <ele>1547.4000244141</ele>
        <time>2020-08-22T11:57:11.000Z</time>
      </trkpt>
      <trkpt lat="44.11382" lon="6.98875">
        <ele>1547</ele>
        <time>2020-08-22T11:57:12.000Z</time>
      </trkpt>
      <trkpt lat="44.11378" lon="6.98872">
        <ele>1547</ele>
        <time>2020-08-22T11:57:13.000Z</time>
      </trkpt>
      <trkpt lat="44.11355" lon="6.9885">
        <ele>1545.5999755859</ele>
        <time>2020-08-22T11:57:18.000Z</time>
      </trkpt>
      <trkpt lat="44.11353" lon="6.98841">
        <ele>1544.4000244141</ele>
        <time>2020-08-22T11:57:20.000Z</time>
      </trkpt>
      <trkpt lat="44.11351" lon="6.98837">
        <ele>1544</ele>
        <time>2020-08-22T11:57:21.000Z</time>
      </trkpt>
      <trkpt lat="44.11339" lon="6.98827">
        <ele>1543.5999755859</ele>
        <time>2020-08-22T11:57:25.000Z</time>
      </trkpt>
      <trkpt lat="44.11331" lon="6.9882">
        <ele>1543</ele>
        <time>2020-08-22T11:57:27.000Z</time>
      </trkpt>
      <trkpt lat="44.11316" lon="6.98807">
        <ele>1541.8000488281</ele>
        <time>2020-08-22T11:57:31.000Z</time>
      </trkpt>
      <trkpt lat="44.11303" lon="6.98797">
        <ele>1540.5999755859</ele>
        <time>2020-08-22T11:57:34.000Z</time>
      </trkpt>
      <trkpt lat="44.11299" lon="6.98795">
        <ele>1540.5999755859</ele>
        <time>2020-08-22T11:57:35.000Z</time>
      </trkpt>
      <trkpt lat="44.11288" lon="6.98789">
        <ele>1540.5999755859</ele>
        <time>2020-08-22T11:57:37.000Z</time>
      </trkpt>
      <trkpt lat="44.11271" lon="6.98779">
        <ele>1539.1999511719</ele>
        <time>2020-08-22T11:57:41.000Z</time>
      </trkpt>
      <trkpt lat="44.11259" lon="6.98771">
        <ele>1539.1999511719</ele>
        <time>2020-08-22T11:57:44.000Z</time>
      </trkpt>
      <trkpt lat="44.1125" lon="6.98764">
        <ele>1539.5999755859</ele>
        <time>2020-08-22T11:57:48.000Z</time>
      </trkpt>
      <trkpt lat="44.11235" lon="6.98762">
        <ele>1540.1999511719</ele>
        <time>2020-08-22T11:57:52.000Z</time>
      </trkpt>
      <trkpt lat="44.11229" lon="6.98763">
        <ele>1539.8000488281</ele>
        <time>2020-08-22T11:57:53.000Z</time>
      </trkpt>
      <trkpt lat="44.11218" lon="6.9877">
        <ele>1539</ele>
        <time>2020-08-22T11:57:55.000Z</time>
      </trkpt>
      <trkpt lat="44.11212" lon="6.98775">
        <ele>1538.5999755859</ele>
        <time>2020-08-22T11:57:56.000Z</time>
      </trkpt>
      <trkpt lat="44.11199" lon="6.98788">
        <ele>1537.1999511719</ele>
        <time>2020-08-22T11:57:58.000Z</time>
      </trkpt>
      <trkpt lat="44.11188" lon="6.988">
        <ele>1535.1999511719</ele>
        <time>2020-08-22T11:58:00.000Z</time>
      </trkpt>
      <trkpt lat="44.11182" lon="6.98806">
        <ele>1533.8000488281</ele>
        <time>2020-08-22T11:58:01.000Z</time>
      </trkpt>
      <trkpt lat="44.1117" lon="6.98818">
        <ele>1531.8000488281</ele>
        <time>2020-08-22T11:58:03.000Z</time>
      </trkpt>
      <trkpt lat="44.11161" lon="6.98829">
        <ele>1530.1999511719</ele>
        <time>2020-08-22T11:58:05.000Z</time>
      </trkpt>
      <trkpt lat="44.11157" lon="6.98834">
        <ele>1529</ele>
        <time>2020-08-22T11:58:06.000Z</time>
      </trkpt>
      <trkpt lat="44.11146" lon="6.98843">
        <ele>1526.4000244141</ele>
        <time>2020-08-22T11:58:08.000Z</time>
      </trkpt>
      <trkpt lat="44.11141" lon="6.98844">
        <ele>1527.4000244141</ele>
        <time>2020-08-22T11:58:09.000Z</time>
      </trkpt>
      <trkpt lat="44.11134" lon="6.98849">
        <ele>1524.8000488281</ele>
        <time>2020-08-22T11:58:11.000Z</time>
      </trkpt>
      <trkpt lat="44.11131" lon="6.98854">
        <ele>1523.5999755859</ele>
        <time>2020-08-22T11:58:12.000Z</time>
      </trkpt>
      <trkpt lat="44.11126" lon="6.98859">
        <ele>1522.4000244141</ele>
        <time>2020-08-22T11:58:13.000Z</time>
      </trkpt>
      <trkpt lat="44.11121" lon="6.98863">
        <ele>1521.1999511719</ele>
        <time>2020-08-22T11:58:14.000Z</time>
      </trkpt>
      <trkpt lat="44.11115" lon="6.98867">
        <ele>1519.8000488281</ele>
        <time>2020-08-22T11:58:15.000Z</time>
      </trkpt>
      <trkpt lat="44.11108" lon="6.98868">
        <ele>1518.5999755859</ele>
        <time>2020-08-22T11:58:16.000Z</time>
      </trkpt>
      <trkpt lat="44.11101" lon="6.98869">
        <ele>1517</ele>
        <time>2020-08-22T11:58:17.000Z</time>
      </trkpt>
      <trkpt lat="44.11086" lon="6.98874">
        <ele>1515.8000488281</ele>
        <time>2020-08-22T11:58:19.000Z</time>
      </trkpt>
      <trkpt lat="44.1108" lon="6.98875">
        <ele>1515.1999511719</ele>
        <time>2020-08-22T11:58:20.000Z</time>
      </trkpt>
      <trkpt lat="44.11072" lon="6.98875">
        <ele>1514.4000244141</ele>
        <time>2020-08-22T11:58:21.000Z</time>
      </trkpt>
      <trkpt lat="44.1105" lon="6.98864">
        <ele>1512.8000488281</ele>
        <time>2020-08-22T11:58:24.000Z</time>
      </trkpt>
      <trkpt lat="44.11044" lon="6.98859">
        <ele>1512.5999755859</ele>
        <time>2020-08-22T11:58:25.000Z</time>
      </trkpt>
      <trkpt lat="44.11037" lon="6.98853">
        <ele>1511.4000244141</ele>
        <time>2020-08-22T11:58:26.000Z</time>
      </trkpt>
      <trkpt lat="44.11023" lon="6.98843">
        <ele>1510</ele>
        <time>2020-08-22T11:58:28.000Z</time>
      </trkpt>
      <trkpt lat="44.11016" lon="6.9884">
        <ele>1509.4000244141</ele>
        <time>2020-08-22T11:58:29.000Z</time>
      </trkpt>
      <trkpt lat="44.11008" lon="6.98838">
        <ele>1508.8000488281</ele>
        <time>2020-08-22T11:58:30.000Z</time>
      </trkpt>
      <trkpt lat="44.10984" lon="6.98834">
        <ele>1507.4000244141</ele>
        <time>2020-08-22T11:58:33.000Z</time>
      </trkpt>
      <trkpt lat="44.10967" lon="6.98833">
        <ele>1506</ele>
        <time>2020-08-22T11:58:35.000Z</time>
      </trkpt>
      <trkpt lat="44.10959" lon="6.98834">
        <ele>1505.4000244141</ele>
        <time>2020-08-22T11:58:36.000Z</time>
      </trkpt>
      <trkpt lat="44.1095" lon="6.98834">
        <ele>1505</ele>
        <time>2020-08-22T11:58:37.000Z</time>
      </trkpt>
      <trkpt lat="44.10933" lon="6.98831">
        <ele>1503.8000488281</ele>
        <time>2020-08-22T11:58:39.000Z</time>
      </trkpt>
      <trkpt lat="44.10925" lon="6.98829">
        <ele>1503.4000244141</ele>
        <time>2020-08-22T11:58:40.000Z</time>
      </trkpt>
      <trkpt lat="44.10917" lon="6.98825">
        <ele>1502.8000488281</ele>
        <time>2020-08-22T11:58:41.000Z</time>
      </trkpt>
      <trkpt lat="44.10902" lon="6.98813">
        <ele>1501.1999511719</ele>
        <time>2020-08-22T11:58:43.000Z</time>
      </trkpt>
      <trkpt lat="44.10894" lon="6.98809">
        <ele>1500</ele>
        <time>2020-08-22T11:58:44.000Z</time>
      </trkpt>
      <trkpt lat="44.10886" lon="6.98805">
        <ele>1499</ele>
        <time>2020-08-22T11:58:45.000Z</time>
      </trkpt>
      <trkpt lat="44.10869" lon="6.98801">
        <ele>1497.1999511719</ele>
        <time>2020-08-22T11:58:47.000Z</time>
      </trkpt>
      <trkpt lat="44.10852" lon="6.98795">
        <ele>1495.1999511719</ele>
        <time>2020-08-22T11:58:49.000Z</time>
      </trkpt>
      <trkpt lat="44.10845" lon="6.98791">
        <ele>1494.1999511719</ele>
        <time>2020-08-22T11:58:50.000Z</time>
      </trkpt>
      <trkpt lat="44.10836" lon="6.98786">
        <ele>1493</ele>
        <time>2020-08-22T11:58:51.000Z</time>
      </trkpt>
      <trkpt lat="44.1082" lon="6.98776">
        <ele>1492</ele>
        <time>2020-08-22T11:58:53.000Z</time>
      </trkpt>
      <trkpt lat="44.10805" lon="6.98767">
        <ele>1490.1999511719</ele>
        <time>2020-08-22T11:58:55.000Z</time>
      </trkpt>
      <trkpt lat="44.10798" lon="6.98763">
        <ele>1489</ele>
        <time>2020-08-22T11:58:56.000Z</time>
      </trkpt>
      <trkpt lat="44.10783" lon="6.98756">
        <ele>1487.8000488281</ele>
        <time>2020-08-22T11:58:58.000Z</time>
      </trkpt>
      <trkpt lat="44.10776" lon="6.98753">
        <ele>1486.5999755859</ele>
        <time>2020-08-22T11:58:59.000Z</time>
      </trkpt>
      <trkpt lat="44.1076" lon="6.9875">
        <ele>1485.5999755859</ele>
        <time>2020-08-22T11:59:01.000Z</time>
      </trkpt>
      <trkpt lat="44.10753" lon="6.98749">
        <ele>1484.4000244141</ele>
        <time>2020-08-22T11:59:02.000Z</time>
      </trkpt>
      <trkpt lat="44.10745" lon="6.98748">
        <ele>1483.5999755859</ele>
        <time>2020-08-22T11:59:03.000Z</time>
      </trkpt>
      <trkpt lat="44.10738" lon="6.98746">
        <ele>1482.5999755859</ele>
        <time>2020-08-22T11:59:04.000Z</time>
      </trkpt>
      <trkpt lat="44.10722" lon="6.98742">
        <ele>1481.4000244141</ele>
        <time>2020-08-22T11:59:06.000Z</time>
      </trkpt>
      <trkpt lat="44.10706" lon="6.98739">
        <ele>1480.4000244141</ele>
        <time>2020-08-22T11:59:08.000Z</time>
      </trkpt>
      <trkpt lat="44.10683" lon="6.9873">
        <ele>1479.1999511719</ele>
        <time>2020-08-22T11:59:11.000Z</time>
      </trkpt>
      <trkpt lat="44.1066" lon="6.98729">
        <ele>1478</ele>
        <time>2020-08-22T11:59:14.000Z</time>
      </trkpt>
      <trkpt lat="44.10653" lon="6.98729">
        <ele>1477.8000488281</ele>
        <time>2020-08-22T11:59:15.000Z</time>
      </trkpt>
      <trkpt lat="44.10627" lon="6.98729">
        <ele>1477</ele>
        <time>2020-08-22T11:59:18.000Z</time>
      </trkpt>
      <trkpt lat="44.10611" lon="6.98727">
        <ele>1475.5999755859</ele>
        <time>2020-08-22T11:59:20.000Z</time>
      </trkpt>
      <trkpt lat="44.10594" lon="6.98722">
        <ele>1473.8000488281</ele>
        <time>2020-08-22T11:59:22.000Z</time>
      </trkpt>
      <trkpt lat="44.10569" lon="6.98717">
        <ele>1472.8000488281</ele>
        <time>2020-08-22T11:59:25.000Z</time>
      </trkpt>
      <trkpt lat="44.1056" lon="6.98715">
        <ele>1472.5999755859</ele>
        <time>2020-08-22T11:59:26.000Z</time>
      </trkpt>
      <trkpt lat="44.10543" lon="6.98712">
        <ele>1471.1999511719</ele>
        <time>2020-08-22T11:59:28.000Z</time>
      </trkpt>
      <trkpt lat="44.10526" lon="6.98707">
        <ele>1470.1999511719</ele>
        <time>2020-08-22T11:59:30.000Z</time>
      </trkpt>
      <trkpt lat="44.10509" lon="6.98699">
        <ele>1469</ele>
        <time>2020-08-22T11:59:32.000Z</time>
      </trkpt>
      <trkpt lat="44.10495" lon="6.98689">
        <ele>1468</ele>
        <time>2020-08-22T11:59:34.000Z</time>
      </trkpt>
      <trkpt lat="44.10481" lon="6.98677">
        <ele>1468</ele>
        <time>2020-08-22T11:59:36.000Z</time>
      </trkpt>
      <trkpt lat="44.10465" lon="6.98668">
        <ele>1467.4000244141</ele>
        <time>2020-08-22T11:59:38.000Z</time>
      </trkpt>
      <trkpt lat="44.10456" lon="6.98664">
        <ele>1466</ele>
        <time>2020-08-22T11:59:39.000Z</time>
      </trkpt>
      <trkpt lat="44.10438" lon="6.98658">
        <ele>1464.8000488281</ele>
        <time>2020-08-22T11:59:41.000Z</time>
      </trkpt>
      <trkpt lat="44.10418" lon="6.98652">
        <ele>1463.5999755859</ele>
        <time>2020-08-22T11:59:43.000Z</time>
      </trkpt>
      <trkpt lat="44.10399" lon="6.98648">
        <ele>1461.5999755859</ele>
        <time>2020-08-22T11:59:45.000Z</time>
      </trkpt>
      <trkpt lat="44.10388" lon="6.98647">
        <ele>1460.5999755859</ele>
        <time>2020-08-22T11:59:46.000Z</time>
      </trkpt>
      <trkpt lat="44.10365" lon="6.98645">
        <ele>1459</ele>
        <time>2020-08-22T11:59:48.000Z</time>
      </trkpt>
      <trkpt lat="44.10344" lon="6.98644">
        <ele>1457.4000244141</ele>
        <time>2020-08-22T11:59:50.000Z</time>
      </trkpt>
      <trkpt lat="44.10333" lon="6.98644">
        <ele>1456.4000244141</ele>
        <time>2020-08-22T11:59:51.000Z</time>
      </trkpt>
      <trkpt lat="44.103" lon="6.98645">
        <ele>1455.1999511719</ele>
        <time>2020-08-22T11:59:54.000Z</time>
      </trkpt>
      <trkpt lat="44.10277" lon="6.98646">
        <ele>1454.1999511719</ele>
        <time>2020-08-22T11:59:56.000Z</time>
      </trkpt>
      <trkpt lat="44.10255" lon="6.98649">
        <ele>1453.1999511719</ele>
        <time>2020-08-22T11:59:58.000Z</time>
      </trkpt>
      <trkpt lat="44.10233" lon="6.98654">
        <ele>1451.5999755859</ele>
        <time>2020-08-22T12:00:00.000Z</time>
      </trkpt>
      <trkpt lat="44.10222" lon="6.98658">
        <ele>1450.5999755859</ele>
        <time>2020-08-22T12:00:01.000Z</time>
      </trkpt>
      <trkpt lat="44.10211" lon="6.98661">
        <ele>1449.4000244141</ele>
        <time>2020-08-22T12:00:02.000Z</time>
      </trkpt>
      <trkpt lat="44.102" lon="6.98664">
        <ele>1448.1999511719</ele>
        <time>2020-08-22T12:00:03.000Z</time>
      </trkpt>
      <trkpt lat="44.1018" lon="6.98669">
        <ele>1447</ele>
        <time>2020-08-22T12:00:05.000Z</time>
      </trkpt>
      <trkpt lat="44.10158" lon="6.98676">
        <ele>1445.5999755859</ele>
        <time>2020-08-22T12:00:07.000Z</time>
      </trkpt>
      <trkpt lat="44.10148" lon="6.9868">
        <ele>1445.1999511719</ele>
        <time>2020-08-22T12:00:08.000Z</time>
      </trkpt>
      <trkpt lat="44.10138" lon="6.98684">
        <ele>1444.5999755859</ele>
        <time>2020-08-22T12:00:09.000Z</time>
      </trkpt>
      <trkpt lat="44.10099" lon="6.98705">
        <ele>1443.4000244141</ele>
        <time>2020-08-22T12:00:13.000Z</time>
      </trkpt>
      <trkpt lat="44.10083" lon="6.98714">
        <ele>1442</ele>
        <time>2020-08-22T12:00:15.000Z</time>
      </trkpt>
      <trkpt lat="44.10066" lon="6.98722">
        <ele>1440.5999755859</ele>
        <time>2020-08-22T12:00:17.000Z</time>
      </trkpt>
      <trkpt lat="44.10058" lon="6.98725">
        <ele>1440.4000244141</ele>
        <time>2020-08-22T12:00:18.000Z</time>
      </trkpt>
      <trkpt lat="44.10051" lon="6.98728">
        <ele>1439.8000488281</ele>
        <time>2020-08-22T12:00:19.000Z</time>
      </trkpt>
      <trkpt lat="44.10038" lon="6.98731">
        <ele>1439.5999755859</ele>
        <time>2020-08-22T12:00:21.000Z</time>
      </trkpt>
      <trkpt lat="44.10033" lon="6.98732">
        <ele>1439.4000244141</ele>
        <time>2020-08-22T12:00:22.000Z</time>
      </trkpt>
      <trkpt lat="44.10018" lon="6.98733">
        <ele>1440.1999511719</ele>
        <time>2020-08-22T12:00:26.000Z</time>
      </trkpt>
      <trkpt lat="44.10006" lon="6.98731">
        <ele>1440.1999511719</ele>
        <time>2020-08-22T12:00:31.000Z</time>
      </trkpt>
      <trkpt lat="44.1" lon="6.9873">
        <ele>1440.8000488281</ele>
        <time>2020-08-22T12:00:33.000Z</time>
      </trkpt>
      <trkpt lat="44.0998" lon="6.98725">
        <ele>1441.5999755859</ele>
        <time>2020-08-22T12:00:39.000Z</time>
      </trkpt>
      <trkpt lat="44.09974" lon="6.98723">
        <ele>1441.8000488281</ele>
        <time>2020-08-22T12:00:41.000Z</time>
      </trkpt>
      <trkpt lat="44.09956" lon="6.98719">
        <ele>1443.1999511719</ele>
        <time>2020-08-22T12:00:46.000Z</time>
      </trkpt>
      <trkpt lat="44.09948" lon="6.98718">
        <ele>1443.4000244141</ele>
        <time>2020-08-22T12:00:48.000Z</time>
      </trkpt>
      <trkpt lat="44.0993" lon="6.98715">
        <ele>1444.1999511719</ele>
        <time>2020-08-22T12:00:53.000Z</time>
      </trkpt>
      <trkpt lat="44.09916" lon="6.98714">
        <ele>1445.1999511719</ele>
        <time>2020-08-22T12:00:57.000Z</time>
      </trkpt>
      <trkpt lat="44.09886" lon="6.98714">
        <ele>1446.1999511719</ele>
        <time>2020-08-22T12:01:06.000Z</time>
      </trkpt>
      <trkpt lat="44.09867" lon="6.98715">
        <ele>1447.4000244141</ele>
        <time>2020-08-22T12:01:12.000Z</time>
      </trkpt>
      <trkpt lat="44.09858" lon="6.98715">
        <ele>1448</ele>
        <time>2020-08-22T12:01:15.000Z</time>
      </trkpt>
      <trkpt lat="44.09846" lon="6.98716">
        <ele>1448.4000244141</ele>
        <time>2020-08-22T12:01:19.000Z</time>
      </trkpt>
      <trkpt lat="44.0984" lon="6.98716">
        <ele>1448.5999755859</ele>
        <time>2020-08-22T12:01:21.000Z</time>
      </trkpt>
      <trkpt lat="44.09826" lon="6.98714">
        <ele>1449.5999755859</ele>
        <time>2020-08-22T12:01:26.000Z</time>
      </trkpt>
      <trkpt lat="44.09811" lon="6.98713">
        <ele>1450</ele>
        <time>2020-08-22T12:01:31.000Z</time>
      </trkpt>
      <trkpt lat="44.09796" lon="6.9871">
        <ele>1450.5999755859</ele>
        <time>2020-08-22T12:01:36.000Z</time>
      </trkpt>
      <trkpt lat="44.0978" lon="6.98704">
        <ele>1451.5999755859</ele>
        <time>2020-08-22T12:01:42.000Z</time>
      </trkpt>
      <trkpt lat="44.09777" lon="6.98704">
        <ele>1451.8000488281</ele>
        <time>2020-08-22T12:01:43.000Z</time>
      </trkpt>
      <trkpt lat="44.09762" lon="6.98698">
        <ele>1452.8000488281</ele>
        <time>2020-08-22T12:01:49.000Z</time>
      </trkpt>
      <trkpt lat="44.09755" lon="6.98696">
        <ele>1453.4000244141</ele>
        <time>2020-08-22T12:01:52.000Z</time>
      </trkpt>
      <trkpt lat="44.09742" lon="6.98692">
        <ele>1454</ele>
        <time>2020-08-22T12:01:57.000Z</time>
      </trkpt>
      <trkpt lat="44.09735" lon="6.98691">
        <ele>1454.4000244141</ele>
        <time>2020-08-22T12:02:00.000Z</time>
      </trkpt>
      <trkpt lat="44.09728" lon="6.9869">
        <ele>1455</ele>
        <time>2020-08-22T12:02:03.000Z</time>
      </trkpt>
      <trkpt lat="44.09716" lon="6.98688">
        <ele>1456</ele>
        <time>2020-08-22T12:02:08.000Z</time>
      </trkpt>
      <trkpt lat="44.097" lon="6.98683">
        <ele>1456.5999755859</ele>
        <time>2020-08-22T12:02:16.000Z</time>
      </trkpt>
      <trkpt lat="44.09693" lon="6.98679">
        <ele>1457.1999511719</ele>
        <time>2020-08-22T12:02:20.000Z</time>
      </trkpt>
      <trkpt lat="44.09685" lon="6.98674">
        <ele>1458.4000244141</ele>
        <time>2020-08-22T12:02:24.000Z</time>
      </trkpt>
      <trkpt lat="44.09674" lon="6.98667">
        <ele>1459.1999511719</ele>
        <time>2020-08-22T12:02:30.000Z</time>
      </trkpt>
      <trkpt lat="44.0967" lon="6.98665">
        <ele>1459.4000244141</ele>
        <time>2020-08-22T12:02:32.000Z</time>
      </trkpt>
      <trkpt lat="44.09658" lon="6.98657">
        <ele>1460.4000244141</ele>
        <time>2020-08-22T12:02:38.000Z</time>
      </trkpt>
      <trkpt lat="44.09656" lon="6.98656">
        <ele>1460.5999755859</ele>
        <time>2020-08-22T12:02:39.000Z</time>
      </trkpt>
      <trkpt lat="44.09648" lon="6.9865">
        <ele>1461.4000244141</ele>
        <time>2020-08-22T12:02:43.000Z</time>
      </trkpt>
      <trkpt lat="44.0964" lon="6.98647">
        <ele>1461.8000488281</ele>
        <time>2020-08-22T12:02:47.000Z</time>
      </trkpt>
      <trkpt lat="44.09631" lon="6.98644">
        <ele>1462.5999755859</ele>
        <time>2020-08-22T12:02:52.000Z</time>
      </trkpt>
      <trkpt lat="44.09625" lon="6.98641">
        <ele>1463</ele>
        <time>2020-08-22T12:02:55.000Z</time>
      </trkpt>
      <trkpt lat="44.09621" lon="6.9864">
        <ele>1463.5999755859</ele>
        <time>2020-08-22T12:02:57.000Z</time>
      </trkpt>
      <trkpt lat="44.09618" lon="6.98639">
        <ele>1464.1999511719</ele>
        <time>2020-08-22T12:03:01.000Z</time>
      </trkpt>
      <trkpt lat="44.09618" lon="6.98639">
        <ele>1464.4000244141</ele>
        <time>2020-08-22T12:03:06.000Z</time>
      </trkpt>
      <trkpt lat="44.09617" lon="6.98639">
        <ele>1464.1999511719</ele>
        <time>2020-08-22T12:03:15.000Z</time>
      </trkpt>
      <trkpt lat="44.09617" lon="6.98639">
        <ele>1464</ele>
        <time>2020-08-22T12:03:16.000Z</time>
      </trkpt>
      <trkpt lat="44.09613" lon="6.98636">
        <ele>1464.1999511719</ele>
        <time>2020-08-22T12:03:19.000Z</time>
      </trkpt>
      <trkpt lat="44.09607" lon="6.98634">
        <ele>1464.1999511719</ele>
        <time>2020-08-22T12:03:22.000Z</time>
      </trkpt>
      <trkpt lat="44.09597" lon="6.98633">
        <ele>1464.1999511719</ele>
        <time>2020-08-22T12:03:26.000Z</time>
      </trkpt>
      <trkpt lat="44.0958" lon="6.98626">
        <ele>1464.1999511719</ele>
        <time>2020-08-22T12:03:33.000Z</time>
      </trkpt>
      <trkpt lat="44.09575" lon="6.98626">
        <ele>1464.1999511719</ele>
        <time>2020-08-22T12:03:35.000Z</time>
      </trkpt>
      <trkpt lat="44.09569" lon="6.98631">
        <ele>1463.8000488281</ele>
        <time>2020-08-22T12:03:37.000Z</time>
      </trkpt>
      <trkpt lat="44.09554" lon="6.98643">
        <ele>1462.8000488281</ele>
        <time>2020-08-22T12:03:43.000Z</time>
      </trkpt>
      <trkpt lat="44.09544" lon="6.98651">
        <ele>1462.4000244141</ele>
        <time>2020-08-22T12:03:47.000Z</time>
      </trkpt>
      <trkpt lat="44.09536" lon="6.98657">
        <ele>1462</ele>
        <time>2020-08-22T12:03:50.000Z</time>
      </trkpt>
      <trkpt lat="44.09513" lon="6.98678">
        <ele>1462</ele>
        <time>2020-08-22T12:03:57.000Z</time>
      </trkpt>
      <trkpt lat="44.095" lon="6.98704">
        <ele>1462.1999511719</ele>
        <time>2020-08-22T12:04:02.000Z</time>
      </trkpt>
      <trkpt lat="44.09498" lon="6.98718">
        <ele>1462.4000244141</ele>
        <time>2020-08-22T12:04:04.000Z</time>
      </trkpt>
      <trkpt lat="44.09495" lon="6.98743">
        <ele>1462.1999511719</ele>
        <time>2020-08-22T12:04:07.000Z</time>
      </trkpt>
      <trkpt lat="44.0949" lon="6.98766">
        <ele>1461.1999511719</ele>
        <time>2020-08-22T12:04:10.000Z</time>
      </trkpt>
      <trkpt lat="44.09483" lon="6.98791">
        <ele>1460.8000488281</ele>
        <time>2020-08-22T12:04:13.000Z</time>
      </trkpt>
      <trkpt lat="44.09468" lon="6.98821">
        <ele>1461</ele>
        <time>2020-08-22T12:04:18.000Z</time>
      </trkpt>
      <trkpt lat="44.09465" lon="6.98826">
        <ele>1461.1999511719</ele>
        <time>2020-08-22T12:04:19.000Z</time>
      </trkpt>
      <trkpt lat="44.09451" lon="6.98842">
        <ele>1461.8000488281</ele>
        <time>2020-08-22T12:04:23.000Z</time>
      </trkpt>
      <trkpt lat="44.09437" lon="6.98866">
        <ele>1462</ele>
        <time>2020-08-22T12:04:29.000Z</time>
      </trkpt>
      <trkpt lat="44.09429" lon="6.98881">
        <ele>1462.1999511719</ele>
        <time>2020-08-22T12:04:33.000Z</time>
      </trkpt>
      <trkpt lat="44.09424" lon="6.98894">
        <ele>1462.4000244141</ele>
        <time>2020-08-22T12:04:36.000Z</time>
      </trkpt>
      <trkpt lat="44.09424" lon="6.98917">
        <ele>1462.4000244141</ele>
        <time>2020-08-22T12:04:41.000Z</time>
      </trkpt>
      <trkpt lat="44.0942" lon="6.98935">
        <ele>1462.5999755859</ele>
        <time>2020-08-22T12:04:46.000Z</time>
      </trkpt>
      <trkpt lat="44.09417" lon="6.98943">
        <ele>1462.5999755859</ele>
        <time>2020-08-22T12:04:51.000Z</time>
      </trkpt>
      <trkpt lat="44.09417" lon="6.98944">
        <ele>1462</ele>
        <time>2020-08-22T12:04:58.000Z</time>
      </trkpt>
      <trkpt lat="44.09418" lon="6.98945">
        <ele>1461.8000488281</ele>
        <time>2020-08-22T12:05:05.000Z</time>
      </trkpt>
      <trkpt lat="44.09418" lon="6.98945">
        <ele>1461.1999511719</ele>
        <time>2020-08-22T12:05:11.000Z</time>
      </trkpt>
      <trkpt lat="44.0942" lon="6.98943">
        <ele>1461.4000244141</ele>
        <time>2020-08-22T12:05:19.000Z</time>
      </trkpt>
      <trkpt lat="44.0942" lon="6.98943">
        <ele>1462</ele>
        <time>2020-08-22T12:05:27.000Z</time>
      </trkpt>
      <trkpt lat="44.0942" lon="6.98943">
        <ele>1461.5999755859</ele>
        <time>2020-08-22T12:05:36.000Z</time>
      </trkpt>
      <trkpt lat="44.0942" lon="6.98944">
        <ele>1462.4000244141</ele>
        <time>2020-08-22T12:05:41.000Z</time>
      </trkpt>
      <trkpt lat="44.09421" lon="6.98944">
        <ele>1462.5999755859</ele>
        <time>2020-08-22T12:05:43.000Z</time>
      </trkpt>
      <trkpt lat="44.0942" lon="6.98946">
        <ele>1462.5999755859</ele>
        <time>2020-08-22T12:05:53.000Z</time>
      </trkpt>
      <trkpt lat="44.09419" lon="6.98946">
        <ele>1462.4000244141</ele>
        <time>2020-08-22T12:05:59.000Z</time>
      </trkpt>
      <trkpt lat="44.09419" lon="6.98948">
        <ele>1462.1999511719</ele>
        <time>2020-08-22T12:06:05.000Z</time>
      </trkpt>
      <trkpt lat="44.09418" lon="6.98949">
        <ele>1462</ele>
        <time>2020-08-22T12:06:11.000Z</time>
      </trkpt>
      <trkpt lat="44.09418" lon="6.9895">
        <ele>1462</ele>
        <time>2020-08-22T12:06:12.000Z</time>
      </trkpt>
      <trkpt lat="44.09417" lon="6.98953">
        <ele>1462</ele>
        <time>2020-08-22T12:06:16.000Z</time>
      </trkpt>
      <trkpt lat="44.09417" lon="6.98956">
        <ele>1462.1999511719</ele>
        <time>2020-08-22T12:06:23.000Z</time>
      </trkpt>
      <trkpt lat="44.09416" lon="6.98957">
        <ele>1462</ele>
        <time>2020-08-22T12:06:28.000Z</time>
      </trkpt>
      <trkpt lat="44.09415" lon="6.98958">
        <ele>1461.4000244141</ele>
        <time>2020-08-22T12:06:33.000Z</time>
      </trkpt>
      <trkpt lat="44.09413" lon="6.98958">
        <ele>1461</ele>
        <time>2020-08-22T12:06:41.000Z</time>
      </trkpt>
      <trkpt lat="44.09412" lon="6.98952">
        <ele>1460.4000244141</ele>
        <time>2020-08-22T12:06:48.000Z</time>
      </trkpt>
      <trkpt lat="44.09412" lon="6.98945">
        <ele>1460.8000488281</ele>
        <time>2020-08-22T12:07:01.000Z</time>
      </trkpt>
      <trkpt lat="44.09411" lon="6.98946">
        <ele>1460.8000488281</ele>
        <time>2020-08-22T12:07:10.000Z</time>
      </trkpt>
      <trkpt lat="44.09411" lon="6.98945">
        <ele>1460.5999755859</ele>
        <time>2020-08-22T12:07:14.000Z</time>
      </trkpt>
      <trkpt lat="44.09411" lon="6.98945">
        <ele>1460.5999755859</ele>
        <time>2020-08-22T12:07:15.000Z</time>
      </trkpt>
      <trkpt lat="44.09411" lon="6.98946">
        <ele>1460.8000488281</ele>
        <time>2020-08-22T12:07:21.000Z</time>
      </trkpt>
      <trkpt lat="44.0941" lon="6.98947">
        <ele>1460.5999755859</ele>
        <time>2020-08-22T12:07:30.000Z</time>
      </trkpt>
      <trkpt lat="44.0941" lon="6.98948">
        <ele>1460.4000244141</ele>
        <time>2020-08-22T12:07:42.000Z</time>
      </trkpt>
      <trkpt lat="44.0941" lon="6.98948">
        <ele>1460.1999511719</ele>
        <time>2020-08-22T12:07:44.000Z</time>
      </trkpt>
      <trkpt lat="44.09411" lon="6.98949">
        <ele>1460.1999511719</ele>
        <time>2020-08-22T12:07:57.000Z</time>
      </trkpt>
      <trkpt lat="44.09412" lon="6.98952">
        <ele>1460</ele>
        <time>2020-08-22T12:08:09.000Z</time>
      </trkpt>
      <trkpt lat="44.09412" lon="6.98952">
        <ele>1460</ele>
        <time>2020-08-22T12:08:20.000Z</time>
      </trkpt>
      <trkpt lat="44.09411" lon="6.98951">
        <ele>1460</ele>
        <time>2020-08-22T12:08:36.000Z</time>
      </trkpt>
      <trkpt lat="44.09411" lon="6.98951">
        <ele>1460.5999755859</ele>
        <time>2020-08-22T12:08:49.000Z</time>
      </trkpt>
      <trkpt lat="44.09411" lon="6.98955">
        <ele>1461</ele>
        <time>2020-08-22T12:08:59.000Z</time>
      </trkpt>
      <trkpt lat="44.09411" lon="6.98953">
        <ele>1460.5999755859</ele>
        <time>2020-08-22T12:09:10.000Z</time>
      </trkpt>
      <trkpt lat="44.0941" lon="6.9895">
        <ele>1460.4000244141</ele>
        <time>2020-08-22T12:09:18.000Z</time>
      </trkpt>
      <trkpt lat="44.0941" lon="6.9895">
        <ele>1460.4000244141</ele>
        <time>2020-08-22T12:09:31.000Z</time>
      </trkpt>
      <trkpt lat="44.09412" lon="6.98952">
        <ele>1460.4000244141</ele>
        <time>2020-08-22T12:09:44.000Z</time>
      </trkpt>
      <trkpt lat="44.09413" lon="6.98955">
        <ele>1460.4000244141</ele>
        <time>2020-08-22T12:09:57.000Z</time>
      </trkpt>
      <trkpt lat="44.09413" lon="6.98955">
        <ele>1460.5999755859</ele>
        <time>2020-08-22T12:10:03.000Z</time>
      </trkpt>
      <trkpt lat="44.09415" lon="6.98956">
        <ele>1460.4000244141</ele>
        <time>2020-08-22T12:10:13.000Z</time>
      </trkpt>
      <trkpt lat="44.09415" lon="6.98956">
        <ele>1460</ele>
        <time>2020-08-22T12:10:23.000Z</time>
      </trkpt>
      <trkpt lat="44.09416" lon="6.98959">
        <ele>1460</ele>
        <time>2020-08-22T12:10:32.000Z</time>
      </trkpt>
      <trkpt lat="44.09415" lon="6.98958">
        <ele>1459.8000488281</ele>
        <time>2020-08-22T12:10:39.000Z</time>
      </trkpt>
      <trkpt lat="44.09416" lon="6.98958">
        <ele>1459.5999755859</ele>
        <time>2020-08-22T12:10:50.000Z</time>
      </trkpt>
      <trkpt lat="44.09416" lon="6.98958">
        <ele>1460</ele>
        <time>2020-08-22T12:10:57.000Z</time>
      </trkpt>
      <trkpt lat="44.09416" lon="6.98954">
        <ele>1460.1999511719</ele>
        <time>2020-08-22T12:11:10.000Z</time>
      </trkpt>
      <trkpt lat="44.09414" lon="6.9895">
        <ele>1460</ele>
        <time>2020-08-22T12:11:22.000Z</time>
      </trkpt>
      <trkpt lat="44.09414" lon="6.98949">
        <ele>1460.1999511719</ele>
        <time>2020-08-22T12:11:30.000Z</time>
      </trkpt>
      <trkpt lat="44.09416" lon="6.9895">
        <ele>1460.1999511719</ele>
        <time>2020-08-22T12:11:45.000Z</time>
      </trkpt>
      <trkpt lat="44.09416" lon="6.98948">
        <ele>1460</ele>
        <time>2020-08-22T12:11:54.000Z</time>
      </trkpt>
      <trkpt lat="44.09416" lon="6.98947">
        <ele>1460.1999511719</ele>
        <time>2020-08-22T12:12:03.000Z</time>
      </trkpt>
      <trkpt lat="44.09414" lon="6.98944">
        <ele>1459.8000488281</ele>
        <time>2020-08-22T12:12:15.000Z</time>
      </trkpt>
      <trkpt lat="44.09414" lon="6.98945">
        <ele>1460</ele>
        <time>2020-08-22T12:12:27.000Z</time>
      </trkpt>
      <trkpt lat="44.09415" lon="6.98946">
        <ele>1459.1999511719</ele>
        <time>2020-08-22T12:12:34.000Z</time>
      </trkpt>
      <trkpt lat="44.09415" lon="6.98946">
        <ele>1459.4000244141</ele>
        <time>2020-08-22T12:12:37.000Z</time>
      </trkpt>
      <trkpt lat="44.09413" lon="6.98945">
        <ele>1460.1999511719</ele>
        <time>2020-08-22T12:12:48.000Z</time>
      </trkpt>
      <trkpt lat="44.09414" lon="6.98948">
        <ele>1459.5999755859</ele>
        <time>2020-08-22T12:12:59.000Z</time>
      </trkpt>
      <trkpt lat="44.09414" lon="6.98949">
        <ele>1459.4000244141</ele>
        <time>2020-08-22T12:13:09.000Z</time>
      </trkpt>
      <trkpt lat="44.09413" lon="6.9895">
        <ele>1459.4000244141</ele>
        <time>2020-08-22T12:13:18.000Z</time>
      </trkpt>
      <trkpt lat="44.09413" lon="6.9895">
        <ele>1459.1999511719</ele>
        <time>2020-08-22T12:13:29.000Z</time>
      </trkpt>
      <trkpt lat="44.09413" lon="6.98952">
        <ele>1458.8000488281</ele>
        <time>2020-08-22T12:13:39.000Z</time>
      </trkpt>
      <trkpt lat="44.09414" lon="6.98954">
        <ele>1459</ele>
        <time>2020-08-22T12:13:50.000Z</time>
      </trkpt>
      <trkpt lat="44.09417" lon="6.98954">
        <ele>1459</ele>
        <time>2020-08-22T12:14:02.000Z</time>
      </trkpt>
      <trkpt lat="44.09417" lon="6.98952">
        <ele>1459.4000244141</ele>
        <time>2020-08-22T12:14:12.000Z</time>
      </trkpt>
      <trkpt lat="44.09416" lon="6.98948">
        <ele>1459.5999755859</ele>
        <time>2020-08-22T12:14:27.000Z</time>
      </trkpt>
      <trkpt lat="44.09417" lon="6.98949">
        <ele>1460</ele>
        <time>2020-08-22T12:14:38.000Z</time>
      </trkpt>
      <trkpt lat="44.09418" lon="6.9895">
        <ele>1460</ele>
        <time>2020-08-22T12:14:48.000Z</time>
      </trkpt>
      <trkpt lat="44.09419" lon="6.98952">
        <ele>1460.1999511719</ele>
        <time>2020-08-22T12:14:56.000Z</time>
      </trkpt>
      <trkpt lat="44.09421" lon="6.98955">
        <ele>1459.8000488281</ele>
        <time>2020-08-22T12:15:09.000Z</time>
      </trkpt>
      <trkpt lat="44.0942" lon="6.98955">
        <ele>1460</ele>
        <time>2020-08-22T12:15:17.000Z</time>
      </trkpt>
      <trkpt lat="44.09418" lon="6.98951">
        <ele>1459.5999755859</ele>
        <time>2020-08-22T12:15:25.000Z</time>
      </trkpt>
      <trkpt lat="44.09419" lon="6.9895">
        <ele>1459.1999511719</ele>
        <time>2020-08-22T12:15:36.000Z</time>
      </trkpt>
      <trkpt lat="44.09419" lon="6.98951">
        <ele>1459.4000244141</ele>
        <time>2020-08-22T12:15:45.000Z</time>
      </trkpt>
      <trkpt lat="44.0942" lon="6.98952">
        <ele>1459.4000244141</ele>
        <time>2020-08-22T12:15:56.000Z</time>
      </trkpt>
      <trkpt lat="44.0942" lon="6.98952">
        <ele>1459.5999755859</ele>
        <time>2020-08-22T12:16:02.000Z</time>
      </trkpt>
      <trkpt lat="44.09417" lon="6.98952">
        <ele>1460</ele>
        <time>2020-08-22T12:16:11.000Z</time>
      </trkpt>
      <trkpt lat="44.09417" lon="6.98952">
        <ele>1460.1999511719</ele>
        <time>2020-08-22T12:16:13.000Z</time>
      </trkpt>
      <trkpt lat="44.09417" lon="6.98952">
        <ele>1460.1999511719</ele>
        <time>2020-08-22T12:16:17.000Z</time>
      </trkpt>
      <trkpt lat="44.0942" lon="6.98956">
        <ele>1460</ele>
        <time>2020-08-22T12:16:24.000Z</time>
      </trkpt>
      <trkpt lat="44.09419" lon="6.98958">
        <ele>1460</ele>
        <time>2020-08-22T12:16:31.000Z</time>
      </trkpt>
      <trkpt lat="44.09415" lon="6.98956">
        <ele>1460</ele>
        <time>2020-08-22T12:16:38.000Z</time>
      </trkpt>
      <trkpt lat="44.09417" lon="6.98956">
        <ele>1460</ele>
        <time>2020-08-22T12:16:44.000Z</time>
      </trkpt>
      <trkpt lat="44.09416" lon="6.98955">
        <ele>1459.8000488281</ele>
        <time>2020-08-22T12:16:50.000Z</time>
      </trkpt>
      <trkpt lat="44.09413" lon="6.98953">
        <ele>1459.8000488281</ele>
        <time>2020-08-22T12:16:57.000Z</time>
      </trkpt>
      <trkpt lat="44.09409" lon="6.9895">
        <ele>1459.5999755859</ele>
        <time>2020-08-22T12:17:05.000Z</time>
      </trkpt>
      <trkpt lat="44.09406" lon="6.9895">
        <ele>1459.4000244141</ele>
        <time>2020-08-22T12:17:12.000Z</time>
      </trkpt>
      <trkpt lat="44.09406" lon="6.98949">
        <ele>1459.4000244141</ele>
        <time>2020-08-22T12:17:24.000Z</time>
      </trkpt>
      <trkpt lat="44.09405" lon="6.98948">
        <ele>1459.4000244141</ele>
        <time>2020-08-22T12:17:30.000Z</time>
      </trkpt>
      <trkpt lat="44.09405" lon="6.98948">
        <ele>1459.4000244141</ele>
        <time>2020-08-22T12:17:36.000Z</time>
      </trkpt>
      <trkpt lat="44.09404" lon="6.98945">
        <ele>1459.5999755859</ele>
        <time>2020-08-22T12:17:38.000Z</time>
      </trkpt>
      <trkpt lat="44.09405" lon="6.98944">
        <ele>1459.5999755859</ele>
        <time>2020-08-22T12:17:40.000Z</time>
      </trkpt>
      <trkpt lat="44.09405" lon="6.98944">
        <ele>1459.5999755859</ele>
        <time>2020-08-22T12:17:41.000Z</time>
      </trkpt>
      <trkpt lat="44.0941" lon="6.98953">
        <ele>1460</ele>
        <time>2020-08-22T12:17:49.000Z</time>
      </trkpt>
      <trkpt lat="44.0941" lon="6.98955">
        <ele>1460</ele>
        <time>2020-08-22T12:17:54.000Z</time>
      </trkpt>
      <trkpt lat="44.09411" lon="6.98953">
        <ele>1460.1999511719</ele>
        <time>2020-08-22T12:17:59.000Z</time>
      </trkpt>
      <trkpt lat="44.09411" lon="6.98956">
        <ele>1460</ele>
        <time>2020-08-22T12:18:05.000Z</time>
      </trkpt>
      <trkpt lat="44.09411" lon="6.98955">
        <ele>1460</ele>
        <time>2020-08-22T12:18:11.000Z</time>
      </trkpt>
      <trkpt lat="44.0941" lon="6.98957">
        <ele>1460.1999511719</ele>
        <time>2020-08-22T12:18:17.000Z</time>
      </trkpt>
      <trkpt lat="44.09411" lon="6.98958">
        <ele>1460.1999511719</ele>
        <time>2020-08-22T12:18:22.000Z</time>
      </trkpt>
      <trkpt lat="44.09411" lon="6.98956">
        <ele>1460.1999511719</ele>
        <time>2020-08-22T12:18:33.000Z</time>
      </trkpt>
      <trkpt lat="44.09411" lon="6.98954">
        <ele>1460.1999511719</ele>
        <time>2020-08-22T12:18:45.000Z</time>
      </trkpt>
      <trkpt lat="44.09411" lon="6.98952">
        <ele>1460.1999511719</ele>
        <time>2020-08-22T12:18:57.000Z</time>
      </trkpt>
      <trkpt lat="44.09411" lon="6.9895">
        <ele>1460.5999755859</ele>
        <time>2020-08-22T12:19:11.000Z</time>
      </trkpt>
      <trkpt lat="44.09411" lon="6.9895">
        <ele>1460.8000488281</ele>
        <time>2020-08-22T12:19:20.000Z</time>
      </trkpt>
      <trkpt lat="44.09411" lon="6.98951">
        <ele>1460.1999511719</ele>
        <time>2020-08-22T12:19:34.000Z</time>
      </trkpt>
      <trkpt lat="44.09412" lon="6.9895">
        <ele>1460.4000244141</ele>
        <time>2020-08-22T12:19:47.000Z</time>
      </trkpt>
      <trkpt lat="44.09412" lon="6.98948">
        <ele>1460</ele>
        <time>2020-08-22T12:19:59.000Z</time>
      </trkpt>
      <trkpt lat="44.09411" lon="6.98948">
        <ele>1460.1999511719</ele>
        <time>2020-08-22T12:20:07.000Z</time>
      </trkpt>
      <trkpt lat="44.0941" lon="6.98949">
        <ele>1460.4000244141</ele>
        <time>2020-08-22T12:20:13.000Z</time>
      </trkpt>
      <trkpt lat="44.0941" lon="6.9895">
        <ele>1459.8000488281</ele>
        <time>2020-08-22T12:20:22.000Z</time>
      </trkpt>
      <trkpt lat="44.0941" lon="6.98951">
        <ele>1459.8000488281</ele>
        <time>2020-08-22T12:20:30.000Z</time>
      </trkpt>
      <trkpt lat="44.09409" lon="6.9895">
        <ele>1460.4000244141</ele>
        <time>2020-08-22T12:20:37.000Z</time>
      </trkpt>
      <trkpt lat="44.0941" lon="6.98952">
        <ele>1460.8000488281</ele>
        <time>2020-08-22T12:20:46.000Z</time>
      </trkpt>
      <trkpt lat="44.09411" lon="6.98955">
        <ele>1460.5999755859</ele>
        <time>2020-08-22T12:20:56.000Z</time>
      </trkpt>
      <trkpt lat="44.09411" lon="6.98955">
        <ele>1460.5999755859</ele>
        <time>2020-08-22T12:21:02.000Z</time>
      </trkpt>
      <trkpt lat="44.0941" lon="6.98955">
        <ele>1460.4000244141</ele>
        <time>2020-08-22T12:21:12.000Z</time>
      </trkpt>
      <trkpt lat="44.0941" lon="6.98956">
        <ele>1460.8000488281</ele>
        <time>2020-08-22T12:21:21.000Z</time>
      </trkpt>
      <trkpt lat="44.09408" lon="6.98954">
        <ele>1460.1999511719</ele>
        <time>2020-08-22T12:21:32.000Z</time>
      </trkpt>
      <trkpt lat="44.09407" lon="6.98953">
        <ele>1460.4000244141</ele>
        <time>2020-08-22T12:21:48.000Z</time>
      </trkpt>
      <trkpt lat="44.09407" lon="6.98952">
        <ele>1460.5999755859</ele>
        <time>2020-08-22T12:21:59.000Z</time>
      </trkpt>
      <trkpt lat="44.09407" lon="6.98953">
        <ele>1460.8000488281</ele>
        <time>2020-08-22T12:22:07.000Z</time>
      </trkpt>
      <trkpt lat="44.09408" lon="6.98954">
        <ele>1461</ele>
        <time>2020-08-22T12:22:17.000Z</time>
      </trkpt>
      <trkpt lat="44.09408" lon="6.98954">
        <ele>1461.1999511719</ele>
        <time>2020-08-22T12:22:21.000Z</time>
      </trkpt>
      <trkpt lat="44.09408" lon="6.98955">
        <ele>1461.1999511719</ele>
        <time>2020-08-22T12:22:25.000Z</time>
      </trkpt>
      <trkpt lat="44.09408" lon="6.98956">
        <ele>1461</ele>
        <time>2020-08-22T12:22:40.000Z</time>
      </trkpt>
      <trkpt lat="44.09408" lon="6.98958">
        <ele>1461.4000244141</ele>
        <time>2020-08-22T12:22:55.000Z</time>
      </trkpt>
      <trkpt lat="44.09409" lon="6.98959">
        <ele>1461.4000244141</ele>
        <time>2020-08-22T12:23:04.000Z</time>
      </trkpt>
      <trkpt lat="44.09409" lon="6.98959">
        <ele>1461.1999511719</ele>
        <time>2020-08-22T12:23:12.000Z</time>
      </trkpt>
      <trkpt lat="44.09409" lon="6.9896">
        <ele>1461.4000244141</ele>
        <time>2020-08-22T12:23:23.000Z</time>
      </trkpt>
      <trkpt lat="44.09409" lon="6.98959">
        <ele>1461.1999511719</ele>
        <time>2020-08-22T12:23:37.000Z</time>
      </trkpt>
      <trkpt lat="44.0941" lon="6.98959">
        <ele>1461.1999511719</ele>
        <time>2020-08-22T12:23:50.000Z</time>
      </trkpt>
      <trkpt lat="44.0941" lon="6.98959">
        <ele>1461.4000244141</ele>
        <time>2020-08-22T12:24:05.000Z</time>
      </trkpt>
      <trkpt lat="44.09411" lon="6.9896">
        <ele>1461.4000244141</ele>
        <time>2020-08-22T12:24:17.000Z</time>
      </trkpt>
      <trkpt lat="44.09412" lon="6.98961">
        <ele>1461.8000488281</ele>
        <time>2020-08-22T12:24:24.000Z</time>
      </trkpt>
      <trkpt lat="44.09412" lon="6.98961">
        <ele>1461.8000488281</ele>
        <time>2020-08-22T12:24:31.000Z</time>
      </trkpt>
      <trkpt lat="44.09413" lon="6.98963">
        <ele>1461.1999511719</ele>
        <time>2020-08-22T12:24:40.000Z</time>
      </trkpt>
      <trkpt lat="44.09412" lon="6.98963">
        <ele>1461.1999511719</ele>
        <time>2020-08-22T12:24:48.000Z</time>
      </trkpt>
      <trkpt lat="44.09412" lon="6.98964">
        <ele>1460.8000488281</ele>
        <time>2020-08-22T12:24:58.000Z</time>
      </trkpt>
      <trkpt lat="44.0941" lon="6.98962">
        <ele>1460.8000488281</ele>
        <time>2020-08-22T12:25:07.000Z</time>
      </trkpt>
      <trkpt lat="44.09409" lon="6.98961">
        <ele>1460.5999755859</ele>
        <time>2020-08-22T12:25:16.000Z</time>
      </trkpt>
      <trkpt lat="44.09408" lon="6.98959">
        <ele>1460.8000488281</ele>
        <time>2020-08-22T12:25:27.000Z</time>
      </trkpt>
      <trkpt lat="44.09408" lon="6.98959">
        <ele>1460.8000488281</ele>
        <time>2020-08-22T12:25:38.000Z</time>
      </trkpt>
      <trkpt lat="44.09408" lon="6.9896">
        <ele>1460.5999755859</ele>
        <time>2020-08-22T12:25:47.000Z</time>
      </trkpt>
      <trkpt lat="44.09408" lon="6.98961">
        <ele>1460.8000488281</ele>
        <time>2020-08-22T12:25:53.000Z</time>
      </trkpt>
      <trkpt lat="44.09408" lon="6.9896">
        <ele>1461</ele>
        <time>2020-08-22T12:26:00.000Z</time>
      </trkpt>
      <trkpt lat="44.09408" lon="6.98958">
        <ele>1461.1999511719</ele>
        <time>2020-08-22T12:26:10.000Z</time>
      </trkpt>
      <trkpt lat="44.09407" lon="6.98957">
        <ele>1461.1999511719</ele>
        <time>2020-08-22T12:26:22.000Z</time>
      </trkpt>
      <trkpt lat="44.09407" lon="6.98957">
        <ele>1461.1999511719</ele>
        <time>2020-08-22T12:26:26.000Z</time>
      </trkpt>
      <trkpt lat="44.09407" lon="6.98956">
        <ele>1461.1999511719</ele>
        <time>2020-08-22T12:26:35.000Z</time>
      </trkpt>
      <trkpt lat="44.09407" lon="6.98956">
        <ele>1461.1999511719</ele>
        <time>2020-08-22T12:26:45.000Z</time>
      </trkpt>
      <trkpt lat="44.09408" lon="6.98956">
        <ele>1461.4000244141</ele>
        <time>2020-08-22T12:26:51.000Z</time>
      </trkpt>
      <trkpt lat="44.09408" lon="6.98956">
        <ele>1461</ele>
        <time>2020-08-22T12:26:58.000Z</time>
      </trkpt>
      <trkpt lat="44.09409" lon="6.98956">
        <ele>1461.4000244141</ele>
        <time>2020-08-22T12:27:06.000Z</time>
      </trkpt>
      <trkpt lat="44.09408" lon="6.98955">
        <ele>1461.1999511719</ele>
        <time>2020-08-22T12:27:21.000Z</time>
      </trkpt>
      <trkpt lat="44.09409" lon="6.98956">
        <ele>1461</ele>
        <time>2020-08-22T12:27:31.000Z</time>
      </trkpt>
      <trkpt lat="44.0941" lon="6.98957">
        <ele>1461</ele>
        <time>2020-08-22T12:27:36.000Z</time>
      </trkpt>
      <trkpt lat="44.0941" lon="6.98956">
        <ele>1461.1999511719</ele>
        <time>2020-08-22T12:27:42.000Z</time>
      </trkpt>
      <trkpt lat="44.09411" lon="6.98955">
        <ele>1461</ele>
        <time>2020-08-22T12:27:43.000Z</time>
      </trkpt>
      <trkpt lat="44.09412" lon="6.98952">
        <ele>1461</ele>
        <time>2020-08-22T12:27:46.000Z</time>
      </trkpt>
      <trkpt lat="44.09414" lon="6.98948">
        <ele>1462</ele>
        <time>2020-08-22T12:27:52.000Z</time>
      </trkpt>
      <trkpt lat="44.09416" lon="6.98947">
        <ele>1461.8000488281</ele>
        <time>2020-08-22T12:27:54.000Z</time>
      </trkpt>
      <trkpt lat="44.09415" lon="6.98944">
        <ele>1461.4000244141</ele>
        <time>2020-08-22T12:27:56.000Z</time>
      </trkpt>
      <trkpt lat="44.09415" lon="6.98942">
        <ele>1461.4000244141</ele>
        <time>2020-08-22T12:27:57.000Z</time>
      </trkpt>
      <trkpt lat="44.09416" lon="6.98942">
        <ele>1462.4000244141</ele>
        <time>2020-08-22T12:28:01.000Z</time>
      </trkpt>
      <trkpt lat="44.09416" lon="6.98942">
        <ele>1462.1999511719</ele>
        <time>2020-08-22T12:28:07.000Z</time>
      </trkpt>
      <trkpt lat="44.09417" lon="6.98944">
        <ele>1462.1999511719</ele>
        <time>2020-08-22T12:28:14.000Z</time>
      </trkpt>
      <trkpt lat="44.09419" lon="6.98947">
        <ele>1461.8000488281</ele>
        <time>2020-08-22T12:28:23.000Z</time>
      </trkpt>
      <trkpt lat="44.09418" lon="6.98946">
        <ele>1462.4000244141</ele>
        <time>2020-08-22T12:28:27.000Z</time>
      </trkpt>
      <trkpt lat="44.09418" lon="6.98943">
        <ele>1462.8000488281</ele>
        <time>2020-08-22T12:28:34.000Z</time>
      </trkpt>
      <trkpt lat="44.0942" lon="6.98941">
        <ele>1462.8000488281</ele>
        <time>2020-08-22T12:28:42.000Z</time>
      </trkpt>
      <trkpt lat="44.09419" lon="6.98942">
        <ele>1463</ele>
        <time>2020-08-22T12:28:47.000Z</time>
      </trkpt>
      <trkpt lat="44.0942" lon="6.98943">
        <ele>1463</ele>
        <time>2020-08-22T12:28:54.000Z</time>
      </trkpt>
      <trkpt lat="44.09421" lon="6.98943">
        <ele>1462.5999755859</ele>
        <time>2020-08-22T12:29:02.000Z</time>
      </trkpt>
      <trkpt lat="44.09421" lon="6.98944">
        <ele>1462.5999755859</ele>
        <time>2020-08-22T12:29:08.000Z</time>
      </trkpt>
      <trkpt lat="44.0942" lon="6.98945">
        <ele>1462.8000488281</ele>
        <time>2020-08-22T12:29:14.000Z</time>
      </trkpt>
      <trkpt lat="44.09421" lon="6.98947">
        <ele>1462.8000488281</ele>
        <time>2020-08-22T12:29:21.000Z</time>
      </trkpt>
      <trkpt lat="44.09422" lon="6.98948">
        <ele>1462.8000488281</ele>
        <time>2020-08-22T12:29:27.000Z</time>
      </trkpt>
      <trkpt lat="44.09422" lon="6.98947">
        <ele>1463</ele>
        <time>2020-08-22T12:29:28.000Z</time>
      </trkpt>
      <trkpt lat="44.09421" lon="6.98947">
        <ele>1463</ele>
        <time>2020-08-22T12:29:30.000Z</time>
      </trkpt>
      <trkpt lat="44.09419" lon="6.98949">
        <ele>1463</ele>
        <time>2020-08-22T12:29:36.000Z</time>
      </trkpt>
      <trkpt lat="44.09417" lon="6.98947">
        <ele>1462.5999755859</ele>
        <time>2020-08-22T12:29:42.000Z</time>
      </trkpt>
      <trkpt lat="44.09417" lon="6.98947">
        <ele>1463</ele>
        <time>2020-08-22T12:29:47.000Z</time>
      </trkpt>
      <trkpt lat="44.09416" lon="6.98952">
        <ele>1462.5999755859</ele>
        <time>2020-08-22T12:29:53.000Z</time>
      </trkpt>
      <trkpt lat="44.09417" lon="6.98956">
        <ele>1463</ele>
        <time>2020-08-22T12:29:58.000Z</time>
      </trkpt>
      <trkpt lat="44.09417" lon="6.9895">
        <ele>1462.4000244141</ele>
        <time>2020-08-22T12:30:03.000Z</time>
      </trkpt>
      <trkpt lat="44.09418" lon="6.98947">
        <ele>1462.4000244141</ele>
        <time>2020-08-22T12:30:04.000Z</time>
      </trkpt>
      <trkpt lat="44.0942" lon="6.98934">
        <ele>1462.5999755859</ele>
        <time>2020-08-22T12:30:07.000Z</time>
      </trkpt>
      <trkpt lat="44.09422" lon="6.98925">
        <ele>1462.8000488281</ele>
        <time>2020-08-22T12:30:09.000Z</time>
      </trkpt>
      <trkpt lat="44.09424" lon="6.98898">
        <ele>1462.5999755859</ele>
        <time>2020-08-22T12:30:14.000Z</time>
      </trkpt>
      <trkpt lat="44.09434" lon="6.98866">
        <ele>1462.1999511719</ele>
        <time>2020-08-22T12:30:20.000Z</time>
      </trkpt>
      <trkpt lat="44.09444" lon="6.98849">
        <ele>1462.1999511719</ele>
        <time>2020-08-22T12:30:24.000Z</time>
      </trkpt>
      <trkpt lat="44.09463" lon="6.98826">
        <ele>1461.5999755859</ele>
        <time>2020-08-22T12:30:30.000Z</time>
      </trkpt>
      <trkpt lat="44.09472" lon="6.98813">
        <ele>1461</ele>
        <time>2020-08-22T12:30:33.000Z</time>
      </trkpt>
      <trkpt lat="44.09483" lon="6.98792">
        <ele>1460.4000244141</ele>
        <time>2020-08-22T12:30:37.000Z</time>
      </trkpt>
      <trkpt lat="44.0949" lon="6.98771">
        <ele>1460.1999511719</ele>
        <time>2020-08-22T12:30:40.000Z</time>
      </trkpt>
      <trkpt lat="44.09492" lon="6.98762">
        <ele>1459.8000488281</ele>
        <time>2020-08-22T12:30:41.000Z</time>
      </trkpt>
      <trkpt lat="44.09493" lon="6.98755">
        <ele>1459.5999755859</ele>
        <time>2020-08-22T12:30:42.000Z</time>
      </trkpt>
      <trkpt lat="44.09494" lon="6.98747">
        <ele>1459.4000244141</ele>
        <time>2020-08-22T12:30:43.000Z</time>
      </trkpt>
      <trkpt lat="44.09499" lon="6.98716">
        <ele>1459.1999511719</ele>
        <time>2020-08-22T12:30:47.000Z</time>
      </trkpt>
      <trkpt lat="44.09503" lon="6.98694">
        <ele>1460</ele>
        <time>2020-08-22T12:30:50.000Z</time>
      </trkpt>
      <trkpt lat="44.09507" lon="6.98682">
        <ele>1460.5999755859</ele>
        <time>2020-08-22T12:30:52.000Z</time>
      </trkpt>
      <trkpt lat="44.0951" lon="6.98677">
        <ele>1460.8000488281</ele>
        <time>2020-08-22T12:30:53.000Z</time>
      </trkpt>
      <trkpt lat="44.09517" lon="6.98669">
        <ele>1461.1999511719</ele>
        <time>2020-08-22T12:30:55.000Z</time>
      </trkpt>
      <trkpt lat="44.09524" lon="6.98663">
        <ele>1460.5999755859</ele>
        <time>2020-08-22T12:30:57.000Z</time>
      </trkpt>
      <trkpt lat="44.09527" lon="6.98659">
        <ele>1460.5999755859</ele>
        <time>2020-08-22T12:30:58.000Z</time>
      </trkpt>
      <trkpt lat="44.09535" lon="6.98652">
        <ele>1460.5999755859</ele>
        <time>2020-08-22T12:31:00.000Z</time>
      </trkpt>
      <trkpt lat="44.09544" lon="6.98647">
        <ele>1460.5999755859</ele>
        <time>2020-08-22T12:31:02.000Z</time>
      </trkpt>
      <trkpt lat="44.09562" lon="6.98635">
        <ele>1461.4000244141</ele>
        <time>2020-08-22T12:31:08.000Z</time>
      </trkpt>
      <trkpt lat="44.0958" lon="6.98625">
        <ele>1462</ele>
        <time>2020-08-22T12:31:14.000Z</time>
      </trkpt>
      <trkpt lat="44.09581" lon="6.98629">
        <ele>1462.4000244141</ele>
        <time>2020-08-22T12:31:17.000Z</time>
      </trkpt>
      <trkpt lat="44.09581" lon="6.98629">
        <ele>1463</ele>
        <time>2020-08-22T12:31:22.000Z</time>
      </trkpt>
      <trkpt lat="44.0958" lon="6.98629">
        <ele>1463.1999511719</ele>
        <time>2020-08-22T12:31:23.000Z</time>
      </trkpt>
      <trkpt lat="44.0958" lon="6.98629">
        <ele>1463.5999755859</ele>
        <time>2020-08-22T12:31:30.000Z</time>
      </trkpt>
      <trkpt lat="44.0958" lon="6.98629">
        <ele>1463.4000244141</ele>
        <time>2020-08-22T12:31:35.000Z</time>
      </trkpt>
      <trkpt lat="44.0958" lon="6.98628">
        <ele>1463.8000488281</ele>
        <time>2020-08-22T12:31:47.000Z</time>
      </trkpt>
      <trkpt lat="44.0958" lon="6.98628">
        <ele>1463.4000244141</ele>
        <time>2020-08-22T12:31:56.000Z</time>
      </trkpt>
      <trkpt lat="44.09578" lon="6.98627">
        <ele>1463.4000244141</ele>
        <time>2020-08-22T12:32:06.000Z</time>
      </trkpt>
      <trkpt lat="44.09578" lon="6.98626">
        <ele>1463.4000244141</ele>
        <time>2020-08-22T12:32:14.000Z</time>
      </trkpt>
      <trkpt lat="44.09578" lon="6.98627">
        <ele>1463.5999755859</ele>
        <time>2020-08-22T12:32:22.000Z</time>
      </trkpt>
      <trkpt lat="44.09579" lon="6.98627">
        <ele>1463</ele>
        <time>2020-08-22T12:32:33.000Z</time>
      </trkpt>
      <trkpt lat="44.09579" lon="6.98628">
        <ele>1463.1999511719</ele>
        <time>2020-08-22T12:32:43.000Z</time>
      </trkpt>
      <trkpt lat="44.09579" lon="6.98628">
        <ele>1463.4000244141</ele>
        <time>2020-08-22T12:32:58.000Z</time>
      </trkpt>
      <trkpt lat="44.09579" lon="6.98628">
        <ele>1463</ele>
        <time>2020-08-22T12:33:14.000Z</time>
      </trkpt>
      <trkpt lat="44.09579" lon="6.98627">
        <ele>1463</ele>
        <time>2020-08-22T12:33:29.000Z</time>
      </trkpt>
      <trkpt lat="44.09578" lon="6.98627">
        <ele>1463</ele>
        <time>2020-08-22T12:33:43.000Z</time>
      </trkpt>
      <trkpt lat="44.09578" lon="6.98627">
        <ele>1463.1999511719</ele>
        <time>2020-08-22T12:33:50.000Z</time>
      </trkpt>
      <trkpt lat="44.09578" lon="6.98627">
        <ele>1463.5999755859</ele>
        <time>2020-08-22T12:33:55.000Z</time>
      </trkpt>
      <trkpt lat="44.09578" lon="6.98627">
        <ele>1463.8000488281</ele>
        <time>2020-08-22T12:34:06.000Z</time>
      </trkpt>
      <trkpt lat="44.09578" lon="6.98627">
        <ele>1463.4000244141</ele>
        <time>2020-08-22T12:34:19.000Z</time>
      </trkpt>
      <trkpt lat="44.09578" lon="6.98629">
        <ele>1463.1999511719</ele>
        <time>2020-08-22T12:34:25.000Z</time>
      </trkpt>
      <trkpt lat="44.09578" lon="6.98629">
        <ele>1463.4000244141</ele>
        <time>2020-08-22T12:34:34.000Z</time>
      </trkpt>
      <trkpt lat="44.09581" lon="6.98629">
        <ele>1463.5999755859</ele>
        <time>2020-08-22T12:34:38.000Z</time>
      </trkpt>
      <trkpt lat="44.09591" lon="6.98626">
        <ele>1464</ele>
        <time>2020-08-22T12:34:43.000Z</time>
      </trkpt>
      <trkpt lat="44.09599" lon="6.98623">
        <ele>1464.1999511719</ele>
        <time>2020-08-22T12:34:46.000Z</time>
      </trkpt>
      <trkpt lat="44.09604" lon="6.98623">
        <ele>1464.4000244141</ele>
        <time>2020-08-22T12:34:48.000Z</time>
      </trkpt>
      <trkpt lat="44.09625" lon="6.98616">
        <ele>1464.4000244141</ele>
        <time>2020-08-22T12:34:55.000Z</time>
      </trkpt>
      <trkpt lat="44.09641" lon="6.98604">
        <ele>1464.8000488281</ele>
        <time>2020-08-22T12:35:01.000Z</time>
      </trkpt>
      <trkpt lat="44.09646" lon="6.986">
        <ele>1465.1999511719</ele>
        <time>2020-08-22T12:35:03.000Z</time>
      </trkpt>
      <trkpt lat="44.09657" lon="6.9859">
        <ele>1466.1999511719</ele>
        <time>2020-08-22T12:35:08.000Z</time>
      </trkpt>
      <trkpt lat="44.09671" lon="6.98574">
        <ele>1467.4000244141</ele>
        <time>2020-08-22T12:35:15.000Z</time>
      </trkpt>
      <trkpt lat="44.09673" lon="6.98572">
        <ele>1467.5999755859</ele>
        <time>2020-08-22T12:35:16.000Z</time>
      </trkpt>
      <trkpt lat="44.09677" lon="6.98556">
        <ele>1468.5999755859</ele>
        <time>2020-08-22T12:35:21.000Z</time>
      </trkpt>
      <trkpt lat="44.09678" lon="6.98553">
        <ele>1468.8000488281</ele>
        <time>2020-08-22T12:35:22.000Z</time>
      </trkpt>
      <trkpt lat="44.09678" lon="6.98537">
        <ele>1469.5999755859</ele>
        <time>2020-08-22T12:35:27.000Z</time>
      </trkpt>
      <trkpt lat="44.09677" lon="6.98531">
        <ele>1470</ele>
        <time>2020-08-22T12:35:29.000Z</time>
      </trkpt>
      <trkpt lat="44.09675" lon="6.98518">
        <ele>1470.5999755859</ele>
        <time>2020-08-22T12:35:33.000Z</time>
      </trkpt>
      <trkpt lat="44.09674" lon="6.98508">
        <ele>1471.1999511719</ele>
        <time>2020-08-22T12:35:36.000Z</time>
      </trkpt>
      <trkpt lat="44.09673" lon="6.98502">
        <ele>1471.8000488281</ele>
        <time>2020-08-22T12:35:38.000Z</time>
      </trkpt>
      <trkpt lat="44.09669" lon="6.98487">
        <ele>1472.1999511719</ele>
        <time>2020-08-22T12:35:43.000Z</time>
      </trkpt>
      <trkpt lat="44.09667" lon="6.98469">
        <ele>1472.8000488281</ele>
        <time>2020-08-22T12:35:49.000Z</time>
      </trkpt>
      <trkpt lat="44.09667" lon="6.98463">
        <ele>1473.1999511719</ele>
        <time>2020-08-22T12:35:51.000Z</time>
      </trkpt>
      <trkpt lat="44.09666" lon="6.98452">
        <ele>1474</ele>
        <time>2020-08-22T12:35:55.000Z</time>
      </trkpt>
      <trkpt lat="44.09667" lon="6.98438">
        <ele>1474.5999755859</ele>
        <time>2020-08-22T12:36:00.000Z</time>
      </trkpt>
      <trkpt lat="44.09667" lon="6.98429">
        <ele>1475</ele>
        <time>2020-08-22T12:36:03.000Z</time>
      </trkpt>
      <trkpt lat="44.09669" lon="6.98407">
        <ele>1475.8000488281</ele>
        <time>2020-08-22T12:36:11.000Z</time>
      </trkpt>
      <trkpt lat="44.09669" lon="6.98404">
        <ele>1476</ele>
        <time>2020-08-22T12:36:12.000Z</time>
      </trkpt>
      <trkpt lat="44.09671" lon="6.98387">
        <ele>1477.1999511719</ele>
        <time>2020-08-22T12:36:18.000Z</time>
      </trkpt>
      <trkpt lat="44.09672" lon="6.98382">
        <ele>1477.4000244141</ele>
        <time>2020-08-22T12:36:20.000Z</time>
      </trkpt>
      <trkpt lat="44.09674" lon="6.98372">
        <ele>1478.1999511719</ele>
        <time>2020-08-22T12:36:24.000Z</time>
      </trkpt>
      <trkpt lat="44.09678" lon="6.98359">
        <ele>1479</ele>
        <time>2020-08-22T12:36:29.000Z</time>
      </trkpt>
      <trkpt lat="44.09679" lon="6.98354">
        <ele>1479.1999511719</ele>
        <time>2020-08-22T12:36:31.000Z</time>
      </trkpt>
      <trkpt lat="44.09685" lon="6.98331">
        <ele>1480.4000244141</ele>
        <time>2020-08-22T12:36:40.000Z</time>
      </trkpt>
      <trkpt lat="44.09688" lon="6.98312">
        <ele>1481.1999511719</ele>
        <time>2020-08-22T12:36:47.000Z</time>
      </trkpt>
      <trkpt lat="44.09688" lon="6.98309">
        <ele>1481.4000244141</ele>
        <time>2020-08-22T12:36:48.000Z</time>
      </trkpt>
      <trkpt lat="44.09689" lon="6.9829">
        <ele>1482.4000244141</ele>
        <time>2020-08-22T12:36:55.000Z</time>
      </trkpt>
      <trkpt lat="44.0969" lon="6.98285">
        <ele>1482.8000488281</ele>
        <time>2020-08-22T12:36:57.000Z</time>
      </trkpt>
      <trkpt lat="44.09689" lon="6.98273">
        <ele>1483.5999755859</ele>
        <time>2020-08-22T12:37:01.000Z</time>
      </trkpt>
      <trkpt lat="44.0969" lon="6.98257">
        <ele>1484.4000244141</ele>
        <time>2020-08-22T12:37:07.000Z</time>
      </trkpt>
      <trkpt lat="44.0969" lon="6.98243">
        <ele>1484.8000488281</ele>
        <time>2020-08-22T12:37:12.000Z</time>
      </trkpt>
      <trkpt lat="44.09691" lon="6.98235">
        <ele>1485.1999511719</ele>
        <time>2020-08-22T12:37:15.000Z</time>
      </trkpt>
      <trkpt lat="44.09691" lon="6.98217">
        <ele>1485.8000488281</ele>
        <time>2020-08-22T12:37:22.000Z</time>
      </trkpt>
      <trkpt lat="44.0969" lon="6.98204">
        <ele>1487</ele>
        <time>2020-08-22T12:37:27.000Z</time>
      </trkpt>
      <trkpt lat="44.09689" lon="6.98199">
        <ele>1487.5999755859</ele>
        <time>2020-08-22T12:37:29.000Z</time>
      </trkpt>
      <trkpt lat="44.09687" lon="6.98191">
        <ele>1488.1999511719</ele>
        <time>2020-08-22T12:37:32.000Z</time>
      </trkpt>
      <trkpt lat="44.09682" lon="6.98179">
        <ele>1489.4000244141</ele>
        <time>2020-08-22T12:37:37.000Z</time>
      </trkpt>
      <trkpt lat="44.0967" lon="6.98165">
        <ele>1490.1999511719</ele>
        <time>2020-08-22T12:37:45.000Z</time>
      </trkpt>
      <trkpt lat="44.09666" lon="6.98162">
        <ele>1490.4000244141</ele>
        <time>2020-08-22T12:37:47.000Z</time>
      </trkpt>
      <trkpt lat="44.09652" lon="6.98148">
        <ele>1491.1999511719</ele>
        <time>2020-08-22T12:37:55.000Z</time>
      </trkpt>
      <trkpt lat="44.09649" lon="6.98144">
        <ele>1491.4000244141</ele>
        <time>2020-08-22T12:37:57.000Z</time>
      </trkpt>
      <trkpt lat="44.09638" lon="6.98128">
        <ele>1492.5999755859</ele>
        <time>2020-08-22T12:38:04.000Z</time>
      </trkpt>
      <trkpt lat="44.09636" lon="6.98122">
        <ele>1492.8000488281</ele>
        <time>2020-08-22T12:38:06.000Z</time>
      </trkpt>
      <trkpt lat="44.09631" lon="6.98105">
        <ele>1493.5999755859</ele>
        <time>2020-08-22T12:38:12.000Z</time>
      </trkpt>
      <trkpt lat="44.09628" lon="6.98094">
        <ele>1494.4000244141</ele>
        <time>2020-08-22T12:38:16.000Z</time>
      </trkpt>
      <trkpt lat="44.09627" lon="6.98088">
        <ele>1494.5999755859</ele>
        <time>2020-08-22T12:38:18.000Z</time>
      </trkpt>
      <trkpt lat="44.09622" lon="6.98065">
        <ele>1495.1999511719</ele>
        <time>2020-08-22T12:38:26.000Z</time>
      </trkpt>
      <trkpt lat="44.09621" lon="6.98057">
        <ele>1495.5999755859</ele>
        <time>2020-08-22T12:38:29.000Z</time>
      </trkpt>
      <trkpt lat="44.09619" lon="6.9804">
        <ele>1496.8000488281</ele>
        <time>2020-08-22T12:38:35.000Z</time>
      </trkpt>
      <trkpt lat="44.09618" lon="6.98031">
        <ele>1497.4000244141</ele>
        <time>2020-08-22T12:38:38.000Z</time>
      </trkpt>
      <trkpt lat="44.09618" lon="6.98022">
        <ele>1498</ele>
        <time>2020-08-22T12:38:41.000Z</time>
      </trkpt>
      <trkpt lat="44.09619" lon="6.98005">
        <ele>1498.5999755859</ele>
        <time>2020-08-22T12:38:47.000Z</time>
      </trkpt>
      <trkpt lat="44.09619" lon="6.97999">
        <ele>1499</ele>
        <time>2020-08-22T12:38:49.000Z</time>
      </trkpt>
      <trkpt lat="44.09619" lon="6.97988">
        <ele>1500</ele>
        <time>2020-08-22T12:38:53.000Z</time>
      </trkpt>
      <trkpt lat="44.09619" lon="6.97983">
        <ele>1500.8000488281</ele>
        <time>2020-08-22T12:38:55.000Z</time>
      </trkpt>
      <trkpt lat="44.09619" lon="6.97977">
        <ele>1501.1999511719</ele>
        <time>2020-08-22T12:38:57.000Z</time>
      </trkpt>
      <trkpt lat="44.0962" lon="6.9796">
        <ele>1501.5999755859</ele>
        <time>2020-08-22T12:39:03.000Z</time>
      </trkpt>
      <trkpt lat="44.09621" lon="6.97936">
        <ele>1502.4000244141</ele>
        <time>2020-08-22T12:39:11.000Z</time>
      </trkpt>
      <trkpt lat="44.0962" lon="6.9793">
        <ele>1502.8000488281</ele>
        <time>2020-08-22T12:39:13.000Z</time>
      </trkpt>
      <trkpt lat="44.09618" lon="6.97921">
        <ele>1503.4000244141</ele>
        <time>2020-08-22T12:39:16.000Z</time>
      </trkpt>
      <trkpt lat="44.09615" lon="6.97903">
        <ele>1504.5999755859</ele>
        <time>2020-08-22T12:39:22.000Z</time>
      </trkpt>
      <trkpt lat="44.09614" lon="6.97897">
        <ele>1505</ele>
        <time>2020-08-22T12:39:24.000Z</time>
      </trkpt>
      <trkpt lat="44.09608" lon="6.97884">
        <ele>1505.8000488281</ele>
        <time>2020-08-22T12:39:29.000Z</time>
      </trkpt>
      <trkpt lat="44.09606" lon="6.97879">
        <ele>1506.4000244141</ele>
        <time>2020-08-22T12:39:31.000Z</time>
      </trkpt>
      <trkpt lat="44.09603" lon="6.97874">
        <ele>1506.8000488281</ele>
        <time>2020-08-22T12:39:33.000Z</time>
      </trkpt>
      <trkpt lat="44.09595" lon="6.97862">
        <ele>1507.4000244141</ele>
        <time>2020-08-22T12:39:39.000Z</time>
      </trkpt>
      <trkpt lat="44.09589" lon="6.97851">
        <ele>1508</ele>
        <time>2020-08-22T12:39:44.000Z</time>
      </trkpt>
      <trkpt lat="44.09583" lon="6.9784">
        <ele>1508.8000488281</ele>
        <time>2020-08-22T12:39:49.000Z</time>
      </trkpt>
      <trkpt lat="44.09582" lon="6.97838">
        <ele>1509</ele>
        <time>2020-08-22T12:39:50.000Z</time>
      </trkpt>
      <trkpt lat="44.09573" lon="6.97822">
        <ele>1510</ele>
        <time>2020-08-22T12:39:57.000Z</time>
      </trkpt>
      <trkpt lat="44.09572" lon="6.9782">
        <ele>1510</ele>
        <time>2020-08-22T12:39:58.000Z</time>
      </trkpt>
      <trkpt lat="44.09565" lon="6.97806">
        <ele>1511</ele>
        <time>2020-08-22T12:40:04.000Z</time>
      </trkpt>
      <trkpt lat="44.09562" lon="6.97799">
        <ele>1511.5999755859</ele>
        <time>2020-08-22T12:40:07.000Z</time>
      </trkpt>
      <trkpt lat="44.09557" lon="6.9779">
        <ele>1512.1999511719</ele>
        <time>2020-08-22T12:40:11.000Z</time>
      </trkpt>
      <trkpt lat="44.09549" lon="6.97773">
        <ele>1512.8000488281</ele>
        <time>2020-08-22T12:40:18.000Z</time>
      </trkpt>
      <trkpt lat="44.09545" lon="6.97766">
        <ele>1513.1999511719</ele>
        <time>2020-08-22T12:40:21.000Z</time>
      </trkpt>
      <trkpt lat="44.09539" lon="6.97751">
        <ele>1514.4000244141</ele>
        <time>2020-08-22T12:40:27.000Z</time>
      </trkpt>
      <trkpt lat="44.09537" lon="6.97749">
        <ele>1514.4000244141</ele>
        <time>2020-08-22T12:40:28.000Z</time>
      </trkpt>
      <trkpt lat="44.09528" lon="6.97729">
        <ele>1515.4000244141</ele>
        <time>2020-08-22T12:40:36.000Z</time>
      </trkpt>
      <trkpt lat="44.09526" lon="6.97724">
        <ele>1515.8000488281</ele>
        <time>2020-08-22T12:40:38.000Z</time>
      </trkpt>
      <trkpt lat="44.09523" lon="6.97713">
        <ele>1516.4000244141</ele>
        <time>2020-08-22T12:40:42.000Z</time>
      </trkpt>
      <trkpt lat="44.0952" lon="6.97703">
        <ele>1517.1999511719</ele>
        <time>2020-08-22T12:40:46.000Z</time>
      </trkpt>
      <trkpt lat="44.09518" lon="6.97689">
        <ele>1517.5999755859</ele>
        <time>2020-08-22T12:40:51.000Z</time>
      </trkpt>
      <trkpt lat="44.09516" lon="6.97678">
        <ele>1518.1999511719</ele>
        <time>2020-08-22T12:40:55.000Z</time>
      </trkpt>
      <trkpt lat="44.09514" lon="6.97664">
        <ele>1518.8000488281</ele>
        <time>2020-08-22T12:41:00.000Z</time>
      </trkpt>
      <trkpt lat="44.09511" lon="6.9765">
        <ele>1519.4000244141</ele>
        <time>2020-08-22T12:41:05.000Z</time>
      </trkpt>
      <trkpt lat="44.09507" lon="6.97635">
        <ele>1520</ele>
        <time>2020-08-22T12:41:11.000Z</time>
      </trkpt>
      <trkpt lat="44.09504" lon="6.97627">
        <ele>1520.5999755859</ele>
        <time>2020-08-22T12:41:14.000Z</time>
      </trkpt>
      <trkpt lat="44.09501" lon="6.9762">
        <ele>1521</ele>
        <time>2020-08-22T12:41:17.000Z</time>
      </trkpt>
      <trkpt lat="44.09493" lon="6.97606">
        <ele>1521.8000488281</ele>
        <time>2020-08-22T12:41:23.000Z</time>
      </trkpt>
      <trkpt lat="44.09491" lon="6.97602">
        <ele>1522</ele>
        <time>2020-08-22T12:41:25.000Z</time>
      </trkpt>
      <trkpt lat="44.09484" lon="6.9759">
        <ele>1523.1999511719</ele>
        <time>2020-08-22T12:41:30.000Z</time>
      </trkpt>
      <trkpt lat="44.0948" lon="6.97581">
        <ele>1523.8000488281</ele>
        <time>2020-08-22T12:41:33.000Z</time>
      </trkpt>
      <trkpt lat="44.09477" lon="6.97569">
        <ele>1524.4000244141</ele>
        <time>2020-08-22T12:41:37.000Z</time>
      </trkpt>
      <trkpt lat="44.0947" lon="6.97544">
        <ele>1525.5999755859</ele>
        <time>2020-08-22T12:41:45.000Z</time>
      </trkpt>
      <trkpt lat="44.09468" lon="6.97531">
        <ele>1526.8000488281</ele>
        <time>2020-08-22T12:41:49.000Z</time>
      </trkpt>
      <trkpt lat="44.09466" lon="6.97521">
        <ele>1527.4000244141</ele>
        <time>2020-08-22T12:41:52.000Z</time>
      </trkpt>
      <trkpt lat="44.09464" lon="6.97507">
        <ele>1527.8000488281</ele>
        <time>2020-08-22T12:41:56.000Z</time>
      </trkpt>
      <trkpt lat="44.09462" lon="6.97494">
        <ele>1528.1999511719</ele>
        <time>2020-08-22T12:42:00.000Z</time>
      </trkpt>
      <trkpt lat="44.0946" lon="6.97477">
        <ele>1529</ele>
        <time>2020-08-22T12:42:05.000Z</time>
      </trkpt>
      <trkpt lat="44.09458" lon="6.97467">
        <ele>1529.4000244141</ele>
        <time>2020-08-22T12:42:08.000Z</time>
      </trkpt>
      <trkpt lat="44.09456" lon="6.97453">
        <ele>1530.1999511719</ele>
        <time>2020-08-22T12:42:12.000Z</time>
      </trkpt>
      <trkpt lat="44.09456" lon="6.97437">
        <ele>1530.5999755859</ele>
        <time>2020-08-22T12:42:17.000Z</time>
      </trkpt>
      <trkpt lat="44.09458" lon="6.97425">
        <ele>1531.1999511719</ele>
        <time>2020-08-22T12:42:21.000Z</time>
      </trkpt>
      <trkpt lat="44.09459" lon="6.97419">
        <ele>1531.5999755859</ele>
        <time>2020-08-22T12:42:23.000Z</time>
      </trkpt>
      <trkpt lat="44.0946" lon="6.97411">
        <ele>1532.4000244141</ele>
        <time>2020-08-22T12:42:26.000Z</time>
      </trkpt>
      <trkpt lat="44.09457" lon="6.97393">
        <ele>1533.4000244141</ele>
        <time>2020-08-22T12:42:32.000Z</time>
      </trkpt>
      <trkpt lat="44.09448" lon="6.97376">
        <ele>1534.4000244141</ele>
        <time>2020-08-22T12:42:39.000Z</time>
      </trkpt>
      <trkpt lat="44.09446" lon="6.97375">
        <ele>1534.5999755859</ele>
        <time>2020-08-22T12:42:40.000Z</time>
      </trkpt>
      <trkpt lat="44.09433" lon="6.9737">
        <ele>1535.8000488281</ele>
        <time>2020-08-22T12:42:47.000Z</time>
      </trkpt>
      <trkpt lat="44.09429" lon="6.97373">
        <ele>1536.1999511719</ele>
        <time>2020-08-22T12:42:50.000Z</time>
      </trkpt>
      <trkpt lat="44.0943" lon="6.97375">
        <ele>1536.1999511719</ele>
        <time>2020-08-22T12:42:51.000Z</time>
      </trkpt>
      <trkpt lat="44.09437" lon="6.97372">
        <ele>1536.4000244141</ele>
        <time>2020-08-22T12:42:54.000Z</time>
      </trkpt>
      <trkpt lat="44.09439" lon="6.97368">
        <ele>1536</ele>
        <time>2020-08-22T12:42:58.000Z</time>
      </trkpt>
      <trkpt lat="44.09439" lon="6.97369">
        <ele>1536</ele>
        <time>2020-08-22T12:43:07.000Z</time>
      </trkpt>
      <trkpt lat="44.09438" lon="6.97369">
        <ele>1535.4000244141</ele>
        <time>2020-08-22T12:43:16.000Z</time>
      </trkpt>
      <trkpt lat="44.09438" lon="6.97369">
        <ele>1535.5999755859</ele>
        <time>2020-08-22T12:43:26.000Z</time>
      </trkpt>
      <trkpt lat="44.0944" lon="6.9737">
        <ele>1535.4000244141</ele>
        <time>2020-08-22T12:43:33.000Z</time>
      </trkpt>
      <trkpt lat="44.09441" lon="6.97371">
        <ele>1535.4000244141</ele>
        <time>2020-08-22T12:43:34.000Z</time>
      </trkpt>
      <trkpt lat="44.09439" lon="6.97377">
        <ele>1535.4000244141</ele>
        <time>2020-08-22T12:43:37.000Z</time>
      </trkpt>
      <trkpt lat="44.09432" lon="6.97376">
        <ele>1535.4000244141</ele>
        <time>2020-08-22T12:43:40.000Z</time>
      </trkpt>
      <trkpt lat="44.09427" lon="6.97374">
        <ele>1535.5999755859</ele>
        <time>2020-08-22T12:43:42.000Z</time>
      </trkpt>
      <trkpt lat="44.09416" lon="6.97378">
        <ele>1536.1999511719</ele>
        <time>2020-08-22T12:43:47.000Z</time>
      </trkpt>
      <trkpt lat="44.0941" lon="6.97382">
        <ele>1536.8000488281</ele>
        <time>2020-08-22T12:43:50.000Z</time>
      </trkpt>
      <trkpt lat="44.09395" lon="6.9739">
        <ele>1537.8000488281</ele>
        <time>2020-08-22T12:43:57.000Z</time>
      </trkpt>
      <trkpt lat="44.09378" lon="6.97393">
        <ele>1538.8000488281</ele>
        <time>2020-08-22T12:44:05.000Z</time>
      </trkpt>
      <trkpt lat="44.09363" lon="6.97389">
        <ele>1540</ele>
        <time>2020-08-22T12:44:12.000Z</time>
      </trkpt>
      <trkpt lat="44.09359" lon="6.97386">
        <ele>1540.1999511719</ele>
        <time>2020-08-22T12:44:14.000Z</time>
      </trkpt>
      <trkpt lat="44.09351" lon="6.97376">
        <ele>1541</ele>
        <time>2020-08-22T12:44:19.000Z</time>
      </trkpt>
      <trkpt lat="44.09346" lon="6.9737">
        <ele>1541.5999755859</ele>
        <time>2020-08-22T12:44:22.000Z</time>
      </trkpt>
      <trkpt lat="44.09341" lon="6.97363">
        <ele>1542.1999511719</ele>
        <time>2020-08-22T12:44:25.000Z</time>
      </trkpt>
      <trkpt lat="44.09332" lon="6.97349">
        <ele>1543.1999511719</ele>
        <time>2020-08-22T12:44:31.000Z</time>
      </trkpt>
      <trkpt lat="44.09322" lon="6.97336">
        <ele>1544.1999511719</ele>
        <time>2020-08-22T12:44:37.000Z</time>
      </trkpt>
      <trkpt lat="44.09319" lon="6.97332">
        <ele>1544.5999755859</ele>
        <time>2020-08-22T12:44:39.000Z</time>
      </trkpt>
      <trkpt lat="44.09312" lon="6.97322">
        <ele>1545.1999511719</ele>
        <time>2020-08-22T12:44:43.000Z</time>
      </trkpt>
      <trkpt lat="44.093" lon="6.97307">
        <ele>1546.5999755859</ele>
        <time>2020-08-22T12:44:50.000Z</time>
      </trkpt>
      <trkpt lat="44.09299" lon="6.97305">
        <ele>1546.5999755859</ele>
        <time>2020-08-22T12:44:51.000Z</time>
      </trkpt>
      <trkpt lat="44.09288" lon="6.97294">
        <ele>1547.5999755859</ele>
        <time>2020-08-22T12:44:57.000Z</time>
      </trkpt>
      <trkpt lat="44.09276" lon="6.97283">
        <ele>1548.8000488281</ele>
        <time>2020-08-22T12:45:03.000Z</time>
      </trkpt>
      <trkpt lat="44.0926" lon="6.97272">
        <ele>1549.8000488281</ele>
        <time>2020-08-22T12:45:11.000Z</time>
      </trkpt>
      <trkpt lat="44.09251" lon="6.97267">
        <ele>1550.5999755859</ele>
        <time>2020-08-22T12:45:15.000Z</time>
      </trkpt>
      <trkpt lat="44.09247" lon="6.97265">
        <ele>1550.8000488281</ele>
        <time>2020-08-22T12:45:17.000Z</time>
      </trkpt>
      <trkpt lat="44.09232" lon="6.97259">
        <ele>1551.8000488281</ele>
        <time>2020-08-22T12:45:24.000Z</time>
      </trkpt>
      <trkpt lat="44.09215" lon="6.9725">
        <ele>1553</ele>
        <time>2020-08-22T12:45:32.000Z</time>
      </trkpt>
      <trkpt lat="44.09206" lon="6.97246">
        <ele>1553.5999755859</ele>
        <time>2020-08-22T12:45:36.000Z</time>
      </trkpt>
      <trkpt lat="44.09201" lon="6.97242">
        <ele>1554</ele>
        <time>2020-08-22T12:45:39.000Z</time>
      </trkpt>
      <trkpt lat="44.09187" lon="6.97227">
        <ele>1554.1999511719</ele>
        <time>2020-08-22T12:45:47.000Z</time>
      </trkpt>
      <trkpt lat="44.09176" lon="6.97212">
        <ele>1555.1999511719</ele>
        <time>2020-08-22T12:45:54.000Z</time>
      </trkpt>
      <trkpt lat="44.09168" lon="6.97202">
        <ele>1556.8000488281</ele>
        <time>2020-08-22T12:45:59.000Z</time>
      </trkpt>
      <trkpt lat="44.09166" lon="6.972">
        <ele>1557</ele>
        <time>2020-08-22T12:46:00.000Z</time>
      </trkpt>
      <trkpt lat="44.09153" lon="6.97184">
        <ele>1557.8000488281</ele>
        <time>2020-08-22T12:46:08.000Z</time>
      </trkpt>
      <trkpt lat="44.09147" lon="6.97176">
        <ele>1558.8000488281</ele>
        <time>2020-08-22T12:46:12.000Z</time>
      </trkpt>
      <trkpt lat="44.09137" lon="6.97164">
        <ele>1560</ele>
        <time>2020-08-22T12:46:18.000Z</time>
      </trkpt>
      <trkpt lat="44.09126" lon="6.97152">
        <ele>1560.5999755859</ele>
        <time>2020-08-22T12:46:24.000Z</time>
      </trkpt>
      <trkpt lat="44.09122" lon="6.97145">
        <ele>1561</ele>
        <time>2020-08-22T12:46:27.000Z</time>
      </trkpt>
      <trkpt lat="44.09112" lon="6.97125">
        <ele>1562</ele>
        <time>2020-08-22T12:46:35.000Z</time>
      </trkpt>
      <trkpt lat="44.09111" lon="6.97123">
        <ele>1562.1999511719</ele>
        <time>2020-08-22T12:46:36.000Z</time>
      </trkpt>
      <trkpt lat="44.09104" lon="6.97104">
        <ele>1563.1999511719</ele>
        <time>2020-08-22T12:46:43.000Z</time>
      </trkpt>
      <trkpt lat="44.09103" lon="6.97101">
        <ele>1563.4000244141</ele>
        <time>2020-08-22T12:46:44.000Z</time>
      </trkpt>
      <trkpt lat="44.09099" lon="6.97088">
        <ele>1564.1999511719</ele>
        <time>2020-08-22T12:46:49.000Z</time>
      </trkpt>
      <trkpt lat="44.09093" lon="6.97068">
        <ele>1565.1999511719</ele>
        <time>2020-08-22T12:46:56.000Z</time>
      </trkpt>
      <trkpt lat="44.09093" lon="6.97065">
        <ele>1565.5999755859</ele>
        <time>2020-08-22T12:46:57.000Z</time>
      </trkpt>
      <trkpt lat="44.09087" lon="6.97035">
        <ele>1566.1999511719</ele>
        <time>2020-08-22T12:47:06.000Z</time>
      </trkpt>
      <trkpt lat="44.09081" lon="6.97001">
        <ele>1566.4000244141</ele>
        <time>2020-08-22T12:47:14.000Z</time>
      </trkpt>
      <trkpt lat="44.09077" lon="6.96974">
        <ele>1566</ele>
        <time>2020-08-22T12:47:20.000Z</time>
      </trkpt>
      <trkpt lat="44.09074" lon="6.96969">
        <ele>1565.5999755859</ele>
        <time>2020-08-22T12:47:24.000Z</time>
      </trkpt>
      <trkpt lat="44.09074" lon="6.9697">
        <ele>1566</ele>
        <time>2020-08-22T12:47:42.000Z</time>
      </trkpt>
      <trkpt lat="44.09073" lon="6.9697">
        <ele>1566</ele>
        <time>2020-08-22T12:48:05.000Z</time>
      </trkpt>
      <trkpt lat="44.09072" lon="6.96967">
        <ele>1565.8000488281</ele>
        <time>2020-08-22T12:48:27.000Z</time>
      </trkpt>
      <trkpt lat="44.0907" lon="6.96967">
        <ele>1565.8000488281</ele>
        <time>2020-08-22T12:48:29.000Z</time>
      </trkpt>
      <trkpt lat="44.09068" lon="6.96969">
        <ele>1565.5999755859</ele>
        <time>2020-08-22T12:48:31.000Z</time>
      </trkpt>
      <trkpt lat="44.09067" lon="6.96971">
        <ele>1565.4000244141</ele>
        <time>2020-08-22T12:48:32.000Z</time>
      </trkpt>
      <trkpt lat="44.09064" lon="6.96979">
        <ele>1565.5999755859</ele>
        <time>2020-08-22T12:48:36.000Z</time>
      </trkpt>
      <trkpt lat="44.09064" lon="6.96982">
        <ele>1565.8000488281</ele>
        <time>2020-08-22T12:48:37.000Z</time>
      </trkpt>
      <trkpt lat="44.09065" lon="6.96991">
        <ele>1565.8000488281</ele>
        <time>2020-08-22T12:48:40.000Z</time>
      </trkpt>
      <trkpt lat="44.09069" lon="6.97003">
        <ele>1565.5999755859</ele>
        <time>2020-08-22T12:48:44.000Z</time>
      </trkpt>
      <trkpt lat="44.09076" lon="6.97015">
        <ele>1565.5999755859</ele>
        <time>2020-08-22T12:48:48.000Z</time>
      </trkpt>
      <trkpt lat="44.09077" lon="6.97023">
        <ele>1565.5999755859</ele>
        <time>2020-08-22T12:48:50.000Z</time>
      </trkpt>
      <trkpt lat="44.09076" lon="6.97042">
        <ele>1566.4000244141</ele>
        <time>2020-08-22T12:48:56.000Z</time>
      </trkpt>
      <trkpt lat="44.09074" lon="6.97044">
        <ele>1566.4000244141</ele>
        <time>2020-08-22T12:48:57.000Z</time>
      </trkpt>
      <trkpt lat="44.09071" lon="6.97047">
        <ele>1566.5999755859</ele>
        <time>2020-08-22T12:48:58.000Z</time>
      </trkpt>
      <trkpt lat="44.09067" lon="6.97044">
        <ele>1566.4000244141</ele>
        <time>2020-08-22T12:48:59.000Z</time>
      </trkpt>
      <trkpt lat="44.09063" lon="6.97041">
        <ele>1566.4000244141</ele>
        <time>2020-08-22T12:49:00.000Z</time>
      </trkpt>
      <trkpt lat="44.09061" lon="6.97033">
        <ele>1566</ele>
        <time>2020-08-22T12:49:01.000Z</time>
      </trkpt>
      <trkpt lat="44.09058" lon="6.97026">
        <ele>1565.4000244141</ele>
        <time>2020-08-22T12:49:02.000Z</time>
      </trkpt>
      <trkpt lat="44.09055" lon="6.97019">
        <ele>1564.5999755859</ele>
        <time>2020-08-22T12:49:03.000Z</time>
      </trkpt>
      <trkpt lat="44.09051" lon="6.97012">
        <ele>1564</ele>
        <time>2020-08-22T12:49:04.000Z</time>
      </trkpt>
      <trkpt lat="44.09043" lon="6.96996">
        <ele>1563</ele>
        <time>2020-08-22T12:49:06.000Z</time>
      </trkpt>
      <trkpt lat="44.0904" lon="6.96987">
        <ele>1562.1999511719</ele>
        <time>2020-08-22T12:49:07.000Z</time>
      </trkpt>
      <trkpt lat="44.09036" lon="6.96979">
        <ele>1561.4000244141</ele>
        <time>2020-08-22T12:49:08.000Z</time>
      </trkpt>
      <trkpt lat="44.09033" lon="6.96969">
        <ele>1560.4000244141</ele>
        <time>2020-08-22T12:49:09.000Z</time>
      </trkpt>
      <trkpt lat="44.09026" lon="6.96951">
        <ele>1558.8000488281</ele>
        <time>2020-08-22T12:49:11.000Z</time>
      </trkpt>
      <trkpt lat="44.09022" lon="6.96942">
        <ele>1557.5999755859</ele>
        <time>2020-08-22T12:49:12.000Z</time>
      </trkpt>
      <trkpt lat="44.09014" lon="6.96923">
        <ele>1556.1999511719</ele>
        <time>2020-08-22T12:49:14.000Z</time>
      </trkpt>
      <trkpt lat="44.09006" lon="6.96907">
        <ele>1555</ele>
        <time>2020-08-22T12:49:16.000Z</time>
      </trkpt>
      <trkpt lat="44.09003" lon="6.96898">
        <ele>1554</ele>
        <time>2020-08-22T12:49:17.000Z</time>
      </trkpt>
      <trkpt lat="44.08999" lon="6.96889">
        <ele>1553.1999511719</ele>
        <time>2020-08-22T12:49:18.000Z</time>
      </trkpt>
      <trkpt lat="44.08995" lon="6.96881">
        <ele>1553.1999511719</ele>
        <time>2020-08-22T12:49:19.000Z</time>
      </trkpt>
      <trkpt lat="44.08975" lon="6.96843">
        <ele>1554.4000244141</ele>
        <time>2020-08-22T12:49:24.000Z</time>
      </trkpt>
      <trkpt lat="44.08966" lon="6.96834">
        <ele>1554.4000244141</ele>
        <time>2020-08-22T12:49:26.000Z</time>
      </trkpt>
      <trkpt lat="44.08952" lon="6.96833">
        <ele>1553.5999755859</ele>
        <time>2020-08-22T12:49:29.000Z</time>
      </trkpt>
      <trkpt lat="44.08948" lon="6.96834">
        <ele>1553.4000244141</ele>
        <time>2020-08-22T12:49:30.000Z</time>
      </trkpt>
      <trkpt lat="44.08944" lon="6.96837">
        <ele>1552.8000488281</ele>
        <time>2020-08-22T12:49:31.000Z</time>
      </trkpt>
      <trkpt lat="44.08932" lon="6.96849">
        <ele>1552.4000244141</ele>
        <time>2020-08-22T12:49:34.000Z</time>
      </trkpt>
      <trkpt lat="44.08925" lon="6.96857">
        <ele>1552.1999511719</ele>
        <time>2020-08-22T12:49:36.000Z</time>
      </trkpt>
      <trkpt lat="44.08918" lon="6.96865">
        <ele>1552</ele>
        <time>2020-08-22T12:49:38.000Z</time>
      </trkpt>
      <trkpt lat="44.08906" lon="6.96871">
        <ele>1551.8000488281</ele>
        <time>2020-08-22T12:49:41.000Z</time>
      </trkpt>
      <trkpt lat="44.08893" lon="6.96869">
        <ele>1551.8000488281</ele>
        <time>2020-08-22T12:49:44.000Z</time>
      </trkpt>
      <trkpt lat="44.08889" lon="6.96869">
        <ele>1551.8000488281</ele>
        <time>2020-08-22T12:49:45.000Z</time>
      </trkpt>
      <trkpt lat="44.08875" lon="6.96879">
        <ele>1551.5999755859</ele>
        <time>2020-08-22T12:49:49.000Z</time>
      </trkpt>
      <trkpt lat="44.08856" lon="6.96882">
        <ele>1553</ele>
        <time>2020-08-22T12:49:55.000Z</time>
      </trkpt>
      <trkpt lat="44.0885" lon="6.96879">
        <ele>1553.4000244141</ele>
        <time>2020-08-22T12:49:57.000Z</time>
      </trkpt>
      <trkpt lat="44.08841" lon="6.96875">
        <ele>1553.5999755859</ele>
        <time>2020-08-22T12:50:00.000Z</time>
      </trkpt>
      <trkpt lat="44.08821" lon="6.9687">
        <ele>1554.4000244141</ele>
        <time>2020-08-22T12:50:06.000Z</time>
      </trkpt>
      <trkpt lat="44.08815" lon="6.96869">
        <ele>1555</ele>
        <time>2020-08-22T12:50:08.000Z</time>
      </trkpt>
      <trkpt lat="44.08805" lon="6.96869">
        <ele>1555.5999755859</ele>
        <time>2020-08-22T12:50:11.000Z</time>
      </trkpt>
      <trkpt lat="44.0879" lon="6.96872">
        <ele>1556.1999511719</ele>
        <time>2020-08-22T12:50:16.000Z</time>
      </trkpt>
      <trkpt lat="44.08782" lon="6.96874">
        <ele>1556.5999755859</ele>
        <time>2020-08-22T12:50:19.000Z</time>
      </trkpt>
      <trkpt lat="44.08772" lon="6.96877">
        <ele>1557.8000488281</ele>
        <time>2020-08-22T12:50:23.000Z</time>
      </trkpt>
      <trkpt lat="44.08767" lon="6.9688">
        <ele>1558</ele>
        <time>2020-08-22T12:50:25.000Z</time>
      </trkpt>
      <trkpt lat="44.08753" lon="6.96883">
        <ele>1558.8000488281</ele>
        <time>2020-08-22T12:50:31.000Z</time>
      </trkpt>
      <trkpt lat="44.08751" lon="6.96883">
        <ele>1558.8000488281</ele>
        <time>2020-08-22T12:50:32.000Z</time>
      </trkpt>
      <trkpt lat="44.0873" lon="6.96881">
        <ele>1559.5999755859</ele>
        <time>2020-08-22T12:50:40.000Z</time>
      </trkpt>
      <trkpt lat="44.08723" lon="6.96881">
        <ele>1560</ele>
        <time>2020-08-22T12:50:43.000Z</time>
      </trkpt>
      <trkpt lat="44.08714" lon="6.9688">
        <ele>1560.5999755859</ele>
        <time>2020-08-22T12:50:47.000Z</time>
      </trkpt>
      <trkpt lat="44.0871" lon="6.96877">
        <ele>1561</ele>
        <time>2020-08-22T12:50:49.000Z</time>
      </trkpt>
      <trkpt lat="44.08701" lon="6.96869">
        <ele>1561.4000244141</ele>
        <time>2020-08-22T12:50:52.000Z</time>
      </trkpt>
      <trkpt lat="44.08697" lon="6.96863">
        <ele>1561.1999511719</ele>
        <time>2020-08-22T12:50:53.000Z</time>
      </trkpt>
      <trkpt lat="44.08692" lon="6.9685">
        <ele>1561</ele>
        <time>2020-08-22T12:50:55.000Z</time>
      </trkpt>
      <trkpt lat="44.0869" lon="6.96835">
        <ele>1559.5999755859</ele>
        <time>2020-08-22T12:50:57.000Z</time>
      </trkpt>
      <trkpt lat="44.08689" lon="6.9682">
        <ele>1558.4000244141</ele>
        <time>2020-08-22T12:50:59.000Z</time>
      </trkpt>
      <trkpt lat="44.08688" lon="6.96813">
        <ele>1557.8000488281</ele>
        <time>2020-08-22T12:51:00.000Z</time>
      </trkpt>
      <trkpt lat="44.08687" lon="6.96799">
        <ele>1557.4000244141</ele>
        <time>2020-08-22T12:51:02.000Z</time>
      </trkpt>
      <trkpt lat="44.08681" lon="6.96764">
        <ele>1557.4000244141</ele>
        <time>2020-08-22T12:51:07.000Z</time>
      </trkpt>
      <trkpt lat="44.08672" lon="6.96728">
        <ele>1557.5999755859</ele>
        <time>2020-08-22T12:51:13.000Z</time>
      </trkpt>
      <trkpt lat="44.08664" lon="6.96693">
        <ele>1556.5999755859</ele>
        <time>2020-08-22T12:51:20.000Z</time>
      </trkpt>
      <trkpt lat="44.08655" lon="6.96655">
        <ele>1556.8000488281</ele>
        <time>2020-08-22T12:51:28.000Z</time>
      </trkpt>
      <trkpt lat="44.08652" lon="6.96643">
        <ele>1556.5999755859</ele>
        <time>2020-08-22T12:51:30.000Z</time>
      </trkpt>
      <trkpt lat="44.08648" lon="6.96628">
        <ele>1556.4000244141</ele>
        <time>2020-08-22T12:51:32.000Z</time>
      </trkpt>
      <trkpt lat="44.08646" lon="6.96619">
        <ele>1556.1999511719</ele>
        <time>2020-08-22T12:51:33.000Z</time>
      </trkpt>
      <trkpt lat="44.08645" lon="6.96611">
        <ele>1555.8000488281</ele>
        <time>2020-08-22T12:51:34.000Z</time>
      </trkpt>
      <trkpt lat="44.08644" lon="6.9659">
        <ele>1554.5999755859</ele>
        <time>2020-08-22T12:51:36.000Z</time>
      </trkpt>
      <trkpt lat="44.08643" lon="6.9658">
        <ele>1553.8000488281</ele>
        <time>2020-08-22T12:51:37.000Z</time>
      </trkpt>
      <trkpt lat="44.08641" lon="6.9657">
        <ele>1552.8000488281</ele>
        <time>2020-08-22T12:51:38.000Z</time>
      </trkpt>
      <trkpt lat="44.0864" lon="6.96553">
        <ele>1552</ele>
        <time>2020-08-22T12:51:40.000Z</time>
      </trkpt>
      <trkpt lat="44.0864" lon="6.96543">
        <ele>1551.4000244141</ele>
        <time>2020-08-22T12:51:41.000Z</time>
      </trkpt>
      <trkpt lat="44.08639" lon="6.96526">
        <ele>1550.1999511719</ele>
        <time>2020-08-22T12:51:43.000Z</time>
      </trkpt>
      <trkpt lat="44.08639" lon="6.9651">
        <ele>1549</ele>
        <time>2020-08-22T12:51:45.000Z</time>
      </trkpt>
      <trkpt lat="44.08639" lon="6.96503">
        <ele>1548.8000488281</ele>
        <time>2020-08-22T12:51:46.000Z</time>
      </trkpt>
      <trkpt lat="44.08636" lon="6.96472">
        <ele>1549.1999511719</ele>
        <time>2020-08-22T12:51:50.000Z</time>
      </trkpt>
      <trkpt lat="44.08636" lon="6.96466">
        <ele>1548.8000488281</ele>
        <time>2020-08-22T12:51:51.000Z</time>
      </trkpt>
      <trkpt lat="44.08637" lon="6.96455">
        <ele>1548.5999755859</ele>
        <time>2020-08-22T12:51:53.000Z</time>
      </trkpt>
      <trkpt lat="44.08636" lon="6.96438">
        <ele>1549.1999511719</ele>
        <time>2020-08-22T12:51:56.000Z</time>
      </trkpt>
      <trkpt lat="44.08633" lon="6.96427">
        <ele>1549.4000244141</ele>
        <time>2020-08-22T12:51:58.000Z</time>
      </trkpt>
      <trkpt lat="44.08628" lon="6.96393">
        <ele>1548.5999755859</ele>
        <time>2020-08-22T12:52:04.000Z</time>
      </trkpt>
      <trkpt lat="44.08626" lon="6.9637">
        <ele>1549.4000244141</ele>
        <time>2020-08-22T12:52:09.000Z</time>
      </trkpt>
      <trkpt lat="44.08626" lon="6.96362">
        <ele>1550.1999511719</ele>
        <time>2020-08-22T12:52:12.000Z</time>
      </trkpt>
      <trkpt lat="44.08625" lon="6.96359">
        <ele>1550.8000488281</ele>
        <time>2020-08-22T12:52:14.000Z</time>
      </trkpt>
      <trkpt lat="44.08624" lon="6.96358">
        <ele>1551</ele>
        <time>2020-08-22T12:52:15.000Z</time>
      </trkpt>
      <trkpt lat="44.0862" lon="6.96359">
        <ele>1551.1999511719</ele>
        <time>2020-08-22T12:52:17.000Z</time>
      </trkpt>
      <trkpt lat="44.08615" lon="6.96361">
        <ele>1551.1999511719</ele>
        <time>2020-08-22T12:52:20.000Z</time>
      </trkpt>
      <trkpt lat="44.08606" lon="6.9636">
        <ele>1552.4000244141</ele>
        <time>2020-08-22T12:52:26.000Z</time>
      </trkpt>
      <trkpt lat="44.08599" lon="6.96357">
        <ele>1553.5999755859</ele>
        <time>2020-08-22T12:52:32.000Z</time>
      </trkpt>
      <trkpt lat="44.08598" lon="6.96357">
        <ele>1554.1999511719</ele>
        <time>2020-08-22T12:52:37.000Z</time>
      </trkpt>
      <trkpt lat="44.08598" lon="6.96358">
        <ele>1554.5999755859</ele>
        <time>2020-08-22T12:52:41.000Z</time>
      </trkpt>
      <trkpt lat="44.08598" lon="6.96358">
        <ele>1554.4000244141</ele>
        <time>2020-08-22T12:52:45.000Z</time>
      </trkpt>
      <trkpt lat="44.08599" lon="6.96359">
        <ele>1554</ele>
        <time>2020-08-22T12:52:55.000Z</time>
      </trkpt>
      <trkpt lat="44.08599" lon="6.9636">
        <ele>1554.1999511719</ele>
        <time>2020-08-22T12:53:01.000Z</time>
      </trkpt>
      <trkpt lat="44.08599" lon="6.9636">
        <ele>1554.4000244141</ele>
        <time>2020-08-22T12:53:06.000Z</time>
      </trkpt>
      <trkpt lat="44.08599" lon="6.96361">
        <ele>1554.8000488281</ele>
        <time>2020-08-22T12:53:17.000Z</time>
      </trkpt>
      <trkpt lat="44.08599" lon="6.96361">
        <ele>1554</ele>
        <time>2020-08-22T12:53:23.000Z</time>
      </trkpt>
      <trkpt lat="44.08599" lon="6.96361">
        <ele>1553.5999755859</ele>
        <time>2020-08-22T12:53:25.000Z</time>
      </trkpt>
      <trkpt lat="44.08599" lon="6.96363">
        <ele>1553.1999511719</ele>
        <time>2020-08-22T12:53:34.000Z</time>
      </trkpt>
      <trkpt lat="44.08597" lon="6.96364">
        <ele>1553.4000244141</ele>
        <time>2020-08-22T12:53:47.000Z</time>
      </trkpt>
      <trkpt lat="44.08597" lon="6.96367">
        <ele>1553.4000244141</ele>
        <time>2020-08-22T12:54:07.000Z</time>
      </trkpt>
      <trkpt lat="44.08597" lon="6.96368">
        <ele>1553.1999511719</ele>
        <time>2020-08-22T12:54:26.000Z</time>
      </trkpt>
      <trkpt lat="44.08596" lon="6.96369">
        <ele>1553</ele>
        <time>2020-08-22T12:54:47.000Z</time>
      </trkpt>
      <trkpt lat="44.08596" lon="6.96368">
        <ele>1553.4000244141</ele>
        <time>2020-08-22T12:54:56.000Z</time>
      </trkpt>
      <trkpt lat="44.08596" lon="6.96367">
        <ele>1554.5999755859</ele>
        <time>2020-08-22T12:55:07.000Z</time>
      </trkpt>
      <trkpt lat="44.08596" lon="6.96366">
        <ele>1554.5999755859</ele>
        <time>2020-08-22T12:55:13.000Z</time>
      </trkpt>
      <trkpt lat="44.08596" lon="6.96366">
        <ele>1554.8000488281</ele>
        <time>2020-08-22T12:55:15.000Z</time>
      </trkpt>
      <trkpt lat="44.08596" lon="6.96366">
        <ele>1554.8000488281</ele>
        <time>2020-08-22T12:55:21.000Z</time>
      </trkpt>
      <trkpt lat="44.08595" lon="6.96366">
        <ele>1554.5999755859</ele>
        <time>2020-08-22T12:55:25.000Z</time>
      </trkpt>
      <trkpt lat="44.08595" lon="6.96365">
        <ele>1554.8000488281</ele>
        <time>2020-08-22T12:55:26.000Z</time>
      </trkpt>
      <trkpt lat="44.08594" lon="6.96365">
        <ele>1554.8000488281</ele>
        <time>2020-08-22T12:55:29.000Z</time>
      </trkpt>
      <trkpt lat="44.08593" lon="6.96362">
        <ele>1554.8000488281</ele>
        <time>2020-08-22T12:55:30.000Z</time>
      </trkpt>
      <trkpt lat="44.0859" lon="6.9636">
        <ele>1555</ele>
        <time>2020-08-22T12:55:33.000Z</time>
      </trkpt>
      <trkpt lat="44.08587" lon="6.96357">
        <ele>1555.8000488281</ele>
        <time>2020-08-22T12:55:36.000Z</time>
      </trkpt>
      <trkpt lat="44.08583" lon="6.96353">
        <ele>1556.8000488281</ele>
        <time>2020-08-22T12:55:41.000Z</time>
      </trkpt>
      <trkpt lat="44.08578" lon="6.96347">
        <ele>1557.8000488281</ele>
        <time>2020-08-22T12:55:46.000Z</time>
      </trkpt>
      <trkpt lat="44.08576" lon="6.96346">
        <ele>1558.1999511719</ele>
        <time>2020-08-22T12:55:48.000Z</time>
      </trkpt>
      <trkpt lat="44.08571" lon="6.96342">
        <ele>1559.1999511719</ele>
        <time>2020-08-22T12:55:53.000Z</time>
      </trkpt>
      <trkpt lat="44.08567" lon="6.96339">
        <ele>1560</ele>
        <time>2020-08-22T12:55:57.000Z</time>
      </trkpt>
      <trkpt lat="44.08566" lon="6.96338">
        <ele>1560.1999511719</ele>
        <time>2020-08-22T12:55:58.000Z</time>
      </trkpt>
      <trkpt lat="44.08561" lon="6.96334">
        <ele>1561.1999511719</ele>
        <time>2020-08-22T12:56:03.000Z</time>
      </trkpt>
      <trkpt lat="44.0856" lon="6.96334">
        <ele>1561.4000244141</ele>
        <time>2020-08-22T12:56:04.000Z</time>
      </trkpt>
      <trkpt lat="44.08556" lon="6.96328">
        <ele>1562.4000244141</ele>
        <time>2020-08-22T12:56:09.000Z</time>
      </trkpt>
      <trkpt lat="44.08551" lon="6.96323">
        <ele>1563.5999755859</ele>
        <time>2020-08-22T12:56:15.000Z</time>
      </trkpt>
      <trkpt lat="44.0855" lon="6.96322">
        <ele>1563.8000488281</ele>
        <time>2020-08-22T12:56:16.000Z</time>
      </trkpt>
      <trkpt lat="44.08544" lon="6.96317">
        <ele>1564.8000488281</ele>
        <time>2020-08-22T12:56:22.000Z</time>
      </trkpt>
      <trkpt lat="44.08543" lon="6.96315">
        <ele>1565</ele>
        <time>2020-08-22T12:56:23.000Z</time>
      </trkpt>
      <trkpt lat="44.08539" lon="6.9631">
        <ele>1565.8000488281</ele>
        <time>2020-08-22T12:56:28.000Z</time>
      </trkpt>
      <trkpt lat="44.08537" lon="6.96308">
        <ele>1566</ele>
        <time>2020-08-22T12:56:30.000Z</time>
      </trkpt>
      <trkpt lat="44.08533" lon="6.96302">
        <ele>1567</ele>
        <time>2020-08-22T12:56:35.000Z</time>
      </trkpt>
      <trkpt lat="44.08533" lon="6.96301">
        <ele>1567.1999511719</ele>
        <time>2020-08-22T12:56:36.000Z</time>
      </trkpt>
      <trkpt lat="44.0853" lon="6.96295">
        <ele>1568</ele>
        <time>2020-08-22T12:56:41.000Z</time>
      </trkpt>
      <trkpt lat="44.08528" lon="6.96292">
        <ele>1568.5999755859</ele>
        <time>2020-08-22T12:56:44.000Z</time>
      </trkpt>
      <trkpt lat="44.08527" lon="6.96289">
        <ele>1569.1999511719</ele>
        <time>2020-08-22T12:56:47.000Z</time>
      </trkpt>
      <trkpt lat="44.08524" lon="6.96284">
        <ele>1570.4000244141</ele>
        <time>2020-08-22T12:56:52.000Z</time>
      </trkpt>
      <trkpt lat="44.08523" lon="6.96283">
        <ele>1570.5999755859</ele>
        <time>2020-08-22T12:56:53.000Z</time>
      </trkpt>
      <trkpt lat="44.08519" lon="6.96279">
        <ele>1571.4000244141</ele>
        <time>2020-08-22T12:56:58.000Z</time>
      </trkpt>
      <trkpt lat="44.08514" lon="6.96275">
        <ele>1572.5999755859</ele>
        <time>2020-08-22T12:57:04.000Z</time>
      </trkpt>
      <trkpt lat="44.08514" lon="6.96274">
        <ele>1572.8000488281</ele>
        <time>2020-08-22T12:57:05.000Z</time>
      </trkpt>
      <trkpt lat="44.08512" lon="6.96272">
        <ele>1573</ele>
        <time>2020-08-22T12:57:07.000Z</time>
      </trkpt>
      <trkpt lat="44.0851" lon="6.96271">
        <ele>1573.8000488281</ele>
        <time>2020-08-22T12:57:09.000Z</time>
      </trkpt>
      <trkpt lat="44.08509" lon="6.96271">
        <ele>1574.1999511719</ele>
        <time>2020-08-22T12:57:11.000Z</time>
      </trkpt>
      <trkpt lat="44.08508" lon="6.9627">
        <ele>1574.4000244141</ele>
        <time>2020-08-22T12:57:12.000Z</time>
      </trkpt>
      <trkpt lat="44.08506" lon="6.96269">
        <ele>1574.8000488281</ele>
        <time>2020-08-22T12:57:14.000Z</time>
      </trkpt>
      <trkpt lat="44.08505" lon="6.96268">
        <ele>1575</ele>
        <time>2020-08-22T12:57:15.000Z</time>
      </trkpt>
      <trkpt lat="44.08501" lon="6.96265">
        <ele>1575.8000488281</ele>
        <time>2020-08-22T12:57:20.000Z</time>
      </trkpt>
      <trkpt lat="44.08501" lon="6.96265">
        <ele>1575.8000488281</ele>
        <time>2020-08-22T12:57:21.000Z</time>
      </trkpt>
      <trkpt lat="44.08501" lon="6.96266">
        <ele>1576.1999511719</ele>
        <time>2020-08-22T12:57:23.000Z</time>
      </trkpt>
      <trkpt lat="44.085" lon="6.96266">
        <ele>1576.5999755859</ele>
        <time>2020-08-22T12:57:25.000Z</time>
      </trkpt>
      <trkpt lat="44.08497" lon="6.96266">
        <ele>1576.8000488281</ele>
        <time>2020-08-22T12:57:28.000Z</time>
      </trkpt>
      <trkpt lat="44.08493" lon="6.96265">
        <ele>1577.4000244141</ele>
        <time>2020-08-22T12:57:32.000Z</time>
      </trkpt>
      <trkpt lat="44.08491" lon="6.96262">
        <ele>1577.8000488281</ele>
        <time>2020-08-22T12:57:35.000Z</time>
      </trkpt>
      <trkpt lat="44.08489" lon="6.96261">
        <ele>1578.1999511719</ele>
        <time>2020-08-22T12:57:37.000Z</time>
      </trkpt>
      <trkpt lat="44.08488" lon="6.9626">
        <ele>1578.1999511719</ele>
        <time>2020-08-22T12:57:38.000Z</time>
      </trkpt>
      <trkpt lat="44.08485" lon="6.96257">
        <ele>1578.4000244141</ele>
        <time>2020-08-22T12:57:42.000Z</time>
      </trkpt>
      <trkpt lat="44.08482" lon="6.96256">
        <ele>1579</ele>
        <time>2020-08-22T12:57:45.000Z</time>
      </trkpt>
      <trkpt lat="44.08481" lon="6.96255">
        <ele>1579</ele>
        <time>2020-08-22T12:57:46.000Z</time>
      </trkpt>
      <trkpt lat="44.08478" lon="6.96252">
        <ele>1579.4000244141</ele>
        <time>2020-08-22T12:57:49.000Z</time>
      </trkpt>
      <trkpt lat="44.08476" lon="6.96251">
        <ele>1579.5999755859</ele>
        <time>2020-08-22T12:57:51.000Z</time>
      </trkpt>
      <trkpt lat="44.08473" lon="6.96247">
        <ele>1580</ele>
        <time>2020-08-22T12:57:54.000Z</time>
      </trkpt>
      <trkpt lat="44.0847" lon="6.96244">
        <ele>1580.1999511719</ele>
        <time>2020-08-22T12:57:57.000Z</time>
      </trkpt>
      <trkpt lat="44.08458" lon="6.96241">
        <ele>1580.5999755859</ele>
        <time>2020-08-22T12:58:04.000Z</time>
      </trkpt>
      <trkpt lat="44.08452" lon="6.96239">
        <ele>1580</ele>
        <time>2020-08-22T12:58:09.000Z</time>
      </trkpt>
      <trkpt lat="44.08448" lon="6.96239">
        <ele>1580</ele>
        <time>2020-08-22T12:58:19.000Z</time>
      </trkpt>
      <trkpt lat="44.08437" lon="6.96241">
        <ele>1579.4000244141</ele>
        <time>2020-08-22T12:58:25.000Z</time>
      </trkpt>
      <trkpt lat="44.08426" lon="6.96239">
        <ele>1578.8000488281</ele>
        <time>2020-08-22T12:58:29.000Z</time>
      </trkpt>
      <trkpt lat="44.08419" lon="6.96239">
        <ele>1578.8000488281</ele>
        <time>2020-08-22T12:58:31.000Z</time>
      </trkpt>
      <trkpt lat="44.08395" lon="6.96231">
        <ele>1577.1999511719</ele>
        <time>2020-08-22T12:58:37.000Z</time>
      </trkpt>
      <trkpt lat="44.08381" lon="6.96222">
        <ele>1576.1999511719</ele>
        <time>2020-08-22T12:58:40.000Z</time>
      </trkpt>
      <trkpt lat="44.08368" lon="6.96213">
        <ele>1575.1999511719</ele>
        <time>2020-08-22T12:58:43.000Z</time>
      </trkpt>
      <trkpt lat="44.08364" lon="6.9621">
        <ele>1574.8000488281</ele>
        <time>2020-08-22T12:58:44.000Z</time>
      </trkpt>
      <trkpt lat="44.0836" lon="6.96208">
        <ele>1574.5999755859</ele>
        <time>2020-08-22T12:58:45.000Z</time>
      </trkpt>
      <trkpt lat="44.0835" lon="6.96202">
        <ele>1574</ele>
        <time>2020-08-22T12:58:48.000Z</time>
      </trkpt>
      <trkpt lat="44.08349" lon="6.96202">
        <ele>1574</ele>
        <time>2020-08-22T12:58:49.000Z</time>
      </trkpt>
      <trkpt lat="44.0835" lon="6.96203">
        <ele>1574</ele>
        <time>2020-08-22T12:58:53.000Z</time>
      </trkpt>
      <trkpt lat="44.0835" lon="6.96202">
        <ele>1574</ele>
        <time>2020-08-22T12:58:59.000Z</time>
      </trkpt>
      <trkpt lat="44.0835" lon="6.96202">
        <ele>1574.4000244141</ele>
        <time>2020-08-22T12:59:05.000Z</time>
      </trkpt>
      <trkpt lat="44.0835" lon="6.96202">
        <ele>1574.1999511719</ele>
        <time>2020-08-22T12:59:15.000Z</time>
      </trkpt>
      <trkpt lat="44.08348" lon="6.96204">
        <ele>1574.4000244141</ele>
        <time>2020-08-22T12:59:22.000Z</time>
      </trkpt>
      <trkpt lat="44.08349" lon="6.96204">
        <ele>1574.1999511719</ele>
        <time>2020-08-22T12:59:23.000Z</time>
      </trkpt>
      <trkpt lat="44.08348" lon="6.96203">
        <ele>1574.4000244141</ele>
        <time>2020-08-22T12:59:27.000Z</time>
      </trkpt>
      <trkpt lat="44.08344" lon="6.962">
        <ele>1574.5999755859</ele>
        <time>2020-08-22T12:59:29.000Z</time>
      </trkpt>
      <trkpt lat="44.0833" lon="6.96188">
        <ele>1573.8000488281</ele>
        <time>2020-08-22T12:59:34.000Z</time>
      </trkpt>
      <trkpt lat="44.08324" lon="6.96174">
        <ele>1573.5999755859</ele>
        <time>2020-08-22T12:59:37.000Z</time>
      </trkpt>
      <trkpt lat="44.08322" lon="6.96167">
        <ele>1573.8000488281</ele>
        <time>2020-08-22T12:59:38.000Z</time>
      </trkpt>
      <trkpt lat="44.08318" lon="6.96153">
        <ele>1573</ele>
        <time>2020-08-22T12:59:40.000Z</time>
      </trkpt>
      <trkpt lat="44.08314" lon="6.96135">
        <ele>1572</ele>
        <time>2020-08-22T12:59:42.000Z</time>
      </trkpt>
      <trkpt lat="44.0831" lon="6.96118">
        <ele>1570.4000244141</ele>
        <time>2020-08-22T12:59:44.000Z</time>
      </trkpt>
      <trkpt lat="44.08304" lon="6.96091">
        <ele>1569.1999511719</ele>
        <time>2020-08-22T12:59:47.000Z</time>
      </trkpt>
      <trkpt lat="44.083" lon="6.96071">
        <ele>1568.4000244141</ele>
        <time>2020-08-22T12:59:49.000Z</time>
      </trkpt>
      <trkpt lat="44.08298" lon="6.96061">
        <ele>1567.8000488281</ele>
        <time>2020-08-22T12:59:50.000Z</time>
      </trkpt>
      <trkpt lat="44.08298" lon="6.9605">
        <ele>1567.4000244141</ele>
        <time>2020-08-22T12:59:51.000Z</time>
      </trkpt>
      <trkpt lat="44.08299" lon="6.96027">
        <ele>1566</ele>
        <time>2020-08-22T12:59:53.000Z</time>
      </trkpt>
      <trkpt lat="44.08301" lon="6.96014">
        <ele>1564.8000488281</ele>
        <time>2020-08-22T12:59:54.000Z</time>
      </trkpt>
      <trkpt lat="44.08302" lon="6.96004">
        <ele>1563.4000244141</ele>
        <time>2020-08-22T12:59:55.000Z</time>
      </trkpt>
      <trkpt lat="44.08304" lon="6.95989">
        <ele>1561.8000488281</ele>
        <time>2020-08-22T12:59:56.000Z</time>
      </trkpt>
      <trkpt lat="44.08305" lon="6.95975">
        <ele>1563</ele>
        <time>2020-08-22T12:59:57.000Z</time>
      </trkpt>
      <trkpt lat="44.08305" lon="6.95961">
        <ele>1562.1999511719</ele>
        <time>2020-08-22T12:59:58.000Z</time>
      </trkpt>
      <trkpt lat="44.08304" lon="6.95948">
        <ele>1560.8000488281</ele>
        <time>2020-08-22T12:59:59.000Z</time>
      </trkpt>
      <trkpt lat="44.08305" lon="6.95932">
        <ele>1560</ele>
        <time>2020-08-22T13:00:00.000Z</time>
      </trkpt>
      <trkpt lat="44.08306" lon="6.95919">
        <ele>1559</ele>
        <time>2020-08-22T13:00:01.000Z</time>
      </trkpt>
      <trkpt lat="44.08308" lon="6.95903">
        <ele>1557.4000244141</ele>
        <time>2020-08-22T13:00:02.000Z</time>
      </trkpt>
      <trkpt lat="44.08309" lon="6.95888">
        <ele>1555.8000488281</ele>
        <time>2020-08-22T13:00:03.000Z</time>
      </trkpt>
      <trkpt lat="44.08315" lon="6.95861">
        <ele>1553.5999755859</ele>
        <time>2020-08-22T13:00:05.000Z</time>
      </trkpt>
      <trkpt lat="44.08318" lon="6.95845">
        <ele>1550.8000488281</ele>
        <time>2020-08-22T13:00:06.000Z</time>
      </trkpt>
      <trkpt lat="44.08322" lon="6.95829">
        <ele>1549.4000244141</ele>
        <time>2020-08-22T13:00:07.000Z</time>
      </trkpt>
      <trkpt lat="44.08326" lon="6.95814">
        <ele>1547.5999755859</ele>
        <time>2020-08-22T13:00:08.000Z</time>
      </trkpt>
      <trkpt lat="44.0833" lon="6.95798">
        <ele>1545.8000488281</ele>
        <time>2020-08-22T13:00:09.000Z</time>
      </trkpt>
      <trkpt lat="44.08334" lon="6.95781">
        <ele>1543.8000488281</ele>
        <time>2020-08-22T13:00:10.000Z</time>
      </trkpt>
      <trkpt lat="44.08336" lon="6.95766">
        <ele>1542</ele>
        <time>2020-08-22T13:00:11.000Z</time>
      </trkpt>
      <trkpt lat="44.08339" lon="6.95749">
        <ele>1540.1999511719</ele>
        <time>2020-08-22T13:00:12.000Z</time>
      </trkpt>
      <trkpt lat="44.0834" lon="6.95734">
        <ele>1538</ele>
        <time>2020-08-22T13:00:13.000Z</time>
      </trkpt>
      <trkpt lat="44.08341" lon="6.95718">
        <ele>1536</ele>
        <time>2020-08-22T13:00:14.000Z</time>
      </trkpt>
      <trkpt lat="44.08342" lon="6.95704">
        <ele>1534.1999511719</ele>
        <time>2020-08-22T13:00:15.000Z</time>
      </trkpt>
      <trkpt lat="44.08342" lon="6.95692">
        <ele>1532.4000244141</ele>
        <time>2020-08-22T13:00:16.000Z</time>
      </trkpt>
      <trkpt lat="44.08344" lon="6.95681">
        <ele>1530.8000488281</ele>
        <time>2020-08-22T13:00:17.000Z</time>
      </trkpt>
      <trkpt lat="44.08348" lon="6.9567">
        <ele>1529.4000244141</ele>
        <time>2020-08-22T13:00:18.000Z</time>
      </trkpt>
      <trkpt lat="44.08353" lon="6.95663">
        <ele>1528.1999511719</ele>
        <time>2020-08-22T13:00:19.000Z</time>
      </trkpt>
      <trkpt lat="44.08367" lon="6.95654">
        <ele>1527.1999511719</ele>
        <time>2020-08-22T13:00:21.000Z</time>
      </trkpt>
      <trkpt lat="44.08381" lon="6.9565">
        <ele>1526</ele>
        <time>2020-08-22T13:00:23.000Z</time>
      </trkpt>
      <trkpt lat="44.08387" lon="6.9565">
        <ele>1525.1999511719</ele>
        <time>2020-08-22T13:00:24.000Z</time>
      </trkpt>
      <trkpt lat="44.0841" lon="6.95649">
        <ele>1525.8000488281</ele>
        <time>2020-08-22T13:00:29.000Z</time>
      </trkpt>
      <trkpt lat="44.08425" lon="6.95649">
        <ele>1525.8000488281</ele>
        <time>2020-08-22T13:00:34.000Z</time>
      </trkpt>
      <trkpt lat="44.08439" lon="6.95657">
        <ele>1525.8000488281</ele>
        <time>2020-08-22T13:00:39.000Z</time>
      </trkpt>
      <trkpt lat="44.08456" lon="6.95665">
        <ele>1526.8000488281</ele>
        <time>2020-08-22T13:00:44.000Z</time>
      </trkpt>
      <trkpt lat="44.08459" lon="6.95666">
        <ele>1527.1999511719</ele>
        <time>2020-08-22T13:00:45.000Z</time>
      </trkpt>
      <trkpt lat="44.08472" lon="6.95672">
        <ele>1528.1999511719</ele>
        <time>2020-08-22T13:00:49.000Z</time>
      </trkpt>
      <trkpt lat="44.08489" lon="6.95679">
        <ele>1529</ele>
        <time>2020-08-22T13:00:54.000Z</time>
      </trkpt>
      <trkpt lat="44.08494" lon="6.9568">
        <ele>1529.4000244141</ele>
        <time>2020-08-22T13:00:56.000Z</time>
      </trkpt>
      <trkpt lat="44.08503" lon="6.95682">
        <ele>1530.5999755859</ele>
        <time>2020-08-22T13:00:59.000Z</time>
      </trkpt>
      <trkpt lat="44.08508" lon="6.9568">
        <ele>1531.4000244141</ele>
        <time>2020-08-22T13:01:01.000Z</time>
      </trkpt>
      <trkpt lat="44.0851" lon="6.95678">
        <ele>1531.8000488281</ele>
        <time>2020-08-22T13:01:02.000Z</time>
      </trkpt>
      <trkpt lat="44.08514" lon="6.95668">
        <ele>1532.5999755859</ele>
        <time>2020-08-22T13:01:05.000Z</time>
      </trkpt>
      <trkpt lat="44.08514" lon="6.95664">
        <ele>1532.5999755859</ele>
        <time>2020-08-22T13:01:06.000Z</time>
      </trkpt>
      <trkpt lat="44.08515" lon="6.95659">
        <ele>1532.8000488281</ele>
        <time>2020-08-22T13:01:07.000Z</time>
      </trkpt>
      <trkpt lat="44.08522" lon="6.95636">
        <ele>1533.5999755859</ele>
        <time>2020-08-22T13:01:12.000Z</time>
      </trkpt>
      <trkpt lat="44.08523" lon="6.9563">
        <ele>1533.8000488281</ele>
        <time>2020-08-22T13:01:14.000Z</time>
      </trkpt>
      <trkpt lat="44.08522" lon="6.95623">
        <ele>1533.8000488281</ele>
        <time>2020-08-22T13:01:16.000Z</time>
      </trkpt>
      <trkpt lat="44.08523" lon="6.9562">
        <ele>1533.8000488281</ele>
        <time>2020-08-22T13:01:17.000Z</time>
      </trkpt>
      <trkpt lat="44.08525" lon="6.95613">
        <ele>1534.1999511719</ele>
        <time>2020-08-22T13:01:20.000Z</time>
      </trkpt>
      <trkpt lat="44.08521" lon="6.95603">
        <ele>1535</ele>
        <time>2020-08-22T13:01:25.000Z</time>
      </trkpt>
      <trkpt lat="44.08513" lon="6.95594">
        <ele>1536</ele>
        <time>2020-08-22T13:01:31.000Z</time>
      </trkpt>
      <trkpt lat="44.08511" lon="6.95592">
        <ele>1536.4000244141</ele>
        <time>2020-08-22T13:01:32.000Z</time>
      </trkpt>
      <trkpt lat="44.08508" lon="6.95589">
        <ele>1537</ele>
        <time>2020-08-22T13:01:35.000Z</time>
      </trkpt>
      <trkpt lat="44.08503" lon="6.95585">
        <ele>1537.5999755859</ele>
        <time>2020-08-22T13:01:38.000Z</time>
      </trkpt>
      <trkpt lat="44.08501" lon="6.95582">
        <ele>1538.1999511719</ele>
        <time>2020-08-22T13:01:40.000Z</time>
      </trkpt>
      <trkpt lat="44.08498" lon="6.9558">
        <ele>1539.1999511719</ele>
        <time>2020-08-22T13:01:43.000Z</time>
      </trkpt>
      <trkpt lat="44.08491" lon="6.95579">
        <ele>1540.4000244141</ele>
        <time>2020-08-22T13:01:48.000Z</time>
      </trkpt>
      <trkpt lat="44.0849" lon="6.95579">
        <ele>1540.5999755859</ele>
        <time>2020-08-22T13:01:49.000Z</time>
      </trkpt>
      <trkpt lat="44.08486" lon="6.95581">
        <ele>1541.5999755859</ele>
        <time>2020-08-22T13:01:53.000Z</time>
      </trkpt>
      <trkpt lat="44.08484" lon="6.95581">
        <ele>1541.5999755859</ele>
        <time>2020-08-22T13:01:54.000Z</time>
      </trkpt>
      <trkpt lat="44.08483" lon="6.95581">
        <ele>1542.1999511719</ele>
        <time>2020-08-22T13:01:56.000Z</time>
      </trkpt>
      <trkpt lat="44.08482" lon="6.9558">
        <ele>1542.4000244141</ele>
        <time>2020-08-22T13:01:57.000Z</time>
      </trkpt>
      <trkpt lat="44.08481" lon="6.95579">
        <ele>1542.5999755859</ele>
        <time>2020-08-22T13:01:58.000Z</time>
      </trkpt>
      <trkpt lat="44.08482" lon="6.95575">
        <ele>1543.1999511719</ele>
        <time>2020-08-22T13:02:01.000Z</time>
      </trkpt>
      <trkpt lat="44.08482" lon="6.95573">
        <ele>1543.5999755859</ele>
        <time>2020-08-22T13:02:04.000Z</time>
      </trkpt>
      <trkpt lat="44.08483" lon="6.95573">
        <ele>1543.5999755859</ele>
        <time>2020-08-22T13:02:06.000Z</time>
      </trkpt>
      <trkpt lat="44.08482" lon="6.95573">
        <ele>1543.8000488281</ele>
        <time>2020-08-22T13:02:12.000Z</time>
      </trkpt>
      <trkpt lat="44.08479" lon="6.95571">
        <ele>1544.1999511719</ele>
        <time>2020-08-22T13:02:19.000Z</time>
      </trkpt>
      <trkpt lat="44.08476" lon="6.95568">
        <ele>1544.8000488281</ele>
        <time>2020-08-22T13:02:24.000Z</time>
      </trkpt>
      <trkpt lat="44.08475" lon="6.95567">
        <ele>1544.8000488281</ele>
        <time>2020-08-22T13:02:25.000Z</time>
      </trkpt>
      <trkpt lat="44.08472" lon="6.95563">
        <ele>1546</ele>
        <time>2020-08-22T13:02:30.000Z</time>
      </trkpt>
      <trkpt lat="44.08469" lon="6.95559">
        <ele>1547</ele>
        <time>2020-08-22T13:02:35.000Z</time>
      </trkpt>
      <trkpt lat="44.08466" lon="6.95553">
        <ele>1548.1999511719</ele>
        <time>2020-08-22T13:02:41.000Z</time>
      </trkpt>
      <trkpt lat="44.08465" lon="6.9555">
        <ele>1548.5999755859</ele>
        <time>2020-08-22T13:02:44.000Z</time>
      </trkpt>
      <trkpt lat="44.08463" lon="6.95546">
        <ele>1549.1999511719</ele>
        <time>2020-08-22T13:02:48.000Z</time>
      </trkpt>
      <trkpt lat="44.08462" lon="6.95542">
        <ele>1549.8000488281</ele>
        <time>2020-08-22T13:02:52.000Z</time>
      </trkpt>
      <trkpt lat="44.08462" lon="6.95543">
        <ele>1550.1999511719</ele>
        <time>2020-08-22T13:02:55.000Z</time>
      </trkpt>
      <trkpt lat="44.08461" lon="6.95542">
        <ele>1550.1999511719</ele>
        <time>2020-08-22T13:02:57.000Z</time>
      </trkpt>
      <trkpt lat="44.08459" lon="6.9554">
        <ele>1550.4000244141</ele>
        <time>2020-08-22T13:03:00.000Z</time>
      </trkpt>
      <trkpt lat="44.08458" lon="6.95539">
        <ele>1550.4000244141</ele>
        <time>2020-08-22T13:03:01.000Z</time>
      </trkpt>
      <trkpt lat="44.08453" lon="6.95532">
        <ele>1550.8000488281</ele>
        <time>2020-08-22T13:03:06.000Z</time>
      </trkpt>
      <trkpt lat="44.08449" lon="6.95527">
        <ele>1551.4000244141</ele>
        <time>2020-08-22T13:03:10.000Z</time>
      </trkpt>
      <trkpt lat="44.08446" lon="6.95523">
        <ele>1552.5999755859</ele>
        <time>2020-08-22T13:03:14.000Z</time>
      </trkpt>
      <trkpt lat="44.08441" lon="6.95517">
        <ele>1553.4000244141</ele>
        <time>2020-08-22T13:03:20.000Z</time>
      </trkpt>
      <trkpt lat="44.08438" lon="6.95514">
        <ele>1553.8000488281</ele>
        <time>2020-08-22T13:03:23.000Z</time>
      </trkpt>
      <trkpt lat="44.08432" lon="6.95507">
        <ele>1555</ele>
        <time>2020-08-22T13:03:28.000Z</time>
      </trkpt>
      <trkpt lat="44.08431" lon="6.95505">
        <ele>1555</ele>
        <time>2020-08-22T13:03:29.000Z</time>
      </trkpt>
      <trkpt lat="44.08421" lon="6.95488">
        <ele>1555.5999755859</ele>
        <time>2020-08-22T13:03:36.000Z</time>
      </trkpt>
      <trkpt lat="44.08406" lon="6.9546">
        <ele>1555.1999511719</ele>
        <time>2020-08-22T13:03:45.000Z</time>
      </trkpt>
      <trkpt lat="44.0839" lon="6.95434">
        <ele>1555.5999755859</ele>
        <time>2020-08-22T13:03:54.000Z</time>
      </trkpt>
      <trkpt lat="44.08387" lon="6.95418">
        <ele>1556</ele>
        <time>2020-08-22T13:03:59.000Z</time>
      </trkpt>
      <trkpt lat="44.08388" lon="6.95414">
        <ele>1556.1999511719</ele>
        <time>2020-08-22T13:04:00.000Z</time>
      </trkpt>
      <trkpt lat="44.08389" lon="6.95401">
        <ele>1557.1999511719</ele>
        <time>2020-08-22T13:04:04.000Z</time>
      </trkpt>
      <trkpt lat="44.0839" lon="6.95386">
        <ele>1557.1999511719</ele>
        <time>2020-08-22T13:04:09.000Z</time>
      </trkpt>
      <trkpt lat="44.08385" lon="6.95363">
        <ele>1558.1999511719</ele>
        <time>2020-08-22T13:04:16.000Z</time>
      </trkpt>
      <trkpt lat="44.08379" lon="6.9535">
        <ele>1559.1999511719</ele>
        <time>2020-08-22T13:04:21.000Z</time>
      </trkpt>
      <trkpt lat="44.08377" lon="6.95346">
        <ele>1559.5999755859</ele>
        <time>2020-08-22T13:04:23.000Z</time>
      </trkpt>
      <trkpt lat="44.08371" lon="6.95335">
        <ele>1560.1999511719</ele>
        <time>2020-08-22T13:04:28.000Z</time>
      </trkpt>
      <trkpt lat="44.08367" lon="6.95332">
        <ele>1560.5999755859</ele>
        <time>2020-08-22T13:04:31.000Z</time>
      </trkpt>
      <trkpt lat="44.08357" lon="6.95327">
        <ele>1561.4000244141</ele>
        <time>2020-08-22T13:04:38.000Z</time>
      </trkpt>
      <trkpt lat="44.08356" lon="6.95326">
        <ele>1561.5999755859</ele>
        <time>2020-08-22T13:04:39.000Z</time>
      </trkpt>
      <trkpt lat="44.08351" lon="6.95323">
        <ele>1562.4000244141</ele>
        <time>2020-08-22T13:04:43.000Z</time>
      </trkpt>
      <trkpt lat="44.08347" lon="6.9532">
        <ele>1563.1999511719</ele>
        <time>2020-08-22T13:04:47.000Z</time>
      </trkpt>
      <trkpt lat="44.08346" lon="6.95319">
        <ele>1563.4000244141</ele>
        <time>2020-08-22T13:04:48.000Z</time>
      </trkpt>
      <trkpt lat="44.0834" lon="6.95315">
        <ele>1563.5999755859</ele>
        <time>2020-08-22T13:04:53.000Z</time>
      </trkpt>
      <trkpt lat="44.08335" lon="6.95312">
        <ele>1564.5999755859</ele>
        <time>2020-08-22T13:04:58.000Z</time>
      </trkpt>
      <trkpt lat="44.08332" lon="6.9531">
        <ele>1565.4000244141</ele>
        <time>2020-08-22T13:05:01.000Z</time>
      </trkpt>
      <trkpt lat="44.08331" lon="6.9531">
        <ele>1565.5999755859</ele>
        <time>2020-08-22T13:05:02.000Z</time>
      </trkpt>
      <trkpt lat="44.08324" lon="6.95308">
        <ele>1566.8000488281</ele>
        <time>2020-08-22T13:05:08.000Z</time>
      </trkpt>
      <trkpt lat="44.08317" lon="6.95311">
        <ele>1567.8000488281</ele>
        <time>2020-08-22T13:05:14.000Z</time>
      </trkpt>
      <trkpt lat="44.08312" lon="6.95314">
        <ele>1569</ele>
        <time>2020-08-22T13:05:19.000Z</time>
      </trkpt>
      <trkpt lat="44.0831" lon="6.95316">
        <ele>1569.1999511719</ele>
        <time>2020-08-22T13:05:21.000Z</time>
      </trkpt>
      <trkpt lat="44.08306" lon="6.95318">
        <ele>1570</ele>
        <time>2020-08-22T13:05:25.000Z</time>
      </trkpt>
      <trkpt lat="44.08306" lon="6.95319">
        <ele>1570.1999511719</ele>
        <time>2020-08-22T13:05:27.000Z</time>
      </trkpt>
      <trkpt lat="44.08305" lon="6.95319">
        <ele>1570.5999755859</ele>
        <time>2020-08-22T13:05:32.000Z</time>
      </trkpt>
      <trkpt lat="44.08302" lon="6.95321">
        <ele>1571.1999511719</ele>
        <time>2020-08-22T13:05:36.000Z</time>
      </trkpt>
      <trkpt lat="44.08301" lon="6.95321">
        <ele>1571.4000244141</ele>
        <time>2020-08-22T13:05:38.000Z</time>
      </trkpt>
      <trkpt lat="44.083" lon="6.95322">
        <ele>1571.8000488281</ele>
        <time>2020-08-22T13:05:40.000Z</time>
      </trkpt>
      <trkpt lat="44.08297" lon="6.95324">
        <ele>1572.1999511719</ele>
        <time>2020-08-22T13:05:43.000Z</time>
      </trkpt>
      <trkpt lat="44.08295" lon="6.95325">
        <ele>1572.1999511719</ele>
        <time>2020-08-22T13:05:45.000Z</time>
      </trkpt>
      <trkpt lat="44.08291" lon="6.95327">
        <ele>1573</ele>
        <time>2020-08-22T13:05:49.000Z</time>
      </trkpt>
      <trkpt lat="44.0829" lon="6.95328">
        <ele>1573.1999511719</ele>
        <time>2020-08-22T13:05:50.000Z</time>
      </trkpt>
      <trkpt lat="44.08289" lon="6.95329">
        <ele>1573.4000244141</ele>
        <time>2020-08-22T13:05:51.000Z</time>
      </trkpt>
      <trkpt lat="44.08286" lon="6.95333">
        <ele>1574.1999511719</ele>
        <time>2020-08-22T13:05:55.000Z</time>
      </trkpt>
      <trkpt lat="44.08284" lon="6.95335">
        <ele>1574.4000244141</ele>
        <time>2020-08-22T13:05:57.000Z</time>
      </trkpt>
      <trkpt lat="44.08282" lon="6.95337">
        <ele>1574.8000488281</ele>
        <time>2020-08-22T13:05:59.000Z</time>
      </trkpt>
      <trkpt lat="44.08277" lon="6.95343">
        <ele>1575.5999755859</ele>
        <time>2020-08-22T13:06:04.000Z</time>
      </trkpt>
      <trkpt lat="44.08276" lon="6.95344">
        <ele>1576</ele>
        <time>2020-08-22T13:06:06.000Z</time>
      </trkpt>
      <trkpt lat="44.08273" lon="6.95347">
        <ele>1576.8000488281</ele>
        <time>2020-08-22T13:06:09.000Z</time>
      </trkpt>
      <trkpt lat="44.0827" lon="6.9535">
        <ele>1577.4000244141</ele>
        <time>2020-08-22T13:06:12.000Z</time>
      </trkpt>
      <trkpt lat="44.08268" lon="6.95353">
        <ele>1577.8000488281</ele>
        <time>2020-08-22T13:06:15.000Z</time>
      </trkpt>
      <trkpt lat="44.08267" lon="6.95354">
        <ele>1578.4000244141</ele>
        <time>2020-08-22T13:06:18.000Z</time>
      </trkpt>
      <trkpt lat="44.08264" lon="6.95353">
        <ele>1578.8000488281</ele>
        <time>2020-08-22T13:06:21.000Z</time>
      </trkpt>
      <trkpt lat="44.08262" lon="6.95351">
        <ele>1579.5999755859</ele>
        <time>2020-08-22T13:06:25.000Z</time>
      </trkpt>
      <trkpt lat="44.08262" lon="6.95348">
        <ele>1580.1999511719</ele>
        <time>2020-08-22T13:06:27.000Z</time>
      </trkpt>
      <trkpt lat="44.08262" lon="6.95342">
        <ele>1581.1999511719</ele>
        <time>2020-08-22T13:06:33.000Z</time>
      </trkpt>
      <trkpt lat="44.0826" lon="6.95335">
        <ele>1582.1999511719</ele>
        <time>2020-08-22T13:06:40.000Z</time>
      </trkpt>
      <trkpt lat="44.08259" lon="6.95329">
        <ele>1583.4000244141</ele>
        <time>2020-08-22T13:06:45.000Z</time>
      </trkpt>
      <trkpt lat="44.08258" lon="6.95327">
        <ele>1584</ele>
        <time>2020-08-22T13:06:48.000Z</time>
      </trkpt>
      <trkpt lat="44.08256" lon="6.95321">
        <ele>1584.4000244141</ele>
        <time>2020-08-22T13:06:53.000Z</time>
      </trkpt>
      <trkpt lat="44.08256" lon="6.95321">
        <ele>1584.5999755859</ele>
        <time>2020-08-22T13:06:55.000Z</time>
      </trkpt>
      <trkpt lat="44.08253" lon="6.95314">
        <ele>1585.1999511719</ele>
        <time>2020-08-22T13:07:02.000Z</time>
      </trkpt>
      <trkpt lat="44.08252" lon="6.95312">
        <ele>1585.5999755859</ele>
        <time>2020-08-22T13:07:04.000Z</time>
      </trkpt>
      <trkpt lat="44.08248" lon="6.95306">
        <ele>1586.8000488281</ele>
        <time>2020-08-22T13:07:09.000Z</time>
      </trkpt>
      <trkpt lat="44.08247" lon="6.95305">
        <ele>1586.8000488281</ele>
        <time>2020-08-22T13:07:10.000Z</time>
      </trkpt>
      <trkpt lat="44.08244" lon="6.95298">
        <ele>1587.4000244141</ele>
        <time>2020-08-22T13:07:15.000Z</time>
      </trkpt>
      <trkpt lat="44.08244" lon="6.95297">
        <ele>1587.5999755859</ele>
        <time>2020-08-22T13:07:16.000Z</time>
      </trkpt>
      <trkpt lat="44.08244" lon="6.95296">
        <ele>1587.8000488281</ele>
        <time>2020-08-22T13:07:17.000Z</time>
      </trkpt>
      <trkpt lat="44.08242" lon="6.95293">
        <ele>1588.5999755859</ele>
        <time>2020-08-22T13:07:20.000Z</time>
      </trkpt>
      <trkpt lat="44.0824" lon="6.95292">
        <ele>1589</ele>
        <time>2020-08-22T13:07:22.000Z</time>
      </trkpt>
      <trkpt lat="44.08238" lon="6.95286">
        <ele>1589.8000488281</ele>
        <time>2020-08-22T13:07:27.000Z</time>
      </trkpt>
      <trkpt lat="44.08236" lon="6.95282">
        <ele>1590</ele>
        <time>2020-08-22T13:07:30.000Z</time>
      </trkpt>
      <trkpt lat="44.08233" lon="6.95277">
        <ele>1590.8000488281</ele>
        <time>2020-08-22T13:07:34.000Z</time>
      </trkpt>
      <trkpt lat="44.08232" lon="6.95275">
        <ele>1591.1999511719</ele>
        <time>2020-08-22T13:07:36.000Z</time>
      </trkpt>
      <trkpt lat="44.08231" lon="6.95272">
        <ele>1591.5999755859</ele>
        <time>2020-08-22T13:07:38.000Z</time>
      </trkpt>
      <trkpt lat="44.0823" lon="6.95267">
        <ele>1592.1999511719</ele>
        <time>2020-08-22T13:07:41.000Z</time>
      </trkpt>
      <trkpt lat="44.08232" lon="6.95257">
        <ele>1593.4000244141</ele>
        <time>2020-08-22T13:07:48.000Z</time>
      </trkpt>
      <trkpt lat="44.08233" lon="6.95246">
        <ele>1594.4000244141</ele>
        <time>2020-08-22T13:07:54.000Z</time>
      </trkpt>
      <trkpt lat="44.08233" lon="6.95245">
        <ele>1594.8000488281</ele>
        <time>2020-08-22T13:07:55.000Z</time>
      </trkpt>
      <trkpt lat="44.08234" lon="6.95241">
        <ele>1595.5999755859</ele>
        <time>2020-08-22T13:07:58.000Z</time>
      </trkpt>
      <trkpt lat="44.08234" lon="6.9524">
        <ele>1596</ele>
        <time>2020-08-22T13:07:59.000Z</time>
      </trkpt>
      <trkpt lat="44.08235" lon="6.95238">
        <ele>1596.1999511719</ele>
        <time>2020-08-22T13:08:01.000Z</time>
      </trkpt>
      <trkpt lat="44.08235" lon="6.95235">
        <ele>1596.8000488281</ele>
        <time>2020-08-22T13:08:03.000Z</time>
      </trkpt>
      <trkpt lat="44.08237" lon="6.95228">
        <ele>1597.5999755859</ele>
        <time>2020-08-22T13:08:08.000Z</time>
      </trkpt>
      <trkpt lat="44.08238" lon="6.95226">
        <ele>1598</ele>
        <time>2020-08-22T13:08:10.000Z</time>
      </trkpt>
      <trkpt lat="44.08239" lon="6.95221">
        <ele>1599</ele>
        <time>2020-08-22T13:08:15.000Z</time>
      </trkpt>
      <trkpt lat="44.0824" lon="6.95214">
        <ele>1599.5999755859</ele>
        <time>2020-08-22T13:08:20.000Z</time>
      </trkpt>
      <trkpt lat="44.0824" lon="6.95212">
        <ele>1599.8000488281</ele>
        <time>2020-08-22T13:08:22.000Z</time>
      </trkpt>
      <trkpt lat="44.08242" lon="6.95209">
        <ele>1600.1999511719</ele>
        <time>2020-08-22T13:08:25.000Z</time>
      </trkpt>
      <trkpt lat="44.08243" lon="6.95204">
        <ele>1601.4000244141</ele>
        <time>2020-08-22T13:08:29.000Z</time>
      </trkpt>
      <trkpt lat="44.08243" lon="6.95203">
        <ele>1601.5999755859</ele>
        <time>2020-08-22T13:08:30.000Z</time>
      </trkpt>
      <trkpt lat="44.08244" lon="6.95199">
        <ele>1602.4000244141</ele>
        <time>2020-08-22T13:08:34.000Z</time>
      </trkpt>
      <trkpt lat="44.08245" lon="6.95197">
        <ele>1602.4000244141</ele>
        <time>2020-08-22T13:08:35.000Z</time>
      </trkpt>
      <trkpt lat="44.08248" lon="6.9519">
        <ele>1603.1999511719</ele>
        <time>2020-08-22T13:08:41.000Z</time>
      </trkpt>
      <trkpt lat="44.0825" lon="6.95187">
        <ele>1603.8000488281</ele>
        <time>2020-08-22T13:08:44.000Z</time>
      </trkpt>
      <trkpt lat="44.08252" lon="6.95182">
        <ele>1604.8000488281</ele>
        <time>2020-08-22T13:08:49.000Z</time>
      </trkpt>
      <trkpt lat="44.08253" lon="6.95181">
        <ele>1605</ele>
        <time>2020-08-22T13:08:50.000Z</time>
      </trkpt>
      <trkpt lat="44.08255" lon="6.95177">
        <ele>1605.4000244141</ele>
        <time>2020-08-22T13:08:54.000Z</time>
      </trkpt>
      <trkpt lat="44.08258" lon="6.95174">
        <ele>1606</ele>
        <time>2020-08-22T13:08:58.000Z</time>
      </trkpt>
      <trkpt lat="44.08261" lon="6.9517">
        <ele>1606.5999755859</ele>
        <time>2020-08-22T13:09:02.000Z</time>
      </trkpt>
      <trkpt lat="44.08262" lon="6.95168">
        <ele>1607</ele>
        <time>2020-08-22T13:09:04.000Z</time>
      </trkpt>
      <trkpt lat="44.08267" lon="6.95165">
        <ele>1607.8000488281</ele>
        <time>2020-08-22T13:09:09.000Z</time>
      </trkpt>
      <trkpt lat="44.08268" lon="6.95164">
        <ele>1608</ele>
        <time>2020-08-22T13:09:11.000Z</time>
      </trkpt>
      <trkpt lat="44.08271" lon="6.95161">
        <ele>1608.5999755859</ele>
        <time>2020-08-22T13:09:14.000Z</time>
      </trkpt>
      <trkpt lat="44.08272" lon="6.95159">
        <ele>1608.8000488281</ele>
        <time>2020-08-22T13:09:16.000Z</time>
      </trkpt>
      <trkpt lat="44.08273" lon="6.95157">
        <ele>1609</ele>
        <time>2020-08-22T13:09:18.000Z</time>
      </trkpt>
      <trkpt lat="44.08275" lon="6.95154">
        <ele>1609.5999755859</ele>
        <time>2020-08-22T13:09:21.000Z</time>
      </trkpt>
      <trkpt lat="44.08277" lon="6.95151">
        <ele>1610.1999511719</ele>
        <time>2020-08-22T13:09:23.000Z</time>
      </trkpt>
      <trkpt lat="44.0828" lon="6.95148">
        <ele>1611.1999511719</ele>
        <time>2020-08-22T13:09:26.000Z</time>
      </trkpt>
      <trkpt lat="44.08281" lon="6.95148">
        <ele>1611.4000244141</ele>
        <time>2020-08-22T13:09:27.000Z</time>
      </trkpt>
      <trkpt lat="44.08285" lon="6.95143">
        <ele>1612.4000244141</ele>
        <time>2020-08-22T13:09:32.000Z</time>
      </trkpt>
      <trkpt lat="44.08286" lon="6.9514">
        <ele>1612.5999755859</ele>
        <time>2020-08-22T13:09:34.000Z</time>
      </trkpt>
      <trkpt lat="44.08287" lon="6.95137">
        <ele>1613.4000244141</ele>
        <time>2020-08-22T13:09:37.000Z</time>
      </trkpt>
      <trkpt lat="44.08288" lon="6.95135">
        <ele>1613.8000488281</ele>
        <time>2020-08-22T13:09:39.000Z</time>
      </trkpt>
      <trkpt lat="44.08289" lon="6.95134">
        <ele>1614.1999511719</ele>
        <time>2020-08-22T13:09:40.000Z</time>
      </trkpt>
      <trkpt lat="44.0829" lon="6.95129">
        <ele>1614.8000488281</ele>
        <time>2020-08-22T13:09:44.000Z</time>
      </trkpt>
      <trkpt lat="44.0829" lon="6.95128">
        <ele>1614.8000488281</ele>
        <time>2020-08-22T13:09:45.000Z</time>
      </trkpt>
      <trkpt lat="44.08291" lon="6.95123">
        <ele>1615.8000488281</ele>
        <time>2020-08-22T13:09:49.000Z</time>
      </trkpt>
      <trkpt lat="44.08291" lon="6.95117">
        <ele>1616.4000244141</ele>
        <time>2020-08-22T13:09:53.000Z</time>
      </trkpt>
      <trkpt lat="44.0829" lon="6.95116">
        <ele>1617</ele>
        <time>2020-08-22T13:09:55.000Z</time>
      </trkpt>
      <trkpt lat="44.0829" lon="6.95116">
        <ele>1617.5999755859</ele>
        <time>2020-08-22T13:09:59.000Z</time>
      </trkpt>
      <trkpt lat="44.0829" lon="6.95114">
        <ele>1617.8000488281</ele>
        <time>2020-08-22T13:10:05.000Z</time>
      </trkpt>
      <trkpt lat="44.08289" lon="6.9511">
        <ele>1617.8000488281</ele>
        <time>2020-08-22T13:10:11.000Z</time>
      </trkpt>
      <trkpt lat="44.08289" lon="6.95109">
        <ele>1618</ele>
        <time>2020-08-22T13:10:13.000Z</time>
      </trkpt>
      <trkpt lat="44.0829" lon="6.95105">
        <ele>1618.4000244141</ele>
        <time>2020-08-22T13:10:17.000Z</time>
      </trkpt>
      <trkpt lat="44.08289" lon="6.95097">
        <ele>1619.1999511719</ele>
        <time>2020-08-22T13:10:23.000Z</time>
      </trkpt>
      <trkpt lat="44.08287" lon="6.9509">
        <ele>1620</ele>
        <time>2020-08-22T13:10:28.000Z</time>
      </trkpt>
      <trkpt lat="44.08284" lon="6.95084">
        <ele>1620.4000244141</ele>
        <time>2020-08-22T13:10:32.000Z</time>
      </trkpt>
      <trkpt lat="44.08283" lon="6.95079">
        <ele>1620.8000488281</ele>
        <time>2020-08-22T13:10:35.000Z</time>
      </trkpt>
      <trkpt lat="44.08282" lon="6.95078">
        <ele>1621.4000244141</ele>
        <time>2020-08-22T13:10:37.000Z</time>
      </trkpt>
      <trkpt lat="44.08282" lon="6.95074">
        <ele>1621.5999755859</ele>
        <time>2020-08-22T13:10:40.000Z</time>
      </trkpt>
      <trkpt lat="44.08281" lon="6.95073">
        <ele>1621.8000488281</ele>
        <time>2020-08-22T13:10:41.000Z</time>
      </trkpt>
      <trkpt lat="44.0828" lon="6.95068">
        <ele>1622.4000244141</ele>
        <time>2020-08-22T13:10:45.000Z</time>
      </trkpt>
      <trkpt lat="44.08276" lon="6.9506">
        <ele>1623.4000244141</ele>
        <time>2020-08-22T13:10:51.000Z</time>
      </trkpt>
      <trkpt lat="44.08275" lon="6.95059">
        <ele>1623.4000244141</ele>
        <time>2020-08-22T13:10:52.000Z</time>
      </trkpt>
      <trkpt lat="44.08274" lon="6.95057">
        <ele>1624</ele>
        <time>2020-08-22T13:10:54.000Z</time>
      </trkpt>
      <trkpt lat="44.08271" lon="6.95053">
        <ele>1624.5999755859</ele>
        <time>2020-08-22T13:10:59.000Z</time>
      </trkpt>
      <trkpt lat="44.0827" lon="6.95051">
        <ele>1625.1999511719</ele>
        <time>2020-08-22T13:11:02.000Z</time>
      </trkpt>
      <trkpt lat="44.08268" lon="6.95047">
        <ele>1625.4000244141</ele>
        <time>2020-08-22T13:11:06.000Z</time>
      </trkpt>
      <trkpt lat="44.08266" lon="6.95045">
        <ele>1625.8000488281</ele>
        <time>2020-08-22T13:11:08.000Z</time>
      </trkpt>
      <trkpt lat="44.08264" lon="6.95041">
        <ele>1627</ele>
        <time>2020-08-22T13:11:12.000Z</time>
      </trkpt>
      <trkpt lat="44.08263" lon="6.95038">
        <ele>1627.4000244141</ele>
        <time>2020-08-22T13:11:19.000Z</time>
      </trkpt>
      <trkpt lat="44.08261" lon="6.95034">
        <ele>1628</ele>
        <time>2020-08-22T13:11:24.000Z</time>
      </trkpt>
      <trkpt lat="44.08259" lon="6.95031">
        <ele>1628.5999755859</ele>
        <time>2020-08-22T13:11:28.000Z</time>
      </trkpt>
      <trkpt lat="44.08259" lon="6.95029">
        <ele>1629</ele>
        <time>2020-08-22T13:11:30.000Z</time>
      </trkpt>
      <trkpt lat="44.08259" lon="6.95026">
        <ele>1629.8000488281</ele>
        <time>2020-08-22T13:11:33.000Z</time>
      </trkpt>
      <trkpt lat="44.0826" lon="6.95024">
        <ele>1630</ele>
        <time>2020-08-22T13:11:35.000Z</time>
      </trkpt>
      <trkpt lat="44.0826" lon="6.95023">
        <ele>1630.1999511719</ele>
        <time>2020-08-22T13:11:36.000Z</time>
      </trkpt>
      <trkpt lat="44.08265" lon="6.95018">
        <ele>1631.1999511719</ele>
        <time>2020-08-22T13:11:43.000Z</time>
      </trkpt>
      <trkpt lat="44.08267" lon="6.95016">
        <ele>1631.5999755859</ele>
        <time>2020-08-22T13:11:45.000Z</time>
      </trkpt>
      <trkpt lat="44.0827" lon="6.95015">
        <ele>1632.4000244141</ele>
        <time>2020-08-22T13:11:49.000Z</time>
      </trkpt>
      <trkpt lat="44.08271" lon="6.95014">
        <ele>1632.8000488281</ele>
        <time>2020-08-22T13:11:53.000Z</time>
      </trkpt>
      <trkpt lat="44.08275" lon="6.95012">
        <ele>1632.8000488281</ele>
        <time>2020-08-22T13:12:01.000Z</time>
      </trkpt>
      <trkpt lat="44.08284" lon="6.95008">
        <ele>1633.4000244141</ele>
        <time>2020-08-22T13:12:08.000Z</time>
      </trkpt>
      <trkpt lat="44.08286" lon="6.95007">
        <ele>1633.8000488281</ele>
        <time>2020-08-22T13:12:10.000Z</time>
      </trkpt>
      <trkpt lat="44.08289" lon="6.95003">
        <ele>1634.8000488281</ele>
        <time>2020-08-22T13:12:14.000Z</time>
      </trkpt>
      <trkpt lat="44.0829" lon="6.95002">
        <ele>1635</ele>
        <time>2020-08-22T13:12:15.000Z</time>
      </trkpt>
      <trkpt lat="44.08292" lon="6.95">
        <ele>1635.4000244141</ele>
        <time>2020-08-22T13:12:17.000Z</time>
      </trkpt>
      <trkpt lat="44.08294" lon="6.94999">
        <ele>1636</ele>
        <time>2020-08-22T13:12:19.000Z</time>
      </trkpt>
      <trkpt lat="44.08294" lon="6.94999">
        <ele>1636.1999511719</ele>
        <time>2020-08-22T13:12:20.000Z</time>
      </trkpt>
      <trkpt lat="44.08297" lon="6.94997">
        <ele>1637.1999511719</ele>
        <time>2020-08-22T13:12:23.000Z</time>
      </trkpt>
      <trkpt lat="44.083" lon="6.94991">
        <ele>1637.8000488281</ele>
        <time>2020-08-22T13:12:28.000Z</time>
      </trkpt>
      <trkpt lat="44.08303" lon="6.94988">
        <ele>1638.1999511719</ele>
        <time>2020-08-22T13:12:31.000Z</time>
      </trkpt>
      <trkpt lat="44.08306" lon="6.94985">
        <ele>1638.8000488281</ele>
        <time>2020-08-22T13:12:35.000Z</time>
      </trkpt>
      <trkpt lat="44.08309" lon="6.94981">
        <ele>1639.1999511719</ele>
        <time>2020-08-22T13:12:39.000Z</time>
      </trkpt>
      <trkpt lat="44.08311" lon="6.94977">
        <ele>1639.5999755859</ele>
        <time>2020-08-22T13:12:42.000Z</time>
      </trkpt>
      <trkpt lat="44.08317" lon="6.94966">
        <ele>1640.4000244141</ele>
        <time>2020-08-22T13:12:49.000Z</time>
      </trkpt>
      <trkpt lat="44.08324" lon="6.94961">
        <ele>1641.5999755859</ele>
        <time>2020-08-22T13:12:56.000Z</time>
      </trkpt>
      <trkpt lat="44.08326" lon="6.94959">
        <ele>1642.4000244141</ele>
        <time>2020-08-22T13:12:58.000Z</time>
      </trkpt>
      <trkpt lat="44.08327" lon="6.94958">
        <ele>1642.8000488281</ele>
        <time>2020-08-22T13:12:59.000Z</time>
      </trkpt>
      <trkpt lat="44.08331" lon="6.94956">
        <ele>1644</ele>
        <time>2020-08-22T13:13:03.000Z</time>
      </trkpt>
      <trkpt lat="44.08332" lon="6.94953">
        <ele>1644.8000488281</ele>
        <time>2020-08-22T13:13:06.000Z</time>
      </trkpt>
      <trkpt lat="44.08333" lon="6.94952">
        <ele>1645.1999511719</ele>
        <time>2020-08-22T13:13:08.000Z</time>
      </trkpt>
      <trkpt lat="44.08333" lon="6.94949">
        <ele>1645.4000244141</ele>
        <time>2020-08-22T13:13:11.000Z</time>
      </trkpt>
      <trkpt lat="44.08334" lon="6.94948">
        <ele>1645.5999755859</ele>
        <time>2020-08-22T13:13:12.000Z</time>
      </trkpt>
      <trkpt lat="44.08336" lon="6.94941">
        <ele>1646.4000244141</ele>
        <time>2020-08-22T13:13:18.000Z</time>
      </trkpt>
      <trkpt lat="44.08338" lon="6.94936">
        <ele>1647</ele>
        <time>2020-08-22T13:13:22.000Z</time>
      </trkpt>
      <trkpt lat="44.08338" lon="6.94933">
        <ele>1647.4000244141</ele>
        <time>2020-08-22T13:13:25.000Z</time>
      </trkpt>
      <trkpt lat="44.08341" lon="6.94928">
        <ele>1648.1999511719</ele>
        <time>2020-08-22T13:13:31.000Z</time>
      </trkpt>
      <trkpt lat="44.08342" lon="6.94927">
        <ele>1648.5999755859</ele>
        <time>2020-08-22T13:13:32.000Z</time>
      </trkpt>
      <trkpt lat="44.08346" lon="6.94921">
        <ele>1649.5999755859</ele>
        <time>2020-08-22T13:13:39.000Z</time>
      </trkpt>
      <trkpt lat="44.08347" lon="6.94919">
        <ele>1649.8000488281</ele>
        <time>2020-08-22T13:13:41.000Z</time>
      </trkpt>
      <trkpt lat="44.08348" lon="6.94914">
        <ele>1650.5999755859</ele>
        <time>2020-08-22T13:13:46.000Z</time>
      </trkpt>
      <trkpt lat="44.08349" lon="6.94909">
        <ele>1651.5999755859</ele>
        <time>2020-08-22T13:13:51.000Z</time>
      </trkpt>
      <trkpt lat="44.0835" lon="6.94908">
        <ele>1651.8000488281</ele>
        <time>2020-08-22T13:13:52.000Z</time>
      </trkpt>
      <trkpt lat="44.0835" lon="6.94905">
        <ele>1652.5999755859</ele>
        <time>2020-08-22T13:13:57.000Z</time>
      </trkpt>
      <trkpt lat="44.08351" lon="6.949">
        <ele>1654</ele>
        <time>2020-08-22T13:14:02.000Z</time>
      </trkpt>
      <trkpt lat="44.0835" lon="6.94894">
        <ele>1655.1999511719</ele>
        <time>2020-08-22T13:14:07.000Z</time>
      </trkpt>
      <trkpt lat="44.0835" lon="6.94892">
        <ele>1655.5999755859</ele>
        <time>2020-08-22T13:14:09.000Z</time>
      </trkpt>
      <trkpt lat="44.08351" lon="6.94887">
        <ele>1656.1999511719</ele>
        <time>2020-08-22T13:14:14.000Z</time>
      </trkpt>
      <trkpt lat="44.08353" lon="6.94883">
        <ele>1657</ele>
        <time>2020-08-22T13:14:18.000Z</time>
      </trkpt>
      <trkpt lat="44.08353" lon="6.94882">
        <ele>1657.4000244141</ele>
        <time>2020-08-22T13:14:19.000Z</time>
      </trkpt>
      <trkpt lat="44.08357" lon="6.94878">
        <ele>1658.5999755859</ele>
        <time>2020-08-22T13:14:26.000Z</time>
      </trkpt>
      <trkpt lat="44.08359" lon="6.94876">
        <ele>1659.1999511719</ele>
        <time>2020-08-22T13:14:29.000Z</time>
      </trkpt>
      <trkpt lat="44.08361" lon="6.94874">
        <ele>1659.5999755859</ele>
        <time>2020-08-22T13:14:32.000Z</time>
      </trkpt>
      <trkpt lat="44.08365" lon="6.94871">
        <ele>1660.8000488281</ele>
        <time>2020-08-22T13:14:38.000Z</time>
      </trkpt>
      <trkpt lat="44.08365" lon="6.94871">
        <ele>1661</ele>
        <time>2020-08-22T13:14:39.000Z</time>
      </trkpt>
      <trkpt lat="44.08368" lon="6.94867">
        <ele>1661.8000488281</ele>
        <time>2020-08-22T13:14:44.000Z</time>
      </trkpt>
      <trkpt lat="44.08373" lon="6.94863">
        <ele>1663</ele>
        <time>2020-08-22T13:14:51.000Z</time>
      </trkpt>
      <trkpt lat="44.08376" lon="6.94857">
        <ele>1664.1999511719</ele>
        <time>2020-08-22T13:14:58.000Z</time>
      </trkpt>
      <trkpt lat="44.08378" lon="6.94853">
        <ele>1665</ele>
        <time>2020-08-22T13:15:01.000Z</time>
      </trkpt>
      <trkpt lat="44.08378" lon="6.94852">
        <ele>1665.1999511719</ele>
        <time>2020-08-22T13:15:02.000Z</time>
      </trkpt>
      <trkpt lat="44.08382" lon="6.94848">
        <ele>1666.1999511719</ele>
        <time>2020-08-22T13:15:07.000Z</time>
      </trkpt>
      <trkpt lat="44.08384" lon="6.94845">
        <ele>1666.5999755859</ele>
        <time>2020-08-22T13:15:10.000Z</time>
      </trkpt>
      <trkpt lat="44.08387" lon="6.94839">
        <ele>1667.1999511719</ele>
        <time>2020-08-22T13:15:16.000Z</time>
      </trkpt>
      <trkpt lat="44.08388" lon="6.94834">
        <ele>1667.8000488281</ele>
        <time>2020-08-22T13:15:19.000Z</time>
      </trkpt>
      <trkpt lat="44.08388" lon="6.9483">
        <ele>1668.4000244141</ele>
        <time>2020-08-22T13:15:22.000Z</time>
      </trkpt>
      <trkpt lat="44.08388" lon="6.94829">
        <ele>1669</ele>
        <time>2020-08-22T13:15:26.000Z</time>
      </trkpt>
      <trkpt lat="44.08389" lon="6.9483">
        <ele>1668.1999511719</ele>
        <time>2020-08-22T13:15:32.000Z</time>
      </trkpt>
      <trkpt lat="44.08389" lon="6.9483">
        <ele>1667.8000488281</ele>
        <time>2020-08-22T13:15:43.000Z</time>
      </trkpt>
      <trkpt lat="44.08386" lon="6.9483">
        <ele>1668.4000244141</ele>
        <time>2020-08-22T13:15:54.000Z</time>
      </trkpt>
      <trkpt lat="44.08386" lon="6.94832">
        <ele>1668.5999755859</ele>
        <time>2020-08-22T13:16:14.000Z</time>
      </trkpt>
      <trkpt lat="44.08387" lon="6.94833">
        <ele>1668.5999755859</ele>
        <time>2020-08-22T13:16:22.000Z</time>
      </trkpt>
      <trkpt lat="44.08388" lon="6.94832">
        <ele>1669</ele>
        <time>2020-08-22T13:16:30.000Z</time>
      </trkpt>
      <trkpt lat="44.08388" lon="6.94831">
        <ele>1668.4000244141</ele>
        <time>2020-08-22T13:16:40.000Z</time>
      </trkpt>
      <trkpt lat="44.08388" lon="6.94829">
        <ele>1669</ele>
        <time>2020-08-22T13:17:01.000Z</time>
      </trkpt>
      <trkpt lat="44.08388" lon="6.94829">
        <ele>1669.4000244141</ele>
        <time>2020-08-22T13:17:07.000Z</time>
      </trkpt>
      <trkpt lat="44.08389" lon="6.94828">
        <ele>1669.1999511719</ele>
        <time>2020-08-22T13:17:30.000Z</time>
      </trkpt>
      <trkpt lat="44.08389" lon="6.94827">
        <ele>1668.5999755859</ele>
        <time>2020-08-22T13:17:53.000Z</time>
      </trkpt>
      <trkpt lat="44.08389" lon="6.94827">
        <ele>1669</ele>
        <time>2020-08-22T13:18:09.000Z</time>
      </trkpt>
      <trkpt lat="44.08389" lon="6.94827">
        <ele>1669.4000244141</ele>
        <time>2020-08-22T13:18:20.000Z</time>
      </trkpt>
      <trkpt lat="44.08389" lon="6.94827">
        <ele>1669.1999511719</ele>
        <time>2020-08-22T13:18:29.000Z</time>
      </trkpt>
      <trkpt lat="44.08388" lon="6.94827">
        <ele>1669.1999511719</ele>
        <time>2020-08-22T13:18:36.000Z</time>
      </trkpt>
      <trkpt lat="44.08388" lon="6.94828">
        <ele>1669.1999511719</ele>
        <time>2020-08-22T13:18:46.000Z</time>
      </trkpt>
      <trkpt lat="44.08389" lon="6.94828">
        <ele>1669.4000244141</ele>
        <time>2020-08-22T13:19:01.000Z</time>
      </trkpt>
      <trkpt lat="44.08389" lon="6.94828">
        <ele>1669.8000488281</ele>
        <time>2020-08-22T13:19:10.000Z</time>
      </trkpt>
      <trkpt lat="44.08388" lon="6.94828">
        <ele>1669.1999511719</ele>
        <time>2020-08-22T13:19:16.000Z</time>
      </trkpt>
      <trkpt lat="44.08389" lon="6.94826">
        <ele>1669.4000244141</ele>
        <time>2020-08-22T13:19:22.000Z</time>
      </trkpt>
      <trkpt lat="44.08389" lon="6.94823">
        <ele>1669.8000488281</ele>
        <time>2020-08-22T13:19:30.000Z</time>
      </trkpt>
      <trkpt lat="44.08393" lon="6.94816">
        <ele>1669.8000488281</ele>
        <time>2020-08-22T13:19:34.000Z</time>
      </trkpt>
      <trkpt lat="44.08394" lon="6.94814">
        <ele>1669.8000488281</ele>
        <time>2020-08-22T13:19:35.000Z</time>
      </trkpt>
      <trkpt lat="44.08398" lon="6.94806">
        <ele>1669.8000488281</ele>
        <time>2020-08-22T13:19:37.000Z</time>
      </trkpt>
      <trkpt lat="44.08401" lon="6.94803">
        <ele>1669.5999755859</ele>
        <time>2020-08-22T13:19:38.000Z</time>
      </trkpt>
      <trkpt lat="44.08406" lon="6.94801">
        <ele>1668.1999511719</ele>
        <time>2020-08-22T13:19:42.000Z</time>
      </trkpt>
      <trkpt lat="44.08406" lon="6.94801">
        <ele>1667</ele>
        <time>2020-08-22T13:19:45.000Z</time>
      </trkpt>
      <trkpt lat="44.08406" lon="6.94801">
        <ele>1667</ele>
        <time>2020-08-22T13:19:48.000Z</time>
      </trkpt>
      <trkpt lat="44.08406" lon="6.948">
        <ele>1667.4000244141</ele>
        <time>2020-08-22T13:19:58.000Z</time>
      </trkpt>
      <trkpt lat="44.08406" lon="6.94799">
        <ele>1667.4000244141</ele>
        <time>2020-08-22T13:20:06.000Z</time>
      </trkpt>
      <trkpt lat="44.08406" lon="6.94798">
        <ele>1666.8000488281</ele>
        <time>2020-08-22T13:20:18.000Z</time>
      </trkpt>
      <trkpt lat="44.08406" lon="6.94799">
        <ele>1667.1999511719</ele>
        <time>2020-08-22T13:20:23.000Z</time>
      </trkpt>
      <trkpt lat="44.08406" lon="6.94798">
        <ele>1667.4000244141</ele>
        <time>2020-08-22T13:20:32.000Z</time>
      </trkpt>
      <trkpt lat="44.08405" lon="6.94797">
        <ele>1667.4000244141</ele>
        <time>2020-08-22T13:20:42.000Z</time>
      </trkpt>
      <trkpt lat="44.08405" lon="6.94796">
        <ele>1666</ele>
        <time>2020-08-22T13:20:49.000Z</time>
      </trkpt>
      <trkpt lat="44.08405" lon="6.94796">
        <ele>1666.5999755859</ele>
        <time>2020-08-22T13:20:53.000Z</time>
      </trkpt>
      <trkpt lat="44.08405" lon="6.94795">
        <ele>1666.8000488281</ele>
        <time>2020-08-22T13:21:11.000Z</time>
      </trkpt>
      <trkpt lat="44.08404" lon="6.94794">
        <ele>1666.8000488281</ele>
        <time>2020-08-22T13:21:25.000Z</time>
      </trkpt>
      <trkpt lat="44.08405" lon="6.94794">
        <ele>1667.1999511719</ele>
        <time>2020-08-22T13:21:29.000Z</time>
      </trkpt>
      <trkpt lat="44.08406" lon="6.94794">
        <ele>1666.8000488281</ele>
        <time>2020-08-22T13:21:44.000Z</time>
      </trkpt>
      <trkpt lat="44.08407" lon="6.94794">
        <ele>1666.8000488281</ele>
        <time>2020-08-22T13:22:00.000Z</time>
      </trkpt>
      <trkpt lat="44.08407" lon="6.94793">
        <ele>1666.8000488281</ele>
        <time>2020-08-22T13:22:14.000Z</time>
      </trkpt>
      <trkpt lat="44.08407" lon="6.94794">
        <ele>1666.8000488281</ele>
        <time>2020-08-22T13:22:23.000Z</time>
      </trkpt>
      <trkpt lat="44.08407" lon="6.94795">
        <ele>1666.4000244141</ele>
        <time>2020-08-22T13:22:33.000Z</time>
      </trkpt>
      <trkpt lat="44.08407" lon="6.94795">
        <ele>1667.1999511719</ele>
        <time>2020-08-22T13:22:40.000Z</time>
      </trkpt>
      <trkpt lat="44.08407" lon="6.94794">
        <ele>1667</ele>
        <time>2020-08-22T13:22:45.000Z</time>
      </trkpt>
      <trkpt lat="44.08407" lon="6.94794">
        <ele>1667.4000244141</ele>
        <time>2020-08-22T13:22:51.000Z</time>
      </trkpt>
      <trkpt lat="44.08408" lon="6.94791">
        <ele>1667.1999511719</ele>
        <time>2020-08-22T13:22:58.000Z</time>
      </trkpt>
      <trkpt lat="44.08416" lon="6.94776">
        <ele>1667.1999511719</ele>
        <time>2020-08-22T13:23:04.000Z</time>
      </trkpt>
      <trkpt lat="44.08423" lon="6.94764">
        <ele>1668.1999511719</ele>
        <time>2020-08-22T13:23:09.000Z</time>
      </trkpt>
      <trkpt lat="44.08428" lon="6.94755">
        <ele>1668.8000488281</ele>
        <time>2020-08-22T13:23:13.000Z</time>
      </trkpt>
      <trkpt lat="44.08431" lon="6.94749">
        <ele>1669.1999511719</ele>
        <time>2020-08-22T13:23:15.000Z</time>
      </trkpt>
      <trkpt lat="44.08435" lon="6.94742">
        <ele>1670.1999511719</ele>
        <time>2020-08-22T13:23:19.000Z</time>
      </trkpt>
      <trkpt lat="44.08436" lon="6.94741">
        <ele>1670.4000244141</ele>
        <time>2020-08-22T13:23:20.000Z</time>
      </trkpt>
      <trkpt lat="44.08436" lon="6.94739">
        <ele>1671</ele>
        <time>2020-08-22T13:23:24.000Z</time>
      </trkpt>
      <trkpt lat="44.08438" lon="6.94734">
        <ele>1671.5999755859</ele>
        <time>2020-08-22T13:23:29.000Z</time>
      </trkpt>
      <trkpt lat="44.08439" lon="6.9473">
        <ele>1672</ele>
        <time>2020-08-22T13:23:32.000Z</time>
      </trkpt>
      <trkpt lat="44.08439" lon="6.94726">
        <ele>1672.8000488281</ele>
        <time>2020-08-22T13:23:36.000Z</time>
      </trkpt>
      <trkpt lat="44.0844" lon="6.94722">
        <ele>1674</ele>
        <time>2020-08-22T13:23:40.000Z</time>
      </trkpt>
      <trkpt lat="44.08441" lon="6.9472">
        <ele>1674.1999511719</ele>
        <time>2020-08-22T13:23:42.000Z</time>
      </trkpt>
      <trkpt lat="44.08442" lon="6.94716">
        <ele>1675</ele>
        <time>2020-08-22T13:23:46.000Z</time>
      </trkpt>
      <trkpt lat="44.08444" lon="6.94711">
        <ele>1676.1999511719</ele>
        <time>2020-08-22T13:23:51.000Z</time>
      </trkpt>
      <trkpt lat="44.08445" lon="6.94711">
        <ele>1676.4000244141</ele>
        <time>2020-08-22T13:23:52.000Z</time>
      </trkpt>
      <trkpt lat="44.08447" lon="6.94708">
        <ele>1677.4000244141</ele>
        <time>2020-08-22T13:23:56.000Z</time>
      </trkpt>
      <trkpt lat="44.08448" lon="6.94703">
        <ele>1678.1999511719</ele>
        <time>2020-08-22T13:24:01.000Z</time>
      </trkpt>
      <trkpt lat="44.08449" lon="6.94702">
        <ele>1678.4000244141</ele>
        <time>2020-08-22T13:24:02.000Z</time>
      </trkpt>
      <trkpt lat="44.08449" lon="6.94693">
        <ele>1679.4000244141</ele>
        <time>2020-08-22T13:24:10.000Z</time>
      </trkpt>
      <trkpt lat="44.08448" lon="6.94689">
        <ele>1680.1999511719</ele>
        <time>2020-08-22T13:24:15.000Z</time>
      </trkpt>
      <trkpt lat="44.08447" lon="6.94683">
        <ele>1680.1999511719</ele>
        <time>2020-08-22T13:24:21.000Z</time>
      </trkpt>
      <trkpt lat="44.08445" lon="6.9467">
        <ele>1680.4000244141</ele>
        <time>2020-08-22T13:24:27.000Z</time>
      </trkpt>
      <trkpt lat="44.08445" lon="6.94667">
        <ele>1680.5999755859</ele>
        <time>2020-08-22T13:24:28.000Z</time>
      </trkpt>
      <trkpt lat="44.08445" lon="6.94659">
        <ele>1682</ele>
        <time>2020-08-22T13:24:32.000Z</time>
      </trkpt>
      <trkpt lat="44.08445" lon="6.94643">
        <ele>1682.4000244141</ele>
        <time>2020-08-22T13:24:38.000Z</time>
      </trkpt>
      <trkpt lat="44.08448" lon="6.94633">
        <ele>1682.8000488281</ele>
        <time>2020-08-22T13:24:42.000Z</time>
      </trkpt>
      <trkpt lat="44.08451" lon="6.94631">
        <ele>1682.5999755859</ele>
        <time>2020-08-22T13:24:44.000Z</time>
      </trkpt>
      <trkpt lat="44.08454" lon="6.94629">
        <ele>1683.1999511719</ele>
        <time>2020-08-22T13:24:46.000Z</time>
      </trkpt>
      <trkpt lat="44.08456" lon="6.94628">
        <ele>1683.5999755859</ele>
        <time>2020-08-22T13:24:47.000Z</time>
      </trkpt>
      <trkpt lat="44.08461" lon="6.94625">
        <ele>1684.1999511719</ele>
        <time>2020-08-22T13:24:50.000Z</time>
      </trkpt>
      <trkpt lat="44.08468" lon="6.9461">
        <ele>1684.4000244141</ele>
        <time>2020-08-22T13:24:55.000Z</time>
      </trkpt>
      <trkpt lat="44.08476" lon="6.94596">
        <ele>1683.8000488281</ele>
        <time>2020-08-22T13:25:00.000Z</time>
      </trkpt>
      <trkpt lat="44.08482" lon="6.94581">
        <ele>1684.1999511719</ele>
        <time>2020-08-22T13:25:04.000Z</time>
      </trkpt>
      <trkpt lat="44.08483" lon="6.94562">
        <ele>1683</ele>
        <time>2020-08-22T13:25:07.000Z</time>
      </trkpt>
      <trkpt lat="44.08483" lon="6.94554">
        <ele>1682.4000244141</ele>
        <time>2020-08-22T13:25:08.000Z</time>
      </trkpt>
      <trkpt lat="44.08483" lon="6.94546">
        <ele>1681.5999755859</ele>
        <time>2020-08-22T13:25:09.000Z</time>
      </trkpt>
      <trkpt lat="44.08484" lon="6.94536">
        <ele>1680.1999511719</ele>
        <time>2020-08-22T13:25:11.000Z</time>
      </trkpt>
      <trkpt lat="44.08485" lon="6.94532">
        <ele>1680.1999511719</ele>
        <time>2020-08-22T13:25:12.000Z</time>
      </trkpt>
      <trkpt lat="44.0849" lon="6.94519">
        <ele>1681.5999755859</ele>
        <time>2020-08-22T13:25:16.000Z</time>
      </trkpt>
      <trkpt lat="44.08491" lon="6.94514">
        <ele>1682</ele>
        <time>2020-08-22T13:25:17.000Z</time>
      </trkpt>
      <trkpt lat="44.08498" lon="6.94492">
        <ele>1682.1999511719</ele>
        <time>2020-08-22T13:25:22.000Z</time>
      </trkpt>
      <trkpt lat="44.08504" lon="6.94476">
        <ele>1681.8000488281</ele>
        <time>2020-08-22T13:25:27.000Z</time>
      </trkpt>
      <trkpt lat="44.0851" lon="6.94448">
        <ele>1682.4000244141</ele>
        <time>2020-08-22T13:25:34.000Z</time>
      </trkpt>
      <trkpt lat="44.08512" lon="6.94414">
        <ele>1682</ele>
        <time>2020-08-22T13:25:40.000Z</time>
      </trkpt>
      <trkpt lat="44.08516" lon="6.94395">
        <ele>1683</ele>
        <time>2020-08-22T13:25:45.000Z</time>
      </trkpt>
      <trkpt lat="44.0852" lon="6.94383">
        <ele>1684</ele>
        <time>2020-08-22T13:25:50.000Z</time>
      </trkpt>
      <trkpt lat="44.0852" lon="6.94381">
        <ele>1684.1999511719</ele>
        <time>2020-08-22T13:25:51.000Z</time>
      </trkpt>
      <trkpt lat="44.08526" lon="6.94361">
        <ele>1685</ele>
        <time>2020-08-22T13:25:57.000Z</time>
      </trkpt>
      <trkpt lat="44.08534" lon="6.94328">
        <ele>1684</ele>
        <time>2020-08-22T13:26:03.000Z</time>
      </trkpt>
      <trkpt lat="44.08535" lon="6.94322">
        <ele>1683.8000488281</ele>
        <time>2020-08-22T13:26:04.000Z</time>
      </trkpt>
      <trkpt lat="44.08538" lon="6.94297">
        <ele>1683.1999511719</ele>
        <time>2020-08-22T13:26:09.000Z</time>
      </trkpt>
      <trkpt lat="44.08538" lon="6.94269">
        <ele>1683.8000488281</ele>
        <time>2020-08-22T13:26:15.000Z</time>
      </trkpt>
      <trkpt lat="44.08538" lon="6.94243">
        <ele>1684</ele>
        <time>2020-08-22T13:26:20.000Z</time>
      </trkpt>
      <trkpt lat="44.08538" lon="6.94218">
        <ele>1684.1999511719</ele>
        <time>2020-08-22T13:26:26.000Z</time>
      </trkpt>
      <trkpt lat="44.08536" lon="6.94202">
        <ele>1683.1999511719</ele>
        <time>2020-08-22T13:26:31.000Z</time>
      </trkpt>
      <trkpt lat="44.08533" lon="6.94198">
        <ele>1683</ele>
        <time>2020-08-22T13:26:32.000Z</time>
      </trkpt>
      <trkpt lat="44.0853" lon="6.94193">
        <ele>1682.5999755859</ele>
        <time>2020-08-22T13:26:33.000Z</time>
      </trkpt>
      <trkpt lat="44.08527" lon="6.94188">
        <ele>1682.4000244141</ele>
        <time>2020-08-22T13:26:34.000Z</time>
      </trkpt>
      <trkpt lat="44.08524" lon="6.94182">
        <ele>1682</ele>
        <time>2020-08-22T13:26:35.000Z</time>
      </trkpt>
      <trkpt lat="44.08521" lon="6.94176">
        <ele>1681.5999755859</ele>
        <time>2020-08-22T13:26:36.000Z</time>
      </trkpt>
      <trkpt lat="44.08513" lon="6.94157">
        <ele>1680.5999755859</ele>
        <time>2020-08-22T13:26:39.000Z</time>
      </trkpt>
      <trkpt lat="44.08505" lon="6.94143">
        <ele>1680.1999511719</ele>
        <time>2020-08-22T13:26:42.000Z</time>
      </trkpt>
      <trkpt lat="44.08494" lon="6.94135">
        <ele>1681.4000244141</ele>
        <time>2020-08-22T13:26:46.000Z</time>
      </trkpt>
      <trkpt lat="44.08491" lon="6.94134">
        <ele>1681.5999755859</ele>
        <time>2020-08-22T13:26:47.000Z</time>
      </trkpt>
      <trkpt lat="44.08476" lon="6.94129">
        <ele>1682.5999755859</ele>
        <time>2020-08-22T13:26:51.000Z</time>
      </trkpt>
      <trkpt lat="44.08468" lon="6.94126">
        <ele>1682.8000488281</ele>
        <time>2020-08-22T13:26:53.000Z</time>
      </trkpt>
      <trkpt lat="44.08436" lon="6.94114">
        <ele>1683.1999511719</ele>
        <time>2020-08-22T13:27:01.000Z</time>
      </trkpt>
      <trkpt lat="44.08418" lon="6.94105">
        <ele>1683.4000244141</ele>
        <time>2020-08-22T13:27:06.000Z</time>
      </trkpt>
      <trkpt lat="44.08397" lon="6.94096">
        <ele>1682.8000488281</ele>
        <time>2020-08-22T13:27:12.000Z</time>
      </trkpt>
      <trkpt lat="44.08375" lon="6.9409">
        <ele>1683.1999511719</ele>
        <time>2020-08-22T13:27:18.000Z</time>
      </trkpt>
      <trkpt lat="44.08358" lon="6.94089">
        <ele>1683.4000244141</ele>
        <time>2020-08-22T13:27:23.000Z</time>
      </trkpt>
      <trkpt lat="44.08339" lon="6.94078">
        <ele>1683</ele>
        <time>2020-08-22T13:27:28.000Z</time>
      </trkpt>
      <trkpt lat="44.08326" lon="6.94056">
        <ele>1682.8000488281</ele>
        <time>2020-08-22T13:27:34.000Z</time>
      </trkpt>
      <trkpt lat="44.08314" lon="6.94034">
        <ele>1683.8000488281</ele>
        <time>2020-08-22T13:27:40.000Z</time>
      </trkpt>
      <trkpt lat="44.08296" lon="6.9401">
        <ele>1683.4000244141</ele>
        <time>2020-08-22T13:27:46.000Z</time>
      </trkpt>
      <trkpt lat="44.08281" lon="6.9401">
        <ele>1682.5999755859</ele>
        <time>2020-08-22T13:27:50.000Z</time>
      </trkpt>
      <trkpt lat="44.08278" lon="6.94013">
        <ele>1682.1999511719</ele>
        <time>2020-08-22T13:27:51.000Z</time>
      </trkpt>
      <trkpt lat="44.08274" lon="6.9402">
        <ele>1682.5999755859</ele>
        <time>2020-08-22T13:27:53.000Z</time>
      </trkpt>
      <trkpt lat="44.08266" lon="6.94035">
        <ele>1683.4000244141</ele>
        <time>2020-08-22T13:27:57.000Z</time>
      </trkpt>
      <trkpt lat="44.08264" lon="6.94037">
        <ele>1683.8000488281</ele>
        <time>2020-08-22T13:27:58.000Z</time>
      </trkpt>
      <trkpt lat="44.0826" lon="6.94046">
        <ele>1685</ele>
        <time>2020-08-22T13:28:01.000Z</time>
      </trkpt>
      <trkpt lat="44.08257" lon="6.9405">
        <ele>1685.8000488281</ele>
        <time>2020-08-22T13:28:03.000Z</time>
      </trkpt>
      <trkpt lat="44.08256" lon="6.94052">
        <ele>1686.4000244141</ele>
        <time>2020-08-22T13:28:04.000Z</time>
      </trkpt>
      <trkpt lat="44.0825" lon="6.9406">
        <ele>1687.5999755859</ele>
        <time>2020-08-22T13:28:08.000Z</time>
      </trkpt>
      <trkpt lat="44.08247" lon="6.94062">
        <ele>1688.4000244141</ele>
        <time>2020-08-22T13:28:10.000Z</time>
      </trkpt>
      <trkpt lat="44.08244" lon="6.94064">
        <ele>1688.8000488281</ele>
        <time>2020-08-22T13:28:12.000Z</time>
      </trkpt>
      <trkpt lat="44.08237" lon="6.94066">
        <ele>1689.8000488281</ele>
        <time>2020-08-22T13:28:17.000Z</time>
      </trkpt>
      <trkpt lat="44.08236" lon="6.94067">
        <ele>1690</ele>
        <time>2020-08-22T13:28:18.000Z</time>
      </trkpt>
      <trkpt lat="44.08231" lon="6.9407">
        <ele>1690.8000488281</ele>
        <time>2020-08-22T13:28:22.000Z</time>
      </trkpt>
      <trkpt lat="44.0823" lon="6.94071">
        <ele>1691</ele>
        <time>2020-08-22T13:28:24.000Z</time>
      </trkpt>
      <trkpt lat="44.08228" lon="6.94071">
        <ele>1691.5999755859</ele>
        <time>2020-08-22T13:28:27.000Z</time>
      </trkpt>
      <trkpt lat="44.08225" lon="6.94073">
        <ele>1692.1999511719</ele>
        <time>2020-08-22T13:28:30.000Z</time>
      </trkpt>
      <trkpt lat="44.08221" lon="6.94075">
        <ele>1693.1999511719</ele>
        <time>2020-08-22T13:28:34.000Z</time>
      </trkpt>
      <trkpt lat="44.0822" lon="6.94076">
        <ele>1693.4000244141</ele>
        <time>2020-08-22T13:28:35.000Z</time>
      </trkpt>
      <trkpt lat="44.0821" lon="6.94079">
        <ele>1694.1999511719</ele>
        <time>2020-08-22T13:28:43.000Z</time>
      </trkpt>
      <trkpt lat="44.08204" lon="6.9408">
        <ele>1694.4000244141</ele>
        <time>2020-08-22T13:28:48.000Z</time>
      </trkpt>
      <trkpt lat="44.08201" lon="6.94081">
        <ele>1695</ele>
        <time>2020-08-22T13:28:51.000Z</time>
      </trkpt>
      <trkpt lat="44.08196" lon="6.9408">
        <ele>1695.4000244141</ele>
        <time>2020-08-22T13:28:58.000Z</time>
      </trkpt>
      <trkpt lat="44.08196" lon="6.9408">
        <ele>1695.5999755859</ele>
        <time>2020-08-22T13:28:59.000Z</time>
      </trkpt>
      <trkpt lat="44.08196" lon="6.9408">
        <ele>1695.4000244141</ele>
        <time>2020-08-22T13:29:06.000Z</time>
      </trkpt>
      <trkpt lat="44.08196" lon="6.9408">
        <ele>1695.4000244141</ele>
        <time>2020-08-22T13:29:11.000Z</time>
      </trkpt>
      <trkpt lat="44.08197" lon="6.94079">
        <ele>1695.1999511719</ele>
        <time>2020-08-22T13:29:16.000Z</time>
      </trkpt>
      <trkpt lat="44.08196" lon="6.94079">
        <ele>1695.1999511719</ele>
        <time>2020-08-22T13:29:25.000Z</time>
      </trkpt>
      <trkpt lat="44.08196" lon="6.94078">
        <ele>1694.4000244141</ele>
        <time>2020-08-22T13:29:32.000Z</time>
      </trkpt>
      <trkpt lat="44.08196" lon="6.94078">
        <ele>1694</ele>
        <time>2020-08-22T13:29:33.000Z</time>
      </trkpt>
      <trkpt lat="44.08196" lon="6.94078">
        <ele>1693.8000488281</ele>
        <time>2020-08-22T13:29:47.000Z</time>
      </trkpt>
      <trkpt lat="44.08196" lon="6.94079">
        <ele>1694</ele>
        <time>2020-08-22T13:29:53.000Z</time>
      </trkpt>
      <trkpt lat="44.08196" lon="6.9408">
        <ele>1693.5999755859</ele>
        <time>2020-08-22T13:30:07.000Z</time>
      </trkpt>
      <trkpt lat="44.08196" lon="6.94081">
        <ele>1693.5999755859</ele>
        <time>2020-08-22T13:30:25.000Z</time>
      </trkpt>
      <trkpt lat="44.08196" lon="6.94084">
        <ele>1693.5999755859</ele>
        <time>2020-08-22T13:30:42.000Z</time>
      </trkpt>
      <trkpt lat="44.08195" lon="6.94084">
        <ele>1694.1999511719</ele>
        <time>2020-08-22T13:30:49.000Z</time>
      </trkpt>
      <trkpt lat="44.08196" lon="6.94084">
        <ele>1694.4000244141</ele>
        <time>2020-08-22T13:30:55.000Z</time>
      </trkpt>
      <trkpt lat="44.08193" lon="6.94084">
        <ele>1694.5999755859</ele>
        <time>2020-08-22T13:31:01.000Z</time>
      </trkpt>
      <trkpt lat="44.0818" lon="6.94079">
        <ele>1694.1999511719</ele>
        <time>2020-08-22T13:31:06.000Z</time>
      </trkpt>
      <trkpt lat="44.08169" lon="6.94076">
        <ele>1694</ele>
        <time>2020-08-22T13:31:09.000Z</time>
      </trkpt>
      <trkpt lat="44.08161" lon="6.94074">
        <ele>1693.8000488281</ele>
        <time>2020-08-22T13:31:11.000Z</time>
      </trkpt>
      <trkpt lat="44.08139" lon="6.94072">
        <ele>1693.4000244141</ele>
        <time>2020-08-22T13:31:17.000Z</time>
      </trkpt>
      <trkpt lat="44.08123" lon="6.94073">
        <ele>1694.5999755859</ele>
        <time>2020-08-22T13:31:22.000Z</time>
      </trkpt>
      <trkpt lat="44.08107" lon="6.94081">
        <ele>1695.4000244141</ele>
        <time>2020-08-22T13:31:28.000Z</time>
      </trkpt>
      <trkpt lat="44.08101" lon="6.94081">
        <ele>1696.5999755859</ele>
        <time>2020-08-22T13:31:32.000Z</time>
      </trkpt>
      <trkpt lat="44.081" lon="6.94081">
        <ele>1696.8000488281</ele>
        <time>2020-08-22T13:31:33.000Z</time>
      </trkpt>
      <trkpt lat="44.08097" lon="6.94082">
        <ele>1697.8000488281</ele>
        <time>2020-08-22T13:31:37.000Z</time>
      </trkpt>
      <trkpt lat="44.08096" lon="6.94083">
        <ele>1698.4000244141</ele>
        <time>2020-08-22T13:31:39.000Z</time>
      </trkpt>
      <trkpt lat="44.08095" lon="6.94084">
        <ele>1698.8000488281</ele>
        <time>2020-08-22T13:31:41.000Z</time>
      </trkpt>
      <trkpt lat="44.0809" lon="6.94085">
        <ele>1699.1999511719</ele>
        <time>2020-08-22T13:31:45.000Z</time>
      </trkpt>
      <trkpt lat="44.08087" lon="6.94087">
        <ele>1700</ele>
        <time>2020-08-22T13:31:49.000Z</time>
      </trkpt>
      <trkpt lat="44.08086" lon="6.94088">
        <ele>1700.1999511719</ele>
        <time>2020-08-22T13:31:50.000Z</time>
      </trkpt>
      <trkpt lat="44.08083" lon="6.9409">
        <ele>1700.4000244141</ele>
        <time>2020-08-22T13:31:53.000Z</time>
      </trkpt>
      <trkpt lat="44.08081" lon="6.94091">
        <ele>1700.5999755859</ele>
        <time>2020-08-22T13:31:56.000Z</time>
      </trkpt>
      <trkpt lat="44.08078" lon="6.94093">
        <ele>1701</ele>
        <time>2020-08-22T13:31:59.000Z</time>
      </trkpt>
      <trkpt lat="44.08075" lon="6.94094">
        <ele>1701.4000244141</ele>
        <time>2020-08-22T13:32:02.000Z</time>
      </trkpt>
      <trkpt lat="44.08073" lon="6.94096">
        <ele>1701.5999755859</ele>
        <time>2020-08-22T13:32:05.000Z</time>
      </trkpt>
      <trkpt lat="44.08071" lon="6.94096">
        <ele>1702</ele>
        <time>2020-08-22T13:32:09.000Z</time>
      </trkpt>
      <trkpt lat="44.08065" lon="6.94098">
        <ele>1703.1999511719</ele>
        <time>2020-08-22T13:32:16.000Z</time>
      </trkpt>
      <trkpt lat="44.0806" lon="6.94098">
        <ele>1704.1999511719</ele>
        <time>2020-08-22T13:32:21.000Z</time>
      </trkpt>
      <trkpt lat="44.08057" lon="6.94098">
        <ele>1705.1999511719</ele>
        <time>2020-08-22T13:32:24.000Z</time>
      </trkpt>
      <trkpt lat="44.08054" lon="6.94095">
        <ele>1706.4000244141</ele>
        <time>2020-08-22T13:32:28.000Z</time>
      </trkpt>
      <trkpt lat="44.0805" lon="6.94093">
        <ele>1707</ele>
        <time>2020-08-22T13:32:33.000Z</time>
      </trkpt>
      <trkpt lat="44.08047" lon="6.94091">
        <ele>1707.4000244141</ele>
        <time>2020-08-22T13:32:37.000Z</time>
      </trkpt>
      <trkpt lat="44.08045" lon="6.9409">
        <ele>1707.5999755859</ele>
        <time>2020-08-22T13:32:39.000Z</time>
      </trkpt>
      <trkpt lat="44.08041" lon="6.94089">
        <ele>1708.1999511719</ele>
        <time>2020-08-22T13:32:43.000Z</time>
      </trkpt>
      <trkpt lat="44.08039" lon="6.94089">
        <ele>1708.8000488281</ele>
        <time>2020-08-22T13:32:45.000Z</time>
      </trkpt>
      <trkpt lat="44.08038" lon="6.94089">
        <ele>1708.8000488281</ele>
        <time>2020-08-22T13:32:46.000Z</time>
      </trkpt>
      <trkpt lat="44.08037" lon="6.94089">
        <ele>1709</ele>
        <time>2020-08-22T13:32:47.000Z</time>
      </trkpt>
      <trkpt lat="44.08033" lon="6.94088">
        <ele>1710</ele>
        <time>2020-08-22T13:32:51.000Z</time>
      </trkpt>
      <trkpt lat="44.08029" lon="6.94088">
        <ele>1710.1999511719</ele>
        <time>2020-08-22T13:32:54.000Z</time>
      </trkpt>
      <trkpt lat="44.08027" lon="6.94086">
        <ele>1711.1999511719</ele>
        <time>2020-08-22T13:32:59.000Z</time>
      </trkpt>
      <trkpt lat="44.08027" lon="6.94086">
        <ele>1711.4000244141</ele>
        <time>2020-08-22T13:33:00.000Z</time>
      </trkpt>
      <trkpt lat="44.08027" lon="6.94086">
        <ele>1711.4000244141</ele>
        <time>2020-08-22T13:33:05.000Z</time>
      </trkpt>
      <trkpt lat="44.08026" lon="6.94085">
        <ele>1712</ele>
        <time>2020-08-22T13:33:11.000Z</time>
      </trkpt>
      <trkpt lat="44.08025" lon="6.94085">
        <ele>1711.4000244141</ele>
        <time>2020-08-22T13:33:17.000Z</time>
      </trkpt>
      <trkpt lat="44.08025" lon="6.94085">
        <ele>1710.8000488281</ele>
        <time>2020-08-22T13:33:25.000Z</time>
      </trkpt>
      <trkpt lat="44.08023" lon="6.94088">
        <ele>1710.8000488281</ele>
        <time>2020-08-22T13:33:37.000Z</time>
      </trkpt>
      <trkpt lat="44.08022" lon="6.94092">
        <ele>1711.1999511719</ele>
        <time>2020-08-22T13:33:50.000Z</time>
      </trkpt>
      <trkpt lat="44.08021" lon="6.94094">
        <ele>1710.8000488281</ele>
        <time>2020-08-22T13:34:02.000Z</time>
      </trkpt>
      <trkpt lat="44.08021" lon="6.94091">
        <ele>1711.1999511719</ele>
        <time>2020-08-22T13:34:14.000Z</time>
      </trkpt>
      <trkpt lat="44.08021" lon="6.94091">
        <ele>1710.8000488281</ele>
        <time>2020-08-22T13:34:22.000Z</time>
      </trkpt>
      <trkpt lat="44.08021" lon="6.9409">
        <ele>1710.8000488281</ele>
        <time>2020-08-22T13:34:28.000Z</time>
      </trkpt>
      <trkpt lat="44.08021" lon="6.94089">
        <ele>1710</ele>
        <time>2020-08-22T13:34:32.000Z</time>
      </trkpt>
      <trkpt lat="44.08021" lon="6.94089">
        <ele>1710</ele>
        <time>2020-08-22T13:34:34.000Z</time>
      </trkpt>
      <trkpt lat="44.08021" lon="6.94089">
        <ele>1710.1999511719</ele>
        <time>2020-08-22T13:34:42.000Z</time>
      </trkpt>
      <trkpt lat="44.08022" lon="6.94085">
        <ele>1709.4000244141</ele>
        <time>2020-08-22T13:34:52.000Z</time>
      </trkpt>
      <trkpt lat="44.08021" lon="6.94085">
        <ele>1710.1999511719</ele>
        <time>2020-08-22T13:35:02.000Z</time>
      </trkpt>
      <trkpt lat="44.0802" lon="6.94086">
        <ele>1710</ele>
        <time>2020-08-22T13:35:14.000Z</time>
      </trkpt>
      <trkpt lat="44.0802" lon="6.94087">
        <ele>1710</ele>
        <time>2020-08-22T13:35:24.000Z</time>
      </trkpt>
      <trkpt lat="44.08019" lon="6.94088">
        <ele>1710.1999511719</ele>
        <time>2020-08-22T13:35:33.000Z</time>
      </trkpt>
      <trkpt lat="44.0802" lon="6.94088">
        <ele>1710.1999511719</ele>
        <time>2020-08-22T13:35:43.000Z</time>
      </trkpt>
      <trkpt lat="44.08019" lon="6.94091">
        <ele>1710.1999511719</ele>
        <time>2020-08-22T13:35:52.000Z</time>
      </trkpt>
      <trkpt lat="44.0802" lon="6.94091">
        <ele>1710</ele>
        <time>2020-08-22T13:36:04.000Z</time>
      </trkpt>
      <trkpt lat="44.08019" lon="6.94093">
        <ele>1709.8000488281</ele>
        <time>2020-08-22T13:36:17.000Z</time>
      </trkpt>
      <trkpt lat="44.08018" lon="6.94092">
        <ele>1710.4000244141</ele>
        <time>2020-08-22T13:36:27.000Z</time>
      </trkpt>
      <trkpt lat="44.08019" lon="6.94092">
        <ele>1710.4000244141</ele>
        <time>2020-08-22T13:36:41.000Z</time>
      </trkpt>
      <trkpt lat="44.08017" lon="6.94092">
        <ele>1710.4000244141</ele>
        <time>2020-08-22T13:36:50.000Z</time>
      </trkpt>
      <trkpt lat="44.08017" lon="6.94091">
        <ele>1711</ele>
        <time>2020-08-22T13:37:01.000Z</time>
      </trkpt>
      <trkpt lat="44.08017" lon="6.9409">
        <ele>1711.1999511719</ele>
        <time>2020-08-22T13:37:03.000Z</time>
      </trkpt>
      <trkpt lat="44.08018" lon="6.94089">
        <ele>1711.1999511719</ele>
        <time>2020-08-22T13:37:10.000Z</time>
      </trkpt>
      <trkpt lat="44.08019" lon="6.94087">
        <ele>1711</ele>
        <time>2020-08-22T13:37:23.000Z</time>
      </trkpt>
      <trkpt lat="44.08018" lon="6.94088">
        <ele>1710.5999755859</ele>
        <time>2020-08-22T13:37:37.000Z</time>
      </trkpt>
      <trkpt lat="44.08018" lon="6.94088">
        <ele>1711.4000244141</ele>
        <time>2020-08-22T13:37:46.000Z</time>
      </trkpt>
      <trkpt lat="44.08018" lon="6.94086">
        <ele>1711</ele>
        <time>2020-08-22T13:38:00.000Z</time>
      </trkpt>
      <trkpt lat="44.08018" lon="6.94087">
        <ele>1711</ele>
        <time>2020-08-22T13:38:10.000Z</time>
      </trkpt>
      <trkpt lat="44.08017" lon="6.94092">
        <ele>1710.8000488281</ele>
        <time>2020-08-22T13:38:25.000Z</time>
      </trkpt>
      <trkpt lat="44.08016" lon="6.94093">
        <ele>1711</ele>
        <time>2020-08-22T13:38:35.000Z</time>
      </trkpt>
      <trkpt lat="44.08017" lon="6.94091">
        <ele>1711</ele>
        <time>2020-08-22T13:38:48.000Z</time>
      </trkpt>
      <trkpt lat="44.08017" lon="6.9409">
        <ele>1711.4000244141</ele>
        <time>2020-08-22T13:38:59.000Z</time>
      </trkpt>
      <trkpt lat="44.08019" lon="6.94086">
        <ele>1712</ele>
        <time>2020-08-22T13:39:12.000Z</time>
      </trkpt>
      <trkpt lat="44.08021" lon="6.94085">
        <ele>1711.4000244141</ele>
        <time>2020-08-22T13:39:25.000Z</time>
      </trkpt>
      <trkpt lat="44.08021" lon="6.94085">
        <ele>1711.5999755859</ele>
        <time>2020-08-22T13:39:32.000Z</time>
      </trkpt>
      <trkpt lat="44.0802" lon="6.94088">
        <ele>1711.1999511719</ele>
        <time>2020-08-22T13:39:42.000Z</time>
      </trkpt>
      <trkpt lat="44.08019" lon="6.94092">
        <ele>1711</ele>
        <time>2020-08-22T13:39:56.000Z</time>
      </trkpt>
      <trkpt lat="44.08019" lon="6.94093">
        <ele>1711.4000244141</ele>
        <time>2020-08-22T13:40:07.000Z</time>
      </trkpt>
      <trkpt lat="44.08019" lon="6.941">
        <ele>1711</ele>
        <time>2020-08-22T13:40:26.000Z</time>
      </trkpt>
      <trkpt lat="44.08018" lon="6.941">
        <ele>1711.1999511719</ele>
        <time>2020-08-22T13:40:40.000Z</time>
      </trkpt>
      <trkpt lat="44.08019" lon="6.94099">
        <ele>1711.4000244141</ele>
        <time>2020-08-22T13:40:50.000Z</time>
      </trkpt>
      <trkpt lat="44.08019" lon="6.94103">
        <ele>1710.5999755859</ele>
        <time>2020-08-22T13:41:09.000Z</time>
      </trkpt>
      <trkpt lat="44.08019" lon="6.94102">
        <ele>1710.4000244141</ele>
        <time>2020-08-22T13:41:17.000Z</time>
      </trkpt>
      <trkpt lat="44.08019" lon="6.941">
        <ele>1710.1999511719</ele>
        <time>2020-08-22T13:41:20.000Z</time>
      </trkpt>
      <trkpt lat="44.0802" lon="6.94097">
        <ele>1709.8000488281</ele>
        <time>2020-08-22T13:41:26.000Z</time>
      </trkpt>
      <trkpt lat="44.08021" lon="6.94091">
        <ele>1710.5999755859</ele>
        <time>2020-08-22T13:41:42.000Z</time>
      </trkpt>
      <trkpt lat="44.08021" lon="6.94089">
        <ele>1711.1999511719</ele>
        <time>2020-08-22T13:41:49.000Z</time>
      </trkpt>
      <trkpt lat="44.08021" lon="6.94088">
        <ele>1711</ele>
        <time>2020-08-22T13:41:56.000Z</time>
      </trkpt>
      <trkpt lat="44.08021" lon="6.94088">
        <ele>1710.8000488281</ele>
        <time>2020-08-22T13:42:08.000Z</time>
      </trkpt>
      <trkpt lat="44.08021" lon="6.94088">
        <ele>1710.5999755859</ele>
        <time>2020-08-22T13:42:20.000Z</time>
      </trkpt>
      <trkpt lat="44.08021" lon="6.94087">
        <ele>1710.5999755859</ele>
        <time>2020-08-22T13:42:30.000Z</time>
      </trkpt>
      <trkpt lat="44.08021" lon="6.94087">
        <ele>1711</ele>
        <time>2020-08-22T13:42:38.000Z</time>
      </trkpt>
      <trkpt lat="44.08021" lon="6.94085">
        <ele>1711.1999511719</ele>
        <time>2020-08-22T13:42:47.000Z</time>
      </trkpt>
      <trkpt lat="44.08021" lon="6.94083">
        <ele>1711.8000488281</ele>
        <time>2020-08-22T13:42:58.000Z</time>
      </trkpt>
      <trkpt lat="44.08021" lon="6.94083">
        <ele>1711.5999755859</ele>
        <time>2020-08-22T13:43:05.000Z</time>
      </trkpt>
      <trkpt lat="44.08021" lon="6.94083">
        <ele>1711.4000244141</ele>
        <time>2020-08-22T13:43:15.000Z</time>
      </trkpt>
      <trkpt lat="44.08021" lon="6.94084">
        <ele>1711.5999755859</ele>
        <time>2020-08-22T13:43:23.000Z</time>
      </trkpt>
      <trkpt lat="44.0802" lon="6.94084">
        <ele>1711.8000488281</ele>
        <time>2020-08-22T13:43:36.000Z</time>
      </trkpt>
      <trkpt lat="44.08019" lon="6.94086">
        <ele>1711.8000488281</ele>
        <time>2020-08-22T13:43:49.000Z</time>
      </trkpt>
      <trkpt lat="44.08017" lon="6.94084">
        <ele>1712</ele>
        <time>2020-08-22T13:44:02.000Z</time>
      </trkpt>
      <trkpt lat="44.08016" lon="6.94082">
        <ele>1711.8000488281</ele>
        <time>2020-08-22T13:44:13.000Z</time>
      </trkpt>
      <trkpt lat="44.08015" lon="6.94082">
        <ele>1711.8000488281</ele>
        <time>2020-08-22T13:44:25.000Z</time>
      </trkpt>
      <trkpt lat="44.08016" lon="6.94083">
        <ele>1711.5999755859</ele>
        <time>2020-08-22T13:44:36.000Z</time>
      </trkpt>
      <trkpt lat="44.08016" lon="6.94082">
        <ele>1711.5999755859</ele>
        <time>2020-08-22T13:44:45.000Z</time>
      </trkpt>
      <trkpt lat="44.08016" lon="6.94079">
        <ele>1711.4000244141</ele>
        <time>2020-08-22T13:44:55.000Z</time>
      </trkpt>
      <trkpt lat="44.08017" lon="6.94079">
        <ele>1711</ele>
        <time>2020-08-22T13:45:04.000Z</time>
      </trkpt>
      <trkpt lat="44.08017" lon="6.9408">
        <ele>1711.1999511719</ele>
        <time>2020-08-22T13:45:11.000Z</time>
      </trkpt>
      <trkpt lat="44.08018" lon="6.94083">
        <ele>1711.4000244141</ele>
        <time>2020-08-22T13:45:23.000Z</time>
      </trkpt>
      <trkpt lat="44.08017" lon="6.94084">
        <ele>1711.8000488281</ele>
        <time>2020-08-22T13:45:30.000Z</time>
      </trkpt>
      <trkpt lat="44.08017" lon="6.94086">
        <ele>1712</ele>
        <time>2020-08-22T13:45:38.000Z</time>
      </trkpt>
      <trkpt lat="44.08016" lon="6.94088">
        <ele>1712</ele>
        <time>2020-08-22T13:45:49.000Z</time>
      </trkpt>
      <trkpt lat="44.08017" lon="6.94087">
        <ele>1712.4000244141</ele>
        <time>2020-08-22T13:45:54.000Z</time>
      </trkpt>
      <trkpt lat="44.08018" lon="6.94086">
        <ele>1712.5999755859</ele>
        <time>2020-08-22T13:45:56.000Z</time>
      </trkpt>
      <trkpt lat="44.08019" lon="6.94083">
        <ele>1713</ele>
        <time>2020-08-22T13:46:04.000Z</time>
      </trkpt>
      <trkpt lat="44.08019" lon="6.94083">
        <ele>1712</ele>
        <time>2020-08-22T13:46:11.000Z</time>
      </trkpt>
      <trkpt lat="44.08018" lon="6.94084">
        <ele>1713</ele>
        <time>2020-08-22T13:46:17.000Z</time>
      </trkpt>
      <trkpt lat="44.08017" lon="6.94084">
        <ele>1712.5999755859</ele>
        <time>2020-08-22T13:46:24.000Z</time>
      </trkpt>
      <trkpt lat="44.08017" lon="6.94084">
        <ele>1712.4000244141</ele>
        <time>2020-08-22T13:46:28.000Z</time>
      </trkpt>
      <trkpt lat="44.08015" lon="6.94083">
        <ele>1713.1999511719</ele>
        <time>2020-08-22T13:46:32.000Z</time>
      </trkpt>
      <trkpt lat="44.08014" lon="6.94084">
        <ele>1713.4000244141</ele>
        <time>2020-08-22T13:46:37.000Z</time>
      </trkpt>
      <trkpt lat="44.08015" lon="6.94085">
        <ele>1713.4000244141</ele>
        <time>2020-08-22T13:46:38.000Z</time>
      </trkpt>
      <trkpt lat="44.08013" lon="6.94093">
        <ele>1713.4000244141</ele>
        <time>2020-08-22T13:46:43.000Z</time>
      </trkpt>
      <trkpt lat="44.08009" lon="6.94097">
        <ele>1712.5999755859</ele>
        <time>2020-08-22T13:46:48.000Z</time>
      </trkpt>
      <trkpt lat="44.08006" lon="6.94105">
        <ele>1712.1999511719</ele>
        <time>2020-08-22T13:46:53.000Z</time>
      </trkpt>
      <trkpt lat="44.08003" lon="6.94107">
        <ele>1711.4000244141</ele>
        <time>2020-08-22T13:46:57.000Z</time>
      </trkpt>
      <trkpt lat="44.08003" lon="6.94108">
        <ele>1711.5999755859</ele>
        <time>2020-08-22T13:47:08.000Z</time>
      </trkpt>
      <trkpt lat="44.08003" lon="6.94109">
        <ele>1712</ele>
        <time>2020-08-22T13:47:14.000Z</time>
      </trkpt>
      <trkpt lat="44.08001" lon="6.94112">
        <ele>1712</ele>
        <time>2020-08-22T13:47:19.000Z</time>
      </trkpt>
      <trkpt lat="44.08001" lon="6.94113">
        <ele>1711.1999511719</ele>
        <time>2020-08-22T13:47:25.000Z</time>
      </trkpt>
      <trkpt lat="44.08001" lon="6.94113">
        <ele>1711</ele>
        <time>2020-08-22T13:47:30.000Z</time>
      </trkpt>
      <trkpt lat="44.08001" lon="6.94114">
        <ele>1711.4000244141</ele>
        <time>2020-08-22T13:47:36.000Z</time>
      </trkpt>
      <trkpt lat="44.08" lon="6.94116">
        <ele>1711.8000488281</ele>
        <time>2020-08-22T13:47:43.000Z</time>
      </trkpt>
      <trkpt lat="44.08" lon="6.94116">
        <ele>1711.8000488281</ele>
        <time>2020-08-22T13:47:46.000Z</time>
      </trkpt>
      <trkpt lat="44.07996" lon="6.94123">
        <ele>1712</ele>
        <time>2020-08-22T13:47:49.000Z</time>
      </trkpt>
      <trkpt lat="44.07994" lon="6.94134">
        <ele>1711.4000244141</ele>
        <time>2020-08-22T13:47:53.000Z</time>
      </trkpt>
      <trkpt lat="44.07989" lon="6.94148">
        <ele>1711.4000244141</ele>
        <time>2020-08-22T13:47:57.000Z</time>
      </trkpt>
      <trkpt lat="44.07984" lon="6.94165">
        <ele>1710.5999755859</ele>
        <time>2020-08-22T13:48:01.000Z</time>
      </trkpt>
      <trkpt lat="44.07983" lon="6.94176">
        <ele>1710</ele>
        <time>2020-08-22T13:48:03.000Z</time>
      </trkpt>
      <trkpt lat="44.07983" lon="6.9419">
        <ele>1708.8000488281</ele>
        <time>2020-08-22T13:48:06.000Z</time>
      </trkpt>
      <trkpt lat="44.07982" lon="6.94195">
        <ele>1708.5999755859</ele>
        <time>2020-08-22T13:48:07.000Z</time>
      </trkpt>
      <trkpt lat="44.07981" lon="6.94208">
        <ele>1708.8000488281</ele>
        <time>2020-08-22T13:48:11.000Z</time>
      </trkpt>
      <trkpt lat="44.07978" lon="6.94227">
        <ele>1709.5999755859</ele>
        <time>2020-08-22T13:48:16.000Z</time>
      </trkpt>
      <trkpt lat="44.07977" lon="6.94233">
        <ele>1709.4000244141</ele>
        <time>2020-08-22T13:48:17.000Z</time>
      </trkpt>
      <trkpt lat="44.0797" lon="6.9425">
        <ele>1708.8000488281</ele>
        <time>2020-08-22T13:48:20.000Z</time>
      </trkpt>
      <trkpt lat="44.07969" lon="6.94258">
        <ele>1707.1999511719</ele>
        <time>2020-08-22T13:48:22.000Z</time>
      </trkpt>
      <trkpt lat="44.07969" lon="6.94262">
        <ele>1706</ele>
        <time>2020-08-22T13:48:23.000Z</time>
      </trkpt>
      <trkpt lat="44.07968" lon="6.94264">
        <ele>1705.8000488281</ele>
        <time>2020-08-22T13:48:24.000Z</time>
      </trkpt>
      <trkpt lat="44.07966" lon="6.94267">
        <ele>1704.5999755859</ele>
        <time>2020-08-22T13:48:26.000Z</time>
      </trkpt>
      <trkpt lat="44.07962" lon="6.9427">
        <ele>1703.1999511719</ele>
        <time>2020-08-22T13:48:28.000Z</time>
      </trkpt>
      <trkpt lat="44.07961" lon="6.94271">
        <ele>1702.1999511719</ele>
        <time>2020-08-22T13:48:29.000Z</time>
      </trkpt>
      <trkpt lat="44.0796" lon="6.94274">
        <ele>1701.5999755859</ele>
        <time>2020-08-22T13:48:30.000Z</time>
      </trkpt>
      <trkpt lat="44.07961" lon="6.94282">
        <ele>1699.8000488281</ele>
        <time>2020-08-22T13:48:32.000Z</time>
      </trkpt>
      <trkpt lat="44.07964" lon="6.94289">
        <ele>1698</ele>
        <time>2020-08-22T13:48:34.000Z</time>
      </trkpt>
      <trkpt lat="44.0797" lon="6.94297">
        <ele>1696.5999755859</ele>
        <time>2020-08-22T13:48:36.000Z</time>
      </trkpt>
      <trkpt lat="44.07972" lon="6.94307">
        <ele>1695.1999511719</ele>
        <time>2020-08-22T13:48:38.000Z</time>
      </trkpt>
      <trkpt lat="44.07974" lon="6.94312">
        <ele>1694.1999511719</ele>
        <time>2020-08-22T13:48:39.000Z</time>
      </trkpt>
      <trkpt lat="44.07974" lon="6.94317">
        <ele>1692.4000244141</ele>
        <time>2020-08-22T13:48:40.000Z</time>
      </trkpt>
      <trkpt lat="44.07974" lon="6.94323">
        <ele>1690.4000244141</ele>
        <time>2020-08-22T13:48:42.000Z</time>
      </trkpt>
      <trkpt lat="44.07973" lon="6.94326">
        <ele>1689.5999755859</ele>
        <time>2020-08-22T13:48:43.000Z</time>
      </trkpt>
      <trkpt lat="44.07971" lon="6.94328">
        <ele>1688.4000244141</ele>
        <time>2020-08-22T13:48:44.000Z</time>
      </trkpt>
      <trkpt lat="44.0797" lon="6.94332">
        <ele>1687.5999755859</ele>
        <time>2020-08-22T13:48:45.000Z</time>
      </trkpt>
      <trkpt lat="44.0797" lon="6.94336">
        <ele>1686.8000488281</ele>
        <time>2020-08-22T13:48:46.000Z</time>
      </trkpt>
      <trkpt lat="44.07971" lon="6.94341">
        <ele>1685.8000488281</ele>
        <time>2020-08-22T13:48:47.000Z</time>
      </trkpt>
      <trkpt lat="44.07971" lon="6.94347">
        <ele>1685</ele>
        <time>2020-08-22T13:48:48.000Z</time>
      </trkpt>
      <trkpt lat="44.07972" lon="6.94358">
        <ele>1683.1999511719</ele>
        <time>2020-08-22T13:48:50.000Z</time>
      </trkpt>
      <trkpt lat="44.07972" lon="6.94364">
        <ele>1682.5999755859</ele>
        <time>2020-08-22T13:48:51.000Z</time>
      </trkpt>
      <trkpt lat="44.07972" lon="6.9437">
        <ele>1681.8000488281</ele>
        <time>2020-08-22T13:48:52.000Z</time>
      </trkpt>
      <trkpt lat="44.07973" lon="6.94375">
        <ele>1680.8000488281</ele>
        <time>2020-08-22T13:48:53.000Z</time>
      </trkpt>
      <trkpt lat="44.07974" lon="6.9438">
        <ele>1680</ele>
        <time>2020-08-22T13:48:54.000Z</time>
      </trkpt>
      <trkpt lat="44.07979" lon="6.94388">
        <ele>1678.1999511719</ele>
        <time>2020-08-22T13:48:56.000Z</time>
      </trkpt>
      <trkpt lat="44.07982" lon="6.9439">
        <ele>1677</ele>
        <time>2020-08-22T13:48:57.000Z</time>
      </trkpt>
      <trkpt lat="44.07984" lon="6.94392">
        <ele>1676.1999511719</ele>
        <time>2020-08-22T13:48:58.000Z</time>
      </trkpt>
      <trkpt lat="44.0799" lon="6.94399">
        <ele>1675.8000488281</ele>
        <time>2020-08-22T13:49:00.000Z</time>
      </trkpt>
      <trkpt lat="44.07992" lon="6.94404">
        <ele>1675.8000488281</ele>
        <time>2020-08-22T13:49:01.000Z</time>
      </trkpt>
      <trkpt lat="44.08002" lon="6.94424">
        <ele>1675.8000488281</ele>
        <time>2020-08-22T13:49:05.000Z</time>
      </trkpt>
      <trkpt lat="44.08005" lon="6.94429">
        <ele>1675.4000244141</ele>
        <time>2020-08-22T13:49:06.000Z</time>
      </trkpt>
      <trkpt lat="44.08016" lon="6.94438">
        <ele>1675.1999511719</ele>
        <time>2020-08-22T13:49:09.000Z</time>
      </trkpt>
      <trkpt lat="44.08021" lon="6.94445">
        <ele>1674.8000488281</ele>
        <time>2020-08-22T13:49:12.000Z</time>
      </trkpt>
      <trkpt lat="44.08022" lon="6.94449">
        <ele>1675</ele>
        <time>2020-08-22T13:49:13.000Z</time>
      </trkpt>
      <trkpt lat="44.08029" lon="6.94457">
        <ele>1673.5999755859</ele>
        <time>2020-08-22T13:49:16.000Z</time>
      </trkpt>
      <trkpt lat="44.08032" lon="6.9446">
        <ele>1673</ele>
        <time>2020-08-22T13:49:17.000Z</time>
      </trkpt>
      <trkpt lat="44.08035" lon="6.94463">
        <ele>1672.1999511719</ele>
        <time>2020-08-22T13:49:18.000Z</time>
      </trkpt>
      <trkpt lat="44.08041" lon="6.9447">
        <ele>1670.8000488281</ele>
        <time>2020-08-22T13:49:20.000Z</time>
      </trkpt>
      <trkpt lat="44.08043" lon="6.94473">
        <ele>1670.1999511719</ele>
        <time>2020-08-22T13:49:21.000Z</time>
      </trkpt>
      <trkpt lat="44.08044" lon="6.94477">
        <ele>1669.4000244141</ele>
        <time>2020-08-22T13:49:22.000Z</time>
      </trkpt>
      <trkpt lat="44.08042" lon="6.94482">
        <ele>1667.8000488281</ele>
        <time>2020-08-22T13:49:24.000Z</time>
      </trkpt>
      <trkpt lat="44.08042" lon="6.94488">
        <ele>1666.5999755859</ele>
        <time>2020-08-22T13:49:26.000Z</time>
      </trkpt>
      <trkpt lat="44.08043" lon="6.94492">
        <ele>1665.8000488281</ele>
        <time>2020-08-22T13:49:27.000Z</time>
      </trkpt>
      <trkpt lat="44.08043" lon="6.94498">
        <ele>1665</ele>
        <time>2020-08-22T13:49:28.000Z</time>
      </trkpt>
      <trkpt lat="44.08046" lon="6.94507">
        <ele>1664</ele>
        <time>2020-08-22T13:49:30.000Z</time>
      </trkpt>
      <trkpt lat="44.08047" lon="6.94512">
        <ele>1663</ele>
        <time>2020-08-22T13:49:31.000Z</time>
      </trkpt>
      <trkpt lat="44.08048" lon="6.94517">
        <ele>1661.8000488281</ele>
        <time>2020-08-22T13:49:32.000Z</time>
      </trkpt>
      <trkpt lat="44.08049" lon="6.9452">
        <ele>1660.5999755859</ele>
        <time>2020-08-22T13:49:33.000Z</time>
      </trkpt>
      <trkpt lat="44.08049" lon="6.94524">
        <ele>1660</ele>
        <time>2020-08-22T13:49:34.000Z</time>
      </trkpt>
      <trkpt lat="44.0805" lon="6.94528">
        <ele>1659.5999755859</ele>
        <time>2020-08-22T13:49:35.000Z</time>
      </trkpt>
      <trkpt lat="44.08053" lon="6.94545">
        <ele>1659.5999755859</ele>
        <time>2020-08-22T13:49:39.000Z</time>
      </trkpt>
      <trkpt lat="44.08056" lon="6.94559">
        <ele>1658</ele>
        <time>2020-08-22T13:49:43.000Z</time>
      </trkpt>
      <trkpt lat="44.08058" lon="6.94568">
        <ele>1656.8000488281</ele>
        <time>2020-08-22T13:49:45.000Z</time>
      </trkpt>
      <trkpt lat="44.08059" lon="6.94577">
        <ele>1655.4000244141</ele>
        <time>2020-08-22T13:49:47.000Z</time>
      </trkpt>
      <trkpt lat="44.0806" lon="6.94587">
        <ele>1654</ele>
        <time>2020-08-22T13:49:49.000Z</time>
      </trkpt>
      <trkpt lat="44.0806" lon="6.94594">
        <ele>1652.5999755859</ele>
        <time>2020-08-22T13:49:50.000Z</time>
      </trkpt>
      <trkpt lat="44.08058" lon="6.946">
        <ele>1651.5999755859</ele>
        <time>2020-08-22T13:49:51.000Z</time>
      </trkpt>
      <trkpt lat="44.08057" lon="6.94613">
        <ele>1649.5999755859</ele>
        <time>2020-08-22T13:49:53.000Z</time>
      </trkpt>
      <trkpt lat="44.08056" lon="6.9462">
        <ele>1648.4000244141</ele>
        <time>2020-08-22T13:49:54.000Z</time>
      </trkpt>
      <trkpt lat="44.08057" lon="6.94624">
        <ele>1647.5999755859</ele>
        <time>2020-08-22T13:49:55.000Z</time>
      </trkpt>
      <trkpt lat="44.08057" lon="6.94628">
        <ele>1646</ele>
        <time>2020-08-22T13:49:56.000Z</time>
      </trkpt>
      <trkpt lat="44.08057" lon="6.94631">
        <ele>1645.5999755859</ele>
        <time>2020-08-22T13:49:57.000Z</time>
      </trkpt>
      <trkpt lat="44.08057" lon="6.94635">
        <ele>1644.8000488281</ele>
        <time>2020-08-22T13:49:58.000Z</time>
      </trkpt>
      <trkpt lat="44.08056" lon="6.94641">
        <ele>1644</ele>
        <time>2020-08-22T13:50:00.000Z</time>
      </trkpt>
      <trkpt lat="44.08055" lon="6.94646">
        <ele>1643.1999511719</ele>
        <time>2020-08-22T13:50:02.000Z</time>
      </trkpt>
      <trkpt lat="44.08052" lon="6.94648">
        <ele>1641.5999755859</ele>
        <time>2020-08-22T13:50:04.000Z</time>
      </trkpt>
      <trkpt lat="44.08051" lon="6.94651">
        <ele>1641</ele>
        <time>2020-08-22T13:50:05.000Z</time>
      </trkpt>
      <trkpt lat="44.0805" lon="6.94661">
        <ele>1640.1999511719</ele>
        <time>2020-08-22T13:50:07.000Z</time>
      </trkpt>
      <trkpt lat="44.08051" lon="6.94668">
        <ele>1639.5999755859</ele>
        <time>2020-08-22T13:50:08.000Z</time>
      </trkpt>
      <trkpt lat="44.08052" lon="6.94673">
        <ele>1638.1999511719</ele>
        <time>2020-08-22T13:50:09.000Z</time>
      </trkpt>
      <trkpt lat="44.08053" lon="6.94675">
        <ele>1637</ele>
        <time>2020-08-22T13:50:10.000Z</time>
      </trkpt>
      <trkpt lat="44.08054" lon="6.94676">
        <ele>1636</ele>
        <time>2020-08-22T13:50:11.000Z</time>
      </trkpt>
      <trkpt lat="44.08056" lon="6.94679">
        <ele>1635</ele>
        <time>2020-08-22T13:50:13.000Z</time>
      </trkpt>
      <trkpt lat="44.08059" lon="6.94681">
        <ele>1635.5999755859</ele>
        <time>2020-08-22T13:50:16.000Z</time>
      </trkpt>
      <trkpt lat="44.08062" lon="6.94684">
        <ele>1635.4000244141</ele>
        <time>2020-08-22T13:50:18.000Z</time>
      </trkpt>
      <trkpt lat="44.08065" lon="6.94686">
        <ele>1634.8000488281</ele>
        <time>2020-08-22T13:50:20.000Z</time>
      </trkpt>
      <trkpt lat="44.08069" lon="6.9468">
        <ele>1633.5999755859</ele>
        <time>2020-08-22T13:50:22.000Z</time>
      </trkpt>
      <trkpt lat="44.08071" lon="6.94677">
        <ele>1632.8000488281</ele>
        <time>2020-08-22T13:50:23.000Z</time>
      </trkpt>
      <trkpt lat="44.08073" lon="6.94672">
        <ele>1632</ele>
        <time>2020-08-22T13:50:24.000Z</time>
      </trkpt>
      <trkpt lat="44.08076" lon="6.94669">
        <ele>1631.4000244141</ele>
        <time>2020-08-22T13:50:25.000Z</time>
      </trkpt>
      <trkpt lat="44.0808" lon="6.94667">
        <ele>1631</ele>
        <time>2020-08-22T13:50:26.000Z</time>
      </trkpt>
      <trkpt lat="44.08083" lon="6.94667">
        <ele>1630.8000488281</ele>
        <time>2020-08-22T13:50:27.000Z</time>
      </trkpt>
      <trkpt lat="44.08084" lon="6.94674">
        <ele>1630.8000488281</ele>
        <time>2020-08-22T13:50:29.000Z</time>
      </trkpt>
      <trkpt lat="44.08084" lon="6.94685">
        <ele>1630</ele>
        <time>2020-08-22T13:50:31.000Z</time>
      </trkpt>
      <trkpt lat="44.08083" lon="6.94693">
        <ele>1629.1999511719</ele>
        <time>2020-08-22T13:50:32.000Z</time>
      </trkpt>
      <trkpt lat="44.08083" lon="6.94698">
        <ele>1626.8000488281</ele>
        <time>2020-08-22T13:50:33.000Z</time>
      </trkpt>
      <trkpt lat="44.08083" lon="6.94708">
        <ele>1625</ele>
        <time>2020-08-22T13:50:35.000Z</time>
      </trkpt>
      <trkpt lat="44.08084" lon="6.94713">
        <ele>1623.5999755859</ele>
        <time>2020-08-22T13:50:36.000Z</time>
      </trkpt>
      <trkpt lat="44.08085" lon="6.94717">
        <ele>1623</ele>
        <time>2020-08-22T13:50:37.000Z</time>
      </trkpt>
      <trkpt lat="44.08086" lon="6.94719">
        <ele>1622.8000488281</ele>
        <time>2020-08-22T13:50:38.000Z</time>
      </trkpt>
      <trkpt lat="44.08088" lon="6.94719">
        <ele>1621.1999511719</ele>
        <time>2020-08-22T13:50:39.000Z</time>
      </trkpt>
      <trkpt lat="44.08091" lon="6.94719">
        <ele>1620.1999511719</ele>
        <time>2020-08-22T13:50:40.000Z</time>
      </trkpt>
      <trkpt lat="44.08097" lon="6.94721">
        <ele>1618</ele>
        <time>2020-08-22T13:50:42.000Z</time>
      </trkpt>
      <trkpt lat="44.081" lon="6.94721">
        <ele>1617.1999511719</ele>
        <time>2020-08-22T13:50:43.000Z</time>
      </trkpt>
      <trkpt lat="44.08102" lon="6.94723">
        <ele>1616.4000244141</ele>
        <time>2020-08-22T13:50:44.000Z</time>
      </trkpt>
      <trkpt lat="44.08103" lon="6.94729">
        <ele>1615</ele>
        <time>2020-08-22T13:50:46.000Z</time>
      </trkpt>
      <trkpt lat="44.08105" lon="6.94737">
        <ele>1613.5999755859</ele>
        <time>2020-08-22T13:50:48.000Z</time>
      </trkpt>
      <trkpt lat="44.0811" lon="6.94742">
        <ele>1612</ele>
        <time>2020-08-22T13:50:50.000Z</time>
      </trkpt>
      <trkpt lat="44.08118" lon="6.94745">
        <ele>1611.1999511719</ele>
        <time>2020-08-22T13:50:52.000Z</time>
      </trkpt>
      <trkpt lat="44.08122" lon="6.94747">
        <ele>1610.5999755859</ele>
        <time>2020-08-22T13:50:53.000Z</time>
      </trkpt>
      <trkpt lat="44.08126" lon="6.9475">
        <ele>1610</ele>
        <time>2020-08-22T13:50:54.000Z</time>
      </trkpt>
      <trkpt lat="44.08139" lon="6.94765">
        <ele>1609.5999755859</ele>
        <time>2020-08-22T13:50:58.000Z</time>
      </trkpt>
      <trkpt lat="44.08143" lon="6.9477">
        <ele>1608.8000488281</ele>
        <time>2020-08-22T13:51:00.000Z</time>
      </trkpt>
      <trkpt lat="44.08147" lon="6.9478">
        <ele>1607.1999511719</ele>
        <time>2020-08-22T13:51:02.000Z</time>
      </trkpt>
      <trkpt lat="44.08149" lon="6.94785">
        <ele>1605.4000244141</ele>
        <time>2020-08-22T13:51:03.000Z</time>
      </trkpt>
      <trkpt lat="44.08154" lon="6.94792">
        <ele>1602.5999755859</ele>
        <time>2020-08-22T13:51:05.000Z</time>
      </trkpt>
      <trkpt lat="44.08157" lon="6.94794">
        <ele>1601.1999511719</ele>
        <time>2020-08-22T13:51:06.000Z</time>
      </trkpt>
      <trkpt lat="44.08162" lon="6.94796">
        <ele>1600.1999511719</ele>
        <time>2020-08-22T13:51:07.000Z</time>
      </trkpt>
      <trkpt lat="44.08166" lon="6.94797">
        <ele>1599.5999755859</ele>
        <time>2020-08-22T13:51:08.000Z</time>
      </trkpt>
      <trkpt lat="44.08171" lon="6.94798">
        <ele>1598.4000244141</ele>
        <time>2020-08-22T13:51:09.000Z</time>
      </trkpt>
      <trkpt lat="44.08175" lon="6.948">
        <ele>1598</ele>
        <time>2020-08-22T13:51:10.000Z</time>
      </trkpt>
      <trkpt lat="44.08177" lon="6.94803">
        <ele>1597.8000488281</ele>
        <time>2020-08-22T13:51:11.000Z</time>
      </trkpt>
      <trkpt lat="44.08174" lon="6.9481">
        <ele>1597.1999511719</ele>
        <time>2020-08-22T13:51:13.000Z</time>
      </trkpt>
      <trkpt lat="44.08162" lon="6.94811">
        <ele>1596.5999755859</ele>
        <time>2020-08-22T13:51:15.000Z</time>
      </trkpt>
      <trkpt lat="44.08156" lon="6.94812">
        <ele>1596</ele>
        <time>2020-08-22T13:51:16.000Z</time>
      </trkpt>
      <trkpt lat="44.08151" lon="6.94815">
        <ele>1595</ele>
        <time>2020-08-22T13:51:17.000Z</time>
      </trkpt>
      <trkpt lat="44.08148" lon="6.94821">
        <ele>1593.8000488281</ele>
        <time>2020-08-22T13:51:18.000Z</time>
      </trkpt>
      <trkpt lat="44.08147" lon="6.94828">
        <ele>1592.5999755859</ele>
        <time>2020-08-22T13:51:19.000Z</time>
      </trkpt>
      <trkpt lat="44.08151" lon="6.94842">
        <ele>1590.8000488281</ele>
        <time>2020-08-22T13:51:21.000Z</time>
      </trkpt>
      <trkpt lat="44.08153" lon="6.9485">
        <ele>1590.5999755859</ele>
        <time>2020-08-22T13:51:22.000Z</time>
      </trkpt>
      <trkpt lat="44.08154" lon="6.9486">
        <ele>1590</ele>
        <time>2020-08-22T13:51:24.000Z</time>
      </trkpt>
      <trkpt lat="44.08161" lon="6.9486">
        <ele>1589.4000244141</ele>
        <time>2020-08-22T13:51:26.000Z</time>
      </trkpt>
      <trkpt lat="44.08172" lon="6.94864">
        <ele>1587.5999755859</ele>
        <time>2020-08-22T13:51:28.000Z</time>
      </trkpt>
      <trkpt lat="44.08175" lon="6.94871">
        <ele>1586.1999511719</ele>
        <time>2020-08-22T13:51:29.000Z</time>
      </trkpt>
      <trkpt lat="44.08177" lon="6.9488">
        <ele>1584.5999755859</ele>
        <time>2020-08-22T13:51:30.000Z</time>
      </trkpt>
      <trkpt lat="44.08177" lon="6.94888">
        <ele>1583.8000488281</ele>
        <time>2020-08-22T13:51:31.000Z</time>
      </trkpt>
      <trkpt lat="44.08175" lon="6.94894">
        <ele>1582.4000244141</ele>
        <time>2020-08-22T13:51:32.000Z</time>
      </trkpt>
      <trkpt lat="44.0817" lon="6.94897">
        <ele>1582.4000244141</ele>
        <time>2020-08-22T13:51:33.000Z</time>
      </trkpt>
      <trkpt lat="44.08153" lon="6.94902">
        <ele>1580.8000488281</ele>
        <time>2020-08-22T13:51:36.000Z</time>
      </trkpt>
      <trkpt lat="44.0815" lon="6.94907">
        <ele>1580.5999755859</ele>
        <time>2020-08-22T13:51:37.000Z</time>
      </trkpt>
      <trkpt lat="44.08152" lon="6.9492">
        <ele>1579.1999511719</ele>
        <time>2020-08-22T13:51:39.000Z</time>
      </trkpt>
      <trkpt lat="44.08154" lon="6.94928">
        <ele>1578</ele>
        <time>2020-08-22T13:51:40.000Z</time>
      </trkpt>
      <trkpt lat="44.08152" lon="6.94932">
        <ele>1577.1999511719</ele>
        <time>2020-08-22T13:51:41.000Z</time>
      </trkpt>
      <trkpt lat="44.08147" lon="6.94934">
        <ele>1576.4000244141</ele>
        <time>2020-08-22T13:51:42.000Z</time>
      </trkpt>
      <trkpt lat="44.08142" lon="6.94933">
        <ele>1575.4000244141</ele>
        <time>2020-08-22T13:51:43.000Z</time>
      </trkpt>
      <trkpt lat="44.08137" lon="6.94933">
        <ele>1575</ele>
        <time>2020-08-22T13:51:44.000Z</time>
      </trkpt>
      <trkpt lat="44.08134" lon="6.94935">
        <ele>1574.4000244141</ele>
        <time>2020-08-22T13:51:45.000Z</time>
      </trkpt>
      <trkpt lat="44.08134" lon="6.94939">
        <ele>1574.1999511719</ele>
        <time>2020-08-22T13:51:46.000Z</time>
      </trkpt>
      <trkpt lat="44.08134" lon="6.94944">
        <ele>1573.4000244141</ele>
        <time>2020-08-22T13:51:47.000Z</time>
      </trkpt>
      <trkpt lat="44.08131" lon="6.9495">
        <ele>1572.1999511719</ele>
        <time>2020-08-22T13:51:49.000Z</time>
      </trkpt>
      <trkpt lat="44.08125" lon="6.9496">
        <ele>1571.1999511719</ele>
        <time>2020-08-22T13:51:52.000Z</time>
      </trkpt>
      <trkpt lat="44.08121" lon="6.94964">
        <ele>1570.8000488281</ele>
        <time>2020-08-22T13:51:53.000Z</time>
      </trkpt>
      <trkpt lat="44.08117" lon="6.9497">
        <ele>1570.4000244141</ele>
        <time>2020-08-22T13:51:54.000Z</time>
      </trkpt>
      <trkpt lat="44.08114" lon="6.94976">
        <ele>1570.1999511719</ele>
        <time>2020-08-22T13:51:55.000Z</time>
      </trkpt>
      <trkpt lat="44.08113" lon="6.94984">
        <ele>1569</ele>
        <time>2020-08-22T13:51:56.000Z</time>
      </trkpt>
      <trkpt lat="44.08109" lon="6.95003">
        <ele>1567.5999755859</ele>
        <time>2020-08-22T13:51:58.000Z</time>
      </trkpt>
      <trkpt lat="44.08105" lon="6.95011">
        <ele>1566.4000244141</ele>
        <time>2020-08-22T13:51:59.000Z</time>
      </trkpt>
      <trkpt lat="44.08101" lon="6.95018">
        <ele>1565.4000244141</ele>
        <time>2020-08-22T13:52:00.000Z</time>
      </trkpt>
      <trkpt lat="44.08095" lon="6.9503">
        <ele>1563.8000488281</ele>
        <time>2020-08-22T13:52:02.000Z</time>
      </trkpt>
      <trkpt lat="44.08094" lon="6.95032">
        <ele>1562.5999755859</ele>
        <time>2020-08-22T13:52:03.000Z</time>
      </trkpt>
      <trkpt lat="44.08092" lon="6.95038">
        <ele>1561</ele>
        <time>2020-08-22T13:52:06.000Z</time>
      </trkpt>
      <trkpt lat="44.08093" lon="6.95038">
        <ele>1561</ele>
        <time>2020-08-22T13:52:07.000Z</time>
      </trkpt>
      <trkpt lat="44.08093" lon="6.95039">
        <ele>1561</ele>
        <time>2020-08-22T13:52:13.000Z</time>
      </trkpt>
      <trkpt lat="44.08093" lon="6.95039">
        <ele>1560</ele>
        <time>2020-08-22T13:52:21.000Z</time>
      </trkpt>
      <trkpt lat="44.08093" lon="6.9504">
        <ele>1560.8000488281</ele>
        <time>2020-08-22T13:52:28.000Z</time>
      </trkpt>
      <trkpt lat="44.08094" lon="6.95043">
        <ele>1560.4000244141</ele>
        <time>2020-08-22T13:52:35.000Z</time>
      </trkpt>
      <trkpt lat="44.08095" lon="6.95056">
        <ele>1560</ele>
        <time>2020-08-22T13:52:38.000Z</time>
      </trkpt>
      <trkpt lat="44.08095" lon="6.95062">
        <ele>1560</ele>
        <time>2020-08-22T13:52:39.000Z</time>
      </trkpt>
      <trkpt lat="44.08094" lon="6.95086">
        <ele>1559.1999511719</ele>
        <time>2020-08-22T13:52:42.000Z</time>
      </trkpt>
      <trkpt lat="44.08094" lon="6.95095">
        <ele>1559</ele>
        <time>2020-08-22T13:52:43.000Z</time>
      </trkpt>
      <trkpt lat="44.08095" lon="6.95115">
        <ele>1557.8000488281</ele>
        <time>2020-08-22T13:52:45.000Z</time>
      </trkpt>
      <trkpt lat="44.08095" lon="6.95125">
        <ele>1557.4000244141</ele>
        <time>2020-08-22T13:52:46.000Z</time>
      </trkpt>
      <trkpt lat="44.08095" lon="6.9515">
        <ele>1555.8000488281</ele>
        <time>2020-08-22T13:52:48.000Z</time>
      </trkpt>
      <trkpt lat="44.08094" lon="6.95162">
        <ele>1554.1999511719</ele>
        <time>2020-08-22T13:52:49.000Z</time>
      </trkpt>
      <trkpt lat="44.08094" lon="6.95175">
        <ele>1553.8000488281</ele>
        <time>2020-08-22T13:52:50.000Z</time>
      </trkpt>
      <trkpt lat="44.08094" lon="6.95188">
        <ele>1552.1999511719</ele>
        <time>2020-08-22T13:52:51.000Z</time>
      </trkpt>
      <trkpt lat="44.08093" lon="6.95216">
        <ele>1550.4000244141</ele>
        <time>2020-08-22T13:52:53.000Z</time>
      </trkpt>
      <trkpt lat="44.08092" lon="6.95242">
        <ele>1548.1999511719</ele>
        <time>2020-08-22T13:52:55.000Z</time>
      </trkpt>
      <trkpt lat="44.08092" lon="6.95268">
        <ele>1547.1999511719</ele>
        <time>2020-08-22T13:52:57.000Z</time>
      </trkpt>
      <trkpt lat="44.08092" lon="6.95293">
        <ele>1546</ele>
        <time>2020-08-22T13:52:59.000Z</time>
      </trkpt>
      <trkpt lat="44.08092" lon="6.95307">
        <ele>1545</ele>
        <time>2020-08-22T13:53:00.000Z</time>
      </trkpt>
      <trkpt lat="44.08092" lon="6.95319">
        <ele>1544.8000488281</ele>
        <time>2020-08-22T13:53:01.000Z</time>
      </trkpt>
      <trkpt lat="44.08091" lon="6.95347">
        <ele>1543.4000244141</ele>
        <time>2020-08-22T13:53:03.000Z</time>
      </trkpt>
      <trkpt lat="44.08091" lon="6.95359">
        <ele>1542.1999511719</ele>
        <time>2020-08-22T13:53:04.000Z</time>
      </trkpt>
      <trkpt lat="44.08092" lon="6.95372">
        <ele>1541.1999511719</ele>
        <time>2020-08-22T13:53:05.000Z</time>
      </trkpt>
      <trkpt lat="44.08092" lon="6.95384">
        <ele>1540</ele>
        <time>2020-08-22T13:53:06.000Z</time>
      </trkpt>
      <trkpt lat="44.08092" lon="6.95397">
        <ele>1538.1999511719</ele>
        <time>2020-08-22T13:53:07.000Z</time>
      </trkpt>
      <trkpt lat="44.08092" lon="6.95408">
        <ele>1536.8000488281</ele>
        <time>2020-08-22T13:53:08.000Z</time>
      </trkpt>
      <trkpt lat="44.08091" lon="6.95417">
        <ele>1536.1999511719</ele>
        <time>2020-08-22T13:53:09.000Z</time>
      </trkpt>
      <trkpt lat="44.08089" lon="6.95424">
        <ele>1535.5999755859</ele>
        <time>2020-08-22T13:53:10.000Z</time>
      </trkpt>
      <trkpt lat="44.08085" lon="6.9544">
        <ele>1535.1999511719</ele>
        <time>2020-08-22T13:53:12.000Z</time>
      </trkpt>
      <trkpt lat="44.08083" lon="6.95448">
        <ele>1534.4000244141</ele>
        <time>2020-08-22T13:53:13.000Z</time>
      </trkpt>
      <trkpt lat="44.08081" lon="6.95455">
        <ele>1533.8000488281</ele>
        <time>2020-08-22T13:53:14.000Z</time>
      </trkpt>
      <trkpt lat="44.08079" lon="6.95467">
        <ele>1532.1999511719</ele>
        <time>2020-08-22T13:53:16.000Z</time>
      </trkpt>
      <trkpt lat="44.08076" lon="6.95481">
        <ele>1531.1999511719</ele>
        <time>2020-08-22T13:53:18.000Z</time>
      </trkpt>
      <trkpt lat="44.08074" lon="6.95495">
        <ele>1530</ele>
        <time>2020-08-22T13:53:20.000Z</time>
      </trkpt>
      <trkpt lat="44.08072" lon="6.95521">
        <ele>1529</ele>
        <time>2020-08-22T13:53:23.000Z</time>
      </trkpt>
      <trkpt lat="44.08072" lon="6.95531">
        <ele>1528.5999755859</ele>
        <time>2020-08-22T13:53:24.000Z</time>
      </trkpt>
      <trkpt lat="44.08072" lon="6.95541">
        <ele>1528</ele>
        <time>2020-08-22T13:53:25.000Z</time>
      </trkpt>
      <trkpt lat="44.08073" lon="6.9555">
        <ele>1526.8000488281</ele>
        <time>2020-08-22T13:53:26.000Z</time>
      </trkpt>
      <trkpt lat="44.08076" lon="6.95569">
        <ele>1525</ele>
        <time>2020-08-22T13:53:28.000Z</time>
      </trkpt>
      <trkpt lat="44.08078" lon="6.95577">
        <ele>1523.8000488281</ele>
        <time>2020-08-22T13:53:29.000Z</time>
      </trkpt>
      <trkpt lat="44.08081" lon="6.95583">
        <ele>1522.5999755859</ele>
        <time>2020-08-22T13:53:30.000Z</time>
      </trkpt>
      <trkpt lat="44.08087" lon="6.95591">
        <ele>1521.4000244141</ele>
        <time>2020-08-22T13:53:32.000Z</time>
      </trkpt>
      <trkpt lat="44.08093" lon="6.956">
        <ele>1521.4000244141</ele>
        <time>2020-08-22T13:53:35.000Z</time>
      </trkpt>
      <trkpt lat="44.08103" lon="6.95604">
        <ele>1521.4000244141</ele>
        <time>2020-08-22T13:53:38.000Z</time>
      </trkpt>
      <trkpt lat="44.08103" lon="6.95603">
        <ele>1521.4000244141</ele>
        <time>2020-08-22T13:53:39.000Z</time>
      </trkpt>
      <trkpt lat="44.08122" lon="6.95604">
        <ele>1521.5999755859</ele>
        <time>2020-08-22T13:53:44.000Z</time>
      </trkpt>
      <trkpt lat="44.0815" lon="6.95604">
        <ele>1521.8000488281</ele>
        <time>2020-08-22T13:53:52.000Z</time>
      </trkpt>
      <trkpt lat="44.08169" lon="6.95606">
        <ele>1522.5999755859</ele>
        <time>2020-08-22T13:53:58.000Z</time>
      </trkpt>
      <trkpt lat="44.08172" lon="6.95607">
        <ele>1522.8000488281</ele>
        <time>2020-08-22T13:53:59.000Z</time>
      </trkpt>
      <trkpt lat="44.08203" lon="6.9561">
        <ele>1523.4000244141</ele>
        <time>2020-08-22T13:54:09.000Z</time>
      </trkpt>
      <trkpt lat="44.08206" lon="6.9561">
        <ele>1523.5999755859</ele>
        <time>2020-08-22T13:54:10.000Z</time>
      </trkpt>
      <trkpt lat="44.08231" lon="6.95613">
        <ele>1524.5999755859</ele>
        <time>2020-08-22T13:54:18.000Z</time>
      </trkpt>
      <trkpt lat="44.08234" lon="6.95614">
        <ele>1524.8000488281</ele>
        <time>2020-08-22T13:54:19.000Z</time>
      </trkpt>
      <trkpt lat="44.08249" lon="6.95616">
        <ele>1525.5999755859</ele>
        <time>2020-08-22T13:54:24.000Z</time>
      </trkpt>
      <trkpt lat="44.08255" lon="6.95616">
        <ele>1525.8000488281</ele>
        <time>2020-08-22T13:54:26.000Z</time>
      </trkpt>
      <trkpt lat="44.08271" lon="6.9562">
        <ele>1527</ele>
        <time>2020-08-22T13:54:31.000Z</time>
      </trkpt>
      <trkpt lat="44.0828" lon="6.95624">
        <ele>1527.1999511719</ele>
        <time>2020-08-22T13:54:34.000Z</time>
      </trkpt>
      <trkpt lat="44.08295" lon="6.95631">
        <ele>1528.1999511719</ele>
        <time>2020-08-22T13:54:39.000Z</time>
      </trkpt>
      <trkpt lat="44.08304" lon="6.95634">
        <ele>1528.5999755859</ele>
        <time>2020-08-22T13:54:42.000Z</time>
      </trkpt>
      <trkpt lat="44.08315" lon="6.95638">
        <ele>1529.1999511719</ele>
        <time>2020-08-22T13:54:46.000Z</time>
      </trkpt>
      <trkpt lat="44.0833" lon="6.95644">
        <ele>1529.8000488281</ele>
        <time>2020-08-22T13:54:51.000Z</time>
      </trkpt>
      <trkpt lat="44.08343" lon="6.95648">
        <ele>1530.1999511719</ele>
        <time>2020-08-22T13:54:55.000Z</time>
      </trkpt>
      <trkpt lat="44.08364" lon="6.95654">
        <ele>1531.1999511719</ele>
        <time>2020-08-22T13:55:02.000Z</time>
      </trkpt>
      <trkpt lat="44.08383" lon="6.95656">
        <ele>1532.1999511719</ele>
        <time>2020-08-22T13:55:08.000Z</time>
      </trkpt>
      <trkpt lat="44.08392" lon="6.95658">
        <ele>1532.5999755859</ele>
        <time>2020-08-22T13:55:11.000Z</time>
      </trkpt>
      <trkpt lat="44.08408" lon="6.95659">
        <ele>1533.4000244141</ele>
        <time>2020-08-22T13:55:16.000Z</time>
      </trkpt>
      <trkpt lat="44.08424" lon="6.95661">
        <ele>1534.1999511719</ele>
        <time>2020-08-22T13:55:21.000Z</time>
      </trkpt>
      <trkpt lat="44.08428" lon="6.95661">
        <ele>1534.4000244141</ele>
        <time>2020-08-22T13:55:22.000Z</time>
      </trkpt>
      <trkpt lat="44.08449" lon="6.95667">
        <ele>1535.4000244141</ele>
        <time>2020-08-22T13:55:29.000Z</time>
      </trkpt>
      <trkpt lat="44.08475" lon="6.95673">
        <ele>1536</ele>
        <time>2020-08-22T13:55:37.000Z</time>
      </trkpt>
      <trkpt lat="44.08488" lon="6.95677">
        <ele>1536.4000244141</ele>
        <time>2020-08-22T13:55:41.000Z</time>
      </trkpt>
      <trkpt lat="44.08498" lon="6.9568">
        <ele>1537</ele>
        <time>2020-08-22T13:55:44.000Z</time>
      </trkpt>
      <trkpt lat="44.08506" lon="6.9568">
        <ele>1537.4000244141</ele>
        <time>2020-08-22T13:55:47.000Z</time>
      </trkpt>
      <trkpt lat="44.0851" lon="6.95677">
        <ele>1537.8000488281</ele>
        <time>2020-08-22T13:55:49.000Z</time>
      </trkpt>
      <trkpt lat="44.08514" lon="6.95661">
        <ele>1538</ele>
        <time>2020-08-22T13:55:53.000Z</time>
      </trkpt>
      <trkpt lat="44.08523" lon="6.95633">
        <ele>1537.8000488281</ele>
        <time>2020-08-22T13:55:59.000Z</time>
      </trkpt>
      <trkpt lat="44.08535" lon="6.9562">
        <ele>1538.1999511719</ele>
        <time>2020-08-22T13:56:04.000Z</time>
      </trkpt>
      <trkpt lat="44.08542" lon="6.95606">
        <ele>1538.5999755859</ele>
        <time>2020-08-22T13:56:08.000Z</time>
      </trkpt>
      <trkpt lat="44.08549" lon="6.95592">
        <ele>1538.8000488281</ele>
        <time>2020-08-22T13:56:12.000Z</time>
      </trkpt>
      <trkpt lat="44.08563" lon="6.95562">
        <ele>1539.4000244141</ele>
        <time>2020-08-22T13:56:21.000Z</time>
      </trkpt>
      <trkpt lat="44.08568" lon="6.95558">
        <ele>1539.8000488281</ele>
        <time>2020-08-22T13:56:23.000Z</time>
      </trkpt>
      <trkpt lat="44.0858" lon="6.95547">
        <ele>1540.1999511719</ele>
        <time>2020-08-22T13:56:28.000Z</time>
      </trkpt>
      <trkpt lat="44.08594" lon="6.95533">
        <ele>1540.8000488281</ele>
        <time>2020-08-22T13:56:34.000Z</time>
      </trkpt>
      <trkpt lat="44.08598" lon="6.95528">
        <ele>1541</ele>
        <time>2020-08-22T13:56:36.000Z</time>
      </trkpt>
      <trkpt lat="44.08606" lon="6.9552">
        <ele>1541.8000488281</ele>
        <time>2020-08-22T13:56:40.000Z</time>
      </trkpt>
      <trkpt lat="44.08617" lon="6.95508">
        <ele>1542.5999755859</ele>
        <time>2020-08-22T13:56:45.000Z</time>
      </trkpt>
      <trkpt lat="44.08621" lon="6.95504">
        <ele>1543</ele>
        <time>2020-08-22T13:56:47.000Z</time>
      </trkpt>
      <trkpt lat="44.08636" lon="6.95489">
        <ele>1543.8000488281</ele>
        <time>2020-08-22T13:56:54.000Z</time>
      </trkpt>
      <trkpt lat="44.08641" lon="6.95487">
        <ele>1544</ele>
        <time>2020-08-22T13:56:56.000Z</time>
      </trkpt>
      <trkpt lat="44.08655" lon="6.95481">
        <ele>1544.5999755859</ele>
        <time>2020-08-22T13:57:02.000Z</time>
      </trkpt>
      <trkpt lat="44.08662" lon="6.95477">
        <ele>1545</ele>
        <time>2020-08-22T13:57:05.000Z</time>
      </trkpt>
      <trkpt lat="44.08672" lon="6.95466">
        <ele>1545.4000244141</ele>
        <time>2020-08-22T13:57:10.000Z</time>
      </trkpt>
      <trkpt lat="44.08694" lon="6.9544">
        <ele>1545.5999755859</ele>
        <time>2020-08-22T13:57:21.000Z</time>
      </trkpt>
      <trkpt lat="44.08699" lon="6.95436">
        <ele>1546</ele>
        <time>2020-08-22T13:57:23.000Z</time>
      </trkpt>
      <trkpt lat="44.08709" lon="6.95429">
        <ele>1546.5999755859</ele>
        <time>2020-08-22T13:57:27.000Z</time>
      </trkpt>
      <trkpt lat="44.08726" lon="6.9541">
        <ele>1547</ele>
        <time>2020-08-22T13:57:34.000Z</time>
      </trkpt>
      <trkpt lat="44.08727" lon="6.95408">
        <ele>1547</ele>
        <time>2020-08-22T13:57:35.000Z</time>
      </trkpt>
      <trkpt lat="44.08736" lon="6.95392">
        <ele>1548.1999511719</ele>
        <time>2020-08-22T13:57:40.000Z</time>
      </trkpt>
      <trkpt lat="44.08742" lon="6.95382">
        <ele>1548.5999755859</ele>
        <time>2020-08-22T13:57:43.000Z</time>
      </trkpt>
      <trkpt lat="44.08758" lon="6.95366">
        <ele>1549</ele>
        <time>2020-08-22T13:57:50.000Z</time>
      </trkpt>
      <trkpt lat="44.08763" lon="6.95361">
        <ele>1549.1999511719</ele>
        <time>2020-08-22T13:57:52.000Z</time>
      </trkpt>
      <trkpt lat="44.08774" lon="6.95347">
        <ele>1549.8000488281</ele>
        <time>2020-08-22T13:57:57.000Z</time>
      </trkpt>
      <trkpt lat="44.08785" lon="6.95336">
        <ele>1550.5999755859</ele>
        <time>2020-08-22T13:58:02.000Z</time>
      </trkpt>
      <trkpt lat="44.0879" lon="6.95328">
        <ele>1551.1999511719</ele>
        <time>2020-08-22T13:58:05.000Z</time>
      </trkpt>
      <trkpt lat="44.08792" lon="6.95324">
        <ele>1551.5999755859</ele>
        <time>2020-08-22T13:58:07.000Z</time>
      </trkpt>
      <trkpt lat="44.08801" lon="6.95312">
        <ele>1552.5999755859</ele>
        <time>2020-08-22T13:58:13.000Z</time>
      </trkpt>
      <trkpt lat="44.08804" lon="6.95308">
        <ele>1552.8000488281</ele>
        <time>2020-08-22T13:58:15.000Z</time>
      </trkpt>
      <trkpt lat="44.0881" lon="6.95299">
        <ele>1553.8000488281</ele>
        <time>2020-08-22T13:58:19.000Z</time>
      </trkpt>
      <trkpt lat="44.08816" lon="6.95289">
        <ele>1553.5999755859</ele>
        <time>2020-08-22T13:58:23.000Z</time>
      </trkpt>
      <trkpt lat="44.08829" lon="6.95269">
        <ele>1554.5999755859</ele>
        <time>2020-08-22T13:58:32.000Z</time>
      </trkpt>
      <trkpt lat="44.08829" lon="6.95267">
        <ele>1554.8000488281</ele>
        <time>2020-08-22T13:58:33.000Z</time>
      </trkpt>
      <trkpt lat="44.08836" lon="6.95252">
        <ele>1555.1999511719</ele>
        <time>2020-08-22T13:58:38.000Z</time>
      </trkpt>
      <trkpt lat="44.08848" lon="6.95237">
        <ele>1555.4000244141</ele>
        <time>2020-08-22T13:58:45.000Z</time>
      </trkpt>
      <trkpt lat="44.08854" lon="6.95233">
        <ele>1556</ele>
        <time>2020-08-22T13:58:48.000Z</time>
      </trkpt>
      <trkpt lat="44.08863" lon="6.95227">
        <ele>1556.5999755859</ele>
        <time>2020-08-22T13:58:53.000Z</time>
      </trkpt>
      <trkpt lat="44.08869" lon="6.95223">
        <ele>1557</ele>
        <time>2020-08-22T13:58:56.000Z</time>
      </trkpt>
      <trkpt lat="44.08875" lon="6.95219">
        <ele>1557.5999755859</ele>
        <time>2020-08-22T13:58:59.000Z</time>
      </trkpt>
      <trkpt lat="44.08889" lon="6.95215">
        <ele>1558</ele>
        <time>2020-08-22T13:59:05.000Z</time>
      </trkpt>
      <trkpt lat="44.08894" lon="6.95215">
        <ele>1558.4000244141</ele>
        <time>2020-08-22T13:59:07.000Z</time>
      </trkpt>
      <trkpt lat="44.0891" lon="6.95217">
        <ele>1559.1999511719</ele>
        <time>2020-08-22T13:59:14.000Z</time>
      </trkpt>
      <trkpt lat="44.08924" lon="6.95221">
        <ele>1560.1999511719</ele>
        <time>2020-08-22T13:59:20.000Z</time>
      </trkpt>
      <trkpt lat="44.08926" lon="6.95221">
        <ele>1560.4000244141</ele>
        <time>2020-08-22T13:59:21.000Z</time>
      </trkpt>
      <trkpt lat="44.08946" lon="6.95226">
        <ele>1560.5999755859</ele>
        <time>2020-08-22T13:59:30.000Z</time>
      </trkpt>
      <trkpt lat="44.08967" lon="6.95227">
        <ele>1559.8000488281</ele>
        <time>2020-08-22T13:59:36.000Z</time>
      </trkpt>
      <trkpt lat="44.08979" lon="6.95233">
        <ele>1560</ele>
        <time>2020-08-22T13:59:40.000Z</time>
      </trkpt>
      <trkpt lat="44.08988" lon="6.95238">
        <ele>1560.1999511719</ele>
        <time>2020-08-22T13:59:44.000Z</time>
      </trkpt>
      <trkpt lat="44.08998" lon="6.95236">
        <ele>1561.4000244141</ele>
        <time>2020-08-22T13:59:49.000Z</time>
      </trkpt>
      <trkpt lat="44.09001" lon="6.95236">
        <ele>1561.5999755859</ele>
        <time>2020-08-22T13:59:50.000Z</time>
      </trkpt>
      <trkpt lat="44.0901" lon="6.95237">
        <ele>1562.5999755859</ele>
        <time>2020-08-22T13:59:55.000Z</time>
      </trkpt>
      <trkpt lat="44.09018" lon="6.95236">
        <ele>1563.5999755859</ele>
        <time>2020-08-22T13:59:59.000Z</time>
      </trkpt>
      <trkpt lat="44.09023" lon="6.95236">
        <ele>1563.5999755859</ele>
        <time>2020-08-22T14:00:01.000Z</time>
      </trkpt>
      <trkpt lat="44.09034" lon="6.95234">
        <ele>1563.8000488281</ele>
        <time>2020-08-22T14:00:06.000Z</time>
      </trkpt>
      <trkpt lat="44.09047" lon="6.95232">
        <ele>1564.8000488281</ele>
        <time>2020-08-22T14:00:12.000Z</time>
      </trkpt>
      <trkpt lat="44.09055" lon="6.95229">
        <ele>1565</ele>
        <time>2020-08-22T14:00:16.000Z</time>
      </trkpt>
      <trkpt lat="44.09073" lon="6.95221">
        <ele>1565.4000244141</ele>
        <time>2020-08-22T14:00:24.000Z</time>
      </trkpt>
      <trkpt lat="44.09082" lon="6.95217">
        <ele>1565.8000488281</ele>
        <time>2020-08-22T14:00:28.000Z</time>
      </trkpt>
      <trkpt lat="44.09093" lon="6.95214">
        <ele>1566.1999511719</ele>
        <time>2020-08-22T14:00:33.000Z</time>
      </trkpt>
      <trkpt lat="44.09098" lon="6.95214">
        <ele>1566.1999511719</ele>
        <time>2020-08-22T14:00:35.000Z</time>
      </trkpt>
      <trkpt lat="44.09107" lon="6.95211">
        <ele>1566.8000488281</ele>
        <time>2020-08-22T14:00:39.000Z</time>
      </trkpt>
      <trkpt lat="44.0911" lon="6.95209">
        <ele>1567.1999511719</ele>
        <time>2020-08-22T14:00:40.000Z</time>
      </trkpt>
      <trkpt lat="44.09129" lon="6.95195">
        <ele>1566.8000488281</ele>
        <time>2020-08-22T14:00:46.000Z</time>
      </trkpt>
      <trkpt lat="44.09139" lon="6.95188">
        <ele>1568</ele>
        <time>2020-08-22T14:00:50.000Z</time>
      </trkpt>
      <trkpt lat="44.09144" lon="6.95186">
        <ele>1568.4000244141</ele>
        <time>2020-08-22T14:00:52.000Z</time>
      </trkpt>
      <trkpt lat="44.0916" lon="6.95177">
        <ele>1569</ele>
        <time>2020-08-22T14:00:59.000Z</time>
      </trkpt>
      <trkpt lat="44.09162" lon="6.95176">
        <ele>1569</ele>
        <time>2020-08-22T14:01:00.000Z</time>
      </trkpt>
      <trkpt lat="44.09179" lon="6.95164">
        <ele>1570.1999511719</ele>
        <time>2020-08-22T14:01:07.000Z</time>
      </trkpt>
      <trkpt lat="44.09181" lon="6.95164">
        <ele>1570.5999755859</ele>
        <time>2020-08-22T14:01:08.000Z</time>
      </trkpt>
      <trkpt lat="44.0919" lon="6.95162">
        <ele>1571.1999511719</ele>
        <time>2020-08-22T14:01:12.000Z</time>
      </trkpt>
      <trkpt lat="44.09201" lon="6.9516">
        <ele>1572</ele>
        <time>2020-08-22T14:01:17.000Z</time>
      </trkpt>
      <trkpt lat="44.09211" lon="6.9516">
        <ele>1572.4000244141</ele>
        <time>2020-08-22T14:01:21.000Z</time>
      </trkpt>
      <trkpt lat="44.09218" lon="6.95159">
        <ele>1572.8000488281</ele>
        <time>2020-08-22T14:01:24.000Z</time>
      </trkpt>
      <trkpt lat="44.09234" lon="6.95154">
        <ele>1573.5999755859</ele>
        <time>2020-08-22T14:01:31.000Z</time>
      </trkpt>
      <trkpt lat="44.09238" lon="6.95155">
        <ele>1574</ele>
        <time>2020-08-22T14:01:33.000Z</time>
      </trkpt>
      <trkpt lat="44.09248" lon="6.95156">
        <ele>1574.5999755859</ele>
        <time>2020-08-22T14:01:37.000Z</time>
      </trkpt>
      <trkpt lat="44.09255" lon="6.95156">
        <ele>1575</ele>
        <time>2020-08-22T14:01:40.000Z</time>
      </trkpt>
      <trkpt lat="44.0927" lon="6.95156">
        <ele>1575.8000488281</ele>
        <time>2020-08-22T14:01:47.000Z</time>
      </trkpt>
      <trkpt lat="44.09275" lon="6.95156">
        <ele>1576</ele>
        <time>2020-08-22T14:01:49.000Z</time>
      </trkpt>
      <trkpt lat="44.09287" lon="6.95158">
        <ele>1577</ele>
        <time>2020-08-22T14:01:54.000Z</time>
      </trkpt>
      <trkpt lat="44.09292" lon="6.95158">
        <ele>1577</ele>
        <time>2020-08-22T14:01:56.000Z</time>
      </trkpt>
      <trkpt lat="44.09302" lon="6.95158">
        <ele>1578</ele>
        <time>2020-08-22T14:02:01.000Z</time>
      </trkpt>
      <trkpt lat="44.0931" lon="6.95157">
        <ele>1578.4000244141</ele>
        <time>2020-08-22T14:02:04.000Z</time>
      </trkpt>
      <trkpt lat="44.09319" lon="6.95154">
        <ele>1579.1999511719</ele>
        <time>2020-08-22T14:02:08.000Z</time>
      </trkpt>
      <trkpt lat="44.09331" lon="6.95149">
        <ele>1579.4000244141</ele>
        <time>2020-08-22T14:02:13.000Z</time>
      </trkpt>
      <trkpt lat="44.09348" lon="6.95138">
        <ele>1580</ele>
        <time>2020-08-22T14:02:21.000Z</time>
      </trkpt>
      <trkpt lat="44.09353" lon="6.95136">
        <ele>1580.1999511719</ele>
        <time>2020-08-22T14:02:23.000Z</time>
      </trkpt>
      <trkpt lat="44.09366" lon="6.95132">
        <ele>1580.8000488281</ele>
        <time>2020-08-22T14:02:29.000Z</time>
      </trkpt>
      <trkpt lat="44.09382" lon="6.95123">
        <ele>1581.1999511719</ele>
        <time>2020-08-22T14:02:36.000Z</time>
      </trkpt>
      <trkpt lat="44.09384" lon="6.95121">
        <ele>1581.1999511719</ele>
        <time>2020-08-22T14:02:37.000Z</time>
      </trkpt>
      <trkpt lat="44.09395" lon="6.95114">
        <ele>1582.1999511719</ele>
        <time>2020-08-22T14:02:42.000Z</time>
      </trkpt>
      <trkpt lat="44.09399" lon="6.95112">
        <ele>1582.1999511719</ele>
        <time>2020-08-22T14:02:44.000Z</time>
      </trkpt>
      <trkpt lat="44.09411" lon="6.95103">
        <ele>1582.8000488281</ele>
        <time>2020-08-22T14:02:50.000Z</time>
      </trkpt>
      <trkpt lat="44.09419" lon="6.95098">
        <ele>1583.1999511719</ele>
        <time>2020-08-22T14:02:54.000Z</time>
      </trkpt>
      <trkpt lat="44.09423" lon="6.95095">
        <ele>1583.5999755859</ele>
        <time>2020-08-22T14:02:56.000Z</time>
      </trkpt>
      <trkpt lat="44.09433" lon="6.9509">
        <ele>1584.4000244141</ele>
        <time>2020-08-22T14:03:01.000Z</time>
      </trkpt>
      <trkpt lat="44.09439" lon="6.95087">
        <ele>1584.4000244141</ele>
        <time>2020-08-22T14:03:04.000Z</time>
      </trkpt>
      <trkpt lat="44.09447" lon="6.95086">
        <ele>1585.4000244141</ele>
        <time>2020-08-22T14:03:08.000Z</time>
      </trkpt>
      <trkpt lat="44.09451" lon="6.95085">
        <ele>1585.8000488281</ele>
        <time>2020-08-22T14:03:11.000Z</time>
      </trkpt>
      <trkpt lat="44.09462" lon="6.95084">
        <ele>1586.5999755859</ele>
        <time>2020-08-22T14:03:17.000Z</time>
      </trkpt>
      <trkpt lat="44.09468" lon="6.95084">
        <ele>1587</ele>
        <time>2020-08-22T14:03:20.000Z</time>
      </trkpt>
      <trkpt lat="44.09489" lon="6.95083">
        <ele>1587.4000244141</ele>
        <time>2020-08-22T14:03:27.000Z</time>
      </trkpt>
      <trkpt lat="44.09505" lon="6.95087">
        <ele>1587.4000244141</ele>
        <time>2020-08-22T14:03:32.000Z</time>
      </trkpt>
      <trkpt lat="44.09516" lon="6.95088">
        <ele>1587.5999755859</ele>
        <time>2020-08-22T14:03:36.000Z</time>
      </trkpt>
      <trkpt lat="44.09523" lon="6.95086">
        <ele>1588</ele>
        <time>2020-08-22T14:03:39.000Z</time>
      </trkpt>
      <trkpt lat="44.09538" lon="6.95079">
        <ele>1588.5999755859</ele>
        <time>2020-08-22T14:03:46.000Z</time>
      </trkpt>
      <trkpt lat="44.09553" lon="6.95072">
        <ele>1589.8000488281</ele>
        <time>2020-08-22T14:03:53.000Z</time>
      </trkpt>
      <trkpt lat="44.09554" lon="6.95071">
        <ele>1590.1999511719</ele>
        <time>2020-08-22T14:03:54.000Z</time>
      </trkpt>
      <trkpt lat="44.09558" lon="6.9507">
        <ele>1591</ele>
        <time>2020-08-22T14:03:57.000Z</time>
      </trkpt>
      <trkpt lat="44.09562" lon="6.95072">
        <ele>1591.5999755859</ele>
        <time>2020-08-22T14:04:00.000Z</time>
      </trkpt>
      <trkpt lat="44.09563" lon="6.95073">
        <ele>1591.8000488281</ele>
        <time>2020-08-22T14:04:01.000Z</time>
      </trkpt>
      <trkpt lat="44.0956" lon="6.95077">
        <ele>1592.1999511719</ele>
        <time>2020-08-22T14:04:04.000Z</time>
      </trkpt>
      <trkpt lat="44.0956" lon="6.95078">
        <ele>1592.4000244141</ele>
        <time>2020-08-22T14:04:05.000Z</time>
      </trkpt>
      <trkpt lat="44.09556" lon="6.95085">
        <ele>1593.4000244141</ele>
        <time>2020-08-22T14:04:11.000Z</time>
      </trkpt>
      <trkpt lat="44.09556" lon="6.95085">
        <ele>1593.4000244141</ele>
        <time>2020-08-22T14:04:12.000Z</time>
      </trkpt>
      <trkpt lat="44.09556" lon="6.95085">
        <ele>1594</ele>
        <time>2020-08-22T14:04:20.000Z</time>
      </trkpt>
      <trkpt lat="44.09555" lon="6.95086">
        <ele>1594.4000244141</ele>
        <time>2020-08-22T14:04:39.000Z</time>
      </trkpt>
      <trkpt lat="44.09555" lon="6.95086">
        <ele>1594.1999511719</ele>
        <time>2020-08-22T14:04:54.000Z</time>
      </trkpt>
      <trkpt lat="44.09555" lon="6.95086">
        <ele>1594.4000244141</ele>
        <time>2020-08-22T14:04:59.000Z</time>
      </trkpt>
      <trkpt lat="44.09555" lon="6.95087">
        <ele>1594.5999755859</ele>
        <time>2020-08-22T14:05:18.000Z</time>
      </trkpt>
      <trkpt lat="44.09555" lon="6.95087">
        <ele>1594.4000244141</ele>
        <time>2020-08-22T14:05:46.000Z</time>
      </trkpt>
      <trkpt lat="44.09556" lon="6.95088">
        <ele>1594.5999755859</ele>
        <time>2020-08-22T14:06:12.000Z</time>
      </trkpt>
      <trkpt lat="44.09557" lon="6.95088">
        <ele>1594.4000244141</ele>
        <time>2020-08-22T14:06:20.000Z</time>
      </trkpt>
      <trkpt lat="44.09556" lon="6.95091">
        <ele>1594.4000244141</ele>
        <time>2020-08-22T14:06:22.000Z</time>
      </trkpt>
      <trkpt lat="44.09555" lon="6.95093">
        <ele>1594.5999755859</ele>
        <time>2020-08-22T14:06:24.000Z</time>
      </trkpt>
      <trkpt lat="44.09553" lon="6.95096">
        <ele>1594.5999755859</ele>
        <time>2020-08-22T14:06:26.000Z</time>
      </trkpt>
      <trkpt lat="44.09549" lon="6.95109">
        <ele>1595.4000244141</ele>
        <time>2020-08-22T14:06:33.000Z</time>
      </trkpt>
      <trkpt lat="44.09549" lon="6.95123">
        <ele>1596.5999755859</ele>
        <time>2020-08-22T14:06:40.000Z</time>
      </trkpt>
      <trkpt lat="44.09549" lon="6.95128">
        <ele>1597</ele>
        <time>2020-08-22T14:06:43.000Z</time>
      </trkpt>
      <trkpt lat="44.09549" lon="6.95137">
        <ele>1597.5999755859</ele>
        <time>2020-08-22T14:06:48.000Z</time>
      </trkpt>
      <trkpt lat="44.09549" lon="6.95144">
        <ele>1597.8000488281</ele>
        <time>2020-08-22T14:06:52.000Z</time>
      </trkpt>
      <trkpt lat="44.09549" lon="6.95151">
        <ele>1598.5999755859</ele>
        <time>2020-08-22T14:06:56.000Z</time>
      </trkpt>
      <trkpt lat="44.0955" lon="6.95156">
        <ele>1599</ele>
        <time>2020-08-22T14:06:59.000Z</time>
      </trkpt>
      <trkpt lat="44.0955" lon="6.95164">
        <ele>1599.8000488281</ele>
        <time>2020-08-22T14:07:04.000Z</time>
      </trkpt>
      <trkpt lat="44.09551" lon="6.95168">
        <ele>1600.1999511719</ele>
        <time>2020-08-22T14:07:06.000Z</time>
      </trkpt>
      <trkpt lat="44.09551" lon="6.95173">
        <ele>1600.8000488281</ele>
        <time>2020-08-22T14:07:09.000Z</time>
      </trkpt>
      <trkpt lat="44.0955" lon="6.9518">
        <ele>1601.4000244141</ele>
        <time>2020-08-22T14:07:13.000Z</time>
      </trkpt>
      <trkpt lat="44.0955" lon="6.95184">
        <ele>1601.8000488281</ele>
        <time>2020-08-22T14:07:15.000Z</time>
      </trkpt>
      <trkpt lat="44.09549" lon="6.95196">
        <ele>1602.8000488281</ele>
        <time>2020-08-22T14:07:21.000Z</time>
      </trkpt>
      <trkpt lat="44.09549" lon="6.95198">
        <ele>1603</ele>
        <time>2020-08-22T14:07:22.000Z</time>
      </trkpt>
      <trkpt lat="44.09548" lon="6.95208">
        <ele>1604.1999511719</ele>
        <time>2020-08-22T14:07:27.000Z</time>
      </trkpt>
      <trkpt lat="44.09547" lon="6.9521">
        <ele>1604.4000244141</ele>
        <time>2020-08-22T14:07:28.000Z</time>
      </trkpt>
      <trkpt lat="44.09544" lon="6.95225">
        <ele>1604.4000244141</ele>
        <time>2020-08-22T14:07:36.000Z</time>
      </trkpt>
      <trkpt lat="44.09544" lon="6.95233">
        <ele>1605.4000244141</ele>
        <time>2020-08-22T14:07:40.000Z</time>
      </trkpt>
      <trkpt lat="44.09544" lon="6.95239">
        <ele>1605.8000488281</ele>
        <time>2020-08-22T14:07:43.000Z</time>
      </trkpt>
      <trkpt lat="44.09545" lon="6.95245">
        <ele>1606.4000244141</ele>
        <time>2020-08-22T14:07:46.000Z</time>
      </trkpt>
      <trkpt lat="44.09547" lon="6.95254">
        <ele>1607.4000244141</ele>
        <time>2020-08-22T14:07:51.000Z</time>
      </trkpt>
      <trkpt lat="44.09548" lon="6.95256">
        <ele>1607.5999755859</ele>
        <time>2020-08-22T14:07:52.000Z</time>
      </trkpt>
      <trkpt lat="44.09556" lon="6.95269">
        <ele>1607.8000488281</ele>
        <time>2020-08-22T14:08:00.000Z</time>
      </trkpt>
      <trkpt lat="44.09556" lon="6.95274">
        <ele>1608.8000488281</ele>
        <time>2020-08-22T14:08:03.000Z</time>
      </trkpt>
      <trkpt lat="44.09555" lon="6.9528">
        <ele>1609.4000244141</ele>
        <time>2020-08-22T14:08:06.000Z</time>
      </trkpt>
      <trkpt lat="44.09555" lon="6.95283">
        <ele>1610</ele>
        <time>2020-08-22T14:08:08.000Z</time>
      </trkpt>
      <trkpt lat="44.09555" lon="6.95291">
        <ele>1610.5999755859</ele>
        <time>2020-08-22T14:08:12.000Z</time>
      </trkpt>
      <trkpt lat="44.09554" lon="6.95296">
        <ele>1611</ele>
        <time>2020-08-22T14:08:15.000Z</time>
      </trkpt>
      <trkpt lat="44.09553" lon="6.95308">
        <ele>1612</ele>
        <time>2020-08-22T14:08:21.000Z</time>
      </trkpt>
      <trkpt lat="44.09553" lon="6.9531">
        <ele>1612.1999511719</ele>
        <time>2020-08-22T14:08:22.000Z</time>
      </trkpt>
      <trkpt lat="44.09552" lon="6.95326">
        <ele>1612.8000488281</ele>
        <time>2020-08-22T14:08:29.000Z</time>
      </trkpt>
      <trkpt lat="44.09555" lon="6.95337">
        <ele>1613.1999511719</ele>
        <time>2020-08-22T14:08:34.000Z</time>
      </trkpt>
      <trkpt lat="44.09555" lon="6.95342">
        <ele>1613.5999755859</ele>
        <time>2020-08-22T14:08:36.000Z</time>
      </trkpt>
      <trkpt lat="44.09556" lon="6.95349">
        <ele>1614.1999511719</ele>
        <time>2020-08-22T14:08:39.000Z</time>
      </trkpt>
      <trkpt lat="44.09556" lon="6.95357">
        <ele>1614.8000488281</ele>
        <time>2020-08-22T14:08:43.000Z</time>
      </trkpt>
      <trkpt lat="44.09556" lon="6.95367">
        <ele>1615.4000244141</ele>
        <time>2020-08-22T14:08:48.000Z</time>
      </trkpt>
      <trkpt lat="44.09555" lon="6.9537">
        <ele>1616</ele>
        <time>2020-08-22T14:08:50.000Z</time>
      </trkpt>
      <trkpt lat="44.09555" lon="6.95373">
        <ele>1616.5999755859</ele>
        <time>2020-08-22T14:08:52.000Z</time>
      </trkpt>
      <trkpt lat="44.09556" lon="6.95382">
        <ele>1617.4000244141</ele>
        <time>2020-08-22T14:08:57.000Z</time>
      </trkpt>
      <trkpt lat="44.09555" lon="6.95388">
        <ele>1617.8000488281</ele>
        <time>2020-08-22T14:09:00.000Z</time>
      </trkpt>
      <trkpt lat="44.09555" lon="6.954">
        <ele>1618.4000244141</ele>
        <time>2020-08-22T14:09:06.000Z</time>
      </trkpt>
      <trkpt lat="44.09557" lon="6.95416">
        <ele>1618.4000244141</ele>
        <time>2020-08-22T14:09:15.000Z</time>
      </trkpt>
      <trkpt lat="44.09562" lon="6.95426">
        <ele>1618.8000488281</ele>
        <time>2020-08-22T14:09:22.000Z</time>
      </trkpt>
      <trkpt lat="44.09563" lon="6.95428">
        <ele>1619.1999511719</ele>
        <time>2020-08-22T14:09:23.000Z</time>
      </trkpt>
      <trkpt lat="44.09564" lon="6.95431">
        <ele>1619.8000488281</ele>
        <time>2020-08-22T14:09:25.000Z</time>
      </trkpt>
      <trkpt lat="44.09567" lon="6.95439">
        <ele>1621</ele>
        <time>2020-08-22T14:09:30.000Z</time>
      </trkpt>
      <trkpt lat="44.09568" lon="6.95441">
        <ele>1621</ele>
        <time>2020-08-22T14:09:31.000Z</time>
      </trkpt>
      <trkpt lat="44.0957" lon="6.95449">
        <ele>1621.1999511719</ele>
        <time>2020-08-22T14:09:36.000Z</time>
      </trkpt>
      <trkpt lat="44.09571" lon="6.95455">
        <ele>1622</ele>
        <time>2020-08-22T14:09:40.000Z</time>
      </trkpt>
      <trkpt lat="44.09572" lon="6.95459">
        <ele>1622.4000244141</ele>
        <time>2020-08-22T14:09:43.000Z</time>
      </trkpt>
      <trkpt lat="44.09574" lon="6.95465">
        <ele>1623</ele>
        <time>2020-08-22T14:09:47.000Z</time>
      </trkpt>
      <trkpt lat="44.09575" lon="6.9547">
        <ele>1623.5999755859</ele>
        <time>2020-08-22T14:09:50.000Z</time>
      </trkpt>
      <trkpt lat="44.09575" lon="6.95474">
        <ele>1624.1999511719</ele>
        <time>2020-08-22T14:09:53.000Z</time>
      </trkpt>
      <trkpt lat="44.09577" lon="6.9548">
        <ele>1624.8000488281</ele>
        <time>2020-08-22T14:09:57.000Z</time>
      </trkpt>
      <trkpt lat="44.09577" lon="6.95484">
        <ele>1625.1999511719</ele>
        <time>2020-08-22T14:09:59.000Z</time>
      </trkpt>
      <trkpt lat="44.09578" lon="6.95485">
        <ele>1625.1999511719</ele>
        <time>2020-08-22T14:10:00.000Z</time>
      </trkpt>
      <trkpt lat="44.0958" lon="6.9549">
        <ele>1625.8000488281</ele>
        <time>2020-08-22T14:10:03.000Z</time>
      </trkpt>
      <trkpt lat="44.09583" lon="6.95494">
        <ele>1626.4000244141</ele>
        <time>2020-08-22T14:10:06.000Z</time>
      </trkpt>
      <trkpt lat="44.09586" lon="6.955">
        <ele>1627</ele>
        <time>2020-08-22T14:10:10.000Z</time>
      </trkpt>
      <trkpt lat="44.09588" lon="6.95502">
        <ele>1627.4000244141</ele>
        <time>2020-08-22T14:10:12.000Z</time>
      </trkpt>
      <trkpt lat="44.09593" lon="6.95508">
        <ele>1628.5999755859</ele>
        <time>2020-08-22T14:10:17.000Z</time>
      </trkpt>
      <trkpt lat="44.09597" lon="6.95515">
        <ele>1629.5999755859</ele>
        <time>2020-08-22T14:10:22.000Z</time>
      </trkpt>
      <trkpt lat="44.09601" lon="6.95518">
        <ele>1629.8000488281</ele>
        <time>2020-08-22T14:10:25.000Z</time>
      </trkpt>
      <trkpt lat="44.09604" lon="6.95524">
        <ele>1630.5999755859</ele>
        <time>2020-08-22T14:10:29.000Z</time>
      </trkpt>
      <trkpt lat="44.09604" lon="6.95526">
        <ele>1631</ele>
        <time>2020-08-22T14:10:30.000Z</time>
      </trkpt>
      <trkpt lat="44.09609" lon="6.95539">
        <ele>1631.8000488281</ele>
        <time>2020-08-22T14:10:38.000Z</time>
      </trkpt>
      <trkpt lat="44.09616" lon="6.95549">
        <ele>1633</ele>
        <time>2020-08-22T14:10:45.000Z</time>
      </trkpt>
      <trkpt lat="44.09617" lon="6.95551">
        <ele>1633.1999511719</ele>
        <time>2020-08-22T14:10:46.000Z</time>
      </trkpt>
      <trkpt lat="44.09618" lon="6.95556">
        <ele>1634.1999511719</ele>
        <time>2020-08-22T14:10:49.000Z</time>
      </trkpt>
      <trkpt lat="44.09618" lon="6.9556">
        <ele>1635</ele>
        <time>2020-08-22T14:10:52.000Z</time>
      </trkpt>
      <trkpt lat="44.09618" lon="6.95563">
        <ele>1635.4000244141</ele>
        <time>2020-08-22T14:10:54.000Z</time>
      </trkpt>
      <trkpt lat="44.09616" lon="6.95573">
        <ele>1636.4000244141</ele>
        <time>2020-08-22T14:11:00.000Z</time>
      </trkpt>
      <trkpt lat="44.09614" lon="6.95587">
        <ele>1637.5999755859</ele>
        <time>2020-08-22T14:11:08.000Z</time>
      </trkpt>
      <trkpt lat="44.09612" lon="6.95598">
        <ele>1638.8000488281</ele>
        <time>2020-08-22T14:11:14.000Z</time>
      </trkpt>
      <trkpt lat="44.09612" lon="6.95602">
        <ele>1639</ele>
        <time>2020-08-22T14:11:16.000Z</time>
      </trkpt>
      <trkpt lat="44.09608" lon="6.9563">
        <ele>1639.4000244141</ele>
        <time>2020-08-22T14:11:26.000Z</time>
      </trkpt>
      <trkpt lat="44.09609" lon="6.95641">
        <ele>1640</ele>
        <time>2020-08-22T14:11:30.000Z</time>
      </trkpt>
      <trkpt lat="44.0961" lon="6.9565">
        <ele>1641.1999511719</ele>
        <time>2020-08-22T14:11:34.000Z</time>
      </trkpt>
      <trkpt lat="44.09611" lon="6.95656">
        <ele>1642.1999511719</ele>
        <time>2020-08-22T14:11:37.000Z</time>
      </trkpt>
      <trkpt lat="44.09611" lon="6.95665">
        <ele>1642.5999755859</ele>
        <time>2020-08-22T14:11:41.000Z</time>
      </trkpt>
      <trkpt lat="44.09608" lon="6.95686">
        <ele>1643.4000244141</ele>
        <time>2020-08-22T14:11:49.000Z</time>
      </trkpt>
      <trkpt lat="44.09608" lon="6.95688">
        <ele>1643.4000244141</ele>
        <time>2020-08-22T14:11:50.000Z</time>
      </trkpt>
      <trkpt lat="44.09604" lon="6.95709">
        <ele>1643.8000488281</ele>
        <time>2020-08-22T14:11:58.000Z</time>
      </trkpt>
      <trkpt lat="44.09603" lon="6.95719">
        <ele>1644.1999511719</ele>
        <time>2020-08-22T14:12:02.000Z</time>
      </trkpt>
      <trkpt lat="44.09605" lon="6.95722">
        <ele>1644.4000244141</ele>
        <time>2020-08-22T14:12:04.000Z</time>
      </trkpt>
      <trkpt lat="44.09608" lon="6.95722">
        <ele>1644.5999755859</ele>
        <time>2020-08-22T14:12:06.000Z</time>
      </trkpt>
      <trkpt lat="44.09611" lon="6.95721">
        <ele>1644.5999755859</ele>
        <time>2020-08-22T14:12:08.000Z</time>
      </trkpt>
      <trkpt lat="44.09619" lon="6.95719">
        <ele>1645.5999755859</ele>
        <time>2020-08-22T14:12:14.000Z</time>
      </trkpt>
      <trkpt lat="44.09621" lon="6.95727">
        <ele>1646.5999755859</ele>
        <time>2020-08-22T14:12:18.000Z</time>
      </trkpt>
      <trkpt lat="44.09623" lon="6.95733">
        <ele>1647.1999511719</ele>
        <time>2020-08-22T14:12:21.000Z</time>
      </trkpt>
      <trkpt lat="44.09623" lon="6.95737">
        <ele>1647.8000488281</ele>
        <time>2020-08-22T14:12:24.000Z</time>
      </trkpt>
      <trkpt lat="44.09623" lon="6.95737">
        <ele>1648.1999511719</ele>
        <time>2020-08-22T14:12:26.000Z</time>
      </trkpt>
      <trkpt lat="44.09623" lon="6.95738">
        <ele>1648.4000244141</ele>
        <time>2020-08-22T14:12:41.000Z</time>
      </trkpt>
      <trkpt lat="44.09624" lon="6.95738">
        <ele>1648.8000488281</ele>
        <time>2020-08-22T14:12:56.000Z</time>
      </trkpt>
      <trkpt lat="44.09625" lon="6.95744">
        <ele>1648.1999511719</ele>
        <time>2020-08-22T14:13:01.000Z</time>
      </trkpt>
      <trkpt lat="44.09629" lon="6.9575">
        <ele>1648.5999755859</ele>
        <time>2020-08-22T14:13:06.000Z</time>
      </trkpt>
      <trkpt lat="44.09631" lon="6.95748">
        <ele>1649</ele>
        <time>2020-08-22T14:13:08.000Z</time>
      </trkpt>
      <trkpt lat="44.09633" lon="6.95745">
        <ele>1649.4000244141</ele>
        <time>2020-08-22T14:13:10.000Z</time>
      </trkpt>
      <trkpt lat="44.09633" lon="6.95743">
        <ele>1649.4000244141</ele>
        <time>2020-08-22T14:13:11.000Z</time>
      </trkpt>
      <trkpt lat="44.09638" lon="6.95732">
        <ele>1649.8000488281</ele>
        <time>2020-08-22T14:13:17.000Z</time>
      </trkpt>
      <trkpt lat="44.0964" lon="6.9573">
        <ele>1649.8000488281</ele>
        <time>2020-08-22T14:13:18.000Z</time>
      </trkpt>
      <trkpt lat="44.09642" lon="6.95729">
        <ele>1650</ele>
        <time>2020-08-22T14:13:20.000Z</time>
      </trkpt>
      <trkpt lat="44.09644" lon="6.95728">
        <ele>1650.1999511719</ele>
        <time>2020-08-22T14:13:21.000Z</time>
      </trkpt>
      <trkpt lat="44.09646" lon="6.9573">
        <ele>1650.4000244141</ele>
        <time>2020-08-22T14:13:22.000Z</time>
      </trkpt>
      <trkpt lat="44.09647" lon="6.95733">
        <ele>1651</ele>
        <time>2020-08-22T14:13:24.000Z</time>
      </trkpt>
      <trkpt lat="44.09648" lon="6.95735">
        <ele>1651.4000244141</ele>
        <time>2020-08-22T14:13:25.000Z</time>
      </trkpt>
      <trkpt lat="44.09649" lon="6.95738">
        <ele>1652.1999511719</ele>
        <time>2020-08-22T14:13:27.000Z</time>
      </trkpt>
      <trkpt lat="44.0965" lon="6.9574">
        <ele>1652.5999755859</ele>
        <time>2020-08-22T14:13:28.000Z</time>
      </trkpt>
      <trkpt lat="44.0965" lon="6.95743">
        <ele>1653.4000244141</ele>
        <time>2020-08-22T14:13:31.000Z</time>
      </trkpt>
      <trkpt lat="44.09651" lon="6.95749">
        <ele>1654</ele>
        <time>2020-08-22T14:13:34.000Z</time>
      </trkpt>
      <trkpt lat="44.09651" lon="6.95757">
        <ele>1654.4000244141</ele>
        <time>2020-08-22T14:13:38.000Z</time>
      </trkpt>
      <trkpt lat="44.0965" lon="6.95765">
        <ele>1654.8000488281</ele>
        <time>2020-08-22T14:13:41.000Z</time>
      </trkpt>
      <trkpt lat="44.09648" lon="6.95792">
        <ele>1654.4000244141</ele>
        <time>2020-08-22T14:13:47.000Z</time>
      </trkpt>
      <trkpt lat="44.09648" lon="6.95799">
        <ele>1654.1999511719</ele>
        <time>2020-08-22T14:13:48.000Z</time>
      </trkpt>
      <trkpt lat="44.09651" lon="6.95826">
        <ele>1653.5999755859</ele>
        <time>2020-08-22T14:13:52.000Z</time>
      </trkpt>
      <trkpt lat="44.09651" lon="6.95832">
        <ele>1653</ele>
        <time>2020-08-22T14:13:53.000Z</time>
      </trkpt>
      <trkpt lat="44.09653" lon="6.95842">
        <ele>1652.1999511719</ele>
        <time>2020-08-22T14:13:55.000Z</time>
      </trkpt>
      <trkpt lat="44.09654" lon="6.95846">
        <ele>1651.8000488281</ele>
        <time>2020-08-22T14:13:56.000Z</time>
      </trkpt>
      <trkpt lat="44.09656" lon="6.95849">
        <ele>1651.8000488281</ele>
        <time>2020-08-22T14:13:57.000Z</time>
      </trkpt>
      <trkpt lat="44.09659" lon="6.95855">
        <ele>1651.5999755859</ele>
        <time>2020-08-22T14:13:59.000Z</time>
      </trkpt>
      <trkpt lat="44.09667" lon="6.95873">
        <ele>1652.4000244141</ele>
        <time>2020-08-22T14:14:04.000Z</time>
      </trkpt>
      <trkpt lat="44.09671" lon="6.95886">
        <ele>1652.5999755859</ele>
        <time>2020-08-22T14:14:07.000Z</time>
      </trkpt>
      <trkpt lat="44.09671" lon="6.95891">
        <ele>1652.4000244141</ele>
        <time>2020-08-22T14:14:08.000Z</time>
      </trkpt>
      <trkpt lat="44.09671" lon="6.9591">
        <ele>1651.8000488281</ele>
        <time>2020-08-22T14:14:13.000Z</time>
      </trkpt>
      <trkpt lat="44.09671" lon="6.95936">
        <ele>1652.4000244141</ele>
        <time>2020-08-22T14:14:18.000Z</time>
      </trkpt>
      <trkpt lat="44.09667" lon="6.95955">
        <ele>1651.8000488281</ele>
        <time>2020-08-22T14:14:21.000Z</time>
      </trkpt>
      <trkpt lat="44.09663" lon="6.9596">
        <ele>1651.4000244141</ele>
        <time>2020-08-22T14:14:22.000Z</time>
      </trkpt>
      <trkpt lat="44.09655" lon="6.95956">
        <ele>1650.5999755859</ele>
        <time>2020-08-22T14:14:25.000Z</time>
      </trkpt>
      <trkpt lat="44.09651" lon="6.95949">
        <ele>1650</ele>
        <time>2020-08-22T14:14:28.000Z</time>
      </trkpt>
      <trkpt lat="44.09646" lon="6.95941">
        <ele>1651.8000488281</ele>
        <time>2020-08-22T14:14:32.000Z</time>
      </trkpt>
      <trkpt lat="44.09641" lon="6.95938">
        <ele>1652.8000488281</ele>
        <time>2020-08-22T14:14:35.000Z</time>
      </trkpt>
      <trkpt lat="44.09637" lon="6.95936">
        <ele>1653.1999511719</ele>
        <time>2020-08-22T14:14:38.000Z</time>
      </trkpt>
      <trkpt lat="44.09631" lon="6.95937">
        <ele>1654</ele>
        <time>2020-08-22T14:14:42.000Z</time>
      </trkpt>
      <trkpt lat="44.09627" lon="6.95936">
        <ele>1654.8000488281</ele>
        <time>2020-08-22T14:14:45.000Z</time>
      </trkpt>
      <trkpt lat="44.09625" lon="6.95937">
        <ele>1655.1999511719</ele>
        <time>2020-08-22T14:14:46.000Z</time>
      </trkpt>
      <trkpt lat="44.09624" lon="6.95938">
        <ele>1655.5999755859</ele>
        <time>2020-08-22T14:14:47.000Z</time>
      </trkpt>
      <trkpt lat="44.09623" lon="6.95942">
        <ele>1655.8000488281</ele>
        <time>2020-08-22T14:14:50.000Z</time>
      </trkpt>
      <trkpt lat="44.09623" lon="6.95947">
        <ele>1656.4000244141</ele>
        <time>2020-08-22T14:14:53.000Z</time>
      </trkpt>
      <trkpt lat="44.09622" lon="6.95948">
        <ele>1656.5999755859</ele>
        <time>2020-08-22T14:14:54.000Z</time>
      </trkpt>
      <trkpt lat="44.09621" lon="6.95949">
        <ele>1656.8000488281</ele>
        <time>2020-08-22T14:14:55.000Z</time>
      </trkpt>
      <trkpt lat="44.09617" lon="6.95953">
        <ele>1657.4000244141</ele>
        <time>2020-08-22T14:14:58.000Z</time>
      </trkpt>
      <trkpt lat="44.09613" lon="6.95958">
        <ele>1657.8000488281</ele>
        <time>2020-08-22T14:15:02.000Z</time>
      </trkpt>
      <trkpt lat="44.09607" lon="6.95969">
        <ele>1658.4000244141</ele>
        <time>2020-08-22T14:15:09.000Z</time>
      </trkpt>
      <trkpt lat="44.09606" lon="6.95971">
        <ele>1658.5999755859</ele>
        <time>2020-08-22T14:15:10.000Z</time>
      </trkpt>
      <trkpt lat="44.096" lon="6.95984">
        <ele>1659.5999755859</ele>
        <time>2020-08-22T14:15:18.000Z</time>
      </trkpt>
      <trkpt lat="44.09593" lon="6.95998">
        <ele>1660.8000488281</ele>
        <time>2020-08-22T14:15:25.000Z</time>
      </trkpt>
      <trkpt lat="44.09592" lon="6.96">
        <ele>1660.8000488281</ele>
        <time>2020-08-22T14:15:26.000Z</time>
      </trkpt>
      <trkpt lat="44.09584" lon="6.9602">
        <ele>1661.4000244141</ele>
        <time>2020-08-22T14:15:34.000Z</time>
      </trkpt>
      <trkpt lat="44.09582" lon="6.96036">
        <ele>1661.4000244141</ele>
        <time>2020-08-22T14:15:39.000Z</time>
      </trkpt>
      <trkpt lat="44.09581" lon="6.96043">
        <ele>1661.8000488281</ele>
        <time>2020-08-22T14:15:41.000Z</time>
      </trkpt>
      <trkpt lat="44.09577" lon="6.96056">
        <ele>1663</ele>
        <time>2020-08-22T14:15:45.000Z</time>
      </trkpt>
      <trkpt lat="44.09573" lon="6.96069">
        <ele>1664.1999511719</ele>
        <time>2020-08-22T14:15:49.000Z</time>
      </trkpt>
      <trkpt lat="44.09571" lon="6.96075">
        <ele>1664.1999511719</ele>
        <time>2020-08-22T14:15:51.000Z</time>
      </trkpt>
      <trkpt lat="44.09566" lon="6.96089">
        <ele>1663.5999755859</ele>
        <time>2020-08-22T14:15:56.000Z</time>
      </trkpt>
      <trkpt lat="44.09564" lon="6.96096">
        <ele>1664.4000244141</ele>
        <time>2020-08-22T14:16:01.000Z</time>
      </trkpt>
      <trkpt lat="44.09562" lon="6.96097">
        <ele>1665</ele>
        <time>2020-08-22T14:16:05.000Z</time>
      </trkpt>
      <trkpt lat="44.0956" lon="6.96098">
        <ele>1665</ele>
        <time>2020-08-22T14:16:07.000Z</time>
      </trkpt>
      <trkpt lat="44.09559" lon="6.96099">
        <ele>1664.8000488281</ele>
        <time>2020-08-22T14:16:08.000Z</time>
      </trkpt>
      <trkpt lat="44.09558" lon="6.96103">
        <ele>1664.1999511719</ele>
        <time>2020-08-22T14:16:11.000Z</time>
      </trkpt>
      <trkpt lat="44.09556" lon="6.96113">
        <ele>1665</ele>
        <time>2020-08-22T14:16:18.000Z</time>
      </trkpt>
      <trkpt lat="44.09555" lon="6.96115">
        <ele>1665.1999511719</ele>
        <time>2020-08-22T14:16:19.000Z</time>
      </trkpt>
      <trkpt lat="44.09552" lon="6.96122">
        <ele>1665.4000244141</ele>
        <time>2020-08-22T14:16:22.000Z</time>
      </trkpt>
      <trkpt lat="44.0955" lon="6.96131">
        <ele>1665.1999511719</ele>
        <time>2020-08-22T14:16:25.000Z</time>
      </trkpt>
      <trkpt lat="44.09548" lon="6.96134">
        <ele>1665.1999511719</ele>
        <time>2020-08-22T14:16:26.000Z</time>
      </trkpt>
      <trkpt lat="44.0955" lon="6.96142">
        <ele>1665.1999511719</ele>
        <time>2020-08-22T14:16:29.000Z</time>
      </trkpt>
      <trkpt lat="44.09555" lon="6.96152">
        <ele>1666.1999511719</ele>
        <time>2020-08-22T14:16:34.000Z</time>
      </trkpt>
      <trkpt lat="44.09556" lon="6.96153">
        <ele>1666.5999755859</ele>
        <time>2020-08-22T14:16:35.000Z</time>
      </trkpt>
      <trkpt lat="44.09561" lon="6.96164">
        <ele>1667.1999511719</ele>
        <time>2020-08-22T14:16:41.000Z</time>
      </trkpt>
      <trkpt lat="44.09562" lon="6.96168">
        <ele>1667.5999755859</ele>
        <time>2020-08-22T14:16:43.000Z</time>
      </trkpt>
      <trkpt lat="44.09565" lon="6.96176">
        <ele>1668.1999511719</ele>
        <time>2020-08-22T14:16:47.000Z</time>
      </trkpt>
      <trkpt lat="44.09565" lon="6.96184">
        <ele>1668.5999755859</ele>
        <time>2020-08-22T14:16:51.000Z</time>
      </trkpt>
      <trkpt lat="44.09566" lon="6.96189">
        <ele>1669</ele>
        <time>2020-08-22T14:16:53.000Z</time>
      </trkpt>
      <trkpt lat="44.09564" lon="6.96198">
        <ele>1669.5999755859</ele>
        <time>2020-08-22T14:16:57.000Z</time>
      </trkpt>
      <trkpt lat="44.09563" lon="6.96199">
        <ele>1669.8000488281</ele>
        <time>2020-08-22T14:16:58.000Z</time>
      </trkpt>
      <trkpt lat="44.09562" lon="6.962">
        <ele>1670.4000244141</ele>
        <time>2020-08-22T14:17:00.000Z</time>
      </trkpt>
      <trkpt lat="44.0956" lon="6.96201">
        <ele>1670.5999755859</ele>
        <time>2020-08-22T14:17:03.000Z</time>
      </trkpt>
      <trkpt lat="44.09559" lon="6.96201">
        <ele>1670.8000488281</ele>
        <time>2020-08-22T14:17:04.000Z</time>
      </trkpt>
      <trkpt lat="44.09557" lon="6.96202">
        <ele>1671.8000488281</ele>
        <time>2020-08-22T14:17:11.000Z</time>
      </trkpt>
      <trkpt lat="44.09554" lon="6.96205">
        <ele>1673</ele>
        <time>2020-08-22T14:17:17.000Z</time>
      </trkpt>
      <trkpt lat="44.09553" lon="6.96206">
        <ele>1673.4000244141</ele>
        <time>2020-08-22T14:17:19.000Z</time>
      </trkpt>
      <trkpt lat="44.09549" lon="6.96212">
        <ele>1674.1999511719</ele>
        <time>2020-08-22T14:17:26.000Z</time>
      </trkpt>
      <trkpt lat="44.09549" lon="6.96214">
        <ele>1674.5999755859</ele>
        <time>2020-08-22T14:17:28.000Z</time>
      </trkpt>
      <trkpt lat="44.09548" lon="6.96216">
        <ele>1675.1999511719</ele>
        <time>2020-08-22T14:17:30.000Z</time>
      </trkpt>
      <trkpt lat="44.09547" lon="6.9622">
        <ele>1676.4000244141</ele>
        <time>2020-08-22T14:17:33.000Z</time>
      </trkpt>
      <trkpt lat="44.09547" lon="6.96224">
        <ele>1677.1999511719</ele>
        <time>2020-08-22T14:17:36.000Z</time>
      </trkpt>
      <trkpt lat="44.09546" lon="6.96225">
        <ele>1677.4000244141</ele>
        <time>2020-08-22T14:17:37.000Z</time>
      </trkpt>
      <trkpt lat="44.09547" lon="6.96235">
        <ele>1678.5999755859</ele>
        <time>2020-08-22T14:17:45.000Z</time>
      </trkpt>
      <trkpt lat="44.09549" lon="6.96243">
        <ele>1679.8000488281</ele>
        <time>2020-08-22T14:17:53.000Z</time>
      </trkpt>
      <trkpt lat="44.0955" lon="6.96244">
        <ele>1680</ele>
        <time>2020-08-22T14:17:54.000Z</time>
      </trkpt>
      <trkpt lat="44.09551" lon="6.96252">
        <ele>1680.5999755859</ele>
        <time>2020-08-22T14:18:01.000Z</time>
      </trkpt>
      <trkpt lat="44.09552" lon="6.96253">
        <ele>1680.8000488281</ele>
        <time>2020-08-22T14:18:02.000Z</time>
      </trkpt>
      <trkpt lat="44.09553" lon="6.96259">
        <ele>1682</ele>
        <time>2020-08-22T14:18:07.000Z</time>
      </trkpt>
      <trkpt lat="44.09554" lon="6.96263">
        <ele>1682.5999755859</ele>
        <time>2020-08-22T14:18:10.000Z</time>
      </trkpt>
      <trkpt lat="44.09554" lon="6.96272">
        <ele>1683</ele>
        <time>2020-08-22T14:18:17.000Z</time>
      </trkpt>
      <trkpt lat="44.09555" lon="6.96279">
        <ele>1684.1999511719</ele>
        <time>2020-08-22T14:18:23.000Z</time>
      </trkpt>
      <trkpt lat="44.09556" lon="6.96284">
        <ele>1684.5999755859</ele>
        <time>2020-08-22T14:18:27.000Z</time>
      </trkpt>
      <trkpt lat="44.09557" lon="6.96287">
        <ele>1685.8000488281</ele>
        <time>2020-08-22T14:18:30.000Z</time>
      </trkpt>
      <trkpt lat="44.09557" lon="6.9629">
        <ele>1687.1999511719</ele>
        <time>2020-08-22T14:18:33.000Z</time>
      </trkpt>
      <trkpt lat="44.09557" lon="6.96295">
        <ele>1687.4000244141</ele>
        <time>2020-08-22T14:18:37.000Z</time>
      </trkpt>
      <trkpt lat="44.09558" lon="6.963">
        <ele>1688.4000244141</ele>
        <time>2020-08-22T14:18:41.000Z</time>
      </trkpt>
      <trkpt lat="44.0956" lon="6.96308">
        <ele>1689.4000244141</ele>
        <time>2020-08-22T14:18:47.000Z</time>
      </trkpt>
      <trkpt lat="44.09561" lon="6.96324">
        <ele>1690.5999755859</ele>
        <time>2020-08-22T14:18:57.000Z</time>
      </trkpt>
      <trkpt lat="44.09561" lon="6.96325">
        <ele>1690.5999755859</ele>
        <time>2020-08-22T14:18:58.000Z</time>
      </trkpt>
      <trkpt lat="44.09562" lon="6.96337">
        <ele>1691.5999755859</ele>
        <time>2020-08-22T14:19:06.000Z</time>
      </trkpt>
      <trkpt lat="44.09562" lon="6.96342">
        <ele>1692</ele>
        <time>2020-08-22T14:19:09.000Z</time>
      </trkpt>
      <trkpt lat="44.09562" lon="6.96349">
        <ele>1692.8000488281</ele>
        <time>2020-08-22T14:19:14.000Z</time>
      </trkpt>
      <trkpt lat="44.09562" lon="6.96353">
        <ele>1693.5999755859</ele>
        <time>2020-08-22T14:19:17.000Z</time>
      </trkpt>
      <trkpt lat="44.09562" lon="6.96355">
        <ele>1694</ele>
        <time>2020-08-22T14:19:19.000Z</time>
      </trkpt>
      <trkpt lat="44.09562" lon="6.9636">
        <ele>1695.1999511719</ele>
        <time>2020-08-22T14:19:25.000Z</time>
      </trkpt>
      <trkpt lat="44.09561" lon="6.96368">
        <ele>1695.8000488281</ele>
        <time>2020-08-22T14:19:30.000Z</time>
      </trkpt>
      <trkpt lat="44.0956" lon="6.96371">
        <ele>1696.4000244141</ele>
        <time>2020-08-22T14:19:32.000Z</time>
      </trkpt>
      <trkpt lat="44.0956" lon="6.96373">
        <ele>1696.8000488281</ele>
        <time>2020-08-22T14:19:33.000Z</time>
      </trkpt>
      <trkpt lat="44.09559" lon="6.9638">
        <ele>1697.4000244141</ele>
        <time>2020-08-22T14:19:37.000Z</time>
      </trkpt>
      <trkpt lat="44.09557" lon="6.96388">
        <ele>1697.8000488281</ele>
        <time>2020-08-22T14:19:42.000Z</time>
      </trkpt>
      <trkpt lat="44.09556" lon="6.96398">
        <ele>1698.5999755859</ele>
        <time>2020-08-22T14:19:48.000Z</time>
      </trkpt>
      <trkpt lat="44.09557" lon="6.96405">
        <ele>1699.5999755859</ele>
        <time>2020-08-22T14:19:52.000Z</time>
      </trkpt>
      <trkpt lat="44.09558" lon="6.96408">
        <ele>1700</ele>
        <time>2020-08-22T14:19:54.000Z</time>
      </trkpt>
      <trkpt lat="44.0956" lon="6.96413">
        <ele>1700.5999755859</ele>
        <time>2020-08-22T14:19:57.000Z</time>
      </trkpt>
      <trkpt lat="44.09562" lon="6.96422">
        <ele>1701.1999511719</ele>
        <time>2020-08-22T14:20:02.000Z</time>
      </trkpt>
      <trkpt lat="44.09563" lon="6.96427">
        <ele>1701.8000488281</ele>
        <time>2020-08-22T14:20:05.000Z</time>
      </trkpt>
      <trkpt lat="44.09564" lon="6.9643">
        <ele>1702.8000488281</ele>
        <time>2020-08-22T14:20:07.000Z</time>
      </trkpt>
      <trkpt lat="44.09565" lon="6.96433">
        <ele>1704</ele>
        <time>2020-08-22T14:20:09.000Z</time>
      </trkpt>
      <trkpt lat="44.09568" lon="6.9644">
        <ele>1704.4000244141</ele>
        <time>2020-08-22T14:20:14.000Z</time>
      </trkpt>
      <trkpt lat="44.09568" lon="6.96443">
        <ele>1704.8000488281</ele>
        <time>2020-08-22T14:20:16.000Z</time>
      </trkpt>
      <trkpt lat="44.09571" lon="6.9645">
        <ele>1705</ele>
        <time>2020-08-22T14:20:21.000Z</time>
      </trkpt>
      <trkpt lat="44.09572" lon="6.9645">
        <ele>1705.1999511719</ele>
        <time>2020-08-22T14:20:23.000Z</time>
      </trkpt>
      <trkpt lat="44.09572" lon="6.96451">
        <ele>1705.5999755859</ele>
        <time>2020-08-22T14:20:29.000Z</time>
      </trkpt>
      <trkpt lat="44.09572" lon="6.96451">
        <ele>1705.1999511719</ele>
        <time>2020-08-22T14:20:43.000Z</time>
      </trkpt>
      <trkpt lat="44.09572" lon="6.96454">
        <ele>1705.5999755859</ele>
        <time>2020-08-22T14:21:05.000Z</time>
      </trkpt>
      <trkpt lat="44.09566" lon="6.96462">
        <ele>1705.4000244141</ele>
        <time>2020-08-22T14:21:10.000Z</time>
      </trkpt>
      <trkpt lat="44.09565" lon="6.96464">
        <ele>1705.1999511719</ele>
        <time>2020-08-22T14:21:11.000Z</time>
      </trkpt>
      <trkpt lat="44.09557" lon="6.96474">
        <ele>1704.4000244141</ele>
        <time>2020-08-22T14:21:16.000Z</time>
      </trkpt>
      <trkpt lat="44.09556" lon="6.96476">
        <ele>1703.5999755859</ele>
        <time>2020-08-22T14:21:18.000Z</time>
      </trkpt>
      <trkpt lat="44.09556" lon="6.96477">
        <ele>1702.5999755859</ele>
        <time>2020-08-22T14:21:21.000Z</time>
      </trkpt>
      <trkpt lat="44.09557" lon="6.96479">
        <ele>1702.8000488281</ele>
        <time>2020-08-22T14:21:29.000Z</time>
      </trkpt>
      <trkpt lat="44.09557" lon="6.96479">
        <ele>1703</ele>
        <time>2020-08-22T14:21:34.000Z</time>
      </trkpt>
      <trkpt lat="44.09558" lon="6.9648">
        <ele>1703.1999511719</ele>
        <time>2020-08-22T14:21:39.000Z</time>
      </trkpt>
      <trkpt lat="44.09558" lon="6.96485">
        <ele>1702.8000488281</ele>
        <time>2020-08-22T14:21:45.000Z</time>
      </trkpt>
      <trkpt lat="44.09557" lon="6.96501">
        <ele>1702.1999511719</ele>
        <time>2020-08-22T14:21:51.000Z</time>
      </trkpt>
      <trkpt lat="44.09556" lon="6.96513">
        <ele>1701.5999755859</ele>
        <time>2020-08-22T14:21:54.000Z</time>
      </trkpt>
      <trkpt lat="44.09557" lon="6.96521">
        <ele>1700.5999755859</ele>
        <time>2020-08-22T14:21:56.000Z</time>
      </trkpt>
      <trkpt lat="44.09558" lon="6.96526">
        <ele>1700.1999511719</ele>
        <time>2020-08-22T14:21:57.000Z</time>
      </trkpt>
      <trkpt lat="44.09565" lon="6.96546">
        <ele>1699.1999511719</ele>
        <time>2020-08-22T14:22:02.000Z</time>
      </trkpt>
      <trkpt lat="44.09566" lon="6.9655">
        <ele>1699</ele>
        <time>2020-08-22T14:22:03.000Z</time>
      </trkpt>
      <trkpt lat="44.09571" lon="6.96568">
        <ele>1697.8000488281</ele>
        <time>2020-08-22T14:22:07.000Z</time>
      </trkpt>
      <trkpt lat="44.09581" lon="6.96594">
        <ele>1696.5999755859</ele>
        <time>2020-08-22T14:22:11.000Z</time>
      </trkpt>
      <trkpt lat="44.09584" lon="6.96601">
        <ele>1695.8000488281</ele>
        <time>2020-08-22T14:22:12.000Z</time>
      </trkpt>
      <trkpt lat="44.09586" lon="6.96607">
        <ele>1695.1999511719</ele>
        <time>2020-08-22T14:22:13.000Z</time>
      </trkpt>
      <trkpt lat="44.09591" lon="6.96617">
        <ele>1694</ele>
        <time>2020-08-22T14:22:15.000Z</time>
      </trkpt>
      <trkpt lat="44.09592" lon="6.96621">
        <ele>1693.5999755859</ele>
        <time>2020-08-22T14:22:16.000Z</time>
      </trkpt>
      <trkpt lat="44.09595" lon="6.96641">
        <ele>1693.4000244141</ele>
        <time>2020-08-22T14:22:21.000Z</time>
      </trkpt>
      <trkpt lat="44.09592" lon="6.96666">
        <ele>1693.4000244141</ele>
        <time>2020-08-22T14:22:28.000Z</time>
      </trkpt>
      <trkpt lat="44.09587" lon="6.96682">
        <ele>1694.5999755859</ele>
        <time>2020-08-22T14:22:33.000Z</time>
      </trkpt>
      <trkpt lat="44.09584" lon="6.96689">
        <ele>1695.4000244141</ele>
        <time>2020-08-22T14:22:35.000Z</time>
      </trkpt>
      <trkpt lat="44.09577" lon="6.96703">
        <ele>1694.4000244141</ele>
        <time>2020-08-22T14:22:38.000Z</time>
      </trkpt>
      <trkpt lat="44.09574" lon="6.96707">
        <ele>1694</ele>
        <time>2020-08-22T14:22:39.000Z</time>
      </trkpt>
      <trkpt lat="44.09567" lon="6.96723">
        <ele>1692.8000488281</ele>
        <time>2020-08-22T14:22:43.000Z</time>
      </trkpt>
      <trkpt lat="44.09555" lon="6.96745">
        <ele>1693.8000488281</ele>
        <time>2020-08-22T14:22:49.000Z</time>
      </trkpt>
      <trkpt lat="44.09553" lon="6.96748">
        <ele>1693.8000488281</ele>
        <time>2020-08-22T14:22:50.000Z</time>
      </trkpt>
      <trkpt lat="44.09548" lon="6.96761">
        <ele>1693.8000488281</ele>
        <time>2020-08-22T14:22:55.000Z</time>
      </trkpt>
      <trkpt lat="44.09543" lon="6.96768">
        <ele>1695</ele>
        <time>2020-08-22T14:23:00.000Z</time>
      </trkpt>
      <trkpt lat="44.09542" lon="6.96769">
        <ele>1695.1999511719</ele>
        <time>2020-08-22T14:23:01.000Z</time>
      </trkpt>
      <trkpt lat="44.09542" lon="6.96774">
        <ele>1696.4000244141</ele>
        <time>2020-08-22T14:23:04.000Z</time>
      </trkpt>
      <trkpt lat="44.09543" lon="6.96778">
        <ele>1697.5999755859</ele>
        <time>2020-08-22T14:23:07.000Z</time>
      </trkpt>
      <trkpt lat="44.09543" lon="6.9678">
        <ele>1698</ele>
        <time>2020-08-22T14:23:08.000Z</time>
      </trkpt>
      <trkpt lat="44.09544" lon="6.96781">
        <ele>1698.1999511719</ele>
        <time>2020-08-22T14:23:09.000Z</time>
      </trkpt>
      <trkpt lat="44.09545" lon="6.96783">
        <ele>1698.5999755859</ele>
        <time>2020-08-22T14:23:11.000Z</time>
      </trkpt>
      <trkpt lat="44.09548" lon="6.96785">
        <ele>1700</ele>
        <time>2020-08-22T14:23:14.000Z</time>
      </trkpt>
      <trkpt lat="44.0955" lon="6.96786">
        <ele>1700.4000244141</ele>
        <time>2020-08-22T14:23:15.000Z</time>
      </trkpt>
      <trkpt lat="44.09553" lon="6.96789">
        <ele>1700.8000488281</ele>
        <time>2020-08-22T14:23:19.000Z</time>
      </trkpt>
      <trkpt lat="44.09555" lon="6.9679">
        <ele>1701</ele>
        <time>2020-08-22T14:23:21.000Z</time>
      </trkpt>
      <trkpt lat="44.09556" lon="6.9679">
        <ele>1701.4000244141</ele>
        <time>2020-08-22T14:23:26.000Z</time>
      </trkpt>
      <trkpt lat="44.09555" lon="6.96789">
        <ele>1701.4000244141</ele>
        <time>2020-08-22T14:23:33.000Z</time>
      </trkpt>
      <trkpt lat="44.09556" lon="6.96787">
        <ele>1700.4000244141</ele>
        <time>2020-08-22T14:23:38.000Z</time>
      </trkpt>
      <trkpt lat="44.09557" lon="6.96787">
        <ele>1700.1999511719</ele>
        <time>2020-08-22T14:23:39.000Z</time>
      </trkpt>
      <trkpt lat="44.09557" lon="6.96787">
        <ele>1699.8000488281</ele>
        <time>2020-08-22T14:23:40.000Z</time>
      </trkpt>
      <trkpt lat="44.09557" lon="6.96787">
        <ele>1700.1999511719</ele>
        <time>2020-08-22T14:23:42.000Z</time>
      </trkpt>
      <trkpt lat="44.09556" lon="6.96786">
        <ele>1701.4000244141</ele>
        <time>2020-08-22T14:23:45.000Z</time>
      </trkpt>
      <trkpt lat="44.09556" lon="6.96785">
        <ele>1701.5999755859</ele>
        <time>2020-08-22T14:23:49.000Z</time>
      </trkpt>
      <trkpt lat="44.09556" lon="6.96786">
        <ele>1702</ele>
        <time>2020-08-22T14:24:03.000Z</time>
      </trkpt>
      <trkpt lat="44.09556" lon="6.96787">
        <ele>1702</ele>
        <time>2020-08-22T14:24:08.000Z</time>
      </trkpt>
      <trkpt lat="44.09555" lon="6.96789">
        <ele>1702</ele>
        <time>2020-08-22T14:24:10.000Z</time>
      </trkpt>
      <trkpt lat="44.09555" lon="6.96789">
        <ele>1701.8000488281</ele>
        <time>2020-08-22T14:24:16.000Z</time>
      </trkpt>
      <trkpt lat="44.09555" lon="6.96789">
        <ele>1702.4000244141</ele>
        <time>2020-08-22T14:24:19.000Z</time>
      </trkpt>
      <trkpt lat="44.09555" lon="6.96789">
        <ele>1701.5999755859</ele>
        <time>2020-08-22T14:24:22.000Z</time>
      </trkpt>
      <trkpt lat="44.09555" lon="6.96789">
        <ele>1700.8000488281</ele>
        <time>2020-08-22T14:24:24.000Z</time>
      </trkpt>
      <trkpt lat="44.09555" lon="6.96788">
        <ele>1699.8000488281</ele>
        <time>2020-08-22T14:24:41.000Z</time>
      </trkpt>
      <trkpt lat="44.09555" lon="6.96788">
        <ele>1699.1999511719</ele>
        <time>2020-08-22T14:24:46.000Z</time>
      </trkpt>
      <trkpt lat="44.09555" lon="6.96788">
        <ele>1701</ele>
        <time>2020-08-22T14:24:50.000Z</time>
      </trkpt>
      <trkpt lat="44.09555" lon="6.96788">
        <ele>1701.5999755859</ele>
        <time>2020-08-22T14:24:52.000Z</time>
      </trkpt>
      <trkpt lat="44.09555" lon="6.96789">
        <ele>1701</ele>
        <time>2020-08-22T14:25:12.000Z</time>
      </trkpt>
      <trkpt lat="44.09556" lon="6.96789">
        <ele>1700.8000488281</ele>
        <time>2020-08-22T14:25:18.000Z</time>
      </trkpt>
      <trkpt lat="44.09556" lon="6.96789">
        <ele>1700.8000488281</ele>
        <time>2020-08-22T14:25:28.000Z</time>
      </trkpt>
      <trkpt lat="44.09556" lon="6.96789">
        <ele>1701.1999511719</ele>
        <time>2020-08-22T14:25:33.000Z</time>
      </trkpt>
      <trkpt lat="44.09558" lon="6.9679">
        <ele>1701.8000488281</ele>
        <time>2020-08-22T14:25:38.000Z</time>
      </trkpt>
      <trkpt lat="44.09559" lon="6.96791">
        <ele>1701.5999755859</ele>
        <time>2020-08-22T14:25:39.000Z</time>
      </trkpt>
      <trkpt lat="44.09571" lon="6.96793">
        <ele>1700.5999755859</ele>
        <time>2020-08-22T14:25:45.000Z</time>
      </trkpt>
      <trkpt lat="44.09581" lon="6.96793">
        <ele>1700.4000244141</ele>
        <time>2020-08-22T14:25:49.000Z</time>
      </trkpt>
      <trkpt lat="44.09595" lon="6.96794">
        <ele>1701.4000244141</ele>
        <time>2020-08-22T14:25:55.000Z</time>
      </trkpt>
      <trkpt lat="44.09601" lon="6.96794">
        <ele>1702.1999511719</ele>
        <time>2020-08-22T14:25:58.000Z</time>
      </trkpt>
      <trkpt lat="44.09608" lon="6.96797">
        <ele>1702.4000244141</ele>
        <time>2020-08-22T14:26:01.000Z</time>
      </trkpt>
      <trkpt lat="44.0962" lon="6.96801">
        <ele>1702.1999511719</ele>
        <time>2020-08-22T14:26:06.000Z</time>
      </trkpt>
      <trkpt lat="44.09634" lon="6.96802">
        <ele>1702.4000244141</ele>
        <time>2020-08-22T14:26:12.000Z</time>
      </trkpt>
      <trkpt lat="44.09644" lon="6.96803">
        <ele>1703.1999511719</ele>
        <time>2020-08-22T14:26:17.000Z</time>
      </trkpt>
      <trkpt lat="44.0965" lon="6.96805">
        <ele>1703.5999755859</ele>
        <time>2020-08-22T14:26:20.000Z</time>
      </trkpt>
      <trkpt lat="44.09655" lon="6.96806">
        <ele>1704.5999755859</ele>
        <time>2020-08-22T14:26:22.000Z</time>
      </trkpt>
      <trkpt lat="44.09668" lon="6.96808">
        <ele>1705.1999511719</ele>
        <time>2020-08-22T14:26:28.000Z</time>
      </trkpt>
      <trkpt lat="44.09677" lon="6.96812">
        <ele>1706</ele>
        <time>2020-08-22T14:26:31.000Z</time>
      </trkpt>
      <trkpt lat="44.09683" lon="6.96814">
        <ele>1706.1999511719</ele>
        <time>2020-08-22T14:26:33.000Z</time>
      </trkpt>
      <trkpt lat="44.09698" lon="6.96824">
        <ele>1706.5999755859</ele>
        <time>2020-08-22T14:26:38.000Z</time>
      </trkpt>
      <trkpt lat="44.09704" lon="6.9683">
        <ele>1706</ele>
        <time>2020-08-22T14:26:41.000Z</time>
      </trkpt>
      <trkpt lat="44.09717" lon="6.96842">
        <ele>1704.8000488281</ele>
        <time>2020-08-22T14:26:45.000Z</time>
      </trkpt>
      <trkpt lat="44.09723" lon="6.96846">
        <ele>1704.1999511719</ele>
        <time>2020-08-22T14:26:47.000Z</time>
      </trkpt>
      <trkpt lat="44.09728" lon="6.9685">
        <ele>1703.8000488281</ele>
        <time>2020-08-22T14:26:49.000Z</time>
      </trkpt>
      <trkpt lat="44.09737" lon="6.96857">
        <ele>1703.5999755859</ele>
        <time>2020-08-22T14:26:53.000Z</time>
      </trkpt>
      <trkpt lat="44.09739" lon="6.96858">
        <ele>1703.4000244141</ele>
        <time>2020-08-22T14:26:54.000Z</time>
      </trkpt>
      <trkpt lat="44.0974" lon="6.96858">
        <ele>1703.4000244141</ele>
        <time>2020-08-22T14:26:58.000Z</time>
      </trkpt>
      <trkpt lat="44.09745" lon="6.96859">
        <ele>1703.8000488281</ele>
        <time>2020-08-22T14:27:03.000Z</time>
      </trkpt>
      <trkpt lat="44.09747" lon="6.96861">
        <ele>1704.5999755859</ele>
        <time>2020-08-22T14:27:08.000Z</time>
      </trkpt>
      <trkpt lat="44.09757" lon="6.96865">
        <ele>1704.5999755859</ele>
        <time>2020-08-22T14:27:12.000Z</time>
      </trkpt>
      <trkpt lat="44.09762" lon="6.96867">
        <ele>1704.5999755859</ele>
        <time>2020-08-22T14:27:14.000Z</time>
      </trkpt>
      <trkpt lat="44.09776" lon="6.96874">
        <ele>1704.5999755859</ele>
        <time>2020-08-22T14:27:19.000Z</time>
      </trkpt>
      <trkpt lat="44.09798" lon="6.96882">
        <ele>1705.1999511719</ele>
        <time>2020-08-22T14:27:27.000Z</time>
      </trkpt>
      <trkpt lat="44.09804" lon="6.96882">
        <ele>1705.5999755859</ele>
        <time>2020-08-22T14:27:31.000Z</time>
      </trkpt>
      <trkpt lat="44.09805" lon="6.96882">
        <ele>1705.5999755859</ele>
        <time>2020-08-22T14:27:32.000Z</time>
      </trkpt>
      <trkpt lat="44.09808" lon="6.96883">
        <ele>1706.5999755859</ele>
        <time>2020-08-22T14:27:37.000Z</time>
      </trkpt>
      <trkpt lat="44.09812" lon="6.96886">
        <ele>1707.5999755859</ele>
        <time>2020-08-22T14:27:42.000Z</time>
      </trkpt>
      <trkpt lat="44.09818" lon="6.96889">
        <ele>1707.5999755859</ele>
        <time>2020-08-22T14:27:47.000Z</time>
      </trkpt>
      <trkpt lat="44.0982" lon="6.96889">
        <ele>1708</ele>
        <time>2020-08-22T14:27:48.000Z</time>
      </trkpt>
      <trkpt lat="44.09827" lon="6.96892">
        <ele>1708.8000488281</ele>
        <time>2020-08-22T14:27:53.000Z</time>
      </trkpt>
      <trkpt lat="44.09828" lon="6.96893">
        <ele>1708.8000488281</ele>
        <time>2020-08-22T14:27:54.000Z</time>
      </trkpt>
      <trkpt lat="44.09839" lon="6.969">
        <ele>1710</ele>
        <time>2020-08-22T14:28:01.000Z</time>
      </trkpt>
      <trkpt lat="44.09841" lon="6.96901">
        <ele>1710.1999511719</ele>
        <time>2020-08-22T14:28:02.000Z</time>
      </trkpt>
      <trkpt lat="44.0985" lon="6.96907">
        <ele>1711.1999511719</ele>
        <time>2020-08-22T14:28:08.000Z</time>
      </trkpt>
      <trkpt lat="44.09852" lon="6.96909">
        <ele>1711.4000244141</ele>
        <time>2020-08-22T14:28:10.000Z</time>
      </trkpt>
      <trkpt lat="44.09861" lon="6.96916">
        <ele>1712.1999511719</ele>
        <time>2020-08-22T14:28:16.000Z</time>
      </trkpt>
      <trkpt lat="44.09863" lon="6.96917">
        <ele>1712.4000244141</ele>
        <time>2020-08-22T14:28:17.000Z</time>
      </trkpt>
      <trkpt lat="44.09866" lon="6.96917">
        <ele>1712.5999755859</ele>
        <time>2020-08-22T14:28:22.000Z</time>
      </trkpt>
      <trkpt lat="44.09867" lon="6.96918">
        <ele>1712.8000488281</ele>
        <time>2020-08-22T14:28:23.000Z</time>
      </trkpt>
      <trkpt lat="44.09869" lon="6.96923">
        <ele>1713.4000244141</ele>
        <time>2020-08-22T14:28:27.000Z</time>
      </trkpt>
      <trkpt lat="44.09872" lon="6.96929">
        <ele>1713.8000488281</ele>
        <time>2020-08-22T14:28:32.000Z</time>
      </trkpt>
      <trkpt lat="44.09873" lon="6.96929">
        <ele>1713.8000488281</ele>
        <time>2020-08-22T14:28:34.000Z</time>
      </trkpt>
      <trkpt lat="44.09874" lon="6.96932">
        <ele>1714.4000244141</ele>
        <time>2020-08-22T14:28:38.000Z</time>
      </trkpt>
      <trkpt lat="44.09876" lon="6.96935">
        <ele>1714.4000244141</ele>
        <time>2020-08-22T14:28:40.000Z</time>
      </trkpt>
      <trkpt lat="44.09883" lon="6.9694">
        <ele>1715</ele>
        <time>2020-08-22T14:28:45.000Z</time>
      </trkpt>
      <trkpt lat="44.09889" lon="6.96944">
        <ele>1715.5999755859</ele>
        <time>2020-08-22T14:28:49.000Z</time>
      </trkpt>
      <trkpt lat="44.09893" lon="6.96948">
        <ele>1715.8000488281</ele>
        <time>2020-08-22T14:28:52.000Z</time>
      </trkpt>
      <trkpt lat="44.09901" lon="6.96955">
        <ele>1716.5999755859</ele>
        <time>2020-08-22T14:28:59.000Z</time>
      </trkpt>
      <trkpt lat="44.09903" lon="6.96956">
        <ele>1716.8000488281</ele>
        <time>2020-08-22T14:29:00.000Z</time>
      </trkpt>
      <trkpt lat="44.09909" lon="6.96959">
        <ele>1717.5999755859</ele>
        <time>2020-08-22T14:29:06.000Z</time>
      </trkpt>
      <trkpt lat="44.0991" lon="6.96959">
        <ele>1717.8000488281</ele>
        <time>2020-08-22T14:29:08.000Z</time>
      </trkpt>
      <trkpt lat="44.09912" lon="6.96959">
        <ele>1718.4000244141</ele>
        <time>2020-08-22T14:29:10.000Z</time>
      </trkpt>
      <trkpt lat="44.09913" lon="6.96959">
        <ele>1718.4000244141</ele>
        <time>2020-08-22T14:29:11.000Z</time>
      </trkpt>
      <trkpt lat="44.09915" lon="6.9696">
        <ele>1719</ele>
        <time>2020-08-22T14:29:14.000Z</time>
      </trkpt>
      <trkpt lat="44.0992" lon="6.96961">
        <ele>1720</ele>
        <time>2020-08-22T14:29:19.000Z</time>
      </trkpt>
      <trkpt lat="44.0992" lon="6.96962">
        <ele>1720</ele>
        <time>2020-08-22T14:29:20.000Z</time>
      </trkpt>
      <trkpt lat="44.09924" lon="6.96965">
        <ele>1721</ele>
        <time>2020-08-22T14:29:26.000Z</time>
      </trkpt>
      <trkpt lat="44.09929" lon="6.96968">
        <ele>1722.1999511719</ele>
        <time>2020-08-22T14:29:31.000Z</time>
      </trkpt>
      <trkpt lat="44.09929" lon="6.96968">
        <ele>1722.4000244141</ele>
        <time>2020-08-22T14:29:32.000Z</time>
      </trkpt>
      <trkpt lat="44.09931" lon="6.9697">
        <ele>1723.1999511719</ele>
        <time>2020-08-22T14:29:35.000Z</time>
      </trkpt>
      <trkpt lat="44.09936" lon="6.96975">
        <ele>1724.1999511719</ele>
        <time>2020-08-22T14:29:42.000Z</time>
      </trkpt>
      <trkpt lat="44.09937" lon="6.96976">
        <ele>1724.4000244141</ele>
        <time>2020-08-22T14:29:44.000Z</time>
      </trkpt>
      <trkpt lat="44.0994" lon="6.9698">
        <ele>1725.5999755859</ele>
        <time>2020-08-22T14:29:49.000Z</time>
      </trkpt>
      <trkpt lat="44.09941" lon="6.96981">
        <ele>1726</ele>
        <time>2020-08-22T14:29:51.000Z</time>
      </trkpt>
      <trkpt lat="44.09943" lon="6.96984">
        <ele>1726.8000488281</ele>
        <time>2020-08-22T14:29:55.000Z</time>
      </trkpt>
      <trkpt lat="44.09946" lon="6.96988">
        <ele>1727.5999755859</ele>
        <time>2020-08-22T14:29:59.000Z</time>
      </trkpt>
      <trkpt lat="44.09947" lon="6.9699">
        <ele>1727.8000488281</ele>
        <time>2020-08-22T14:30:01.000Z</time>
      </trkpt>
      <trkpt lat="44.09951" lon="6.96993">
        <ele>1729</ele>
        <time>2020-08-22T14:30:06.000Z</time>
      </trkpt>
      <trkpt lat="44.09952" lon="6.96993">
        <ele>1729</ele>
        <time>2020-08-22T14:30:07.000Z</time>
      </trkpt>
      <trkpt lat="44.09959" lon="6.9699">
        <ele>1729.5999755859</ele>
        <time>2020-08-22T14:30:15.000Z</time>
      </trkpt>
      <trkpt lat="44.09963" lon="6.9699">
        <ele>1730</ele>
        <time>2020-08-22T14:30:20.000Z</time>
      </trkpt>
      <trkpt lat="44.09963" lon="6.96991">
        <ele>1730.1999511719</ele>
        <time>2020-08-22T14:30:23.000Z</time>
      </trkpt>
      <trkpt lat="44.09964" lon="6.96991">
        <ele>1730</ele>
        <time>2020-08-22T14:30:34.000Z</time>
      </trkpt>
      <trkpt lat="44.09965" lon="6.96991">
        <ele>1731</ele>
        <time>2020-08-22T14:30:41.000Z</time>
      </trkpt>
      <trkpt lat="44.09965" lon="6.96991">
        <ele>1731.1999511719</ele>
        <time>2020-08-22T14:30:42.000Z</time>
      </trkpt>
      <trkpt lat="44.09971" lon="6.96997">
        <ele>1730.8000488281</ele>
        <time>2020-08-22T14:30:48.000Z</time>
      </trkpt>
      <trkpt lat="44.09987" lon="6.97006">
        <ele>1731.1999511719</ele>
        <time>2020-08-22T14:30:57.000Z</time>
      </trkpt>
      <trkpt lat="44.10005" lon="6.97014">
        <ele>1731.5999755859</ele>
        <time>2020-08-22T14:31:05.000Z</time>
      </trkpt>
      <trkpt lat="44.10019" lon="6.97017">
        <ele>1732.1999511719</ele>
        <time>2020-08-22T14:31:11.000Z</time>
      </trkpt>
      <trkpt lat="44.10022" lon="6.97017">
        <ele>1732.1999511719</ele>
        <time>2020-08-22T14:31:12.000Z</time>
      </trkpt>
      <trkpt lat="44.10035" lon="6.97018">
        <ele>1733.1999511719</ele>
        <time>2020-08-22T14:31:19.000Z</time>
      </trkpt>
      <trkpt lat="44.10044" lon="6.97017">
        <ele>1733.8000488281</ele>
        <time>2020-08-22T14:31:25.000Z</time>
      </trkpt>
      <trkpt lat="44.10055" lon="6.97013">
        <ele>1734</ele>
        <time>2020-08-22T14:31:31.000Z</time>
      </trkpt>
      <trkpt lat="44.10059" lon="6.97012">
        <ele>1734.4000244141</ele>
        <time>2020-08-22T14:31:33.000Z</time>
      </trkpt>
      <trkpt lat="44.10064" lon="6.97011">
        <ele>1735</ele>
        <time>2020-08-22T14:31:36.000Z</time>
      </trkpt>
      <trkpt lat="44.10068" lon="6.9701">
        <ele>1735.5999755859</ele>
        <time>2020-08-22T14:31:38.000Z</time>
      </trkpt>
      <trkpt lat="44.10076" lon="6.97007">
        <ele>1736.4000244141</ele>
        <time>2020-08-22T14:31:42.000Z</time>
      </trkpt>
      <trkpt lat="44.1008" lon="6.97007">
        <ele>1736.5999755859</ele>
        <time>2020-08-22T14:31:44.000Z</time>
      </trkpt>
      <trkpt lat="44.10094" lon="6.97006">
        <ele>1736.8000488281</ele>
        <time>2020-08-22T14:31:49.000Z</time>
      </trkpt>
      <trkpt lat="44.1012" lon="6.97003">
        <ele>1737.4000244141</ele>
        <time>2020-08-22T14:31:56.000Z</time>
      </trkpt>
      <trkpt lat="44.10137" lon="6.97001">
        <ele>1737.8000488281</ele>
        <time>2020-08-22T14:32:01.000Z</time>
      </trkpt>
      <trkpt lat="44.10158" lon="6.97004">
        <ele>1738.1999511719</ele>
        <time>2020-08-22T14:32:07.000Z</time>
      </trkpt>
      <trkpt lat="44.10168" lon="6.97005">
        <ele>1738.8000488281</ele>
        <time>2020-08-22T14:32:10.000Z</time>
      </trkpt>
      <trkpt lat="44.10178" lon="6.97005">
        <ele>1739</ele>
        <time>2020-08-22T14:32:13.000Z</time>
      </trkpt>
      <trkpt lat="44.10194" lon="6.96997">
        <ele>1739.1999511719</ele>
        <time>2020-08-22T14:32:18.000Z</time>
      </trkpt>
      <trkpt lat="44.10205" lon="6.96983">
        <ele>1739.4000244141</ele>
        <time>2020-08-22T14:32:23.000Z</time>
      </trkpt>
      <trkpt lat="44.10207" lon="6.96981">
        <ele>1740</ele>
        <time>2020-08-22T14:32:24.000Z</time>
      </trkpt>
      <trkpt lat="44.10217" lon="6.96971">
        <ele>1740</ele>
        <time>2020-08-22T14:32:27.000Z</time>
      </trkpt>
      <trkpt lat="44.10224" lon="6.96963">
        <ele>1739.4000244141</ele>
        <time>2020-08-22T14:32:29.000Z</time>
      </trkpt>
      <trkpt lat="44.10231" lon="6.96958">
        <ele>1738.8000488281</ele>
        <time>2020-08-22T14:32:31.000Z</time>
      </trkpt>
      <trkpt lat="44.10235" lon="6.96954">
        <ele>1738.5999755859</ele>
        <time>2020-08-22T14:32:32.000Z</time>
      </trkpt>
      <trkpt lat="44.10238" lon="6.9695">
        <ele>1738.8000488281</ele>
        <time>2020-08-22T14:32:33.000Z</time>
      </trkpt>
      <trkpt lat="44.10243" lon="6.96941">
        <ele>1738.4000244141</ele>
        <time>2020-08-22T14:32:35.000Z</time>
      </trkpt>
      <trkpt lat="44.10246" lon="6.96937">
        <ele>1738.1999511719</ele>
        <time>2020-08-22T14:32:36.000Z</time>
      </trkpt>
      <trkpt lat="44.10249" lon="6.96926">
        <ele>1737.5999755859</ele>
        <time>2020-08-22T14:32:38.000Z</time>
      </trkpt>
      <trkpt lat="44.10256" lon="6.96913">
        <ele>1738.1999511719</ele>
        <time>2020-08-22T14:32:41.000Z</time>
      </trkpt>
      <trkpt lat="44.10267" lon="6.96904">
        <ele>1737.4000244141</ele>
        <time>2020-08-22T14:32:45.000Z</time>
      </trkpt>
      <trkpt lat="44.10272" lon="6.96903">
        <ele>1736.5999755859</ele>
        <time>2020-08-22T14:32:47.000Z</time>
      </trkpt>
      <trkpt lat="44.10279" lon="6.96895">
        <ele>1736.1999511719</ele>
        <time>2020-08-22T14:32:50.000Z</time>
      </trkpt>
      <trkpt lat="44.1029" lon="6.96883">
        <ele>1735.4000244141</ele>
        <time>2020-08-22T14:32:54.000Z</time>
      </trkpt>
      <trkpt lat="44.10295" lon="6.96877">
        <ele>1734.1999511719</ele>
        <time>2020-08-22T14:32:56.000Z</time>
      </trkpt>
      <trkpt lat="44.103" lon="6.96872">
        <ele>1732.5999755859</ele>
        <time>2020-08-22T14:32:58.000Z</time>
      </trkpt>
      <trkpt lat="44.10305" lon="6.96865">
        <ele>1731.1999511719</ele>
        <time>2020-08-22T14:33:00.000Z</time>
      </trkpt>
      <trkpt lat="44.10311" lon="6.96858">
        <ele>1729.5999755859</ele>
        <time>2020-08-22T14:33:02.000Z</time>
      </trkpt>
      <trkpt lat="44.10314" lon="6.96853">
        <ele>1728.5999755859</ele>
        <time>2020-08-22T14:33:03.000Z</time>
      </trkpt>
      <trkpt lat="44.10316" lon="6.96849">
        <ele>1727.5999755859</ele>
        <time>2020-08-22T14:33:04.000Z</time>
      </trkpt>
      <trkpt lat="44.10318" lon="6.96844">
        <ele>1726.8000488281</ele>
        <time>2020-08-22T14:33:05.000Z</time>
      </trkpt>
      <trkpt lat="44.1032" lon="6.96839">
        <ele>1726.1999511719</ele>
        <time>2020-08-22T14:33:06.000Z</time>
      </trkpt>
      <trkpt lat="44.10324" lon="6.96838">
        <ele>1725.4000244141</ele>
        <time>2020-08-22T14:33:08.000Z</time>
      </trkpt>
      <trkpt lat="44.10326" lon="6.9684">
        <ele>1725.4000244141</ele>
        <time>2020-08-22T14:33:13.000Z</time>
      </trkpt>
      <trkpt lat="44.10332" lon="6.96846">
        <ele>1726</ele>
        <time>2020-08-22T14:33:18.000Z</time>
      </trkpt>
      <trkpt lat="44.10332" lon="6.96847">
        <ele>1726</ele>
        <time>2020-08-22T14:33:19.000Z</time>
      </trkpt>
      <trkpt lat="44.10335" lon="6.96854">
        <ele>1726.8000488281</ele>
        <time>2020-08-22T14:33:26.000Z</time>
      </trkpt>
      <trkpt lat="44.10337" lon="6.96855">
        <ele>1727.1999511719</ele>
        <time>2020-08-22T14:33:31.000Z</time>
      </trkpt>
      <trkpt lat="44.10337" lon="6.96856">
        <ele>1727.1999511719</ele>
        <time>2020-08-22T14:33:32.000Z</time>
      </trkpt>
      <trkpt lat="44.10341" lon="6.96863">
        <ele>1728</ele>
        <time>2020-08-22T14:33:37.000Z</time>
      </trkpt>
      <trkpt lat="44.10342" lon="6.96866">
        <ele>1728.1999511719</ele>
        <time>2020-08-22T14:33:40.000Z</time>
      </trkpt>
      <trkpt lat="44.10343" lon="6.96867">
        <ele>1728</ele>
        <time>2020-08-22T14:33:41.000Z</time>
      </trkpt>
      <trkpt lat="44.10349" lon="6.96874">
        <ele>1728.4000244141</ele>
        <time>2020-08-22T14:33:45.000Z</time>
      </trkpt>
      <trkpt lat="44.10352" lon="6.96878">
        <ele>1728.5999755859</ele>
        <time>2020-08-22T14:33:47.000Z</time>
      </trkpt>
      <trkpt lat="44.10358" lon="6.96886">
        <ele>1729.4000244141</ele>
        <time>2020-08-22T14:33:50.000Z</time>
      </trkpt>
      <trkpt lat="44.10363" lon="6.96891">
        <ele>1730.4000244141</ele>
        <time>2020-08-22T14:33:53.000Z</time>
      </trkpt>
      <trkpt lat="44.10367" lon="6.96894">
        <ele>1730.4000244141</ele>
        <time>2020-08-22T14:33:55.000Z</time>
      </trkpt>
      <trkpt lat="44.10371" lon="6.96896">
        <ele>1731.1999511719</ele>
        <time>2020-08-22T14:33:58.000Z</time>
      </trkpt>
      <trkpt lat="44.10371" lon="6.96897">
        <ele>1731.5999755859</ele>
        <time>2020-08-22T14:34:00.000Z</time>
      </trkpt>
      <trkpt lat="44.10373" lon="6.96899">
        <ele>1732.5999755859</ele>
        <time>2020-08-22T14:34:03.000Z</time>
      </trkpt>
      <trkpt lat="44.10374" lon="6.96899">
        <ele>1732.8000488281</ele>
        <time>2020-08-22T14:34:04.000Z</time>
      </trkpt>
      <trkpt lat="44.10375" lon="6.96901">
        <ele>1733</ele>
        <time>2020-08-22T14:34:06.000Z</time>
      </trkpt>
      <trkpt lat="44.10376" lon="6.96904">
        <ele>1732.8000488281</ele>
        <time>2020-08-22T14:34:09.000Z</time>
      </trkpt>
      <trkpt lat="44.10381" lon="6.96912">
        <ele>1731.8000488281</ele>
        <time>2020-08-22T14:34:14.000Z</time>
      </trkpt>
      <trkpt lat="44.10382" lon="6.96915">
        <ele>1731.5999755859</ele>
        <time>2020-08-22T14:34:15.000Z</time>
      </trkpt>
      <trkpt lat="44.10386" lon="6.96919">
        <ele>1731</ele>
        <time>2020-08-22T14:34:18.000Z</time>
      </trkpt>
      <trkpt lat="44.1039" lon="6.96922">
        <ele>1731.1999511719</ele>
        <time>2020-08-22T14:34:21.000Z</time>
      </trkpt>
      <trkpt lat="44.10395" lon="6.96926">
        <ele>1732.1999511719</ele>
        <time>2020-08-22T14:34:24.000Z</time>
      </trkpt>
      <trkpt lat="44.10401" lon="6.9693">
        <ele>1732.8000488281</ele>
        <time>2020-08-22T14:34:28.000Z</time>
      </trkpt>
      <trkpt lat="44.10402" lon="6.96932">
        <ele>1733.1999511719</ele>
        <time>2020-08-22T14:34:30.000Z</time>
      </trkpt>
      <trkpt lat="44.10406" lon="6.96935">
        <ele>1734</ele>
        <time>2020-08-22T14:34:33.000Z</time>
      </trkpt>
      <trkpt lat="44.10408" lon="6.96941">
        <ele>1734.5999755859</ele>
        <time>2020-08-22T14:34:36.000Z</time>
      </trkpt>
      <trkpt lat="44.1041" lon="6.96947">
        <ele>1734.8000488281</ele>
        <time>2020-08-22T14:34:39.000Z</time>
      </trkpt>
      <trkpt lat="44.10412" lon="6.9695">
        <ele>1735.1999511719</ele>
        <time>2020-08-22T14:34:42.000Z</time>
      </trkpt>
      <trkpt lat="44.10413" lon="6.9695">
        <ele>1735.1999511719</ele>
        <time>2020-08-22T14:34:43.000Z</time>
      </trkpt>
      <trkpt lat="44.10414" lon="6.96952">
        <ele>1735.4000244141</ele>
        <time>2020-08-22T14:34:44.000Z</time>
      </trkpt>
      <trkpt lat="44.1042" lon="6.96956">
        <ele>1736.1999511719</ele>
        <time>2020-08-22T14:34:49.000Z</time>
      </trkpt>
      <trkpt lat="44.10422" lon="6.96958">
        <ele>1736.4000244141</ele>
        <time>2020-08-22T14:34:50.000Z</time>
      </trkpt>
      <trkpt lat="44.10432" lon="6.96961">
        <ele>1737.1999511719</ele>
        <time>2020-08-22T14:34:56.000Z</time>
      </trkpt>
      <trkpt lat="44.10436" lon="6.96963">
        <ele>1737.4000244141</ele>
        <time>2020-08-22T14:34:58.000Z</time>
      </trkpt>
      <trkpt lat="44.10442" lon="6.96969">
        <ele>1737.8000488281</ele>
        <time>2020-08-22T14:35:01.000Z</time>
      </trkpt>
      <trkpt lat="44.10449" lon="6.96976">
        <ele>1738.1999511719</ele>
        <time>2020-08-22T14:35:07.000Z</time>
      </trkpt>
      <trkpt lat="44.10451" lon="6.96976">
        <ele>1738.5999755859</ele>
        <time>2020-08-22T14:35:08.000Z</time>
      </trkpt>
      <trkpt lat="44.10454" lon="6.96977">
        <ele>1739.1999511719</ele>
        <time>2020-08-22T14:35:11.000Z</time>
      </trkpt>
      <trkpt lat="44.10455" lon="6.96978">
        <ele>1739.5999755859</ele>
        <time>2020-08-22T14:35:12.000Z</time>
      </trkpt>
      <trkpt lat="44.10465" lon="6.96981">
        <ele>1740.1999511719</ele>
        <time>2020-08-22T14:35:18.000Z</time>
      </trkpt>
      <trkpt lat="44.10473" lon="6.96979">
        <ele>1740</ele>
        <time>2020-08-22T14:35:23.000Z</time>
      </trkpt>
      <trkpt lat="44.10476" lon="6.9698">
        <ele>1740.5999755859</ele>
        <time>2020-08-22T14:35:25.000Z</time>
      </trkpt>
      <trkpt lat="44.10477" lon="6.96986">
        <ele>1741.4000244141</ele>
        <time>2020-08-22T14:35:28.000Z</time>
      </trkpt>
      <trkpt lat="44.10482" lon="6.9699">
        <ele>1741.5999755859</ele>
        <time>2020-08-22T14:35:32.000Z</time>
      </trkpt>
      <trkpt lat="44.10483" lon="6.96991">
        <ele>1741.5999755859</ele>
        <time>2020-08-22T14:35:33.000Z</time>
      </trkpt>
      <trkpt lat="44.10485" lon="6.96992">
        <ele>1741.5999755859</ele>
        <time>2020-08-22T14:35:34.000Z</time>
      </trkpt>
      <trkpt lat="44.10493" lon="6.96993">
        <ele>1742.8000488281</ele>
        <time>2020-08-22T14:35:39.000Z</time>
      </trkpt>
      <trkpt lat="44.10501" lon="6.96998">
        <ele>1743.5999755859</ele>
        <time>2020-08-22T14:35:44.000Z</time>
      </trkpt>
      <trkpt lat="44.10503" lon="6.96998">
        <ele>1743.4000244141</ele>
        <time>2020-08-22T14:35:45.000Z</time>
      </trkpt>
      <trkpt lat="44.10511" lon="6.97001">
        <ele>1743.5999755859</ele>
        <time>2020-08-22T14:35:49.000Z</time>
      </trkpt>
      <trkpt lat="44.10516" lon="6.97002">
        <ele>1743.8000488281</ele>
        <time>2020-08-22T14:35:51.000Z</time>
      </trkpt>
      <trkpt lat="44.10518" lon="6.97002">
        <ele>1743.8000488281</ele>
        <time>2020-08-22T14:35:52.000Z</time>
      </trkpt>
      <trkpt lat="44.10527" lon="6.97003">
        <ele>1743.8000488281</ele>
        <time>2020-08-22T14:35:56.000Z</time>
      </trkpt>
      <trkpt lat="44.10535" lon="6.97">
        <ele>1743.8000488281</ele>
        <time>2020-08-22T14:36:00.000Z</time>
      </trkpt>
      <trkpt lat="44.10544" lon="6.96998">
        <ele>1744.8000488281</ele>
        <time>2020-08-22T14:36:04.000Z</time>
      </trkpt>
      <trkpt lat="44.10546" lon="6.96997">
        <ele>1745</ele>
        <time>2020-08-22T14:36:05.000Z</time>
      </trkpt>
      <trkpt lat="44.10561" lon="6.96993">
        <ele>1745.5999755859</ele>
        <time>2020-08-22T14:36:11.000Z</time>
      </trkpt>
      <trkpt lat="44.10565" lon="6.96989">
        <ele>1745.8000488281</ele>
        <time>2020-08-22T14:36:13.000Z</time>
      </trkpt>
      <trkpt lat="44.10571" lon="6.96986">
        <ele>1746.1999511719</ele>
        <time>2020-08-22T14:36:16.000Z</time>
      </trkpt>
      <trkpt lat="44.10584" lon="6.96979">
        <ele>1746.5999755859</ele>
        <time>2020-08-22T14:36:22.000Z</time>
      </trkpt>
      <trkpt lat="44.10587" lon="6.96982">
        <ele>1746.1999511719</ele>
        <time>2020-08-22T14:36:26.000Z</time>
      </trkpt>
      <trkpt lat="44.10588" lon="6.96983">
        <ele>1746.4000244141</ele>
        <time>2020-08-22T14:36:27.000Z</time>
      </trkpt>
      <trkpt lat="44.10592" lon="6.96983">
        <ele>1747</ele>
        <time>2020-08-22T14:36:30.000Z</time>
      </trkpt>
      <trkpt lat="44.10593" lon="6.96983">
        <ele>1747</ele>
        <time>2020-08-22T14:36:31.000Z</time>
      </trkpt>
      <trkpt lat="44.10604" lon="6.96982">
        <ele>1747.8000488281</ele>
        <time>2020-08-22T14:36:36.000Z</time>
      </trkpt>
      <trkpt lat="44.10606" lon="6.96981">
        <ele>1747.8000488281</ele>
        <time>2020-08-22T14:36:37.000Z</time>
      </trkpt>
      <trkpt lat="44.10608" lon="6.96981">
        <ele>1748</ele>
        <time>2020-08-22T14:36:38.000Z</time>
      </trkpt>
      <trkpt lat="44.10617" lon="6.96978">
        <ele>1748</ele>
        <time>2020-08-22T14:36:42.000Z</time>
      </trkpt>
      <trkpt lat="44.10626" lon="6.96979">
        <ele>1748.4000244141</ele>
        <time>2020-08-22T14:36:46.000Z</time>
      </trkpt>
      <trkpt lat="44.10637" lon="6.96977">
        <ele>1748.4000244141</ele>
        <time>2020-08-22T14:36:51.000Z</time>
      </trkpt>
      <trkpt lat="44.10651" lon="6.96977">
        <ele>1747.1999511719</ele>
        <time>2020-08-22T14:36:56.000Z</time>
      </trkpt>
      <trkpt lat="44.10653" lon="6.96977">
        <ele>1747</ele>
        <time>2020-08-22T14:36:57.000Z</time>
      </trkpt>
      <trkpt lat="44.10661" lon="6.96977">
        <ele>1746.4000244141</ele>
        <time>2020-08-22T14:37:00.000Z</time>
      </trkpt>
      <trkpt lat="44.10673" lon="6.96977">
        <ele>1748</ele>
        <time>2020-08-22T14:37:06.000Z</time>
      </trkpt>
      <trkpt lat="44.10682" lon="6.96983">
        <ele>1749</ele>
        <time>2020-08-22T14:37:11.000Z</time>
      </trkpt>
      <trkpt lat="44.10684" lon="6.96983">
        <ele>1749</ele>
        <time>2020-08-22T14:37:12.000Z</time>
      </trkpt>
      <trkpt lat="44.10691" lon="6.96979">
        <ele>1749.4000244141</ele>
        <time>2020-08-22T14:37:15.000Z</time>
      </trkpt>
      <trkpt lat="44.10694" lon="6.9698">
        <ele>1749.4000244141</ele>
        <time>2020-08-22T14:37:16.000Z</time>
      </trkpt>
      <trkpt lat="44.10697" lon="6.96983">
        <ele>1748.8000488281</ele>
        <time>2020-08-22T14:37:18.000Z</time>
      </trkpt>
      <trkpt lat="44.10708" lon="6.96992">
        <ele>1749</ele>
        <time>2020-08-22T14:37:24.000Z</time>
      </trkpt>
      <trkpt lat="44.10712" lon="6.96992">
        <ele>1749.4000244141</ele>
        <time>2020-08-22T14:37:26.000Z</time>
      </trkpt>
      <trkpt lat="44.10722" lon="6.96993">
        <ele>1749.5999755859</ele>
        <time>2020-08-22T14:37:30.000Z</time>
      </trkpt>
      <trkpt lat="44.10733" lon="6.96993">
        <ele>1750</ele>
        <time>2020-08-22T14:37:34.000Z</time>
      </trkpt>
      <trkpt lat="44.10743" lon="6.96993">
        <ele>1750.5999755859</ele>
        <time>2020-08-22T14:37:38.000Z</time>
      </trkpt>
      <trkpt lat="44.10756" lon="6.96991">
        <ele>1751</ele>
        <time>2020-08-22T14:37:44.000Z</time>
      </trkpt>
      <trkpt lat="44.10758" lon="6.96991">
        <ele>1751.4000244141</ele>
        <time>2020-08-22T14:37:45.000Z</time>
      </trkpt>
      <trkpt lat="44.10772" lon="6.96988">
        <ele>1752.4000244141</ele>
        <time>2020-08-22T14:37:51.000Z</time>
      </trkpt>
      <trkpt lat="44.10773" lon="6.96986">
        <ele>1752.5999755859</ele>
        <time>2020-08-22T14:37:52.000Z</time>
      </trkpt>
      <trkpt lat="44.10779" lon="6.96981">
        <ele>1753</ele>
        <time>2020-08-22T14:37:55.000Z</time>
      </trkpt>
      <trkpt lat="44.10785" lon="6.96982">
        <ele>1753.1999511719</ele>
        <time>2020-08-22T14:37:57.000Z</time>
      </trkpt>
      <trkpt lat="44.10787" lon="6.96982">
        <ele>1753.4000244141</ele>
        <time>2020-08-22T14:37:58.000Z</time>
      </trkpt>
      <trkpt lat="44.10789" lon="6.96982">
        <ele>1753.4000244141</ele>
        <time>2020-08-22T14:37:59.000Z</time>
      </trkpt>
      <trkpt lat="44.10806" lon="6.96979">
        <ele>1754.5999755859</ele>
        <time>2020-08-22T14:38:07.000Z</time>
      </trkpt>
      <trkpt lat="44.10815" lon="6.96982">
        <ele>1754.4000244141</ele>
        <time>2020-08-22T14:38:11.000Z</time>
      </trkpt>
      <trkpt lat="44.10819" lon="6.96987">
        <ele>1754.4000244141</ele>
        <time>2020-08-22T14:38:14.000Z</time>
      </trkpt>
      <trkpt lat="44.10822" lon="6.96991">
        <ele>1754.8000488281</ele>
        <time>2020-08-22T14:38:16.000Z</time>
      </trkpt>
      <trkpt lat="44.10836" lon="6.97006">
        <ele>1755.4000244141</ele>
        <time>2020-08-22T14:38:22.000Z</time>
      </trkpt>
      <trkpt lat="44.10846" lon="6.97018">
        <ele>1754.8000488281</ele>
        <time>2020-08-22T14:38:27.000Z</time>
      </trkpt>
      <trkpt lat="44.10855" lon="6.97028">
        <ele>1755.1999511719</ele>
        <time>2020-08-22T14:38:31.000Z</time>
      </trkpt>
      <trkpt lat="44.10858" lon="6.97032">
        <ele>1755.1999511719</ele>
        <time>2020-08-22T14:38:32.000Z</time>
      </trkpt>
      <trkpt lat="44.1087" lon="6.97047">
        <ele>1754</ele>
        <time>2020-08-22T14:38:36.000Z</time>
      </trkpt>
      <trkpt lat="44.10877" lon="6.97056">
        <ele>1753.1999511719</ele>
        <time>2020-08-22T14:38:38.000Z</time>
      </trkpt>
      <trkpt lat="44.10885" lon="6.97066">
        <ele>1752.5999755859</ele>
        <time>2020-08-22T14:38:40.000Z</time>
      </trkpt>
      <trkpt lat="44.10888" lon="6.97071">
        <ele>1751.8000488281</ele>
        <time>2020-08-22T14:38:41.000Z</time>
      </trkpt>
      <trkpt lat="44.10896" lon="6.97087">
        <ele>1750.1999511719</ele>
        <time>2020-08-22T14:38:44.000Z</time>
      </trkpt>
      <trkpt lat="44.10902" lon="6.97097">
        <ele>1749</ele>
        <time>2020-08-22T14:38:46.000Z</time>
      </trkpt>
      <trkpt lat="44.10905" lon="6.971">
        <ele>1748.1999511719</ele>
        <time>2020-08-22T14:38:47.000Z</time>
      </trkpt>
      <trkpt lat="44.10908" lon="6.97105">
        <ele>1747.1999511719</ele>
        <time>2020-08-22T14:38:48.000Z</time>
      </trkpt>
      <trkpt lat="44.10916" lon="6.97115">
        <ele>1746</ele>
        <time>2020-08-22T14:38:50.000Z</time>
      </trkpt>
      <trkpt lat="44.10923" lon="6.97125">
        <ele>1744.8000488281</ele>
        <time>2020-08-22T14:38:52.000Z</time>
      </trkpt>
      <trkpt lat="44.10933" lon="6.97142">
        <ele>1743.8000488281</ele>
        <time>2020-08-22T14:38:55.000Z</time>
      </trkpt>
      <trkpt lat="44.10937" lon="6.97147">
        <ele>1743.5999755859</ele>
        <time>2020-08-22T14:38:56.000Z</time>
      </trkpt>
      <trkpt lat="44.10943" lon="6.97161">
        <ele>1742.5999755859</ele>
        <time>2020-08-22T14:38:58.000Z</time>
      </trkpt>
      <trkpt lat="44.10944" lon="6.97168">
        <ele>1742</ele>
        <time>2020-08-22T14:38:59.000Z</time>
      </trkpt>
      <trkpt lat="44.10948" lon="6.97176">
        <ele>1741.4000244141</ele>
        <time>2020-08-22T14:39:00.000Z</time>
      </trkpt>
      <trkpt lat="44.10957" lon="6.97192">
        <ele>1739.5999755859</ele>
        <time>2020-08-22T14:39:02.000Z</time>
      </trkpt>
      <trkpt lat="44.10966" lon="6.97203">
        <ele>1738.4000244141</ele>
        <time>2020-08-22T14:39:04.000Z</time>
      </trkpt>
      <trkpt lat="44.1097" lon="6.97208">
        <ele>1737.8000488281</ele>
        <time>2020-08-22T14:39:05.000Z</time>
      </trkpt>
      <trkpt lat="44.10975" lon="6.97214">
        <ele>1737</ele>
        <time>2020-08-22T14:39:06.000Z</time>
      </trkpt>
      <trkpt lat="44.10977" lon="6.97232">
        <ele>1735.4000244141</ele>
        <time>2020-08-22T14:39:09.000Z</time>
      </trkpt>
      <trkpt lat="44.10976" lon="6.97238">
        <ele>1734.5999755859</ele>
        <time>2020-08-22T14:39:10.000Z</time>
      </trkpt>
      <trkpt lat="44.10975" lon="6.97241">
        <ele>1734.4000244141</ele>
        <time>2020-08-22T14:39:11.000Z</time>
      </trkpt>
      <trkpt lat="44.10974" lon="6.97246">
        <ele>1734</ele>
        <time>2020-08-22T14:39:13.000Z</time>
      </trkpt>
      <trkpt lat="44.10974" lon="6.97246">
        <ele>1733</ele>
        <time>2020-08-22T14:39:17.000Z</time>
      </trkpt>
      <trkpt lat="44.10974" lon="6.97247">
        <ele>1733</ele>
        <time>2020-08-22T14:39:18.000Z</time>
      </trkpt>
      <trkpt lat="44.10977" lon="6.97248">
        <ele>1732.8000488281</ele>
        <time>2020-08-22T14:39:24.000Z</time>
      </trkpt>
      <trkpt lat="44.10978" lon="6.97249">
        <ele>1732.8000488281</ele>
        <time>2020-08-22T14:39:25.000Z</time>
      </trkpt>
      <trkpt lat="44.10982" lon="6.97252">
        <ele>1732.8000488281</ele>
        <time>2020-08-22T14:39:29.000Z</time>
      </trkpt>
      <trkpt lat="44.10983" lon="6.97253">
        <ele>1732.4000244141</ele>
        <time>2020-08-22T14:39:34.000Z</time>
      </trkpt>
      <trkpt lat="44.10982" lon="6.97256">
        <ele>1732.8000488281</ele>
        <time>2020-08-22T14:39:46.000Z</time>
      </trkpt>
      <trkpt lat="44.10982" lon="6.97259">
        <ele>1732</ele>
        <time>2020-08-22T14:40:02.000Z</time>
      </trkpt>
      <trkpt lat="44.10983" lon="6.9726">
        <ele>1732.4000244141</ele>
        <time>2020-08-22T14:40:17.000Z</time>
      </trkpt>
      <trkpt lat="44.10982" lon="6.97261">
        <ele>1732.8000488281</ele>
        <time>2020-08-22T14:40:27.000Z</time>
      </trkpt>
      <trkpt lat="44.10982" lon="6.97259">
        <ele>1732.5999755859</ele>
        <time>2020-08-22T14:40:35.000Z</time>
      </trkpt>
      <trkpt lat="44.10982" lon="6.97256">
        <ele>1732.8000488281</ele>
        <time>2020-08-22T14:40:47.000Z</time>
      </trkpt>
      <trkpt lat="44.10981" lon="6.97255">
        <ele>1732.5999755859</ele>
        <time>2020-08-22T14:40:53.000Z</time>
      </trkpt>
      <trkpt lat="44.10981" lon="6.97255">
        <ele>1732.1999511719</ele>
        <time>2020-08-22T14:41:01.000Z</time>
      </trkpt>
      <trkpt lat="44.10981" lon="6.97256">
        <ele>1732.1999511719</ele>
        <time>2020-08-22T14:41:06.000Z</time>
      </trkpt>
      <trkpt lat="44.10981" lon="6.97256">
        <ele>1732</ele>
        <time>2020-08-22T14:41:22.000Z</time>
      </trkpt>
      <trkpt lat="44.10981" lon="6.97255">
        <ele>1732.8000488281</ele>
        <time>2020-08-22T14:41:27.000Z</time>
      </trkpt>
      <trkpt lat="44.10981" lon="6.97255">
        <ele>1732.8000488281</ele>
        <time>2020-08-22T14:41:29.000Z</time>
      </trkpt>
      <trkpt lat="44.10981" lon="6.97255">
        <ele>1732.5999755859</ele>
        <time>2020-08-22T14:41:40.000Z</time>
      </trkpt>
      <trkpt lat="44.10979" lon="6.97255">
        <ele>1732.5999755859</ele>
        <time>2020-08-22T14:41:51.000Z</time>
      </trkpt>
      <trkpt lat="44.10978" lon="6.97255">
        <ele>1732.8000488281</ele>
        <time>2020-08-22T14:41:52.000Z</time>
      </trkpt>
      <trkpt lat="44.10976" lon="6.97255">
        <ele>1732.4000244141</ele>
        <time>2020-08-22T14:41:57.000Z</time>
      </trkpt>
      <trkpt lat="44.10976" lon="6.97254">
        <ele>1733</ele>
        <time>2020-08-22T14:42:02.000Z</time>
      </trkpt>
      <trkpt lat="44.10966" lon="6.97256">
        <ele>1732.8000488281</ele>
        <time>2020-08-22T14:42:07.000Z</time>
      </trkpt>
      <trkpt lat="44.10951" lon="6.97248">
        <ele>1732.1999511719</ele>
        <time>2020-08-22T14:42:13.000Z</time>
      </trkpt>
      <trkpt lat="44.10945" lon="6.97244">
        <ele>1732</ele>
        <time>2020-08-22T14:42:15.000Z</time>
      </trkpt>
      <trkpt lat="44.10934" lon="6.97234">
        <ele>1732.1999511719</ele>
        <time>2020-08-22T14:42:19.000Z</time>
      </trkpt>
      <trkpt lat="44.10923" lon="6.97228">
        <ele>1731.8000488281</ele>
        <time>2020-08-22T14:42:22.000Z</time>
      </trkpt>
      <trkpt lat="44.1092" lon="6.97224">
        <ele>1731.8000488281</ele>
        <time>2020-08-22T14:42:23.000Z</time>
      </trkpt>
      <trkpt lat="44.10907" lon="6.97212">
        <ele>1731.5999755859</ele>
        <time>2020-08-22T14:42:27.000Z</time>
      </trkpt>
      <trkpt lat="44.109" lon="6.97206">
        <ele>1731.4000244141</ele>
        <time>2020-08-22T14:42:29.000Z</time>
      </trkpt>
      <trkpt lat="44.10894" lon="6.97199">
        <ele>1730.8000488281</ele>
        <time>2020-08-22T14:42:31.000Z</time>
      </trkpt>
      <trkpt lat="44.10883" lon="6.97179">
        <ele>1730.1999511719</ele>
        <time>2020-08-22T14:42:36.000Z</time>
      </trkpt>
      <trkpt lat="44.10875" lon="6.97163">
        <ele>1730.5999755859</ele>
        <time>2020-08-22T14:42:41.000Z</time>
      </trkpt>
      <trkpt lat="44.10864" lon="6.97142">
        <ele>1731.4000244141</ele>
        <time>2020-08-22T14:42:46.000Z</time>
      </trkpt>
      <trkpt lat="44.10851" lon="6.97128">
        <ele>1732</ele>
        <time>2020-08-22T14:42:50.000Z</time>
      </trkpt>
      <trkpt lat="44.10848" lon="6.97125">
        <ele>1732</ele>
        <time>2020-08-22T14:42:51.000Z</time>
      </trkpt>
      <trkpt lat="44.10844" lon="6.9712">
        <ele>1732.1999511719</ele>
        <time>2020-08-22T14:42:52.000Z</time>
      </trkpt>
      <trkpt lat="44.10835" lon="6.97111">
        <ele>1732</ele>
        <time>2020-08-22T14:42:54.000Z</time>
      </trkpt>
      <trkpt lat="44.10827" lon="6.97102">
        <ele>1731.1999511719</ele>
        <time>2020-08-22T14:42:56.000Z</time>
      </trkpt>
      <trkpt lat="44.10822" lon="6.97099">
        <ele>1731</ele>
        <time>2020-08-22T14:42:57.000Z</time>
      </trkpt>
      <trkpt lat="44.10819" lon="6.97096">
        <ele>1730.5999755859</ele>
        <time>2020-08-22T14:42:58.000Z</time>
      </trkpt>
      <trkpt lat="44.10816" lon="6.97094">
        <ele>1730.4000244141</ele>
        <time>2020-08-22T14:42:59.000Z</time>
      </trkpt>
      <trkpt lat="44.10808" lon="6.97087">
        <ele>1729.4000244141</ele>
        <time>2020-08-22T14:43:03.000Z</time>
      </trkpt>
      <trkpt lat="44.10802" lon="6.97074">
        <ele>1728.4000244141</ele>
        <time>2020-08-22T14:43:06.000Z</time>
      </trkpt>
      <trkpt lat="44.10797" lon="6.97068">
        <ele>1727.1999511719</ele>
        <time>2020-08-22T14:43:08.000Z</time>
      </trkpt>
      <trkpt lat="44.10795" lon="6.97068">
        <ele>1726.5999755859</ele>
        <time>2020-08-22T14:43:09.000Z</time>
      </trkpt>
      <trkpt lat="44.10794" lon="6.9707">
        <ele>1726.1999511719</ele>
        <time>2020-08-22T14:43:10.000Z</time>
      </trkpt>
      <trkpt lat="44.10793" lon="6.97077">
        <ele>1725.1999511719</ele>
        <time>2020-08-22T14:43:12.000Z</time>
      </trkpt>
      <trkpt lat="44.10792" lon="6.97082">
        <ele>1725</ele>
        <time>2020-08-22T14:43:13.000Z</time>
      </trkpt>
      <trkpt lat="44.10782" lon="6.97095">
        <ele>1724</ele>
        <time>2020-08-22T14:43:17.000Z</time>
      </trkpt>
      <trkpt lat="44.10763" lon="6.97098">
        <ele>1723.5999755859</ele>
        <time>2020-08-22T14:43:21.000Z</time>
      </trkpt>
      <trkpt lat="44.10757" lon="6.97098">
        <ele>1723.1999511719</ele>
        <time>2020-08-22T14:43:22.000Z</time>
      </trkpt>
      <trkpt lat="44.10746" lon="6.97097">
        <ele>1722.5999755859</ele>
        <time>2020-08-22T14:43:24.000Z</time>
      </trkpt>
      <trkpt lat="44.10736" lon="6.97092">
        <ele>1721.8000488281</ele>
        <time>2020-08-22T14:43:26.000Z</time>
      </trkpt>
      <trkpt lat="44.10732" lon="6.97088">
        <ele>1721.5999755859</ele>
        <time>2020-08-22T14:43:27.000Z</time>
      </trkpt>
      <trkpt lat="44.1072" lon="6.97087">
        <ele>1721.1999511719</ele>
        <time>2020-08-22T14:43:30.000Z</time>
      </trkpt>
      <trkpt lat="44.10712" lon="6.9709">
        <ele>1720.5999755859</ele>
        <time>2020-08-22T14:43:32.000Z</time>
      </trkpt>
      <trkpt lat="44.10701" lon="6.97089">
        <ele>1719.8000488281</ele>
        <time>2020-08-22T14:43:34.000Z</time>
      </trkpt>
      <trkpt lat="44.10691" lon="6.97088">
        <ele>1719.4000244141</ele>
        <time>2020-08-22T14:43:36.000Z</time>
      </trkpt>
      <trkpt lat="44.10686" lon="6.97089">
        <ele>1719</ele>
        <time>2020-08-22T14:43:37.000Z</time>
      </trkpt>
      <trkpt lat="44.10682" lon="6.97088">
        <ele>1719</ele>
        <time>2020-08-22T14:43:38.000Z</time>
      </trkpt>
      <trkpt lat="44.10677" lon="6.97089">
        <ele>1718.8000488281</ele>
        <time>2020-08-22T14:43:41.000Z</time>
      </trkpt>
      <trkpt lat="44.10672" lon="6.97103">
        <ele>1718.8000488281</ele>
        <time>2020-08-22T14:43:44.000Z</time>
      </trkpt>
      <trkpt lat="44.1066" lon="6.97108">
        <ele>1718.5999755859</ele>
        <time>2020-08-22T14:43:47.000Z</time>
      </trkpt>
      <trkpt lat="44.10655" lon="6.97111">
        <ele>1718.4000244141</ele>
        <time>2020-08-22T14:43:48.000Z</time>
      </trkpt>
      <trkpt lat="44.10651" lon="6.97113">
        <ele>1718</ele>
        <time>2020-08-22T14:43:49.000Z</time>
      </trkpt>
      <trkpt lat="44.10645" lon="6.97115">
        <ele>1717.5999755859</ele>
        <time>2020-08-22T14:43:50.000Z</time>
      </trkpt>
      <trkpt lat="44.1064" lon="6.97116">
        <ele>1717.1999511719</ele>
        <time>2020-08-22T14:43:51.000Z</time>
      </trkpt>
      <trkpt lat="44.10628" lon="6.97117">
        <ele>1716.5999755859</ele>
        <time>2020-08-22T14:43:53.000Z</time>
      </trkpt>
      <trkpt lat="44.1062" lon="6.97119">
        <ele>1716.5999755859</ele>
        <time>2020-08-22T14:43:54.000Z</time>
      </trkpt>
      <trkpt lat="44.10602" lon="6.97121">
        <ele>1715.4000244141</ele>
        <time>2020-08-22T14:43:57.000Z</time>
      </trkpt>
      <trkpt lat="44.10597" lon="6.97117">
        <ele>1715.1999511719</ele>
        <time>2020-08-22T14:43:58.000Z</time>
      </trkpt>
      <trkpt lat="44.10588" lon="6.9712">
        <ele>1714.4000244141</ele>
        <time>2020-08-22T14:44:01.000Z</time>
      </trkpt>
      <trkpt lat="44.10579" lon="6.97122">
        <ele>1714.1999511719</ele>
        <time>2020-08-22T14:44:03.000Z</time>
      </trkpt>
      <trkpt lat="44.10573" lon="6.97122">
        <ele>1714</ele>
        <time>2020-08-22T14:44:04.000Z</time>
      </trkpt>
      <trkpt lat="44.10568" lon="6.97121">
        <ele>1713.5999755859</ele>
        <time>2020-08-22T14:44:05.000Z</time>
      </trkpt>
      <trkpt lat="44.10555" lon="6.97121">
        <ele>1713.1999511719</ele>
        <time>2020-08-22T14:44:07.000Z</time>
      </trkpt>
      <trkpt lat="44.1055" lon="6.97119">
        <ele>1713</ele>
        <time>2020-08-22T14:44:08.000Z</time>
      </trkpt>
      <trkpt lat="44.1054" lon="6.97115">
        <ele>1712.1999511719</ele>
        <time>2020-08-22T14:44:10.000Z</time>
      </trkpt>
      <trkpt lat="44.10536" lon="6.97114">
        <ele>1711.8000488281</ele>
        <time>2020-08-22T14:44:11.000Z</time>
      </trkpt>
      <trkpt lat="44.10529" lon="6.97112">
        <ele>1711.5999755859</ele>
        <time>2020-08-22T14:44:12.000Z</time>
      </trkpt>
      <trkpt lat="44.10516" lon="6.97107">
        <ele>1710.8000488281</ele>
        <time>2020-08-22T14:44:14.000Z</time>
      </trkpt>
      <trkpt lat="44.1051" lon="6.97106">
        <ele>1710.5999755859</ele>
        <time>2020-08-22T14:44:15.000Z</time>
      </trkpt>
      <trkpt lat="44.10504" lon="6.97106">
        <ele>1710.1999511719</ele>
        <time>2020-08-22T14:44:16.000Z</time>
      </trkpt>
      <trkpt lat="44.10498" lon="6.97103">
        <ele>1709.4000244141</ele>
        <time>2020-08-22T14:44:17.000Z</time>
      </trkpt>
      <trkpt lat="44.10487" lon="6.97099">
        <ele>1708.5999755859</ele>
        <time>2020-08-22T14:44:19.000Z</time>
      </trkpt>
      <trkpt lat="44.10483" lon="6.97096">
        <ele>1708</ele>
        <time>2020-08-22T14:44:20.000Z</time>
      </trkpt>
      <trkpt lat="44.10475" lon="6.97087">
        <ele>1708</ele>
        <time>2020-08-22T14:44:22.000Z</time>
      </trkpt>
      <trkpt lat="44.10469" lon="6.9709">
        <ele>1708</ele>
        <time>2020-08-22T14:44:24.000Z</time>
      </trkpt>
      <trkpt lat="44.1046" lon="6.97099">
        <ele>1707.5999755859</ele>
        <time>2020-08-22T14:44:27.000Z</time>
      </trkpt>
      <trkpt lat="44.10451" lon="6.97093">
        <ele>1707.1999511719</ele>
        <time>2020-08-22T14:44:29.000Z</time>
      </trkpt>
      <trkpt lat="44.10445" lon="6.97089">
        <ele>1707</ele>
        <time>2020-08-22T14:44:30.000Z</time>
      </trkpt>
      <trkpt lat="44.10429" lon="6.97086">
        <ele>1706.4000244141</ele>
        <time>2020-08-22T14:44:33.000Z</time>
      </trkpt>
      <trkpt lat="44.10421" lon="6.97094">
        <ele>1705.8000488281</ele>
        <time>2020-08-22T14:44:35.000Z</time>
      </trkpt>
      <trkpt lat="44.10416" lon="6.97096">
        <ele>1705.4000244141</ele>
        <time>2020-08-22T14:44:36.000Z</time>
      </trkpt>
      <trkpt lat="44.10399" lon="6.97097">
        <ele>1704.4000244141</ele>
        <time>2020-08-22T14:44:39.000Z</time>
      </trkpt>
      <trkpt lat="44.10392" lon="6.9709">
        <ele>1703.4000244141</ele>
        <time>2020-08-22T14:44:41.000Z</time>
      </trkpt>
      <trkpt lat="44.10388" lon="6.97087">
        <ele>1703</ele>
        <time>2020-08-22T14:44:42.000Z</time>
      </trkpt>
      <trkpt lat="44.1038" lon="6.97082">
        <ele>1702.5999755859</ele>
        <time>2020-08-22T14:44:44.000Z</time>
      </trkpt>
      <trkpt lat="44.10374" lon="6.97071">
        <ele>1701.8000488281</ele>
        <time>2020-08-22T14:44:46.000Z</time>
      </trkpt>
      <trkpt lat="44.10368" lon="6.97062">
        <ele>1699.8000488281</ele>
        <time>2020-08-22T14:44:48.000Z</time>
      </trkpt>
      <trkpt lat="44.10364" lon="6.97058">
        <ele>1698.5999755859</ele>
        <time>2020-08-22T14:44:49.000Z</time>
      </trkpt>
      <trkpt lat="44.10361" lon="6.97052">
        <ele>1697.5999755859</ele>
        <time>2020-08-22T14:44:50.000Z</time>
      </trkpt>
      <trkpt lat="44.10357" lon="6.97046">
        <ele>1696.8000488281</ele>
        <time>2020-08-22T14:44:51.000Z</time>
      </trkpt>
      <trkpt lat="44.10354" lon="6.97039">
        <ele>1696.1999511719</ele>
        <time>2020-08-22T14:44:52.000Z</time>
      </trkpt>
      <trkpt lat="44.10351" lon="6.97033">
        <ele>1695.1999511719</ele>
        <time>2020-08-22T14:44:53.000Z</time>
      </trkpt>
      <trkpt lat="44.10349" lon="6.97027">
        <ele>1694.8000488281</ele>
        <time>2020-08-22T14:44:54.000Z</time>
      </trkpt>
      <trkpt lat="44.10348" lon="6.97023">
        <ele>1694</ele>
        <time>2020-08-22T14:44:55.000Z</time>
      </trkpt>
      <trkpt lat="44.10345" lon="6.97014">
        <ele>1692.4000244141</ele>
        <time>2020-08-22T14:44:57.000Z</time>
      </trkpt>
      <trkpt lat="44.1034" lon="6.97009">
        <ele>1690.5999755859</ele>
        <time>2020-08-22T14:44:59.000Z</time>
      </trkpt>
      <trkpt lat="44.10336" lon="6.97013">
        <ele>1689.4000244141</ele>
        <time>2020-08-22T14:45:01.000Z</time>
      </trkpt>
      <trkpt lat="44.10334" lon="6.97016">
        <ele>1688.5999755859</ele>
        <time>2020-08-22T14:45:02.000Z</time>
      </trkpt>
      <trkpt lat="44.10333" lon="6.97018">
        <ele>1687.8000488281</ele>
        <time>2020-08-22T14:45:03.000Z</time>
      </trkpt>
      <trkpt lat="44.10333" lon="6.97018">
        <ele>1686.5999755859</ele>
        <time>2020-08-22T14:45:05.000Z</time>
      </trkpt>
      <trkpt lat="44.10333" lon="6.97019">
        <ele>1686.4000244141</ele>
        <time>2020-08-22T14:45:06.000Z</time>
      </trkpt>
      <trkpt lat="44.10333" lon="6.9702">
        <ele>1686</ele>
        <time>2020-08-22T14:45:25.000Z</time>
      </trkpt>
      <trkpt lat="44.10333" lon="6.97031">
        <ele>1686.4000244141</ele>
        <time>2020-08-22T14:45:39.000Z</time>
      </trkpt>
      <trkpt lat="44.10332" lon="6.97052">
        <ele>1686.1999511719</ele>
        <time>2020-08-22T14:45:43.000Z</time>
      </trkpt>
      <trkpt lat="44.10328" lon="6.97061">
        <ele>1685.1999511719</ele>
        <time>2020-08-22T14:45:45.000Z</time>
      </trkpt>
      <trkpt lat="44.10325" lon="6.97067">
        <ele>1684.5999755859</ele>
        <time>2020-08-22T14:45:47.000Z</time>
      </trkpt>
      <trkpt lat="44.10322" lon="6.97072">
        <ele>1684.1999511719</ele>
        <time>2020-08-22T14:45:48.000Z</time>
      </trkpt>
      <trkpt lat="44.10316" lon="6.97079">
        <ele>1683.4000244141</ele>
        <time>2020-08-22T14:45:50.000Z</time>
      </trkpt>
      <trkpt lat="44.10314" lon="6.97081">
        <ele>1682.8000488281</ele>
        <time>2020-08-22T14:45:51.000Z</time>
      </trkpt>
      <trkpt lat="44.10311" lon="6.97086">
        <ele>1683</ele>
        <time>2020-08-22T14:45:53.000Z</time>
      </trkpt>
      <trkpt lat="44.10309" lon="6.97091">
        <ele>1683.1999511719</ele>
        <time>2020-08-22T14:45:54.000Z</time>
      </trkpt>
      <trkpt lat="44.103" lon="6.97108">
        <ele>1683.5999755859</ele>
        <time>2020-08-22T14:45:58.000Z</time>
      </trkpt>
      <trkpt lat="44.10299" lon="6.97111">
        <ele>1683.4000244141</ele>
        <time>2020-08-22T14:45:59.000Z</time>
      </trkpt>
      <trkpt lat="44.10296" lon="6.97122">
        <ele>1683.4000244141</ele>
        <time>2020-08-22T14:46:01.000Z</time>
      </trkpt>
      <trkpt lat="44.10292" lon="6.97133">
        <ele>1683</ele>
        <time>2020-08-22T14:46:04.000Z</time>
      </trkpt>
      <trkpt lat="44.10289" lon="6.97145">
        <ele>1683</ele>
        <time>2020-08-22T14:46:07.000Z</time>
      </trkpt>
      <trkpt lat="44.10285" lon="6.97159">
        <ele>1682.5999755859</ele>
        <time>2020-08-22T14:46:10.000Z</time>
      </trkpt>
      <trkpt lat="44.10279" lon="6.97175">
        <ele>1681.8000488281</ele>
        <time>2020-08-22T14:46:14.000Z</time>
      </trkpt>
      <trkpt lat="44.10279" lon="6.97178">
        <ele>1681.5999755859</ele>
        <time>2020-08-22T14:46:15.000Z</time>
      </trkpt>
      <trkpt lat="44.10275" lon="6.97192">
        <ele>1681.1999511719</ele>
        <time>2020-08-22T14:46:18.000Z</time>
      </trkpt>
      <trkpt lat="44.1027" lon="6.97212">
        <ele>1680.8000488281</ele>
        <time>2020-08-22T14:46:22.000Z</time>
      </trkpt>
      <trkpt lat="44.10268" lon="6.97217">
        <ele>1681</ele>
        <time>2020-08-22T14:46:23.000Z</time>
      </trkpt>
      <trkpt lat="44.10263" lon="6.97232">
        <ele>1680.8000488281</ele>
        <time>2020-08-22T14:46:26.000Z</time>
      </trkpt>
      <trkpt lat="44.10261" lon="6.97242">
        <ele>1680.5999755859</ele>
        <time>2020-08-22T14:46:28.000Z</time>
      </trkpt>
      <trkpt lat="44.10258" lon="6.97253">
        <ele>1681.1999511719</ele>
        <time>2020-08-22T14:46:31.000Z</time>
      </trkpt>
      <trkpt lat="44.10252" lon="6.97274">
        <ele>1681.1999511719</ele>
        <time>2020-08-22T14:46:35.000Z</time>
      </trkpt>
      <trkpt lat="44.10244" lon="6.97294">
        <ele>1680.5999755859</ele>
        <time>2020-08-22T14:46:39.000Z</time>
      </trkpt>
      <trkpt lat="44.10243" lon="6.97298">
        <ele>1680.4000244141</ele>
        <time>2020-08-22T14:46:40.000Z</time>
      </trkpt>
      <trkpt lat="44.10235" lon="6.97318">
        <ele>1680</ele>
        <time>2020-08-22T14:46:44.000Z</time>
      </trkpt>
      <trkpt lat="44.10226" lon="6.97338">
        <ele>1679</ele>
        <time>2020-08-22T14:46:48.000Z</time>
      </trkpt>
      <trkpt lat="44.10223" lon="6.97342">
        <ele>1679</ele>
        <time>2020-08-22T14:46:49.000Z</time>
      </trkpt>
      <trkpt lat="44.10219" lon="6.97346">
        <ele>1679.1999511719</ele>
        <time>2020-08-22T14:46:50.000Z</time>
      </trkpt>
      <trkpt lat="44.1021" lon="6.97357">
        <ele>1679</ele>
        <time>2020-08-22T14:46:53.000Z</time>
      </trkpt>
      <trkpt lat="44.10196" lon="6.97377">
        <ele>1678.5999755859</ele>
        <time>2020-08-22T14:46:58.000Z</time>
      </trkpt>
      <trkpt lat="44.10181" lon="6.97399">
        <ele>1678.4000244141</ele>
        <time>2020-08-22T14:47:03.000Z</time>
      </trkpt>
      <trkpt lat="44.10177" lon="6.97407">
        <ele>1677.8000488281</ele>
        <time>2020-08-22T14:47:05.000Z</time>
      </trkpt>
      <trkpt lat="44.10169" lon="6.9742">
        <ele>1678.4000244141</ele>
        <time>2020-08-22T14:47:08.000Z</time>
      </trkpt>
      <trkpt lat="44.10159" lon="6.97425">
        <ele>1678.4000244141</ele>
        <time>2020-08-22T14:47:11.000Z</time>
      </trkpt>
      <trkpt lat="44.10152" lon="6.9742">
        <ele>1678.1999511719</ele>
        <time>2020-08-22T14:47:15.000Z</time>
      </trkpt>
      <trkpt lat="44.10146" lon="6.97401">
        <ele>1677.1999511719</ele>
        <time>2020-08-22T14:47:18.000Z</time>
      </trkpt>
      <trkpt lat="44.10144" lon="6.97394">
        <ele>1676</ele>
        <time>2020-08-22T14:47:19.000Z</time>
      </trkpt>
      <trkpt lat="44.10141" lon="6.97386">
        <ele>1674.8000488281</ele>
        <time>2020-08-22T14:47:20.000Z</time>
      </trkpt>
      <trkpt lat="44.10136" lon="6.97373">
        <ele>1673</ele>
        <time>2020-08-22T14:47:22.000Z</time>
      </trkpt>
      <trkpt lat="44.10134" lon="6.97369">
        <ele>1672.8000488281</ele>
        <time>2020-08-22T14:47:23.000Z</time>
      </trkpt>
      <trkpt lat="44.10126" lon="6.97357">
        <ele>1671.4000244141</ele>
        <time>2020-08-22T14:47:26.000Z</time>
      </trkpt>
      <trkpt lat="44.10123" lon="6.97351">
        <ele>1670.5999755859</ele>
        <time>2020-08-22T14:47:27.000Z</time>
      </trkpt>
      <trkpt lat="44.1012" lon="6.97347">
        <ele>1669.1999511719</ele>
        <time>2020-08-22T14:47:28.000Z</time>
      </trkpt>
      <trkpt lat="44.10116" lon="6.97339">
        <ele>1667.8000488281</ele>
        <time>2020-08-22T14:47:30.000Z</time>
      </trkpt>
      <trkpt lat="44.10114" lon="6.97334">
        <ele>1667.5999755859</ele>
        <time>2020-08-22T14:47:31.000Z</time>
      </trkpt>
      <trkpt lat="44.10111" lon="6.97329">
        <ele>1667.8000488281</ele>
        <time>2020-08-22T14:47:32.000Z</time>
      </trkpt>
      <trkpt lat="44.10105" lon="6.9732">
        <ele>1667.5999755859</ele>
        <time>2020-08-22T14:47:34.000Z</time>
      </trkpt>
      <trkpt lat="44.10101" lon="6.97322">
        <ele>1667</ele>
        <time>2020-08-22T14:47:36.000Z</time>
      </trkpt>
      <trkpt lat="44.10101" lon="6.97326">
        <ele>1666.5999755859</ele>
        <time>2020-08-22T14:47:37.000Z</time>
      </trkpt>
      <trkpt lat="44.10102" lon="6.97341">
        <ele>1665.8000488281</ele>
        <time>2020-08-22T14:47:39.000Z</time>
      </trkpt>
      <trkpt lat="44.10103" lon="6.97349">
        <ele>1665.1999511719</ele>
        <time>2020-08-22T14:47:40.000Z</time>
      </trkpt>
      <trkpt lat="44.10103" lon="6.97358">
        <ele>1664.8000488281</ele>
        <time>2020-08-22T14:47:41.000Z</time>
      </trkpt>
      <trkpt lat="44.10102" lon="6.97369">
        <ele>1664</ele>
        <time>2020-08-22T14:47:42.000Z</time>
      </trkpt>
      <trkpt lat="44.10101" lon="6.97379">
        <ele>1663.4000244141</ele>
        <time>2020-08-22T14:47:43.000Z</time>
      </trkpt>
      <trkpt lat="44.10099" lon="6.9739">
        <ele>1662.8000488281</ele>
        <time>2020-08-22T14:47:44.000Z</time>
      </trkpt>
      <trkpt lat="44.10094" lon="6.97412">
        <ele>1661.1999511719</ele>
        <time>2020-08-22T14:47:46.000Z</time>
      </trkpt>
      <trkpt lat="44.10088" lon="6.97436">
        <ele>1659.5999755859</ele>
        <time>2020-08-22T14:47:48.000Z</time>
      </trkpt>
      <trkpt lat="44.10081" lon="6.97472">
        <ele>1657.8000488281</ele>
        <time>2020-08-22T14:47:51.000Z</time>
      </trkpt>
      <trkpt lat="44.10076" lon="6.97497">
        <ele>1656.1999511719</ele>
        <time>2020-08-22T14:47:53.000Z</time>
      </trkpt>
      <trkpt lat="44.10073" lon="6.97511">
        <ele>1654.8000488281</ele>
        <time>2020-08-22T14:47:54.000Z</time>
      </trkpt>
      <trkpt lat="44.10072" lon="6.97522">
        <ele>1652.8000488281</ele>
        <time>2020-08-22T14:47:55.000Z</time>
      </trkpt>
      <trkpt lat="44.10071" lon="6.97534">
        <ele>1651.5999755859</ele>
        <time>2020-08-22T14:47:56.000Z</time>
      </trkpt>
      <trkpt lat="44.1007" lon="6.97549">
        <ele>1651.4000244141</ele>
        <time>2020-08-22T14:47:57.000Z</time>
      </trkpt>
      <trkpt lat="44.10069" lon="6.97562">
        <ele>1650.1999511719</ele>
        <time>2020-08-22T14:47:58.000Z</time>
      </trkpt>
      <trkpt lat="44.10066" lon="6.97584">
        <ele>1649.5999755859</ele>
        <time>2020-08-22T14:48:00.000Z</time>
      </trkpt>
      <trkpt lat="44.10063" lon="6.97595">
        <ele>1648.1999511719</ele>
        <time>2020-08-22T14:48:01.000Z</time>
      </trkpt>
      <trkpt lat="44.10052" lon="6.97628">
        <ele>1647.1999511719</ele>
        <time>2020-08-22T14:48:04.000Z</time>
      </trkpt>
      <trkpt lat="44.10046" lon="6.97653">
        <ele>1646</ele>
        <time>2020-08-22T14:48:06.000Z</time>
      </trkpt>
      <trkpt lat="44.10039" lon="6.97675">
        <ele>1643</ele>
        <time>2020-08-22T14:48:08.000Z</time>
      </trkpt>
      <trkpt lat="44.10035" lon="6.97686">
        <ele>1640.1999511719</ele>
        <time>2020-08-22T14:48:09.000Z</time>
      </trkpt>
      <trkpt lat="44.10031" lon="6.97697">
        <ele>1638</ele>
        <time>2020-08-22T14:48:10.000Z</time>
      </trkpt>
      <trkpt lat="44.10027" lon="6.97706">
        <ele>1636.5999755859</ele>
        <time>2020-08-22T14:48:11.000Z</time>
      </trkpt>
      <trkpt lat="44.10023" lon="6.97716">
        <ele>1634.8000488281</ele>
        <time>2020-08-22T14:48:12.000Z</time>
      </trkpt>
      <trkpt lat="44.10018" lon="6.97722">
        <ele>1633.4000244141</ele>
        <time>2020-08-22T14:48:13.000Z</time>
      </trkpt>
      <trkpt lat="44.10015" lon="6.97727">
        <ele>1632.4000244141</ele>
        <time>2020-08-22T14:48:14.000Z</time>
      </trkpt>
      <trkpt lat="44.10013" lon="6.9773">
        <ele>1631.8000488281</ele>
        <time>2020-08-22T14:48:15.000Z</time>
      </trkpt>
      <trkpt lat="44.10011" lon="6.97732">
        <ele>1630.4000244141</ele>
        <time>2020-08-22T14:48:16.000Z</time>
      </trkpt>
      <trkpt lat="44.10011" lon="6.97733">
        <ele>1629.5999755859</ele>
        <time>2020-08-22T14:48:17.000Z</time>
      </trkpt>
      <trkpt lat="44.10011" lon="6.97732">
        <ele>1629.4000244141</ele>
        <time>2020-08-22T14:48:19.000Z</time>
      </trkpt>
      <trkpt lat="44.10011" lon="6.97732">
        <ele>1629.1999511719</ele>
        <time>2020-08-22T14:48:25.000Z</time>
      </trkpt>
      <trkpt lat="44.10011" lon="6.97731">
        <ele>1629.5999755859</ele>
        <time>2020-08-22T14:48:56.000Z</time>
      </trkpt>
      <trkpt lat="44.10007" lon="6.97732">
        <ele>1629.5999755859</ele>
        <time>2020-08-22T14:49:11.000Z</time>
      </trkpt>
      <trkpt lat="44.09991" lon="6.97736">
        <ele>1629.1999511719</ele>
        <time>2020-08-22T14:49:16.000Z</time>
      </trkpt>
      <trkpt lat="44.09982" lon="6.97737">
        <ele>1628.5999755859</ele>
        <time>2020-08-22T14:49:18.000Z</time>
      </trkpt>
      <trkpt lat="44.09977" lon="6.97739">
        <ele>1628.1999511719</ele>
        <time>2020-08-22T14:49:19.000Z</time>
      </trkpt>
      <trkpt lat="44.09972" lon="6.97741">
        <ele>1627.8000488281</ele>
        <time>2020-08-22T14:49:20.000Z</time>
      </trkpt>
      <trkpt lat="44.09966" lon="6.97743">
        <ele>1627.1999511719</ele>
        <time>2020-08-22T14:49:21.000Z</time>
      </trkpt>
      <trkpt lat="44.09949" lon="6.97748">
        <ele>1625.5999755859</ele>
        <time>2020-08-22T14:49:24.000Z</time>
      </trkpt>
      <trkpt lat="44.09945" lon="6.97748">
        <ele>1625</ele>
        <time>2020-08-22T14:49:25.000Z</time>
      </trkpt>
      <trkpt lat="44.09941" lon="6.97748">
        <ele>1624.5999755859</ele>
        <time>2020-08-22T14:49:26.000Z</time>
      </trkpt>
      <trkpt lat="44.09927" lon="6.97747">
        <ele>1624</ele>
        <time>2020-08-22T14:49:30.000Z</time>
      </trkpt>
      <trkpt lat="44.09905" lon="6.97749">
        <ele>1623.5999755859</ele>
        <time>2020-08-22T14:49:37.000Z</time>
      </trkpt>
      <trkpt lat="44.09903" lon="6.97749">
        <ele>1623.4000244141</ele>
        <time>2020-08-22T14:49:38.000Z</time>
      </trkpt>
      <trkpt lat="44.09882" lon="6.9775">
        <ele>1623.4000244141</ele>
        <time>2020-08-22T14:49:45.000Z</time>
      </trkpt>
      <trkpt lat="44.09863" lon="6.97754">
        <ele>1622.4000244141</ele>
        <time>2020-08-22T14:49:51.000Z</time>
      </trkpt>
      <trkpt lat="44.09856" lon="6.97755">
        <ele>1622</ele>
        <time>2020-08-22T14:49:53.000Z</time>
      </trkpt>
      <trkpt lat="44.09844" lon="6.97756">
        <ele>1621.4000244141</ele>
        <time>2020-08-22T14:49:56.000Z</time>
      </trkpt>
      <trkpt lat="44.09833" lon="6.97752">
        <ele>1620.5999755859</ele>
        <time>2020-08-22T14:49:59.000Z</time>
      </trkpt>
      <trkpt lat="44.09829" lon="6.97748">
        <ele>1620.4000244141</ele>
        <time>2020-08-22T14:50:00.000Z</time>
      </trkpt>
      <trkpt lat="44.09814" lon="6.97736">
        <ele>1620.4000244141</ele>
        <time>2020-08-22T14:50:04.000Z</time>
      </trkpt>
      <trkpt lat="44.0979" lon="6.9772">
        <ele>1619.5999755859</ele>
        <time>2020-08-22T14:50:09.000Z</time>
      </trkpt>
      <trkpt lat="44.09785" lon="6.97717">
        <ele>1619.4000244141</ele>
        <time>2020-08-22T14:50:10.000Z</time>
      </trkpt>
      <trkpt lat="44.09771" lon="6.97708">
        <ele>1617.8000488281</ele>
        <time>2020-08-22T14:50:13.000Z</time>
      </trkpt>
      <trkpt lat="44.09762" lon="6.97702">
        <ele>1617.5999755859</ele>
        <time>2020-08-22T14:50:15.000Z</time>
      </trkpt>
      <trkpt lat="44.09743" lon="6.97685">
        <ele>1618.8000488281</ele>
        <time>2020-08-22T14:50:20.000Z</time>
      </trkpt>
      <trkpt lat="44.09734" lon="6.97677">
        <ele>1619.8000488281</ele>
        <time>2020-08-22T14:50:23.000Z</time>
      </trkpt>
      <trkpt lat="44.09722" lon="6.97669">
        <ele>1620.8000488281</ele>
        <time>2020-08-22T14:50:27.000Z</time>
      </trkpt>
      <trkpt lat="44.09719" lon="6.97666">
        <ele>1620.8000488281</ele>
        <time>2020-08-22T14:50:28.000Z</time>
      </trkpt>
      <trkpt lat="44.0971" lon="6.97658">
        <ele>1622.1999511719</ele>
        <time>2020-08-22T14:50:32.000Z</time>
      </trkpt>
      <trkpt lat="44.09707" lon="6.97656">
        <ele>1622.4000244141</ele>
        <time>2020-08-22T14:50:33.000Z</time>
      </trkpt>
      <trkpt lat="44.09693" lon="6.97646">
        <ele>1622.5999755859</ele>
        <time>2020-08-22T14:50:38.000Z</time>
      </trkpt>
      <trkpt lat="44.09681" lon="6.97636">
        <ele>1622.1999511719</ele>
        <time>2020-08-22T14:50:42.000Z</time>
      </trkpt>
      <trkpt lat="44.09678" lon="6.97632">
        <ele>1622</ele>
        <time>2020-08-22T14:50:45.000Z</time>
      </trkpt>
      <trkpt lat="44.09677" lon="6.97631">
        <ele>1621.4000244141</ele>
        <time>2020-08-22T14:50:48.000Z</time>
      </trkpt>
      <trkpt lat="44.09674" lon="6.97628">
        <ele>1621.1999511719</ele>
        <time>2020-08-22T14:50:50.000Z</time>
      </trkpt>
      <trkpt lat="44.09672" lon="6.97624">
        <ele>1621</ele>
        <time>2020-08-22T14:50:52.000Z</time>
      </trkpt>
      <trkpt lat="44.0967" lon="6.9762">
        <ele>1621</ele>
        <time>2020-08-22T14:50:55.000Z</time>
      </trkpt>
      <trkpt lat="44.0967" lon="6.9762">
        <ele>1621.1999511719</ele>
        <time>2020-08-22T14:51:00.000Z</time>
      </trkpt>
      <trkpt lat="44.0967" lon="6.9762">
        <ele>1621</ele>
        <time>2020-08-22T14:51:18.000Z</time>
      </trkpt>
      <trkpt lat="44.09669" lon="6.97619">
        <ele>1621.1999511719</ele>
        <time>2020-08-22T14:51:20.000Z</time>
      </trkpt>
      <trkpt lat="44.09665" lon="6.97613">
        <ele>1621.1999511719</ele>
        <time>2020-08-22T14:51:23.000Z</time>
      </trkpt>
      <trkpt lat="44.09657" lon="6.97596">
        <ele>1621.1999511719</ele>
        <time>2020-08-22T14:51:28.000Z</time>
      </trkpt>
      <trkpt lat="44.09653" lon="6.97576">
        <ele>1620.4000244141</ele>
        <time>2020-08-22T14:51:33.000Z</time>
      </trkpt>
      <trkpt lat="44.09652" lon="6.97555">
        <ele>1622</ele>
        <time>2020-08-22T14:51:39.000Z</time>
      </trkpt>
      <trkpt lat="44.09651" lon="6.97551">
        <ele>1622.1999511719</ele>
        <time>2020-08-22T14:51:40.000Z</time>
      </trkpt>
      <trkpt lat="44.09648" lon="6.97534">
        <ele>1623.1999511719</ele>
        <time>2020-08-22T14:51:44.000Z</time>
      </trkpt>
      <trkpt lat="44.09649" lon="6.97527">
        <ele>1623.4000244141</ele>
        <time>2020-08-22T14:51:46.000Z</time>
      </trkpt>
      <trkpt lat="44.09649" lon="6.97508">
        <ele>1624.1999511719</ele>
        <time>2020-08-22T14:51:51.000Z</time>
      </trkpt>
      <trkpt lat="44.0965" lon="6.97487">
        <ele>1624.1999511719</ele>
        <time>2020-08-22T14:51:56.000Z</time>
      </trkpt>
      <trkpt lat="44.09646" lon="6.97466">
        <ele>1624.5999755859</ele>
        <time>2020-08-22T14:52:01.000Z</time>
      </trkpt>
      <trkpt lat="44.09644" lon="6.97437">
        <ele>1623.8000488281</ele>
        <time>2020-08-22T14:52:08.000Z</time>
      </trkpt>
      <trkpt lat="44.09646" lon="6.97417">
        <ele>1624</ele>
        <time>2020-08-22T14:52:12.000Z</time>
      </trkpt>
      <trkpt lat="44.09646" lon="6.97394">
        <ele>1624</ele>
        <time>2020-08-22T14:52:17.000Z</time>
      </trkpt>
      <trkpt lat="44.09641" lon="6.97374">
        <ele>1624</ele>
        <time>2020-08-22T14:52:22.000Z</time>
      </trkpt>
      <trkpt lat="44.09636" lon="6.97369">
        <ele>1623.4000244141</ele>
        <time>2020-08-22T14:52:24.000Z</time>
      </trkpt>
      <trkpt lat="44.09632" lon="6.97366">
        <ele>1622.4000244141</ele>
        <time>2020-08-22T14:52:25.000Z</time>
      </trkpt>
      <trkpt lat="44.09628" lon="6.97363">
        <ele>1621.8000488281</ele>
        <time>2020-08-22T14:52:26.000Z</time>
      </trkpt>
      <trkpt lat="44.09624" lon="6.97359">
        <ele>1621</ele>
        <time>2020-08-22T14:52:27.000Z</time>
      </trkpt>
      <trkpt lat="44.09619" lon="6.97354">
        <ele>1619.8000488281</ele>
        <time>2020-08-22T14:52:28.000Z</time>
      </trkpt>
      <trkpt lat="44.09611" lon="6.97342">
        <ele>1618.4000244141</ele>
        <time>2020-08-22T14:52:30.000Z</time>
      </trkpt>
      <trkpt lat="44.09607" lon="6.97337">
        <ele>1617.1999511719</ele>
        <time>2020-08-22T14:52:31.000Z</time>
      </trkpt>
      <trkpt lat="44.09604" lon="6.97331">
        <ele>1616.5999755859</ele>
        <time>2020-08-22T14:52:32.000Z</time>
      </trkpt>
      <trkpt lat="44.09602" lon="6.97327">
        <ele>1616.1999511719</ele>
        <time>2020-08-22T14:52:33.000Z</time>
      </trkpt>
      <trkpt lat="44.09599" lon="6.97323">
        <ele>1616.1999511719</ele>
        <time>2020-08-22T14:52:34.000Z</time>
      </trkpt>
      <trkpt lat="44.0959" lon="6.97304">
        <ele>1615.4000244141</ele>
        <time>2020-08-22T14:52:38.000Z</time>
      </trkpt>
      <trkpt lat="44.09587" lon="6.973">
        <ele>1614.1999511719</ele>
        <time>2020-08-22T14:52:39.000Z</time>
      </trkpt>
      <trkpt lat="44.09584" lon="6.97296">
        <ele>1613.8000488281</ele>
        <time>2020-08-22T14:52:40.000Z</time>
      </trkpt>
      <trkpt lat="44.09583" lon="6.97291">
        <ele>1613</ele>
        <time>2020-08-22T14:52:41.000Z</time>
      </trkpt>
      <trkpt lat="44.09581" lon="6.97285">
        <ele>1611.8000488281</ele>
        <time>2020-08-22T14:52:42.000Z</time>
      </trkpt>
      <trkpt lat="44.09577" lon="6.97266">
        <ele>1609.5999755859</ele>
        <time>2020-08-22T14:52:45.000Z</time>
      </trkpt>
      <trkpt lat="44.09575" lon="6.9726">
        <ele>1609.1999511719</ele>
        <time>2020-08-22T14:52:46.000Z</time>
      </trkpt>
      <trkpt lat="44.09571" lon="6.97246">
        <ele>1608.8000488281</ele>
        <time>2020-08-22T14:52:48.000Z</time>
      </trkpt>
      <trkpt lat="44.0957" lon="6.97239">
        <ele>1608.1999511719</ele>
        <time>2020-08-22T14:52:49.000Z</time>
      </trkpt>
      <trkpt lat="44.09564" lon="6.97216">
        <ele>1607.4000244141</ele>
        <time>2020-08-22T14:52:52.000Z</time>
      </trkpt>
      <trkpt lat="44.09563" lon="6.9721">
        <ele>1606.1999511719</ele>
        <time>2020-08-22T14:52:53.000Z</time>
      </trkpt>
      <trkpt lat="44.0956" lon="6.97191">
        <ele>1605</ele>
        <time>2020-08-22T14:52:56.000Z</time>
      </trkpt>
      <trkpt lat="44.09559" lon="6.97184">
        <ele>1604.4000244141</ele>
        <time>2020-08-22T14:52:57.000Z</time>
      </trkpt>
      <trkpt lat="44.09558" lon="6.97178">
        <ele>1603.8000488281</ele>
        <time>2020-08-22T14:52:58.000Z</time>
      </trkpt>
      <trkpt lat="44.09557" lon="6.97167">
        <ele>1602.4000244141</ele>
        <time>2020-08-22T14:53:00.000Z</time>
      </trkpt>
      <trkpt lat="44.09556" lon="6.97163">
        <ele>1601.5999755859</ele>
        <time>2020-08-22T14:53:01.000Z</time>
      </trkpt>
      <trkpt lat="44.09556" lon="6.9716">
        <ele>1600.5999755859</ele>
        <time>2020-08-22T14:53:02.000Z</time>
      </trkpt>
      <trkpt lat="44.09555" lon="6.97159">
        <ele>1599.5999755859</ele>
        <time>2020-08-22T14:53:03.000Z</time>
      </trkpt>
      <trkpt lat="44.09554" lon="6.9716">
        <ele>1599</ele>
        <time>2020-08-22T14:53:04.000Z</time>
      </trkpt>
      <trkpt lat="44.09553" lon="6.97163">
        <ele>1598.4000244141</ele>
        <time>2020-08-22T14:53:05.000Z</time>
      </trkpt>
      <trkpt lat="44.0955" lon="6.97173">
        <ele>1597.5999755859</ele>
        <time>2020-08-22T14:53:07.000Z</time>
      </trkpt>
      <trkpt lat="44.09549" lon="6.97179">
        <ele>1597.1999511719</ele>
        <time>2020-08-22T14:53:08.000Z</time>
      </trkpt>
      <trkpt lat="44.09546" lon="6.97198">
        <ele>1596</ele>
        <time>2020-08-22T14:53:12.000Z</time>
      </trkpt>
      <trkpt lat="44.09545" lon="6.972">
        <ele>1594.8000488281</ele>
        <time>2020-08-22T14:53:13.000Z</time>
      </trkpt>
      <trkpt lat="44.09543" lon="6.97197">
        <ele>1593.1999511719</ele>
        <time>2020-08-22T14:53:15.000Z</time>
      </trkpt>
      <trkpt lat="44.09541" lon="6.9719">
        <ele>1592</ele>
        <time>2020-08-22T14:53:17.000Z</time>
      </trkpt>
      <trkpt lat="44.09539" lon="6.97182">
        <ele>1591.8000488281</ele>
        <time>2020-08-22T14:53:19.000Z</time>
      </trkpt>
      <trkpt lat="44.09537" lon="6.97181">
        <ele>1591.1999511719</ele>
        <time>2020-08-22T14:53:21.000Z</time>
      </trkpt>
      <trkpt lat="44.09536" lon="6.97184">
        <ele>1590.5999755859</ele>
        <time>2020-08-22T14:53:22.000Z</time>
      </trkpt>
      <trkpt lat="44.09535" lon="6.97194">
        <ele>1589.5999755859</ele>
        <time>2020-08-22T14:53:24.000Z</time>
      </trkpt>
      <trkpt lat="44.09535" lon="6.97199">
        <ele>1589.1999511719</ele>
        <time>2020-08-22T14:53:25.000Z</time>
      </trkpt>
      <trkpt lat="44.09533" lon="6.97202">
        <ele>1588.4000244141</ele>
        <time>2020-08-22T14:53:26.000Z</time>
      </trkpt>
      <trkpt lat="44.09531" lon="6.97199">
        <ele>1587.8000488281</ele>
        <time>2020-08-22T14:53:28.000Z</time>
      </trkpt>
      <trkpt lat="44.09529" lon="6.97195">
        <ele>1587.1999511719</ele>
        <time>2020-08-22T14:53:29.000Z</time>
      </trkpt>
      <trkpt lat="44.09526" lon="6.97185">
        <ele>1585.4000244141</ele>
        <time>2020-08-22T14:53:31.000Z</time>
      </trkpt>
      <trkpt lat="44.09524" lon="6.97183">
        <ele>1583.8000488281</ele>
        <time>2020-08-22T14:53:33.000Z</time>
      </trkpt>
      <trkpt lat="44.09524" lon="6.97186">
        <ele>1583.4000244141</ele>
        <time>2020-08-22T14:53:34.000Z</time>
      </trkpt>
      <trkpt lat="44.09523" lon="6.97191">
        <ele>1583.1999511719</ele>
        <time>2020-08-22T14:53:35.000Z</time>
      </trkpt>
      <trkpt lat="44.09522" lon="6.97197">
        <ele>1582.4000244141</ele>
        <time>2020-08-22T14:53:36.000Z</time>
      </trkpt>
      <trkpt lat="44.09521" lon="6.97203">
        <ele>1581.4000244141</ele>
        <time>2020-08-22T14:53:37.000Z</time>
      </trkpt>
      <trkpt lat="44.09521" lon="6.9721">
        <ele>1580.4000244141</ele>
        <time>2020-08-22T14:53:38.000Z</time>
      </trkpt>
      <trkpt lat="44.09522" lon="6.97218">
        <ele>1579.4000244141</ele>
        <time>2020-08-22T14:53:39.000Z</time>
      </trkpt>
      <trkpt lat="44.09522" lon="6.97235">
        <ele>1577.5999755859</ele>
        <time>2020-08-22T14:53:41.000Z</time>
      </trkpt>
      <trkpt lat="44.09519" lon="6.97251">
        <ele>1576.1999511719</ele>
        <time>2020-08-22T14:53:43.000Z</time>
      </trkpt>
      <trkpt lat="44.09518" lon="6.97261">
        <ele>1576.8000488281</ele>
        <time>2020-08-22T14:53:45.000Z</time>
      </trkpt>
      <trkpt lat="44.09514" lon="6.97272">
        <ele>1574.5999755859</ele>
        <time>2020-08-22T14:53:48.000Z</time>
      </trkpt>
      <trkpt lat="44.09513" lon="6.97272">
        <ele>1574.4000244141</ele>
        <time>2020-08-22T14:53:49.000Z</time>
      </trkpt>
      <trkpt lat="44.09511" lon="6.97267">
        <ele>1573.1999511719</ele>
        <time>2020-08-22T14:53:51.000Z</time>
      </trkpt>
      <trkpt lat="44.09507" lon="6.9726">
        <ele>1572.8000488281</ele>
        <time>2020-08-22T14:53:53.000Z</time>
      </trkpt>
      <trkpt lat="44.09504" lon="6.9726">
        <ele>1572.1999511719</ele>
        <time>2020-08-22T14:53:54.000Z</time>
      </trkpt>
      <trkpt lat="44.09498" lon="6.97264">
        <ele>1571.4000244141</ele>
        <time>2020-08-22T14:53:56.000Z</time>
      </trkpt>
      <trkpt lat="44.09494" lon="6.97267">
        <ele>1570.8000488281</ele>
        <time>2020-08-22T14:53:57.000Z</time>
      </trkpt>
      <trkpt lat="44.09482" lon="6.97275">
        <ele>1569.5999755859</ele>
        <time>2020-08-22T14:54:00.000Z</time>
      </trkpt>
      <trkpt lat="44.09478" lon="6.97277">
        <ele>1569.4000244141</ele>
        <time>2020-08-22T14:54:01.000Z</time>
      </trkpt>
      <trkpt lat="44.0947" lon="6.97282">
        <ele>1568.1999511719</ele>
        <time>2020-08-22T14:54:03.000Z</time>
      </trkpt>
      <trkpt lat="44.09464" lon="6.97289">
        <ele>1567.1999511719</ele>
        <time>2020-08-22T14:54:05.000Z</time>
      </trkpt>
      <trkpt lat="44.09461" lon="6.97293">
        <ele>1567</ele>
        <time>2020-08-22T14:54:06.000Z</time>
      </trkpt>
      <trkpt lat="44.09456" lon="6.97303">
        <ele>1565.8000488281</ele>
        <time>2020-08-22T14:54:08.000Z</time>
      </trkpt>
      <trkpt lat="44.09453" lon="6.97307">
        <ele>1565.4000244141</ele>
        <time>2020-08-22T14:54:09.000Z</time>
      </trkpt>
      <trkpt lat="44.09449" lon="6.9731">
        <ele>1564.5999755859</ele>
        <time>2020-08-22T14:54:10.000Z</time>
      </trkpt>
      <trkpt lat="44.09437" lon="6.97313">
        <ele>1563.5999755859</ele>
        <time>2020-08-22T14:54:13.000Z</time>
      </trkpt>
      <trkpt lat="44.09425" lon="6.97315">
        <ele>1563</ele>
        <time>2020-08-22T14:54:17.000Z</time>
      </trkpt>
      <trkpt lat="44.09413" lon="6.97319">
        <ele>1562.5999755859</ele>
        <time>2020-08-22T14:54:21.000Z</time>
      </trkpt>
      <trkpt lat="44.09409" lon="6.97322">
        <ele>1562.4000244141</ele>
        <time>2020-08-22T14:54:22.000Z</time>
      </trkpt>
      <trkpt lat="44.09401" lon="6.97327">
        <ele>1560.5999755859</ele>
        <time>2020-08-22T14:54:24.000Z</time>
      </trkpt>
      <trkpt lat="44.09391" lon="6.97333">
        <ele>1559.5999755859</ele>
        <time>2020-08-22T14:54:27.000Z</time>
      </trkpt>
      <trkpt lat="44.09387" lon="6.97332">
        <ele>1559.1999511719</ele>
        <time>2020-08-22T14:54:28.000Z</time>
      </trkpt>
      <trkpt lat="44.09377" lon="6.97329">
        <ele>1560.4000244141</ele>
        <time>2020-08-22T14:54:31.000Z</time>
      </trkpt>
      <trkpt lat="44.09374" lon="6.97329">
        <ele>1560.8000488281</ele>
        <time>2020-08-22T14:54:32.000Z</time>
      </trkpt>
      <trkpt lat="44.09363" lon="6.97325">
        <ele>1562</ele>
        <time>2020-08-22T14:54:35.000Z</time>
      </trkpt>
      <trkpt lat="44.0936" lon="6.97323">
        <ele>1562.1999511719</ele>
        <time>2020-08-22T14:54:36.000Z</time>
      </trkpt>
      <trkpt lat="44.09346" lon="6.97315">
        <ele>1562.5999755859</ele>
        <time>2020-08-22T14:54:41.000Z</time>
      </trkpt>
      <trkpt lat="44.0934" lon="6.9731">
        <ele>1563.1999511719</ele>
        <time>2020-08-22T14:54:43.000Z</time>
      </trkpt>
      <trkpt lat="44.09333" lon="6.97301">
        <ele>1564.1999511719</ele>
        <time>2020-08-22T14:54:46.000Z</time>
      </trkpt>
      <trkpt lat="44.09331" lon="6.97299">
        <ele>1564.5999755859</ele>
        <time>2020-08-22T14:54:47.000Z</time>
      </trkpt>
      <trkpt lat="44.09322" lon="6.97292">
        <ele>1565.4000244141</ele>
        <time>2020-08-22T14:54:51.000Z</time>
      </trkpt>
      <trkpt lat="44.09311" lon="6.97291">
        <ele>1565.1999511719</ele>
        <time>2020-08-22T14:54:54.000Z</time>
      </trkpt>
      <trkpt lat="44.09299" lon="6.97283">
        <ele>1564.5999755859</ele>
        <time>2020-08-22T14:54:57.000Z</time>
      </trkpt>
      <trkpt lat="44.09292" lon="6.9728">
        <ele>1563.8000488281</ele>
        <time>2020-08-22T14:54:58.000Z</time>
      </trkpt>
      <trkpt lat="44.09282" lon="6.97274">
        <ele>1562.5999755859</ele>
        <time>2020-08-22T14:55:00.000Z</time>
      </trkpt>
      <trkpt lat="44.09273" lon="6.97269">
        <ele>1561.1999511719</ele>
        <time>2020-08-22T14:55:02.000Z</time>
      </trkpt>
      <trkpt lat="44.09269" lon="6.97268">
        <ele>1561</ele>
        <time>2020-08-22T14:55:03.000Z</time>
      </trkpt>
      <trkpt lat="44.09255" lon="6.97265">
        <ele>1560.4000244141</ele>
        <time>2020-08-22T14:55:08.000Z</time>
      </trkpt>
      <trkpt lat="44.09253" lon="6.97265">
        <ele>1559.4000244141</ele>
        <time>2020-08-22T14:55:09.000Z</time>
      </trkpt>
      <trkpt lat="44.09251" lon="6.97264">
        <ele>1558.4000244141</ele>
        <time>2020-08-22T14:55:11.000Z</time>
      </trkpt>
      <trkpt lat="44.09251" lon="6.97264">
        <ele>1558.4000244141</ele>
        <time>2020-08-22T14:55:12.000Z</time>
      </trkpt>
      <trkpt lat="44.09249" lon="6.97265">
        <ele>1559.1999511719</ele>
        <time>2020-08-22T14:55:17.000Z</time>
      </trkpt>
      <trkpt lat="44.09244" lon="6.97266">
        <ele>1559.4000244141</ele>
        <time>2020-08-22T14:55:24.000Z</time>
      </trkpt>
      <trkpt lat="44.0923" lon="6.97259">
        <ele>1559.5999755859</ele>
        <time>2020-08-22T14:55:29.000Z</time>
      </trkpt>
      <trkpt lat="44.09215" lon="6.97252">
        <ele>1560.8000488281</ele>
        <time>2020-08-22T14:55:35.000Z</time>
      </trkpt>
      <trkpt lat="44.09208" lon="6.97248">
        <ele>1561.5999755859</ele>
        <time>2020-08-22T14:55:38.000Z</time>
      </trkpt>
      <trkpt lat="44.09205" lon="6.97247">
        <ele>1561.8000488281</ele>
        <time>2020-08-22T14:55:39.000Z</time>
      </trkpt>
      <trkpt lat="44.09185" lon="6.97231">
        <ele>1562.8000488281</ele>
        <time>2020-08-22T14:55:47.000Z</time>
      </trkpt>
      <trkpt lat="44.09183" lon="6.97228">
        <ele>1563</ele>
        <time>2020-08-22T14:55:48.000Z</time>
      </trkpt>
      <trkpt lat="44.09171" lon="6.97212">
        <ele>1564</ele>
        <time>2020-08-22T14:55:54.000Z</time>
      </trkpt>
      <trkpt lat="44.09165" lon="6.97205">
        <ele>1564.8000488281</ele>
        <time>2020-08-22T14:55:57.000Z</time>
      </trkpt>
      <trkpt lat="44.09161" lon="6.97199">
        <ele>1565.1999511719</ele>
        <time>2020-08-22T14:55:59.000Z</time>
      </trkpt>
      <trkpt lat="44.09144" lon="6.97179">
        <ele>1566.4000244141</ele>
        <time>2020-08-22T14:56:07.000Z</time>
      </trkpt>
      <trkpt lat="44.09136" lon="6.97169">
        <ele>1567.4000244141</ele>
        <time>2020-08-22T14:56:11.000Z</time>
      </trkpt>
      <trkpt lat="44.09128" lon="6.97158">
        <ele>1568.1999511719</ele>
        <time>2020-08-22T14:56:15.000Z</time>
      </trkpt>
      <trkpt lat="44.09126" lon="6.97156">
        <ele>1568.5999755859</ele>
        <time>2020-08-22T14:56:16.000Z</time>
      </trkpt>
      <trkpt lat="44.09115" lon="6.97136">
        <ele>1569</ele>
        <time>2020-08-22T14:56:23.000Z</time>
      </trkpt>
      <trkpt lat="44.09109" lon="6.97123">
        <ele>1569.8000488281</ele>
        <time>2020-08-22T14:56:27.000Z</time>
      </trkpt>
      <trkpt lat="44.09105" lon="6.97111">
        <ele>1571</ele>
        <time>2020-08-22T14:56:31.000Z</time>
      </trkpt>
      <trkpt lat="44.09103" lon="6.97107">
        <ele>1571.1999511719</ele>
        <time>2020-08-22T14:56:32.000Z</time>
      </trkpt>
      <trkpt lat="44.09094" lon="6.97078">
        <ele>1571.8000488281</ele>
        <time>2020-08-22T14:56:41.000Z</time>
      </trkpt>
      <trkpt lat="44.09092" lon="6.9707">
        <ele>1572</ele>
        <time>2020-08-22T14:56:43.000Z</time>
      </trkpt>
      <trkpt lat="44.09088" lon="6.97054">
        <ele>1573.1999511719</ele>
        <time>2020-08-22T14:56:48.000Z</time>
      </trkpt>
      <trkpt lat="44.09087" lon="6.97045">
        <ele>1573.5999755859</ele>
        <time>2020-08-22T14:56:51.000Z</time>
      </trkpt>
      <trkpt lat="44.09085" lon="6.97027">
        <ele>1574</ele>
        <time>2020-08-22T14:56:59.000Z</time>
      </trkpt>
      <trkpt lat="44.09085" lon="6.97027">
        <ele>1574</ele>
        <time>2020-08-22T14:57:08.000Z</time>
      </trkpt>
      <trkpt lat="44.0909" lon="6.97018">
        <ele>1573.8000488281</ele>
        <time>2020-08-22T14:57:15.000Z</time>
      </trkpt>
      <trkpt lat="44.091" lon="6.97002">
        <ele>1574.4000244141</ele>
        <time>2020-08-22T14:57:21.000Z</time>
      </trkpt>
      <trkpt lat="44.09103" lon="6.96997">
        <ele>1575.1999511719</ele>
        <time>2020-08-22T14:57:23.000Z</time>
      </trkpt>
      <trkpt lat="44.09107" lon="6.96991">
        <ele>1575.5999755859</ele>
        <time>2020-08-22T14:57:25.000Z</time>
      </trkpt>
      <trkpt lat="44.09112" lon="6.96975">
        <ele>1575.8000488281</ele>
        <time>2020-08-22T14:57:29.000Z</time>
      </trkpt>
      <trkpt lat="44.09116" lon="6.96936">
        <ele>1575.5999755859</ele>
        <time>2020-08-22T14:57:36.000Z</time>
      </trkpt>
      <trkpt lat="44.09116" lon="6.96912">
        <ele>1576.4000244141</ele>
        <time>2020-08-22T14:57:41.000Z</time>
      </trkpt>
      <trkpt lat="44.09116" lon="6.96903">
        <ele>1576.5999755859</ele>
        <time>2020-08-22T14:57:43.000Z</time>
      </trkpt>
      <trkpt lat="44.0912" lon="6.96879">
        <ele>1577.8000488281</ele>
        <time>2020-08-22T14:57:49.000Z</time>
      </trkpt>
      <trkpt lat="44.09123" lon="6.96857">
        <ele>1579</ele>
        <time>2020-08-22T14:57:55.000Z</time>
      </trkpt>
      <trkpt lat="44.09123" lon="6.96848">
        <ele>1579.5999755859</ele>
        <time>2020-08-22T14:57:58.000Z</time>
      </trkpt>
      <trkpt lat="44.09123" lon="6.96843">
        <ele>1580</ele>
        <time>2020-08-22T14:58:00.000Z</time>
      </trkpt>
      <trkpt lat="44.09125" lon="6.96843">
        <ele>1580.1999511719</ele>
        <time>2020-08-22T14:58:01.000Z</time>
      </trkpt>
      <trkpt lat="44.09128" lon="6.96843">
        <ele>1580.4000244141</ele>
        <time>2020-08-22T14:58:03.000Z</time>
      </trkpt>
      <trkpt lat="44.09129" lon="6.96844">
        <ele>1580.8000488281</ele>
        <time>2020-08-22T14:58:07.000Z</time>
      </trkpt>
      <trkpt lat="44.0913" lon="6.96845">
        <ele>1581.1999511719</ele>
        <time>2020-08-22T14:58:09.000Z</time>
      </trkpt>
      <trkpt lat="44.09133" lon="6.96847">
        <ele>1581.8000488281</ele>
        <time>2020-08-22T14:58:14.000Z</time>
      </trkpt>
      <trkpt lat="44.09133" lon="6.96849">
        <ele>1582.1999511719</ele>
        <time>2020-08-22T14:58:16.000Z</time>
      </trkpt>
      <trkpt lat="44.09135" lon="6.96853">
        <ele>1583.4000244141</ele>
        <time>2020-08-22T14:58:21.000Z</time>
      </trkpt>
      <trkpt lat="44.09135" lon="6.96853">
        <ele>1583.5999755859</ele>
        <time>2020-08-22T14:58:22.000Z</time>
      </trkpt>
      <trkpt lat="44.09135" lon="6.96854">
        <ele>1583.5999755859</ele>
        <time>2020-08-22T14:58:27.000Z</time>
      </trkpt>
      <trkpt lat="44.09135" lon="6.96853">
        <ele>1583.4000244141</ele>
        <time>2020-08-22T14:58:35.000Z</time>
      </trkpt>
      <trkpt lat="44.09135" lon="6.96854">
        <ele>1583.4000244141</ele>
        <time>2020-08-22T14:58:43.000Z</time>
      </trkpt>
      <trkpt lat="44.09135" lon="6.96854">
        <ele>1583.8000488281</ele>
        <time>2020-08-22T14:58:51.000Z</time>
      </trkpt>
      <trkpt lat="44.09135" lon="6.96854">
        <ele>1584</ele>
        <time>2020-08-22T14:59:00.000Z</time>
      </trkpt>
      <trkpt lat="44.09136" lon="6.96854">
        <ele>1583.8000488281</ele>
        <time>2020-08-22T14:59:17.000Z</time>
      </trkpt>
      <trkpt lat="44.09136" lon="6.96855">
        <ele>1584.4000244141</ele>
        <time>2020-08-22T14:59:25.000Z</time>
      </trkpt>
      <trkpt lat="44.09135" lon="6.96855">
        <ele>1584.1999511719</ele>
        <time>2020-08-22T14:59:26.000Z</time>
      </trkpt>
      <trkpt lat="44.09135" lon="6.96855">
        <ele>1583.4000244141</ele>
        <time>2020-08-22T14:59:33.000Z</time>
      </trkpt>
      <trkpt lat="44.09134" lon="6.96856">
        <ele>1583.8000488281</ele>
        <time>2020-08-22T14:59:38.000Z</time>
      </trkpt>
      <trkpt lat="44.09135" lon="6.96856">
        <ele>1583.1999511719</ele>
        <time>2020-08-22T14:59:45.000Z</time>
      </trkpt>
      <trkpt lat="44.09134" lon="6.96853">
        <ele>1583</ele>
        <time>2020-08-22T14:59:50.000Z</time>
      </trkpt>
      <trkpt lat="44.09137" lon="6.96853">
        <ele>1583.5999755859</ele>
        <time>2020-08-22T14:59:55.000Z</time>
      </trkpt>
      <trkpt lat="44.09137" lon="6.96851">
        <ele>1583.5999755859</ele>
        <time>2020-08-22T15:00:01.000Z</time>
      </trkpt>
      <trkpt lat="44.09138" lon="6.96852">
        <ele>1583.5999755859</ele>
        <time>2020-08-22T15:00:07.000Z</time>
      </trkpt>
      <trkpt lat="44.09137" lon="6.96854">
        <ele>1583.4000244141</ele>
        <time>2020-08-22T15:00:13.000Z</time>
      </trkpt>
      <trkpt lat="44.09135" lon="6.96855">
        <ele>1583.4000244141</ele>
        <time>2020-08-22T15:00:15.000Z</time>
      </trkpt>
      <trkpt lat="44.09135" lon="6.96856">
        <ele>1583.1999511719</ele>
        <time>2020-08-22T15:00:18.000Z</time>
      </trkpt>
      <trkpt lat="44.09134" lon="6.96854">
        <ele>1583</ele>
        <time>2020-08-22T15:00:23.000Z</time>
      </trkpt>
      <trkpt lat="44.09132" lon="6.96851">
        <ele>1582.5999755859</ele>
        <time>2020-08-22T15:00:29.000Z</time>
      </trkpt>
      <trkpt lat="44.09134" lon="6.96852">
        <ele>1582.8000488281</ele>
        <time>2020-08-22T15:00:35.000Z</time>
      </trkpt>
      <trkpt lat="44.09131" lon="6.96854">
        <ele>1583.4000244141</ele>
        <time>2020-08-22T15:00:41.000Z</time>
      </trkpt>
      <trkpt lat="44.09124" lon="6.96856">
        <ele>1582.5999755859</ele>
        <time>2020-08-22T15:00:46.000Z</time>
      </trkpt>
      <trkpt lat="44.09123" lon="6.96858">
        <ele>1582.5999755859</ele>
        <time>2020-08-22T15:00:47.000Z</time>
      </trkpt>
      <trkpt lat="44.0912" lon="6.96862">
        <ele>1582.5999755859</ele>
        <time>2020-08-22T15:00:51.000Z</time>
      </trkpt>
      <trkpt lat="44.09122" lon="6.96862">
        <ele>1582.4000244141</ele>
        <time>2020-08-22T15:00:56.000Z</time>
      </trkpt>
      <trkpt lat="44.09123" lon="6.96865">
        <ele>1582.4000244141</ele>
        <time>2020-08-22T15:00:59.000Z</time>
      </trkpt>
      <trkpt lat="44.09122" lon="6.96868">
        <ele>1582.4000244141</ele>
        <time>2020-08-22T15:01:00.000Z</time>
      </trkpt>
      <trkpt lat="44.09127" lon="6.9688">
        <ele>1583.1999511719</ele>
        <time>2020-08-22T15:01:05.000Z</time>
      </trkpt>
      <trkpt lat="44.09132" lon="6.9688">
        <ele>1583.1999511719</ele>
        <time>2020-08-22T15:01:08.000Z</time>
      </trkpt>
      <trkpt lat="44.09132" lon="6.96878">
        <ele>1583.1999511719</ele>
        <time>2020-08-22T15:01:09.000Z</time>
      </trkpt>
      <trkpt lat="44.09131" lon="6.96871">
        <ele>1583.1999511719</ele>
        <time>2020-08-22T15:01:14.000Z</time>
      </trkpt>
      <trkpt lat="44.09135" lon="6.96867">
        <ele>1582.5999755859</ele>
        <time>2020-08-22T15:01:20.000Z</time>
      </trkpt>
      <trkpt lat="44.09137" lon="6.96867">
        <ele>1582.5999755859</ele>
        <time>2020-08-22T15:01:25.000Z</time>
      </trkpt>
      <trkpt lat="44.09133" lon="6.96864">
        <ele>1582.8000488281</ele>
        <time>2020-08-22T15:01:28.000Z</time>
      </trkpt>
      <trkpt lat="44.09131" lon="6.96864">
        <ele>1582.8000488281</ele>
        <time>2020-08-22T15:01:31.000Z</time>
      </trkpt>
      <trkpt lat="44.09132" lon="6.96864">
        <ele>1582.8000488281</ele>
        <time>2020-08-22T15:01:35.000Z</time>
      </trkpt>
      <trkpt lat="44.09135" lon="6.96862">
        <ele>1583</ele>
        <time>2020-08-22T15:01:37.000Z</time>
      </trkpt>
      <trkpt lat="44.09134" lon="6.9686">
        <ele>1583</ele>
        <time>2020-08-22T15:01:39.000Z</time>
      </trkpt>
      <trkpt lat="44.09137" lon="6.96857">
        <ele>1583</ele>
        <time>2020-08-22T15:01:42.000Z</time>
      </trkpt>
      <trkpt lat="44.09137" lon="6.96856">
        <ele>1583</ele>
        <time>2020-08-22T15:01:43.000Z</time>
      </trkpt>
      <trkpt lat="44.09137" lon="6.96858">
        <ele>1583</ele>
        <time>2020-08-22T15:01:48.000Z</time>
      </trkpt>
      <trkpt lat="44.09134" lon="6.96858">
        <ele>1583</ele>
        <time>2020-08-22T15:01:49.000Z</time>
      </trkpt>
      <trkpt lat="44.09133" lon="6.96856">
        <ele>1583</ele>
        <time>2020-08-22T15:01:53.000Z</time>
      </trkpt>
      <trkpt lat="44.09131" lon="6.96853">
        <ele>1583</ele>
        <time>2020-08-22T15:01:57.000Z</time>
      </trkpt>
      <trkpt lat="44.09132" lon="6.96852">
        <ele>1583.1999511719</ele>
        <time>2020-08-22T15:01:58.000Z</time>
      </trkpt>
      <trkpt lat="44.09133" lon="6.96852">
        <ele>1583</ele>
        <time>2020-08-22T15:02:00.000Z</time>
      </trkpt>
      <trkpt lat="44.09132" lon="6.96852">
        <ele>1582.5999755859</ele>
        <time>2020-08-22T15:02:03.000Z</time>
      </trkpt>
      <trkpt lat="44.09133" lon="6.96853">
        <ele>1582.4000244141</ele>
        <time>2020-08-22T15:02:08.000Z</time>
      </trkpt>
      <trkpt lat="44.09135" lon="6.96853">
        <ele>1582.4000244141</ele>
        <time>2020-08-22T15:02:12.000Z</time>
      </trkpt>
      <trkpt lat="44.09135" lon="6.96853">
        <ele>1582.1999511719</ele>
        <time>2020-08-22T15:02:13.000Z</time>
      </trkpt>
      <trkpt lat="44.09134" lon="6.96854">
        <ele>1582.1999511719</ele>
        <time>2020-08-22T15:02:18.000Z</time>
      </trkpt>
      <trkpt lat="44.09135" lon="6.96853">
        <ele>1582.1999511719</ele>
        <time>2020-08-22T15:02:24.000Z</time>
      </trkpt>
      <trkpt lat="44.09133" lon="6.96855">
        <ele>1582.1999511719</ele>
        <time>2020-08-22T15:02:31.000Z</time>
      </trkpt>
      <trkpt lat="44.09133" lon="6.96859">
        <ele>1582</ele>
        <time>2020-08-22T15:02:35.000Z</time>
      </trkpt>
      <trkpt lat="44.09135" lon="6.96859">
        <ele>1582</ele>
        <time>2020-08-22T15:02:40.000Z</time>
      </trkpt>
      <trkpt lat="44.09136" lon="6.96857">
        <ele>1582.1999511719</ele>
        <time>2020-08-22T15:02:48.000Z</time>
      </trkpt>
      <trkpt lat="44.09135" lon="6.96858">
        <ele>1582</ele>
        <time>2020-08-22T15:02:59.000Z</time>
      </trkpt>
      <trkpt lat="44.09135" lon="6.96856">
        <ele>1582.1999511719</ele>
        <time>2020-08-22T15:03:05.000Z</time>
      </trkpt>
      <trkpt lat="44.09134" lon="6.96851">
        <ele>1582.4000244141</ele>
        <time>2020-08-22T15:03:12.000Z</time>
      </trkpt>
      <trkpt lat="44.09132" lon="6.96847">
        <ele>1582</ele>
        <time>2020-08-22T15:03:18.000Z</time>
      </trkpt>
      <trkpt lat="44.0913" lon="6.96846">
        <ele>1581.1999511719</ele>
        <time>2020-08-22T15:03:21.000Z</time>
      </trkpt>
      <trkpt lat="44.09127" lon="6.96845">
        <ele>1580.1999511719</ele>
        <time>2020-08-22T15:03:25.000Z</time>
      </trkpt>
      <trkpt lat="44.09127" lon="6.96845">
        <ele>1580.1999511719</ele>
        <time>2020-08-22T15:03:26.000Z</time>
      </trkpt>
      <trkpt lat="44.09127" lon="6.96847">
        <ele>1579.5999755859</ele>
        <time>2020-08-22T15:03:29.000Z</time>
      </trkpt>
      <trkpt lat="44.09128" lon="6.96847">
        <ele>1579.5999755859</ele>
        <time>2020-08-22T15:03:31.000Z</time>
      </trkpt>
      <trkpt lat="44.09127" lon="6.96847">
        <ele>1579.4000244141</ele>
        <time>2020-08-22T15:03:38.000Z</time>
      </trkpt>
      <trkpt lat="44.09128" lon="6.96848">
        <ele>1579.4000244141</ele>
        <time>2020-08-22T15:03:43.000Z</time>
      </trkpt>
      <trkpt lat="44.09127" lon="6.96849">
        <ele>1579.5999755859</ele>
        <time>2020-08-22T15:03:49.000Z</time>
      </trkpt>
      <trkpt lat="44.09127" lon="6.96851">
        <ele>1579.4000244141</ele>
        <time>2020-08-22T15:03:55.000Z</time>
      </trkpt>
      <trkpt lat="44.09125" lon="6.96847">
        <ele>1579.4000244141</ele>
        <time>2020-08-22T15:04:00.000Z</time>
      </trkpt>
      <trkpt lat="44.09126" lon="6.96845">
        <ele>1579.4000244141</ele>
        <time>2020-08-22T15:04:05.000Z</time>
      </trkpt>
      <trkpt lat="44.09126" lon="6.96848">
        <ele>1579.4000244141</ele>
        <time>2020-08-22T15:04:10.000Z</time>
      </trkpt>
      <trkpt lat="44.09125" lon="6.9685">
        <ele>1579.4000244141</ele>
        <time>2020-08-22T15:04:12.000Z</time>
      </trkpt>
      <trkpt lat="44.09128" lon="6.96853">
        <ele>1579.5999755859</ele>
        <time>2020-08-22T15:04:15.000Z</time>
      </trkpt>
      <trkpt lat="44.09126" lon="6.96847">
        <ele>1579.4000244141</ele>
        <time>2020-08-22T15:04:22.000Z</time>
      </trkpt>
      <trkpt lat="44.09128" lon="6.96845">
        <ele>1579.5999755859</ele>
        <time>2020-08-22T15:04:24.000Z</time>
      </trkpt>
      <trkpt lat="44.09126" lon="6.9684">
        <ele>1579.5999755859</ele>
        <time>2020-08-22T15:04:28.000Z</time>
      </trkpt>
      <trkpt lat="44.09138" lon="6.96834">
        <ele>1579.8000488281</ele>
        <time>2020-08-22T15:04:45.000Z</time>
      </trkpt>
      <trkpt lat="44.09137" lon="6.96834">
        <ele>1579.8000488281</ele>
        <time>2020-08-22T15:04:46.000Z</time>
      </trkpt>
      <trkpt lat="44.09128" lon="6.96828">
        <ele>1579.8000488281</ele>
        <time>2020-08-22T15:04:50.000Z</time>
      </trkpt>
      <trkpt lat="44.09127" lon="6.96826">
        <ele>1579.8000488281</ele>
        <time>2020-08-22T15:04:52.000Z</time>
      </trkpt>
      <trkpt lat="44.09127" lon="6.96832">
        <ele>1580</ele>
        <time>2020-08-22T15:04:54.000Z</time>
      </trkpt>
      <trkpt lat="44.09133" lon="6.96848">
        <ele>1580</ele>
        <time>2020-08-22T15:04:58.000Z</time>
      </trkpt>
      <trkpt lat="44.09143" lon="6.9686">
        <ele>1580</ele>
        <time>2020-08-22T15:05:03.000Z</time>
      </trkpt>
      <trkpt lat="44.09145" lon="6.96863">
        <ele>1579.5999755859</ele>
        <time>2020-08-22T15:05:05.000Z</time>
      </trkpt>
      <trkpt lat="44.09146" lon="6.96862">
        <ele>1579.1999511719</ele>
        <time>2020-08-22T15:05:10.000Z</time>
      </trkpt>
      <trkpt lat="44.09146" lon="6.96856">
        <ele>1579</ele>
        <time>2020-08-22T15:05:11.000Z</time>
      </trkpt>
      <trkpt lat="44.09139" lon="6.96848">
        <ele>1579.1999511719</ele>
        <time>2020-08-22T15:05:20.000Z</time>
      </trkpt>
      <trkpt lat="44.09135" lon="6.9684">
        <ele>1579.5999755859</ele>
        <time>2020-08-22T15:05:23.000Z</time>
      </trkpt>
      <trkpt lat="44.09134" lon="6.9684">
        <ele>1580</ele>
        <time>2020-08-22T15:05:25.000Z</time>
      </trkpt>
      <trkpt lat="44.0913" lon="6.96843">
        <ele>1579.8000488281</ele>
        <time>2020-08-22T15:05:28.000Z</time>
      </trkpt>
      <trkpt lat="44.09128" lon="6.96843">
        <ele>1579.5999755859</ele>
        <time>2020-08-22T15:05:29.000Z</time>
      </trkpt>
      <trkpt lat="44.09129" lon="6.96834">
        <ele>1579.4000244141</ele>
        <time>2020-08-22T15:05:42.000Z</time>
      </trkpt>
      <trkpt lat="44.09128" lon="6.96832">
        <ele>1579.8000488281</ele>
        <time>2020-08-22T15:05:55.000Z</time>
      </trkpt>
      <trkpt lat="44.09128" lon="6.9683">
        <ele>1579.8000488281</ele>
        <time>2020-08-22T15:05:56.000Z</time>
      </trkpt>
      <trkpt lat="44.09133" lon="6.96831">
        <ele>1579.5999755859</ele>
        <time>2020-08-22T15:05:59.000Z</time>
      </trkpt>
      <trkpt lat="44.09133" lon="6.96839">
        <ele>1579.8000488281</ele>
        <time>2020-08-22T15:06:05.000Z</time>
      </trkpt>
      <trkpt lat="44.09131" lon="6.96845">
        <ele>1579.8000488281</ele>
        <time>2020-08-22T15:06:12.000Z</time>
      </trkpt>
      <trkpt lat="44.09131" lon="6.96845">
        <ele>1580</ele>
        <time>2020-08-22T15:06:15.000Z</time>
      </trkpt>
      <trkpt lat="44.0913" lon="6.96846">
        <ele>1579.5999755859</ele>
        <time>2020-08-22T15:06:23.000Z</time>
      </trkpt>
      <trkpt lat="44.09129" lon="6.96846">
        <ele>1579.5999755859</ele>
        <time>2020-08-22T15:06:35.000Z</time>
      </trkpt>
      <trkpt lat="44.09129" lon="6.96846">
        <ele>1579.4000244141</ele>
        <time>2020-08-22T15:06:46.000Z</time>
      </trkpt>
      <trkpt lat="44.09131" lon="6.96847">
        <ele>1579.1999511719</ele>
        <time>2020-08-22T15:06:54.000Z</time>
      </trkpt>
      <trkpt lat="44.09133" lon="6.96846">
        <ele>1579</ele>
        <time>2020-08-22T15:07:03.000Z</time>
      </trkpt>
      <trkpt lat="44.09133" lon="6.96846">
        <ele>1579</ele>
        <time>2020-08-22T15:07:04.000Z</time>
      </trkpt>
      <trkpt lat="44.09133" lon="6.96847">
        <ele>1579.1999511719</ele>
        <time>2020-08-22T15:07:12.000Z</time>
      </trkpt>
      <trkpt lat="44.09134" lon="6.96847">
        <ele>1579.5999755859</ele>
        <time>2020-08-22T15:07:21.000Z</time>
      </trkpt>
      <trkpt lat="44.09135" lon="6.96847">
        <ele>1579.5999755859</ele>
        <time>2020-08-22T15:07:29.000Z</time>
      </trkpt>
      <trkpt lat="44.09134" lon="6.96846">
        <ele>1579</ele>
        <time>2020-08-22T15:07:38.000Z</time>
      </trkpt>
      <trkpt lat="44.09134" lon="6.96848">
        <ele>1578.5999755859</ele>
        <time>2020-08-22T15:07:49.000Z</time>
      </trkpt>
      <trkpt lat="44.09133" lon="6.96849">
        <ele>1579</ele>
        <time>2020-08-22T15:08:01.000Z</time>
      </trkpt>
      <trkpt lat="44.09133" lon="6.96848">
        <ele>1579</ele>
        <time>2020-08-22T15:08:11.000Z</time>
      </trkpt>
      <trkpt lat="44.09134" lon="6.96848">
        <ele>1579.4000244141</ele>
        <time>2020-08-22T15:08:17.000Z</time>
      </trkpt>
      <trkpt lat="44.09135" lon="6.96847">
        <ele>1579.5999755859</ele>
        <time>2020-08-22T15:08:22.000Z</time>
      </trkpt>
      <trkpt lat="44.09135" lon="6.96848">
        <ele>1579.1999511719</ele>
        <time>2020-08-22T15:08:30.000Z</time>
      </trkpt>
      <trkpt lat="44.09135" lon="6.96848">
        <ele>1579</ele>
        <time>2020-08-22T15:08:35.000Z</time>
      </trkpt>
      <trkpt lat="44.09134" lon="6.96849">
        <ele>1578.8000488281</ele>
        <time>2020-08-22T15:08:44.000Z</time>
      </trkpt>
      <trkpt lat="44.09135" lon="6.9685">
        <ele>1578.8000488281</ele>
        <time>2020-08-22T15:08:51.000Z</time>
      </trkpt>
      <trkpt lat="44.09134" lon="6.9685">
        <ele>1579.4000244141</ele>
        <time>2020-08-22T15:08:59.000Z</time>
      </trkpt>
      <trkpt lat="44.0913" lon="6.96851">
        <ele>1579.5999755859</ele>
        <time>2020-08-22T15:09:03.000Z</time>
      </trkpt>
      <trkpt lat="44.09128" lon="6.96851">
        <ele>1579.4000244141</ele>
        <time>2020-08-22T15:09:07.000Z</time>
      </trkpt>
      <trkpt lat="44.0913" lon="6.96851">
        <ele>1579.4000244141</ele>
        <time>2020-08-22T15:09:13.000Z</time>
      </trkpt>
      <trkpt lat="44.09129" lon="6.96849">
        <ele>1579.1999511719</ele>
        <time>2020-08-22T15:09:23.000Z</time>
      </trkpt>
      <trkpt lat="44.09126" lon="6.96847">
        <ele>1578.4000244141</ele>
        <time>2020-08-22T15:09:29.000Z</time>
      </trkpt>
      <trkpt lat="44.09123" lon="6.96849">
        <ele>1578</ele>
        <time>2020-08-22T15:09:34.000Z</time>
      </trkpt>
      <trkpt lat="44.09123" lon="6.96851">
        <ele>1577.8000488281</ele>
        <time>2020-08-22T15:09:35.000Z</time>
      </trkpt>
      <trkpt lat="44.09123" lon="6.96852">
        <ele>1577.8000488281</ele>
        <time>2020-08-22T15:09:36.000Z</time>
      </trkpt>
      <trkpt lat="44.09123" lon="6.96856">
        <ele>1577</ele>
        <time>2020-08-22T15:09:40.000Z</time>
      </trkpt>
      <trkpt lat="44.09124" lon="6.96856">
        <ele>1576.5999755859</ele>
        <time>2020-08-22T15:09:43.000Z</time>
      </trkpt>
      <trkpt lat="44.09129" lon="6.96879">
        <ele>1576</ele>
        <time>2020-08-22T15:10:20.000Z</time>
      </trkpt>
      <trkpt lat="44.09127" lon="6.96872">
        <ele>1576.1999511719</ele>
        <time>2020-08-22T15:10:28.000Z</time>
      </trkpt>
      <trkpt lat="44.09128" lon="6.96866">
        <ele>1576.1999511719</ele>
        <time>2020-08-22T15:10:34.000Z</time>
      </trkpt>
      <trkpt lat="44.09126" lon="6.96862">
        <ele>1576.4000244141</ele>
        <time>2020-08-22T15:10:40.000Z</time>
      </trkpt>
      <trkpt lat="44.09132" lon="6.96859">
        <ele>1576.4000244141</ele>
        <time>2020-08-22T15:10:46.000Z</time>
      </trkpt>
      <trkpt lat="44.09139" lon="6.96861">
        <ele>1576.1999511719</ele>
        <time>2020-08-22T15:10:52.000Z</time>
      </trkpt>
      <trkpt lat="44.09138" lon="6.96858">
        <ele>1576.1999511719</ele>
        <time>2020-08-22T15:10:58.000Z</time>
      </trkpt>
      <trkpt lat="44.09139" lon="6.96857">
        <ele>1576</ele>
        <time>2020-08-22T15:11:03.000Z</time>
      </trkpt>
      <trkpt lat="44.09134" lon="6.96856">
        <ele>1576</ele>
        <time>2020-08-22T15:11:08.000Z</time>
      </trkpt>
      <trkpt lat="44.09135" lon="6.96856">
        <ele>1576</ele>
        <time>2020-08-22T15:11:14.000Z</time>
      </trkpt>
      <trkpt lat="44.09132" lon="6.96856">
        <ele>1575.8000488281</ele>
        <time>2020-08-22T15:11:21.000Z</time>
      </trkpt>
      <trkpt lat="44.09127" lon="6.96858">
        <ele>1576.1999511719</ele>
        <time>2020-08-22T15:11:29.000Z</time>
      </trkpt>
      <trkpt lat="44.09125" lon="6.96856">
        <ele>1576.4000244141</ele>
        <time>2020-08-22T15:11:36.000Z</time>
      </trkpt>
      <trkpt lat="44.09124" lon="6.96856">
        <ele>1577</ele>
        <time>2020-08-22T15:11:41.000Z</time>
      </trkpt>
      <trkpt lat="44.09124" lon="6.96853">
        <ele>1576.8000488281</ele>
        <time>2020-08-22T15:11:47.000Z</time>
      </trkpt>
      <trkpt lat="44.09123" lon="6.96852">
        <ele>1576.8000488281</ele>
        <time>2020-08-22T15:11:49.000Z</time>
      </trkpt>
      <trkpt lat="44.09122" lon="6.96852">
        <ele>1577</ele>
        <time>2020-08-22T15:11:52.000Z</time>
      </trkpt>
      <trkpt lat="44.09124" lon="6.9685">
        <ele>1577.1999511719</ele>
        <time>2020-08-22T15:12:00.000Z</time>
      </trkpt>
      <trkpt lat="44.09125" lon="6.9685">
        <ele>1577.8000488281</ele>
        <time>2020-08-22T15:12:16.000Z</time>
      </trkpt>
      <trkpt lat="44.09124" lon="6.9685">
        <ele>1577.4000244141</ele>
        <time>2020-08-22T15:12:28.000Z</time>
      </trkpt>
      <trkpt lat="44.09125" lon="6.9685">
        <ele>1577.8000488281</ele>
        <time>2020-08-22T15:12:47.000Z</time>
      </trkpt>
      <trkpt lat="44.09125" lon="6.9685">
        <ele>1577.8000488281</ele>
        <time>2020-08-22T15:13:09.000Z</time>
      </trkpt>
      <trkpt lat="44.09125" lon="6.96851">
        <ele>1578</ele>
        <time>2020-08-22T15:13:26.000Z</time>
      </trkpt>
      <trkpt lat="44.09125" lon="6.96851">
        <ele>1577.4000244141</ele>
        <time>2020-08-22T15:13:32.000Z</time>
      </trkpt>
      <trkpt lat="44.09125" lon="6.96851">
        <ele>1577.5999755859</ele>
        <time>2020-08-22T15:13:51.000Z</time>
      </trkpt>
      <trkpt lat="44.09125" lon="6.96851">
        <ele>1577.5999755859</ele>
        <time>2020-08-22T15:14:03.000Z</time>
      </trkpt>
      <trkpt lat="44.09125" lon="6.96851">
        <ele>1577.1999511719</ele>
        <time>2020-08-22T15:14:10.000Z</time>
      </trkpt>
      <trkpt lat="44.09126" lon="6.96847">
        <ele>1577</ele>
        <time>2020-08-22T15:14:16.000Z</time>
      </trkpt>
      <trkpt lat="44.09126" lon="6.96845">
        <ele>1577</ele>
        <time>2020-08-22T15:14:17.000Z</time>
      </trkpt>
      <trkpt lat="44.09128" lon="6.96845">
        <ele>1577</ele>
        <time>2020-08-22T15:14:20.000Z</time>
      </trkpt>
      <trkpt lat="44.09128" lon="6.96846">
        <ele>1577.1999511719</ele>
        <time>2020-08-22T15:14:25.000Z</time>
      </trkpt>
      <trkpt lat="44.09129" lon="6.96846">
        <ele>1577.4000244141</ele>
        <time>2020-08-22T15:14:26.000Z</time>
      </trkpt>
      <trkpt lat="44.09129" lon="6.96847">
        <ele>1578</ele>
        <time>2020-08-22T15:14:30.000Z</time>
      </trkpt>
      <trkpt lat="44.0913" lon="6.96847">
        <ele>1578</ele>
        <time>2020-08-22T15:14:31.000Z</time>
      </trkpt>
      <trkpt lat="44.09131" lon="6.96849">
        <ele>1578.1999511719</ele>
        <time>2020-08-22T15:14:36.000Z</time>
      </trkpt>
      <trkpt lat="44.09132" lon="6.96851">
        <ele>1579</ele>
        <time>2020-08-22T15:14:41.000Z</time>
      </trkpt>
      <trkpt lat="44.09132" lon="6.96851">
        <ele>1579.1999511719</ele>
        <time>2020-08-22T15:14:42.000Z</time>
      </trkpt>
      <trkpt lat="44.09133" lon="6.96854">
        <ele>1580</ele>
        <time>2020-08-22T15:14:47.000Z</time>
      </trkpt>
      <trkpt lat="44.09133" lon="6.96854">
        <ele>1580.1999511719</ele>
        <time>2020-08-22T15:14:49.000Z</time>
      </trkpt>
      <trkpt lat="44.09133" lon="6.96854">
        <ele>1580.5999755859</ele>
        <time>2020-08-22T15:14:53.000Z</time>
      </trkpt>
      <trkpt lat="44.09133" lon="6.96854">
        <ele>1581.4000244141</ele>
        <time>2020-08-22T15:14:57.000Z</time>
      </trkpt>
      <trkpt lat="44.09133" lon="6.96855">
        <ele>1581.1999511719</ele>
        <time>2020-08-22T15:15:00.000Z</time>
      </trkpt>
      <trkpt lat="44.09133" lon="6.96855">
        <ele>1581.5999755859</ele>
        <time>2020-08-22T15:15:08.000Z</time>
      </trkpt>
      <trkpt lat="44.09133" lon="6.96854">
        <ele>1581.1999511719</ele>
        <time>2020-08-22T15:15:14.000Z</time>
      </trkpt>
      <trkpt lat="44.0913" lon="6.96849">
        <ele>1581.1999511719</ele>
        <time>2020-08-22T15:15:23.000Z</time>
      </trkpt>
      <trkpt lat="44.09128" lon="6.96846">
        <ele>1580.1999511719</ele>
        <time>2020-08-22T15:15:27.000Z</time>
      </trkpt>
      <trkpt lat="44.09126" lon="6.96844">
        <ele>1579.1999511719</ele>
        <time>2020-08-22T15:15:31.000Z</time>
      </trkpt>
      <trkpt lat="44.09124" lon="6.96844">
        <ele>1578</ele>
        <time>2020-08-22T15:15:36.000Z</time>
      </trkpt>
      <trkpt lat="44.09124" lon="6.96845">
        <ele>1577.8000488281</ele>
        <time>2020-08-22T15:15:37.000Z</time>
      </trkpt>
      <trkpt lat="44.09124" lon="6.96845">
        <ele>1577.8000488281</ele>
        <time>2020-08-22T15:15:44.000Z</time>
      </trkpt>
      <trkpt lat="44.09125" lon="6.96845">
        <ele>1578.1999511719</ele>
        <time>2020-08-22T15:15:54.000Z</time>
      </trkpt>
      <trkpt lat="44.09125" lon="6.96844">
        <ele>1578.1999511719</ele>
        <time>2020-08-22T15:16:12.000Z</time>
      </trkpt>
      <trkpt lat="44.09126" lon="6.96845">
        <ele>1577.5999755859</ele>
        <time>2020-08-22T15:16:18.000Z</time>
      </trkpt>
      <trkpt lat="44.09126" lon="6.96844">
        <ele>1578.5999755859</ele>
        <time>2020-08-22T15:16:38.000Z</time>
      </trkpt>
      <trkpt lat="44.09127" lon="6.96844">
        <ele>1578.4000244141</ele>
        <time>2020-08-22T15:16:54.000Z</time>
      </trkpt>
      <trkpt lat="44.09126" lon="6.96845">
        <ele>1578</ele>
        <time>2020-08-22T15:17:00.000Z</time>
      </trkpt>
      <trkpt lat="44.09126" lon="6.96845">
        <ele>1578.4000244141</ele>
        <time>2020-08-22T15:17:06.000Z</time>
      </trkpt>
      <trkpt lat="44.09126" lon="6.96845">
        <ele>1578.1999511719</ele>
        <time>2020-08-22T15:17:25.000Z</time>
      </trkpt>
      <trkpt lat="44.09127" lon="6.96845">
        <ele>1578</ele>
        <time>2020-08-22T15:17:41.000Z</time>
      </trkpt>
      <trkpt lat="44.09125" lon="6.96846">
        <ele>1578.1999511719</ele>
        <time>2020-08-22T15:18:05.000Z</time>
      </trkpt>
      <trkpt lat="44.09124" lon="6.96849">
        <ele>1578</ele>
        <time>2020-08-22T15:18:12.000Z</time>
      </trkpt>
      <trkpt lat="44.09124" lon="6.9685">
        <ele>1578.1999511719</ele>
        <time>2020-08-22T15:18:19.000Z</time>
      </trkpt>
      <trkpt lat="44.09124" lon="6.9685">
        <ele>1577.8000488281</ele>
        <time>2020-08-22T15:18:34.000Z</time>
      </trkpt>
      <trkpt lat="44.09125" lon="6.9685">
        <ele>1578</ele>
        <time>2020-08-22T15:18:52.000Z</time>
      </trkpt>
      <trkpt lat="44.09125" lon="6.96854">
        <ele>1578.1999511719</ele>
        <time>2020-08-22T15:19:03.000Z</time>
      </trkpt>
      <trkpt lat="44.09125" lon="6.96857">
        <ele>1578.1999511719</ele>
        <time>2020-08-22T15:19:04.000Z</time>
      </trkpt>
      <trkpt lat="44.0912" lon="6.96883">
        <ele>1577.8000488281</ele>
        <time>2020-08-22T15:19:09.000Z</time>
      </trkpt>
      <trkpt lat="44.09118" lon="6.96898">
        <ele>1577</ele>
        <time>2020-08-22T15:19:13.000Z</time>
      </trkpt>
      <trkpt lat="44.09117" lon="6.96901">
        <ele>1577</ele>
        <time>2020-08-22T15:19:14.000Z</time>
      </trkpt>
      <trkpt lat="44.09118" lon="6.96927">
        <ele>1576.1999511719</ele>
        <time>2020-08-22T15:19:20.000Z</time>
      </trkpt>
      <trkpt lat="44.09118" lon="6.96934">
        <ele>1576</ele>
        <time>2020-08-22T15:19:22.000Z</time>
      </trkpt>
      <trkpt lat="44.09118" lon="6.96946">
        <ele>1575.1999511719</ele>
        <time>2020-08-22T15:19:25.000Z</time>
      </trkpt>
      <trkpt lat="44.09117" lon="6.96951">
        <ele>1574.8000488281</ele>
        <time>2020-08-22T15:19:27.000Z</time>
      </trkpt>
      <trkpt lat="44.09115" lon="6.9696">
        <ele>1574.8000488281</ele>
        <time>2020-08-22T15:19:30.000Z</time>
      </trkpt>
      <trkpt lat="44.09114" lon="6.96962">
        <ele>1574.8000488281</ele>
        <time>2020-08-22T15:19:32.000Z</time>
      </trkpt>
      <trkpt lat="44.09113" lon="6.9696">
        <ele>1574.8000488281</ele>
        <time>2020-08-22T15:19:33.000Z</time>
      </trkpt>
      <trkpt lat="44.09102" lon="6.96958">
        <ele>1574.5999755859</ele>
        <time>2020-08-22T15:19:36.000Z</time>
      </trkpt>
      <trkpt lat="44.09095" lon="6.9696">
        <ele>1573.5999755859</ele>
        <time>2020-08-22T15:19:38.000Z</time>
      </trkpt>
      <trkpt lat="44.09092" lon="6.96964">
        <ele>1572.1999511719</ele>
        <time>2020-08-22T15:19:40.000Z</time>
      </trkpt>
      <trkpt lat="44.09081" lon="6.96974">
        <ele>1572</ele>
        <time>2020-08-22T15:19:45.000Z</time>
      </trkpt>
      <trkpt lat="44.09075" lon="6.96993">
        <ele>1572</ele>
        <time>2020-08-22T15:19:50.000Z</time>
      </trkpt>
      <trkpt lat="44.09078" lon="6.97025">
        <ele>1572.5999755859</ele>
        <time>2020-08-22T15:19:57.000Z</time>
      </trkpt>
      <trkpt lat="44.09086" lon="6.97067">
        <ele>1573</ele>
        <time>2020-08-22T15:20:06.000Z</time>
      </trkpt>
      <trkpt lat="44.09093" lon="6.97091">
        <ele>1573</ele>
        <time>2020-08-22T15:20:10.000Z</time>
      </trkpt>
      <trkpt lat="44.09096" lon="6.97097">
        <ele>1572.8000488281</ele>
        <time>2020-08-22T15:20:11.000Z</time>
      </trkpt>
      <trkpt lat="44.09099" lon="6.97105">
        <ele>1572.5999755859</ele>
        <time>2020-08-22T15:20:12.000Z</time>
      </trkpt>
      <trkpt lat="44.09109" lon="6.97135">
        <ele>1571</ele>
        <time>2020-08-22T15:20:16.000Z</time>
      </trkpt>
      <trkpt lat="44.09117" lon="6.97162">
        <ele>1570</ele>
        <time>2020-08-22T15:20:20.000Z</time>
      </trkpt>
      <trkpt lat="44.09123" lon="6.9718">
        <ele>1568.8000488281</ele>
        <time>2020-08-22T15:20:23.000Z</time>
      </trkpt>
      <trkpt lat="44.0913" lon="6.97188">
        <ele>1568.1999511719</ele>
        <time>2020-08-22T15:20:25.000Z</time>
      </trkpt>
      <trkpt lat="44.09134" lon="6.97193">
        <ele>1567.8000488281</ele>
        <time>2020-08-22T15:20:26.000Z</time>
      </trkpt>
      <trkpt lat="44.09138" lon="6.97206">
        <ele>1565.5999755859</ele>
        <time>2020-08-22T15:20:28.000Z</time>
      </trkpt>
      <trkpt lat="44.0914" lon="6.9721">
        <ele>1564.5999755859</ele>
        <time>2020-08-22T15:20:29.000Z</time>
      </trkpt>
      <trkpt lat="44.09144" lon="6.97216">
        <ele>1562.8000488281</ele>
        <time>2020-08-22T15:20:30.000Z</time>
      </trkpt>
      <trkpt lat="44.09146" lon="6.97221">
        <ele>1561</ele>
        <time>2020-08-22T15:20:31.000Z</time>
      </trkpt>
      <trkpt lat="44.09149" lon="6.97226">
        <ele>1559.4000244141</ele>
        <time>2020-08-22T15:20:32.000Z</time>
      </trkpt>
      <trkpt lat="44.09153" lon="6.9723">
        <ele>1558.4000244141</ele>
        <time>2020-08-22T15:20:33.000Z</time>
      </trkpt>
      <trkpt lat="44.09155" lon="6.97235">
        <ele>1556.8000488281</ele>
        <time>2020-08-22T15:20:34.000Z</time>
      </trkpt>
      <trkpt lat="44.09157" lon="6.97245">
        <ele>1555.1999511719</ele>
        <time>2020-08-22T15:20:36.000Z</time>
      </trkpt>
      <trkpt lat="44.09161" lon="6.97255">
        <ele>1553.4000244141</ele>
        <time>2020-08-22T15:20:38.000Z</time>
      </trkpt>
      <trkpt lat="44.09168" lon="6.97266">
        <ele>1551.1999511719</ele>
        <time>2020-08-22T15:20:40.000Z</time>
      </trkpt>
      <trkpt lat="44.09169" lon="6.97271">
        <ele>1550.1999511719</ele>
        <time>2020-08-22T15:20:41.000Z</time>
      </trkpt>
      <trkpt lat="44.09173" lon="6.97275">
        <ele>1549.5999755859</ele>
        <time>2020-08-22T15:20:42.000Z</time>
      </trkpt>
      <trkpt lat="44.09178" lon="6.97279">
        <ele>1548.8000488281</ele>
        <time>2020-08-22T15:20:43.000Z</time>
      </trkpt>
      <trkpt lat="44.0919" lon="6.97289">
        <ele>1547.1999511719</ele>
        <time>2020-08-22T15:20:45.000Z</time>
      </trkpt>
      <trkpt lat="44.09201" lon="6.97301">
        <ele>1545.1999511719</ele>
        <time>2020-08-22T15:20:47.000Z</time>
      </trkpt>
      <trkpt lat="44.09207" lon="6.97308">
        <ele>1544</ele>
        <time>2020-08-22T15:20:48.000Z</time>
      </trkpt>
      <trkpt lat="44.09211" lon="6.97315">
        <ele>1542</ele>
        <time>2020-08-22T15:20:49.000Z</time>
      </trkpt>
      <trkpt lat="44.09214" lon="6.97322">
        <ele>1540.5999755859</ele>
        <time>2020-08-22T15:20:50.000Z</time>
      </trkpt>
      <trkpt lat="44.09215" lon="6.97327">
        <ele>1538.8000488281</ele>
        <time>2020-08-22T15:20:51.000Z</time>
      </trkpt>
      <trkpt lat="44.09218" lon="6.97332">
        <ele>1537.1999511719</ele>
        <time>2020-08-22T15:20:52.000Z</time>
      </trkpt>
      <trkpt lat="44.09219" lon="6.97334">
        <ele>1535.4000244141</ele>
        <time>2020-08-22T15:20:53.000Z</time>
      </trkpt>
      <trkpt lat="44.09219" lon="6.97333">
        <ele>1533.1999511719</ele>
        <time>2020-08-22T15:20:55.000Z</time>
      </trkpt>
      <trkpt lat="44.09219" lon="6.97334">
        <ele>1532.5999755859</ele>
        <time>2020-08-22T15:20:56.000Z</time>
      </trkpt>
      <trkpt lat="44.09219" lon="6.97334">
        <ele>1531.5999755859</ele>
        <time>2020-08-22T15:20:57.000Z</time>
      </trkpt>
      <trkpt lat="44.0922" lon="6.97337">
        <ele>1532</ele>
        <time>2020-08-22T15:21:01.000Z</time>
      </trkpt>
      <trkpt lat="44.09225" lon="6.97349">
        <ele>1532.5999755859</ele>
        <time>2020-08-22T15:21:04.000Z</time>
      </trkpt>
      <trkpt lat="44.09228" lon="6.97353">
        <ele>1532.5999755859</ele>
        <time>2020-08-22T15:21:05.000Z</time>
      </trkpt>
      <trkpt lat="44.09238" lon="6.97367">
        <ele>1531</ele>
        <time>2020-08-22T15:21:08.000Z</time>
      </trkpt>
      <trkpt lat="44.09241" lon="6.97372">
        <ele>1530.4000244141</ele>
        <time>2020-08-22T15:21:09.000Z</time>
      </trkpt>
      <trkpt lat="44.09246" lon="6.97378">
        <ele>1529.4000244141</ele>
        <time>2020-08-22T15:21:10.000Z</time>
      </trkpt>
      <trkpt lat="44.09255" lon="6.97388">
        <ele>1527.1999511719</ele>
        <time>2020-08-22T15:21:12.000Z</time>
      </trkpt>
      <trkpt lat="44.09259" lon="6.97394">
        <ele>1526.1999511719</ele>
        <time>2020-08-22T15:21:13.000Z</time>
      </trkpt>
      <trkpt lat="44.09262" lon="6.97399">
        <ele>1525</ele>
        <time>2020-08-22T15:21:14.000Z</time>
      </trkpt>
      <trkpt lat="44.0927" lon="6.97415">
        <ele>1523.8000488281</ele>
        <time>2020-08-22T15:21:17.000Z</time>
      </trkpt>
      <trkpt lat="44.09272" lon="6.9742">
        <ele>1523.5999755859</ele>
        <time>2020-08-22T15:21:18.000Z</time>
      </trkpt>
      <trkpt lat="44.09278" lon="6.9743">
        <ele>1522.5999755859</ele>
        <time>2020-08-22T15:21:20.000Z</time>
      </trkpt>
      <trkpt lat="44.09286" lon="6.97443">
        <ele>1520.8000488281</ele>
        <time>2020-08-22T15:21:23.000Z</time>
      </trkpt>
      <trkpt lat="44.09288" lon="6.97449">
        <ele>1520.4000244141</ele>
        <time>2020-08-22T15:21:24.000Z</time>
      </trkpt>
      <trkpt lat="44.09302" lon="6.97475">
        <ele>1520.8000488281</ele>
        <time>2020-08-22T15:21:29.000Z</time>
      </trkpt>
      <trkpt lat="44.09309" lon="6.97482">
        <ele>1520</ele>
        <time>2020-08-22T15:21:31.000Z</time>
      </trkpt>
      <trkpt lat="44.09318" lon="6.97488">
        <ele>1519.4000244141</ele>
        <time>2020-08-22T15:21:33.000Z</time>
      </trkpt>
      <trkpt lat="44.09327" lon="6.97493">
        <ele>1518.4000244141</ele>
        <time>2020-08-22T15:21:35.000Z</time>
      </trkpt>
      <trkpt lat="44.09344" lon="6.97498">
        <ele>1517.5999755859</ele>
        <time>2020-08-22T15:21:38.000Z</time>
      </trkpt>
      <trkpt lat="44.09351" lon="6.97501">
        <ele>1517</ele>
        <time>2020-08-22T15:21:39.000Z</time>
      </trkpt>
      <trkpt lat="44.09357" lon="6.97505">
        <ele>1516</ele>
        <time>2020-08-22T15:21:40.000Z</time>
      </trkpt>
      <trkpt lat="44.09363" lon="6.9751">
        <ele>1514.4000244141</ele>
        <time>2020-08-22T15:21:41.000Z</time>
      </trkpt>
      <trkpt lat="44.09368" lon="6.97517">
        <ele>1513</ele>
        <time>2020-08-22T15:21:42.000Z</time>
      </trkpt>
      <trkpt lat="44.09372" lon="6.97525">
        <ele>1511.4000244141</ele>
        <time>2020-08-22T15:21:43.000Z</time>
      </trkpt>
      <trkpt lat="44.09376" lon="6.97534">
        <ele>1510.1999511719</ele>
        <time>2020-08-22T15:21:44.000Z</time>
      </trkpt>
      <trkpt lat="44.09379" lon="6.97545">
        <ele>1509.4000244141</ele>
        <time>2020-08-22T15:21:45.000Z</time>
      </trkpt>
      <trkpt lat="44.09382" lon="6.97558">
        <ele>1508.8000488281</ele>
        <time>2020-08-22T15:21:46.000Z</time>
      </trkpt>
      <trkpt lat="44.09385" lon="6.97571">
        <ele>1507.5999755859</ele>
        <time>2020-08-22T15:21:47.000Z</time>
      </trkpt>
      <trkpt lat="44.09388" lon="6.97582">
        <ele>1505.8000488281</ele>
        <time>2020-08-22T15:21:48.000Z</time>
      </trkpt>
      <trkpt lat="44.09392" lon="6.97592">
        <ele>1503.8000488281</ele>
        <time>2020-08-22T15:21:49.000Z</time>
      </trkpt>
      <trkpt lat="44.09395" lon="6.97603">
        <ele>1501.8000488281</ele>
        <time>2020-08-22T15:21:50.000Z</time>
      </trkpt>
      <trkpt lat="44.09399" lon="6.97613">
        <ele>1500.4000244141</ele>
        <time>2020-08-22T15:21:51.000Z</time>
      </trkpt>
      <trkpt lat="44.09404" lon="6.97623">
        <ele>1498.8000488281</ele>
        <time>2020-08-22T15:21:52.000Z</time>
      </trkpt>
      <trkpt lat="44.09412" lon="6.97643">
        <ele>1497.1999511719</ele>
        <time>2020-08-22T15:21:54.000Z</time>
      </trkpt>
      <trkpt lat="44.0942" lon="6.97663">
        <ele>1495.4000244141</ele>
        <time>2020-08-22T15:21:56.000Z</time>
      </trkpt>
      <trkpt lat="44.09424" lon="6.97674">
        <ele>1494.1999511719</ele>
        <time>2020-08-22T15:21:57.000Z</time>
      </trkpt>
      <trkpt lat="44.09428" lon="6.97684">
        <ele>1492.8000488281</ele>
        <time>2020-08-22T15:21:58.000Z</time>
      </trkpt>
      <trkpt lat="44.09432" lon="6.97693">
        <ele>1491.1999511719</ele>
        <time>2020-08-22T15:21:59.000Z</time>
      </trkpt>
      <trkpt lat="44.09441" lon="6.97712">
        <ele>1488.5999755859</ele>
        <time>2020-08-22T15:22:01.000Z</time>
      </trkpt>
      <trkpt lat="44.09446" lon="6.97722">
        <ele>1487.4000244141</ele>
        <time>2020-08-22T15:22:02.000Z</time>
      </trkpt>
      <trkpt lat="44.0945" lon="6.97731">
        <ele>1486.8000488281</ele>
        <time>2020-08-22T15:22:03.000Z</time>
      </trkpt>
      <trkpt lat="44.09454" lon="6.9774">
        <ele>1486.1999511719</ele>
        <time>2020-08-22T15:22:04.000Z</time>
      </trkpt>
      <trkpt lat="44.09472" lon="6.97781">
        <ele>1485.4000244141</ele>
        <time>2020-08-22T15:22:09.000Z</time>
      </trkpt>
      <trkpt lat="44.09487" lon="6.97816">
        <ele>1487.4000244141</ele>
        <time>2020-08-22T15:22:14.000Z</time>
      </trkpt>
      <trkpt lat="44.09489" lon="6.97823">
        <ele>1487.5999755859</ele>
        <time>2020-08-22T15:22:15.000Z</time>
      </trkpt>
      <trkpt lat="44.09501" lon="6.97855">
        <ele>1486.1999511719</ele>
        <time>2020-08-22T15:22:19.000Z</time>
      </trkpt>
      <trkpt lat="44.09505" lon="6.97864">
        <ele>1486</ele>
        <time>2020-08-22T15:22:20.000Z</time>
      </trkpt>
      <trkpt lat="44.09512" lon="6.97882">
        <ele>1484.8000488281</ele>
        <time>2020-08-22T15:22:22.000Z</time>
      </trkpt>
      <trkpt lat="44.09518" lon="6.97903">
        <ele>1483.5999755859</ele>
        <time>2020-08-22T15:22:24.000Z</time>
      </trkpt>
      <trkpt lat="44.0952" lon="6.97912">
        <ele>1482.4000244141</ele>
        <time>2020-08-22T15:22:25.000Z</time>
      </trkpt>
      <trkpt lat="44.09522" lon="6.97919">
        <ele>1481.4000244141</ele>
        <time>2020-08-22T15:22:26.000Z</time>
      </trkpt>
      <trkpt lat="44.09523" lon="6.97923">
        <ele>1480</ele>
        <time>2020-08-22T15:22:27.000Z</time>
      </trkpt>
      <trkpt lat="44.09524" lon="6.97925">
        <ele>1479.4000244141</ele>
        <time>2020-08-22T15:22:28.000Z</time>
      </trkpt>
      <trkpt lat="44.09526" lon="6.97929">
        <ele>1478.8000488281</ele>
        <time>2020-08-22T15:22:30.000Z</time>
      </trkpt>
      <trkpt lat="44.09526" lon="6.97929">
        <ele>1479</ele>
        <time>2020-08-22T15:22:33.000Z</time>
      </trkpt>
      <trkpt lat="44.09524" lon="6.97931">
        <ele>1479</ele>
        <time>2020-08-22T15:22:39.000Z</time>
      </trkpt>
      <trkpt lat="44.09525" lon="6.97938">
        <ele>1479</ele>
        <time>2020-08-22T15:22:41.000Z</time>
      </trkpt>
      <trkpt lat="44.09526" lon="6.97949">
        <ele>1478.5999755859</ele>
        <time>2020-08-22T15:22:43.000Z</time>
      </trkpt>
      <trkpt lat="44.09529" lon="6.97961">
        <ele>1477.5999755859</ele>
        <time>2020-08-22T15:22:45.000Z</time>
      </trkpt>
      <trkpt lat="44.09534" lon="6.97987">
        <ele>1476.8000488281</ele>
        <time>2020-08-22T15:22:49.000Z</time>
      </trkpt>
      <trkpt lat="44.09537" lon="6.97994">
        <ele>1476.4000244141</ele>
        <time>2020-08-22T15:22:50.000Z</time>
      </trkpt>
      <trkpt lat="44.09539" lon="6.98001">
        <ele>1476</ele>
        <time>2020-08-22T15:22:51.000Z</time>
      </trkpt>
      <trkpt lat="44.09544" lon="6.98012">
        <ele>1475.1999511719</ele>
        <time>2020-08-22T15:22:53.000Z</time>
      </trkpt>
      <trkpt lat="44.09547" lon="6.98022">
        <ele>1475.1999511719</ele>
        <time>2020-08-22T15:22:55.000Z</time>
      </trkpt>
      <trkpt lat="44.09549" lon="6.98027">
        <ele>1475.4000244141</ele>
        <time>2020-08-22T15:22:56.000Z</time>
      </trkpt>
      <trkpt lat="44.09553" lon="6.98044">
        <ele>1475.4000244141</ele>
        <time>2020-08-22T15:22:59.000Z</time>
      </trkpt>
      <trkpt lat="44.09555" lon="6.98063">
        <ele>1475.4000244141</ele>
        <time>2020-08-22T15:23:02.000Z</time>
      </trkpt>
      <trkpt lat="44.09555" lon="6.98108">
        <ele>1475.4000244141</ele>
        <time>2020-08-22T15:23:08.000Z</time>
      </trkpt>
      <trkpt lat="44.09551" lon="6.98133">
        <ele>1474</ele>
        <time>2020-08-22T15:23:11.000Z</time>
      </trkpt>
      <trkpt lat="44.09551" lon="6.98153">
        <ele>1473.1999511719</ele>
        <time>2020-08-22T15:23:13.000Z</time>
      </trkpt>
      <trkpt lat="44.09552" lon="6.98164">
        <ele>1472.5999755859</ele>
        <time>2020-08-22T15:23:14.000Z</time>
      </trkpt>
      <trkpt lat="44.09557" lon="6.98185">
        <ele>1471.4000244141</ele>
        <time>2020-08-22T15:23:16.000Z</time>
      </trkpt>
      <trkpt lat="44.0956" lon="6.98196">
        <ele>1470.8000488281</ele>
        <time>2020-08-22T15:23:17.000Z</time>
      </trkpt>
      <trkpt lat="44.09562" lon="6.98208">
        <ele>1470</ele>
        <time>2020-08-22T15:23:18.000Z</time>
      </trkpt>
      <trkpt lat="44.09563" lon="6.9822">
        <ele>1469.1999511719</ele>
        <time>2020-08-22T15:23:19.000Z</time>
      </trkpt>
      <trkpt lat="44.09564" lon="6.98231">
        <ele>1468.4000244141</ele>
        <time>2020-08-22T15:23:20.000Z</time>
      </trkpt>
      <trkpt lat="44.09566" lon="6.98252">
        <ele>1467.4000244141</ele>
        <time>2020-08-22T15:23:22.000Z</time>
      </trkpt>
      <trkpt lat="44.09567" lon="6.98261">
        <ele>1467</ele>
        <time>2020-08-22T15:23:23.000Z</time>
      </trkpt>
      <trkpt lat="44.09569" lon="6.98274">
        <ele>1466.5999755859</ele>
        <time>2020-08-22T15:23:25.000Z</time>
      </trkpt>
      <trkpt lat="44.09572" lon="6.9828">
        <ele>1466.4000244141</ele>
        <time>2020-08-22T15:23:28.000Z</time>
      </trkpt>
      <trkpt lat="44.09572" lon="6.9828">
        <ele>1467.1999511719</ele>
        <time>2020-08-22T15:23:33.000Z</time>
      </trkpt>
      <trkpt lat="44.09572" lon="6.98283">
        <ele>1467</ele>
        <time>2020-08-22T15:23:43.000Z</time>
      </trkpt>
      <trkpt lat="44.09577" lon="6.98298">
        <ele>1466.8000488281</ele>
        <time>2020-08-22T15:23:47.000Z</time>
      </trkpt>
      <trkpt lat="44.0959" lon="6.98331">
        <ele>1465.8000488281</ele>
        <time>2020-08-22T15:23:53.000Z</time>
      </trkpt>
      <trkpt lat="44.09599" lon="6.98372">
        <ele>1465</ele>
        <time>2020-08-22T15:23:59.000Z</time>
      </trkpt>
      <trkpt lat="44.096" lon="6.9838">
        <ele>1464.8000488281</ele>
        <time>2020-08-22T15:24:00.000Z</time>
      </trkpt>
      <trkpt lat="44.09601" lon="6.98386">
        <ele>1464.8000488281</ele>
        <time>2020-08-22T15:24:01.000Z</time>
      </trkpt>
      <trkpt lat="44.09602" lon="6.98407">
        <ele>1464.8000488281</ele>
        <time>2020-08-22T15:24:04.000Z</time>
      </trkpt>
      <trkpt lat="44.09603" lon="6.98428">
        <ele>1465.1999511719</ele>
        <time>2020-08-22T15:24:07.000Z</time>
      </trkpt>
      <trkpt lat="44.09605" lon="6.98464">
        <ele>1465.5999755859</ele>
        <time>2020-08-22T15:24:13.000Z</time>
      </trkpt>
      <trkpt lat="44.09606" lon="6.98477">
        <ele>1465.8000488281</ele>
        <time>2020-08-22T15:24:15.000Z</time>
      </trkpt>
      <trkpt lat="44.09608" lon="6.98502">
        <ele>1466.1999511719</ele>
        <time>2020-08-22T15:24:19.000Z</time>
      </trkpt>
      <trkpt lat="44.0961" lon="6.98518">
        <ele>1467.1999511719</ele>
        <time>2020-08-22T15:24:22.000Z</time>
      </trkpt>
      <trkpt lat="44.09613" lon="6.98527">
        <ele>1467.8000488281</ele>
        <time>2020-08-22T15:24:24.000Z</time>
      </trkpt>
      <trkpt lat="44.09616" lon="6.98545">
        <ele>1468.4000244141</ele>
        <time>2020-08-22T15:24:28.000Z</time>
      </trkpt>
      <trkpt lat="44.09616" lon="6.98553">
        <ele>1469.1999511719</ele>
        <time>2020-08-22T15:24:30.000Z</time>
      </trkpt>
      <trkpt lat="44.09617" lon="6.98562">
        <ele>1469.8000488281</ele>
        <time>2020-08-22T15:24:32.000Z</time>
      </trkpt>
      <trkpt lat="44.09617" lon="6.98579">
        <ele>1471</ele>
        <time>2020-08-22T15:24:36.000Z</time>
      </trkpt>
      <trkpt lat="44.09617" lon="6.98582">
        <ele>1471.1999511719</ele>
        <time>2020-08-22T15:24:37.000Z</time>
      </trkpt>
      <trkpt lat="44.09615" lon="6.98592">
        <ele>1472</ele>
        <time>2020-08-22T15:24:40.000Z</time>
      </trkpt>
      <trkpt lat="44.09611" lon="6.98597">
        <ele>1472.4000244141</ele>
        <time>2020-08-22T15:24:42.000Z</time>
      </trkpt>
      <trkpt lat="44.09598" lon="6.98604">
        <ele>1472.4000244141</ele>
        <time>2020-08-22T15:24:47.000Z</time>
      </trkpt>
      <trkpt lat="44.09595" lon="6.98616">
        <ele>1472.5999755859</ele>
        <time>2020-08-22T15:24:51.000Z</time>
      </trkpt>
      <trkpt lat="44.09599" lon="6.98625">
        <ele>1473.1999511719</ele>
        <time>2020-08-22T15:24:55.000Z</time>
      </trkpt>
      <trkpt lat="44.096" lon="6.98626">
        <ele>1473.4000244141</ele>
        <time>2020-08-22T15:24:56.000Z</time>
      </trkpt>
      <trkpt lat="44.09602" lon="6.98631">
        <ele>1474</ele>
        <time>2020-08-22T15:24:59.000Z</time>
      </trkpt>
      <trkpt lat="44.09601" lon="6.98631">
        <ele>1474</ele>
        <time>2020-08-22T15:25:01.000Z</time>
      </trkpt>
      <trkpt lat="44.09602" lon="6.98633">
        <ele>1474</ele>
        <time>2020-08-22T15:25:10.000Z</time>
      </trkpt>
      <trkpt lat="44.09602" lon="6.98635">
        <ele>1473.4000244141</ele>
        <time>2020-08-22T15:25:26.000Z</time>
      </trkpt>
      <trkpt lat="44.09602" lon="6.98637">
        <ele>1473.8000488281</ele>
        <time>2020-08-22T15:25:34.000Z</time>
      </trkpt>
      <trkpt lat="44.09602" lon="6.98637">
        <ele>1474.1999511719</ele>
        <time>2020-08-22T15:25:45.000Z</time>
      </trkpt>
      <trkpt lat="44.09602" lon="6.98636">
        <ele>1474.5999755859</ele>
        <time>2020-08-22T15:25:55.000Z</time>
      </trkpt>
      <trkpt lat="44.09602" lon="6.98637">
        <ele>1474.5999755859</ele>
        <time>2020-08-22T15:26:04.000Z</time>
      </trkpt>
      <trkpt lat="44.09602" lon="6.98639">
        <ele>1474.4000244141</ele>
        <time>2020-08-22T15:26:09.000Z</time>
      </trkpt>
      <trkpt lat="44.09603" lon="6.98641">
        <ele>1474.4000244141</ele>
        <time>2020-08-22T15:26:11.000Z</time>
      </trkpt>
      <trkpt lat="44.09604" lon="6.98643">
        <ele>1474.1999511719</ele>
        <time>2020-08-22T15:26:15.000Z</time>
      </trkpt>
      <trkpt lat="44.09603" lon="6.98642">
        <ele>1473.1999511719</ele>
        <time>2020-08-22T15:26:21.000Z</time>
      </trkpt>
      <trkpt lat="44.09603" lon="6.98641">
        <ele>1473.4000244141</ele>
        <time>2020-08-22T15:26:29.000Z</time>
      </trkpt>
      <trkpt lat="44.09603" lon="6.98638">
        <ele>1473.5999755859</ele>
        <time>2020-08-22T15:26:37.000Z</time>
      </trkpt>
      <trkpt lat="44.09604" lon="6.98637">
        <ele>1473.5999755859</ele>
        <time>2020-08-22T15:26:41.000Z</time>
      </trkpt>
      <trkpt lat="44.09605" lon="6.98638">
        <ele>1473.4000244141</ele>
        <time>2020-08-22T15:26:42.000Z</time>
      </trkpt>
      <trkpt lat="44.09605" lon="6.98638">
        <ele>1473.1999511719</ele>
        <time>2020-08-22T15:26:47.000Z</time>
      </trkpt>
      <trkpt lat="44.09606" lon="6.98634">
        <ele>1473.8000488281</ele>
        <time>2020-08-22T15:26:56.000Z</time>
      </trkpt>
      <trkpt lat="44.09605" lon="6.98632">
        <ele>1474.1999511719</ele>
        <time>2020-08-22T15:27:04.000Z</time>
      </trkpt>
      <trkpt lat="44.09606" lon="6.98629">
        <ele>1473.8000488281</ele>
        <time>2020-08-22T15:27:12.000Z</time>
      </trkpt>
      <trkpt lat="44.09606" lon="6.98626">
        <ele>1473.8000488281</ele>
        <time>2020-08-22T15:27:18.000Z</time>
      </trkpt>
      <trkpt lat="44.09607" lon="6.98625">
        <ele>1473.8000488281</ele>
        <time>2020-08-22T15:27:24.000Z</time>
      </trkpt>
      <trkpt lat="44.09607" lon="6.98623">
        <ele>1473.5999755859</ele>
        <time>2020-08-22T15:27:28.000Z</time>
      </trkpt>
      <trkpt lat="44.09608" lon="6.9862">
        <ele>1473.8000488281</ele>
        <time>2020-08-22T15:27:35.000Z</time>
      </trkpt>
      <trkpt lat="44.09608" lon="6.98616">
        <ele>1473.1999511719</ele>
        <time>2020-08-22T15:27:40.000Z</time>
      </trkpt>
      <trkpt lat="44.09608" lon="6.98615">
        <ele>1473.5999755859</ele>
        <time>2020-08-22T15:27:46.000Z</time>
      </trkpt>
      <trkpt lat="44.09608" lon="6.98615">
        <ele>1473.8000488281</ele>
        <time>2020-08-22T15:27:55.000Z</time>
      </trkpt>
      <trkpt lat="44.09608" lon="6.98614">
        <ele>1473.8000488281</ele>
        <time>2020-08-22T15:28:05.000Z</time>
      </trkpt>
      <trkpt lat="44.09607" lon="6.98614">
        <ele>1473.4000244141</ele>
        <time>2020-08-22T15:28:23.000Z</time>
      </trkpt>
      <trkpt lat="44.09607" lon="6.98614">
        <ele>1473.5999755859</ele>
        <time>2020-08-22T15:28:32.000Z</time>
      </trkpt>
      <trkpt lat="44.09606" lon="6.98616">
        <ele>1473.5999755859</ele>
        <time>2020-08-22T15:28:54.000Z</time>
      </trkpt>
      <trkpt lat="44.09606" lon="6.98618">
        <ele>1473.4000244141</ele>
        <time>2020-08-22T15:29:01.000Z</time>
      </trkpt>
      <trkpt lat="44.09606" lon="6.98617">
        <ele>1473.5999755859</ele>
        <time>2020-08-22T15:29:11.000Z</time>
      </trkpt>
      <trkpt lat="44.09606" lon="6.98611">
        <ele>1473.4000244141</ele>
        <time>2020-08-22T15:29:20.000Z</time>
      </trkpt>
      <trkpt lat="44.09606" lon="6.98609">
        <ele>1473.1999511719</ele>
        <time>2020-08-22T15:29:30.000Z</time>
      </trkpt>
      <trkpt lat="44.09606" lon="6.9861">
        <ele>1473.1999511719</ele>
        <time>2020-08-22T15:29:41.000Z</time>
      </trkpt>
      <trkpt lat="44.09606" lon="6.98614">
        <ele>1473.1999511719</ele>
        <time>2020-08-22T15:29:50.000Z</time>
      </trkpt>
      <trkpt lat="44.09606" lon="6.9861">
        <ele>1472.8000488281</ele>
        <time>2020-08-22T15:29:58.000Z</time>
      </trkpt>
      <trkpt lat="44.09605" lon="6.98607">
        <ele>1472.8000488281</ele>
        <time>2020-08-22T15:30:05.000Z</time>
      </trkpt>
      <trkpt lat="44.09605" lon="6.98607">
        <ele>1473.1999511719</ele>
        <time>2020-08-22T15:30:14.000Z</time>
      </trkpt>
      <trkpt lat="44.09605" lon="6.98608">
        <ele>1473.1999511719</ele>
        <time>2020-08-22T15:30:21.000Z</time>
      </trkpt>
      <trkpt lat="44.09606" lon="6.98608">
        <ele>1473.4000244141</ele>
        <time>2020-08-22T15:30:30.000Z</time>
      </trkpt>
      <trkpt lat="44.09606" lon="6.98612">
        <ele>1473.4000244141</ele>
        <time>2020-08-22T15:30:42.000Z</time>
      </trkpt>
      <trkpt lat="44.09606" lon="6.98611">
        <ele>1473.1999511719</ele>
        <time>2020-08-22T15:30:53.000Z</time>
      </trkpt>
      <trkpt lat="44.09606" lon="6.9861">
        <ele>1473.1999511719</ele>
        <time>2020-08-22T15:31:02.000Z</time>
      </trkpt>
      <trkpt lat="44.09606" lon="6.98606">
        <ele>1473.4000244141</ele>
        <time>2020-08-22T15:31:09.000Z</time>
      </trkpt>
      <trkpt lat="44.09606" lon="6.98605">
        <ele>1473</ele>
        <time>2020-08-22T15:31:22.000Z</time>
      </trkpt>
      <trkpt lat="44.09606" lon="6.98607">
        <ele>1473.1999511719</ele>
        <time>2020-08-22T15:31:32.000Z</time>
      </trkpt>
      <trkpt lat="44.09606" lon="6.9861">
        <ele>1473.8000488281</ele>
        <time>2020-08-22T15:31:43.000Z</time>
      </trkpt>
      <trkpt lat="44.09605" lon="6.98613">
        <ele>1472.1999511719</ele>
        <time>2020-08-22T15:31:50.000Z</time>
      </trkpt>
      <trkpt lat="44.09606" lon="6.98613">
        <ele>1472.5999755859</ele>
        <time>2020-08-22T15:31:58.000Z</time>
      </trkpt>
      <trkpt lat="44.09606" lon="6.98614">
        <ele>1473.4000244141</ele>
        <time>2020-08-22T15:32:08.000Z</time>
      </trkpt>
      <trkpt lat="44.09606" lon="6.98617">
        <ele>1473</ele>
        <time>2020-08-22T15:32:20.000Z</time>
      </trkpt>
      <trkpt lat="44.09606" lon="6.98615">
        <ele>1473.4000244141</ele>
        <time>2020-08-22T15:32:30.000Z</time>
      </trkpt>
      <trkpt lat="44.09606" lon="6.98606">
        <ele>1473.4000244141</ele>
        <time>2020-08-22T15:32:41.000Z</time>
      </trkpt>
      <trkpt lat="44.09606" lon="6.98607">
        <ele>1473.5999755859</ele>
        <time>2020-08-22T15:32:53.000Z</time>
      </trkpt>
      <trkpt lat="44.09606" lon="6.98608">
        <ele>1473.8000488281</ele>
        <time>2020-08-22T15:33:10.000Z</time>
      </trkpt>
      <trkpt lat="44.09606" lon="6.98611">
        <ele>1473.8000488281</ele>
        <time>2020-08-22T15:33:18.000Z</time>
      </trkpt>
      <trkpt lat="44.09606" lon="6.98609">
        <ele>1474</ele>
        <time>2020-08-22T15:33:27.000Z</time>
      </trkpt>
      <trkpt lat="44.09607" lon="6.98606">
        <ele>1474.1999511719</ele>
        <time>2020-08-22T15:33:32.000Z</time>
      </trkpt>
      <trkpt lat="44.09608" lon="6.98606">
        <ele>1474.1999511719</ele>
        <time>2020-08-22T15:33:33.000Z</time>
      </trkpt>
      <trkpt lat="44.09608" lon="6.98607">
        <ele>1474</ele>
        <time>2020-08-22T15:33:38.000Z</time>
      </trkpt>
      <trkpt lat="44.09607" lon="6.98606">
        <ele>1473.5999755859</ele>
        <time>2020-08-22T15:33:44.000Z</time>
      </trkpt>
      <trkpt lat="44.09606" lon="6.98604">
        <ele>1473.1999511719</ele>
        <time>2020-08-22T15:33:49.000Z</time>
      </trkpt>
      <trkpt lat="44.09606" lon="6.98603">
        <ele>1473.4000244141</ele>
        <time>2020-08-22T15:33:51.000Z</time>
      </trkpt>
      <trkpt lat="44.09606" lon="6.98603">
        <ele>1473.5999755859</ele>
        <time>2020-08-22T15:34:01.000Z</time>
      </trkpt>
      <trkpt lat="44.09606" lon="6.98602">
        <ele>1473.8000488281</ele>
        <time>2020-08-22T15:34:11.000Z</time>
      </trkpt>
      <trkpt lat="44.09606" lon="6.98601">
        <ele>1474.1999511719</ele>
        <time>2020-08-22T15:34:22.000Z</time>
      </trkpt>
      <trkpt lat="44.09606" lon="6.98602">
        <ele>1474.1999511719</ele>
        <time>2020-08-22T15:34:33.000Z</time>
      </trkpt>
      <trkpt lat="44.09606" lon="6.98603">
        <ele>1474.1999511719</ele>
        <time>2020-08-22T15:34:37.000Z</time>
      </trkpt>
    </trkseg>
  </trk>
</gpx>